<?xml version="1.0" encoding="UTF-8"?>
<gpx version="1.1" creator="https://www.youtrack.es" xsi:schemaLocation="http://www.topografix.com/GPX/1/1 http://www.topografix.com/GPX/1/1/gpx.xsd http://www.garmin.com/xmlschemas/GpxExtensions/v3 http://www.garmin.com/xmlschemas/GpxExtensionsv3.xsd http://www.garmin.com/xmlschemas/TrackPointExtension/v1 http://www.garmin.com/xmlschemas/TrackPointExtensionv1.xsd" xmlns:gpxtpx="http://www.garmin.com/xmlschemas/TrackPointExtension/v1" xmlns:gpxx="http://www.garmin.com/xmlschemas/GpxExtensions/v3" xmlns:xsi="http://www.w3.org/2001/XMLSchema-instance">
  <metadata>
    <link href="https://www.youtrack.es">
      <text>YouTrack.es</text>
    </link>
    <time>2026-05-10T15:47:01Z</time>
  </metadata>
  <trk>
    <src>https://www.youtrack.es</src>
    <link href="https://www.youtrack.es/ruta/11986-c">
      <text>YouTrack.es</text>
    </link>
    <trkseg>
      <trkpt lat="43.3415429760" lon="-8.4070532396">
        <ele>22.66</ele>
        <time>2020-03-14T07:31:00Z</time>
      </trkpt>
      <trkpt lat="43.3415352646" lon="-8.4070500545">
        <ele>21.85</ele>
        <time>2020-03-14T07:31:01Z</time>
      </trkpt>
      <trkpt lat="43.3415658586" lon="-8.4070113301">
        <ele>20.94</ele>
        <time>2020-03-14T07:31:16Z</time>
      </trkpt>
      <trkpt lat="43.3413136471" lon="-8.4069060534">
        <ele>20.98</ele>
        <time>2020-03-14T07:31:27Z</time>
      </trkpt>
      <trkpt lat="43.3410386369" lon="-8.4067244176">
        <ele>21.17</ele>
        <time>2020-03-14T07:31:40Z</time>
      </trkpt>
      <trkpt lat="43.3410143293" lon="-8.4067384154">
        <ele>21.19</ele>
        <time>2020-03-14T07:31:41Z</time>
      </trkpt>
      <trkpt lat="43.3408932108" lon="-8.4068583604">
        <ele>21.32</ele>
        <time>2020-03-14T07:31:49Z</time>
      </trkpt>
      <trkpt lat="43.3407985792" lon="-8.4067296982">
        <ele>23.70</ele>
        <time>2020-03-14T07:31:59Z</time>
      </trkpt>
      <trkpt lat="43.3408902772" lon="-8.4067606274">
        <ele>25.69</ele>
        <time>2020-03-14T07:32:05Z</time>
      </trkpt>
      <trkpt lat="43.3408931270" lon="-8.4067925625">
        <ele>25.92</ele>
        <time>2020-03-14T07:32:06Z</time>
      </trkpt>
      <trkpt lat="43.3408681490" lon="-8.4068778902">
        <ele>26.73</ele>
        <time>2020-03-14T07:32:09Z</time>
      </trkpt>
      <trkpt lat="43.3407436777" lon="-8.4071930498">
        <ele>29.31</ele>
        <time>2020-03-14T07:32:22Z</time>
      </trkpt>
      <trkpt lat="43.3406480402" lon="-8.4074646235">
        <ele>29.93</ele>
        <time>2020-03-14T07:32:29Z</time>
      </trkpt>
      <trkpt lat="43.3407150116" lon="-8.4075522982">
        <ele>29.91</ele>
        <time>2020-03-14T07:32:33Z</time>
      </trkpt>
      <trkpt lat="43.3407403249" lon="-8.4075250570">
        <ele>29.85</ele>
        <time>2020-03-14T07:32:34Z</time>
      </trkpt>
      <trkpt lat="43.3407522272" lon="-8.4074836504">
        <ele>29.75</ele>
        <time>2020-03-14T07:32:35Z</time>
      </trkpt>
      <trkpt lat="43.3407451026" lon="-8.4074430820">
        <ele>29.48</ele>
        <time>2020-03-14T07:32:36Z</time>
      </trkpt>
      <trkpt lat="43.3407258242" lon="-8.4074135777">
        <ele>29.16</ele>
        <time>2020-03-14T07:32:37Z</time>
      </trkpt>
      <trkpt lat="43.3407021873" lon="-8.4073963948">
        <ele>28.84</ele>
        <time>2020-03-14T07:32:38Z</time>
      </trkpt>
      <trkpt lat="43.3406799752" lon="-8.4073940478">
        <ele>28.50</ele>
        <time>2020-03-14T07:32:39Z</time>
      </trkpt>
      <trkpt lat="43.3406627085" lon="-8.4074051958">
        <ele>28.18</ele>
        <time>2020-03-14T07:32:40Z</time>
      </trkpt>
      <trkpt lat="43.3406516444" lon="-8.4074339457">
        <ele>27.85</ele>
        <time>2020-03-14T07:32:41Z</time>
      </trkpt>
      <trkpt lat="43.3406518959" lon="-8.4074709099">
        <ele>27.42</ele>
        <time>2020-03-14T07:32:42Z</time>
      </trkpt>
      <trkpt lat="43.3406617865" lon="-8.4075087961">
        <ele>27.02</ele>
        <time>2020-03-14T07:32:43Z</time>
      </trkpt>
      <trkpt lat="43.3406872675" lon="-8.4075372946">
        <ele>26.58</ele>
        <time>2020-03-14T07:32:44Z</time>
      </trkpt>
      <trkpt lat="43.3407195378" lon="-8.4075627755">
        <ele>26.11</ele>
        <time>2020-03-14T07:32:45Z</time>
      </trkpt>
      <trkpt lat="43.3407482877" lon="-8.4075905196">
        <ele>25.61</ele>
        <time>2020-03-14T07:32:46Z</time>
      </trkpt>
      <trkpt lat="43.3408332802" lon="-8.4076605923">
        <ele>24.41</ele>
        <time>2020-03-14T07:32:49Z</time>
      </trkpt>
      <trkpt lat="43.3408729266" lon="-8.4076615144">
        <ele>24.03</ele>
        <time>2020-03-14T07:32:50Z</time>
      </trkpt>
      <trkpt lat="43.3409159258" lon="-8.4076704830">
        <ele>23.82</ele>
        <time>2020-03-14T07:32:51Z</time>
      </trkpt>
      <trkpt lat="43.3409587573" lon="-8.4076924436">
        <ele>23.64</ele>
        <time>2020-03-14T07:32:52Z</time>
      </trkpt>
      <trkpt lat="43.3410052769" lon="-8.4077260550">
        <ele>23.51</ele>
        <time>2020-03-14T07:32:53Z</time>
      </trkpt>
      <trkpt lat="43.3410510421" lon="-8.4077717364">
        <ele>23.40</ele>
        <time>2020-03-14T07:32:54Z</time>
      </trkpt>
      <trkpt lat="43.3410806302" lon="-8.4078380372">
        <ele>23.01</ele>
        <time>2020-03-14T07:32:55Z</time>
      </trkpt>
      <trkpt lat="43.3410864137" lon="-8.4079229459">
        <ele>22.87</ele>
        <time>2020-03-14T07:32:56Z</time>
      </trkpt>
      <trkpt lat="43.3410707396" lon="-8.4080102015">
        <ele>22.71</ele>
        <time>2020-03-14T07:32:57Z</time>
      </trkpt>
      <trkpt lat="43.3410438336" lon="-8.4080937691">
        <ele>22.45</ele>
        <time>2020-03-14T07:32:58Z</time>
      </trkpt>
      <trkpt lat="43.3410148323" lon="-8.4081703797">
        <ele>22.14</ele>
        <time>2020-03-14T07:32:59Z</time>
      </trkpt>
      <trkpt lat="43.3409806341" lon="-8.4082407877">
        <ele>21.73</ele>
        <time>2020-03-14T07:33:00Z</time>
      </trkpt>
      <trkpt lat="43.3409438375" lon="-8.4083076753">
        <ele>21.29</ele>
        <time>2020-03-14T07:33:01Z</time>
      </trkpt>
      <trkpt lat="43.3405935578" lon="-8.4088676702">
        <ele>18.40</ele>
        <time>2020-03-14T07:33:12Z</time>
      </trkpt>
      <trkpt lat="43.3404702600" lon="-8.4091244079">
        <ele>18.50</ele>
        <time>2020-03-14T07:33:18Z</time>
      </trkpt>
      <trkpt lat="43.3404638898" lon="-8.4091778006">
        <ele>18.57</ele>
        <time>2020-03-14T07:33:19Z</time>
      </trkpt>
      <trkpt lat="43.3404610399" lon="-8.4092378989">
        <ele>18.67</ele>
        <time>2020-03-14T07:33:20Z</time>
      </trkpt>
      <trkpt lat="43.3404650632" lon="-8.4093023557">
        <ele>18.97</ele>
        <time>2020-03-14T07:33:21Z</time>
      </trkpt>
      <trkpt lat="43.3404828329" lon="-8.4093660582">
        <ele>19.03</ele>
        <time>2020-03-14T07:33:22Z</time>
      </trkpt>
      <trkpt lat="43.3405094035" lon="-8.4094274975">
        <ele>19.06</ele>
        <time>2020-03-14T07:33:23Z</time>
      </trkpt>
      <trkpt lat="43.3405412547" lon="-8.4094867576">
        <ele>19.07</ele>
        <time>2020-03-14T07:33:24Z</time>
      </trkpt>
      <trkpt lat="43.3405771293" lon="-8.4095388930">
        <ele>19.08</ele>
        <time>2020-03-14T07:33:25Z</time>
      </trkpt>
      <trkpt lat="43.3406179491" lon="-8.4095815569">
        <ele>19.08</ele>
        <time>2020-03-14T07:33:26Z</time>
      </trkpt>
      <trkpt lat="43.3406627085" lon="-8.4096121509">
        <ele>19.08</ele>
        <time>2020-03-14T07:33:27Z</time>
      </trkpt>
      <trkpt lat="43.3407114912" lon="-8.4096336085">
        <ele>19.08</ele>
        <time>2020-03-14T07:33:28Z</time>
      </trkpt>
      <trkpt lat="43.3407601900" lon="-8.4096528031">
        <ele>19.10</ele>
        <time>2020-03-14T07:33:29Z</time>
      </trkpt>
      <trkpt lat="43.3408880979" lon="-8.4097013343">
        <ele>19.17</ele>
        <time>2020-03-14T07:33:32Z</time>
      </trkpt>
      <trkpt lat="43.3409321867" lon="-8.4097279888">
        <ele>19.19</ele>
        <time>2020-03-14T07:33:33Z</time>
      </trkpt>
      <trkpt lat="43.3409731742" lon="-8.4097611811">
        <ele>19.20</ele>
        <time>2020-03-14T07:33:34Z</time>
      </trkpt>
      <trkpt lat="43.3410118148" lon="-8.4097994864">
        <ele>19.19</ele>
        <time>2020-03-14T07:33:35Z</time>
      </trkpt>
      <trkpt lat="43.3410501201" lon="-8.4098379593">
        <ele>19.18</ele>
        <time>2020-03-14T07:33:36Z</time>
      </trkpt>
      <trkpt lat="43.3413459174" lon="-8.4101583995">
        <ele>19.06</ele>
        <time>2020-03-14T07:33:44Z</time>
      </trkpt>
      <trkpt lat="43.3413644414" lon="-8.4102096967">
        <ele>19.06</ele>
        <time>2020-03-14T07:33:45Z</time>
      </trkpt>
      <trkpt lat="43.3413627651" lon="-8.4102648497">
        <ele>19.04</ele>
        <time>2020-03-14T07:33:46Z</time>
      </trkpt>
      <trkpt lat="43.3413409721" lon="-8.4103145543">
        <ele>19.03</ele>
        <time>2020-03-14T07:33:47Z</time>
      </trkpt>
      <trkpt lat="43.3413082827" lon="-8.4103637561">
        <ele>19.00</ele>
        <time>2020-03-14T07:33:48Z</time>
      </trkpt>
      <trkpt lat="43.3412748389" lon="-8.4104080126">
        <ele>18.98</ele>
        <time>2020-03-14T07:33:49Z</time>
      </trkpt>
      <trkpt lat="43.3412149083" lon="-8.4104961064">
        <ele>18.95</ele>
        <time>2020-03-14T07:33:51Z</time>
      </trkpt>
      <trkpt lat="43.3411907684" lon="-8.4105434641">
        <ele>18.94</ele>
        <time>2020-03-14T07:33:52Z</time>
      </trkpt>
      <trkpt lat="43.3411709871" lon="-8.4105994552">
        <ele>18.90</ele>
        <time>2020-03-14T07:33:53Z</time>
      </trkpt>
      <trkpt lat="43.3411619347" lon="-8.4106632415">
        <ele>18.82</ele>
        <time>2020-03-14T07:33:54Z</time>
      </trkpt>
      <trkpt lat="43.3411636110" lon="-8.4107399359">
        <ele>18.79</ele>
        <time>2020-03-14T07:33:55Z</time>
      </trkpt>
      <trkpt lat="43.3411796205" lon="-8.4108147863">
        <ele>18.72</ele>
        <time>2020-03-14T07:33:56Z</time>
      </trkpt>
      <trkpt lat="43.3412079513" lon="-8.4108773153">
        <ele>18.69</ele>
        <time>2020-03-14T07:33:57Z</time>
      </trkpt>
      <trkpt lat="43.3412476815" lon="-8.4109112620">
        <ele>18.68</ele>
        <time>2020-03-14T07:33:58Z</time>
      </trkpt>
      <trkpt lat="43.3412821312" lon="-8.4109476395">
        <ele>18.67</ele>
        <time>2020-03-14T07:33:59Z</time>
      </trkpt>
      <trkpt lat="43.3413103782" lon="-8.4109904710">
        <ele>18.67</ele>
        <time>2020-03-14T07:34:00Z</time>
      </trkpt>
      <trkpt lat="43.3413330093" lon="-8.4110343922">
        <ele>18.67</ele>
        <time>2020-03-14T07:34:01Z</time>
      </trkpt>
      <trkpt lat="43.3413606696" lon="-8.4110725299">
        <ele>18.67</ele>
        <time>2020-03-14T07:34:02Z</time>
      </trkpt>
      <trkpt lat="43.3413854800" lon="-8.4111050516">
        <ele>18.67</ele>
        <time>2020-03-14T07:34:03Z</time>
      </trkpt>
      <trkpt lat="43.3415008150" lon="-8.4113891143">
        <ele>20.47</ele>
        <time>2020-03-14T07:34:12Z</time>
      </trkpt>
      <trkpt lat="43.3414837159" lon="-8.4114325326">
        <ele>20.81</ele>
        <time>2020-03-14T07:34:13Z</time>
      </trkpt>
      <trkpt lat="43.3414586540" lon="-8.4114694968">
        <ele>21.12</ele>
        <time>2020-03-14T07:34:14Z</time>
      </trkpt>
      <trkpt lat="43.3414371964" lon="-8.4115091432">
        <ele>21.28</ele>
        <time>2020-03-14T07:34:15Z</time>
      </trkpt>
      <trkpt lat="43.3414169122" lon="-8.4115453530">
        <ele>21.36</ele>
        <time>2020-03-14T07:34:16Z</time>
      </trkpt>
      <trkpt lat="43.3413958736" lon="-8.4115778748">
        <ele>21.41</ele>
        <time>2020-03-14T07:34:17Z</time>
      </trkpt>
      <trkpt lat="43.3413734101" lon="-8.4116043616">
        <ele>21.43</ele>
        <time>2020-03-14T07:34:18Z</time>
      </trkpt>
      <trkpt lat="43.3410499524" lon="-8.4120812081">
        <ele>21.51</ele>
        <time>2020-03-14T07:34:31Z</time>
      </trkpt>
      <trkpt lat="43.3407357149" lon="-8.4125619102">
        <ele>22.43</ele>
        <time>2020-03-14T07:34:44Z</time>
      </trkpt>
      <trkpt lat="43.3406153508" lon="-8.4127985314">
        <ele>23.85</ele>
        <time>2020-03-14T07:34:52Z</time>
      </trkpt>
      <trkpt lat="43.3406166080" lon="-8.4128300473">
        <ele>24.06</ele>
        <time>2020-03-14T07:34:53Z</time>
      </trkpt>
      <trkpt lat="43.3406194579" lon="-8.4128683526">
        <ele>24.28</ele>
        <time>2020-03-14T07:34:54Z</time>
      </trkpt>
      <trkpt lat="43.3406247385" lon="-8.4129088372">
        <ele>24.48</ele>
        <time>2020-03-14T07:34:55Z</time>
      </trkpt>
      <trkpt lat="43.3406326175" lon="-8.4129464719">
        <ele>24.65</ele>
        <time>2020-03-14T07:34:56Z</time>
      </trkpt>
      <trkpt lat="43.3406425919" lon="-8.4129811730">
        <ele>24.86</ele>
        <time>2020-03-14T07:34:57Z</time>
      </trkpt>
      <trkpt lat="43.3405508939" lon="-8.4132829215">
        <ele>27.16</ele>
        <time>2020-03-14T07:35:06Z</time>
      </trkpt>
      <trkpt lat="43.3405171148" lon="-8.4132749587">
        <ele>27.28</ele>
        <time>2020-03-14T07:35:07Z</time>
      </trkpt>
      <trkpt lat="43.3404335473" lon="-8.4132409282">
        <ele>27.38</ele>
        <time>2020-03-14T07:35:09Z</time>
      </trkpt>
      <trkpt lat="43.3403876983" lon="-8.4132172074">
        <ele>27.40</ele>
        <time>2020-03-14T07:35:10Z</time>
      </trkpt>
      <trkpt lat="43.3402437810" lon="-8.4131354000">
        <ele>27.41</ele>
        <time>2020-03-14T07:35:13Z</time>
      </trkpt>
      <trkpt lat="43.3401897177" lon="-8.4131210670">
        <ele>27.41</ele>
        <time>2020-03-14T07:35:14Z</time>
      </trkpt>
      <trkpt lat="43.3401366603" lon="-8.4131162055">
        <ele>27.41</ele>
        <time>2020-03-14T07:35:15Z</time>
      </trkpt>
      <trkpt lat="43.3400768973" lon="-8.4131194744">
        <ele>27.41</ele>
        <time>2020-03-14T07:35:16Z</time>
      </trkpt>
      <trkpt lat="43.3400126919" lon="-8.4131329693">
        <ele>27.41</ele>
        <time>2020-03-14T07:35:17Z</time>
      </trkpt>
      <trkpt lat="43.3398250211" lon="-8.4132102504">
        <ele>26.59</ele>
        <time>2020-03-14T07:35:20Z</time>
      </trkpt>
      <trkpt lat="43.3393601608" lon="-8.4135340434">
        <ele>24.04</ele>
        <time>2020-03-14T07:35:27Z</time>
      </trkpt>
      <trkpt lat="43.3392835502" lon="-8.4135648888">
        <ele>23.55</ele>
        <time>2020-03-14T07:35:28Z</time>
      </trkpt>
      <trkpt lat="43.3392097056" lon="-8.4135851730">
        <ele>23.02</ele>
        <time>2020-03-14T07:35:29Z</time>
      </trkpt>
      <trkpt lat="43.3388715796" lon="-8.4136848338">
        <ele>19.85</ele>
        <time>2020-03-14T07:35:34Z</time>
      </trkpt>
      <trkpt lat="43.3388153370" lon="-8.4136990830">
        <ele>19.59</ele>
        <time>2020-03-14T07:35:35Z</time>
      </trkpt>
      <trkpt lat="43.3386227209" lon="-8.4137743525">
        <ele>19.34</ele>
        <time>2020-03-14T07:35:39Z</time>
      </trkpt>
      <trkpt lat="43.3385833260" lon="-8.4137833212">
        <ele>19.33</ele>
        <time>2020-03-14T07:35:40Z</time>
      </trkpt>
      <trkpt lat="43.3385471161" lon="-8.4138042759">
        <ele>19.33</ele>
        <time>2020-03-14T07:35:41Z</time>
      </trkpt>
      <trkpt lat="43.3385147620" lon="-8.4138324391">
        <ele>19.33</ele>
        <time>2020-03-14T07:35:42Z</time>
      </trkpt>
      <trkpt lat="43.3384860959" lon="-8.4138669726">
        <ele>19.33</ele>
        <time>2020-03-14T07:35:43Z</time>
      </trkpt>
      <trkpt lat="43.3384612855" lon="-8.4138967283">
        <ele>19.51</ele>
        <time>2020-03-14T07:35:44Z</time>
      </trkpt>
      <trkpt lat="43.3383456152" lon="-8.4141332656">
        <ele>22.83</ele>
        <time>2020-03-14T07:35:52Z</time>
      </trkpt>
      <trkpt lat="43.3382400032" lon="-8.4143949486">
        <ele>25.83</ele>
        <time>2020-03-14T07:36:01Z</time>
      </trkpt>
      <trkpt lat="43.3379231673" lon="-8.4146263730">
        <ele>28.10</ele>
        <time>2020-03-14T07:36:14Z</time>
      </trkpt>
      <trkpt lat="43.3375837002" lon="-8.4147139639">
        <ele>29.95</ele>
        <time>2020-03-14T07:36:27Z</time>
      </trkpt>
      <trkpt lat="43.3375246916" lon="-8.4147079289">
        <ele>30.27</ele>
        <time>2020-03-14T07:36:29Z</time>
      </trkpt>
      <trkpt lat="43.3374945167" lon="-8.4146942664">
        <ele>30.37</ele>
        <time>2020-03-14T07:36:30Z</time>
      </trkpt>
      <trkpt lat="43.3374612406" lon="-8.4146765806">
        <ele>30.53</ele>
        <time>2020-03-14T07:36:31Z</time>
      </trkpt>
      <trkpt lat="43.3370060194" lon="-8.4142407216">
        <ele>31.25</ele>
        <time>2020-03-14T07:36:46Z</time>
      </trkpt>
      <trkpt lat="43.3365030214" lon="-8.4136629570">
        <ele>31.24</ele>
        <time>2020-03-14T07:37:03Z</time>
      </trkpt>
      <trkpt lat="43.3357163798" lon="-8.4133767989">
        <ele>32.22</ele>
        <time>2020-03-14T07:37:22Z</time>
      </trkpt>
      <trkpt lat="43.3355997875" lon="-8.4132950753">
        <ele>32.50</ele>
        <time>2020-03-14T07:37:28Z</time>
      </trkpt>
      <trkpt lat="43.3352149744" lon="-8.4133781400">
        <ele>33.28</ele>
        <time>2020-03-14T07:37:40Z</time>
      </trkpt>
      <trkpt lat="43.3349085320" lon="-8.4134648927">
        <ele>34.52</ele>
        <time>2020-03-14T07:37:51Z</time>
      </trkpt>
      <trkpt lat="43.3347746730" lon="-8.4136820678">
        <ele>37.81</ele>
        <time>2020-03-14T07:38:02Z</time>
      </trkpt>
      <trkpt lat="43.3345512114" lon="-8.4141194355">
        <ele>40.86</ele>
        <time>2020-03-14T07:38:18Z</time>
      </trkpt>
      <trkpt lat="43.3345222939" lon="-8.4141738340">
        <ele>41.10</ele>
        <time>2020-03-14T07:38:20Z</time>
      </trkpt>
      <trkpt lat="43.3345284965" lon="-8.4142438229">
        <ele>41.47</ele>
        <time>2020-03-14T07:38:22Z</time>
      </trkpt>
      <trkpt lat="43.3345485292" lon="-8.4142734949">
        <ele>41.58</ele>
        <time>2020-03-14T07:38:23Z</time>
      </trkpt>
      <trkpt lat="43.3345726691" lon="-8.4143025801">
        <ele>41.64</ele>
        <time>2020-03-14T07:38:24Z</time>
      </trkpt>
      <trkpt lat="43.3345993236" lon="-8.4143302403">
        <ele>41.79</ele>
        <time>2020-03-14T07:38:25Z</time>
      </trkpt>
      <trkpt lat="43.3346271515" lon="-8.4143571462">
        <ele>41.87</ele>
        <time>2020-03-14T07:38:26Z</time>
      </trkpt>
      <trkpt lat="43.3350240346" lon="-8.4148346633">
        <ele>43.63</ele>
        <time>2020-03-14T07:38:45Z</time>
      </trkpt>
      <trkpt lat="43.3352447301" lon="-8.4151008725">
        <ele>46.79</ele>
        <time>2020-03-14T07:38:59Z</time>
      </trkpt>
      <trkpt lat="43.3354477398" lon="-8.4153503180">
        <ele>49.86</ele>
        <time>2020-03-14T07:39:12Z</time>
      </trkpt>
      <trkpt lat="43.3356748056" lon="-8.4155570995">
        <ele>52.89</ele>
        <time>2020-03-14T07:39:25Z</time>
      </trkpt>
      <trkpt lat="43.3357849438" lon="-8.4158828203">
        <ele>56.08</ele>
        <time>2020-03-14T07:39:38Z</time>
      </trkpt>
      <trkpt lat="43.3357698563" lon="-8.4164168313">
        <ele>58.88</ele>
        <time>2020-03-14T07:39:54Z</time>
      </trkpt>
      <trkpt lat="43.3356952574" lon="-8.4168824460">
        <ele>60.57</ele>
        <time>2020-03-14T07:40:08Z</time>
      </trkpt>
      <trkpt lat="43.3356559463" lon="-8.4172880463">
        <ele>62.13</ele>
        <time>2020-03-14T07:40:20Z</time>
      </trkpt>
      <trkpt lat="43.3355113585" lon="-8.4174462128">
        <ele>62.73</ele>
        <time>2020-03-14T07:40:25Z</time>
      </trkpt>
      <trkpt lat="43.3354799263" lon="-8.4174445365">
        <ele>62.84</ele>
        <time>2020-03-14T07:40:26Z</time>
      </trkpt>
      <trkpt lat="43.3354519308" lon="-8.4174286108">
        <ele>63.01</ele>
        <time>2020-03-14T07:40:27Z</time>
      </trkpt>
      <trkpt lat="43.3354303055" lon="-8.4174047224">
        <ele>63.08</ele>
        <time>2020-03-14T07:40:28Z</time>
      </trkpt>
      <trkpt lat="43.3354083449" lon="-8.4173799120">
        <ele>63.15</ele>
        <time>2020-03-14T07:40:29Z</time>
      </trkpt>
      <trkpt lat="43.3353868872" lon="-8.4173613042">
        <ele>63.23</ele>
        <time>2020-03-14T07:40:30Z</time>
      </trkpt>
      <trkpt lat="43.3353701234" lon="-8.4173500724">
        <ele>63.28</ele>
        <time>2020-03-14T07:40:31Z</time>
      </trkpt>
      <trkpt lat="43.3352018986" lon="-8.4172162972">
        <ele>64.72</ele>
        <time>2020-03-14T07:40:41Z</time>
      </trkpt>
      <trkpt lat="43.3346777782" lon="-8.4169005509">
        <ele>67.33</ele>
        <time>2020-03-14T07:41:01Z</time>
      </trkpt>
      <trkpt lat="43.3340983372" lon="-8.4165154863">
        <ele>68.80</ele>
        <time>2020-03-14T07:41:20Z</time>
      </trkpt>
      <trkpt lat="43.3340734430" lon="-8.4165408835">
        <ele>68.83</ele>
        <time>2020-03-14T07:41:21Z</time>
      </trkpt>
      <trkpt lat="43.3340583555" lon="-8.4165808652">
        <ele>68.86</ele>
        <time>2020-03-14T07:41:22Z</time>
      </trkpt>
      <trkpt lat="43.3340503089" lon="-8.4166200925">
        <ele>68.89</ele>
        <time>2020-03-14T07:41:23Z</time>
      </trkpt>
      <trkpt lat="43.3340468723" lon="-8.4166577272">
        <ele>68.92</ele>
        <time>2020-03-14T07:41:24Z</time>
      </trkpt>
      <trkpt lat="43.3340441901" lon="-8.4166973736">
        <ele>68.94</ele>
        <time>2020-03-14T07:41:25Z</time>
      </trkpt>
      <trkpt lat="43.3339054696" lon="-8.4172379225">
        <ele>70.67</ele>
        <time>2020-03-14T07:41:39Z</time>
      </trkpt>
      <trkpt lat="43.3337146137" lon="-8.4177335445">
        <ele>71.41</ele>
        <time>2020-03-14T07:41:50Z</time>
      </trkpt>
      <trkpt lat="43.3336872049" lon="-8.4177451953">
        <ele>71.42</ele>
        <time>2020-03-14T07:41:51Z</time>
      </trkpt>
      <trkpt lat="43.3336626459" lon="-8.4177472908">
        <ele>71.44</ele>
        <time>2020-03-14T07:41:52Z</time>
      </trkpt>
      <trkpt lat="43.3333413675" lon="-8.4176634718">
        <ele>73.42</ele>
        <time>2020-03-14T07:42:04Z</time>
      </trkpt>
      <trkpt lat="43.3330092765" lon="-8.4171282034">
        <ele>75.36</ele>
        <time>2020-03-14T07:42:20Z</time>
      </trkpt>
      <trkpt lat="43.3325450029" lon="-8.4165728185">
        <ele>75.53</ele>
        <time>2020-03-14T07:42:37Z</time>
      </trkpt>
      <trkpt lat="43.3324010018" lon="-8.4163595829">
        <ele>76.37</ele>
        <time>2020-03-14T07:42:47Z</time>
      </trkpt>
      <trkpt lat="43.3321241476" lon="-8.4160885960">
        <ele>79.48</ele>
        <time>2020-03-14T07:42:59Z</time>
      </trkpt>
      <trkpt lat="43.3317434415" lon="-8.4156315308">
        <ele>79.78</ele>
        <time>2020-03-14T07:43:12Z</time>
      </trkpt>
      <trkpt lat="43.3312127832" lon="-8.4149507526">
        <ele>78.05</ele>
        <time>2020-03-14T07:43:28Z</time>
      </trkpt>
      <trkpt lat="43.3308829553" lon="-8.4146836214">
        <ele>78.01</ele>
        <time>2020-03-14T07:43:39Z</time>
      </trkpt>
      <trkpt lat="43.3306306601" lon="-8.4148110263">
        <ele>79.46</ele>
        <time>2020-03-14T07:43:50Z</time>
      </trkpt>
      <trkpt lat="43.3303741738" lon="-8.4148771595">
        <ele>82.52</ele>
        <time>2020-03-14T07:44:03Z</time>
      </trkpt>
      <trkpt lat="43.3300935477" lon="-8.4146851301">
        <ele>85.54</ele>
        <time>2020-03-14T07:44:14Z</time>
      </trkpt>
      <trkpt lat="43.3297491353" lon="-8.4144455753">
        <ele>86.08</ele>
        <time>2020-03-14T07:44:26Z</time>
      </trkpt>
      <trkpt lat="43.3294997737" lon="-8.4144244529">
        <ele>86.53</ele>
        <time>2020-03-14T07:44:36Z</time>
      </trkpt>
      <trkpt lat="43.3291883022" lon="-8.4143962059">
        <ele>88.95</ele>
        <time>2020-03-14T07:44:49Z</time>
      </trkpt>
      <trkpt lat="43.3286175784" lon="-8.4142522048">
        <ele>90.13</ele>
        <time>2020-03-14T07:45:05Z</time>
      </trkpt>
      <trkpt lat="43.3282167558" lon="-8.4140360355">
        <ele>90.57</ele>
        <time>2020-03-14T07:45:18Z</time>
      </trkpt>
      <trkpt lat="43.3280398976" lon="-8.4141564835">
        <ele>90.70</ele>
        <time>2020-03-14T07:45:26Z</time>
      </trkpt>
      <trkpt lat="43.3279482834" lon="-8.4144118801">
        <ele>93.70</ele>
        <time>2020-03-14T07:45:37Z</time>
      </trkpt>
      <trkpt lat="43.3278411627" lon="-8.4146822803">
        <ele>96.79</ele>
        <time>2020-03-14T07:45:50Z</time>
      </trkpt>
      <trkpt lat="43.3277967386" lon="-8.4147179034">
        <ele>98.11</ele>
        <time>2020-03-14T07:45:53Z</time>
      </trkpt>
      <trkpt lat="43.3276469540" lon="-8.4149209969">
        <ele>100.40</ele>
        <time>2020-03-14T07:46:02Z</time>
      </trkpt>
      <trkpt lat="43.3274417650" lon="-8.4153244179">
        <ele>102.28</ele>
        <time>2020-03-14T07:46:16Z</time>
      </trkpt>
      <trkpt lat="43.3272866160" lon="-8.4156220593">
        <ele>104.08</ele>
        <time>2020-03-14T07:46:27Z</time>
      </trkpt>
      <trkpt lat="43.3271602169" lon="-8.4156746138">
        <ele>104.41</ele>
        <time>2020-03-14T07:46:32Z</time>
      </trkpt>
      <trkpt lat="43.3269652538" lon="-8.4160038549">
        <ele>104.77</ele>
        <time>2020-03-14T07:46:42Z</time>
      </trkpt>
      <trkpt lat="43.3268735558" lon="-8.4161279071">
        <ele>104.68</ele>
        <time>2020-03-14T07:46:45Z</time>
      </trkpt>
      <trkpt lat="43.3268349152" lon="-8.4161649551">
        <ele>104.67</ele>
        <time>2020-03-14T07:46:46Z</time>
      </trkpt>
      <trkpt lat="43.3264578972" lon="-8.4164190106">
        <ele>102.71</ele>
        <time>2020-03-14T07:46:56Z</time>
      </trkpt>
      <trkpt lat="43.3262527082" lon="-8.4166060109">
        <ele>101.92</ele>
        <time>2020-03-14T07:47:04Z</time>
      </trkpt>
      <trkpt lat="43.3261279855" lon="-8.4168134630">
        <ele>102.44</ele>
        <time>2020-03-14T07:47:13Z</time>
      </trkpt>
      <trkpt lat="43.3260471001" lon="-8.4170066658">
        <ele>104.41</ele>
        <time>2020-03-14T07:47:23Z</time>
      </trkpt>
      <trkpt lat="43.3259317651" lon="-8.4173522517">
        <ele>105.97</ele>
        <time>2020-03-14T07:47:33Z</time>
      </trkpt>
      <trkpt lat="43.3259248920" lon="-8.4173884615">
        <ele>105.97</ele>
        <time>2020-03-14T07:47:34Z</time>
      </trkpt>
      <trkpt lat="43.3257454354" lon="-8.4177528229">
        <ele>105.97</ele>
        <time>2020-03-14T07:47:45Z</time>
      </trkpt>
      <trkpt lat="43.3255965728" lon="-8.4179878514">
        <ele>107.62</ele>
        <time>2020-03-14T07:47:59Z</time>
      </trkpt>
      <trkpt lat="43.3255865145" lon="-8.4180879313">
        <ele>108.10</ele>
        <time>2020-03-14T07:48:02Z</time>
      </trkpt>
      <trkpt lat="43.3255243208" lon="-8.4184967168">
        <ele>109.59</ele>
        <time>2020-03-14T07:48:12Z</time>
      </trkpt>
      <trkpt lat="43.3255093172" lon="-8.4187791869">
        <ele>110.73</ele>
        <time>2020-03-14T07:48:22Z</time>
      </trkpt>
      <trkpt lat="43.3254088182" lon="-8.4190281294">
        <ele>113.51</ele>
        <time>2020-03-14T07:48:34Z</time>
      </trkpt>
      <trkpt lat="43.3253106661" lon="-8.4192151297">
        <ele>115.40</ele>
        <time>2020-03-14T07:48:42Z</time>
      </trkpt>
      <trkpt lat="43.3255368099" lon="-8.4197115898">
        <ele>118.19</ele>
        <time>2020-03-14T07:48:56Z</time>
      </trkpt>
      <trkpt lat="43.3258271590" lon="-8.4203939606">
        <ele>114.78</ele>
        <time>2020-03-14T07:49:10Z</time>
      </trkpt>
      <trkpt lat="43.3258823957" lon="-8.4205782786">
        <ele>111.08</ele>
        <time>2020-03-14T07:49:14Z</time>
      </trkpt>
      <trkpt lat="43.3259680588" lon="-8.4207682125">
        <ele>107.48</ele>
        <time>2020-03-14T07:49:19Z</time>
      </trkpt>
      <trkpt lat="43.3261218667" lon="-8.4208063502">
        <ele>104.25</ele>
        <time>2020-03-14T07:49:24Z</time>
      </trkpt>
      <trkpt lat="43.3263442386" lon="-8.4208501875">
        <ele>100.77</ele>
        <time>2020-03-14T07:49:30Z</time>
      </trkpt>
      <trkpt lat="43.3265141398" lon="-8.4209458251">
        <ele>97.62</ele>
        <time>2020-03-14T07:49:35Z</time>
      </trkpt>
      <trkpt lat="43.3265538700" lon="-8.4209742397">
        <ele>96.83</ele>
        <time>2020-03-14T07:49:36Z</time>
      </trkpt>
      <trkpt lat="43.3266027365" lon="-8.4210493416">
        <ele>94.70</ele>
        <time>2020-03-14T07:49:38Z</time>
      </trkpt>
      <trkpt lat="43.3266075142" lon="-8.4210937656">
        <ele>93.89</ele>
        <time>2020-03-14T07:49:39Z</time>
      </trkpt>
      <trkpt lat="43.3266053349" lon="-8.4211381897">
        <ele>93.14</ele>
        <time>2020-03-14T07:49:40Z</time>
      </trkpt>
      <trkpt lat="43.3265910018" lon="-8.4211926721">
        <ele>92.32</ele>
        <time>2020-03-14T07:49:41Z</time>
      </trkpt>
      <trkpt lat="43.3265609108" lon="-8.4212593921">
        <ele>91.45</ele>
        <time>2020-03-14T07:49:42Z</time>
      </trkpt>
      <trkpt lat="43.3265164867" lon="-8.4213333204">
        <ele>90.53</ele>
        <time>2020-03-14T07:49:43Z</time>
      </trkpt>
      <trkpt lat="43.3264702186" lon="-8.4214104339">
        <ele>89.53</ele>
        <time>2020-03-14T07:49:44Z</time>
      </trkpt>
      <trkpt lat="43.3262214437" lon="-8.4218600392">
        <ele>86.20</ele>
        <time>2020-03-14T07:49:50Z</time>
      </trkpt>
      <trkpt lat="43.3261142392" lon="-8.4220752865">
        <ele>83.04</ele>
        <time>2020-03-14T07:49:53Z</time>
      </trkpt>
      <trkpt lat="43.3259253111" lon="-8.4225237183">
        <ele>80.42</ele>
        <time>2020-03-14T07:49:59Z</time>
      </trkpt>
      <trkpt lat="43.3256497979" lon="-8.4228382912">
        <ele>79.38</ele>
        <time>2020-03-14T07:50:05Z</time>
      </trkpt>
      <trkpt lat="43.3256305195" lon="-8.4228864033">
        <ele>78.97</ele>
        <time>2020-03-14T07:50:06Z</time>
      </trkpt>
      <trkpt lat="43.3256232273" lon="-8.4229377843">
        <ele>78.60</ele>
        <time>2020-03-14T07:50:07Z</time>
      </trkpt>
      <trkpt lat="43.3256263286" lon="-8.4229963738">
        <ele>78.25</ele>
        <time>2020-03-14T07:50:08Z</time>
      </trkpt>
      <trkpt lat="43.3256383985" lon="-8.4230615012">
        <ele>77.94</ele>
        <time>2020-03-14T07:50:09Z</time>
      </trkpt>
      <trkpt lat="43.3256684057" lon="-8.4231327474">
        <ele>77.75</ele>
        <time>2020-03-14T07:50:10Z</time>
      </trkpt>
      <trkpt lat="43.3257153444" lon="-8.4231990483">
        <ele>77.45</ele>
        <time>2020-03-14T07:50:11Z</time>
      </trkpt>
      <trkpt lat="43.3257740177" lon="-8.4232586436">
        <ele>77.02</ele>
        <time>2020-03-14T07:50:12Z</time>
      </trkpt>
      <trkpt lat="43.3258408215" lon="-8.4233127069">
        <ele>76.67</ele>
        <time>2020-03-14T07:50:13Z</time>
      </trkpt>
      <trkpt lat="43.3259031828" lon="-8.4233769961">
        <ele>76.25</ele>
        <time>2020-03-14T07:50:14Z</time>
      </trkpt>
      <trkpt lat="43.3259626944" lon="-8.4234489966">
        <ele>75.79</ele>
        <time>2020-03-14T07:50:15Z</time>
      </trkpt>
      <trkpt lat="43.3262502775" lon="-8.4237609711">
        <ele>71.98</ele>
        <time>2020-03-14T07:50:20Z</time>
      </trkpt>
      <trkpt lat="43.3263755869" lon="-8.4238709416">
        <ele>68.91</ele>
        <time>2020-03-14T07:50:23Z</time>
      </trkpt>
      <trkpt lat="43.3264036663" lon="-8.4239161201">
        <ele>67.93</ele>
        <time>2020-03-14T07:50:24Z</time>
      </trkpt>
      <trkpt lat="43.3264180832" lon="-8.4239757154">
        <ele>67.19</ele>
        <time>2020-03-14T07:50:25Z</time>
      </trkpt>
      <trkpt lat="43.3264178317" lon="-8.4240493923">
        <ele>66.47</ele>
        <time>2020-03-14T07:50:26Z</time>
      </trkpt>
      <trkpt lat="43.3264071029" lon="-8.4241285175">
        <ele>65.60</ele>
        <time>2020-03-14T07:50:27Z</time>
      </trkpt>
      <trkpt lat="43.3263827115" lon="-8.4242061339">
        <ele>65.60</ele>
        <time>2020-03-14T07:50:28Z</time>
      </trkpt>
      <trkpt lat="43.3263469208" lon="-8.4242732730">
        <ele>65.29</ele>
        <time>2020-03-14T07:50:29Z</time>
      </trkpt>
      <trkpt lat="43.3263033349" lon="-8.4243271686">
        <ele>65.18</ele>
        <time>2020-03-14T07:50:30Z</time>
      </trkpt>
      <trkpt lat="43.3262537979" lon="-8.4243717603">
        <ele>65.09</ele>
        <time>2020-03-14T07:50:31Z</time>
      </trkpt>
      <trkpt lat="43.3262007404" lon="-8.4244018514">
        <ele>64.95</ele>
        <time>2020-03-14T07:50:32Z</time>
      </trkpt>
      <trkpt lat="43.3261445817" lon="-8.4244171064">
        <ele>64.65</ele>
        <time>2020-03-14T07:50:33Z</time>
      </trkpt>
      <trkpt lat="43.3260871656" lon="-8.4244238120">
        <ele>64.30</ele>
        <time>2020-03-14T07:50:34Z</time>
      </trkpt>
      <trkpt lat="43.3259767760" lon="-8.4244488738">
        <ele>63.05</ele>
        <time>2020-03-14T07:50:36Z</time>
      </trkpt>
      <trkpt lat="43.3259250596" lon="-8.4244731814">
        <ele>62.45</ele>
        <time>2020-03-14T07:50:37Z</time>
      </trkpt>
      <trkpt lat="43.3258776180" lon="-8.4245036915">
        <ele>61.97</ele>
        <time>2020-03-14T07:50:38Z</time>
      </trkpt>
      <trkpt lat="43.3258352894" lon="-8.4245401528">
        <ele>61.69</ele>
        <time>2020-03-14T07:50:39Z</time>
      </trkpt>
      <trkpt lat="43.3257974032" lon="-8.4245796315">
        <ele>61.54</ele>
        <time>2020-03-14T07:50:40Z</time>
      </trkpt>
      <trkpt lat="43.3257623669" lon="-8.4246200323">
        <ele>61.47</ele>
        <time>2020-03-14T07:50:41Z</time>
      </trkpt>
      <trkpt lat="43.3256637957" lon="-8.4247503709">
        <ele>61.40</ele>
        <time>2020-03-14T07:50:44Z</time>
      </trkpt>
      <trkpt lat="43.3256321959" lon="-8.4248054400">
        <ele>61.40</ele>
        <time>2020-03-14T07:50:45Z</time>
      </trkpt>
      <trkpt lat="43.3251000289" lon="-8.4258016292">
        <ele>59.18</ele>
        <time>2020-03-14T07:51:00Z</time>
      </trkpt>
      <trkpt lat="43.3250542637" lon="-8.4259312972">
        <ele>58.71</ele>
        <time>2020-03-14T07:51:02Z</time>
      </trkpt>
      <trkpt lat="43.3250502404" lon="-8.4260021243">
        <ele>58.58</ele>
        <time>2020-03-14T07:51:03Z</time>
      </trkpt>
      <trkpt lat="43.3250592928" lon="-8.4260713588">
        <ele>58.52</ele>
        <time>2020-03-14T07:51:04Z</time>
      </trkpt>
      <trkpt lat="43.3250773977" lon="-8.4261366539">
        <ele>58.46</ele>
        <time>2020-03-14T07:51:05Z</time>
      </trkpt>
      <trkpt lat="43.3251024596" lon="-8.4261990990">
        <ele>58.40</ele>
        <time>2020-03-14T07:51:06Z</time>
      </trkpt>
      <trkpt lat="43.3251275215" lon="-8.4262607060">
        <ele>58.35</ele>
        <time>2020-03-14T07:51:07Z</time>
      </trkpt>
      <trkpt lat="43.3251445368" lon="-8.4263273422">
        <ele>58.32</ele>
        <time>2020-03-14T07:51:08Z</time>
      </trkpt>
      <trkpt lat="43.3251447883" lon="-8.4263995942">
        <ele>58.28</ele>
        <time>2020-03-14T07:51:09Z</time>
      </trkpt>
      <trkpt lat="43.3251282759" lon="-8.4264684096">
        <ele>58.23</ele>
        <time>2020-03-14T07:51:10Z</time>
      </trkpt>
      <trkpt lat="43.3251017053" lon="-8.4265307710">
        <ele>58.19</ele>
        <time>2020-03-14T07:51:11Z</time>
      </trkpt>
      <trkpt lat="43.3250711113" lon="-8.4265880194">
        <ele>58.15</ele>
        <time>2020-03-14T07:51:12Z</time>
      </trkpt>
      <trkpt lat="43.3250387572" lon="-8.4266435076">
        <ele>58.12</ele>
        <time>2020-03-14T07:51:13Z</time>
      </trkpt>
      <trkpt lat="43.3247158863" lon="-8.4271553904">
        <ele>57.89</ele>
        <time>2020-03-14T07:51:23Z</time>
      </trkpt>
      <trkpt lat="43.3243362699" lon="-8.4276729729">
        <ele>58.02</ele>
        <time>2020-03-14T07:51:35Z</time>
      </trkpt>
      <trkpt lat="43.3240150753" lon="-8.4287407435">
        <ele>58.72</ele>
        <time>2020-03-14T07:51:54Z</time>
      </trkpt>
      <trkpt lat="43.3238872513" lon="-8.4291771892">
        <ele>58.73</ele>
        <time>2020-03-14T07:52:02Z</time>
      </trkpt>
      <trkpt lat="43.3238646202" lon="-8.4292246308">
        <ele>58.74</ele>
        <time>2020-03-14T07:52:03Z</time>
      </trkpt>
      <trkpt lat="43.3238377981" lon="-8.4292698093">
        <ele>58.74</ele>
        <time>2020-03-14T07:52:04Z</time>
      </trkpt>
      <trkpt lat="43.3238064498" lon="-8.4293097910">
        <ele>58.74</ele>
        <time>2020-03-14T07:52:05Z</time>
      </trkpt>
      <trkpt lat="43.3237724192" lon="-8.4293440729">
        <ele>58.75</ele>
        <time>2020-03-14T07:52:06Z</time>
      </trkpt>
      <trkpt lat="43.3237365447" lon="-8.4293750022">
        <ele>58.81</ele>
        <time>2020-03-14T07:52:07Z</time>
      </trkpt>
      <trkpt lat="43.3236993290" lon="-8.4293993097">
        <ele>58.83</ele>
        <time>2020-03-14T07:52:08Z</time>
      </trkpt>
      <trkpt lat="43.3236604370" lon="-8.4294135589">
        <ele>58.90</ele>
        <time>2020-03-14T07:52:09Z</time>
      </trkpt>
      <trkpt lat="43.3236207906" lon="-8.4294200968">
        <ele>58.93</ele>
        <time>2020-03-14T07:52:10Z</time>
      </trkpt>
      <trkpt lat="43.3235803060" lon="-8.4294230305">
        <ele>58.95</ele>
        <time>2020-03-14T07:52:11Z</time>
      </trkpt>
      <trkpt lat="43.3235402405" lon="-8.4294237010">
        <ele>58.97</ele>
        <time>2020-03-14T07:52:12Z</time>
      </trkpt>
      <trkpt lat="43.3229652420" lon="-8.4294172470">
        <ele>60.26</ele>
        <time>2020-03-14T07:52:28Z</time>
      </trkpt>
      <trkpt lat="43.3228645753" lon="-8.4293827973">
        <ele>60.71</ele>
        <time>2020-03-14T07:52:32Z</time>
      </trkpt>
      <trkpt lat="43.3228559420" lon="-8.4294070210">
        <ele>60.93</ele>
        <time>2020-03-14T07:52:33Z</time>
      </trkpt>
      <trkpt lat="43.3229092509" lon="-8.4299645852">
        <ele>63.04</ele>
        <time>2020-03-14T07:52:46Z</time>
      </trkpt>
      <trkpt lat="43.3230364881" lon="-8.4304566868">
        <ele>63.43</ele>
        <time>2020-03-14T07:52:56Z</time>
      </trkpt>
      <trkpt lat="43.3231672458" lon="-8.4306705091">
        <ele>63.30</ele>
        <time>2020-03-14T07:53:05Z</time>
      </trkpt>
      <trkpt lat="43.3231788129" lon="-8.4307534061">
        <ele>63.19</ele>
        <time>2020-03-14T07:53:07Z</time>
      </trkpt>
      <trkpt lat="43.3231664915" lon="-8.4308016859">
        <ele>63.15</ele>
        <time>2020-03-14T07:53:08Z</time>
      </trkpt>
      <trkpt lat="43.3231451176" lon="-8.4308460262">
        <ele>63.07</ele>
        <time>2020-03-14T07:53:09Z</time>
      </trkpt>
      <trkpt lat="43.3229431976" lon="-8.4312375449">
        <ele>63.06</ele>
        <time>2020-03-14T07:53:19Z</time>
      </trkpt>
      <trkpt lat="43.3229431976" lon="-8.4312800411">
        <ele>63.10</ele>
        <time>2020-03-14T07:53:20Z</time>
      </trkpt>
      <trkpt lat="43.3229540940" lon="-8.4313198552">
        <ele>63.12</ele>
        <time>2020-03-14T07:53:21Z</time>
      </trkpt>
      <trkpt lat="43.3229677565" lon="-8.4313536342">
        <ele>63.13</ele>
        <time>2020-03-14T07:53:22Z</time>
      </trkpt>
      <trkpt lat="43.3229911420" lon="-8.4313833062">
        <ele>63.14</ele>
        <time>2020-03-14T07:53:23Z</time>
      </trkpt>
      <trkpt lat="43.3230244182" lon="-8.4314035904">
        <ele>63.21</ele>
        <time>2020-03-14T07:53:24Z</time>
      </trkpt>
      <trkpt lat="43.3230638970" lon="-8.4314201027">
        <ele>63.33</ele>
        <time>2020-03-14T07:53:25Z</time>
      </trkpt>
      <trkpt lat="43.3231044654" lon="-8.4314359445">
        <ele>63.60</ele>
        <time>2020-03-14T07:53:26Z</time>
      </trkpt>
      <trkpt lat="43.3232682478" lon="-8.4315061010">
        <ele>63.98</ele>
        <time>2020-03-14T07:53:30Z</time>
      </trkpt>
      <trkpt lat="43.3233054634" lon="-8.4315411374">
        <ele>64.00</ele>
        <time>2020-03-14T07:53:31Z</time>
      </trkpt>
      <trkpt lat="43.3233322017" lon="-8.4315887466">
        <ele>64.01</ele>
        <time>2020-03-14T07:53:32Z</time>
      </trkpt>
      <trkpt lat="43.3233498037" lon="-8.4316459112">
        <ele>64.01</ele>
        <time>2020-03-14T07:53:33Z</time>
      </trkpt>
      <trkpt lat="43.3233502228" lon="-8.4317038301">
        <ele>64.01</ele>
        <time>2020-03-14T07:53:34Z</time>
      </trkpt>
      <trkpt lat="43.3233311120" lon="-8.4317572229">
        <ele>64.01</ele>
        <time>2020-03-14T07:53:35Z</time>
      </trkpt>
      <trkpt lat="43.3233057987" lon="-8.4318070952">
        <ele>64.01</ele>
        <time>2020-03-14T07:53:36Z</time>
      </trkpt>
      <trkpt lat="43.3231150266" lon="-8.4324752167">
        <ele>63.57</ele>
        <time>2020-03-14T07:53:48Z</time>
      </trkpt>
      <trkpt lat="43.3231139369" lon="-8.4325315431">
        <ele>63.57</ele>
        <time>2020-03-14T07:53:49Z</time>
      </trkpt>
      <trkpt lat="43.3231278509" lon="-8.4325825050">
        <ele>63.55</ele>
        <time>2020-03-14T07:53:50Z</time>
      </trkpt>
      <trkpt lat="43.3231560141" lon="-8.4326229896">
        <ele>63.55</ele>
        <time>2020-03-14T07:53:51Z</time>
      </trkpt>
      <trkpt lat="43.3231870271" lon="-8.4326617979">
        <ele>63.55</ele>
        <time>2020-03-14T07:53:52Z</time>
      </trkpt>
      <trkpt lat="43.3232996799" lon="-8.4331376385">
        <ele>63.85</ele>
        <time>2020-03-14T07:54:02Z</time>
      </trkpt>
      <trkpt lat="43.3234064654" lon="-8.4338950273">
        <ele>65.31</ele>
        <time>2020-03-14T07:54:18Z</time>
      </trkpt>
      <trkpt lat="43.3233679924" lon="-8.4344364982">
        <ele>66.44</ele>
        <time>2020-03-14T07:54:30Z</time>
      </trkpt>
      <trkpt lat="43.3231443632" lon="-8.4352307674">
        <ele>68.09</ele>
        <time>2020-03-14T07:54:48Z</time>
      </trkpt>
      <trkpt lat="43.3227793314" lon="-8.4361906629">
        <ele>70.55</ele>
        <time>2020-03-14T07:55:11Z</time>
      </trkpt>
      <trkpt lat="43.3223539498" lon="-8.4369954094">
        <ele>70.84</ele>
        <time>2020-03-14T07:55:30Z</time>
      </trkpt>
      <trkpt lat="43.3220071066" lon="-8.4376128204">
        <ele>71.78</ele>
        <time>2020-03-14T07:55:46Z</time>
      </trkpt>
      <trkpt lat="43.3220484294" lon="-8.4379944485">
        <ele>72.11</ele>
        <time>2020-03-14T07:55:54Z</time>
      </trkpt>
      <trkpt lat="43.3220696356" lon="-8.4380263835">
        <ele>72.20</ele>
        <time>2020-03-14T07:55:55Z</time>
      </trkpt>
      <trkpt lat="43.3220933564" lon="-8.4380515292">
        <ele>72.26</ele>
        <time>2020-03-14T07:55:56Z</time>
      </trkpt>
      <trkpt lat="43.3221208490" lon="-8.4380715620">
        <ele>72.35</ele>
        <time>2020-03-14T07:55:57Z</time>
      </trkpt>
      <trkpt lat="43.3221475873" lon="-8.4380931035">
        <ele>72.35</ele>
        <time>2020-03-14T07:55:58Z</time>
      </trkpt>
      <trkpt lat="43.3221721463" lon="-8.4381159022">
        <ele>72.52</ele>
        <time>2020-03-14T07:55:59Z</time>
      </trkpt>
      <trkpt lat="43.3224588074" lon="-8.4383025672">
        <ele>74.32</ele>
        <time>2020-03-14T07:56:12Z</time>
      </trkpt>
      <trkpt lat="43.3226284571" lon="-8.4382930119">
        <ele>77.50</ele>
        <time>2020-03-14T07:56:23Z</time>
      </trkpt>
      <trkpt lat="43.3228751365" lon="-8.4381117113">
        <ele>80.06</ele>
        <time>2020-03-14T07:56:36Z</time>
      </trkpt>
      <trkpt lat="43.3229037188" lon="-8.4381257091">
        <ele>80.54</ele>
        <time>2020-03-14T07:56:38Z</time>
      </trkpt>
      <trkpt lat="43.3229083288" lon="-8.4381887410">
        <ele>80.97</ele>
        <time>2020-03-14T07:56:42Z</time>
      </trkpt>
      <trkpt lat="43.3227306325" lon="-8.4384594765">
        <ele>84.03</ele>
        <time>2020-03-14T07:56:54Z</time>
      </trkpt>
      <trkpt lat="43.3225672692" lon="-8.4388259333">
        <ele>85.11</ele>
        <time>2020-03-14T07:57:05Z</time>
      </trkpt>
      <trkpt lat="43.3224986214" lon="-8.4389813337">
        <ele>85.59</ele>
        <time>2020-03-14T07:57:11Z</time>
      </trkpt>
      <trkpt lat="43.3224922512" lon="-8.4390073176">
        <ele>85.70</ele>
        <time>2020-03-14T07:57:12Z</time>
      </trkpt>
      <trkpt lat="43.3224831149" lon="-8.4390323795">
        <ele>85.93</ele>
        <time>2020-03-14T07:57:13Z</time>
      </trkpt>
      <trkpt lat="43.3223316539" lon="-8.4393726010">
        <ele>88.92</ele>
        <time>2020-03-14T07:57:26Z</time>
      </trkpt>
      <trkpt lat="43.3222141396" lon="-8.4396100603">
        <ele>89.75</ele>
        <time>2020-03-14T07:57:34Z</time>
      </trkpt>
      <trkpt lat="43.3220543806" lon="-8.4399364516">
        <ele>91.68</ele>
        <time>2020-03-14T07:57:46Z</time>
      </trkpt>
      <trkpt lat="43.3220032509" lon="-8.4400563128">
        <ele>92.29</ele>
        <time>2020-03-14T07:57:50Z</time>
      </trkpt>
      <trkpt lat="43.3219881635" lon="-8.4400915168">
        <ele>92.47</ele>
        <time>2020-03-14T07:57:51Z</time>
      </trkpt>
      <trkpt lat="43.3217340242" lon="-8.4404578898">
        <ele>93.81</ele>
        <time>2020-03-14T07:58:03Z</time>
      </trkpt>
      <trkpt lat="43.3214524761" lon="-8.4409807529">
        <ele>94.59</ele>
        <time>2020-03-14T07:58:18Z</time>
      </trkpt>
      <trkpt lat="43.3212505560" lon="-8.4413515683">
        <ele>96.79</ele>
        <time>2020-03-14T07:58:31Z</time>
      </trkpt>
      <trkpt lat="43.3211639710" lon="-8.4415105730">
        <ele>97.62</ele>
        <time>2020-03-14T07:58:37Z</time>
      </trkpt>
      <trkpt lat="43.3211593609" lon="-8.4415434301">
        <ele>97.72</ele>
        <time>2020-03-14T07:58:38Z</time>
      </trkpt>
      <trkpt lat="43.3211489674" lon="-8.4416628722">
        <ele>98.37</ele>
        <time>2020-03-14T07:58:42Z</time>
      </trkpt>
      <trkpt lat="43.3211404178" lon="-8.4416846652">
        <ele>98.59</ele>
        <time>2020-03-14T07:58:43Z</time>
      </trkpt>
      <trkpt lat="43.3210316207" lon="-8.4419162571">
        <ele>100.58</ele>
        <time>2020-03-14T07:58:53Z</time>
      </trkpt>
      <trkpt lat="43.3209778089" lon="-8.4420154989">
        <ele>101.24</ele>
        <time>2020-03-14T07:58:56Z</time>
      </trkpt>
      <trkpt lat="43.3209607098" lon="-8.4420454223">
        <ele>101.31</ele>
        <time>2020-03-14T07:58:57Z</time>
      </trkpt>
      <trkpt lat="43.3208075725" lon="-8.4423324186">
        <ele>102.87</ele>
        <time>2020-03-14T07:59:08Z</time>
      </trkpt>
      <trkpt lat="43.3207211550" lon="-8.4424415510">
        <ele>104.64</ele>
        <time>2020-03-14T07:59:15Z</time>
      </trkpt>
      <trkpt lat="43.3205432072" lon="-8.4426382743">
        <ele>107.75</ele>
        <time>2020-03-14T07:59:26Z</time>
      </trkpt>
      <trkpt lat="43.3202115353" lon="-8.4429477341">
        <ele>110.65</ele>
        <time>2020-03-14T07:59:43Z</time>
      </trkpt>
      <trkpt lat="43.3199314121" lon="-8.4431545157">
        <ele>112.73</ele>
        <time>2020-03-14T07:59:57Z</time>
      </trkpt>
      <trkpt lat="43.3197044302" lon="-8.4433312900">
        <ele>116.03</ele>
        <time>2020-03-14T08:00:11Z</time>
      </trkpt>
      <trkpt lat="43.3193952218" lon="-8.4435125068">
        <ele>117.80</ele>
        <time>2020-03-14T08:00:25Z</time>
      </trkpt>
      <trkpt lat="43.3193778712" lon="-8.4435249958">
        <ele>117.89</ele>
        <time>2020-03-14T08:00:26Z</time>
      </trkpt>
      <trkpt lat="43.3193606045" lon="-8.4435353056">
        <ele>118.03</ele>
        <time>2020-03-14T08:00:27Z</time>
      </trkpt>
      <trkpt lat="43.3193405718" lon="-8.4435457829">
        <ele>118.16</ele>
        <time>2020-03-14T08:00:28Z</time>
      </trkpt>
      <trkpt lat="43.3193159290" lon="-8.4435542487">
        <ele>118.29</ele>
        <time>2020-03-14T08:00:29Z</time>
      </trkpt>
      <trkpt lat="43.3192970697" lon="-8.4435562603">
        <ele>118.42</ele>
        <time>2020-03-14T08:00:30Z</time>
      </trkpt>
      <trkpt lat="43.3190844208" lon="-8.4436547477">
        <ele>120.79</ele>
        <time>2020-03-14T08:00:42Z</time>
      </trkpt>
      <trkpt lat="43.3188505657" lon="-8.4437172767">
        <ele>124.05</ele>
        <time>2020-03-14T08:00:55Z</time>
      </trkpt>
      <trkpt lat="43.3187003620" lon="-8.4437834099">
        <ele>127.23</ele>
        <time>2020-03-14T08:01:05Z</time>
      </trkpt>
      <trkpt lat="43.3184707817" lon="-8.4438837413">
        <ele>129.21</ele>
        <time>2020-03-14T08:01:16Z</time>
      </trkpt>
      <trkpt lat="43.3181337453" lon="-8.4440139960">
        <ele>131.21</ele>
        <time>2020-03-14T08:01:28Z</time>
      </trkpt>
      <trkpt lat="43.3179351781" lon="-8.4441884235">
        <ele>132.61</ele>
        <time>2020-03-14T08:01:41Z</time>
      </trkpt>
      <trkpt lat="43.3179054223" lon="-8.4442993160">
        <ele>135.69</ele>
        <time>2020-03-14T08:01:54Z</time>
      </trkpt>
      <trkpt lat="43.3178392891" lon="-8.4444523696">
        <ele>138.70</ele>
        <time>2020-03-14T08:02:12Z</time>
      </trkpt>
      <trkpt lat="43.3177547995" lon="-8.4446791839">
        <ele>139.82</ele>
        <time>2020-03-14T08:02:22Z</time>
      </trkpt>
      <trkpt lat="43.3175582439" lon="-8.4450852033">
        <ele>142.16</ele>
        <time>2020-03-14T08:02:37Z</time>
      </trkpt>
      <trkpt lat="43.3174393047" lon="-8.4455159493">
        <ele>143.40</ele>
        <time>2020-03-14T08:02:51Z</time>
      </trkpt>
      <trkpt lat="43.3175049350" lon="-8.4458467830">
        <ele>145.38</ele>
        <time>2020-03-14T08:03:04Z</time>
      </trkpt>
      <trkpt lat="43.3175064437" lon="-8.4458728507">
        <ele>145.63</ele>
        <time>2020-03-14T08:03:05Z</time>
      </trkpt>
      <trkpt lat="43.3175504487" lon="-8.4461271577">
        <ele>148.67</ele>
        <time>2020-03-14T08:03:15Z</time>
      </trkpt>
      <trkpt lat="43.3175248839" lon="-8.4464147408">
        <ele>151.92</ele>
        <time>2020-03-14T08:03:25Z</time>
      </trkpt>
      <trkpt lat="43.3175527118" lon="-8.4468189999">
        <ele>155.12</ele>
        <time>2020-03-14T08:03:40Z</time>
      </trkpt>
      <trkpt lat="43.3174893446" lon="-8.4471440502">
        <ele>158.28</ele>
        <time>2020-03-14T08:03:51Z</time>
      </trkpt>
      <trkpt lat="43.3174757659" lon="-8.4472965170">
        <ele>159.11</ele>
        <time>2020-03-14T08:03:56Z</time>
      </trkpt>
      <trkpt lat="43.3173006680" lon="-8.4476694278">
        <ele>160.37</ele>
        <time>2020-03-14T08:04:07Z</time>
      </trkpt>
      <trkpt lat="43.3170683216" lon="-8.4477798175">
        <ele>160.48</ele>
        <time>2020-03-14T08:04:16Z</time>
      </trkpt>
      <trkpt lat="43.3170798887" lon="-8.4480860084">
        <ele>163.15</ele>
        <time>2020-03-14T08:04:40Z</time>
      </trkpt>
      <trkpt lat="43.3171943016" lon="-8.4483088832">
        <ele>166.17</ele>
        <time>2020-03-14T08:04:58Z</time>
      </trkpt>
      <trkpt lat="43.3172544837" lon="-8.4484858252">
        <ele>169.19</ele>
        <time>2020-03-14T08:05:14Z</time>
      </trkpt>
      <trkpt lat="43.3173227124" lon="-8.4486097097">
        <ele>172.31</ele>
        <time>2020-03-14T08:05:29Z</time>
      </trkpt>
      <trkpt lat="43.3173955511" lon="-8.4487168305">
        <ele>175.41</ele>
        <time>2020-03-14T08:05:44Z</time>
      </trkpt>
      <trkpt lat="43.3174654562" lon="-8.4488095343">
        <ele>178.43</ele>
        <time>2020-03-14T08:05:56Z</time>
      </trkpt>
      <trkpt lat="43.3175564837" lon="-8.4489482548">
        <ele>181.50</ele>
        <time>2020-03-14T08:06:11Z</time>
      </trkpt>
      <trkpt lat="43.3176466729" lon="-8.4491230175">
        <ele>184.55</ele>
        <time>2020-03-14T08:06:28Z</time>
      </trkpt>
      <trkpt lat="43.3177558891" lon="-8.4492861293">
        <ele>187.58</ele>
        <time>2020-03-14T08:06:43Z</time>
      </trkpt>
      <trkpt lat="43.3178324159" lon="-8.4494227543">
        <ele>190.33</ele>
        <time>2020-03-14T08:06:59Z</time>
      </trkpt>
      <trkpt lat="43.3178668655" lon="-8.4495338984">
        <ele>190.72</ele>
        <time>2020-03-14T08:07:04Z</time>
      </trkpt>
      <trkpt lat="43.3177755028" lon="-8.4495957568">
        <ele>190.91</ele>
        <time>2020-03-14T08:07:10Z</time>
      </trkpt>
      <trkpt lat="43.3176773507" lon="-8.4495636541">
        <ele>191.36</ele>
        <time>2020-03-14T08:07:13Z</time>
      </trkpt>
      <trkpt lat="43.3175963815" lon="-8.4495743830">
        <ele>191.56</ele>
        <time>2020-03-14T08:07:15Z</time>
      </trkpt>
      <trkpt lat="43.3171787113" lon="-8.4496743791">
        <ele>191.95</ele>
        <time>2020-03-14T08:07:28Z</time>
      </trkpt>
      <trkpt lat="43.3170466963" lon="-8.4497238323">
        <ele>191.84</ele>
        <time>2020-03-14T08:07:32Z</time>
      </trkpt>
      <trkpt lat="43.3169259969" lon="-8.4498140216">
        <ele>191.82</ele>
        <time>2020-03-14T08:07:35Z</time>
      </trkpt>
      <trkpt lat="43.3167506475" lon="-8.4499664884">
        <ele>191.82</ele>
        <time>2020-03-14T08:07:39Z</time>
      </trkpt>
      <trkpt lat="43.3162985276" lon="-8.4500828292">
        <ele>188.04</ele>
        <time>2020-03-14T08:07:47Z</time>
      </trkpt>
      <trkpt lat="43.3162701130" lon="-8.4500304423">
        <ele>187.49</ele>
        <time>2020-03-14T08:07:48Z</time>
      </trkpt>
      <trkpt lat="43.3162400220" lon="-8.4499752894">
        <ele>186.44</ele>
        <time>2020-03-14T08:07:49Z</time>
      </trkpt>
      <trkpt lat="43.3162090927" lon="-8.4499209747">
        <ele>185.57</ele>
        <time>2020-03-14T08:07:50Z</time>
      </trkpt>
      <trkpt lat="43.3161807619" lon="-8.4498720244">
        <ele>184.96</ele>
        <time>2020-03-14T08:07:51Z</time>
      </trkpt>
      <trkpt lat="43.3161462285" lon="-8.4498295281">
        <ele>184.58</ele>
        <time>2020-03-14T08:07:52Z</time>
      </trkpt>
      <trkpt lat="43.3160981163" lon="-8.4497852717">
        <ele>184.35</ele>
        <time>2020-03-14T08:07:53Z</time>
      </trkpt>
      <trkpt lat="43.3160497528" lon="-8.4497535042">
        <ele>184.22</ele>
        <time>2020-03-14T08:07:54Z</time>
      </trkpt>
      <trkpt lat="43.3159952704" lon="-8.4497302864">
        <ele>184.11</ele>
        <time>2020-03-14T08:07:55Z</time>
      </trkpt>
      <trkpt lat="43.3159358427" lon="-8.4497249220">
        <ele>183.90</ele>
        <time>2020-03-14T08:07:56Z</time>
      </trkpt>
      <trkpt lat="43.3158773370" lon="-8.4497265145">
        <ele>183.71</ele>
        <time>2020-03-14T08:07:57Z</time>
      </trkpt>
      <trkpt lat="43.3158215974" lon="-8.4497272689">
        <ele>183.56</ele>
        <time>2020-03-14T08:07:58Z</time>
      </trkpt>
      <trkpt lat="43.3157670312" lon="-8.4497328009">
        <ele>183.32</ele>
        <time>2020-03-14T08:07:59Z</time>
      </trkpt>
      <trkpt lat="43.3156649396" lon="-8.4497390874">
        <ele>182.98</ele>
        <time>2020-03-14T08:08:01Z</time>
      </trkpt>
      <trkpt lat="43.3156159893" lon="-8.4497379977">
        <ele>182.92</ele>
        <time>2020-03-14T08:08:02Z</time>
      </trkpt>
      <trkpt lat="43.3155103773" lon="-8.4497429430">
        <ele>182.63</ele>
        <time>2020-03-14T08:08:04Z</time>
      </trkpt>
      <trkpt lat="43.3154691383" lon="-8.4497330524">
        <ele>182.43</ele>
        <time>2020-03-14T08:08:05Z</time>
      </trkpt>
      <trkpt lat="43.3154248819" lon="-8.4497356508">
        <ele>182.20</ele>
        <time>2020-03-14T08:08:06Z</time>
      </trkpt>
      <trkpt lat="43.3153876662" lon="-8.4497517440">
        <ele>182.08</ele>
        <time>2020-03-14T08:08:07Z</time>
      </trkpt>
      <trkpt lat="43.3153459243" lon="-8.4497680888">
        <ele>182.01</ele>
        <time>2020-03-14T08:08:08Z</time>
      </trkpt>
      <trkpt lat="43.3153002430" lon="-8.4497745428">
        <ele>181.90</ele>
        <time>2020-03-14T08:08:09Z</time>
      </trkpt>
      <trkpt lat="43.3152561542" lon="-8.4497761354">
        <ele>181.90</ele>
        <time>2020-03-14T08:08:10Z</time>
      </trkpt>
      <trkpt lat="43.3152162563" lon="-8.4497922286">
        <ele>181.83</ele>
        <time>2020-03-14T08:08:11Z</time>
      </trkpt>
      <trkpt lat="43.3151757717" lon="-8.4498175420">
        <ele>181.80</ele>
        <time>2020-03-14T08:08:12Z</time>
      </trkpt>
      <trkpt lat="43.3148841653" lon="-8.4499986749">
        <ele>181.20</ele>
        <time>2020-03-14T08:08:19Z</time>
      </trkpt>
      <trkpt lat="43.3147598617" lon="-8.4500809852">
        <ele>180.53</ele>
        <time>2020-03-14T08:08:22Z</time>
      </trkpt>
      <trkpt lat="43.3144927304" lon="-8.4503948875">
        <ele>179.97</ele>
        <time>2020-03-14T08:08:32Z</time>
      </trkpt>
      <trkpt lat="43.3142464701" lon="-8.4507579077">
        <ele>181.38</ele>
        <time>2020-03-14T08:08:44Z</time>
      </trkpt>
      <trkpt lat="43.3140517585" lon="-8.4510946926">
        <ele>182.33</ele>
        <time>2020-03-14T08:08:54Z</time>
      </trkpt>
      <trkpt lat="43.3137738984" lon="-8.4510834608">
        <ele>182.09</ele>
        <time>2020-03-14T08:09:03Z</time>
      </trkpt>
      <trkpt lat="43.3137420472" lon="-8.4510418028">
        <ele>182.06</ele>
        <time>2020-03-14T08:09:04Z</time>
      </trkpt>
      <trkpt lat="43.3135704696" lon="-8.4507176746">
        <ele>178.96</ele>
        <time>2020-03-14T08:09:14Z</time>
      </trkpt>
      <trkpt lat="43.3133641072" lon="-8.4504271578">
        <ele>176.94</ele>
        <time>2020-03-14T08:09:25Z</time>
      </trkpt>
      <trkpt lat="43.3132125624" lon="-8.4503163490">
        <ele>173.92</ele>
        <time>2020-03-14T08:09:31Z</time>
      </trkpt>
      <trkpt lat="43.3129666373" lon="-8.4501071367">
        <ele>170.91</ele>
        <time>2020-03-14T08:09:39Z</time>
      </trkpt>
      <trkpt lat="43.3127950598" lon="-8.4499331284">
        <ele>167.30</ele>
        <time>2020-03-14T08:09:45Z</time>
      </trkpt>
      <trkpt lat="43.3126734383" lon="-8.4497960005">
        <ele>163.77</ele>
        <time>2020-03-14T08:09:50Z</time>
      </trkpt>
      <trkpt lat="43.3126292657" lon="-8.4497397579">
        <ele>162.97</ele>
        <time>2020-03-14T08:09:52Z</time>
      </trkpt>
      <trkpt lat="43.3124506474" lon="-8.4495375026">
        <ele>159.84</ele>
        <time>2020-03-14T08:10:00Z</time>
      </trkpt>
      <trkpt lat="43.3122911397" lon="-8.4493916575">
        <ele>156.80</ele>
        <time>2020-03-14T08:10:07Z</time>
      </trkpt>
      <trkpt lat="43.3122675028" lon="-8.4495367482">
        <ele>155.84</ele>
        <time>2020-03-14T08:10:11Z</time>
      </trkpt>
      <trkpt lat="43.3120851964" lon="-8.4502334520">
        <ele>152.35</ele>
        <time>2020-03-14T08:10:22Z</time>
      </trkpt>
      <trkpt lat="43.3120651636" lon="-8.4502962325">
        <ele>151.84</ele>
        <time>2020-03-14T08:10:23Z</time>
      </trkpt>
      <trkpt lat="43.3119450510" lon="-8.4507280681">
        <ele>148.71</ele>
        <time>2020-03-14T08:10:29Z</time>
      </trkpt>
      <trkpt lat="43.3119005430" lon="-8.4508560598">
        <ele>148.31</ele>
        <time>2020-03-14T08:10:31Z</time>
      </trkpt>
      <trkpt lat="43.3118253574" lon="-8.4511107858">
        <ele>145.94</ele>
        <time>2020-03-14T08:10:35Z</time>
      </trkpt>
      <trkpt lat="43.3117950149" lon="-8.4511667769">
        <ele>145.60</ele>
        <time>2020-03-14T08:10:36Z</time>
      </trkpt>
      <trkpt lat="43.3114362694" lon="-8.4516891371">
        <ele>143.46</ele>
        <time>2020-03-14T08:10:48Z</time>
      </trkpt>
      <trkpt lat="43.3114143927" lon="-8.4516899753">
        <ele>143.14</ele>
        <time>2020-03-14T08:10:49Z</time>
      </trkpt>
      <trkpt lat="43.3113946114" lon="-8.4516720381">
        <ele>142.66</ele>
        <time>2020-03-14T08:10:50Z</time>
      </trkpt>
      <trkpt lat="43.3113818709" lon="-8.4516441263">
        <ele>142.06</ele>
        <time>2020-03-14T08:10:51Z</time>
      </trkpt>
      <trkpt lat="43.3113757521" lon="-8.4516059887">
        <ele>141.49</ele>
        <time>2020-03-14T08:10:52Z</time>
      </trkpt>
      <trkpt lat="43.3113682922" lon="-8.4515605588">
        <ele>140.90</ele>
        <time>2020-03-14T08:10:53Z</time>
      </trkpt>
      <trkpt lat="43.3113551326" lon="-8.4515132848">
        <ele>140.34</ele>
        <time>2020-03-14T08:10:54Z</time>
      </trkpt>
      <trkpt lat="43.3113361895" lon="-8.4514669329">
        <ele>139.77</ele>
        <time>2020-03-14T08:10:55Z</time>
      </trkpt>
      <trkpt lat="43.3113131393" lon="-8.4514230955">
        <ele>139.27</ele>
        <time>2020-03-14T08:10:56Z</time>
      </trkpt>
      <trkpt lat="43.3112901729" lon="-8.4513838682">
        <ele>138.85</ele>
        <time>2020-03-14T08:10:57Z</time>
      </trkpt>
      <trkpt lat="43.3111470100" lon="-8.4513262007">
        <ele>137.85</ele>
        <time>2020-03-14T08:11:02Z</time>
      </trkpt>
      <trkpt lat="43.3103261702" lon="-8.4516244289">
        <ele>135.41</ele>
        <time>2020-03-14T08:11:22Z</time>
      </trkpt>
      <trkpt lat="43.3100841846" lon="-8.4517223295">
        <ele>135.29</ele>
        <time>2020-03-14T08:11:32Z</time>
      </trkpt>
      <trkpt lat="43.3097020537" lon="-8.4517932404">
        <ele>135.20</ele>
        <time>2020-03-14T08:11:41Z</time>
      </trkpt>
      <trkpt lat="43.3095841203" lon="-8.4518723655">
        <ele>134.98</ele>
        <time>2020-03-14T08:11:44Z</time>
      </trkpt>
      <trkpt lat="43.3094547875" lon="-8.4520449489">
        <ele>134.70</ele>
        <time>2020-03-14T08:11:48Z</time>
      </trkpt>
      <trkpt lat="43.3093211800" lon="-8.4522337932">
        <ele>134.51</ele>
        <time>2020-03-14T08:11:52Z</time>
      </trkpt>
      <trkpt lat="43.3092498500" lon="-8.4523387346">
        <ele>134.34</ele>
        <time>2020-03-14T08:11:54Z</time>
      </trkpt>
      <trkpt lat="43.3091909252" lon="-8.4524465259">
        <ele>133.99</ele>
        <time>2020-03-14T08:11:56Z</time>
      </trkpt>
      <trkpt lat="43.3088458423" lon="-8.4526330233">
        <ele>131.59</ele>
        <time>2020-03-14T08:12:04Z</time>
      </trkpt>
      <trkpt lat="43.3086800482" lon="-8.4526418243">
        <ele>130.54</ele>
        <time>2020-03-14T08:12:07Z</time>
      </trkpt>
      <trkpt lat="43.3083966561" lon="-8.4526755195">
        <ele>129.10</ele>
        <time>2020-03-14T08:12:12Z</time>
      </trkpt>
      <trkpt lat="43.3080695104" lon="-8.4525608551">
        <ele>127.33</ele>
        <time>2020-03-14T08:12:18Z</time>
      </trkpt>
      <trkpt lat="43.3079980128" lon="-8.4525022656">
        <ele>125.18</ele>
        <time>2020-03-14T08:12:28Z</time>
      </trkpt>
      <trkpt lat="43.3079930674" lon="-8.4525283333">
        <ele>125.18</ele>
        <time>2020-03-14T08:12:31Z</time>
      </trkpt>
      <trkpt lat="43.3079194743" lon="-8.4526573308">
        <ele>125.18</ele>
        <time>2020-03-14T08:12:35Z</time>
      </trkpt>
      <trkpt lat="43.3078363258" lon="-8.4528870787">
        <ele>125.18</ele>
        <time>2020-03-14T08:12:39Z</time>
      </trkpt>
      <trkpt lat="43.3078053128" lon="-8.4531942755">
        <ele>124.41</ele>
        <time>2020-03-14T08:12:44Z</time>
      </trkpt>
      <trkpt lat="43.3078159578" lon="-8.4536598064">
        <ele>121.71</ele>
        <time>2020-03-14T08:12:52Z</time>
      </trkpt>
      <trkpt lat="43.3077354915" lon="-8.4537661728">
        <ele>119.97</ele>
        <time>2020-03-14T08:12:56Z</time>
      </trkpt>
      <trkpt lat="43.3076411113" lon="-8.4537741356">
        <ele>117.62</ele>
        <time>2020-03-14T08:13:00Z</time>
      </trkpt>
      <trkpt lat="43.3075484913" lon="-8.4537074994">
        <ele>118.06</ele>
        <time>2020-03-14T08:13:12Z</time>
      </trkpt>
      <trkpt lat="43.3074515127" lon="-8.4536650870">
        <ele>121.22</ele>
        <time>2020-03-14T08:13:24Z</time>
      </trkpt>
      <trkpt lat="43.3073736448" lon="-8.4536204953">
        <ele>124.45</ele>
        <time>2020-03-14T08:13:37Z</time>
      </trkpt>
      <trkpt lat="43.3072997164" lon="-8.4535457287">
        <ele>127.53</ele>
        <time>2020-03-14T08:13:50Z</time>
      </trkpt>
      <trkpt lat="43.3071990497" lon="-8.4534516837">
        <ele>130.76</ele>
        <time>2020-03-14T08:14:03Z</time>
      </trkpt>
      <trkpt lat="43.3070476726" lon="-8.4533669427">
        <ele>133.79</ele>
        <time>2020-03-14T08:14:18Z</time>
      </trkpt>
      <trkpt lat="43.3068965469" lon="-8.4532752447">
        <ele>135.51</ele>
        <time>2020-03-14T08:14:30Z</time>
      </trkpt>
      <trkpt lat="43.3067136537" lon="-8.4532296471">
        <ele>136.40</ele>
        <time>2020-03-14T08:14:38Z</time>
      </trkpt>
      <trkpt lat="43.3065690659" lon="-8.4531252086">
        <ele>137.45</ele>
        <time>2020-03-14T08:14:44Z</time>
      </trkpt>
      <trkpt lat="43.3065119013" lon="-8.4530746657">
        <ele>138.04</ele>
        <time>2020-03-14T08:14:47Z</time>
      </trkpt>
      <trkpt lat="43.3064392302" lon="-8.4531513602">
        <ele>138.45</ele>
        <time>2020-03-14T08:14:51Z</time>
      </trkpt>
      <trkpt lat="43.3063965663" lon="-8.4532298148">
        <ele>138.87</ele>
        <time>2020-03-14T08:14:53Z</time>
      </trkpt>
      <trkpt lat="43.3063372225" lon="-8.4534469061">
        <ele>139.18</ele>
        <time>2020-03-14T08:14:57Z</time>
      </trkpt>
      <trkpt lat="43.3062897809" lon="-8.4536909033">
        <ele>138.87</ele>
        <time>2020-03-14T08:15:02Z</time>
      </trkpt>
      <trkpt lat="43.3063714206" lon="-8.4538561944">
        <ele>135.84</ele>
        <time>2020-03-14T08:15:08Z</time>
      </trkpt>
      <trkpt lat="43.3066709060" lon="-8.4539789893">
        <ele>134.32</ele>
        <time>2020-03-14T08:15:19Z</time>
      </trkpt>
      <trkpt lat="43.3069678769" lon="-8.4540814999">
        <ele>132.27</ele>
        <time>2020-03-14T08:15:28Z</time>
      </trkpt>
      <trkpt lat="43.3072052523" lon="-8.4541545901">
        <ele>128.95</ele>
        <time>2020-03-14T08:15:38Z</time>
      </trkpt>
      <trkpt lat="43.3073210903" lon="-8.4541918058">
        <ele>125.82</ele>
        <time>2020-03-14T08:15:44Z</time>
      </trkpt>
      <trkpt lat="43.3074113633" lon="-8.4543016925">
        <ele>121.98</ele>
        <time>2020-03-14T08:15:49Z</time>
      </trkpt>
      <trkpt lat="43.3073352557" lon="-8.4543927200">
        <ele>120.58</ele>
        <time>2020-03-14T08:15:52Z</time>
      </trkpt>
      <trkpt lat="43.3071469143" lon="-8.4545636270">
        <ele>116.93</ele>
        <time>2020-03-14T08:15:59Z</time>
      </trkpt>
      <trkpt lat="43.3070625085" lon="-8.4546766151">
        <ele>116.66</ele>
        <time>2020-03-14T08:16:02Z</time>
      </trkpt>
      <trkpt lat="43.3068626001" lon="-8.4550306667">
        <ele>116.49</ele>
        <time>2020-03-14T08:16:09Z</time>
      </trkpt>
      <trkpt lat="43.3066147473" lon="-8.4550717380">
        <ele>113.47</ele>
        <time>2020-03-14T08:16:16Z</time>
      </trkpt>
      <trkpt lat="43.3063801378" lon="-8.4551303275">
        <ele>113.42</ele>
        <time>2020-03-14T08:16:27Z</time>
      </trkpt>
      <trkpt lat="43.3062166907" lon="-8.4551139828">
        <ele>114.39</ele>
        <time>2020-03-14T08:16:33Z</time>
      </trkpt>
      <trkpt lat="43.3061413374" lon="-8.4551221132">
        <ele>114.52</ele>
        <time>2020-03-14T08:16:35Z</time>
      </trkpt>
      <trkpt lat="43.3057513274" lon="-8.4551186766">
        <ele>117.50</ele>
        <time>2020-03-14T08:16:50Z</time>
      </trkpt>
      <trkpt lat="43.3053919952" lon="-8.4550546389">
        <ele>118.92</ele>
        <time>2020-03-14T08:17:02Z</time>
      </trkpt>
      <trkpt lat="43.3049967047" lon="-8.4547909442">
        <ele>119.16</ele>
        <time>2020-03-14T08:17:14Z</time>
      </trkpt>
      <trkpt lat="43.3047701418" lon="-8.4544554166">
        <ele>120.44</ele>
        <time>2020-03-14T08:17:26Z</time>
      </trkpt>
      <trkpt lat="43.3046303317" lon="-8.4540466312">
        <ele>120.91</ele>
        <time>2020-03-14T08:17:36Z</time>
      </trkpt>
      <trkpt lat="43.3046953753" lon="-8.4536911547">
        <ele>122.99</ele>
        <time>2020-03-14T08:17:49Z</time>
      </trkpt>
      <trkpt lat="43.3046088740" lon="-8.4534639213">
        <ele>125.63</ele>
        <time>2020-03-14T08:17:57Z</time>
      </trkpt>
      <trkpt lat="43.3044193592" lon="-8.4531031642">
        <ele>126.09</ele>
        <time>2020-03-14T08:18:06Z</time>
      </trkpt>
      <trkpt lat="43.3041804750" lon="-8.4528979752">
        <ele>126.09</ele>
        <time>2020-03-14T08:18:15Z</time>
      </trkpt>
      <trkpt lat="43.3039617911" lon="-8.4525511321">
        <ele>126.63</ele>
        <time>2020-03-14T08:18:25Z</time>
      </trkpt>
      <trkpt lat="43.3037412632" lon="-8.4521051310">
        <ele>127.56</ele>
        <time>2020-03-14T08:18:37Z</time>
      </trkpt>
      <trkpt lat="43.3035921492" lon="-8.4517983533">
        <ele>127.90</ele>
        <time>2020-03-14T08:18:45Z</time>
      </trkpt>
      <trkpt lat="43.3035628125" lon="-8.4516881313">
        <ele>127.90</ele>
        <time>2020-03-14T08:18:47Z</time>
      </trkpt>
      <trkpt lat="43.3035472222" lon="-8.4516399354">
        <ele>127.70</ele>
        <time>2020-03-14T08:18:48Z</time>
      </trkpt>
      <trkpt lat="43.3034501597" lon="-8.4513268713">
        <ele>124.59</ele>
        <time>2020-03-14T08:18:56Z</time>
      </trkpt>
      <trkpt lat="43.3033867925" lon="-8.4511132166">
        <ele>122.94</ele>
        <time>2020-03-14T08:19:03Z</time>
      </trkpt>
      <trkpt lat="43.3033623174" lon="-8.4510991350">
        <ele>122.58</ele>
        <time>2020-03-14T08:19:04Z</time>
      </trkpt>
      <trkpt lat="43.3033101819" lon="-8.4511411283">
        <ele>121.86</ele>
        <time>2020-03-14T08:19:06Z</time>
      </trkpt>
      <trkpt lat="43.3032783307" lon="-8.4511722252">
        <ele>121.33</ele>
        <time>2020-03-14T08:19:07Z</time>
      </trkpt>
      <trkpt lat="43.3032393549" lon="-8.4512025677">
        <ele>120.79</ele>
        <time>2020-03-14T08:19:08Z</time>
      </trkpt>
      <trkpt lat="43.3031597268" lon="-8.4512598999">
        <ele>119.71</ele>
        <time>2020-03-14T08:19:10Z</time>
      </trkpt>
      <trkpt lat="43.3031070046" lon="-8.4513274580">
        <ele>118.30</ele>
        <time>2020-03-14T08:19:12Z</time>
      </trkpt>
      <trkpt lat="43.3030953538" lon="-8.4513809346">
        <ele>117.84</ele>
        <time>2020-03-14T08:19:13Z</time>
      </trkpt>
      <trkpt lat="43.3030941803" lon="-8.4514405299">
        <ele>117.27</ele>
        <time>2020-03-14T08:19:14Z</time>
      </trkpt>
      <trkpt lat="43.3030759078" lon="-8.4516297095">
        <ele>114.86</ele>
        <time>2020-03-14T08:19:18Z</time>
      </trkpt>
      <trkpt lat="43.3030437212" lon="-8.4516230877">
        <ele>114.58</ele>
        <time>2020-03-14T08:19:19Z</time>
      </trkpt>
      <trkpt lat="43.3030052483" lon="-8.4515872132">
        <ele>114.28</ele>
        <time>2020-03-14T08:19:20Z</time>
      </trkpt>
      <trkpt lat="43.3029690385" lon="-8.4515392687">
        <ele>114.01</ele>
        <time>2020-03-14T08:19:21Z</time>
      </trkpt>
      <trkpt lat="43.3029316552" lon="-8.4514894802">
        <ele>113.68</ele>
        <time>2020-03-14T08:19:22Z</time>
      </trkpt>
      <trkpt lat="43.3028898295" lon="-8.4514546953">
        <ele>113.22</ele>
        <time>2020-03-14T08:19:23Z</time>
      </trkpt>
      <trkpt lat="43.3028399572" lon="-8.4514368419">
        <ele>112.75</ele>
        <time>2020-03-14T08:19:24Z</time>
      </trkpt>
      <trkpt lat="43.3027941082" lon="-8.4514409490">
        <ele>112.22</ele>
        <time>2020-03-14T08:19:25Z</time>
      </trkpt>
      <trkpt lat="43.3027573954" lon="-8.4514620714">
        <ele>111.74</ele>
        <time>2020-03-14T08:19:26Z</time>
      </trkpt>
      <trkpt lat="43.3027279750" lon="-8.4514977783">
        <ele>111.24</ele>
        <time>2020-03-14T08:19:27Z</time>
      </trkpt>
      <trkpt lat="43.3027062658" lon="-8.4515474830">
        <ele>110.71</ele>
        <time>2020-03-14T08:19:28Z</time>
      </trkpt>
      <trkpt lat="43.3026944473" lon="-8.4516063239">
        <ele>110.15</ele>
        <time>2020-03-14T08:19:29Z</time>
      </trkpt>
      <trkpt lat="43.3026894182" lon="-8.4516726248">
        <ele>109.62</ele>
        <time>2020-03-14T08:19:30Z</time>
      </trkpt>
      <trkpt lat="43.3026844729" lon="-8.4517382551">
        <ele>109.14</ele>
        <time>2020-03-14T08:19:31Z</time>
      </trkpt>
      <trkpt lat="43.3026812878" lon="-8.4518030472">
        <ele>108.49</ele>
        <time>2020-03-14T08:19:32Z</time>
      </trkpt>
      <trkpt lat="43.3026894182" lon="-8.4518597927">
        <ele>107.84</ele>
        <time>2020-03-14T08:19:33Z</time>
      </trkpt>
      <trkpt lat="43.3027146477" lon="-8.4519063123">
        <ele>107.40</ele>
        <time>2020-03-14T08:19:34Z</time>
      </trkpt>
      <trkpt lat="43.3027474210" lon="-8.4519352298">
        <ele>106.92</ele>
        <time>2020-03-14T08:19:35Z</time>
      </trkpt>
      <trkpt lat="43.3027836308" lon="-8.4519545082">
        <ele>106.49</ele>
        <time>2020-03-14T08:19:36Z</time>
      </trkpt>
      <trkpt lat="43.3028224390" lon="-8.4519685898">
        <ele>105.69</ele>
        <time>2020-03-14T08:19:37Z</time>
      </trkpt>
      <trkpt lat="43.3028589003" lon="-8.4519897122">
        <ele>105.19</ele>
        <time>2020-03-14T08:19:38Z</time>
      </trkpt>
      <trkpt lat="43.3028908353" lon="-8.4520235751">
        <ele>104.82</ele>
        <time>2020-03-14T08:19:39Z</time>
      </trkpt>
      <trkpt lat="43.3029038273" lon="-8.4520771354">
        <ele>104.36</ele>
        <time>2020-03-14T08:19:40Z</time>
      </trkpt>
      <trkpt lat="43.3029117901" lon="-8.4521399159">
        <ele>104.01</ele>
        <time>2020-03-14T08:19:41Z</time>
      </trkpt>
      <trkpt lat="43.3029165678" lon="-8.4522034507">
        <ele>103.66</ele>
        <time>2020-03-14T08:19:42Z</time>
      </trkpt>
      <trkpt lat="43.3029341698" lon="-8.4523356333">
        <ele>103.08</ele>
        <time>2020-03-14T08:19:44Z</time>
      </trkpt>
      <trkpt lat="43.3030324895" lon="-8.4526986536">
        <ele>101.30</ele>
        <time>2020-03-14T08:19:50Z</time>
      </trkpt>
      <trkpt lat="43.3030944318" lon="-8.4528767690">
        <ele>99.71</ele>
        <time>2020-03-14T08:19:53Z</time>
      </trkpt>
      <trkpt lat="43.3031035680" lon="-8.4529435728">
        <ele>99.39</ele>
        <time>2020-03-14T08:19:54Z</time>
      </trkpt>
      <trkpt lat="43.3031170629" lon="-8.4534341656">
        <ele>98.57</ele>
        <time>2020-03-14T08:20:01Z</time>
      </trkpt>
      <trkpt lat="43.3031215891" lon="-8.4534961917">
        <ele>98.37</ele>
        <time>2020-03-14T08:20:02Z</time>
      </trkpt>
      <trkpt lat="43.3031070884" lon="-8.4540179651">
        <ele>97.98</ele>
        <time>2020-03-14T08:20:12Z</time>
      </trkpt>
      <trkpt lat="43.3030670229" lon="-8.4541139379">
        <ele>97.88</ele>
        <time>2020-03-14T08:20:14Z</time>
      </trkpt>
      <trkpt lat="43.3030325733" lon="-8.4541561827">
        <ele>97.85</ele>
        <time>2020-03-14T08:20:15Z</time>
      </trkpt>
      <trkpt lat="43.3029884845" lon="-8.4541956615">
        <ele>97.81</ele>
        <time>2020-03-14T08:20:16Z</time>
      </trkpt>
      <trkpt lat="43.3028254565" lon="-8.4543504752">
        <ele>97.65</ele>
        <time>2020-03-14T08:20:20Z</time>
      </trkpt>
      <trkpt lat="43.3026637696" lon="-8.4545107372">
        <ele>97.27</ele>
        <time>2020-03-14T08:20:24Z</time>
      </trkpt>
      <trkpt lat="43.3026327565" lon="-8.4545596875">
        <ele>97.00</ele>
        <time>2020-03-14T08:20:25Z</time>
      </trkpt>
      <trkpt lat="43.3026119694" lon="-8.4546119068">
        <ele>96.55</ele>
        <time>2020-03-14T08:20:26Z</time>
      </trkpt>
      <trkpt lat="43.3025809564" lon="-8.4547212068">
        <ele>95.43</ele>
        <time>2020-03-14T08:20:28Z</time>
      </trkpt>
      <trkpt lat="43.3025715686" lon="-8.4547731746">
        <ele>95.09</ele>
        <time>2020-03-14T08:20:29Z</time>
      </trkpt>
      <trkpt lat="43.3025687188" lon="-8.4548215382">
        <ele>94.91</ele>
        <time>2020-03-14T08:20:30Z</time>
      </trkpt>
      <trkpt lat="43.3025253005" lon="-8.4552936908">
        <ele>93.06</ele>
        <time>2020-03-14T08:20:40Z</time>
      </trkpt>
      <trkpt lat="43.3024990652" lon="-8.4553384501">
        <ele>92.92</ele>
        <time>2020-03-14T08:20:41Z</time>
      </trkpt>
      <trkpt lat="43.3022496197" lon="-8.4557230119">
        <ele>90.27</ele>
        <time>2020-03-14T08:20:49Z</time>
      </trkpt>
      <trkpt lat="43.3021814749" lon="-8.4558139555">
        <ele>88.95</ele>
        <time>2020-03-14T08:20:51Z</time>
      </trkpt>
      <trkpt lat="43.3020055387" lon="-8.4559604712">
        <ele>87.45</ele>
        <time>2020-03-14T08:20:56Z</time>
      </trkpt>
      <trkpt lat="43.3017423470" lon="-8.4562871139">
        <ele>86.22</ele>
        <time>2020-03-14T08:21:04Z</time>
      </trkpt>
      <trkpt lat="43.3015711885" lon="-8.4564399160">
        <ele>86.03</ele>
        <time>2020-03-14T08:21:09Z</time>
      </trkpt>
      <trkpt lat="43.3013483975" lon="-8.4565066360">
        <ele>86.00</ele>
        <time>2020-03-14T08:21:14Z</time>
      </trkpt>
      <trkpt lat="43.3010874689" lon="-8.4564608708">
        <ele>85.75</ele>
        <time>2020-03-14T08:21:20Z</time>
      </trkpt>
      <trkpt lat="43.3008927573" lon="-8.4562966693">
        <ele>85.20</ele>
        <time>2020-03-14T08:21:25Z</time>
      </trkpt>
      <trkpt lat="43.3007201739" lon="-8.4560281131">
        <ele>84.91</ele>
        <time>2020-03-14T08:21:31Z</time>
      </trkpt>
      <trkpt lat="43.3006361034" lon="-8.4559707809">
        <ele>84.81</ele>
        <time>2020-03-14T08:21:33Z</time>
      </trkpt>
      <trkpt lat="43.3005471714" lon="-8.4559220821">
        <ele>84.63</ele>
        <time>2020-03-14T08:21:35Z</time>
      </trkpt>
      <trkpt lat="43.3003144059" lon="-8.4557336569">
        <ele>84.37</ele>
        <time>2020-03-14T08:21:41Z</time>
      </trkpt>
      <trkpt lat="43.3002940379" lon="-8.4556802642">
        <ele>84.36</ele>
        <time>2020-03-14T08:21:42Z</time>
      </trkpt>
      <trkpt lat="43.3002715744" lon="-8.4556293022">
        <ele>84.35</ele>
        <time>2020-03-14T08:21:43Z</time>
      </trkpt>
      <trkpt lat="43.3002450038" lon="-8.4555791784">
        <ele>84.32</ele>
        <time>2020-03-14T08:21:44Z</time>
      </trkpt>
      <trkpt lat="43.3002155833" lon="-8.4555167332">
        <ele>84.26</ele>
        <time>2020-03-14T08:21:45Z</time>
      </trkpt>
      <trkpt lat="43.3001919463" lon="-8.4554485045">
        <ele>83.87</ele>
        <time>2020-03-14T08:21:46Z</time>
      </trkpt>
      <trkpt lat="43.3001711592" lon="-8.4553757496">
        <ele>83.30</ele>
        <time>2020-03-14T08:21:47Z</time>
      </trkpt>
      <trkpt lat="43.3001392242" lon="-8.4552329220">
        <ele>82.49</ele>
        <time>2020-03-14T08:21:49Z</time>
      </trkpt>
      <trkpt lat="43.3001118153" lon="-8.4550980572">
        <ele>81.85</ele>
        <time>2020-03-14T08:21:51Z</time>
      </trkpt>
      <trkpt lat="43.3000978176" lon="-8.4550360311">
        <ele>81.54</ele>
        <time>2020-03-14T08:21:52Z</time>
      </trkpt>
      <trkpt lat="43.3000795450" lon="-8.4549835604">
        <ele>81.36</ele>
        <time>2020-03-14T08:21:53Z</time>
      </trkpt>
      <trkpt lat="43.3000556566" lon="-8.4549331013">
        <ele>81.13</ele>
        <time>2020-03-14T08:21:54Z</time>
      </trkpt>
      <trkpt lat="43.3000243921" lon="-8.4548823070">
        <ele>80.94</ele>
        <time>2020-03-14T08:21:55Z</time>
      </trkpt>
      <trkpt lat="43.2999908645" lon="-8.4548349492">
        <ele>80.84</ele>
        <time>2020-03-14T08:21:56Z</time>
      </trkpt>
      <trkpt lat="43.2999507990" lon="-8.4547870047">
        <ele>80.46</ele>
        <time>2020-03-14T08:21:57Z</time>
      </trkpt>
      <trkpt lat="43.2999135833" lon="-8.4547435027">
        <ele>80.22</ele>
        <time>2020-03-14T08:21:58Z</time>
      </trkpt>
      <trkpt lat="43.2998762000" lon="-8.4547058679">
        <ele>80.00</ele>
        <time>2020-03-14T08:21:59Z</time>
      </trkpt>
      <trkpt lat="43.2998430077" lon="-8.4546821471">
        <ele>79.77</ele>
        <time>2020-03-14T08:22:00Z</time>
      </trkpt>
      <trkpt lat="43.2998149283" lon="-8.4546666406">
        <ele>79.62</ele>
        <time>2020-03-14T08:22:01Z</time>
      </trkpt>
      <trkpt lat="43.2997895312" lon="-8.4546502959">
        <ele>79.27</ele>
        <time>2020-03-14T08:22:02Z</time>
      </trkpt>
      <trkpt lat="43.2997308578" lon="-8.4546145890">
        <ele>78.53</ele>
        <time>2020-03-14T08:22:04Z</time>
      </trkpt>
      <trkpt lat="43.2996939775" lon="-8.4545870963">
        <ele>77.96</ele>
        <time>2020-03-14T08:22:05Z</time>
      </trkpt>
      <trkpt lat="43.2996618748" lon="-8.4545458574">
        <ele>77.96</ele>
        <time>2020-03-14T08:22:06Z</time>
      </trkpt>
      <trkpt lat="43.2996396627" lon="-8.4544936381">
        <ele>77.65</ele>
        <time>2020-03-14T08:22:07Z</time>
      </trkpt>
      <trkpt lat="43.2996228989" lon="-8.4544345457">
        <ele>77.56</ele>
        <time>2020-03-14T08:22:08Z</time>
      </trkpt>
      <trkpt lat="43.2996080630" lon="-8.4543744475">
        <ele>77.50</ele>
        <time>2020-03-14T08:22:09Z</time>
      </trkpt>
      <trkpt lat="43.2995572686" lon="-8.4541918896">
        <ele>77.08</ele>
        <time>2020-03-14T08:22:12Z</time>
      </trkpt>
      <trkpt lat="43.2995336317" lon="-8.4541353956">
        <ele>76.93</ele>
        <time>2020-03-14T08:22:13Z</time>
      </trkpt>
      <trkpt lat="43.2993897144" lon="-8.4538830165">
        <ele>76.39</ele>
        <time>2020-03-14T08:22:17Z</time>
      </trkpt>
      <trkpt lat="43.2993375789" lon="-8.4538150392">
        <ele>76.18</ele>
        <time>2020-03-14T08:22:18Z</time>
      </trkpt>
      <trkpt lat="43.2992836833" lon="-8.4537568688">
        <ele>76.04</ele>
        <time>2020-03-14T08:22:19Z</time>
      </trkpt>
      <trkpt lat="43.2992319670" lon="-8.4537093434">
        <ele>75.94</ele>
        <time>2020-03-14T08:22:20Z</time>
      </trkpt>
      <trkpt lat="43.2991820946" lon="-8.4536746424">
        <ele>75.74</ele>
        <time>2020-03-14T08:22:21Z</time>
      </trkpt>
      <trkpt lat="43.2991333120" lon="-8.4536553640">
        <ele>75.41</ele>
        <time>2020-03-14T08:22:22Z</time>
      </trkpt>
      <trkpt lat="43.2990836073" lon="-8.4536573756">
        <ele>75.09</ele>
        <time>2020-03-14T08:22:23Z</time>
      </trkpt>
      <trkpt lat="43.2990414463" lon="-8.4536939207">
        <ele>74.74</ele>
        <time>2020-03-14T08:22:24Z</time>
      </trkpt>
      <trkpt lat="43.2990116067" lon="-8.4537509177">
        <ele>74.14</ele>
        <time>2020-03-14T08:22:25Z</time>
      </trkpt>
      <trkpt lat="43.2989845332" lon="-8.4538123570">
        <ele>72.90</ele>
        <time>2020-03-14T08:22:26Z</time>
      </trkpt>
      <trkpt lat="43.2989023067" lon="-8.4540094994">
        <ele>69.64</ele>
        <time>2020-03-14T08:22:29Z</time>
      </trkpt>
      <trkpt lat="43.2987684477" lon="-8.4543651436">
        <ele>66.58</ele>
        <time>2020-03-14T08:22:34Z</time>
      </trkpt>
      <trkpt lat="43.2986799348" lon="-8.4545952268">
        <ele>65.59</ele>
        <time>2020-03-14T08:22:37Z</time>
      </trkpt>
      <trkpt lat="43.2986619975" lon="-8.4546751063">
        <ele>65.32</ele>
        <time>2020-03-14T08:22:38Z</time>
      </trkpt>
      <trkpt lat="43.2986544538" lon="-8.4547608532">
        <ele>65.16</ele>
        <time>2020-03-14T08:22:39Z</time>
      </trkpt>
      <trkpt lat="43.2986454014" lon="-8.4549232945">
        <ele>64.45</ele>
        <time>2020-03-14T08:22:41Z</time>
      </trkpt>
      <trkpt lat="43.2986232731" lon="-8.4549961332">
        <ele>64.12</ele>
        <time>2020-03-14T08:22:42Z</time>
      </trkpt>
      <trkpt lat="43.2985919248" lon="-8.4550625179">
        <ele>63.62</ele>
        <time>2020-03-14T08:22:43Z</time>
      </trkpt>
      <trkpt lat="43.2984349318" lon="-8.4553624224">
        <ele>62.17</ele>
        <time>2020-03-14T08:22:48Z</time>
      </trkpt>
      <trkpt lat="43.2982926071" lon="-8.4558036458">
        <ele>61.74</ele>
        <time>2020-03-14T08:22:55Z</time>
      </trkpt>
      <trkpt lat="43.2982881647" lon="-8.4558768198">
        <ele>61.72</ele>
        <time>2020-03-14T08:22:56Z</time>
      </trkpt>
      <trkpt lat="43.2982889190" lon="-8.4559494071">
        <ele>61.70</ele>
        <time>2020-03-14T08:22:57Z</time>
      </trkpt>
      <trkpt lat="43.2981843129" lon="-8.4566107392">
        <ele>61.15</ele>
        <time>2020-03-14T08:23:08Z</time>
      </trkpt>
      <trkpt lat="43.2981413137" lon="-8.4566410817">
        <ele>61.15</ele>
        <time>2020-03-14T08:23:09Z</time>
      </trkpt>
      <trkpt lat="43.2980932854" lon="-8.4566628747">
        <ele>61.15</ele>
        <time>2020-03-14T08:23:10Z</time>
      </trkpt>
      <trkpt lat="43.2980385516" lon="-8.4566694964">
        <ele>61.15</ele>
        <time>2020-03-14T08:23:11Z</time>
      </trkpt>
      <trkpt lat="43.2979906909" lon="-8.4566793032">
        <ele>61.12</ele>
        <time>2020-03-14T08:23:12Z</time>
      </trkpt>
      <trkpt lat="43.2979474403" lon="-8.4566974081">
        <ele>61.10</ele>
        <time>2020-03-14T08:23:13Z</time>
      </trkpt>
      <trkpt lat="43.2979056146" lon="-8.4567118250">
        <ele>61.09</ele>
        <time>2020-03-14T08:23:14Z</time>
      </trkpt>
      <trkpt lat="43.2978679799" lon="-8.4567114897">
        <ele>61.08</ele>
        <time>2020-03-14T08:23:15Z</time>
      </trkpt>
      <trkpt lat="43.2978390623" lon="-8.4566967376">
        <ele>61.08</ele>
        <time>2020-03-14T08:23:16Z</time>
      </trkpt>
      <trkpt lat="43.2978127431" lon="-8.4566677362">
        <ele>61.08</ele>
        <time>2020-03-14T08:23:17Z</time>
      </trkpt>
      <trkpt lat="43.2977908663" lon="-8.4566394053">
        <ele>61.08</ele>
        <time>2020-03-14T08:23:18Z</time>
      </trkpt>
      <trkpt lat="43.2977663912" lon="-8.4566237312">
        <ele>61.08</ele>
        <time>2020-03-14T08:23:19Z</time>
      </trkpt>
      <trkpt lat="43.2977392338" lon="-8.4566082247">
        <ele>61.07</ele>
        <time>2020-03-14T08:23:20Z</time>
      </trkpt>
      <trkpt lat="43.2977088075" lon="-8.4566030279">
        <ele>60.58</ele>
        <time>2020-03-14T08:23:21Z</time>
      </trkpt>
      <trkpt lat="43.2976765372" lon="-8.4566053748">
        <ele>60.58</ele>
        <time>2020-03-14T08:23:22Z</time>
      </trkpt>
      <trkpt lat="43.2976484578" lon="-8.4566122480">
        <ele>59.77</ele>
        <time>2020-03-14T08:23:23Z</time>
      </trkpt>
      <trkpt lat="43.2974592783" lon="-8.4565005172">
        <ele>59.50</ele>
        <time>2020-03-14T08:23:33Z</time>
      </trkpt>
      <trkpt lat="43.2972856890" lon="-8.4563936479">
        <ele>63.02</ele>
        <time>2020-03-14T08:23:45Z</time>
      </trkpt>
      <trkpt lat="43.2972687576" lon="-8.4563916363">
        <ele>63.02</ele>
        <time>2020-03-14T08:23:46Z</time>
      </trkpt>
      <trkpt lat="43.2970589586" lon="-8.4563244134">
        <ele>66.25</ele>
        <time>2020-03-14T08:23:56Z</time>
      </trkpt>
      <trkpt lat="43.2968576252" lon="-8.4562806599">
        <ele>67.89</ele>
        <time>2020-03-14T08:24:04Z</time>
      </trkpt>
      <trkpt lat="43.2966325711" lon="-8.4562182147">
        <ele>69.04</ele>
        <time>2020-03-14T08:24:12Z</time>
      </trkpt>
      <trkpt lat="43.2965895720" lon="-8.4561917279">
        <ele>69.11</ele>
        <time>2020-03-14T08:24:13Z</time>
      </trkpt>
      <trkpt lat="43.2965486683" lon="-8.4561483935">
        <ele>69.14</ele>
        <time>2020-03-14T08:24:14Z</time>
      </trkpt>
      <trkpt lat="43.2965127099" lon="-8.4560961742">
        <ele>69.15</ele>
        <time>2020-03-14T08:24:15Z</time>
      </trkpt>
      <trkpt lat="43.2964772545" lon="-8.4560255986">
        <ele>69.16</ele>
        <time>2020-03-14T08:24:16Z</time>
      </trkpt>
      <trkpt lat="43.2964463253" lon="-8.4559444617">
        <ele>69.16</ele>
        <time>2020-03-14T08:24:17Z</time>
      </trkpt>
      <trkpt lat="43.2964195032" lon="-8.4558658395">
        <ele>69.16</ele>
        <time>2020-03-14T08:24:18Z</time>
      </trkpt>
      <trkpt lat="43.2962699700" lon="-8.4556018934">
        <ele>67.80</ele>
        <time>2020-03-14T08:24:25Z</time>
      </trkpt>
      <trkpt lat="43.2961324230" lon="-8.4553666133">
        <ele>68.59</ele>
        <time>2020-03-14T08:24:37Z</time>
      </trkpt>
      <trkpt lat="43.2961219456" lon="-8.4553439822">
        <ele>68.98</ele>
        <time>2020-03-14T08:24:38Z</time>
      </trkpt>
      <trkpt lat="43.2961069420" lon="-8.4553218540">
        <ele>69.34</ele>
        <time>2020-03-14T08:24:39Z</time>
      </trkpt>
      <trkpt lat="43.2959226239" lon="-8.4551784396">
        <ele>72.44</ele>
        <time>2020-03-14T08:24:49Z</time>
      </trkpt>
      <trkpt lat="43.2956934627" lon="-8.4553345945">
        <ele>74.77</ele>
        <time>2020-03-14T08:25:01Z</time>
      </trkpt>
      <trkpt lat="43.2955548260" lon="-8.4553939383">
        <ele>77.78</ele>
        <time>2020-03-14T08:25:10Z</time>
      </trkpt>
      <trkpt lat="43.2955022715" lon="-8.4554004762">
        <ele>78.77</ele>
        <time>2020-03-14T08:25:13Z</time>
      </trkpt>
      <trkpt lat="43.2954798918" lon="-8.4553972073">
        <ele>79.06</ele>
        <time>2020-03-14T08:25:14Z</time>
      </trkpt>
      <trkpt lat="43.2952415105" lon="-8.4553242009">
        <ele>82.15</ele>
        <time>2020-03-14T08:25:27Z</time>
      </trkpt>
      <trkpt lat="43.2950221561" lon="-8.4552109614">
        <ele>85.19</ele>
        <time>2020-03-14T08:25:39Z</time>
      </trkpt>
      <trkpt lat="43.2949710265" lon="-8.4552228637">
        <ele>86.12</ele>
        <time>2020-03-14T08:25:42Z</time>
      </trkpt>
      <trkpt lat="43.2946129516" lon="-8.4556389414">
        <ele>88.10</ele>
        <time>2020-03-14T08:25:55Z</time>
      </trkpt>
      <trkpt lat="43.2940406352" lon="-8.4557346627">
        <ele>89.70</ele>
        <time>2020-03-14T08:26:13Z</time>
      </trkpt>
      <trkpt lat="43.2934885193" lon="-8.4555986244">
        <ele>90.85</ele>
        <time>2020-03-14T08:26:29Z</time>
      </trkpt>
      <trkpt lat="43.2930651493" lon="-8.4559281170">
        <ele>92.19</ele>
        <time>2020-03-14T08:26:44Z</time>
      </trkpt>
      <trkpt lat="43.2930085715" lon="-8.4560495708">
        <ele>93.86</ele>
        <time>2020-03-14T08:26:53Z</time>
      </trkpt>
      <trkpt lat="43.2928508241" lon="-8.4560423624">
        <ele>96.94</ele>
        <time>2020-03-14T08:27:09Z</time>
      </trkpt>
      <trkpt lat="43.2928030472" lon="-8.4561529197">
        <ele>99.95</ele>
        <time>2020-03-14T08:27:21Z</time>
      </trkpt>
      <trkpt lat="43.2927971799" lon="-8.4563172888">
        <ele>102.98</ele>
        <time>2020-03-14T08:27:34Z</time>
      </trkpt>
      <trkpt lat="43.2927731238" lon="-8.4564592782">
        <ele>105.99</ele>
        <time>2020-03-14T08:27:46Z</time>
      </trkpt>
      <trkpt lat="43.2927332260" lon="-8.4566658083">
        <ele>109.11</ele>
        <time>2020-03-14T08:28:00Z</time>
      </trkpt>
      <trkpt lat="43.2927130256" lon="-8.4568519704">
        <ele>111.53</ele>
        <time>2020-03-14T08:28:15Z</time>
      </trkpt>
      <trkpt lat="43.2927074097" lon="-8.4568816423">
        <ele>111.65</ele>
        <time>2020-03-14T08:28:16Z</time>
      </trkpt>
      <trkpt lat="43.2927043084" lon="-8.4569104761">
        <ele>111.78</ele>
        <time>2020-03-14T08:28:17Z</time>
      </trkpt>
      <trkpt lat="43.2926993631" lon="-8.4569397289">
        <ele>111.90</ele>
        <time>2020-03-14T08:28:18Z</time>
      </trkpt>
      <trkpt lat="43.2926923223" lon="-8.4569681436">
        <ele>112.02</ele>
        <time>2020-03-14T08:28:19Z</time>
      </trkpt>
      <trkpt lat="43.2926857006" lon="-8.4569992404">
        <ele>112.12</ele>
        <time>2020-03-14T08:28:20Z</time>
      </trkpt>
      <trkpt lat="43.2925394364" lon="-8.4572994802">
        <ele>113.55</ele>
        <time>2020-03-14T08:28:32Z</time>
      </trkpt>
      <trkpt lat="43.2922395319" lon="-8.4574417211">
        <ele>115.43</ele>
        <time>2020-03-14T08:28:45Z</time>
      </trkpt>
      <trkpt lat="43.2918833848" lon="-8.4576578066">
        <ele>117.66</ele>
        <time>2020-03-14T08:28:59Z</time>
      </trkpt>
      <trkpt lat="43.2915317640" lon="-8.4580393508">
        <ele>117.86</ele>
        <time>2020-03-14T08:29:11Z</time>
      </trkpt>
      <trkpt lat="43.2911135908" lon="-8.4584843460">
        <ele>117.99</ele>
        <time>2020-03-14T08:29:25Z</time>
      </trkpt>
      <trkpt lat="43.2910778839" lon="-8.4584809933">
        <ele>118.03</ele>
        <time>2020-03-14T08:29:26Z</time>
      </trkpt>
      <trkpt lat="43.2910440210" lon="-8.4584606253">
        <ele>118.08</ele>
        <time>2020-03-14T08:29:27Z</time>
      </trkpt>
      <trkpt lat="43.2910160255" lon="-8.4584251698">
        <ele>118.15</ele>
        <time>2020-03-14T08:29:28Z</time>
      </trkpt>
      <trkpt lat="43.2909920532" lon="-8.4583789855">
        <ele>118.24</ele>
        <time>2020-03-14T08:29:29Z</time>
      </trkpt>
      <trkpt lat="43.2909701765" lon="-8.4583276883">
        <ele>118.29</ele>
        <time>2020-03-14T08:29:30Z</time>
      </trkpt>
      <trkpt lat="43.2907606289" lon="-8.4578045737">
        <ele>118.23</ele>
        <time>2020-03-14T08:29:39Z</time>
      </trkpt>
      <trkpt lat="43.2907225750" lon="-8.4577487502">
        <ele>118.15</ele>
        <time>2020-03-14T08:29:40Z</time>
      </trkpt>
      <trkpt lat="43.2906786539" lon="-8.4576981235">
        <ele>118.02</ele>
        <time>2020-03-14T08:29:41Z</time>
      </trkpt>
      <trkpt lat="43.2906277757" lon="-8.4576512687">
        <ele>117.86</ele>
        <time>2020-03-14T08:29:42Z</time>
      </trkpt>
      <trkpt lat="43.2905729581" lon="-8.4576096945">
        <ele>117.75</ele>
        <time>2020-03-14T08:29:43Z</time>
      </trkpt>
      <trkpt lat="43.2905169670" lon="-8.4575718082">
        <ele>117.59</ele>
        <time>2020-03-14T08:29:44Z</time>
      </trkpt>
      <trkpt lat="43.2904069964" lon="-8.4574827086">
        <ele>117.10</ele>
        <time>2020-03-14T08:29:46Z</time>
      </trkpt>
      <trkpt lat="43.2903551124" lon="-8.4574205149">
        <ele>116.84</ele>
        <time>2020-03-14T08:29:47Z</time>
      </trkpt>
      <trkpt lat="43.2903121132" lon="-8.4573508613">
        <ele>116.56</ele>
        <time>2020-03-14T08:29:48Z</time>
      </trkpt>
      <trkpt lat="43.2902757358" lon="-8.4572718199">
        <ele>116.31</ele>
        <time>2020-03-14T08:29:49Z</time>
      </trkpt>
      <trkpt lat="43.2902501710" lon="-8.4571828879">
        <ele>115.94</ele>
        <time>2020-03-14T08:29:50Z</time>
      </trkpt>
      <trkpt lat="43.2902374305" lon="-8.4570932854">
        <ele>115.48</ele>
        <time>2020-03-14T08:29:51Z</time>
      </trkpt>
      <trkpt lat="43.2902300544" lon="-8.4570053592">
        <ele>115.00</ele>
        <time>2020-03-14T08:29:52Z</time>
      </trkpt>
      <trkpt lat="43.2901933417" lon="-8.4567741863">
        <ele>113.47</ele>
        <time>2020-03-14T08:29:56Z</time>
      </trkpt>
      <trkpt lat="43.2901720516" lon="-8.4567546565">
        <ele>113.25</ele>
        <time>2020-03-14T08:29:57Z</time>
      </trkpt>
      <trkpt lat="43.2900939323" lon="-8.4567742702">
        <ele>113.06</ele>
        <time>2020-03-14T08:30:00Z</time>
      </trkpt>
      <trkpt lat="43.2898836304" lon="-8.4571108036">
        <ele>113.14</ele>
        <time>2020-03-14T08:30:10Z</time>
      </trkpt>
      <trkpt lat="43.2896908466" lon="-8.4573242068">
        <ele>113.47</ele>
        <time>2020-03-14T08:30:19Z</time>
      </trkpt>
      <trkpt lat="43.2894160040" lon="-8.4574696328">
        <ele>115.61</ele>
        <time>2020-03-14T08:30:30Z</time>
      </trkpt>
      <trkpt lat="43.2890057936" lon="-8.4575645160">
        <ele>118.07</ele>
        <time>2020-03-14T08:30:44Z</time>
      </trkpt>
      <trkpt lat="43.2889037021" lon="-8.4575987980">
        <ele>118.85</ele>
        <time>2020-03-14T08:30:49Z</time>
      </trkpt>
      <trkpt lat="43.2886066474" lon="-8.4579744749">
        <ele>121.66</ele>
        <time>2020-03-14T08:31:04Z</time>
      </trkpt>
      <trkpt lat="43.2885256782" lon="-8.4583610483">
        <ele>123.64</ele>
        <time>2020-03-14T08:31:16Z</time>
      </trkpt>
      <trkpt lat="43.2883183938" lon="-8.4586416744">
        <ele>126.12</ele>
        <time>2020-03-14T08:31:27Z</time>
      </trkpt>
      <trkpt lat="43.2881018054" lon="-8.4589872602">
        <ele>127.75</ele>
        <time>2020-03-14T08:31:38Z</time>
      </trkpt>
      <trkpt lat="43.2878857199" lon="-8.4592745919">
        <ele>128.50</ele>
        <time>2020-03-14T08:31:49Z</time>
      </trkpt>
      <trkpt lat="43.2877287269" lon="-8.4595698025">
        <ele>130.54</ele>
        <time>2020-03-14T08:32:00Z</time>
      </trkpt>
      <trkpt lat="43.2876138110" lon="-8.4601595532">
        <ele>131.96</ele>
        <time>2020-03-14T08:32:13Z</time>
      </trkpt>
      <trkpt lat="43.2874789461" lon="-8.4607729409">
        <ele>131.55</ele>
        <time>2020-03-14T08:32:26Z</time>
      </trkpt>
      <trkpt lat="43.2875142340" lon="-8.4609368909">
        <ele>132.06</ele>
        <time>2020-03-14T08:32:30Z</time>
      </trkpt>
      <trkpt lat="43.2874871604" lon="-8.4611007571">
        <ele>132.85</ele>
        <time>2020-03-14T08:32:34Z</time>
      </trkpt>
      <trkpt lat="43.2874322589" lon="-8.4612329397">
        <ele>133.05</ele>
        <time>2020-03-14T08:32:38Z</time>
      </trkpt>
      <trkpt lat="43.2871745154" lon="-8.4613531362">
        <ele>133.06</ele>
        <time>2020-03-14T08:32:47Z</time>
      </trkpt>
      <trkpt lat="43.2869304344" lon="-8.4615637735">
        <ele>133.03</ele>
        <time>2020-03-14T08:32:56Z</time>
      </trkpt>
      <trkpt lat="43.2868979126" lon="-8.4616007376">
        <ele>133.04</ele>
        <time>2020-03-14T08:32:58Z</time>
      </trkpt>
      <trkpt lat="43.2867708430" lon="-8.4617955331">
        <ele>133.73</ele>
        <time>2020-03-14T08:33:05Z</time>
      </trkpt>
      <trkpt lat="43.2864520792" lon="-8.4621242713">
        <ele>134.50</ele>
        <time>2020-03-14T08:33:18Z</time>
      </trkpt>
      <trkpt lat="43.2863525860" lon="-8.4622212499">
        <ele>134.52</ele>
        <time>2020-03-14T08:33:23Z</time>
      </trkpt>
      <trkpt lat="43.2862512488" lon="-8.4622410312">
        <ele>134.81</ele>
        <time>2020-03-14T08:33:37Z</time>
      </trkpt>
      <trkpt lat="43.2862162963" lon="-8.4621822741">
        <ele>134.81</ele>
        <time>2020-03-14T08:33:39Z</time>
      </trkpt>
      <trkpt lat="43.2861278672" lon="-8.4619758278">
        <ele>134.80</ele>
        <time>2020-03-14T08:33:43Z</time>
      </trkpt>
      <trkpt lat="43.2860551123" lon="-8.4617709741">
        <ele>134.61</ele>
        <time>2020-03-14T08:33:47Z</time>
      </trkpt>
      <trkpt lat="43.2860240992" lon="-8.4616717324">
        <ele>134.15</ele>
        <time>2020-03-14T08:33:49Z</time>
      </trkpt>
      <trkpt lat="43.2859303057" lon="-8.4612982348">
        <ele>133.49</ele>
        <time>2020-03-14T08:33:56Z</time>
      </trkpt>
      <trkpt lat="43.2859578822" lon="-8.4608215559">
        <ele>133.32</ele>
        <time>2020-03-14T08:34:05Z</time>
      </trkpt>
      <trkpt lat="43.2860369235" lon="-8.4607037902">
        <ele>133.29</ele>
        <time>2020-03-14T08:34:08Z</time>
      </trkpt>
      <trkpt lat="43.2860746421" lon="-8.4604372457">
        <ele>133.14</ele>
        <time>2020-03-14T08:34:12Z</time>
      </trkpt>
      <trkpt lat="43.2861770689" lon="-8.4599251952">
        <ele>131.95</ele>
        <time>2020-03-14T08:34:18Z</time>
      </trkpt>
      <trkpt lat="43.2860706188" lon="-8.4595548827">
        <ele>127.31</ele>
        <time>2020-03-14T08:34:23Z</time>
      </trkpt>
      <trkpt lat="43.2859276235" lon="-8.4594497737">
        <ele>123.43</ele>
        <time>2020-03-14T08:34:26Z</time>
      </trkpt>
      <trkpt lat="43.2858223468" lon="-8.4593860712">
        <ele>121.25</ele>
        <time>2020-03-14T08:34:29Z</time>
      </trkpt>
      <trkpt lat="43.2857813593" lon="-8.4593457542">
        <ele>120.44</ele>
        <time>2020-03-14T08:34:31Z</time>
      </trkpt>
      <trkpt lat="43.2855390385" lon="-8.4591176827">
        <ele>119.87</ele>
        <time>2020-03-14T08:34:43Z</time>
      </trkpt>
      <trkpt lat="43.2852968853" lon="-8.4590118192">
        <ele>119.87</ele>
        <time>2020-03-14T08:34:52Z</time>
      </trkpt>
      <trkpt lat="43.2851030957" lon="-8.4587881062">
        <ele>120.25</ele>
        <time>2020-03-14T08:35:02Z</time>
      </trkpt>
      <trkpt lat="43.2848234754" lon="-8.4585244115">
        <ele>120.18</ele>
        <time>2020-03-14T08:35:15Z</time>
      </trkpt>
      <trkpt lat="43.2844324596" lon="-8.4584363177">
        <ele>119.66</ele>
        <time>2020-03-14T08:35:27Z</time>
      </trkpt>
      <trkpt lat="43.2840191480" lon="-8.4583442844">
        <ele>120.22</ele>
        <time>2020-03-14T08:35:41Z</time>
      </trkpt>
      <trkpt lat="43.2837256975" lon="-8.4584490582">
        <ele>121.02</ele>
        <time>2020-03-14T08:35:53Z</time>
      </trkpt>
      <trkpt lat="43.2834744081" lon="-8.4586098231">
        <ele>124.16</ele>
        <time>2020-03-14T08:36:03Z</time>
      </trkpt>
      <trkpt lat="43.2832633518" lon="-8.4589913674">
        <ele>126.36</ele>
        <time>2020-03-14T08:36:15Z</time>
      </trkpt>
      <trkpt lat="43.2829694822" lon="-8.4593336005">
        <ele>127.21</ele>
        <time>2020-03-14T08:36:28Z</time>
      </trkpt>
      <trkpt lat="43.2826742716" lon="-8.4592697304">
        <ele>127.44</ele>
        <time>2020-03-14T08:36:38Z</time>
      </trkpt>
      <trkpt lat="43.2823975012" lon="-8.4589501284">
        <ele>129.93</ele>
        <time>2020-03-14T08:36:52Z</time>
      </trkpt>
      <trkpt lat="43.2820702717" lon="-8.4587749466">
        <ele>132.00</ele>
        <time>2020-03-14T08:37:06Z</time>
      </trkpt>
      <trkpt lat="43.2818234246" lon="-8.4586292692">
        <ele>134.55</ele>
        <time>2020-03-14T08:37:19Z</time>
      </trkpt>
      <trkpt lat="43.2817639969" lon="-8.4586211387">
        <ele>135.42</ele>
        <time>2020-03-14T08:37:22Z</time>
      </trkpt>
      <trkpt lat="43.2817462273" lon="-8.4586321190">
        <ele>135.66</ele>
        <time>2020-03-14T08:37:23Z</time>
      </trkpt>
      <trkpt lat="43.2817309722" lon="-8.4586495534">
        <ele>135.92</ele>
        <time>2020-03-14T08:37:24Z</time>
      </trkpt>
      <trkpt lat="43.2816321496" lon="-8.4587456100">
        <ele>137.20</ele>
        <time>2020-03-14T08:37:29Z</time>
      </trkpt>
      <trkpt lat="43.2816070877" lon="-8.4587484598">
        <ele>137.53</ele>
        <time>2020-03-14T08:37:30Z</time>
      </trkpt>
      <trkpt lat="43.2815841213" lon="-8.4587402456">
        <ele>137.81</ele>
        <time>2020-03-14T08:37:31Z</time>
      </trkpt>
      <trkpt lat="43.2815661002" lon="-8.4587275889">
        <ele>137.99</ele>
        <time>2020-03-14T08:37:32Z</time>
      </trkpt>
      <trkpt lat="43.2815531082" lon="-8.4587117471">
        <ele>138.14</ele>
        <time>2020-03-14T08:37:33Z</time>
      </trkpt>
      <trkpt lat="43.2815392781" lon="-8.4586928040">
        <ele>138.22</ele>
        <time>2020-03-14T08:37:34Z</time>
      </trkpt>
      <trkpt lat="43.2815262862" lon="-8.4586752858">
        <ele>138.30</ele>
        <time>2020-03-14T08:37:35Z</time>
      </trkpt>
      <trkpt lat="43.2815136295" lon="-8.4586591087">
        <ele>138.34</ele>
        <time>2020-03-14T08:37:36Z</time>
      </trkpt>
      <trkpt lat="43.2815023977" lon="-8.4586422611">
        <ele>138.40</ele>
        <time>2020-03-14T08:37:37Z</time>
      </trkpt>
      <trkpt lat="43.2814944349" lon="-8.4586244076">
        <ele>138.43</ele>
        <time>2020-03-14T08:37:38Z</time>
      </trkpt>
      <trkpt lat="43.2814456522" lon="-8.4585610405">
        <ele>140.05</ele>
        <time>2020-03-14T08:37:44Z</time>
      </trkpt>
      <trkpt lat="43.2814304810" lon="-8.4585519880">
        <ele>140.30</ele>
        <time>2020-03-14T08:37:45Z</time>
      </trkpt>
      <trkpt lat="43.2814179920" lon="-8.4585396666">
        <ele>140.65</ele>
        <time>2020-03-14T08:37:46Z</time>
      </trkpt>
      <trkpt lat="43.2814075984" lon="-8.4585243277">
        <ele>141.05</ele>
        <time>2020-03-14T08:37:47Z</time>
      </trkpt>
      <trkpt lat="43.2813955285" lon="-8.4585081507">
        <ele>141.36</ele>
        <time>2020-03-14T08:37:48Z</time>
      </trkpt>
      <trkpt lat="43.2813811954" lon="-8.4584946558">
        <ele>141.66</ele>
        <time>2020-03-14T08:37:49Z</time>
      </trkpt>
      <trkpt lat="43.2813702989" lon="-8.4584826697">
        <ele>141.93</ele>
        <time>2020-03-14T08:37:50Z</time>
      </trkpt>
      <trkpt lat="43.2813573070" lon="-8.4584690072">
        <ele>142.13</ele>
        <time>2020-03-14T08:37:51Z</time>
      </trkpt>
      <trkpt lat="43.2813434768" lon="-8.4584553447">
        <ele>142.33</ele>
        <time>2020-03-14T08:37:52Z</time>
      </trkpt>
      <trkpt lat="43.2813332509" lon="-8.4584423527">
        <ele>142.58</ele>
        <time>2020-03-14T08:37:53Z</time>
      </trkpt>
      <trkpt lat="43.2812087797" lon="-8.4582519997">
        <ele>145.58</ele>
        <time>2020-03-14T08:38:06Z</time>
      </trkpt>
      <trkpt lat="43.2810972165" lon="-8.4580642451">
        <ele>148.88</ele>
        <time>2020-03-14T08:38:18Z</time>
      </trkpt>
      <trkpt lat="43.2810123917" lon="-8.4578080103">
        <ele>152.04</ele>
        <time>2020-03-14T08:38:29Z</time>
      </trkpt>
      <trkpt lat="43.2808647025" lon="-8.4574242029">
        <ele>155.06</ele>
        <time>2020-03-14T08:38:43Z</time>
      </trkpt>
      <trkpt lat="43.2807129063" lon="-8.4568671416">
        <ele>155.92</ele>
        <time>2020-03-14T08:38:59Z</time>
      </trkpt>
      <trkpt lat="43.2805294264" lon="-8.4566466976">
        <ele>156.96</ele>
        <time>2020-03-14T08:39:10Z</time>
      </trkpt>
      <trkpt lat="43.2802857645" lon="-8.4564383235">
        <ele>159.85</ele>
        <time>2020-03-14T08:39:25Z</time>
      </trkpt>
      <trkpt lat="43.2801054697" lon="-8.4562645666">
        <ele>162.86</ele>
        <time>2020-03-14T08:39:36Z</time>
      </trkpt>
      <trkpt lat="43.2797129452" lon="-8.4558748081">
        <ele>165.56</ele>
        <time>2020-03-14T08:39:53Z</time>
      </trkpt>
      <trkpt lat="43.2793234382" lon="-8.4556441382">
        <ele>167.29</ele>
        <time>2020-03-14T08:40:07Z</time>
      </trkpt>
      <trkpt lat="43.2790054288" lon="-8.4553632606">
        <ele>167.86</ele>
        <time>2020-03-14T08:40:19Z</time>
      </trkpt>
      <trkpt lat="43.2787805423" lon="-8.4551694710">
        <ele>169.43</ele>
        <time>2020-03-14T08:40:30Z</time>
      </trkpt>
      <trkpt lat="43.2784685679" lon="-8.4549858235">
        <ele>172.42</ele>
        <time>2020-03-14T08:40:43Z</time>
      </trkpt>
      <trkpt lat="43.2781970780" lon="-8.4547964763">
        <ele>174.37</ele>
        <time>2020-03-14T08:40:54Z</time>
      </trkpt>
      <trkpt lat="43.2778098341" lon="-8.4547030181">
        <ele>176.14</ele>
        <time>2020-03-14T08:41:05Z</time>
      </trkpt>
      <trkpt lat="43.2777672540" lon="-8.4547087178">
        <ele>176.16</ele>
        <time>2020-03-14T08:41:06Z</time>
      </trkpt>
      <trkpt lat="43.2775876299" lon="-8.4547480289">
        <ele>176.18</ele>
        <time>2020-03-14T08:41:10Z</time>
      </trkpt>
      <trkpt lat="43.2775439601" lon="-8.4547483642">
        <ele>176.18</ele>
        <time>2020-03-14T08:41:11Z</time>
      </trkpt>
      <trkpt lat="43.2771102805" lon="-8.4547365457">
        <ele>175.16</ele>
        <time>2020-03-14T08:41:22Z</time>
      </trkpt>
      <trkpt lat="43.2768899202" lon="-8.4548643697">
        <ele>175.14</ele>
        <time>2020-03-14T08:41:28Z</time>
      </trkpt>
      <trkpt lat="43.2768469211" lon="-8.4548775293">
        <ele>175.14</ele>
        <time>2020-03-14T08:41:29Z</time>
      </trkpt>
      <trkpt lat="43.2768036705" lon="-8.4548850730">
        <ele>175.14</ele>
        <time>2020-03-14T08:41:30Z</time>
      </trkpt>
      <trkpt lat="43.2767602522" lon="-8.4548884258">
        <ele>175.14</ele>
        <time>2020-03-14T08:41:31Z</time>
      </trkpt>
      <trkpt lat="43.2767164987" lon="-8.4548829775">
        <ele>175.14</ele>
        <time>2020-03-14T08:41:32Z</time>
      </trkpt>
      <trkpt lat="43.2766712364" lon="-8.4548698179">
        <ele>175.14</ele>
        <time>2020-03-14T08:41:33Z</time>
      </trkpt>
      <trkpt lat="43.2766268123" lon="-8.4548619390">
        <ele>175.14</ele>
        <time>2020-03-14T08:41:34Z</time>
      </trkpt>
      <trkpt lat="43.2765839808" lon="-8.4548549820">
        <ele>175.14</ele>
        <time>2020-03-14T08:41:35Z</time>
      </trkpt>
      <trkpt lat="43.2765425742" lon="-8.4548564907">
        <ele>175.10</ele>
        <time>2020-03-14T08:41:36Z</time>
      </trkpt>
      <trkpt lat="43.2765128184" lon="-8.4548838157">
        <ele>175.09</ele>
        <time>2020-03-14T08:41:37Z</time>
      </trkpt>
      <trkpt lat="43.2765005808" lon="-8.4549227916">
        <ele>175.08</ele>
        <time>2020-03-14T08:41:38Z</time>
      </trkpt>
      <trkpt lat="43.2764966413" lon="-8.4549672995">
        <ele>174.98</ele>
        <time>2020-03-14T08:41:39Z</time>
      </trkpt>
      <trkpt lat="43.2764936239" lon="-8.4550187644">
        <ele>174.83</ele>
        <time>2020-03-14T08:41:40Z</time>
      </trkpt>
      <trkpt lat="43.2764894329" lon="-8.4550709836">
        <ele>174.66</ele>
        <time>2020-03-14T08:41:41Z</time>
      </trkpt>
      <trkpt lat="43.2764792070" lon="-8.4551272262">
        <ele>174.47</ele>
        <time>2020-03-14T08:41:42Z</time>
      </trkpt>
      <trkpt lat="43.2764685620" lon="-8.4551895037">
        <ele>174.28</ele>
        <time>2020-03-14T08:41:43Z</time>
      </trkpt>
      <trkpt lat="43.2764554024" lon="-8.4552497696">
        <ele>174.17</ele>
        <time>2020-03-14T08:41:44Z</time>
      </trkpt>
      <trkpt lat="43.2764382195" lon="-8.4553055093">
        <ele>174.11</ele>
        <time>2020-03-14T08:41:45Z</time>
      </trkpt>
      <trkpt lat="43.2764170971" lon="-8.4553572256">
        <ele>174.07</ele>
        <time>2020-03-14T08:41:46Z</time>
      </trkpt>
      <trkpt lat="43.2763937116" lon="-8.4554046672">
        <ele>174.04</ele>
        <time>2020-03-14T08:41:47Z</time>
      </trkpt>
      <trkpt lat="43.2762290910" lon="-8.4558912367">
        <ele>170.36</ele>
        <time>2020-03-14T08:41:57Z</time>
      </trkpt>
      <trkpt lat="43.2761466969" lon="-8.4561220743">
        <ele>167.09</ele>
        <time>2020-03-14T08:42:02Z</time>
      </trkpt>
      <trkpt lat="43.2761459425" lon="-8.4561705217">
        <ele>166.79</ele>
        <time>2020-03-14T08:42:03Z</time>
      </trkpt>
      <trkpt lat="43.2761504687" lon="-8.4564071428">
        <ele>165.60</ele>
        <time>2020-03-14T08:42:07Z</time>
      </trkpt>
      <trkpt lat="43.2761618681" lon="-8.4564669896">
        <ele>165.22</ele>
        <time>2020-03-14T08:42:08Z</time>
      </trkpt>
      <trkpt lat="43.2761793863" lon="-8.4565312788">
        <ele>164.96</ele>
        <time>2020-03-14T08:42:09Z</time>
      </trkpt>
      <trkpt lat="43.2762019336" lon="-8.4565943107">
        <ele>164.78</ele>
        <time>2020-03-14T08:42:10Z</time>
      </trkpt>
      <trkpt lat="43.2762269955" lon="-8.4566526487">
        <ele>164.45</ele>
        <time>2020-03-14T08:42:11Z</time>
      </trkpt>
      <trkpt lat="43.2762549073" lon="-8.4567154292">
        <ele>164.15</ele>
        <time>2020-03-14T08:42:12Z</time>
      </trkpt>
      <trkpt lat="43.2762854174" lon="-8.4567710850">
        <ele>163.95</ele>
        <time>2020-03-14T08:42:13Z</time>
      </trkpt>
      <trkpt lat="43.2763183583" lon="-8.4568230528">
        <ele>163.67</ele>
        <time>2020-03-14T08:42:14Z</time>
      </trkpt>
      <trkpt lat="43.2763498742" lon="-8.4568723384">
        <ele>163.40</ele>
        <time>2020-03-14T08:42:15Z</time>
      </trkpt>
      <trkpt lat="43.2763770316" lon="-8.4569295030">
        <ele>163.21</ele>
        <time>2020-03-14T08:42:16Z</time>
      </trkpt>
      <trkpt lat="43.2764006685" lon="-8.4569873381">
        <ele>163.08</ele>
        <time>2020-03-14T08:42:17Z</time>
      </trkpt>
      <trkpt lat="43.2764191926" lon="-8.4570401441">
        <ele>162.82</ele>
        <time>2020-03-14T08:42:18Z</time>
      </trkpt>
      <trkpt lat="43.2764352020" lon="-8.4570915252">
        <ele>162.58</ele>
        <time>2020-03-14T08:42:19Z</time>
      </trkpt>
      <trkpt lat="43.2764527202" lon="-8.4571428224">
        <ele>162.39</ele>
        <time>2020-03-14T08:42:20Z</time>
      </trkpt>
      <trkpt lat="43.2764793746" lon="-8.4571889229">
        <ele>162.10</ele>
        <time>2020-03-14T08:42:21Z</time>
      </trkpt>
      <trkpt lat="43.2765091304" lon="-8.4572336823">
        <ele>162.02</ele>
        <time>2020-03-14T08:42:22Z</time>
      </trkpt>
      <trkpt lat="43.2765404787" lon="-8.4572894219">
        <ele>161.91</ele>
        <time>2020-03-14T08:42:23Z</time>
      </trkpt>
      <trkpt lat="43.2765749283" lon="-8.4573485982">
        <ele>161.83</ele>
        <time>2020-03-14T08:42:24Z</time>
      </trkpt>
      <trkpt lat="43.2766107190" lon="-8.4574106243">
        <ele>161.77</ele>
        <time>2020-03-14T08:42:25Z</time>
      </trkpt>
      <trkpt lat="43.2766437437" lon="-8.4574753325">
        <ele>161.74</ele>
        <time>2020-03-14T08:42:26Z</time>
      </trkpt>
      <trkpt lat="43.2766713202" lon="-8.4575443994">
        <ele>161.62</ele>
        <time>2020-03-14T08:42:27Z</time>
      </trkpt>
      <trkpt lat="43.2766927779" lon="-8.4576098621">
        <ele>161.56</ele>
        <time>2020-03-14T08:42:28Z</time>
      </trkpt>
      <trkpt lat="43.2767107990" lon="-8.4576679487">
        <ele>161.40</ele>
        <time>2020-03-14T08:42:29Z</time>
      </trkpt>
      <trkpt lat="43.2767746691" lon="-8.4578063339">
        <ele>160.32</ele>
        <time>2020-03-14T08:42:32Z</time>
      </trkpt>
      <trkpt lat="43.2768128905" lon="-8.4578359220">
        <ele>159.78</ele>
        <time>2020-03-14T08:42:33Z</time>
      </trkpt>
      <trkpt lat="43.2768567279" lon="-8.4578577988">
        <ele>159.19</ele>
        <time>2020-03-14T08:42:34Z</time>
      </trkpt>
      <trkpt lat="43.2768968772" lon="-8.4578655940">
        <ele>158.56</ele>
        <time>2020-03-14T08:42:35Z</time>
      </trkpt>
      <trkpt lat="43.2769311592" lon="-8.4578682762">
        <ele>157.92</ele>
        <time>2020-03-14T08:42:36Z</time>
      </trkpt>
      <trkpt lat="43.2769633457" lon="-8.4578766581">
        <ele>157.41</ele>
        <time>2020-03-14T08:42:37Z</time>
      </trkpt>
      <trkpt lat="43.2769933529" lon="-8.4578890633">
        <ele>157.04</ele>
        <time>2020-03-14T08:42:38Z</time>
      </trkpt>
      <trkpt lat="43.2770274673" lon="-8.4579003789">
        <ele>156.73</ele>
        <time>2020-03-14T08:42:39Z</time>
      </trkpt>
      <trkpt lat="43.2770648506" lon="-8.4579187352">
        <ele>156.46</ele>
        <time>2020-03-14T08:42:40Z</time>
      </trkpt>
      <trkpt lat="43.2772433013" lon="-8.4580205753">
        <ele>154.52</ele>
        <time>2020-03-14T08:42:44Z</time>
      </trkpt>
      <trkpt lat="43.2773520984" lon="-8.4580581263">
        <ele>153.39</ele>
        <time>2020-03-14T08:42:46Z</time>
      </trkpt>
      <trkpt lat="43.2775003742" lon="-8.4581135307">
        <ele>151.65</ele>
        <time>2020-03-14T08:42:49Z</time>
      </trkpt>
      <trkpt lat="43.2775876299" lon="-8.4581706114">
        <ele>150.33</ele>
        <time>2020-03-14T08:42:51Z</time>
      </trkpt>
      <trkpt lat="43.2776701916" lon="-8.4582511615">
        <ele>149.29</ele>
        <time>2020-03-14T08:42:53Z</time>
      </trkpt>
      <trkpt lat="43.2777089998" lon="-8.4582963400">
        <ele>148.61</ele>
        <time>2020-03-14T08:42:54Z</time>
      </trkpt>
      <trkpt lat="43.2777495682" lon="-8.4583353996">
        <ele>147.97</ele>
        <time>2020-03-14T08:42:55Z</time>
      </trkpt>
      <trkpt lat="43.2778384164" lon="-8.4584116749">
        <ele>147.27</ele>
        <time>2020-03-14T08:42:57Z</time>
      </trkpt>
      <trkpt lat="43.2778868638" lon="-8.4584502317">
        <ele>146.87</ele>
        <time>2020-03-14T08:42:58Z</time>
      </trkpt>
      <trkpt lat="43.2779329643" lon="-8.4584966674">
        <ele>146.63</ele>
        <time>2020-03-14T08:42:59Z</time>
      </trkpt>
      <trkpt lat="43.2781182881" lon="-8.4586813208">
        <ele>145.51</ele>
        <time>2020-03-14T08:43:03Z</time>
      </trkpt>
      <trkpt lat="43.2782959845" lon="-8.4589487873">
        <ele>144.25</ele>
        <time>2020-03-14T08:43:08Z</time>
      </trkpt>
      <trkpt lat="43.2783560827" lon="-8.4590458497">
        <ele>143.49</ele>
        <time>2020-03-14T08:43:10Z</time>
      </trkpt>
      <trkpt lat="43.2783736009" lon="-8.4590975661">
        <ele>143.22</ele>
        <time>2020-03-14T08:43:11Z</time>
      </trkpt>
      <trkpt lat="43.2783805579" lon="-8.4591478575">
        <ele>143.07</ele>
        <time>2020-03-14T08:43:12Z</time>
      </trkpt>
      <trkpt lat="43.2783788815" lon="-8.4591974784">
        <ele>142.84</ele>
        <time>2020-03-14T08:43:13Z</time>
      </trkpt>
      <trkpt lat="43.2783718407" lon="-8.4592493623">
        <ele>142.75</ele>
        <time>2020-03-14T08:43:14Z</time>
      </trkpt>
      <trkpt lat="43.2782606967" lon="-8.4597587306">
        <ele>139.52</ele>
        <time>2020-03-14T08:43:24Z</time>
      </trkpt>
      <trkpt lat="43.2782399096" lon="-8.4599106107">
        <ele>138.76</ele>
        <time>2020-03-14T08:43:27Z</time>
      </trkpt>
      <trkpt lat="43.2782467827" lon="-8.4599717986">
        <ele>138.65</ele>
        <time>2020-03-14T08:43:28Z</time>
      </trkpt>
      <trkpt lat="43.2783646323" lon="-8.4605846833">
        <ele>138.14</ele>
        <time>2020-03-14T08:43:38Z</time>
      </trkpt>
      <trkpt lat="43.2783640455" lon="-8.4606456198">
        <ele>138.07</ele>
        <time>2020-03-14T08:43:39Z</time>
      </trkpt>
      <trkpt lat="43.2783577591" lon="-8.4607067239">
        <ele>138.06</ele>
        <time>2020-03-14T08:43:40Z</time>
      </trkpt>
      <trkpt lat="43.2783468626" lon="-8.4607648943">
        <ele>138.05</ele>
        <time>2020-03-14T08:43:41Z</time>
      </trkpt>
      <trkpt lat="43.2783314399" lon="-8.4608184546">
        <ele>138.05</ele>
        <time>2020-03-14T08:43:42Z</time>
      </trkpt>
      <trkpt lat="43.2783146761" lon="-8.4608690813">
        <ele>138.05</ele>
        <time>2020-03-14T08:43:43Z</time>
      </trkpt>
      <trkpt lat="43.2782015204" lon="-8.4616959561">
        <ele>139.08</ele>
        <time>2020-03-14T08:44:00Z</time>
      </trkpt>
      <trkpt lat="43.2779760472" lon="-8.4619739000">
        <ele>140.19</ele>
        <time>2020-03-14T08:44:11Z</time>
      </trkpt>
      <trkpt lat="43.2775698602" lon="-8.4622970223">
        <ele>140.85</ele>
        <time>2020-03-14T08:44:21Z</time>
      </trkpt>
      <trkpt lat="43.2775369193" lon="-8.4623449668">
        <ele>140.85</ele>
        <time>2020-03-14T08:44:22Z</time>
      </trkpt>
      <trkpt lat="43.2775142044" lon="-8.4624035563">
        <ele>140.85</ele>
        <time>2020-03-14T08:44:23Z</time>
      </trkpt>
      <trkpt lat="43.2774967700" lon="-8.4624717012">
        <ele>140.80</ele>
        <time>2020-03-14T08:44:24Z</time>
      </trkpt>
      <trkpt lat="43.2774800062" lon="-8.4625457972">
        <ele>140.66</ele>
        <time>2020-03-14T08:44:25Z</time>
      </trkpt>
      <trkpt lat="43.2774444669" lon="-8.4626927320">
        <ele>139.86</ele>
        <time>2020-03-14T08:44:27Z</time>
      </trkpt>
      <trkpt lat="43.2774132024" lon="-8.4627549257">
        <ele>139.86</ele>
        <time>2020-03-14T08:44:28Z</time>
      </trkpt>
      <trkpt lat="43.2773394417" lon="-8.4628658183">
        <ele>139.04</ele>
        <time>2020-03-14T08:44:30Z</time>
      </trkpt>
      <trkpt lat="43.2773134578" lon="-8.4629263356">
        <ele>138.73</ele>
        <time>2020-03-14T08:44:31Z</time>
      </trkpt>
      <trkpt lat="43.2772703748" lon="-8.4630417544">
        <ele>137.89</ele>
        <time>2020-03-14T08:44:33Z</time>
      </trkpt>
      <trkpt lat="43.2772429660" lon="-8.4630893636">
        <ele>137.34</ele>
        <time>2020-03-14T08:44:34Z</time>
      </trkpt>
      <trkpt lat="43.2771754079" lon="-8.4635376278">
        <ele>136.14</ele>
        <time>2020-03-14T08:44:45Z</time>
      </trkpt>
      <trkpt lat="43.2773517631" lon="-8.4639062639">
        <ele>136.78</ele>
        <time>2020-03-14T08:44:55Z</time>
      </trkpt>
      <trkpt lat="43.2776172180" lon="-8.4642722178">
        <ele>136.80</ele>
        <time>2020-03-14T08:45:02Z</time>
      </trkpt>
      <trkpt lat="43.2781023625" lon="-8.4647706058">
        <ele>134.62</ele>
        <time>2020-03-14T08:45:11Z</time>
      </trkpt>
      <trkpt lat="43.2783044502" lon="-8.4650784731">
        <ele>131.95</ele>
        <time>2020-03-14T08:45:16Z</time>
      </trkpt>
      <trkpt lat="43.2783306018" lon="-8.4651606157">
        <ele>131.50</ele>
        <time>2020-03-14T08:45:17Z</time>
      </trkpt>
      <trkpt lat="43.2783850841" lon="-8.4653109871">
        <ele>130.78</ele>
        <time>2020-03-14T08:45:19Z</time>
      </trkpt>
      <trkpt lat="43.2787921932" lon="-8.4662487544">
        <ele>128.16</ele>
        <time>2020-03-14T08:45:30Z</time>
      </trkpt>
      <trkpt lat="43.2788510341" lon="-8.4664110281">
        <ele>127.06</ele>
        <time>2020-03-14T08:45:32Z</time>
      </trkpt>
      <trkpt lat="43.2789106295" lon="-8.4665328171">
        <ele>126.25</ele>
        <time>2020-03-14T08:45:34Z</time>
      </trkpt>
      <trkpt lat="43.2789515331" lon="-8.4665821865">
        <ele>126.11</ele>
        <time>2020-03-14T08:45:35Z</time>
      </trkpt>
      <trkpt lat="43.2789946999" lon="-8.4666275326">
        <ele>126.03</ele>
        <time>2020-03-14T08:45:36Z</time>
      </trkpt>
      <trkpt lat="43.2790375315" lon="-8.4666745551">
        <ele>126.00</ele>
        <time>2020-03-14T08:45:37Z</time>
      </trkpt>
      <trkpt lat="43.2790778484" lon="-8.4667237569">
        <ele>125.98</ele>
        <time>2020-03-14T08:45:38Z</time>
      </trkpt>
      <trkpt lat="43.2791247033" lon="-8.4667708632">
        <ele>125.97</ele>
        <time>2020-03-14T08:45:39Z</time>
      </trkpt>
      <trkpt lat="43.2791600749" lon="-8.4668310452">
        <ele>125.97</ele>
        <time>2020-03-14T08:45:40Z</time>
      </trkpt>
      <trkpt lat="43.2792008109" lon="-8.4668890480">
        <ele>125.97</ele>
        <time>2020-03-14T08:45:41Z</time>
      </trkpt>
      <trkpt lat="43.2794484124" lon="-8.4672353882">
        <ele>125.88</ele>
        <time>2020-03-14T08:45:47Z</time>
      </trkpt>
      <trkpt lat="43.2794905733" lon="-8.4672917146">
        <ele>125.88</ele>
        <time>2020-03-14T08:45:48Z</time>
      </trkpt>
      <trkpt lat="43.2798786554" lon="-8.4677323513">
        <ele>125.27</ele>
        <time>2020-03-14T08:45:58Z</time>
      </trkpt>
      <trkpt lat="43.2800219022" lon="-8.4678993188">
        <ele>125.30</ele>
        <time>2020-03-14T08:46:02Z</time>
      </trkpt>
      <trkpt lat="43.2800503168" lon="-8.4679522086">
        <ele>125.45</ele>
        <time>2020-03-14T08:46:03Z</time>
      </trkpt>
      <trkpt lat="43.2800794858" lon="-8.4680054337">
        <ele>125.62</ele>
        <time>2020-03-14T08:46:04Z</time>
      </trkpt>
      <trkpt lat="43.2801060565" lon="-8.4680589102">
        <ele>125.74</ele>
        <time>2020-03-14T08:46:05Z</time>
      </trkpt>
      <trkpt lat="43.2801269274" lon="-8.4681152366">
        <ele>125.83</ele>
        <time>2020-03-14T08:46:06Z</time>
      </trkpt>
      <trkpt lat="43.2801374886" lon="-8.4681698866">
        <ele>125.89</ele>
        <time>2020-03-14T08:46:07Z</time>
      </trkpt>
      <trkpt lat="43.2801382430" lon="-8.4682267159">
        <ele>125.98</ele>
        <time>2020-03-14T08:46:08Z</time>
      </trkpt>
      <trkpt lat="43.2801319566" lon="-8.4682868142">
        <ele>126.05</ele>
        <time>2020-03-14T08:46:09Z</time>
      </trkpt>
      <trkpt lat="43.2801228203" lon="-8.4683442302">
        <ele>126.05</ele>
        <time>2020-03-14T08:46:10Z</time>
      </trkpt>
      <trkpt lat="43.2801429369" lon="-8.4686203301">
        <ele>126.14</ele>
        <time>2020-03-14T08:46:15Z</time>
      </trkpt>
      <trkpt lat="43.2801609579" lon="-8.4686699510">
        <ele>126.15</ele>
        <time>2020-03-14T08:46:16Z</time>
      </trkpt>
      <trkpt lat="43.2804262452" lon="-8.4689633176">
        <ele>127.39</ele>
        <time>2020-03-14T08:46:25Z</time>
      </trkpt>
      <trkpt lat="43.2804631256" lon="-8.4689913969">
        <ele>127.59</ele>
        <time>2020-03-14T08:46:26Z</time>
      </trkpt>
      <trkpt lat="43.2805445138" lon="-8.4690429457">
        <ele>127.97</ele>
        <time>2020-03-14T08:46:28Z</time>
      </trkpt>
      <trkpt lat="43.2806372177" lon="-8.4690919798">
        <ele>128.08</ele>
        <time>2020-03-14T08:46:30Z</time>
      </trkpt>
      <trkpt lat="43.2806820609" lon="-8.4691265970">
        <ele>128.10</ele>
        <time>2020-03-14T08:46:31Z</time>
      </trkpt>
      <trkpt lat="43.2807150856" lon="-8.4691650700">
        <ele>128.11</ele>
        <time>2020-03-14T08:46:32Z</time>
      </trkpt>
      <trkpt lat="43.2807416562" lon="-8.4692049678">
        <ele>128.11</ele>
        <time>2020-03-14T08:46:33Z</time>
      </trkpt>
      <trkpt lat="43.2807662990" lon="-8.4692486376">
        <ele>128.11</ele>
        <time>2020-03-14T08:46:34Z</time>
      </trkpt>
      <trkpt lat="43.2807996590" lon="-8.4692962468">
        <ele>128.11</ele>
        <time>2020-03-14T08:46:35Z</time>
      </trkpt>
      <trkpt lat="43.2808361202" lon="-8.4693530761">
        <ele>128.11</ele>
        <time>2020-03-14T08:46:36Z</time>
      </trkpt>
      <trkpt lat="43.2808759343" lon="-8.4694135934">
        <ele>127.98</ele>
        <time>2020-03-14T08:46:37Z</time>
      </trkpt>
      <trkpt lat="43.2809256390" lon="-8.4694700874">
        <ele>127.94</ele>
        <time>2020-03-14T08:46:38Z</time>
      </trkpt>
      <trkpt lat="43.2809740026" lon="-8.4695259109">
        <ele>127.91</ele>
        <time>2020-03-14T08:46:39Z</time>
      </trkpt>
      <trkpt lat="43.2815530244" lon="-8.4701455850">
        <ele>124.90</ele>
        <time>2020-03-14T08:46:50Z</time>
      </trkpt>
      <trkpt lat="43.2815940119" lon="-8.4702308290">
        <ele>124.62</ele>
        <time>2020-03-14T08:46:51Z</time>
      </trkpt>
      <trkpt lat="43.2816293836" lon="-8.4703219403">
        <ele>124.33</ele>
        <time>2020-03-14T08:46:52Z</time>
      </trkpt>
      <trkpt lat="43.2818151265" lon="-8.4709702805">
        <ele>122.00</ele>
        <time>2020-03-14T08:47:01Z</time>
      </trkpt>
      <trkpt lat="43.2818427030" lon="-8.4711651597">
        <ele>121.99</ele>
        <time>2020-03-14T08:47:04Z</time>
      </trkpt>
      <trkpt lat="43.2818529289" lon="-8.4712300356">
        <ele>122.06</ele>
        <time>2020-03-14T08:47:05Z</time>
      </trkpt>
      <trkpt lat="43.2818527613" lon="-8.4712888766">
        <ele>122.11</ele>
        <time>2020-03-14T08:47:06Z</time>
      </trkpt>
      <trkpt lat="43.2818447985" lon="-8.4713487234">
        <ele>122.15</ele>
        <time>2020-03-14T08:47:07Z</time>
      </trkpt>
      <trkpt lat="43.2818340696" lon="-8.4714120906">
        <ele>122.17</ele>
        <time>2020-03-14T08:47:08Z</time>
      </trkpt>
      <trkpt lat="43.2818534318" lon="-8.4714802355">
        <ele>122.18</ele>
        <time>2020-03-14T08:47:09Z</time>
      </trkpt>
      <trkpt lat="43.2818889711" lon="-8.4715417586">
        <ele>122.19</ele>
        <time>2020-03-14T08:47:10Z</time>
      </trkpt>
      <trkpt lat="43.2819938287" lon="-8.4716959018">
        <ele>122.19</ele>
        <time>2020-03-14T08:47:12Z</time>
      </trkpt>
      <trkpt lat="43.2820623927" lon="-8.4717644658">
        <ele>122.19</ele>
        <time>2020-03-14T08:47:13Z</time>
      </trkpt>
      <trkpt lat="43.2825959846" lon="-8.4724189248">
        <ele>118.50</ele>
        <time>2020-03-14T08:47:21Z</time>
      </trkpt>
      <trkpt lat="43.2827682327" lon="-8.4727073461">
        <ele>114.49</ele>
        <time>2020-03-14T08:47:24Z</time>
      </trkpt>
      <trkpt lat="43.2829199452" lon="-8.4730023891">
        <ele>111.80</ele>
        <time>2020-03-14T08:47:27Z</time>
      </trkpt>
      <trkpt lat="43.2829602621" lon="-8.4731096774">
        <ele>111.33</ele>
        <time>2020-03-14T08:47:28Z</time>
      </trkpt>
      <trkpt lat="43.2830328494" lon="-8.4733156208">
        <ele>110.27</ele>
        <time>2020-03-14T08:47:30Z</time>
      </trkpt>
      <trkpt lat="43.2833631802" lon="-8.4740369674">
        <ele>107.31</ele>
        <time>2020-03-14T08:47:37Z</time>
      </trkpt>
      <trkpt lat="43.2834214345" lon="-8.4742359538">
        <ele>106.86</ele>
        <time>2020-03-14T08:47:39Z</time>
      </trkpt>
      <trkpt lat="43.2834630925" lon="-8.4743224550">
        <ele>106.75</ele>
        <time>2020-03-14T08:47:40Z</time>
      </trkpt>
      <trkpt lat="43.2835062593" lon="-8.4743885882">
        <ele>106.31</ele>
        <time>2020-03-14T08:47:41Z</time>
      </trkpt>
      <trkpt lat="43.2835532818" lon="-8.4744376224">
        <ele>105.72</ele>
        <time>2020-03-14T08:47:42Z</time>
      </trkpt>
      <trkpt lat="43.2835996337" lon="-8.4744839743">
        <ele>105.12</ele>
        <time>2020-03-14T08:47:43Z</time>
      </trkpt>
      <trkpt lat="43.2837036531" lon="-8.4745594114">
        <ele>103.42</ele>
        <time>2020-03-14T08:47:45Z</time>
      </trkpt>
      <trkpt lat="43.2838440500" lon="-8.4746116307">
        <ele>101.74</ele>
        <time>2020-03-14T08:47:47Z</time>
      </trkpt>
      <trkpt lat="43.2840363309" lon="-8.4746563062">
        <ele>100.27</ele>
        <time>2020-03-14T08:47:49Z</time>
      </trkpt>
      <trkpt lat="43.2843665779" lon="-8.4747059271">
        <ele>98.35</ele>
        <time>2020-03-14T08:47:52Z</time>
      </trkpt>
      <trkpt lat="43.2846673205" lon="-8.4748198371">
        <ele>94.48</ele>
        <time>2020-03-14T08:47:55Z</time>
      </trkpt>
      <trkpt lat="43.2847576775" lon="-8.4748477489">
        <ele>92.84</ele>
        <time>2020-03-14T08:47:56Z</time>
      </trkpt>
      <trkpt lat="43.2848497946" lon="-8.4748541191">
        <ele>91.25</ele>
        <time>2020-03-14T08:47:57Z</time>
      </trkpt>
      <trkpt lat="43.2849363796" lon="-8.4748391155">
        <ele>89.63</ele>
        <time>2020-03-14T08:47:58Z</time>
      </trkpt>
      <trkpt lat="43.2850327715" lon="-8.4748049174">
        <ele>87.83</ele>
        <time>2020-03-14T08:47:59Z</time>
      </trkpt>
      <trkpt lat="43.2851305045" lon="-8.4747703001">
        <ele>86.24</ele>
        <time>2020-03-14T08:48:00Z</time>
      </trkpt>
      <trkpt lat="43.2852265611" lon="-8.4747586492">
        <ele>85.18</ele>
        <time>2020-03-14T08:48:01Z</time>
      </trkpt>
      <trkpt lat="43.2853216119" lon="-8.4747776762">
        <ele>84.33</ele>
        <time>2020-03-14T08:48:02Z</time>
      </trkpt>
      <trkpt lat="43.2854131423" lon="-8.4748180769">
        <ele>83.69</ele>
        <time>2020-03-14T08:48:03Z</time>
      </trkpt>
      <trkpt lat="43.2854993083" lon="-8.4748707153">
        <ele>83.19</ele>
        <time>2020-03-14T08:48:04Z</time>
      </trkpt>
      <trkpt lat="43.2855780143" lon="-8.4749312326">
        <ele>82.72</ele>
        <time>2020-03-14T08:48:05Z</time>
      </trkpt>
      <trkpt lat="43.2856518589" lon="-8.4749942645">
        <ele>82.32</ele>
        <time>2020-03-14T08:48:06Z</time>
      </trkpt>
      <trkpt lat="43.2859151345" lon="-8.4752440453">
        <ele>79.00</ele>
        <time>2020-03-14T08:48:10Z</time>
      </trkpt>
      <trkpt lat="43.2860228419" lon="-8.4753806703">
        <ele>78.38</ele>
        <time>2020-03-14T08:48:12Z</time>
      </trkpt>
      <trkpt lat="43.2863343135" lon="-8.4758423455">
        <ele>77.92</ele>
        <time>2020-03-14T08:48:19Z</time>
      </trkpt>
      <trkpt lat="43.2863836829" lon="-8.4758864343">
        <ele>77.92</ele>
        <time>2020-03-14T08:48:20Z</time>
      </trkpt>
      <trkpt lat="43.2864322141" lon="-8.4759285953">
        <ele>77.92</ele>
        <time>2020-03-14T08:48:21Z</time>
      </trkpt>
      <trkpt lat="43.2864753809" lon="-8.4759710077">
        <ele>77.92</ele>
        <time>2020-03-14T08:48:22Z</time>
      </trkpt>
      <trkpt lat="43.2865146082" lon="-8.4760191198">
        <ele>77.92</ele>
        <time>2020-03-14T08:48:23Z</time>
      </trkpt>
      <trkpt lat="43.2865554281" lon="-8.4760648850">
        <ele>77.95</ele>
        <time>2020-03-14T08:48:24Z</time>
      </trkpt>
      <trkpt lat="43.2865983434" lon="-8.4761027712">
        <ele>77.96</ele>
        <time>2020-03-14T08:48:25Z</time>
      </trkpt>
      <trkpt lat="43.2866407558" lon="-8.4761404060">
        <ele>77.97</ele>
        <time>2020-03-14T08:48:26Z</time>
      </trkpt>
      <trkpt lat="43.2870754413" lon="-8.4767296538">
        <ele>78.05</ele>
        <time>2020-03-14T08:48:38Z</time>
      </trkpt>
      <trkpt lat="43.2873610128" lon="-8.4771457314">
        <ele>78.23</ele>
        <time>2020-03-14T08:48:47Z</time>
      </trkpt>
      <trkpt lat="43.2876939420" lon="-8.4775196481">
        <ele>79.01</ele>
        <time>2020-03-14T08:48:57Z</time>
      </trkpt>
      <trkpt lat="43.2878710516" lon="-8.4776501544">
        <ele>79.57</ele>
        <time>2020-03-14T08:49:07Z</time>
      </trkpt>
      <trkpt lat="43.2879074290" lon="-8.4776353184">
        <ele>80.78</ele>
        <time>2020-03-14T08:49:15Z</time>
      </trkpt>
      <trkpt lat="43.2879267074" lon="-8.4776351508">
        <ele>80.84</ele>
        <time>2020-03-14T08:49:16Z</time>
      </trkpt>
      <trkpt lat="43.2879319880" lon="-8.4776539262">
        <ele>80.87</ele>
        <time>2020-03-14T08:49:17Z</time>
      </trkpt>
      <trkpt lat="43.2878868096" lon="-8.4776843525">
        <ele>80.95</ele>
        <time>2020-03-14T08:49:19Z</time>
      </trkpt>
      <trkpt lat="43.2878600713" lon="-8.4776996076">
        <ele>80.98</ele>
        <time>2020-03-14T08:49:20Z</time>
      </trkpt>
      <trkpt lat="43.2878298964" lon="-8.4777234960">
        <ele>80.99</ele>
        <time>2020-03-14T08:49:21Z</time>
      </trkpt>
      <trkpt lat="43.2877983805" lon="-8.4777572751">
        <ele>81.00</ele>
        <time>2020-03-14T08:49:22Z</time>
      </trkpt>
      <trkpt lat="43.2877720613" lon="-8.4777939878">
        <ele>81.00</ele>
        <time>2020-03-14T08:49:23Z</time>
      </trkpt>
      <trkpt lat="43.2877474185" lon="-8.4778322931">
        <ele>81.00</ele>
        <time>2020-03-14T08:49:24Z</time>
      </trkpt>
      <trkpt lat="43.2877201773" lon="-8.4778669942">
        <ele>81.00</ele>
        <time>2020-03-14T08:49:25Z</time>
      </trkpt>
      <trkpt lat="43.2876874879" lon="-8.4779079817">
        <ele>81.00</ele>
        <time>2020-03-14T08:49:26Z</time>
      </trkpt>
      <trkpt lat="43.2876544632" lon="-8.4779550880">
        <ele>81.00</ele>
        <time>2020-03-14T08:49:27Z</time>
      </trkpt>
      <trkpt lat="43.2875896711" lon="-8.4780379012">
        <ele>80.96</ele>
        <time>2020-03-14T08:49:29Z</time>
      </trkpt>
      <trkpt lat="43.2874341030" lon="-8.4782063775">
        <ele>80.53</ele>
        <time>2020-03-14T08:49:33Z</time>
      </trkpt>
      <trkpt lat="43.2873870805" lon="-8.4782404080">
        <ele>80.53</ele>
        <time>2020-03-14T08:49:34Z</time>
      </trkpt>
      <trkpt lat="43.2873398904" lon="-8.4782640450">
        <ele>80.38</ele>
        <time>2020-03-14T08:49:35Z</time>
      </trkpt>
      <trkpt lat="43.2872817200" lon="-8.4782789648">
        <ele>80.29</ele>
        <time>2020-03-14T08:49:36Z</time>
      </trkpt>
      <trkpt lat="43.2872217894" lon="-8.4782855865">
        <ele>80.21</ele>
        <time>2020-03-14T08:49:37Z</time>
      </trkpt>
      <trkpt lat="43.2870982401" lon="-8.4782975726">
        <ele>79.96</ele>
        <time>2020-03-14T08:49:39Z</time>
      </trkpt>
      <trkpt lat="43.2870461047" lon="-8.4783274122">
        <ele>79.88</ele>
        <time>2020-03-14T08:49:40Z</time>
      </trkpt>
      <trkpt lat="43.2869967353" lon="-8.4783553239">
        <ele>79.74</ele>
        <time>2020-03-14T08:49:41Z</time>
      </trkpt>
      <trkpt lat="43.2869464438" lon="-8.4783855826">
        <ele>79.64</ele>
        <time>2020-03-14T08:49:42Z</time>
      </trkpt>
      <trkpt lat="43.2868988346" lon="-8.4784194455">
        <ele>79.45</ele>
        <time>2020-03-14T08:49:43Z</time>
      </trkpt>
      <trkpt lat="43.2867622096" lon="-8.4785294998">
        <ele>79.13</ele>
        <time>2020-03-14T08:49:46Z</time>
      </trkpt>
      <trkpt lat="43.2867254969" lon="-8.4785675537">
        <ele>79.04</ele>
        <time>2020-03-14T08:49:47Z</time>
      </trkpt>
      <trkpt lat="43.2866206393" lon="-8.4786339384">
        <ele>78.83</ele>
        <time>2020-03-14T08:49:50Z</time>
      </trkpt>
      <trkpt lat="43.2863836829" lon="-8.4786678012">
        <ele>78.34</ele>
        <time>2020-03-14T08:49:55Z</time>
      </trkpt>
      <trkpt lat="43.2863341458" lon="-8.4786650352">
        <ele>78.31</ele>
        <time>2020-03-14T08:49:56Z</time>
      </trkpt>
      <trkpt lat="43.2862796634" lon="-8.4786574915">
        <ele>78.27</ele>
        <time>2020-03-14T08:49:57Z</time>
      </trkpt>
      <trkpt lat="43.2862233371" lon="-8.4786351118">
        <ele>78.25</ele>
        <time>2020-03-14T08:49:58Z</time>
      </trkpt>
      <trkpt lat="43.2861701120" lon="-8.4786042664">
        <ele>78.23</ele>
        <time>2020-03-14T08:49:59Z</time>
      </trkpt>
      <trkpt lat="43.2860569563" lon="-8.4785490297">
        <ele>78.13</ele>
        <time>2020-03-14T08:50:01Z</time>
      </trkpt>
      <trkpt lat="43.2859999593" lon="-8.4785353672">
        <ele>78.09</ele>
        <time>2020-03-14T08:50:02Z</time>
      </trkpt>
      <trkpt lat="43.2859453093" lon="-8.4785397258">
        <ele>78.03</ele>
        <time>2020-03-14T08:50:03Z</time>
      </trkpt>
      <trkpt lat="43.2858899888" lon="-8.4785687272">
        <ele>77.97</ele>
        <time>2020-03-14T08:50:04Z</time>
      </trkpt>
      <trkpt lat="43.2858417928" lon="-8.4786168393">
        <ele>77.88</ele>
        <time>2020-03-14T08:50:05Z</time>
      </trkpt>
      <trkpt lat="43.2858034875" lon="-8.4786864929">
        <ele>77.73</ele>
        <time>2020-03-14T08:50:06Z</time>
      </trkpt>
      <trkpt lat="43.2857728936" lon="-8.4787690546">
        <ele>77.48</ele>
        <time>2020-03-14T08:50:07Z</time>
      </trkpt>
      <trkpt lat="43.2857450657" lon="-8.4788669553">
        <ele>77.07</ele>
        <time>2020-03-14T08:50:08Z</time>
      </trkpt>
      <trkpt lat="43.2857105322" lon="-8.4789628442">
        <ele>76.51</ele>
        <time>2020-03-14T08:50:09Z</time>
      </trkpt>
      <trkpt lat="43.2856659405" lon="-8.4790532012">
        <ele>76.01</ele>
        <time>2020-03-14T08:50:10Z</time>
      </trkpt>
      <trkpt lat="43.2856151462" lon="-8.4791330807">
        <ele>75.48</ele>
        <time>2020-03-14T08:50:11Z</time>
      </trkpt>
      <trkpt lat="43.2855449058" lon="-8.4791995492">
        <ele>75.05</ele>
        <time>2020-03-14T08:50:12Z</time>
      </trkpt>
      <trkpt lat="43.2854781020" lon="-8.4792645928">
        <ele>74.66</ele>
        <time>2020-03-14T08:50:13Z</time>
      </trkpt>
      <trkpt lat="43.2854198478" lon="-8.4793292172">
        <ele>74.29</ele>
        <time>2020-03-14T08:50:14Z</time>
      </trkpt>
      <trkpt lat="43.2852406427" lon="-8.4795626532">
        <ele>71.26</ele>
        <time>2020-03-14T08:50:18Z</time>
      </trkpt>
      <trkpt lat="43.2851619367" lon="-8.4796528425">
        <ele>70.11</ele>
        <time>2020-03-14T08:50:20Z</time>
      </trkpt>
      <trkpt lat="43.2847426739" lon="-8.4800166171">
        <ele>71.26</ele>
        <time>2020-03-14T08:50:33Z</time>
      </trkpt>
      <trkpt lat="43.2844814099" lon="-8.4804611932">
        <ele>74.29</ele>
        <time>2020-03-14T08:50:46Z</time>
      </trkpt>
      <trkpt lat="43.2842273545" lon="-8.4808602557">
        <ele>77.39</ele>
        <time>2020-03-14T08:50:59Z</time>
      </trkpt>
      <trkpt lat="43.2839639951" lon="-8.4811806958">
        <ele>78.40</ele>
        <time>2020-03-14T08:51:07Z</time>
      </trkpt>
      <trkpt lat="43.2837970275" lon="-8.4812978748">
        <ele>78.39</ele>
        <time>2020-03-14T08:51:11Z</time>
      </trkpt>
      <trkpt lat="43.2836707123" lon="-8.4813735634">
        <ele>77.91</ele>
        <time>2020-03-14T08:51:14Z</time>
      </trkpt>
      <trkpt lat="43.2835060917" lon="-8.4814394452">
        <ele>77.40</ele>
        <time>2020-03-14T08:51:17Z</time>
      </trkpt>
      <trkpt lat="43.2828475256" lon="-8.4814951848">
        <ele>75.28</ele>
        <time>2020-03-14T08:51:27Z</time>
      </trkpt>
      <trkpt lat="43.2827786263" lon="-8.4814981185">
        <ele>74.83</ele>
        <time>2020-03-14T08:51:28Z</time>
      </trkpt>
      <trkpt lat="43.2823691703" lon="-8.4815137088">
        <ele>72.81</ele>
        <time>2020-03-14T08:51:34Z</time>
      </trkpt>
      <trkpt lat="43.2822982594" lon="-8.4815129545">
        <ele>72.54</ele>
        <time>2020-03-14T08:51:35Z</time>
      </trkpt>
      <trkpt lat="43.2821344770" lon="-8.4815091826">
        <ele>72.15</ele>
        <time>2020-03-14T08:51:37Z</time>
      </trkpt>
      <trkpt lat="43.2820490655" lon="-8.4814940114">
        <ele>71.94</ele>
        <time>2020-03-14T08:51:38Z</time>
      </trkpt>
      <trkpt lat="43.2819660008" lon="-8.4815042373">
        <ele>71.65</ele>
        <time>2020-03-14T08:51:39Z</time>
      </trkpt>
      <trkpt lat="43.2818073314" lon="-8.4815176483">
        <ele>71.04</ele>
        <time>2020-03-14T08:51:41Z</time>
      </trkpt>
      <trkpt lat="43.2817240991" lon="-8.4815064166">
        <ele>70.63</ele>
        <time>2020-03-14T08:51:42Z</time>
      </trkpt>
      <trkpt lat="43.2816476561" lon="-8.4814919997">
        <ele>69.56</ele>
        <time>2020-03-14T08:51:43Z</time>
      </trkpt>
      <trkpt lat="43.2815684471" lon="-8.4814692847">
        <ele>68.98</ele>
        <time>2020-03-14T08:51:44Z</time>
      </trkpt>
      <trkpt lat="43.2814987097" lon="-8.4814339131">
        <ele>68.48</ele>
        <time>2020-03-14T08:51:45Z</time>
      </trkpt>
      <trkpt lat="43.2814285532" lon="-8.4813909978">
        <ele>68.11</ele>
        <time>2020-03-14T08:51:46Z</time>
      </trkpt>
      <trkpt lat="43.2812880725" lon="-8.4813061729">
        <ele>67.18</ele>
        <time>2020-03-14T08:51:48Z</time>
      </trkpt>
      <trkpt lat="43.2810883317" lon="-8.4812329989">
        <ele>65.77</ele>
        <time>2020-03-14T08:51:51Z</time>
      </trkpt>
      <trkpt lat="43.2810258865" lon="-8.4812302329">
        <ele>65.32</ele>
        <time>2020-03-14T08:51:52Z</time>
      </trkpt>
      <trkpt lat="43.2809672132" lon="-8.4812499303">
        <ele>64.91</ele>
        <time>2020-03-14T08:51:53Z</time>
      </trkpt>
      <trkpt lat="43.2809071150" lon="-8.4812918399">
        <ele>64.54</ele>
        <time>2020-03-14T08:51:54Z</time>
      </trkpt>
      <trkpt lat="43.2808536384" lon="-8.4813487530">
        <ele>64.04</ele>
        <time>2020-03-14T08:51:55Z</time>
      </trkpt>
      <trkpt lat="43.2808070350" lon="-8.4814091865">
        <ele>63.59</ele>
        <time>2020-03-14T08:51:56Z</time>
      </trkpt>
      <trkpt lat="43.2807498705" lon="-8.4814504255">
        <ele>63.27</ele>
        <time>2020-03-14T08:51:57Z</time>
      </trkpt>
      <trkpt lat="43.2806858327" lon="-8.4814737272">
        <ele>63.00</ele>
        <time>2020-03-14T08:51:58Z</time>
      </trkpt>
      <trkpt lat="43.2806181908" lon="-8.4814756550">
        <ele>62.86</ele>
        <time>2020-03-14T08:51:59Z</time>
      </trkpt>
      <trkpt lat="43.2805577572" lon="-8.4814622439">
        <ele>62.60</ele>
        <time>2020-03-14T08:52:00Z</time>
      </trkpt>
      <trkpt lat="43.2804957312" lon="-8.4814285487">
        <ele>62.37</ele>
        <time>2020-03-14T08:52:01Z</time>
      </trkpt>
      <trkpt lat="43.2804309390" lon="-8.4813898243">
        <ele>62.04</ele>
        <time>2020-03-14T08:52:02Z</time>
      </trkpt>
      <trkpt lat="43.2800142746" lon="-8.4812526125">
        <ele>59.85</ele>
        <time>2020-03-14T08:52:08Z</time>
      </trkpt>
      <trkpt lat="43.2799674198" lon="-8.4812723100">
        <ele>59.59</ele>
        <time>2020-03-14T08:52:09Z</time>
      </trkpt>
      <trkpt lat="43.2799204811" lon="-8.4813181590">
        <ele>59.39</ele>
        <time>2020-03-14T08:52:10Z</time>
      </trkpt>
      <trkpt lat="43.2798733748" lon="-8.4813835379">
        <ele>59.00</ele>
        <time>2020-03-14T08:52:11Z</time>
      </trkpt>
      <trkpt lat="43.2798251789" lon="-8.4814574663">
        <ele>58.38</ele>
        <time>2020-03-14T08:52:12Z</time>
      </trkpt>
      <trkpt lat="43.2797724567" lon="-8.4815238509">
        <ele>57.57</ele>
        <time>2020-03-14T08:52:13Z</time>
      </trkpt>
      <trkpt lat="43.2797114365" lon="-8.4815897327">
        <ele>56.80</ele>
        <time>2020-03-14T08:52:14Z</time>
      </trkpt>
      <trkpt lat="43.2796419505" lon="-8.4816462267">
        <ele>56.21</ele>
        <time>2020-03-14T08:52:15Z</time>
      </trkpt>
      <trkpt lat="43.2795674354" lon="-8.4816936683">
        <ele>55.76</ele>
        <time>2020-03-14T08:52:16Z</time>
      </trkpt>
      <trkpt lat="43.2794924174" lon="-8.4817354940">
        <ele>55.44</ele>
        <time>2020-03-14T08:52:17Z</time>
      </trkpt>
      <trkpt lat="43.2792200055" lon="-8.4818838537">
        <ele>52.02</ele>
        <time>2020-03-14T08:52:23Z</time>
      </trkpt>
      <trkpt lat="43.2790119667" lon="-8.4823139291">
        <ele>48.94</ele>
        <time>2020-03-14T08:52:31Z</time>
      </trkpt>
      <trkpt lat="43.2785785384" lon="-8.4830810409">
        <ele>45.75</ele>
        <time>2020-03-14T08:52:42Z</time>
      </trkpt>
      <trkpt lat="43.2785067894" lon="-8.4832288139">
        <ele>45.09</ele>
        <time>2020-03-14T08:52:44Z</time>
      </trkpt>
      <trkpt lat="43.2784801349" lon="-8.4833063465">
        <ele>44.75</ele>
        <time>2020-03-14T08:52:45Z</time>
      </trkpt>
      <trkpt lat="43.2784611918" lon="-8.4833858907">
        <ele>44.48</ele>
        <time>2020-03-14T08:52:46Z</time>
      </trkpt>
      <trkpt lat="43.2784486189" lon="-8.4834645130">
        <ele>44.16</ele>
        <time>2020-03-14T08:52:47Z</time>
      </trkpt>
      <trkpt lat="43.2784434222" lon="-8.4835422970">
        <ele>43.88</ele>
        <time>2020-03-14T08:52:48Z</time>
      </trkpt>
      <trkpt lat="43.2784461882" lon="-8.4836184885">
        <ele>43.63</ele>
        <time>2020-03-14T08:52:49Z</time>
      </trkpt>
      <trkpt lat="43.2784530614" lon="-8.4836915787">
        <ele>43.39</ele>
        <time>2020-03-14T08:52:50Z</time>
      </trkpt>
      <trkpt lat="43.2785260677" lon="-8.4841602948">
        <ele>43.16</ele>
        <time>2020-03-14T08:52:58Z</time>
      </trkpt>
      <trkpt lat="43.2785588410" lon="-8.4841892123">
        <ele>43.21</ele>
        <time>2020-03-14T08:52:59Z</time>
      </trkpt>
      <trkpt lat="43.2785938773" lon="-8.4842116758">
        <ele>43.28</ele>
        <time>2020-03-14T08:53:00Z</time>
      </trkpt>
      <trkpt lat="43.2789462525" lon="-8.4844706766">
        <ele>44.90</ele>
        <time>2020-03-14T08:53:10Z</time>
      </trkpt>
      <trkpt lat="43.2789796963" lon="-8.4844998457">
        <ele>44.98</ele>
        <time>2020-03-14T08:53:11Z</time>
      </trkpt>
      <trkpt lat="43.2790141460" lon="-8.4845275059">
        <ele>45.10</ele>
        <time>2020-03-14T08:53:12Z</time>
      </trkpt>
      <trkpt lat="43.2790479250" lon="-8.4845500533">
        <ele>45.18</ele>
        <time>2020-03-14T08:53:13Z</time>
      </trkpt>
      <trkpt lat="43.2790782675" lon="-8.4845703375">
        <ele>45.24</ele>
        <time>2020-03-14T08:53:14Z</time>
      </trkpt>
      <trkpt lat="43.2793466561" lon="-8.4847390652">
        <ele>46.43</ele>
        <time>2020-03-14T08:53:23Z</time>
      </trkpt>
      <trkpt lat="43.2794272900" lon="-8.4847653843">
        <ele>46.97</ele>
        <time>2020-03-14T08:53:25Z</time>
      </trkpt>
      <trkpt lat="43.2794720493" lon="-8.4847765323">
        <ele>47.18</ele>
        <time>2020-03-14T08:53:26Z</time>
      </trkpt>
      <trkpt lat="43.2796088420" lon="-8.4848165978">
        <ele>47.38</ele>
        <time>2020-03-14T08:53:29Z</time>
      </trkpt>
      <trkpt lat="43.2796474826" lon="-8.4848471079">
        <ele>47.39</ele>
        <time>2020-03-14T08:53:30Z</time>
      </trkpt>
      <trkpt lat="43.2796857879" lon="-8.4848833177">
        <ele>47.39</ele>
        <time>2020-03-14T08:53:31Z</time>
      </trkpt>
      <trkpt lat="43.2799778134" lon="-8.4852315020">
        <ele>47.16</ele>
        <time>2020-03-14T08:53:39Z</time>
      </trkpt>
      <trkpt lat="43.2800205611" lon="-8.4852719028">
        <ele>47.13</ele>
        <time>2020-03-14T08:53:40Z</time>
      </trkpt>
      <trkpt lat="43.2800672483" lon="-8.4853071906">
        <ele>47.07</ele>
        <time>2020-03-14T08:53:41Z</time>
      </trkpt>
      <trkpt lat="43.2801172882" lon="-8.4853339288">
        <ele>46.92</ele>
        <time>2020-03-14T08:53:42Z</time>
      </trkpt>
      <trkpt lat="43.2801681664" lon="-8.4853567276">
        <ele>46.83</ele>
        <time>2020-03-14T08:53:43Z</time>
      </trkpt>
      <trkpt lat="43.2803713437" lon="-8.4854808636">
        <ele>46.56</ele>
        <time>2020-03-14T08:53:47Z</time>
      </trkpt>
      <trkpt lat="43.2808635291" lon="-8.4857192449">
        <ele>44.76</ele>
        <time>2020-03-14T08:53:55Z</time>
      </trkpt>
      <trkpt lat="43.2809273992" lon="-8.4857675247">
        <ele>44.61</ele>
        <time>2020-03-14T08:53:56Z</time>
      </trkpt>
      <trkpt lat="43.2809877489" lon="-8.4858292155">
        <ele>44.41</ele>
        <time>2020-03-14T08:53:57Z</time>
      </trkpt>
      <trkpt lat="43.2813173253" lon="-8.4863669984">
        <ele>42.94</ele>
        <time>2020-03-14T08:54:07Z</time>
      </trkpt>
      <trkpt lat="43.2818463072" lon="-8.4873807896">
        <ele>44.43</ele>
        <time>2020-03-14T08:54:27Z</time>
      </trkpt>
      <trkpt lat="43.2818909828" lon="-8.4874155745">
        <ele>44.45</ele>
        <time>2020-03-14T08:54:28Z</time>
      </trkpt>
      <trkpt lat="43.2819374185" lon="-8.4874453302">
        <ele>44.46</ele>
        <time>2020-03-14T08:54:29Z</time>
      </trkpt>
      <trkpt lat="43.2819839381" lon="-8.4874739964">
        <ele>44.47</ele>
        <time>2020-03-14T08:54:30Z</time>
      </trkpt>
      <trkpt lat="43.2820297033" lon="-8.4875049256">
        <ele>44.47</ele>
        <time>2020-03-14T08:54:31Z</time>
      </trkpt>
      <trkpt lat="43.2827379741" lon="-8.4881836083">
        <ele>43.88</ele>
        <time>2020-03-14T08:54:48Z</time>
      </trkpt>
      <trkpt lat="43.2833140623" lon="-8.4885943215">
        <ele>42.97</ele>
        <time>2020-03-14T08:55:00Z</time>
      </trkpt>
      <trkpt lat="43.2837316487" lon="-8.4891246445">
        <ele>42.10</ele>
        <time>2020-03-14T08:55:12Z</time>
      </trkpt>
      <trkpt lat="43.2839789987" lon="-8.4892977308">
        <ele>42.51</ele>
        <time>2020-03-14T08:55:18Z</time>
      </trkpt>
      <trkpt lat="43.2840572856" lon="-8.4893656243">
        <ele>42.56</ele>
        <time>2020-03-14T08:55:20Z</time>
      </trkpt>
      <trkpt lat="43.2842052262" lon="-8.4895154927">
        <ele>42.57</ele>
        <time>2020-03-14T08:55:24Z</time>
      </trkpt>
      <trkpt lat="43.2842499018" lon="-8.4895435721">
        <ele>42.57</ele>
        <time>2020-03-14T08:55:25Z</time>
      </trkpt>
      <trkpt lat="43.2844407577" lon="-8.4896258824">
        <ele>42.45</ele>
        <time>2020-03-14T08:55:29Z</time>
      </trkpt>
      <trkpt lat="43.2844849303" lon="-8.4896222781">
        <ele>42.38</ele>
        <time>2020-03-14T08:55:30Z</time>
      </trkpt>
      <trkpt lat="43.2845299412" lon="-8.4895989764">
        <ele>42.33</ele>
        <time>2020-03-14T08:55:31Z</time>
      </trkpt>
      <trkpt lat="43.2845726050" lon="-8.4895601682">
        <ele>42.19</ele>
        <time>2020-03-14T08:55:32Z</time>
      </trkpt>
      <trkpt lat="43.2846140955" lon="-8.4895144030">
        <ele>42.06</ele>
        <time>2020-03-14T08:55:33Z</time>
      </trkpt>
      <trkpt lat="43.2847724296" lon="-8.4893126506">
        <ele>41.23</ele>
        <time>2020-03-14T08:55:37Z</time>
      </trkpt>
      <trkpt lat="43.2848136686" lon="-8.4892904386">
        <ele>41.08</ele>
        <time>2020-03-14T08:55:38Z</time>
      </trkpt>
      <trkpt lat="43.2848573383" lon="-8.4892927855">
        <ele>40.83</ele>
        <time>2020-03-14T08:55:39Z</time>
      </trkpt>
      <trkpt lat="43.2848963141" lon="-8.4893171769">
        <ele>40.58</ele>
        <time>2020-03-14T08:55:40Z</time>
      </trkpt>
      <trkpt lat="43.2849314343" lon="-8.4893521294">
        <ele>40.31</ele>
        <time>2020-03-14T08:55:41Z</time>
      </trkpt>
      <trkpt lat="43.2849676441" lon="-8.4893896803">
        <ele>39.97</ele>
        <time>2020-03-14T08:55:42Z</time>
      </trkpt>
      <trkpt lat="43.2851392217" lon="-8.4895415604">
        <ele>38.08</ele>
        <time>2020-03-14T08:55:46Z</time>
      </trkpt>
      <trkpt lat="43.2857852988" lon="-8.4900539462">
        <ele>36.52</ele>
        <time>2020-03-14T08:56:00Z</time>
      </trkpt>
      <trkpt lat="43.2858187426" lon="-8.4901117813">
        <ele>36.47</ele>
        <time>2020-03-14T08:56:01Z</time>
      </trkpt>
      <trkpt lat="43.2858428825" lon="-8.4901764058">
        <ele>36.38</ele>
        <time>2020-03-14T08:56:02Z</time>
      </trkpt>
      <trkpt lat="43.2858594786" lon="-8.4902417008">
        <ele>36.25</ele>
        <time>2020-03-14T08:56:03Z</time>
      </trkpt>
      <trkpt lat="43.2858725544" lon="-8.4903051518">
        <ele>36.10</ele>
        <time>2020-03-14T08:56:04Z</time>
      </trkpt>
      <trkpt lat="43.2860729657" lon="-8.4914047737">
        <ele>37.02</ele>
        <time>2020-03-14T08:56:24Z</time>
      </trkpt>
      <trkpt lat="43.2863701880" lon="-8.4921850450">
        <ele>39.47</ele>
        <time>2020-03-14T08:56:42Z</time>
      </trkpt>
      <trkpt lat="43.2863721997" lon="-8.4928850178">
        <ele>40.96</ele>
        <time>2020-03-14T08:56:57Z</time>
      </trkpt>
      <trkpt lat="43.2865704317" lon="-8.4936211165">
        <ele>42.52</ele>
        <time>2020-03-14T08:57:14Z</time>
      </trkpt>
      <trkpt lat="43.2869114075" lon="-8.4940092824">
        <ele>44.32</ele>
        <time>2020-03-14T08:57:28Z</time>
      </trkpt>
      <trkpt lat="43.2869715057" lon="-8.4941053391">
        <ele>44.87</ele>
        <time>2020-03-14T08:57:32Z</time>
      </trkpt>
      <trkpt lat="43.2869987469" lon="-8.4941041656">
        <ele>44.92</ele>
        <time>2020-03-14T08:57:33Z</time>
      </trkpt>
      <trkpt lat="43.2870347053" lon="-8.4940931015">
        <ele>45.01</ele>
        <time>2020-03-14T08:57:34Z</time>
      </trkpt>
      <trkpt lat="43.2870723400" lon="-8.4940755833">
        <ele>45.14</ele>
        <time>2020-03-14T08:57:35Z</time>
      </trkpt>
      <trkpt lat="43.2871081308" lon="-8.4940530360">
        <ele>45.20</ele>
        <time>2020-03-14T08:57:36Z</time>
      </trkpt>
      <trkpt lat="43.2871455140" lon="-8.4940228611">
        <ele>45.24</ele>
        <time>2020-03-14T08:57:37Z</time>
      </trkpt>
      <trkpt lat="43.2871752698" lon="-8.4939952847">
        <ele>45.26</ele>
        <time>2020-03-14T08:57:38Z</time>
      </trkpt>
      <trkpt lat="43.2872090489" lon="-8.4939801972">
        <ele>45.27</ele>
        <time>2020-03-14T08:57:39Z</time>
      </trkpt>
      <trkpt lat="43.2872428279" lon="-8.4939918481">
        <ele>45.27</ele>
        <time>2020-03-14T08:57:40Z</time>
      </trkpt>
      <trkpt lat="43.2872854918" lon="-8.4940112941">
        <ele>45.27</ele>
        <time>2020-03-14T08:57:41Z</time>
      </trkpt>
      <trkpt lat="43.2873271499" lon="-8.4940481745">
        <ele>45.27</ele>
        <time>2020-03-14T08:57:42Z</time>
      </trkpt>
      <trkpt lat="43.2873650361" lon="-8.4940914251">
        <ele>45.27</ele>
        <time>2020-03-14T08:57:43Z</time>
      </trkpt>
      <trkpt lat="43.2874040119" lon="-8.4941387828">
        <ele>45.02</ele>
        <time>2020-03-14T08:57:44Z</time>
      </trkpt>
      <trkpt lat="43.2875154912" lon="-8.4942679480">
        <ele>43.86</ele>
        <time>2020-03-14T08:57:47Z</time>
      </trkpt>
      <trkpt lat="43.2875614241" lon="-8.4942953568">
        <ele>43.49</ele>
        <time>2020-03-14T08:57:48Z</time>
      </trkpt>
      <trkpt lat="43.2876149844" lon="-8.4943142161">
        <ele>43.19</ele>
        <time>2020-03-14T08:57:49Z</time>
      </trkpt>
      <trkpt lat="43.2882526796" lon="-8.4944546968">
        <ele>40.54</ele>
        <time>2020-03-14T08:58:00Z</time>
      </trkpt>
      <trkpt lat="43.2883111853" lon="-8.4944587201">
        <ele>40.23</ele>
        <time>2020-03-14T08:58:01Z</time>
      </trkpt>
      <trkpt lat="43.2885785680" lon="-8.4944369271">
        <ele>39.13</ele>
        <time>2020-03-14T08:58:05Z</time>
      </trkpt>
      <trkpt lat="43.2886464614" lon="-8.4944481589">
        <ele>38.92</ele>
        <time>2020-03-14T08:58:06Z</time>
      </trkpt>
      <trkpt lat="43.2887136843" lon="-8.4944726340">
        <ele>38.80</ele>
        <time>2020-03-14T08:58:07Z</time>
      </trkpt>
      <trkpt lat="43.2891088072" lon="-8.4947281983">
        <ele>37.59</ele>
        <time>2020-03-14T08:58:13Z</time>
      </trkpt>
      <trkpt lat="43.2891631220" lon="-8.4947826806">
        <ele>37.23</ele>
        <time>2020-03-14T08:58:14Z</time>
      </trkpt>
      <trkpt lat="43.2892149221" lon="-8.4948258474">
        <ele>36.86</ele>
        <time>2020-03-14T08:58:15Z</time>
      </trkpt>
      <trkpt lat="43.2893476915" lon="-8.4949226584">
        <ele>36.41</ele>
        <time>2020-03-14T08:58:18Z</time>
      </trkpt>
      <trkpt lat="43.2893877570" lon="-8.4949631430">
        <ele>36.38</ele>
        <time>2020-03-14T08:58:19Z</time>
      </trkpt>
      <trkpt lat="43.2894223742" lon="-8.4950085729">
        <ele>36.36</ele>
        <time>2020-03-14T08:58:20Z</time>
      </trkpt>
      <trkpt lat="43.2897077780" lon="-8.4955200367">
        <ele>35.86</ele>
        <time>2020-03-14T08:58:29Z</time>
      </trkpt>
      <trkpt lat="43.2897359412" lon="-8.4955790453">
        <ele>35.86</ele>
        <time>2020-03-14T08:58:30Z</time>
      </trkpt>
      <trkpt lat="43.2901982032" lon="-8.4964652639">
        <ele>34.80</ele>
        <time>2020-03-14T08:58:46Z</time>
      </trkpt>
      <trkpt lat="43.2902339939" lon="-8.4965115320">
        <ele>34.78</ele>
        <time>2020-03-14T08:58:47Z</time>
      </trkpt>
      <trkpt lat="43.2902659290" lon="-8.4965593088">
        <ele>34.73</ele>
        <time>2020-03-14T08:58:48Z</time>
      </trkpt>
      <trkpt lat="43.2904484030" lon="-8.4968344867">
        <ele>34.56</ele>
        <time>2020-03-14T08:58:54Z</time>
      </trkpt>
      <trkpt lat="43.2904950902" lon="-8.4968789946">
        <ele>34.46</ele>
        <time>2020-03-14T08:58:55Z</time>
      </trkpt>
      <trkpt lat="43.2905419450" lon="-8.4969164617">
        <ele>34.38</ele>
        <time>2020-03-14T08:58:56Z</time>
      </trkpt>
      <trkpt lat="43.2905836869" lon="-8.4969555214">
        <ele>34.35</ele>
        <time>2020-03-14T08:58:57Z</time>
      </trkpt>
      <trkpt lat="43.2906195614" lon="-8.4969917312">
        <ele>34.28</ele>
        <time>2020-03-14T08:58:58Z</time>
      </trkpt>
      <trkpt lat="43.2906513289" lon="-8.4970312100">
        <ele>34.20</ele>
        <time>2020-03-14T08:58:59Z</time>
      </trkpt>
      <trkpt lat="43.2906843536" lon="-8.4970731195">
        <ele>34.05</ele>
        <time>2020-03-14T08:59:00Z</time>
      </trkpt>
      <trkpt lat="43.2910026982" lon="-8.4974563401">
        <ele>32.48</ele>
        <time>2020-03-14T08:59:09Z</time>
      </trkpt>
      <trkpt lat="43.2913984079" lon="-8.4977138322">
        <ele>31.88</ele>
        <time>2020-03-14T08:59:18Z</time>
      </trkpt>
      <trkpt lat="43.2914305944" lon="-8.4977564961">
        <ele>31.83</ele>
        <time>2020-03-14T08:59:19Z</time>
      </trkpt>
      <trkpt lat="43.2915139105" lon="-8.4978844877">
        <ele>31.48</ele>
        <time>2020-03-14T08:59:22Z</time>
      </trkpt>
      <trkpt lat="43.2915519644" lon="-8.4979047719">
        <ele>31.37</ele>
        <time>2020-03-14T08:59:23Z</time>
      </trkpt>
      <trkpt lat="43.2915911078" lon="-8.4979066998">
        <ele>31.32</ele>
        <time>2020-03-14T08:59:24Z</time>
      </trkpt>
      <trkpt lat="43.2916205283" lon="-8.4978852421">
        <ele>31.29</ele>
        <time>2020-03-14T08:59:25Z</time>
      </trkpt>
      <trkpt lat="43.2916444167" lon="-8.4978456795">
        <ele>31.22</ele>
        <time>2020-03-14T08:59:26Z</time>
      </trkpt>
      <trkpt lat="43.2916675508" lon="-8.4977949690">
        <ele>31.17</ele>
        <time>2020-03-14T08:59:27Z</time>
      </trkpt>
      <trkpt lat="43.2916969713" lon="-8.4977424145">
        <ele>31.09</ele>
        <time>2020-03-14T08:59:28Z</time>
      </trkpt>
      <trkpt lat="43.2917673793" lon="-8.4976383951">
        <ele>31.01</ele>
        <time>2020-03-14T08:59:30Z</time>
      </trkpt>
      <trkpt lat="43.2918102946" lon="-8.4975913726">
        <ele>30.99</ele>
        <time>2020-03-14T08:59:31Z</time>
      </trkpt>
      <trkpt lat="43.2918564789" lon="-8.4975492116">
        <ele>30.94</ele>
        <time>2020-03-14T08:59:32Z</time>
      </trkpt>
      <trkpt lat="43.2919055130" lon="-8.4975120798">
        <ele>30.85</ele>
        <time>2020-03-14T08:59:33Z</time>
      </trkpt>
      <trkpt lat="43.2919563074" lon="-8.4974803962">
        <ele>30.79</ele>
        <time>2020-03-14T08:59:34Z</time>
      </trkpt>
      <trkpt lat="43.2928038016" lon="-8.4972031228">
        <ele>28.08</ele>
        <time>2020-03-14T08:59:50Z</time>
      </trkpt>
      <trkpt lat="43.2929175440" lon="-8.4971847665">
        <ele>27.94</ele>
        <time>2020-03-14T08:59:52Z</time>
      </trkpt>
      <trkpt lat="43.2929735351" lon="-8.4971862752">
        <ele>27.83</ele>
        <time>2020-03-14T08:59:53Z</time>
      </trkpt>
      <trkpt lat="43.2931866031" lon="-8.4972288553">
        <ele>27.33</ele>
        <time>2020-03-14T08:59:57Z</time>
      </trkpt>
      <trkpt lat="43.2932339609" lon="-8.4972528275">
        <ele>27.13</ele>
        <time>2020-03-14T08:59:58Z</time>
      </trkpt>
      <trkpt lat="43.2932787202" lon="-8.4972804878">
        <ele>26.90</ele>
        <time>2020-03-14T08:59:59Z</time>
      </trkpt>
      <trkpt lat="43.2933238987" lon="-8.4973122552">
        <ele>26.64</ele>
        <time>2020-03-14T09:00:00Z</time>
      </trkpt>
      <trkpt lat="43.2933670655" lon="-8.4973496385">
        <ele>26.40</ele>
        <time>2020-03-14T09:00:01Z</time>
      </trkpt>
      <trkpt lat="43.2934066281" lon="-8.4973909613">
        <ele>26.26</ele>
        <time>2020-03-14T09:00:02Z</time>
      </trkpt>
      <trkpt lat="43.2934416644" lon="-8.4974354692">
        <ele>26.19</ele>
        <time>2020-03-14T09:00:03Z</time>
      </trkpt>
      <trkpt lat="43.2934737671" lon="-8.4974833298">
        <ele>26.15</ele>
        <time>2020-03-14T09:00:04Z</time>
      </trkpt>
      <trkpt lat="43.2935037743" lon="-8.4975332022">
        <ele>26.13</ele>
        <time>2020-03-14T09:00:05Z</time>
      </trkpt>
      <trkpt lat="43.2936674729" lon="-8.4978106432">
        <ele>26.15</ele>
        <time>2020-03-14T09:00:11Z</time>
      </trkpt>
      <trkpt lat="43.2939673774" lon="-8.4983687941">
        <ele>28.32</ele>
        <time>2020-03-14T09:00:26Z</time>
      </trkpt>
      <trkpt lat="43.2939513680" lon="-8.4988044016">
        <ele>31.22</ele>
        <time>2020-03-14T09:00:38Z</time>
      </trkpt>
      <trkpt lat="43.2939527091" lon="-8.4988926630">
        <ele>31.84</ele>
        <time>2020-03-14T09:00:40Z</time>
      </trkpt>
      <trkpt lat="43.2939964626" lon="-8.4990243427">
        <ele>32.76</ele>
        <time>2020-03-14T09:00:43Z</time>
      </trkpt>
      <trkpt lat="43.2940256316" lon="-8.4990732092">
        <ele>32.90</ele>
        <time>2020-03-14T09:00:44Z</time>
      </trkpt>
      <trkpt lat="43.2940997276" lon="-8.4991994407">
        <ele>33.02</ele>
        <time>2020-03-14T09:00:46Z</time>
      </trkpt>
      <trkpt lat="43.2941323332" lon="-8.4992771409">
        <ele>33.03</ele>
        <time>2020-03-14T09:00:47Z</time>
      </trkpt>
      <trkpt lat="43.2941548806" lon="-8.4993607085">
        <ele>33.04</ele>
        <time>2020-03-14T09:00:48Z</time>
      </trkpt>
      <trkpt lat="43.2943551242" lon="-8.4999650437">
        <ele>30.81</ele>
        <time>2020-03-14T09:00:57Z</time>
      </trkpt>
      <trkpt lat="43.2943687867" lon="-8.5000270698">
        <ele>30.66</ele>
        <time>2020-03-14T09:00:58Z</time>
      </trkpt>
      <trkpt lat="43.2943783421" lon="-8.5000887606">
        <ele>30.59</ele>
        <time>2020-03-14T09:00:59Z</time>
      </trkpt>
      <trkpt lat="43.2942943554" lon="-8.5009569582">
        <ele>31.19</ele>
        <time>2020-03-14T09:01:14Z</time>
      </trkpt>
      <trkpt lat="43.2942754123" lon="-8.5010049026">
        <ele>31.22</ele>
        <time>2020-03-14T09:01:15Z</time>
      </trkpt>
      <trkpt lat="43.2942490093" lon="-8.5010443814">
        <ele>31.43</ele>
        <time>2020-03-14T09:01:16Z</time>
      </trkpt>
      <trkpt lat="43.2942197565" lon="-8.5010778252">
        <ele>31.54</ele>
        <time>2020-03-14T09:01:17Z</time>
      </trkpt>
      <trkpt lat="43.2941901684" lon="-8.5011096764">
        <ele>31.65</ele>
        <time>2020-03-14T09:01:18Z</time>
      </trkpt>
      <trkpt lat="43.2938074507" lon="-8.5018123314">
        <ele>33.80</ele>
        <time>2020-03-14T09:01:36Z</time>
      </trkpt>
      <trkpt lat="43.2938049361" lon="-8.5019031074">
        <ele>33.91</ele>
        <time>2020-03-14T09:01:38Z</time>
      </trkpt>
      <trkpt lat="43.2938284054" lon="-8.5019361321">
        <ele>33.94</ele>
        <time>2020-03-14T09:01:39Z</time>
      </trkpt>
      <trkpt lat="43.2938633580" lon="-8.5019533150">
        <ele>33.99</ele>
        <time>2020-03-14T09:01:40Z</time>
      </trkpt>
      <trkpt lat="43.2939078659" lon="-8.5019566678">
        <ele>34.02</ele>
        <time>2020-03-14T09:01:41Z</time>
      </trkpt>
      <trkpt lat="43.2939553075" lon="-8.5019575059">
        <ele>34.14</ele>
        <time>2020-03-14T09:01:42Z</time>
      </trkpt>
      <trkpt lat="43.2940008212" lon="-8.5019644629">
        <ele>34.29</ele>
        <time>2020-03-14T09:01:43Z</time>
      </trkpt>
      <trkpt lat="43.2940415572" lon="-8.5019851662">
        <ele>34.36</ele>
        <time>2020-03-14T09:01:44Z</time>
      </trkpt>
      <trkpt lat="43.2940838858" lon="-8.5020162631">
        <ele>34.40</ele>
        <time>2020-03-14T09:01:45Z</time>
      </trkpt>
      <trkpt lat="43.2941271365" lon="-8.5020541493">
        <ele>34.42</ele>
        <time>2020-03-14T09:01:46Z</time>
      </trkpt>
      <trkpt lat="43.2941677887" lon="-8.5020973161">
        <ele>34.43</ele>
        <time>2020-03-14T09:01:47Z</time>
      </trkpt>
      <trkpt lat="43.2942880690" lon="-8.5022220388">
        <ele>34.43</ele>
        <time>2020-03-14T09:01:50Z</time>
      </trkpt>
      <trkpt lat="43.2952975854" lon="-8.5030256957">
        <ele>31.21</ele>
        <time>2020-03-14T09:02:09Z</time>
      </trkpt>
      <trkpt lat="43.2953536604" lon="-8.5030593909">
        <ele>30.89</ele>
        <time>2020-03-14T09:02:10Z</time>
      </trkpt>
      <trkpt lat="43.2954150159" lon="-8.5030739754">
        <ele>30.50</ele>
        <time>2020-03-14T09:02:11Z</time>
      </trkpt>
      <trkpt lat="43.2954749465" lon="-8.5030635819">
        <ele>30.02</ele>
        <time>2020-03-14T09:02:12Z</time>
      </trkpt>
      <trkpt lat="43.2955284230" lon="-8.5030298866">
        <ele>29.60</ele>
        <time>2020-03-14T09:02:13Z</time>
      </trkpt>
      <trkpt lat="43.2955741044" lon="-8.5029794276">
        <ele>29.20</ele>
        <time>2020-03-14T09:02:14Z</time>
      </trkpt>
      <trkpt lat="43.2956149243" lon="-8.5029219277">
        <ele>28.71</ele>
        <time>2020-03-14T09:02:15Z</time>
      </trkpt>
      <trkpt lat="43.2956575043" lon="-8.5028606560">
        <ele>28.27</ele>
        <time>2020-03-14T09:02:16Z</time>
      </trkpt>
      <trkpt lat="43.2957891002" lon="-8.5026211012">
        <ele>27.42</ele>
        <time>2020-03-14T09:02:20Z</time>
      </trkpt>
      <trkpt lat="43.2958163414" lon="-8.5025832150">
        <ele>27.18</ele>
        <time>2020-03-14T09:02:21Z</time>
      </trkpt>
      <trkpt lat="43.2958508749" lon="-8.5025681276">
        <ele>26.96</ele>
        <time>2020-03-14T09:02:22Z</time>
      </trkpt>
      <trkpt lat="43.2958894316" lon="-8.5025781021">
        <ele>26.78</ele>
        <time>2020-03-14T09:02:23Z</time>
      </trkpt>
      <trkpt lat="43.2959175110" lon="-8.5026151501">
        <ele>26.65</ele>
        <time>2020-03-14T09:02:24Z</time>
      </trkpt>
      <trkpt lat="43.2959368732" lon="-8.5026684590">
        <ele>26.57</ele>
        <time>2020-03-14T09:02:25Z</time>
      </trkpt>
      <trkpt lat="43.2959514577" lon="-8.5027243663">
        <ele>26.49</ele>
        <time>2020-03-14T09:02:26Z</time>
      </trkpt>
      <trkpt lat="43.2959610969" lon="-8.5027837101">
        <ele>26.45</ele>
        <time>2020-03-14T09:02:27Z</time>
      </trkpt>
      <trkpt lat="43.2959675509" lon="-8.5028426349">
        <ele>26.42</ele>
        <time>2020-03-14T09:02:28Z</time>
      </trkpt>
      <trkpt lat="43.2962394599" lon="-8.5035700165">
        <ele>27.10</ele>
        <time>2020-03-14T09:02:44Z</time>
      </trkpt>
      <trkpt lat="43.2967628259" lon="-8.5042322706">
        <ele>28.46</ele>
        <time>2020-03-14T09:03:02Z</time>
      </trkpt>
      <trkpt lat="43.2970780693" lon="-8.5046713986">
        <ele>28.48</ele>
        <time>2020-03-14T09:03:13Z</time>
      </trkpt>
      <trkpt lat="43.2971526682" lon="-8.5048081912">
        <ele>28.49</ele>
        <time>2020-03-14T09:03:16Z</time>
      </trkpt>
      <trkpt lat="43.2971703541" lon="-8.5048581474">
        <ele>28.51</ele>
        <time>2020-03-14T09:03:17Z</time>
      </trkpt>
      <trkpt lat="43.2971835136" lon="-8.5049094446">
        <ele>28.52</ele>
        <time>2020-03-14T09:03:18Z</time>
      </trkpt>
      <trkpt lat="43.2971920632" lon="-8.5049617477">
        <ele>28.54</ele>
        <time>2020-03-14T09:03:19Z</time>
      </trkpt>
      <trkpt lat="43.2971944939" lon="-8.5050139669">
        <ele>28.56</ele>
        <time>2020-03-14T09:03:20Z</time>
      </trkpt>
      <trkpt lat="43.2971890457" lon="-8.5050628334">
        <ele>28.57</ele>
        <time>2020-03-14T09:03:21Z</time>
      </trkpt>
      <trkpt lat="43.2971751317" lon="-8.5051080957">
        <ele>28.57</ele>
        <time>2020-03-14T09:03:22Z</time>
      </trkpt>
      <trkpt lat="43.2971572783" lon="-8.5051521845">
        <ele>28.61</ele>
        <time>2020-03-14T09:03:23Z</time>
      </trkpt>
      <trkpt lat="43.2971385866" lon="-8.5051921662">
        <ele>28.65</ele>
        <time>2020-03-14T09:03:24Z</time>
      </trkpt>
      <trkpt lat="43.2971212361" lon="-8.5052313935">
        <ele>28.71</ele>
        <time>2020-03-14T09:03:25Z</time>
      </trkpt>
      <trkpt lat="43.2968554460" lon="-8.5057410132">
        <ele>31.74</ele>
        <time>2020-03-14T09:03:41Z</time>
      </trkpt>
      <trkpt lat="43.2965914998" lon="-8.5061592702">
        <ele>34.45</ele>
        <time>2020-03-14T09:03:55Z</time>
      </trkpt>
      <trkpt lat="43.2960639428" lon="-8.5067035072">
        <ele>36.10</ele>
        <time>2020-03-14T09:04:14Z</time>
      </trkpt>
      <trkpt lat="43.2958825585" lon="-8.5070016515">
        <ele>36.65</ele>
        <time>2020-03-14T09:04:24Z</time>
      </trkpt>
      <trkpt lat="43.2958636992" lon="-8.5070273001">
        <ele>36.83</ele>
        <time>2020-03-14T09:04:25Z</time>
      </trkpt>
      <trkpt lat="43.2958403137" lon="-8.5070508532">
        <ele>36.98</ele>
        <time>2020-03-14T09:04:26Z</time>
      </trkpt>
      <trkpt lat="43.2958142459" lon="-8.5070719756">
        <ele>37.09</ele>
        <time>2020-03-14T09:04:27Z</time>
      </trkpt>
      <trkpt lat="43.2957862504" lon="-8.5070897453">
        <ele>37.18</ele>
        <time>2020-03-14T09:04:28Z</time>
      </trkpt>
      <trkpt lat="43.2957585063" lon="-8.5071049165">
        <ele>37.26</ele>
        <time>2020-03-14T09:04:29Z</time>
      </trkpt>
      <trkpt lat="43.2954670675" lon="-8.5073064175">
        <ele>38.16</ele>
        <time>2020-03-14T09:04:42Z</time>
      </trkpt>
      <trkpt lat="43.2952685002" lon="-8.5074329842">
        <ele>41.24</ele>
        <time>2020-03-14T09:04:53Z</time>
      </trkpt>
      <trkpt lat="43.2950471342" lon="-8.5076035559">
        <ele>44.27</ele>
        <time>2020-03-14T09:05:06Z</time>
      </trkpt>
      <trkpt lat="43.2948048972" lon="-8.5077618062">
        <ele>47.42</ele>
        <time>2020-03-14T09:05:19Z</time>
      </trkpt>
      <trkpt lat="43.2946194895" lon="-8.5079210624">
        <ele>50.18</ele>
        <time>2020-03-14T09:05:31Z</time>
      </trkpt>
      <trkpt lat="43.2944695372" lon="-8.5080407560">
        <ele>53.32</ele>
        <time>2020-03-14T09:05:41Z</time>
      </trkpt>
      <trkpt lat="43.2942706347" lon="-8.5082786344">
        <ele>56.39</ele>
        <time>2020-03-14T09:05:53Z</time>
      </trkpt>
      <trkpt lat="43.2940798625" lon="-8.5086455941">
        <ele>59.45</ele>
        <time>2020-03-14T09:06:07Z</time>
      </trkpt>
      <trkpt lat="43.2938480191" lon="-8.5089035891">
        <ele>61.18</ele>
        <time>2020-03-14T09:06:21Z</time>
      </trkpt>
      <trkpt lat="43.2936777826" lon="-8.5092384461">
        <ele>64.23</ele>
        <time>2020-03-14T09:06:35Z</time>
      </trkpt>
      <trkpt lat="43.2936471049" lon="-8.5096879676">
        <ele>67.37</ele>
        <time>2020-03-14T09:06:50Z</time>
      </trkpt>
      <trkpt lat="43.2936272398" lon="-8.5097334813">
        <ele>67.74</ele>
        <time>2020-03-14T09:06:52Z</time>
      </trkpt>
      <trkpt lat="43.2936113980" lon="-8.5097501613">
        <ele>67.85</ele>
        <time>2020-03-14T09:06:53Z</time>
      </trkpt>
      <trkpt lat="43.2935943827" lon="-8.5097654164">
        <ele>67.92</ele>
        <time>2020-03-14T09:06:54Z</time>
      </trkpt>
      <trkpt lat="43.2935766131" lon="-8.5097795818">
        <ele>68.12</ele>
        <time>2020-03-14T09:06:55Z</time>
      </trkpt>
      <trkpt lat="43.2935540657" lon="-8.5097924899">
        <ele>68.44</ele>
        <time>2020-03-14T09:06:56Z</time>
      </trkpt>
      <trkpt lat="43.2935342845" lon="-8.5097998660">
        <ele>68.55</ele>
        <time>2020-03-14T09:06:57Z</time>
      </trkpt>
      <trkpt lat="43.2935128268" lon="-8.5098002851">
        <ele>68.69</ele>
        <time>2020-03-14T09:06:58Z</time>
      </trkpt>
      <trkpt lat="43.2934892736" lon="-8.5097986087">
        <ele>68.90</ele>
        <time>2020-03-14T09:06:59Z</time>
      </trkpt>
      <trkpt lat="43.2934657205" lon="-8.5097879637">
        <ele>69.13</ele>
        <time>2020-03-14T09:07:00Z</time>
      </trkpt>
      <trkpt lat="43.2934445981" lon="-8.5097733792">
        <ele>69.29</ele>
        <time>2020-03-14T09:07:01Z</time>
      </trkpt>
      <trkpt lat="43.2934249006" lon="-8.5097570345">
        <ele>69.48</ele>
        <time>2020-03-14T09:07:02Z</time>
      </trkpt>
      <trkpt lat="43.2934067119" lon="-8.5097392648">
        <ele>69.60</ele>
        <time>2020-03-14T09:07:03Z</time>
      </trkpt>
      <trkpt lat="43.2933890261" lon="-8.5097209085">
        <ele>69.71</ele>
        <time>2020-03-14T09:07:04Z</time>
      </trkpt>
      <trkpt lat="43.2932103239" lon="-8.5096001253">
        <ele>71.59</ele>
        <time>2020-03-14T09:07:15Z</time>
      </trkpt>
      <trkpt lat="43.2930120919" lon="-8.5095979460">
        <ele>74.74</ele>
        <time>2020-03-14T09:07:25Z</time>
      </trkpt>
      <trkpt lat="43.2927503251" lon="-8.5097087547">
        <ele>77.44</ele>
        <time>2020-03-14T09:07:38Z</time>
      </trkpt>
      <trkpt lat="43.2925152127" lon="-8.5098884627">
        <ele>80.50</ele>
        <time>2020-03-14T09:07:50Z</time>
      </trkpt>
      <trkpt lat="43.2922660187" lon="-8.5101851821">
        <ele>83.25</ele>
        <time>2020-03-14T09:08:05Z</time>
      </trkpt>
      <trkpt lat="43.2920382824" lon="-8.5106377210">
        <ele>86.32</ele>
        <time>2020-03-14T09:08:23Z</time>
      </trkpt>
      <trkpt lat="43.2917933632" lon="-8.5111638531">
        <ele>89.33</ele>
        <time>2020-03-14T09:08:44Z</time>
      </trkpt>
      <trkpt lat="43.2915841509" lon="-8.5113760829">
        <ele>92.05</ele>
        <time>2020-03-14T09:08:57Z</time>
      </trkpt>
      <trkpt lat="43.2912575919" lon="-8.5115244426">
        <ele>94.69</ele>
        <time>2020-03-14T09:09:11Z</time>
      </trkpt>
      <trkpt lat="43.2909244951" lon="-8.5116536077">
        <ele>96.65</ele>
        <time>2020-03-14T09:09:26Z</time>
      </trkpt>
      <trkpt lat="43.2905286178" lon="-8.5117563698">
        <ele>99.36</ele>
        <time>2020-03-14T09:09:43Z</time>
      </trkpt>
      <trkpt lat="43.2904164679" lon="-8.5120766424">
        <ele>102.48</ele>
        <time>2020-03-14T09:09:55Z</time>
      </trkpt>
      <trkpt lat="43.2902683597" lon="-8.5125999246">
        <ele>105.14</ele>
        <time>2020-03-14T09:10:12Z</time>
      </trkpt>
      <trkpt lat="43.2900436409" lon="-8.5128582548">
        <ele>108.27</ele>
        <time>2020-03-14T09:10:26Z</time>
      </trkpt>
      <trkpt lat="43.2897331752" lon="-8.5129522160">
        <ele>111.31</ele>
        <time>2020-03-14T09:10:39Z</time>
      </trkpt>
      <trkpt lat="43.2893653773" lon="-8.5129768588">
        <ele>114.40</ele>
        <time>2020-03-14T09:10:56Z</time>
      </trkpt>
      <trkpt lat="43.2891163509" lon="-8.5130116437">
        <ele>117.57</ele>
        <time>2020-03-14T09:11:08Z</time>
      </trkpt>
      <trkpt lat="43.2888318691" lon="-8.5131423175">
        <ele>120.62</ele>
        <time>2020-03-14T09:11:23Z</time>
      </trkpt>
      <trkpt lat="43.2886132691" lon="-8.5133116320">
        <ele>123.69</ele>
        <time>2020-03-14T09:11:35Z</time>
      </trkpt>
      <trkpt lat="43.2883406896" lon="-8.5136855487">
        <ele>126.72</ele>
        <time>2020-03-14T09:11:51Z</time>
      </trkpt>
      <trkpt lat="43.2881228440" lon="-8.5140137840">
        <ele>129.40</ele>
        <time>2020-03-14T09:12:07Z</time>
      </trkpt>
      <trkpt lat="43.2879418787" lon="-8.5143024568">
        <ele>132.85</ele>
        <time>2020-03-14T09:12:21Z</time>
      </trkpt>
      <trkpt lat="43.2878167368" lon="-8.5145565122">
        <ele>135.17</ele>
        <time>2020-03-14T09:12:32Z</time>
      </trkpt>
      <trkpt lat="43.2877199259" lon="-8.5149150062">
        <ele>138.29</ele>
        <time>2020-03-14T09:12:46Z</time>
      </trkpt>
      <trkpt lat="43.2876572292" lon="-8.5151776951">
        <ele>139.97</ele>
        <time>2020-03-14T09:12:56Z</time>
      </trkpt>
      <trkpt lat="43.2875877433" lon="-8.5154873226">
        <ele>142.71</ele>
        <time>2020-03-14T09:13:08Z</time>
      </trkpt>
      <trkpt lat="43.2874939498" lon="-8.5158298910">
        <ele>145.74</ele>
        <time>2020-03-14T09:13:21Z</time>
      </trkpt>
      <trkpt lat="43.2873585820" lon="-8.5161031410">
        <ele>147.87</ele>
        <time>2020-03-14T09:13:33Z</time>
      </trkpt>
      <trkpt lat="43.2871395629" lon="-8.5162629839">
        <ele>150.42</ele>
        <time>2020-03-14T09:13:45Z</time>
      </trkpt>
      <trkpt lat="43.2869266625" lon="-8.5163473058">
        <ele>153.68</ele>
        <time>2020-03-14T09:13:58Z</time>
      </trkpt>
      <trkpt lat="43.2868256606" lon="-8.5163627286">
        <ele>155.72</ele>
        <time>2020-03-14T09:14:04Z</time>
      </trkpt>
      <trkpt lat="43.2866232377" lon="-8.5164291970">
        <ele>158.88</ele>
        <time>2020-03-14T09:14:16Z</time>
      </trkpt>
      <trkpt lat="43.2864155341" lon="-8.5165163688">
        <ele>161.99</ele>
        <time>2020-03-14T09:14:28Z</time>
      </trkpt>
      <trkpt lat="43.2861826010" lon="-8.5166479647">
        <ele>164.91</ele>
        <time>2020-03-14T09:14:42Z</time>
      </trkpt>
      <trkpt lat="43.2859754004" lon="-8.5167744476">
        <ele>167.99</ele>
        <time>2020-03-14T09:14:54Z</time>
      </trkpt>
      <trkpt lat="43.2857614104" lon="-8.5169034451">
        <ele>171.18</ele>
        <time>2020-03-14T09:15:08Z</time>
      </trkpt>
      <trkpt lat="43.2856055908" lon="-8.5170522239">
        <ele>174.22</ele>
        <time>2020-03-14T09:15:20Z</time>
      </trkpt>
      <trkpt lat="43.2853303291" lon="-8.5172455106">
        <ele>177.37</ele>
        <time>2020-03-14T09:15:35Z</time>
      </trkpt>
      <trkpt lat="43.2851489447" lon="-8.5174385458">
        <ele>180.54</ele>
        <time>2020-03-14T09:15:48Z</time>
      </trkpt>
      <trkpt lat="43.2849771157" lon="-8.5176382866">
        <ele>183.78</ele>
        <time>2020-03-14T09:16:01Z</time>
      </trkpt>
      <trkpt lat="43.2848237269" lon="-8.5178024042">
        <ele>186.97</ele>
        <time>2020-03-14T09:16:12Z</time>
      </trkpt>
      <trkpt lat="43.2846252434" lon="-8.5179942660">
        <ele>190.18</ele>
        <time>2020-03-14T09:16:25Z</time>
      </trkpt>
      <trkpt lat="43.2843465451" lon="-8.5181101877">
        <ele>193.32</ele>
        <time>2020-03-14T09:16:38Z</time>
      </trkpt>
      <trkpt lat="43.2837567106" lon="-8.5183059052">
        <ele>196.00</ele>
        <time>2020-03-14T09:17:02Z</time>
      </trkpt>
      <trkpt lat="43.2833556365" lon="-8.5183709487">
        <ele>197.67</ele>
        <time>2020-03-14T09:17:17Z</time>
      </trkpt>
      <trkpt lat="43.2830290776" lon="-8.5186103359">
        <ele>197.99</ele>
        <time>2020-03-14T09:17:31Z</time>
      </trkpt>
      <trkpt lat="43.2827686518" lon="-8.5188697558">
        <ele>201.03</ele>
        <time>2020-03-14T09:17:47Z</time>
      </trkpt>
      <trkpt lat="43.2825467829" lon="-8.5190871824">
        <ele>203.90</ele>
        <time>2020-03-14T09:17:59Z</time>
      </trkpt>
      <trkpt lat="43.2823186275" lon="-8.5193526372">
        <ele>206.20</ele>
        <time>2020-03-14T09:18:13Z</time>
      </trkpt>
      <trkpt lat="43.2822744548" lon="-8.5194052756">
        <ele>206.86</ele>
        <time>2020-03-14T09:18:16Z</time>
      </trkpt>
      <trkpt lat="43.2822655700" lon="-8.5194253083">
        <ele>206.92</ele>
        <time>2020-03-14T09:18:17Z</time>
      </trkpt>
      <trkpt lat="43.2822555117" lon="-8.5194450058">
        <ele>207.02</ele>
        <time>2020-03-14T09:18:18Z</time>
      </trkpt>
      <trkpt lat="43.2821848523" lon="-8.5196844768">
        <ele>209.88</ele>
        <time>2020-03-14T09:18:30Z</time>
      </trkpt>
      <trkpt lat="43.2822197210" lon="-8.5198285617">
        <ele>213.33</ele>
        <time>2020-03-14T09:18:39Z</time>
      </trkpt>
      <trkpt lat="43.2822845969" lon="-8.5198775120">
        <ele>214.82</ele>
        <time>2020-03-14T09:18:44Z</time>
      </trkpt>
      <trkpt lat="43.2823013607" lon="-8.5198839661">
        <ele>215.11</ele>
        <time>2020-03-14T09:18:45Z</time>
      </trkpt>
      <trkpt lat="43.2823183760" lon="-8.5198891629">
        <ele>215.49</ele>
        <time>2020-03-14T09:18:46Z</time>
      </trkpt>
      <trkpt lat="43.2824297715" lon="-8.5199615825">
        <ele>218.75</ele>
        <time>2020-03-14T09:18:55Z</time>
      </trkpt>
      <trkpt lat="43.2825235650" lon="-8.5201434698">
        <ele>221.93</ele>
        <time>2020-03-14T09:19:05Z</time>
      </trkpt>
      <trkpt lat="43.2825603615" lon="-8.5203194898">
        <ele>225.01</ele>
        <time>2020-03-14T09:19:14Z</time>
      </trkpt>
      <trkpt lat="43.2826197892" lon="-8.5205763951">
        <ele>228.05</ele>
        <time>2020-03-14T09:19:25Z</time>
      </trkpt>
      <trkpt lat="43.2827059552" lon="-8.5210275929">
        <ele>230.80</ele>
        <time>2020-03-14T09:19:39Z</time>
      </trkpt>
      <trkpt lat="43.2826460246" lon="-8.5214667208">
        <ele>232.57</ele>
        <time>2020-03-14T09:19:55Z</time>
      </trkpt>
      <trkpt lat="43.2825567573" lon="-8.5218138155">
        <ele>235.74</ele>
        <time>2020-03-14T09:20:10Z</time>
      </trkpt>
      <trkpt lat="43.2824817393" lon="-8.5220439825">
        <ele>237.81</ele>
        <time>2020-03-14T09:20:19Z</time>
      </trkpt>
      <trkpt lat="43.2824067213" lon="-8.5222201701">
        <ele>239.26</ele>
        <time>2020-03-14T09:20:26Z</time>
      </trkpt>
      <trkpt lat="43.2823993452" lon="-8.5222410411">
        <ele>239.43</ele>
        <time>2020-03-14T09:20:27Z</time>
      </trkpt>
      <trkpt lat="43.2823912147" lon="-8.5222656839">
        <ele>239.62</ele>
        <time>2020-03-14T09:20:28Z</time>
      </trkpt>
      <trkpt lat="43.2823797315" lon="-8.5222940985">
        <ele>239.81</ele>
        <time>2020-03-14T09:20:29Z</time>
      </trkpt>
      <trkpt lat="43.2823669072" lon="-8.5223164782">
        <ele>240.05</ele>
        <time>2020-03-14T09:20:30Z</time>
      </trkpt>
      <trkpt lat="43.2823596150" lon="-8.5223401152">
        <ele>240.17</ele>
        <time>2020-03-14T09:20:31Z</time>
      </trkpt>
      <trkpt lat="43.2823497243" lon="-8.5223637521">
        <ele>240.32</ele>
        <time>2020-03-14T09:20:32Z</time>
      </trkpt>
      <trkpt lat="43.2823425159" lon="-8.5223893169">
        <ele>240.52</ele>
        <time>2020-03-14T09:20:33Z</time>
      </trkpt>
      <trkpt lat="43.2821930666" lon="-8.5226608906">
        <ele>242.80</ele>
        <time>2020-03-14T09:20:44Z</time>
      </trkpt>
      <trkpt lat="43.2820344809" lon="-8.5229374934">
        <ele>244.88</ele>
        <time>2020-03-14T09:20:57Z</time>
      </trkpt>
      <trkpt lat="43.2818233408" lon="-8.5232000984">
        <ele>246.60</ele>
        <time>2020-03-14T09:21:10Z</time>
      </trkpt>
      <trkpt lat="43.2816288806" lon="-8.5234746058">
        <ele>248.87</ele>
        <time>2020-03-14T09:21:22Z</time>
      </trkpt>
      <trkpt lat="43.2813732326" lon="-8.5236867517">
        <ele>251.09</ele>
        <time>2020-03-14T09:21:35Z</time>
      </trkpt>
      <trkpt lat="43.2809545565" lon="-8.5238667950">
        <ele>253.59</ele>
        <time>2020-03-14T09:21:51Z</time>
      </trkpt>
      <trkpt lat="43.2803915441" lon="-8.5240502749">
        <ele>256.51</ele>
        <time>2020-03-14T09:22:11Z</time>
      </trkpt>
      <trkpt lat="43.2799773943" lon="-8.5241878219">
        <ele>258.12</ele>
        <time>2020-03-14T09:22:26Z</time>
      </trkpt>
      <trkpt lat="43.2795696985" lon="-8.5243314877">
        <ele>260.08</ele>
        <time>2020-03-14T09:22:42Z</time>
      </trkpt>
      <trkpt lat="43.2790770102" lon="-8.5244806018">
        <ele>262.78</ele>
        <time>2020-03-14T09:22:59Z</time>
      </trkpt>
      <trkpt lat="43.2786373794" lon="-8.5246383492">
        <ele>265.32</ele>
        <time>2020-03-14T09:23:14Z</time>
      </trkpt>
      <trkpt lat="43.2780601177" lon="-8.5248963442">
        <ele>266.10</ele>
        <time>2020-03-14T09:23:31Z</time>
      </trkpt>
      <trkpt lat="43.2775872108" lon="-8.5250774771">
        <ele>266.66</ele>
        <time>2020-03-14T09:23:46Z</time>
      </trkpt>
      <trkpt lat="43.2773396932" lon="-8.5248006228">
        <ele>267.78</ele>
        <time>2020-03-14T09:23:58Z</time>
      </trkpt>
      <trkpt lat="43.2772469055" lon="-8.5244572163">
        <ele>270.89</ele>
        <time>2020-03-14T09:24:12Z</time>
      </trkpt>
      <trkpt lat="43.2771816105" lon="-8.5240282305">
        <ele>273.96</ele>
        <time>2020-03-14T09:24:27Z</time>
      </trkpt>
      <trkpt lat="43.2770487573" lon="-8.5236757714">
        <ele>277.07</ele>
        <time>2020-03-14T09:24:41Z</time>
      </trkpt>
      <trkpt lat="43.2768476754" lon="-8.5234381445">
        <ele>280.18</ele>
        <time>2020-03-14T09:24:55Z</time>
      </trkpt>
      <trkpt lat="43.2766535506" lon="-8.5232123360">
        <ele>283.38</ele>
        <time>2020-03-14T09:25:08Z</time>
      </trkpt>
      <trkpt lat="43.2763951365" lon="-8.5229541734">
        <ele>286.45</ele>
        <time>2020-03-14T09:25:22Z</time>
      </trkpt>
      <trkpt lat="43.2759068906" lon="-8.5226438753">
        <ele>289.52</ele>
        <time>2020-03-14T09:25:43Z</time>
      </trkpt>
      <trkpt lat="43.2755569462" lon="-8.5221360996">
        <ele>291.76</ele>
        <time>2020-03-14T09:26:03Z</time>
      </trkpt>
      <trkpt lat="43.2753036451" lon="-8.5216429923">
        <ele>294.89</ele>
        <time>2020-03-14T09:26:22Z</time>
      </trkpt>
      <trkpt lat="43.2751193270" lon="-8.5212566704">
        <ele>298.03</ele>
        <time>2020-03-14T09:26:38Z</time>
      </trkpt>
      <trkpt lat="43.2749907486" lon="-8.5209090728">
        <ele>301.03</ele>
        <time>2020-03-14T09:26:52Z</time>
      </trkpt>
      <trkpt lat="43.2748731505" lon="-8.5206053965">
        <ele>304.12</ele>
        <time>2020-03-14T09:27:05Z</time>
      </trkpt>
      <trkpt lat="43.2747553848" lon="-8.5202851240">
        <ele>307.13</ele>
        <time>2020-03-14T09:27:17Z</time>
      </trkpt>
      <trkpt lat="43.2745969668" lon="-8.5198513605">
        <ele>310.14</ele>
        <time>2020-03-14T09:27:32Z</time>
      </trkpt>
      <trkpt lat="43.2743947953" lon="-8.5192051157">
        <ele>313.20</ele>
        <time>2020-03-14T09:27:52Z</time>
      </trkpt>
      <trkpt lat="43.2742542308" lon="-8.5185301211">
        <ele>315.56</ele>
        <time>2020-03-14T09:28:11Z</time>
      </trkpt>
      <trkpt lat="43.2740808092" lon="-8.5180101916">
        <ele>318.59</ele>
        <time>2020-03-14T09:28:27Z</time>
      </trkpt>
      <trkpt lat="43.2738325372" lon="-8.5174455866">
        <ele>321.35</ele>
        <time>2020-03-14T09:28:46Z</time>
      </trkpt>
      <trkpt lat="43.2736814953" lon="-8.5167362262">
        <ele>322.87</ele>
        <time>2020-03-14T09:29:03Z</time>
      </trkpt>
      <trkpt lat="43.2733514998" lon="-8.5159066692">
        <ele>323.04</ele>
        <time>2020-03-14T09:29:19Z</time>
      </trkpt>
      <trkpt lat="43.2733147871" lon="-8.5157904960">
        <ele>322.91</ele>
        <time>2020-03-14T09:29:21Z</time>
      </trkpt>
      <trkpt lat="43.2731773239" lon="-8.5151739232">
        <ele>321.24</ele>
        <time>2020-03-14T09:29:31Z</time>
      </trkpt>
      <trkpt lat="43.2727620006" lon="-8.5142312944">
        <ele>318.93</ele>
        <time>2020-03-14T09:29:48Z</time>
      </trkpt>
      <trkpt lat="43.2725599967" lon="-8.5131765995">
        <ele>317.20</ele>
        <time>2020-03-14T09:30:02Z</time>
      </trkpt>
      <trkpt lat="43.2724128943" lon="-8.5124008544">
        <ele>313.92</ele>
        <time>2020-03-14T09:30:09Z</time>
      </trkpt>
      <trkpt lat="43.2723194361" lon="-8.5118838586">
        <ele>310.72</ele>
        <time>2020-03-14T09:30:14Z</time>
      </trkpt>
      <trkpt lat="43.2722046878" lon="-8.5115592275">
        <ele>308.48</ele>
        <time>2020-03-14T09:30:18Z</time>
      </trkpt>
      <trkpt lat="43.2721219584" lon="-8.5113582294">
        <ele>308.25</ele>
        <time>2020-03-14T09:30:21Z</time>
      </trkpt>
      <trkpt lat="43.2717239019" lon="-8.5107171815">
        <ele>309.43</ele>
        <time>2020-03-14T09:30:35Z</time>
      </trkpt>
      <trkpt lat="43.2713468838" lon="-8.5101039615">
        <ele>311.45</ele>
        <time>2020-03-14T09:30:52Z</time>
      </trkpt>
      <trkpt lat="43.2710310537" lon="-8.5095698666">
        <ele>314.52</ele>
        <time>2020-03-14T09:31:09Z</time>
      </trkpt>
      <trkpt lat="43.2708182372" lon="-8.5090936907">
        <ele>316.21</ele>
        <time>2020-03-14T09:31:23Z</time>
      </trkpt>
      <trkpt lat="43.2705701329" lon="-8.5085817240">
        <ele>318.47</ele>
        <time>2020-03-14T09:31:38Z</time>
      </trkpt>
      <trkpt lat="43.2702240441" lon="-8.5081594437">
        <ele>320.88</ele>
        <time>2020-03-14T09:31:55Z</time>
      </trkpt>
      <trkpt lat="43.2701274846" lon="-8.5077851079">
        <ele>323.32</ele>
        <time>2020-03-14T09:32:07Z</time>
      </trkpt>
      <trkpt lat="43.2700521313" lon="-8.5072992090">
        <ele>326.43</ele>
        <time>2020-03-14T09:32:21Z</time>
      </trkpt>
      <trkpt lat="43.2700351160" lon="-8.5066893417">
        <ele>329.53</ele>
        <time>2020-03-14T09:32:38Z</time>
      </trkpt>
      <trkpt lat="43.2700603455" lon="-8.5058643110">
        <ele>330.85</ele>
        <time>2020-03-14T09:32:55Z</time>
      </trkpt>
      <trkpt lat="43.2701874152" lon="-8.5050084349">
        <ele>329.88</ele>
        <time>2020-03-14T09:33:11Z</time>
      </trkpt>
      <trkpt lat="43.2700833119" lon="-8.5046342667">
        <ele>330.02</ele>
        <time>2020-03-14T09:33:22Z</time>
      </trkpt>
      <trkpt lat="43.2700877544" lon="-8.5046346020">
        <ele>329.93</ele>
        <time>2020-03-14T09:33:27Z</time>
      </trkpt>
      <trkpt lat="43.2701000758" lon="-8.5046209395">
        <ele>332.04</ele>
        <time>2020-03-14T09:33:43Z</time>
      </trkpt>
      <trkpt lat="43.2701009139" lon="-8.5046202689">
        <ele>331.99</ele>
        <time>2020-03-14T09:33:44Z</time>
      </trkpt>
      <trkpt lat="43.2700880896" lon="-8.5045508668">
        <ele>331.73</ele>
        <time>2020-03-14T09:34:43Z</time>
      </trkpt>
      <trkpt lat="43.2699717488" lon="-8.5041722562">
        <ele>331.34</ele>
        <time>2020-03-14T09:34:53Z</time>
      </trkpt>
      <trkpt lat="43.2699502073" lon="-8.5041808058">
        <ele>331.03</ele>
        <time>2020-03-14T09:34:54Z</time>
      </trkpt>
      <trkpt lat="43.2699280791" lon="-8.5041819792">
        <ele>330.71</ele>
        <time>2020-03-14T09:34:55Z</time>
      </trkpt>
      <trkpt lat="43.2699046098" lon="-8.5041696578">
        <ele>330.53</ele>
        <time>2020-03-14T09:34:56Z</time>
      </trkpt>
      <trkpt lat="43.2698804699" lon="-8.5041454341">
        <ele>330.43</ele>
        <time>2020-03-14T09:34:57Z</time>
      </trkpt>
      <trkpt lat="43.2698623650" lon="-8.5041098110">
        <ele>330.34</ele>
        <time>2020-03-14T09:34:58Z</time>
      </trkpt>
      <trkpt lat="43.2698555756" lon="-8.5040628724">
        <ele>330.28</ele>
        <time>2020-03-14T09:34:59Z</time>
      </trkpt>
      <trkpt lat="43.2698553242" lon="-8.5040117428">
        <ele>330.25</ele>
        <time>2020-03-14T09:35:00Z</time>
      </trkpt>
      <trkpt lat="43.2698559109" lon="-8.5039593559">
        <ele>330.22</ele>
        <time>2020-03-14T09:35:01Z</time>
      </trkpt>
      <trkpt lat="43.2698541507" lon="-8.5039065499">
        <ele>330.20</ele>
        <time>2020-03-14T09:35:02Z</time>
      </trkpt>
      <trkpt lat="43.2698431704" lon="-8.5037943162">
        <ele>330.17</ele>
        <time>2020-03-14T09:35:04Z</time>
      </trkpt>
      <trkpt lat="43.2696513925" lon="-8.5032294597">
        <ele>329.56</ele>
        <time>2020-03-14T09:35:16Z</time>
      </trkpt>
      <trkpt lat="43.2693988457" lon="-8.5026908386">
        <ele>330.07</ele>
        <time>2020-03-14T09:35:29Z</time>
      </trkpt>
      <trkpt lat="43.2693624683" lon="-8.5026530363">
        <ele>330.07</ele>
        <time>2020-03-14T09:35:30Z</time>
      </trkpt>
      <trkpt lat="43.2690106798" lon="-8.5024909303">
        <ele>329.14</ele>
        <time>2020-03-14T09:35:39Z</time>
      </trkpt>
      <trkpt lat="43.2689693570" lon="-8.5024922714">
        <ele>328.95</ele>
        <time>2020-03-14T09:35:40Z</time>
      </trkpt>
      <trkpt lat="43.2689310517" lon="-8.5024985578">
        <ele>328.85</ele>
        <time>2020-03-14T09:35:41Z</time>
      </trkpt>
      <trkpt lat="43.2686049957" lon="-8.5026311595">
        <ele>327.75</ele>
        <time>2020-03-14T09:35:51Z</time>
      </trkpt>
      <trkpt lat="43.2684807759" lon="-8.5026819538">
        <ele>327.51</ele>
        <time>2020-03-14T09:35:54Z</time>
      </trkpt>
      <trkpt lat="43.2684003934" lon="-8.5027376097">
        <ele>327.36</ele>
        <time>2020-03-14T09:35:56Z</time>
      </trkpt>
      <trkpt lat="43.2683589030" lon="-8.5027612466">
        <ele>327.22</ele>
        <time>2020-03-14T09:35:57Z</time>
      </trkpt>
      <trkpt lat="43.2683148142" lon="-8.5027863923">
        <ele>326.96</ele>
        <time>2020-03-14T09:35:58Z</time>
      </trkpt>
      <trkpt lat="43.2682698872" lon="-8.5028117057">
        <ele>326.75</ele>
        <time>2020-03-14T09:35:59Z</time>
      </trkpt>
      <trkpt lat="43.2682174165" lon="-8.5028364323">
        <ele>326.44</ele>
        <time>2020-03-14T09:36:00Z</time>
      </trkpt>
      <trkpt lat="43.2678008359" lon="-8.5030728858">
        <ele>323.73</ele>
        <time>2020-03-14T09:36:09Z</time>
      </trkpt>
      <trkpt lat="43.2675908692" lon="-8.5031865444">
        <ele>322.42</ele>
        <time>2020-03-14T09:36:13Z</time>
      </trkpt>
      <trkpt lat="43.2671713550" lon="-8.5034167115">
        <ele>319.17</ele>
        <time>2020-03-14T09:36:21Z</time>
      </trkpt>
      <trkpt lat="43.2670801599" lon="-8.5034660809">
        <ele>318.41</ele>
        <time>2020-03-14T09:36:23Z</time>
      </trkpt>
      <trkpt lat="43.2667589653" lon="-8.5036563501">
        <ele>316.18</ele>
        <time>2020-03-14T09:36:29Z</time>
      </trkpt>
      <trkpt lat="43.2667007111" lon="-8.5036782268">
        <ele>315.96</ele>
        <time>2020-03-14T09:36:30Z</time>
      </trkpt>
      <trkpt lat="43.2662792690" lon="-8.5039394069">
        <ele>312.57</ele>
        <time>2020-03-14T09:36:38Z</time>
      </trkpt>
      <trkpt lat="43.2661366090" lon="-8.5040207114">
        <ele>309.53</ele>
        <time>2020-03-14T09:36:42Z</time>
      </trkpt>
      <trkpt lat="43.2660828810" lon="-8.5040612798">
        <ele>306.25</ele>
        <time>2020-03-14T09:36:49Z</time>
      </trkpt>
      <trkpt lat="43.2659085374" lon="-8.5041574202">
        <ele>303.32</ele>
        <time>2020-03-14T09:37:09Z</time>
      </trkpt>
      <trkpt lat="43.2658590004" lon="-8.5041751899">
        <ele>302.77</ele>
        <time>2020-03-14T09:37:14Z</time>
      </trkpt>
      <trkpt lat="43.2656747662" lon="-8.5042313486">
        <ele>301.48</ele>
        <time>2020-03-14T09:37:28Z</time>
      </trkpt>
      <trkpt lat="43.2653824054" lon="-8.5044408962">
        <ele>300.17</ele>
        <time>2020-03-14T09:37:40Z</time>
      </trkpt>
      <trkpt lat="43.2650616299" lon="-8.5047624260">
        <ele>298.56</ele>
        <time>2020-03-14T09:37:52Z</time>
      </trkpt>
      <trkpt lat="43.2647652458" lon="-8.5050912481">
        <ele>297.62</ele>
        <time>2020-03-14T09:38:05Z</time>
      </trkpt>
      <trkpt lat="43.2645726297" lon="-8.5052751470">
        <ele>297.53</ele>
        <time>2020-03-14T09:38:15Z</time>
      </trkpt>
      <trkpt lat="43.2641811948" lon="-8.5055454634">
        <ele>297.63</ele>
        <time>2020-03-14T09:38:27Z</time>
      </trkpt>
      <trkpt lat="43.2639429811" lon="-8.5058517382">
        <ele>298.74</ele>
        <time>2020-03-14T09:38:39Z</time>
      </trkpt>
      <trkpt lat="43.2635221258" lon="-8.5062536504">
        <ele>301.27</ele>
        <time>2020-03-14T09:38:53Z</time>
      </trkpt>
      <trkpt lat="43.2632088102" lon="-8.5064415727">
        <ele>300.88</ele>
        <time>2020-03-14T09:38:59Z</time>
      </trkpt>
      <trkpt lat="43.2629893720" lon="-8.5065180156">
        <ele>299.23</ele>
        <time>2020-03-14T09:39:03Z</time>
      </trkpt>
      <trkpt lat="43.2629371528" lon="-8.5065437481">
        <ele>298.61</ele>
        <time>2020-03-14T09:39:04Z</time>
      </trkpt>
      <trkpt lat="43.2628405932" lon="-8.5065937880">
        <ele>297.55</ele>
        <time>2020-03-14T09:39:06Z</time>
      </trkpt>
      <trkpt lat="43.2624546066" lon="-8.5067591630">
        <ele>294.43</ele>
        <time>2020-03-14T09:39:15Z</time>
      </trkpt>
      <trkpt lat="43.2621684484" lon="-8.5067899246">
        <ele>291.82</ele>
        <time>2020-03-14T09:39:23Z</time>
      </trkpt>
      <trkpt lat="43.2621459849" lon="-8.5067921039">
        <ele>291.40</ele>
        <time>2020-03-14T09:39:24Z</time>
      </trkpt>
      <trkpt lat="43.2620590646" lon="-8.5068210214">
        <ele>288.51</ele>
        <time>2020-03-14T09:39:38Z</time>
      </trkpt>
      <trkpt lat="43.2620107010" lon="-8.5068588238">
        <ele>288.43</ele>
        <time>2020-03-14T09:39:43Z</time>
      </trkpt>
      <trkpt lat="43.2618859783" lon="-8.5069808643">
        <ele>287.09</ele>
        <time>2020-03-14T09:39:59Z</time>
      </trkpt>
      <trkpt lat="43.2616448309" lon="-8.5074042343">
        <ele>286.13</ele>
        <time>2020-03-14T09:40:12Z</time>
      </trkpt>
      <trkpt lat="43.2615630236" lon="-8.5075461399">
        <ele>284.14</ele>
        <time>2020-03-14T09:40:22Z</time>
      </trkpt>
      <trkpt lat="43.2614906877" lon="-8.5076715332">
        <ele>283.73</ele>
        <time>2020-03-14T09:40:39Z</time>
      </trkpt>
      <trkpt lat="43.2613801304" lon="-8.5077266023">
        <ele>282.60</ele>
        <time>2020-03-14T09:40:52Z</time>
      </trkpt>
      <trkpt lat="43.2611914538" lon="-8.5078487266">
        <ele>281.79</ele>
        <time>2020-03-14T09:41:15Z</time>
      </trkpt>
      <trkpt lat="43.2609119173" lon="-8.5079831723">
        <ele>280.92</ele>
        <time>2020-03-14T09:41:26Z</time>
      </trkpt>
      <trkpt lat="43.2607522421" lon="-8.5080611240">
        <ele>280.19</ele>
        <time>2020-03-14T09:41:33Z</time>
      </trkpt>
      <trkpt lat="43.2606201433" lon="-8.5081748664">
        <ele>279.37</ele>
        <time>2020-03-14T09:41:42Z</time>
      </trkpt>
      <trkpt lat="43.2607250009" lon="-8.5084122419">
        <ele>279.18</ele>
        <time>2020-03-14T09:41:51Z</time>
      </trkpt>
      <trkpt lat="43.2608748693" lon="-8.5086577479">
        <ele>280.21</ele>
        <time>2020-03-14T09:42:04Z</time>
      </trkpt>
      <trkpt lat="43.2610346284" lon="-8.5089233704">
        <ele>281.39</ele>
        <time>2020-03-14T09:42:15Z</time>
      </trkpt>
      <trkpt lat="43.2612526417" lon="-8.5092221852">
        <ele>284.34</ele>
        <time>2020-03-14T09:42:30Z</time>
      </trkpt>
      <trkpt lat="43.2613890152" lon="-8.5094706248">
        <ele>286.39</ele>
        <time>2020-03-14T09:42:42Z</time>
      </trkpt>
      <trkpt lat="43.2615538035" lon="-8.5097469762">
        <ele>288.33</ele>
        <time>2020-03-14T09:42:52Z</time>
      </trkpt>
      <trkpt lat="43.2617317513" lon="-8.5100360680">
        <ele>289.70</ele>
        <time>2020-03-14T09:43:03Z</time>
      </trkpt>
      <trkpt lat="43.2618419733" lon="-8.5104394890">
        <ele>291.02</ele>
        <time>2020-03-14T09:43:15Z</time>
      </trkpt>
      <trkpt lat="43.2619039994" lon="-8.5107647069">
        <ele>291.91</ele>
        <time>2020-03-14T09:43:26Z</time>
      </trkpt>
      <trkpt lat="43.2620352600" lon="-8.5110764299">
        <ele>293.77</ele>
        <time>2020-03-14T09:43:37Z</time>
      </trkpt>
      <trkpt lat="43.2621436380" lon="-8.5112742428">
        <ele>295.40</ele>
        <time>2020-03-14T09:43:45Z</time>
      </trkpt>
      <trkpt lat="43.2621331606" lon="-8.5113643482">
        <ele>295.82</ele>
        <time>2020-03-14T09:43:48Z</time>
      </trkpt>
      <trkpt lat="43.2620947715" lon="-8.5114371870">
        <ele>296.50</ele>
        <time>2020-03-14T09:43:52Z</time>
      </trkpt>
      <trkpt lat="43.2620756608" lon="-8.5114502627">
        <ele>296.66</ele>
        <time>2020-03-14T09:43:53Z</time>
      </trkpt>
      <trkpt lat="43.2620565500" lon="-8.5114672780">
        <ele>296.89</ele>
        <time>2020-03-14T09:43:54Z</time>
      </trkpt>
      <trkpt lat="43.2620361820" lon="-8.5114812758">
        <ele>297.10</ele>
        <time>2020-03-14T09:43:55Z</time>
      </trkpt>
      <trkpt lat="43.2620166522" lon="-8.5114957765">
        <ele>297.33</ele>
        <time>2020-03-14T09:43:56Z</time>
      </trkpt>
      <trkpt lat="43.2619973738" lon="-8.5115156416">
        <ele>297.49</ele>
        <time>2020-03-14T09:43:57Z</time>
      </trkpt>
      <trkpt lat="43.2617518678" lon="-8.5116797592">
        <ele>297.76</ele>
        <time>2020-03-14T09:44:05Z</time>
      </trkpt>
      <trkpt lat="43.2615774404" lon="-8.5118092597">
        <ele>297.47</ele>
        <time>2020-03-14T09:44:10Z</time>
      </trkpt>
      <trkpt lat="43.2614544779" lon="-8.5118715372">
        <ele>297.13</ele>
        <time>2020-03-14T09:44:13Z</time>
      </trkpt>
      <trkpt lat="43.2609117497" lon="-8.5122015327">
        <ele>295.12</ele>
        <time>2020-03-14T09:44:25Z</time>
      </trkpt>
      <trkpt lat="43.2606215682" lon="-8.5124439374">
        <ele>293.78</ele>
        <time>2020-03-14T09:44:32Z</time>
      </trkpt>
      <trkpt lat="43.2602506690" lon="-8.5129022598">
        <ele>291.00</ele>
        <time>2020-03-14T09:44:43Z</time>
      </trkpt>
      <trkpt lat="43.2601954322" lon="-8.5129815526">
        <ele>290.20</ele>
        <time>2020-03-14T09:44:45Z</time>
      </trkpt>
      <trkpt lat="43.2600686979" lon="-8.5131926928">
        <ele>289.16</ele>
        <time>2020-03-14T09:44:49Z</time>
      </trkpt>
      <trkpt lat="43.2598371059" lon="-8.5136267915">
        <ele>286.61</ele>
        <time>2020-03-14T09:44:58Z</time>
      </trkpt>
      <trkpt lat="43.2596796099" lon="-8.5139335692">
        <ele>284.98</ele>
        <time>2020-03-14T09:45:10Z</time>
      </trkpt>
      <trkpt lat="43.2594491076" lon="-8.5143293627">
        <ele>284.37</ele>
        <time>2020-03-14T09:45:21Z</time>
      </trkpt>
      <trkpt lat="43.2593839802" lon="-8.5144773033">
        <ele>284.13</ele>
        <time>2020-03-14T09:45:24Z</time>
      </trkpt>
      <trkpt lat="43.2592553180" lon="-8.5148155130">
        <ele>283.02</ele>
        <time>2020-03-14T09:45:30Z</time>
      </trkpt>
      <trkpt lat="43.2589392364" lon="-8.5155184194">
        <ele>279.87</ele>
        <time>2020-03-14T09:45:41Z</time>
      </trkpt>
      <trkpt lat="43.2588880230" lon="-8.5156934336">
        <ele>278.68</ele>
        <time>2020-03-14T09:45:43Z</time>
      </trkpt>
      <trkpt lat="43.2587798126" lon="-8.5160155501">
        <ele>276.71</ele>
        <time>2020-03-14T09:45:47Z</time>
      </trkpt>
      <trkpt lat="43.2585965004" lon="-8.5165349767">
        <ele>274.39</ele>
        <time>2020-03-14T09:45:57Z</time>
      </trkpt>
      <trkpt lat="43.2585654035" lon="-8.5166444443">
        <ele>274.28</ele>
        <time>2020-03-14T09:46:01Z</time>
      </trkpt>
      <trkpt lat="43.2585346419" lon="-8.5167662334">
        <ele>274.24</ele>
        <time>2020-03-14T09:46:05Z</time>
      </trkpt>
      <trkpt lat="43.2583703566" lon="-8.5172118992">
        <ele>273.66</ele>
        <time>2020-03-14T09:46:20Z</time>
      </trkpt>
      <trkpt lat="43.2582188956" lon="-8.5175879952">
        <ele>272.68</ele>
        <time>2020-03-14T09:46:32Z</time>
      </trkpt>
      <trkpt lat="43.2580268662" lon="-8.5182176437">
        <ele>271.18</ele>
        <time>2020-03-14T09:46:47Z</time>
      </trkpt>
      <trkpt lat="43.2579758205" lon="-8.5183341522">
        <ele>270.37</ele>
        <time>2020-03-14T09:46:59Z</time>
      </trkpt>
      <trkpt lat="43.2579322346" lon="-8.5184981022">
        <ele>270.26</ele>
        <time>2020-03-14T09:47:13Z</time>
      </trkpt>
      <trkpt lat="43.2578915823" lon="-8.5186260100">
        <ele>269.87</ele>
        <time>2020-03-14T09:47:34Z</time>
      </trkpt>
      <trkpt lat="43.2578900736" lon="-8.5186430253">
        <ele>270.12</ele>
        <time>2020-03-14T09:51:27Z</time>
      </trkpt>
      <trkpt lat="43.2578058355" lon="-8.5188964941">
        <ele>269.93</ele>
        <time>2020-03-14T09:51:37Z</time>
      </trkpt>
      <trkpt lat="43.2576948591" lon="-8.5192466900">
        <ele>268.55</ele>
        <time>2020-03-14T09:51:50Z</time>
      </trkpt>
      <trkpt lat="43.2576617505" lon="-8.5193481110">
        <ele>268.06</ele>
        <time>2020-03-14T09:52:03Z</time>
      </trkpt>
      <trkpt lat="43.2576301508" lon="-8.5194702353">
        <ele>267.80</ele>
        <time>2020-03-14T09:52:18Z</time>
      </trkpt>
      <trkpt lat="43.2575000636" lon="-8.5198577307">
        <ele>267.21</ele>
        <time>2020-03-14T09:52:32Z</time>
      </trkpt>
      <trkpt lat="43.2574978843" lon="-8.5198760871">
        <ele>267.15</ele>
        <time>2020-03-14T09:52:33Z</time>
      </trkpt>
      <trkpt lat="43.2574776001" lon="-8.5199465789">
        <ele>266.99</ele>
        <time>2020-03-14T09:52:41Z</time>
      </trkpt>
      <trkpt lat="43.2574708946" lon="-8.5199918412">
        <ele>266.88</ele>
        <time>2020-03-14T09:52:44Z</time>
      </trkpt>
      <trkpt lat="43.2574641891" lon="-8.5200644284">
        <ele>266.66</ele>
        <time>2020-03-14T09:52:50Z</time>
      </trkpt>
      <trkpt lat="43.2573766820" lon="-8.5202874709">
        <ele>266.27</ele>
        <time>2020-03-14T09:53:06Z</time>
      </trkpt>
      <trkpt lat="43.2572374586" lon="-8.5208293609">
        <ele>265.35</ele>
        <time>2020-03-14T09:53:17Z</time>
      </trkpt>
      <trkpt lat="43.2571538072" lon="-8.5212496296">
        <ele>264.81</ele>
        <time>2020-03-14T09:53:28Z</time>
      </trkpt>
      <trkpt lat="43.2571210340" lon="-8.5216923617">
        <ele>264.59</ele>
        <time>2020-03-14T09:53:38Z</time>
      </trkpt>
      <trkpt lat="43.2570994925" lon="-8.5221363511">
        <ele>263.72</ele>
        <time>2020-03-14T09:53:48Z</time>
      </trkpt>
      <trkpt lat="43.2571029291" lon="-8.5222567152">
        <ele>263.56</ele>
        <time>2020-03-14T09:53:50Z</time>
      </trkpt>
      <trkpt lat="43.2571233809" lon="-8.5226059053">
        <ele>262.76</ele>
        <time>2020-03-14T09:53:56Z</time>
      </trkpt>
      <trkpt lat="43.2571537234" lon="-8.5228599608">
        <ele>261.38</ele>
        <time>2020-03-14T09:54:00Z</time>
      </trkpt>
      <trkpt lat="43.2572248019" lon="-8.5233439319">
        <ele>257.58</ele>
        <time>2020-03-14T09:54:09Z</time>
      </trkpt>
      <trkpt lat="43.2572377101" lon="-8.5233877692">
        <ele>257.25</ele>
        <time>2020-03-14T09:54:10Z</time>
      </trkpt>
      <trkpt lat="43.2571679726" lon="-8.5235954728">
        <ele>256.65</ele>
        <time>2020-03-14T09:54:14Z</time>
      </trkpt>
      <trkpt lat="43.2567835785" lon="-8.5243699607">
        <ele>252.81</ele>
        <time>2020-03-14T09:54:23Z</time>
      </trkpt>
      <trkpt lat="43.2565943990" lon="-8.5247482359">
        <ele>249.78</ele>
        <time>2020-03-14T09:54:27Z</time>
      </trkpt>
      <trkpt lat="43.2564663235" lon="-8.5249783192">
        <ele>246.75</ele>
        <time>2020-03-14T09:54:30Z</time>
      </trkpt>
      <trkpt lat="43.2563856896" lon="-8.5251180455">
        <ele>243.59</ele>
        <time>2020-03-14T09:54:32Z</time>
      </trkpt>
      <trkpt lat="43.2563517429" lon="-8.5251777247">
        <ele>242.60</ele>
        <time>2020-03-14T09:54:33Z</time>
      </trkpt>
      <trkpt lat="43.2562743779" lon="-8.5253838357">
        <ele>241.06</ele>
        <time>2020-03-14T09:54:36Z</time>
      </trkpt>
      <trkpt lat="43.2562841848" lon="-8.5255533177">
        <ele>240.24</ele>
        <time>2020-03-14T09:54:38Z</time>
      </trkpt>
      <trkpt lat="43.2563732844" lon="-8.5258369613">
        <ele>238.98</ele>
        <time>2020-03-14T09:54:42Z</time>
      </trkpt>
      <trkpt lat="43.2564022020" lon="-8.5258947127">
        <ele>238.89</ele>
        <time>2020-03-14T09:54:43Z</time>
      </trkpt>
      <trkpt lat="43.2564404234" lon="-8.5259474348">
        <ele>238.76</ele>
        <time>2020-03-14T09:54:44Z</time>
      </trkpt>
      <trkpt lat="43.2565539144" lon="-8.5260828864">
        <ele>237.52</ele>
        <time>2020-03-14T09:54:47Z</time>
      </trkpt>
      <trkpt lat="43.2565809041" lon="-8.5261311661">
        <ele>236.74</ele>
        <time>2020-03-14T09:54:48Z</time>
      </trkpt>
      <trkpt lat="43.2565949857" lon="-8.5261928570">
        <ele>236.20</ele>
        <time>2020-03-14T09:54:49Z</time>
      </trkpt>
      <trkpt lat="43.2565903757" lon="-8.5262547154">
        <ele>235.59</ele>
        <time>2020-03-14T09:54:50Z</time>
      </trkpt>
      <trkpt lat="43.2565795630" lon="-8.5263099521">
        <ele>235.04</ele>
        <time>2020-03-14T09:54:51Z</time>
      </trkpt>
      <trkpt lat="43.2565358933" lon="-8.5265609063">
        <ele>231.47</ele>
        <time>2020-03-14T09:54:56Z</time>
      </trkpt>
      <trkpt lat="43.2565477118" lon="-8.5266630817">
        <ele>230.70</ele>
        <time>2020-03-14T09:54:58Z</time>
      </trkpt>
      <trkpt lat="43.2566627115" lon="-8.5271372460">
        <ele>231.37</ele>
        <time>2020-03-14T09:55:10Z</time>
      </trkpt>
      <trkpt lat="43.2567340415" lon="-8.5273869429">
        <ele>234.57</ele>
        <time>2020-03-14T09:55:19Z</time>
      </trkpt>
      <trkpt lat="43.2567381486" lon="-8.5274784733">
        <ele>236.24</ele>
        <time>2020-03-14T09:55:23Z</time>
      </trkpt>
      <trkpt lat="43.2567238156" lon="-8.5274958238">
        <ele>236.53</ele>
        <time>2020-03-14T09:55:24Z</time>
      </trkpt>
      <trkpt lat="43.2565654814" lon="-8.5276500508">
        <ele>237.68</ele>
        <time>2020-03-14T09:55:29Z</time>
      </trkpt>
      <trkpt lat="43.2565291878" lon="-8.5276983306">
        <ele>237.71</ele>
        <time>2020-03-14T09:55:30Z</time>
      </trkpt>
      <trkpt lat="43.2564993482" lon="-8.5277504660">
        <ele>237.73</ele>
        <time>2020-03-14T09:55:31Z</time>
      </trkpt>
      <trkpt lat="43.2563790679" lon="-8.5282153264">
        <ele>237.76</ele>
        <time>2020-03-14T09:55:41Z</time>
      </trkpt>
      <trkpt lat="43.2563625555" lon="-8.5282676294">
        <ele>237.73</ele>
        <time>2020-03-14T09:55:42Z</time>
      </trkpt>
      <trkpt lat="43.2563380804" lon="-8.5283186752">
        <ele>237.71</ele>
        <time>2020-03-14T09:55:43Z</time>
      </trkpt>
      <trkpt lat="43.2563061453" lon="-8.5283661168">
        <ele>237.65</ele>
        <time>2020-03-14T09:55:44Z</time>
      </trkpt>
      <trkpt lat="43.2562674209" lon="-8.5284109600">
        <ele>237.56</ele>
        <time>2020-03-14T09:55:45Z</time>
      </trkpt>
      <trkpt lat="43.2562241703" lon="-8.5284554679">
        <ele>237.41</ele>
        <time>2020-03-14T09:55:46Z</time>
      </trkpt>
      <trkpt lat="43.2561230846" lon="-8.5285379458">
        <ele>237.29</ele>
        <time>2020-03-14T09:55:48Z</time>
      </trkpt>
      <trkpt lat="43.2560637407" lon="-8.5285712220">
        <ele>237.27</ele>
        <time>2020-03-14T09:55:49Z</time>
      </trkpt>
      <trkpt lat="43.2552253827" lon="-8.5289717093">
        <ele>233.34</ele>
        <time>2020-03-14T09:55:59Z</time>
      </trkpt>
      <trkpt lat="43.2549711596" lon="-8.5290963482">
        <ele>230.07</ele>
        <time>2020-03-14T09:56:02Z</time>
      </trkpt>
      <trkpt lat="43.2547649648" lon="-8.5292115994">
        <ele>226.27</ele>
        <time>2020-03-14T09:56:05Z</time>
      </trkpt>
      <trkpt lat="43.2542584464" lon="-8.5294733662">
        <ele>226.22</ele>
        <time>2020-03-14T09:56:16Z</time>
      </trkpt>
      <trkpt lat="43.2538529299" lon="-8.5295977537">
        <ele>229.22</ele>
        <time>2020-03-14T09:56:25Z</time>
      </trkpt>
      <trkpt lat="43.2535002194" lon="-8.5296749510">
        <ele>229.36</ele>
        <time>2020-03-14T09:56:32Z</time>
      </trkpt>
      <trkpt lat="43.2534657698" lon="-8.5297238175">
        <ele>229.36</ele>
        <time>2020-03-14T09:56:33Z</time>
      </trkpt>
      <trkpt lat="43.2534468267" lon="-8.5297949798">
        <ele>229.36</ele>
        <time>2020-03-14T09:56:34Z</time>
      </trkpt>
      <trkpt lat="43.2534385286" lon="-8.5298755299">
        <ele>229.23</ele>
        <time>2020-03-14T09:56:35Z</time>
      </trkpt>
      <trkpt lat="43.2534359302" lon="-8.5299637076">
        <ele>229.06</ele>
        <time>2020-03-14T09:56:36Z</time>
      </trkpt>
      <trkpt lat="43.2534365170" lon="-8.5300584231">
        <ele>228.87</ele>
        <time>2020-03-14T09:56:37Z</time>
      </trkpt>
      <trkpt lat="43.2534105331" lon="-8.5307996348">
        <ele>225.45</ele>
        <time>2020-03-14T09:56:44Z</time>
      </trkpt>
      <trkpt lat="43.2534162328" lon="-8.5311115254">
        <ele>222.17</ele>
        <time>2020-03-14T09:56:48Z</time>
      </trkpt>
      <trkpt lat="43.2534152269" lon="-8.5311715398">
        <ele>221.93</ele>
        <time>2020-03-14T09:56:49Z</time>
      </trkpt>
      <trkpt lat="43.2534187473" lon="-8.5317851789">
        <ele>223.67</ele>
        <time>2020-03-14T09:57:02Z</time>
      </trkpt>
      <trkpt lat="43.2532389555" lon="-8.5322744306">
        <ele>226.75</ele>
        <time>2020-03-14T09:57:17Z</time>
      </trkpt>
      <trkpt lat="43.2530017477" lon="-8.5325755086">
        <ele>229.88</ele>
        <time>2020-03-14T09:57:30Z</time>
      </trkpt>
      <trkpt lat="43.2527740952" lon="-8.5327720642">
        <ele>232.89</ele>
        <time>2020-03-14T09:57:41Z</time>
      </trkpt>
      <trkpt lat="43.2522296067" lon="-8.5329903290">
        <ele>235.77</ele>
        <time>2020-03-14T09:57:56Z</time>
      </trkpt>
      <trkpt lat="43.2520410139" lon="-8.5330814403">
        <ele>235.77</ele>
        <time>2020-03-14T09:58:00Z</time>
      </trkpt>
      <trkpt lat="43.2519986853" lon="-8.5331177339">
        <ele>235.77</ele>
        <time>2020-03-14T09:58:01Z</time>
      </trkpt>
      <trkpt lat="43.2519576140" lon="-8.5331691150">
        <ele>235.65</ele>
        <time>2020-03-14T09:58:02Z</time>
      </trkpt>
      <trkpt lat="43.2519157045" lon="-8.5332268663">
        <ele>235.42</ele>
        <time>2020-03-14T09:58:03Z</time>
      </trkpt>
      <trkpt lat="43.2518663350" lon="-8.5332723800">
        <ele>235.22</ele>
        <time>2020-03-14T09:58:04Z</time>
      </trkpt>
      <trkpt lat="43.2518127747" lon="-8.5333082546">
        <ele>234.91</ele>
        <time>2020-03-14T09:58:05Z</time>
      </trkpt>
      <trkpt lat="43.2514540292" lon="-8.5336348135">
        <ele>231.30</ele>
        <time>2020-03-14T09:58:12Z</time>
      </trkpt>
      <trkpt lat="43.2513613254" lon="-8.5337505676">
        <ele>229.33</ele>
        <time>2020-03-14T09:58:16Z</time>
      </trkpt>
      <trkpt lat="43.2512879837" lon="-8.5338602029">
        <ele>228.20</ele>
        <time>2020-03-14T09:58:19Z</time>
      </trkpt>
      <trkpt lat="43.2512666099" lon="-8.5339089856">
        <ele>227.89</ele>
        <time>2020-03-14T09:58:20Z</time>
      </trkpt>
      <trkpt lat="43.2510563079" lon="-8.5343624465">
        <ele>227.58</ele>
        <time>2020-03-14T09:58:32Z</time>
      </trkpt>
      <trkpt lat="43.2507461775" lon="-8.5347963776">
        <ele>228.84</ele>
        <time>2020-03-14T09:58:43Z</time>
      </trkpt>
      <trkpt lat="43.2504978217" lon="-8.5352526885">
        <ele>227.26</ele>
        <time>2020-03-14T09:58:50Z</time>
      </trkpt>
      <trkpt lat="43.2504177745" lon="-8.5354344081">
        <ele>225.07</ele>
        <time>2020-03-14T09:58:53Z</time>
      </trkpt>
      <trkpt lat="43.2503715903" lon="-8.5354887228">
        <ele>224.18</ele>
        <time>2020-03-14T09:58:54Z</time>
      </trkpt>
      <trkpt lat="43.2503241487" lon="-8.5355506651">
        <ele>223.45</ele>
        <time>2020-03-14T09:58:55Z</time>
      </trkpt>
      <trkpt lat="43.2501780521" lon="-8.5357337259">
        <ele>222.17</ele>
        <time>2020-03-14T09:58:58Z</time>
      </trkpt>
      <trkpt lat="43.2501254138" lon="-8.5357866995">
        <ele>222.02</ele>
        <time>2020-03-14T09:58:59Z</time>
      </trkpt>
      <trkpt lat="43.2500612084" lon="-8.5358316265">
        <ele>221.89</ele>
        <time>2020-03-14T09:59:00Z</time>
      </trkpt>
      <trkpt lat="43.2499910519" lon="-8.5358710214">
        <ele>221.79</ele>
        <time>2020-03-14T09:59:01Z</time>
      </trkpt>
      <trkpt lat="43.2494920772" lon="-8.5360434372">
        <ele>219.55</ele>
        <time>2020-03-14T09:59:07Z</time>
      </trkpt>
      <trkpt lat="43.2494152151" lon="-8.5360833351">
        <ele>219.12</ele>
        <time>2020-03-14T09:59:08Z</time>
      </trkpt>
      <trkpt lat="43.2493432146" lon="-8.5361374822">
        <ele>218.04</ele>
        <time>2020-03-14T09:59:09Z</time>
      </trkpt>
      <trkpt lat="43.2492705435" lon="-8.5361999273">
        <ele>218.04</ele>
        <time>2020-03-14T09:59:10Z</time>
      </trkpt>
      <trkpt lat="43.2490660250" lon="-8.5363639612">
        <ele>214.41</ele>
        <time>2020-03-14T09:59:13Z</time>
      </trkpt>
      <trkpt lat="43.2490003109" lon="-8.5364011768">
        <ele>213.67</ele>
        <time>2020-03-14T09:59:14Z</time>
      </trkpt>
      <trkpt lat="43.2489310764" lon="-8.5364282504">
        <ele>213.03</ele>
        <time>2020-03-14T09:59:15Z</time>
      </trkpt>
      <trkpt lat="43.2486986462" lon="-8.5364898574">
        <ele>211.92</ele>
        <time>2020-03-14T09:59:18Z</time>
      </trkpt>
      <trkpt lat="43.2486202754" lon="-8.5364808887">
        <ele>211.48</ele>
        <time>2020-03-14T09:59:19Z</time>
      </trkpt>
      <trkpt lat="43.2485452574" lon="-8.5364563297">
        <ele>210.92</ele>
        <time>2020-03-14T09:59:20Z</time>
      </trkpt>
      <trkpt lat="43.2483492885" lon="-8.5363980755">
        <ele>209.15</ele>
        <time>2020-03-14T09:59:23Z</time>
      </trkpt>
      <trkpt lat="43.2482868433" lon="-8.5364311002">
        <ele>208.66</ele>
        <time>2020-03-14T09:59:24Z</time>
      </trkpt>
      <trkpt lat="43.2482316904" lon="-8.5364961438">
        <ele>207.97</ele>
        <time>2020-03-14T09:59:25Z</time>
      </trkpt>
      <trkpt lat="43.2481825724" lon="-8.5365755204">
        <ele>207.08</ele>
        <time>2020-03-14T09:59:26Z</time>
      </trkpt>
      <trkpt lat="43.2481363881" lon="-8.5366599262">
        <ele>206.11</ele>
        <time>2020-03-14T09:59:27Z</time>
      </trkpt>
      <trkpt lat="43.2479527406" lon="-8.5370243713">
        <ele>202.77</ele>
        <time>2020-03-14T09:59:31Z</time>
      </trkpt>
      <trkpt lat="43.2478444465" lon="-8.5371916741">
        <ele>201.89</ele>
        <time>2020-03-14T09:59:33Z</time>
      </trkpt>
      <trkpt lat="43.2477702666" lon="-8.5372426361">
        <ele>201.30</ele>
        <time>2020-03-14T09:59:34Z</time>
      </trkpt>
      <trkpt lat="43.2476928178" lon="-8.5372716375">
        <ele>200.61</ele>
        <time>2020-03-14T09:59:35Z</time>
      </trkpt>
      <trkpt lat="43.2476049755" lon="-8.5372721404">
        <ele>199.91</ele>
        <time>2020-03-14T09:59:36Z</time>
      </trkpt>
      <trkpt lat="43.2475127745" lon="-8.5372538678">
        <ele>198.75</ele>
        <time>2020-03-14T09:59:37Z</time>
      </trkpt>
      <trkpt lat="43.2474208251" lon="-8.5372305661">
        <ele>198.23</ele>
        <time>2020-03-14T09:59:38Z</time>
      </trkpt>
      <trkpt lat="43.2473246846" lon="-8.5372143053">
        <ele>197.76</ele>
        <time>2020-03-14T09:59:39Z</time>
      </trkpt>
      <trkpt lat="43.2472253591" lon="-8.5372147243">
        <ele>197.34</ele>
        <time>2020-03-14T09:59:40Z</time>
      </trkpt>
      <trkpt lat="43.2471247762" lon="-8.5372297280">
        <ele>196.90</ele>
        <time>2020-03-14T09:59:41Z</time>
      </trkpt>
      <trkpt lat="43.2466248795" lon="-8.5373479128">
        <ele>193.74</ele>
        <time>2020-03-14T09:59:46Z</time>
      </trkpt>
      <trkpt lat="43.2465261407" lon="-8.5373453982">
        <ele>192.60</ele>
        <time>2020-03-14T09:59:47Z</time>
      </trkpt>
      <trkpt lat="43.2464307547" lon="-8.5373271257">
        <ele>191.48</ele>
        <time>2020-03-14T09:59:48Z</time>
      </trkpt>
      <trkpt lat="43.2463386375" lon="-8.5372982919">
        <ele>190.34</ele>
        <time>2020-03-14T09:59:49Z</time>
      </trkpt>
      <trkpt lat="43.2462471072" lon="-8.5372659378">
        <ele>189.19</ele>
        <time>2020-03-14T09:59:50Z</time>
      </trkpt>
      <trkpt lat="43.2458047941" lon="-8.5371231940">
        <ele>186.02</ele>
        <time>2020-03-14T09:59:55Z</time>
      </trkpt>
      <trkpt lat="43.2455587853" lon="-8.5370962042">
        <ele>184.77</ele>
        <time>2020-03-14T09:59:58Z</time>
      </trkpt>
      <trkpt lat="43.2454934902" lon="-8.5371019039">
        <ele>184.42</ele>
        <time>2020-03-14T09:59:59Z</time>
      </trkpt>
      <trkpt lat="43.2453890517" lon="-8.5371157341">
        <ele>184.08</ele>
        <time>2020-03-14T10:00:01Z</time>
      </trkpt>
      <trkpt lat="43.2453536801" lon="-8.5371275526">
        <ele>184.00</ele>
        <time>2020-03-14T10:00:02Z</time>
      </trkpt>
      <trkpt lat="43.2453270257" lon="-8.5371355992">
        <ele>183.99</ele>
        <time>2020-03-14T10:00:03Z</time>
      </trkpt>
      <trkpt lat="43.2453043945" lon="-8.5371445678">
        <ele>183.98</ele>
        <time>2020-03-14T10:00:04Z</time>
      </trkpt>
      <trkpt lat="43.2452845294" lon="-8.5371519439">
        <ele>183.98</ele>
        <time>2020-03-14T10:00:05Z</time>
      </trkpt>
      <trkpt lat="43.2451428752" lon="-8.5372193344">
        <ele>187.50</ele>
        <time>2020-03-14T10:00:12Z</time>
      </trkpt>
      <trkpt lat="43.2449573837" lon="-8.5373598151">
        <ele>190.69</ele>
        <time>2020-03-14T10:00:18Z</time>
      </trkpt>
      <trkpt lat="43.2443838101" lon="-8.5377913155">
        <ele>191.62</ele>
        <time>2020-03-14T10:00:29Z</time>
      </trkpt>
      <trkpt lat="43.2437318657" lon="-8.5382881947">
        <ele>188.10</ele>
        <time>2020-03-14T10:00:37Z</time>
      </trkpt>
      <trkpt lat="43.2436595298" lon="-8.5383595247">
        <ele>187.22</ele>
        <time>2020-03-14T10:00:38Z</time>
      </trkpt>
      <trkpt lat="43.2435411774" lon="-8.5385149252">
        <ele>184.94</ele>
        <time>2020-03-14T10:00:40Z</time>
      </trkpt>
      <trkpt lat="43.2434868626" lon="-8.5386003368">
        <ele>183.47</ele>
        <time>2020-03-14T10:00:41Z</time>
      </trkpt>
      <trkpt lat="43.2434427738" lon="-8.5386968963">
        <ele>182.10</ele>
        <time>2020-03-14T10:00:42Z</time>
      </trkpt>
      <trkpt lat="43.2434110902" lon="-8.5388168413">
        <ele>181.03</ele>
        <time>2020-03-14T10:00:43Z</time>
      </trkpt>
      <trkpt lat="43.2433886267" lon="-8.5389411449">
        <ele>180.11</ele>
        <time>2020-03-14T10:00:44Z</time>
      </trkpt>
      <trkpt lat="43.2433648221" lon="-8.5390637722">
        <ele>179.29</ele>
        <time>2020-03-14T10:00:45Z</time>
      </trkpt>
      <trkpt lat="43.2431877125" lon="-8.5397745576">
        <ele>174.81</ele>
        <time>2020-03-14T10:00:51Z</time>
      </trkpt>
      <trkpt lat="43.2431465574" lon="-8.5398817621">
        <ele>174.81</ele>
        <time>2020-03-14T10:00:52Z</time>
      </trkpt>
      <trkpt lat="43.2429777458" lon="-8.5402760468">
        <ele>171.50</ele>
        <time>2020-03-14T10:00:56Z</time>
      </trkpt>
      <trkpt lat="43.2425351813" lon="-8.5410006624">
        <ele>169.78</ele>
        <time>2020-03-14T10:01:04Z</time>
      </trkpt>
      <trkpt lat="43.2424897514" lon="-8.5411063582">
        <ele>169.76</ele>
        <time>2020-03-14T10:01:05Z</time>
      </trkpt>
      <trkpt lat="43.2424536254" lon="-8.5412135627">
        <ele>169.74</ele>
        <time>2020-03-14T10:01:06Z</time>
      </trkpt>
      <trkpt lat="43.2422284037" lon="-8.5420240927">
        <ele>166.39</ele>
        <time>2020-03-14T10:01:14Z</time>
      </trkpt>
      <trkpt lat="43.2420842350" lon="-8.5424475465">
        <ele>165.63</ele>
        <time>2020-03-14T10:01:19Z</time>
      </trkpt>
      <trkpt lat="43.2420434989" lon="-8.5425119195">
        <ele>165.57</ele>
        <time>2020-03-14T10:01:20Z</time>
      </trkpt>
      <trkpt lat="43.2419911958" lon="-8.5425503086">
        <ele>165.53</ele>
        <time>2020-03-14T10:01:21Z</time>
      </trkpt>
      <trkpt lat="43.2419357914" lon="-8.5425754543">
        <ele>165.51</ele>
        <time>2020-03-14T10:01:22Z</time>
      </trkpt>
      <trkpt lat="43.2418859191" lon="-8.5426081438">
        <ele>165.48</ele>
        <time>2020-03-14T10:01:23Z</time>
      </trkpt>
      <trkpt lat="43.2418424170" lon="-8.5426512267">
        <ele>165.44</ele>
        <time>2020-03-14T10:01:24Z</time>
      </trkpt>
      <trkpt lat="43.2418028545" lon="-8.5427008476">
        <ele>165.42</ele>
        <time>2020-03-14T10:01:25Z</time>
      </trkpt>
      <trkpt lat="43.2417668123" lon="-8.5427532345">
        <ele>165.41</ele>
        <time>2020-03-14T10:01:26Z</time>
      </trkpt>
      <trkpt lat="43.2417348772" lon="-8.5428081360">
        <ele>165.40</ele>
        <time>2020-03-14T10:01:27Z</time>
      </trkpt>
      <trkpt lat="43.2417047862" lon="-8.5428626183">
        <ele>165.40</ele>
        <time>2020-03-14T10:01:28Z</time>
      </trkpt>
      <trkpt lat="43.2416361384" lon="-8.5429637041">
        <ele>165.40</ele>
        <time>2020-03-14T10:01:30Z</time>
      </trkpt>
      <trkpt lat="43.2415970787" lon="-8.5430060327">
        <ele>165.43</ele>
        <time>2020-03-14T10:01:31Z</time>
      </trkpt>
      <trkpt lat="43.2415547501" lon="-8.5430384707">
        <ele>165.46</ele>
        <time>2020-03-14T10:01:32Z</time>
      </trkpt>
      <trkpt lat="43.2415089849" lon="-8.5430574138">
        <ele>165.47</ele>
        <time>2020-03-14T10:01:33Z</time>
      </trkpt>
      <trkpt lat="43.2414594479" lon="-8.5430630296">
        <ele>165.52</ele>
        <time>2020-03-14T10:01:34Z</time>
      </trkpt>
      <trkpt lat="43.2414109167" lon="-8.5430555698">
        <ele>165.74</ele>
        <time>2020-03-14T10:01:35Z</time>
      </trkpt>
      <trkpt lat="43.2413650677" lon="-8.5430394765">
        <ele>165.86</ele>
        <time>2020-03-14T10:01:36Z</time>
      </trkpt>
      <trkpt lat="43.2413204759" lon="-8.5430182703">
        <ele>165.97</ele>
        <time>2020-03-14T10:01:37Z</time>
      </trkpt>
      <trkpt lat="43.2412754651" lon="-8.5429979023">
        <ele>166.04</ele>
        <time>2020-03-14T10:01:38Z</time>
      </trkpt>
      <trkpt lat="43.2412299514" lon="-8.5429860000">
        <ele>166.12</ele>
        <time>2020-03-14T10:01:39Z</time>
      </trkpt>
      <trkpt lat="43.2411831804" lon="-8.5429835692">
        <ele>166.16</ele>
        <time>2020-03-14T10:01:40Z</time>
      </trkpt>
      <trkpt lat="43.2411349006" lon="-8.5429892689">
        <ele>166.17</ele>
        <time>2020-03-14T10:01:41Z</time>
      </trkpt>
      <trkpt lat="43.2410896383" lon="-8.5430035181">
        <ele>166.19</ele>
        <time>2020-03-14T10:01:42Z</time>
      </trkpt>
      <trkpt lat="43.2410462201" lon="-8.5430224612">
        <ele>166.20</ele>
        <time>2020-03-14T10:01:43Z</time>
      </trkpt>
      <trkpt lat="43.2409681845" lon="-8.5430676397">
        <ele>166.37</ele>
        <time>2020-03-14T10:01:45Z</time>
      </trkpt>
      <trkpt lat="43.2409359980" lon="-8.5430950485">
        <ele>166.40</ele>
        <time>2020-03-14T10:01:46Z</time>
      </trkpt>
      <trkpt lat="43.2409114391" lon="-8.5431239661">
        <ele>166.42</ele>
        <time>2020-03-14T10:01:47Z</time>
      </trkpt>
      <trkpt lat="43.2405960280" lon="-8.5435063485">
        <ele>168.64</ele>
        <time>2020-03-14T10:02:01Z</time>
      </trkpt>
      <trkpt lat="43.2403972093" lon="-8.5437562130">
        <ele>171.19</ele>
        <time>2020-03-14T10:02:10Z</time>
      </trkpt>
      <trkpt lat="43.2402129751" lon="-8.5440433770">
        <ele>173.57</ele>
        <time>2020-03-14T10:02:22Z</time>
      </trkpt>
      <trkpt lat="43.2400120609" lon="-8.5443369951">
        <ele>176.12</ele>
        <time>2020-03-14T10:02:34Z</time>
      </trkpt>
      <trkpt lat="43.2398688979" lon="-8.5445881169">
        <ele>178.14</ele>
        <time>2020-03-14T10:02:46Z</time>
      </trkpt>
      <trkpt lat="43.2394277584" lon="-8.5450298432">
        <ele>180.68</ele>
        <time>2020-03-14T10:03:01Z</time>
      </trkpt>
      <trkpt lat="43.2393932249" lon="-8.5451076273">
        <ele>180.86</ele>
        <time>2020-03-14T10:03:04Z</time>
      </trkpt>
      <trkpt lat="43.2393901236" lon="-8.5451316833">
        <ele>181.01</ele>
        <time>2020-03-14T10:03:05Z</time>
      </trkpt>
      <trkpt lat="43.2393832505" lon="-8.5451560747">
        <ele>181.09</ele>
        <time>2020-03-14T10:03:06Z</time>
      </trkpt>
      <trkpt lat="43.2393714320" lon="-8.5451798793">
        <ele>181.13</ele>
        <time>2020-03-14T10:03:07Z</time>
      </trkpt>
      <trkpt lat="43.2393555902" lon="-8.5452089645">
        <ele>181.25</ele>
        <time>2020-03-14T10:03:08Z</time>
      </trkpt>
      <trkpt lat="43.2393131778" lon="-8.5455558915">
        <ele>183.95</ele>
        <time>2020-03-14T10:03:19Z</time>
      </trkpt>
      <trkpt lat="43.2393263374" lon="-8.5456389561">
        <ele>184.39</ele>
        <time>2020-03-14T10:03:22Z</time>
      </trkpt>
      <trkpt lat="43.2393268403" lon="-8.5456657782">
        <ele>184.61</ele>
        <time>2020-03-14T10:03:23Z</time>
      </trkpt>
      <trkpt lat="43.2393323723" lon="-8.5456905048">
        <ele>184.85</ele>
        <time>2020-03-14T10:03:24Z</time>
      </trkpt>
      <trkpt lat="43.2393394131" lon="-8.5457205120">
        <ele>185.43</ele>
        <time>2020-03-14T10:03:25Z</time>
      </trkpt>
      <trkpt lat="43.2393459510" lon="-8.5457487591">
        <ele>185.68</ele>
        <time>2020-03-14T10:03:26Z</time>
      </trkpt>
      <trkpt lat="43.2393475436" lon="-8.5457777604">
        <ele>185.95</ele>
        <time>2020-03-14T10:03:27Z</time>
      </trkpt>
      <trkpt lat="43.2393479627" lon="-8.5458040796">
        <ele>186.26</ele>
        <time>2020-03-14T10:03:28Z</time>
      </trkpt>
      <trkpt lat="43.2393210568" lon="-8.5460938420">
        <ele>189.29</ele>
        <time>2020-03-14T10:03:38Z</time>
      </trkpt>
      <trkpt lat="43.2392153610" lon="-8.5464884620">
        <ele>192.54</ele>
        <time>2020-03-14T10:03:52Z</time>
      </trkpt>
      <trkpt lat="43.2392127626" lon="-8.5468623787">
        <ele>195.14</ele>
        <time>2020-03-14T10:04:04Z</time>
      </trkpt>
      <trkpt lat="43.2392231561" lon="-8.5468892008">
        <ele>195.30</ele>
        <time>2020-03-14T10:04:05Z</time>
      </trkpt>
      <trkpt lat="43.2394052949" lon="-8.5470598564">
        <ele>196.98</ele>
        <time>2020-03-14T10:04:16Z</time>
      </trkpt>
      <trkpt lat="43.2394224778" lon="-8.5471826512">
        <ele>198.13</ele>
        <time>2020-03-14T10:04:21Z</time>
      </trkpt>
      <trkpt lat="43.2394110784" lon="-8.5472154245">
        <ele>198.37</ele>
        <time>2020-03-14T10:04:22Z</time>
      </trkpt>
      <trkpt lat="43.2393978350" lon="-8.5472413246">
        <ele>198.68</ele>
        <time>2020-03-14T10:04:23Z</time>
      </trkpt>
      <trkpt lat="43.2392615452" lon="-8.5474268161">
        <ele>201.02</ele>
        <time>2020-03-14T10:04:32Z</time>
      </trkpt>
      <trkpt lat="43.2392524090" lon="-8.5474492796">
        <ele>201.30</ele>
        <time>2020-03-14T10:04:33Z</time>
      </trkpt>
      <trkpt lat="43.2392422669" lon="-8.5474755149">
        <ele>201.67</ele>
        <time>2020-03-14T10:04:34Z</time>
      </trkpt>
      <trkpt lat="43.2392290235" lon="-8.5475032590">
        <ele>202.09</ele>
        <time>2020-03-14T10:04:35Z</time>
      </trkpt>
      <trkpt lat="43.2392136846" lon="-8.5475277342">
        <ele>202.38</ele>
        <time>2020-03-14T10:04:36Z</time>
      </trkpt>
      <trkpt lat="43.2392022014" lon="-8.5475559812">
        <ele>202.67</ele>
        <time>2020-03-14T10:04:37Z</time>
      </trkpt>
      <trkpt lat="43.2391517423" lon="-8.5477440711">
        <ele>204.21</ele>
        <time>2020-03-14T10:04:43Z</time>
      </trkpt>
      <trkpt lat="43.2391298655" lon="-8.5477590747">
        <ele>204.30</ele>
        <time>2020-03-14T10:04:44Z</time>
      </trkpt>
      <trkpt lat="43.2388950046" lon="-8.5480323248">
        <ele>205.65</ele>
        <time>2020-03-14T10:04:54Z</time>
      </trkpt>
      <trkpt lat="43.2386189047" lon="-8.5484875459">
        <ele>206.70</ele>
        <time>2020-03-14T10:05:09Z</time>
      </trkpt>
      <trkpt lat="43.2382761687" lon="-8.5489311162">
        <ele>207.85</ele>
        <time>2020-03-14T10:05:23Z</time>
      </trkpt>
      <trkpt lat="43.2378900144" lon="-8.5495066177">
        <ele>208.10</ele>
        <time>2020-03-14T10:05:38Z</time>
      </trkpt>
      <trkpt lat="43.2376124058" lon="-8.5500967037">
        <ele>208.26</ele>
        <time>2020-03-14T10:05:52Z</time>
      </trkpt>
      <trkpt lat="43.2371840067" lon="-8.5503538605">
        <ele>209.74</ele>
        <time>2020-03-14T10:06:05Z</time>
      </trkpt>
      <trkpt lat="43.2363713812" lon="-8.5506039765">
        <ele>210.87</ele>
        <time>2020-03-14T10:06:26Z</time>
      </trkpt>
      <trkpt lat="43.2362104487" lon="-8.5506645776">
        <ele>210.98</ele>
        <time>2020-03-14T10:06:30Z</time>
      </trkpt>
      <trkpt lat="43.2361804415" lon="-8.5507033858">
        <ele>210.99</ele>
        <time>2020-03-14T10:06:31Z</time>
      </trkpt>
      <trkpt lat="43.2361635100" lon="-8.5507543478">
        <ele>210.99</ele>
        <time>2020-03-14T10:06:32Z</time>
      </trkpt>
      <trkpt lat="43.2361570559" lon="-8.5508109257">
        <ele>210.99</ele>
        <time>2020-03-14T10:06:33Z</time>
      </trkpt>
      <trkpt lat="43.2361544576" lon="-8.5508709401">
        <ele>211.02</ele>
        <time>2020-03-14T10:06:34Z</time>
      </trkpt>
      <trkpt lat="43.2363207545" lon="-8.5513090622">
        <ele>210.92</ele>
        <time>2020-03-14T10:06:44Z</time>
      </trkpt>
      <trkpt lat="43.2364953496" lon="-8.5514912847">
        <ele>211.01</ele>
        <time>2020-03-14T10:06:50Z</time>
      </trkpt>
      <trkpt lat="43.2366356626" lon="-8.5517983977">
        <ele>211.01</ele>
        <time>2020-03-14T10:06:56Z</time>
      </trkpt>
      <trkpt lat="43.2366666757" lon="-8.5519230366">
        <ele>211.01</ele>
        <time>2020-03-14T10:06:58Z</time>
      </trkpt>
      <trkpt lat="43.2367318030" lon="-8.5521688778">
        <ele>210.08</ele>
        <time>2020-03-14T10:07:02Z</time>
      </trkpt>
      <trkpt lat="43.2368882932" lon="-8.5522977915">
        <ele>208.20</ele>
        <time>2020-03-14T10:07:06Z</time>
      </trkpt>
      <trkpt lat="43.2370298635" lon="-8.5524289683">
        <ele>205.58</ele>
        <time>2020-03-14T10:07:10Z</time>
      </trkpt>
      <trkpt lat="43.2371306140" lon="-8.5527350754">
        <ele>201.28</ele>
        <time>2020-03-14T10:07:16Z</time>
      </trkpt>
      <trkpt lat="43.2371028699" lon="-8.5529182199">
        <ele>199.58</ele>
        <time>2020-03-14T10:07:19Z</time>
      </trkpt>
      <trkpt lat="43.2370064780" lon="-8.5531898774">
        <ele>197.72</ele>
        <time>2020-03-14T10:07:23Z</time>
      </trkpt>
      <trkpt lat="43.2368907239" lon="-8.5536725074">
        <ele>195.50</ele>
        <time>2020-03-14T10:07:29Z</time>
      </trkpt>
      <trkpt lat="43.2368521672" lon="-8.5538383015">
        <ele>194.46</ele>
        <time>2020-03-14T10:07:31Z</time>
      </trkpt>
      <trkpt lat="43.2368493173" lon="-8.5542371124">
        <ele>192.09</ele>
        <time>2020-03-14T10:07:37Z</time>
      </trkpt>
      <trkpt lat="43.2370299473" lon="-8.5546072572">
        <ele>189.20</ele>
        <time>2020-03-14T10:07:44Z</time>
      </trkpt>
      <trkpt lat="43.2370186318" lon="-8.5548096802">
        <ele>187.19</ele>
        <time>2020-03-14T10:08:02Z</time>
      </trkpt>
      <trkpt lat="43.2370779756" lon="-8.5550845228">
        <ele>186.17</ele>
        <time>2020-03-14T10:08:24Z</time>
      </trkpt>
      <trkpt lat="43.2370957453" lon="-8.5551107582">
        <ele>185.89</ele>
        <time>2020-03-14T10:08:27Z</time>
      </trkpt>
      <trkpt lat="43.2371230703" lon="-8.5551979300">
        <ele>185.56</ele>
        <time>2020-03-14T10:08:32Z</time>
      </trkpt>
      <trkpt lat="43.2371533290" lon="-8.5554431006">
        <ele>184.57</ele>
        <time>2020-03-14T10:08:47Z</time>
      </trkpt>
      <trkpt lat="43.2372070570" lon="-8.5556424223">
        <ele>183.74</ele>
        <time>2020-03-14T10:09:03Z</time>
      </trkpt>
      <trkpt lat="43.2372503076" lon="-8.5558549874">
        <ele>182.77</ele>
        <time>2020-03-14T10:09:18Z</time>
      </trkpt>
      <trkpt lat="43.2373404969" lon="-8.5562819615">
        <ele>180.45</ele>
        <time>2020-03-14T10:09:29Z</time>
      </trkpt>
      <trkpt lat="43.2374108210" lon="-8.5566205904">
        <ele>179.04</ele>
        <time>2020-03-14T10:09:36Z</time>
      </trkpt>
      <trkpt lat="43.2374491263" lon="-8.5567427147">
        <ele>177.88</ele>
        <time>2020-03-14T10:09:40Z</time>
      </trkpt>
      <trkpt lat="43.2374863420" lon="-8.5569773242">
        <ele>176.20</ele>
        <time>2020-03-14T10:09:45Z</time>
      </trkpt>
      <trkpt lat="43.2375340350" lon="-8.5572599620">
        <ele>175.05</ele>
        <time>2020-03-14T10:09:51Z</time>
      </trkpt>
      <trkpt lat="43.2376187760" lon="-8.5575035401">
        <ele>172.65</ele>
        <time>2020-03-14T10:10:00Z</time>
      </trkpt>
      <trkpt lat="43.2376545668" lon="-8.5577034485">
        <ele>171.59</ele>
        <time>2020-03-14T10:10:09Z</time>
      </trkpt>
      <trkpt lat="43.2377581671" lon="-8.5580581706">
        <ele>170.82</ele>
        <time>2020-03-14T10:10:17Z</time>
      </trkpt>
      <trkpt lat="43.2377839833" lon="-8.5581648722">
        <ele>170.43</ele>
        <time>2020-03-14T10:10:20Z</time>
      </trkpt>
      <trkpt lat="43.2379392162" lon="-8.5583684687">
        <ele>169.25</ele>
        <time>2020-03-14T10:10:31Z</time>
      </trkpt>
      <trkpt lat="43.2382667810" lon="-8.5585772619">
        <ele>168.28</ele>
        <time>2020-03-14T10:10:42Z</time>
      </trkpt>
      <trkpt lat="43.2383985445" lon="-8.5586622544">
        <ele>168.07</ele>
        <time>2020-03-14T10:10:46Z</time>
      </trkpt>
      <trkpt lat="43.2384358440" lon="-8.5589047428">
        <ele>167.13</ele>
        <time>2020-03-14T10:10:53Z</time>
      </trkpt>
      <trkpt lat="43.2385482453" lon="-8.5593369976">
        <ele>165.67</ele>
        <time>2020-03-14T10:11:05Z</time>
      </trkpt>
      <trkpt lat="43.2385668531" lon="-8.5594464652">
        <ele>165.47</ele>
        <time>2020-03-14T10:11:07Z</time>
      </trkpt>
      <trkpt lat="43.2386510074" lon="-8.5598827433">
        <ele>162.20</ele>
        <time>2020-03-14T10:11:18Z</time>
      </trkpt>
      <trkpt lat="43.2386820205" lon="-8.5602040216">
        <ele>159.39</ele>
        <time>2020-03-14T10:11:33Z</time>
      </trkpt>
      <trkpt lat="43.2387338206" lon="-8.5603058618">
        <ele>158.47</ele>
        <time>2020-03-14T10:11:49Z</time>
      </trkpt>
      <trkpt lat="43.2387437113" lon="-8.5603315942">
        <ele>158.50</ele>
        <time>2020-03-14T10:11:51Z</time>
      </trkpt>
      <trkpt lat="43.2388454676" lon="-8.5605253838">
        <ele>158.73</ele>
        <time>2020-03-14T10:12:06Z</time>
      </trkpt>
      <trkpt lat="43.2388938311" lon="-8.5607138090">
        <ele>160.19</ele>
        <time>2020-03-14T10:12:26Z</time>
      </trkpt>
      <trkpt lat="43.2389907259" lon="-8.5610148031">
        <ele>160.26</ele>
        <time>2020-03-14T10:12:35Z</time>
      </trkpt>
      <trkpt lat="43.2389996108" lon="-8.5610550363">
        <ele>160.26</ele>
        <time>2020-03-14T10:12:36Z</time>
      </trkpt>
      <trkpt lat="43.2390238345" lon="-8.5611671023">
        <ele>160.30</ele>
        <time>2020-03-14T10:12:39Z</time>
      </trkpt>
      <trkpt lat="43.2390881237" lon="-8.5614291206">
        <ele>160.85</ele>
        <time>2020-03-14T10:12:46Z</time>
      </trkpt>
      <trkpt lat="43.2391961664" lon="-8.5618544184">
        <ele>162.30</ele>
        <time>2020-03-14T10:12:59Z</time>
      </trkpt>
      <trkpt lat="43.2392191328" lon="-8.5619368963">
        <ele>162.71</ele>
        <time>2020-03-14T10:13:02Z</time>
      </trkpt>
      <trkpt lat="43.2393411733" lon="-8.5623321868">
        <ele>165.57</ele>
        <time>2020-03-14T10:13:15Z</time>
      </trkpt>
      <trkpt lat="43.2394611184" lon="-8.5626902618">
        <ele>167.17</ele>
        <time>2020-03-14T10:13:23Z</time>
      </trkpt>
      <trkpt lat="43.2395096496" lon="-8.5629030783">
        <ele>167.55</ele>
        <time>2020-03-14T10:13:27Z</time>
      </trkpt>
      <trkpt lat="43.2396889385" lon="-8.5632508434">
        <ele>167.58</ele>
        <time>2020-03-14T10:13:35Z</time>
      </trkpt>
      <trkpt lat="43.2397781219" lon="-8.5634082556">
        <ele>167.53</ele>
        <time>2020-03-14T10:13:38Z</time>
      </trkpt>
      <trkpt lat="43.2401039265" lon="-8.5638086591">
        <ele>164.13</ele>
        <time>2020-03-14T10:13:48Z</time>
      </trkpt>
      <trkpt lat="43.2404091954" lon="-8.5639990959">
        <ele>160.91</ele>
        <time>2020-03-14T10:13:56Z</time>
      </trkpt>
      <trkpt lat="43.2406898215" lon="-8.5641083959">
        <ele>158.90</ele>
        <time>2020-03-14T10:14:05Z</time>
      </trkpt>
      <trkpt lat="43.2409038953" lon="-8.5642974917">
        <ele>158.32</ele>
        <time>2020-03-14T10:14:15Z</time>
      </trkpt>
      <trkpt lat="43.2408718765" lon="-8.5643947218">
        <ele>158.29</ele>
        <time>2020-03-14T10:14:18Z</time>
      </trkpt>
      <trkpt lat="43.2408106886" lon="-8.5644725896">
        <ele>158.31</ele>
        <time>2020-03-14T10:14:22Z</time>
      </trkpt>
      <trkpt lat="43.2405588962" lon="-8.5646571591">
        <ele>159.52</ele>
        <time>2020-03-14T10:14:32Z</time>
      </trkpt>
      <trkpt lat="43.2402499393" lon="-8.5648294911">
        <ele>161.28</ele>
        <time>2020-03-14T10:14:46Z</time>
      </trkpt>
      <trkpt lat="43.2399621885" lon="-8.5650188383">
        <ele>163.93</ele>
        <time>2020-03-14T10:14:57Z</time>
      </trkpt>
      <trkpt lat="43.2396745216" lon="-8.5653167311">
        <ele>165.30</ele>
        <time>2020-03-14T10:15:09Z</time>
      </trkpt>
      <trkpt lat="43.2390149496" lon="-8.5655810963">
        <ele>167.72</ele>
        <time>2020-03-14T10:15:31Z</time>
      </trkpt>
      <trkpt lat="43.2386428770" lon="-8.5657014605">
        <ele>170.89</ele>
        <time>2020-03-14T10:15:46Z</time>
      </trkpt>
      <trkpt lat="43.2382550463" lon="-8.5657760594">
        <ele>173.01</ele>
        <time>2020-03-14T10:16:01Z</time>
      </trkpt>
      <trkpt lat="43.2378166728" lon="-8.5661192145">
        <ele>174.55</ele>
        <time>2020-03-14T10:16:14Z</time>
      </trkpt>
      <trkpt lat="43.2374824025" lon="-8.5664552450">
        <ele>176.02</ele>
        <time>2020-03-14T10:16:27Z</time>
      </trkpt>
      <trkpt lat="43.2371824980" lon="-8.5668284912">
        <ele>178.29</ele>
        <time>2020-03-14T10:16:41Z</time>
      </trkpt>
      <trkpt lat="43.2369334716" lon="-8.5672671162">
        <ele>181.38</ele>
        <time>2020-03-14T10:16:55Z</time>
      </trkpt>
      <trkpt lat="43.2366557792" lon="-8.5677422024">
        <ele>183.63</ele>
        <time>2020-03-14T10:17:08Z</time>
      </trkpt>
      <trkpt lat="43.2364244387" lon="-8.5683362279">
        <ele>183.66</ele>
        <time>2020-03-14T10:17:16Z</time>
      </trkpt>
      <trkpt lat="43.2363110315" lon="-8.5689447541">
        <ele>182.37</ele>
        <time>2020-03-14T10:17:21Z</time>
      </trkpt>
      <trkpt lat="43.2363143004" lon="-8.5690801218">
        <ele>181.67</ele>
        <time>2020-03-14T10:17:22Z</time>
      </trkpt>
      <trkpt lat="43.2363334112" lon="-8.5692143999">
        <ele>180.69</ele>
        <time>2020-03-14T10:17:23Z</time>
      </trkpt>
      <trkpt lat="43.2363679446" lon="-8.5693456605">
        <ele>179.49</ele>
        <time>2020-03-14T10:17:24Z</time>
      </trkpt>
      <trkpt lat="43.2364178170" lon="-8.5694730654">
        <ele>178.26</ele>
        <time>2020-03-14T10:17:25Z</time>
      </trkpt>
      <trkpt lat="43.2364795916" lon="-8.5696039069">
        <ele>176.94</ele>
        <time>2020-03-14T10:17:26Z</time>
      </trkpt>
      <trkpt lat="43.2365541067" lon="-8.5697275400">
        <ele>175.88</ele>
        <time>2020-03-14T10:17:27Z</time>
      </trkpt>
      <trkpt lat="43.2366398536" lon="-8.5698417854">
        <ele>175.09</ele>
        <time>2020-03-14T10:17:28Z</time>
      </trkpt>
      <trkpt lat="43.2367302943" lon="-8.5699416976">
        <ele>174.27</ele>
        <time>2020-03-14T10:17:29Z</time>
      </trkpt>
      <trkpt lat="43.2368244231" lon="-8.5700338148">
        <ele>173.47</ele>
        <time>2020-03-14T10:17:30Z</time>
      </trkpt>
      <trkpt lat="43.2369236648" lon="-8.5701139458">
        <ele>172.52</ele>
        <time>2020-03-14T10:17:31Z</time>
      </trkpt>
      <trkpt lat="43.2370291092" lon="-8.5701735411">
        <ele>171.61</ele>
        <time>2020-03-14T10:17:32Z</time>
      </trkpt>
      <trkpt lat="43.2371369004" lon="-8.5702212341">
        <ele>170.63</ele>
        <time>2020-03-14T10:17:33Z</time>
      </trkpt>
      <trkpt lat="43.2372397464" lon="-8.5702540912">
        <ele>169.35</ele>
        <time>2020-03-14T10:17:34Z</time>
      </trkpt>
      <trkpt lat="43.2373346295" lon="-8.5702799913">
        <ele>167.82</ele>
        <time>2020-03-14T10:17:35Z</time>
      </trkpt>
      <trkpt lat="43.2374972384" lon="-8.5703398380">
        <ele>164.38</ele>
        <time>2020-03-14T10:17:37Z</time>
      </trkpt>
      <trkpt lat="43.2375614438" lon="-8.5703739524">
        <ele>162.87</ele>
        <time>2020-03-14T10:17:38Z</time>
      </trkpt>
      <trkpt lat="43.2377123181" lon="-8.5704539996">
        <ele>160.09</ele>
        <time>2020-03-14T10:17:41Z</time>
      </trkpt>
      <trkpt lat="43.2377607655" lon="-8.5704778880">
        <ele>159.62</ele>
        <time>2020-03-14T10:17:42Z</time>
      </trkpt>
      <trkpt lat="43.2378150802" lon="-8.5704929754">
        <ele>159.35</ele>
        <time>2020-03-14T10:17:43Z</time>
      </trkpt>
      <trkpt lat="43.2378735021" lon="-8.5705008544">
        <ele>159.21</ele>
        <time>2020-03-14T10:17:44Z</time>
      </trkpt>
      <trkpt lat="43.2379336003" lon="-8.5704998486">
        <ele>158.94</ele>
        <time>2020-03-14T10:17:45Z</time>
      </trkpt>
      <trkpt lat="43.2379890047" lon="-8.5704865213">
        <ele>158.84</ele>
        <time>2020-03-14T10:17:46Z</time>
      </trkpt>
      <trkpt lat="43.2380346861" lon="-8.5704695899">
        <ele>158.78</ele>
        <time>2020-03-14T10:17:47Z</time>
      </trkpt>
      <trkpt lat="43.2380648609" lon="-8.5704582743">
        <ele>158.61</ele>
        <time>2020-03-14T10:17:48Z</time>
      </trkpt>
      <trkpt lat="43.2380773500" lon="-8.5704647284">
        <ele>158.36</ele>
        <time>2020-03-14T10:17:49Z</time>
      </trkpt>
      <trkpt lat="43.2380766794" lon="-8.5704872757">
        <ele>158.22</ele>
        <time>2020-03-14T10:17:50Z</time>
      </trkpt>
      <trkpt lat="43.2380620949" lon="-8.5705198813">
        <ele>158.09</ele>
        <time>2020-03-14T10:17:51Z</time>
      </trkpt>
      <trkpt lat="43.2380136475" lon="-8.5705892835">
        <ele>157.16</ele>
        <time>2020-03-14T10:17:53Z</time>
      </trkpt>
      <trkpt lat="43.2379896753" lon="-8.5706260800">
        <ele>156.89</ele>
        <time>2020-03-14T10:17:54Z</time>
      </trkpt>
      <trkpt lat="43.2379322592" lon="-8.5707562510">
        <ele>156.61</ele>
        <time>2020-03-14T10:17:57Z</time>
      </trkpt>
      <trkpt lat="43.2379211951" lon="-8.5708208755">
        <ele>156.55</ele>
        <time>2020-03-14T10:17:58Z</time>
      </trkpt>
      <trkpt lat="43.2379103824" lon="-8.5709747672">
        <ele>156.47</ele>
        <time>2020-03-14T10:18:00Z</time>
      </trkpt>
      <trkpt lat="43.2378159184" lon="-8.5713961255">
        <ele>155.02</ele>
        <time>2020-03-14T10:18:09Z</time>
      </trkpt>
      <trkpt lat="43.2377675548" lon="-8.5715586506">
        <ele>154.67</ele>
        <time>2020-03-14T10:18:14Z</time>
      </trkpt>
      <trkpt lat="43.2376948837" lon="-8.5719453916">
        <ele>154.98</ele>
        <time>2020-03-14T10:18:24Z</time>
      </trkpt>
      <trkpt lat="43.2376445085" lon="-8.5722611379">
        <ele>156.75</ele>
        <time>2020-03-14T10:18:33Z</time>
      </trkpt>
      <trkpt lat="43.2375587616" lon="-8.5728574265">
        <ele>159.34</ele>
        <time>2020-03-14T10:18:47Z</time>
      </trkpt>
      <trkpt lat="43.2374021038" lon="-8.5732678045">
        <ele>161.17</ele>
        <time>2020-03-14T10:19:00Z</time>
      </trkpt>
      <trkpt lat="43.2373109087" lon="-8.5735602491">
        <ele>163.52</ele>
        <time>2020-03-14T10:19:10Z</time>
      </trkpt>
      <trkpt lat="43.2372412551" lon="-8.5737281386">
        <ele>164.91</ele>
        <time>2020-03-14T10:19:18Z</time>
      </trkpt>
      <trkpt lat="43.2374052890" lon="-8.5739285499">
        <ele>165.62</ele>
        <time>2020-03-14T10:19:26Z</time>
      </trkpt>
      <trkpt lat="43.2374696620" lon="-8.5742135346">
        <ele>164.87</ele>
        <time>2020-03-14T10:19:31Z</time>
      </trkpt>
      <trkpt lat="43.2376227994" lon="-8.5747382417">
        <ele>161.19</ele>
        <time>2020-03-14T10:19:41Z</time>
      </trkpt>
      <trkpt lat="43.2376303431" lon="-8.5747622978">
        <ele>160.84</ele>
        <time>2020-03-14T10:19:42Z</time>
      </trkpt>
      <trkpt lat="43.2377347816" lon="-8.5749816522">
        <ele>159.40</ele>
        <time>2020-03-14T10:19:47Z</time>
      </trkpt>
      <trkpt lat="43.2378211990" lon="-8.5753482766">
        <ele>156.32</ele>
        <time>2020-03-14T10:19:52Z</time>
      </trkpt>
      <trkpt lat="43.2378900982" lon="-8.5756597482">
        <ele>151.80</ele>
        <time>2020-03-14T10:19:58Z</time>
      </trkpt>
      <trkpt lat="43.2379384618" lon="-8.5757948644">
        <ele>150.48</ele>
        <time>2020-03-14T10:20:01Z</time>
      </trkpt>
      <trkpt lat="43.2381102908" lon="-8.5760736465">
        <ele>150.05</ele>
        <time>2020-03-14T10:20:08Z</time>
      </trkpt>
      <trkpt lat="43.2383076847" lon="-8.5763478186">
        <ele>149.95</ele>
        <time>2020-03-14T10:20:15Z</time>
      </trkpt>
      <trkpt lat="43.2385248598" lon="-8.5768673290">
        <ele>149.65</ele>
        <time>2020-03-14T10:20:26Z</time>
      </trkpt>
      <trkpt lat="43.2385821082" lon="-8.5769389942">
        <ele>149.55</ele>
        <time>2020-03-14T10:20:28Z</time>
      </trkpt>
      <trkpt lat="43.2386173122" lon="-8.5770288482">
        <ele>149.47</ele>
        <time>2020-03-14T10:20:31Z</time>
      </trkpt>
      <trkpt lat="43.2388457190" lon="-8.5774083808">
        <ele>149.20</ele>
        <time>2020-03-14T10:20:41Z</time>
      </trkpt>
      <trkpt lat="43.2389566954" lon="-8.5777736641">
        <ele>149.06</ele>
        <time>2020-03-14T10:20:49Z</time>
      </trkpt>
      <trkpt lat="43.2390228286" lon="-8.5779166594">
        <ele>149.10</ele>
        <time>2020-03-14T10:20:56Z</time>
      </trkpt>
      <trkpt lat="43.2390755508" lon="-8.5781094432">
        <ele>149.13</ele>
        <time>2020-03-14T10:21:01Z</time>
      </trkpt>
      <trkpt lat="43.2392218988" lon="-8.5784216691">
        <ele>149.09</ele>
        <time>2020-03-14T10:21:11Z</time>
      </trkpt>
      <trkpt lat="43.2393274270" lon="-8.5786113515">
        <ele>149.05</ele>
        <time>2020-03-14T10:21:16Z</time>
      </trkpt>
      <trkpt lat="43.2394530717" lon="-8.5786874592">
        <ele>149.22</ele>
        <time>2020-03-14T10:21:20Z</time>
      </trkpt>
      <trkpt lat="43.2396876812" lon="-8.5789248347">
        <ele>149.09</ele>
        <time>2020-03-14T10:21:29Z</time>
      </trkpt>
      <trkpt lat="43.2398041897" lon="-8.5792720132">
        <ele>148.96</ele>
        <time>2020-03-14T10:21:40Z</time>
      </trkpt>
      <trkpt lat="43.2399157528" lon="-8.5796838999">
        <ele>148.81</ele>
        <time>2020-03-14T10:21:48Z</time>
      </trkpt>
      <trkpt lat="43.2399333548" lon="-8.5797850695">
        <ele>148.72</ele>
        <time>2020-03-14T10:21:50Z</time>
      </trkpt>
      <trkpt lat="43.2398305088" lon="-8.5799975507">
        <ele>148.55</ele>
        <time>2020-03-14T10:21:55Z</time>
      </trkpt>
      <trkpt lat="43.2398073748" lon="-8.5802100319">
        <ele>148.26</ele>
        <time>2020-03-14T10:22:00Z</time>
      </trkpt>
      <trkpt lat="43.2397785410" lon="-8.5802526958">
        <ele>148.23</ele>
        <time>2020-03-14T10:22:02Z</time>
      </trkpt>
      <trkpt lat="43.2397805527" lon="-8.5803482495">
        <ele>148.09</ele>
        <time>2020-03-14T10:22:07Z</time>
      </trkpt>
      <trkpt lat="43.2398124039" lon="-8.5804614052">
        <ele>148.08</ele>
        <time>2020-03-14T10:22:12Z</time>
      </trkpt>
      <trkpt lat="43.2398704067" lon="-8.5806945898">
        <ele>147.92</ele>
        <time>2020-03-14T10:22:45Z</time>
      </trkpt>
      <trkpt lat="43.2399193570" lon="-8.5808581207">
        <ele>148.04</ele>
        <time>2020-03-14T10:22:56Z</time>
      </trkpt>
      <trkpt lat="43.2400127314" lon="-8.5808716994">
        <ele>148.30</ele>
        <time>2020-03-14T10:24:06Z</time>
      </trkpt>
      <trkpt lat="43.2400263101" lon="-8.5810410976">
        <ele>148.58</ele>
        <time>2020-03-14T10:24:56Z</time>
      </trkpt>
      <trkpt lat="43.2400375418" lon="-8.5811555944">
        <ele>148.53</ele>
        <time>2020-03-14T10:24:59Z</time>
      </trkpt>
      <trkpt lat="43.2401164155" lon="-8.5815595184">
        <ele>148.42</ele>
        <time>2020-03-14T10:25:08Z</time>
      </trkpt>
      <trkpt lat="43.2401194330" lon="-8.5818963032">
        <ele>148.67</ele>
        <time>2020-03-14T10:25:19Z</time>
      </trkpt>
      <trkpt lat="43.2401392143" lon="-8.5819070321">
        <ele>148.95</ele>
        <time>2020-03-14T10:25:20Z</time>
      </trkpt>
      <trkpt lat="43.2401912659" lon="-8.5822173301">
        <ele>149.24</ele>
        <time>2020-03-14T10:25:29Z</time>
      </trkpt>
      <trkpt lat="43.2402050123" lon="-8.5823936015">
        <ele>148.47</ele>
        <time>2020-03-14T10:25:33Z</time>
      </trkpt>
      <trkpt lat="43.2402994763" lon="-8.5826941766">
        <ele>148.16</ele>
        <time>2020-03-14T10:25:45Z</time>
      </trkpt>
      <trkpt lat="43.2404627558" lon="-8.5827743076">
        <ele>148.31</ele>
        <time>2020-03-14T10:25:51Z</time>
      </trkpt>
      <trkpt lat="43.2405418810" lon="-8.5827200767">
        <ele>148.39</ele>
        <time>2020-03-14T10:25:54Z</time>
      </trkpt>
      <trkpt lat="43.2407479919" lon="-8.5826058313">
        <ele>148.34</ele>
        <time>2020-03-14T10:26:02Z</time>
      </trkpt>
      <trkpt lat="43.2410016283" lon="-8.5826382693">
        <ele>147.29</ele>
        <time>2020-03-14T10:26:10Z</time>
      </trkpt>
      <trkpt lat="43.2410639897" lon="-8.5824670270">
        <ele>147.08</ele>
        <time>2020-03-14T10:26:15Z</time>
      </trkpt>
      <trkpt lat="43.2411676738" lon="-8.5823208466">
        <ele>146.78</ele>
        <time>2020-03-14T10:26:21Z</time>
      </trkpt>
      <trkpt lat="43.2412633952" lon="-8.5822350159">
        <ele>146.71</ele>
        <time>2020-03-14T10:26:26Z</time>
      </trkpt>
      <trkpt lat="43.2412650716" lon="-8.5818492807">
        <ele>146.58</ele>
        <time>2020-03-14T10:26:34Z</time>
      </trkpt>
      <trkpt lat="43.2412753813" lon="-8.5817669705">
        <ele>146.55</ele>
        <time>2020-03-14T10:26:36Z</time>
      </trkpt>
      <trkpt lat="43.2413551770" lon="-8.5813127551">
        <ele>146.15</ele>
        <time>2020-03-14T10:26:46Z</time>
      </trkpt>
      <trkpt lat="43.2415169477" lon="-8.5811141878">
        <ele>145.53</ele>
        <time>2020-03-14T10:26:53Z</time>
      </trkpt>
      <trkpt lat="43.2415974140" lon="-8.5812312830">
        <ele>145.41</ele>
        <time>2020-03-14T10:26:59Z</time>
      </trkpt>
      <trkpt lat="43.2416057959" lon="-8.5814428423">
        <ele>145.75</ele>
        <time>2020-03-14T10:27:04Z</time>
      </trkpt>
      <trkpt lat="43.2418134995" lon="-8.5816064570">
        <ele>145.94</ele>
        <time>2020-03-14T10:27:12Z</time>
      </trkpt>
      <trkpt lat="43.2420300040" lon="-8.5814692453">
        <ele>145.82</ele>
        <time>2020-03-14T10:27:19Z</time>
      </trkpt>
      <trkpt lat="43.2421465963" lon="-8.5814737715">
        <ele>145.61</ele>
        <time>2020-03-14T10:27:23Z</time>
      </trkpt>
      <trkpt lat="43.2422423176" lon="-8.5815368034">
        <ele>145.28</ele>
        <time>2020-03-14T10:27:26Z</time>
      </trkpt>
      <trkpt lat="43.2422708999" lon="-8.5816469416">
        <ele>145.22</ele>
        <time>2020-03-14T10:27:30Z</time>
      </trkpt>
      <trkpt lat="43.2424888294" lon="-8.5819284897">
        <ele>145.37</ele>
        <time>2020-03-14T10:27:37Z</time>
      </trkpt>
      <trkpt lat="43.2427091058" lon="-8.5820474289">
        <ele>145.26</ele>
        <time>2020-03-14T10:27:42Z</time>
      </trkpt>
      <trkpt lat="43.2427955233" lon="-8.5821157414">
        <ele>145.23</ele>
        <time>2020-03-14T10:27:44Z</time>
      </trkpt>
      <trkpt lat="43.2430095132" lon="-8.5824522749">
        <ele>144.45</ele>
        <time>2020-03-14T10:27:52Z</time>
      </trkpt>
      <trkpt lat="43.2430707850" lon="-8.5828869604">
        <ele>144.33</ele>
        <time>2020-03-14T10:28:01Z</time>
      </trkpt>
      <trkpt lat="43.2430755626" lon="-8.5829872917">
        <ele>144.34</ele>
        <time>2020-03-14T10:28:03Z</time>
      </trkpt>
      <trkpt lat="43.2430570386" lon="-8.5834189598">
        <ele>144.36</ele>
        <time>2020-03-14T10:28:14Z</time>
      </trkpt>
      <trkpt lat="43.2430738863" lon="-8.5834485479">
        <ele>144.35</ele>
        <time>2020-03-14T10:28:15Z</time>
      </trkpt>
      <trkpt lat="43.2430792507" lon="-8.5837134998">
        <ele>144.29</ele>
        <time>2020-03-14T10:28:20Z</time>
      </trkpt>
      <trkpt lat="43.2431003731" lon="-8.5838897713">
        <ele>144.22</ele>
        <time>2020-03-14T10:28:23Z</time>
      </trkpt>
      <trkpt lat="43.2431504969" lon="-8.5841680504">
        <ele>144.16</ele>
        <time>2020-03-14T10:28:28Z</time>
      </trkpt>
      <trkpt lat="43.2434121799" lon="-8.5846707970">
        <ele>143.92</ele>
        <time>2020-03-14T10:28:38Z</time>
      </trkpt>
      <trkpt lat="43.2434409298" lon="-8.5849199072">
        <ele>143.76</ele>
        <time>2020-03-14T10:28:42Z</time>
      </trkpt>
      <trkpt lat="43.2434560172" lon="-8.5851027165">
        <ele>143.54</ele>
        <time>2020-03-14T10:28:45Z</time>
      </trkpt>
      <trkpt lat="43.2434799895" lon="-8.5852711089">
        <ele>143.32</ele>
        <time>2020-03-14T10:28:48Z</time>
      </trkpt>
      <trkpt lat="43.2434339728" lon="-8.5855099931">
        <ele>143.12</ele>
        <time>2020-03-14T10:28:52Z</time>
      </trkpt>
      <trkpt lat="43.2432596292" lon="-8.5857619531">
        <ele>142.99</ele>
        <time>2020-03-14T10:28:57Z</time>
      </trkpt>
      <trkpt lat="43.2429672685" lon="-8.5862169228">
        <ele>143.15</ele>
        <time>2020-03-14T10:29:08Z</time>
      </trkpt>
      <trkpt lat="43.2429562043" lon="-8.5862752609">
        <ele>143.21</ele>
        <time>2020-03-14T10:29:09Z</time>
      </trkpt>
      <trkpt lat="43.2427285518" lon="-8.5866184998">
        <ele>143.59</ele>
        <time>2020-03-14T10:29:18Z</time>
      </trkpt>
      <trkpt lat="43.2426483370" lon="-8.5868215933">
        <ele>143.69</ele>
        <time>2020-03-14T10:29:22Z</time>
      </trkpt>
      <trkpt lat="43.2424347661" lon="-8.5872967634">
        <ele>143.45</ele>
        <time>2020-03-14T10:29:32Z</time>
      </trkpt>
      <trkpt lat="43.2422574051" lon="-8.5874658264">
        <ele>143.10</ele>
        <time>2020-03-14T10:29:39Z</time>
      </trkpt>
      <trkpt lat="43.2421644498" lon="-8.5876341350">
        <ele>142.93</ele>
        <time>2020-03-14T10:29:44Z</time>
      </trkpt>
      <trkpt lat="43.2420186885" lon="-8.5874843504">
        <ele>142.65</ele>
        <time>2020-03-14T10:29:51Z</time>
      </trkpt>
      <trkpt lat="43.2420051936" lon="-8.5874410998">
        <ele>142.61</ele>
        <time>2020-03-14T10:29:52Z</time>
      </trkpt>
      <trkpt lat="43.2419129927" lon="-8.5870722122">
        <ele>142.43</ele>
        <time>2020-03-14T10:30:02Z</time>
      </trkpt>
      <trkpt lat="43.2416077238" lon="-8.5869619902">
        <ele>145.11</ele>
        <time>2020-03-14T10:30:13Z</time>
      </trkpt>
      <trkpt lat="43.2414998487" lon="-8.5870014690">
        <ele>147.44</ele>
        <time>2020-03-14T10:30:24Z</time>
      </trkpt>
      <trkpt lat="43.2414978370" lon="-8.5869966075">
        <ele>141.90</ele>
        <time>2020-03-14T10:30:32Z</time>
      </trkpt>
      <trkpt lat="43.2414953224" lon="-8.5869994573">
        <ele>144.45</ele>
        <time>2020-03-14T10:30:35Z</time>
      </trkpt>
      <trkpt lat="43.2414834201" lon="-8.5869867168">
        <ele>144.37</ele>
        <time>2020-03-14T10:31:17Z</time>
      </trkpt>
      <trkpt lat="43.2414932270" lon="-8.5870997049">
        <ele>144.43</ele>
        <time>2020-03-14T10:31:22Z</time>
      </trkpt>
      <trkpt lat="43.2415070571" lon="-8.5871395189">
        <ele>144.44</ele>
        <time>2020-03-14T10:31:23Z</time>
      </trkpt>
      <trkpt lat="43.2415192109" lon="-8.5871859547">
        <ele>144.45</ele>
        <time>2020-03-14T10:31:24Z</time>
      </trkpt>
      <trkpt lat="43.2416423410" lon="-8.5876975860">
        <ele>144.07</ele>
        <time>2020-03-14T10:31:35Z</time>
      </trkpt>
      <trkpt lat="43.2416273374" lon="-8.5877387412">
        <ele>144.03</ele>
        <time>2020-03-14T10:31:36Z</time>
      </trkpt>
      <trkpt lat="43.2412739564" lon="-8.5878974944">
        <ele>143.93</ele>
        <time>2020-03-14T10:31:43Z</time>
      </trkpt>
      <trkpt lat="43.2410499081" lon="-8.5880733468">
        <ele>143.88</ele>
        <time>2020-03-14T10:31:46Z</time>
      </trkpt>
      <trkpt lat="43.2407632470" lon="-8.5884311702">
        <ele>140.75</ele>
        <time>2020-03-14T10:31:51Z</time>
      </trkpt>
      <trkpt lat="43.2406253647" lon="-8.5886161588">
        <ele>136.77</ele>
        <time>2020-03-14T10:31:54Z</time>
      </trkpt>
      <trkpt lat="43.2405846287" lon="-8.5886656959">
        <ele>136.54</ele>
        <time>2020-03-14T10:31:55Z</time>
      </trkpt>
      <trkpt lat="43.2405099459" lon="-8.5887623392">
        <ele>136.36</ele>
        <time>2020-03-14T10:31:57Z</time>
      </trkpt>
      <trkpt lat="43.2404247019" lon="-8.5889837891">
        <ele>136.31</ele>
        <time>2020-03-14T10:32:01Z</time>
      </trkpt>
      <trkpt lat="43.2403823733" lon="-8.5894838534">
        <ele>136.65</ele>
        <time>2020-03-14T10:32:11Z</time>
      </trkpt>
      <trkpt lat="43.2404089440" lon="-8.5896296985">
        <ele>136.62</ele>
        <time>2020-03-14T10:32:15Z</time>
      </trkpt>
      <trkpt lat="43.2403914258" lon="-8.5897883680">
        <ele>136.55</ele>
        <time>2020-03-14T10:32:20Z</time>
      </trkpt>
      <trkpt lat="43.2403763384" lon="-8.5900038667">
        <ele>136.62</ele>
        <time>2020-03-14T10:32:27Z</time>
      </trkpt>
      <trkpt lat="43.2403265499" lon="-8.5902011767">
        <ele>137.13</ele>
        <time>2020-03-14T10:32:32Z</time>
      </trkpt>
      <trkpt lat="43.2401159126" lon="-8.5903672222">
        <ele>137.58</ele>
        <time>2020-03-14T10:32:43Z</time>
      </trkpt>
      <trkpt lat="43.2399768569" lon="-8.5903982352">
        <ele>137.26</ele>
        <time>2020-03-14T10:32:48Z</time>
      </trkpt>
      <trkpt lat="43.2396708336" lon="-8.5906784423">
        <ele>136.20</ele>
        <time>2020-03-14T10:32:59Z</time>
      </trkpt>
      <trkpt lat="43.2395024411" lon="-8.5907759238">
        <ele>135.90</ele>
        <time>2020-03-14T10:33:05Z</time>
      </trkpt>
      <trkpt lat="43.2393195480" lon="-8.5910326615">
        <ele>135.73</ele>
        <time>2020-03-14T10:33:15Z</time>
      </trkpt>
      <trkpt lat="43.2394037861" lon="-8.5911010578">
        <ele>135.96</ele>
        <time>2020-03-14T10:33:21Z</time>
      </trkpt>
      <trkpt lat="43.2396422513" lon="-8.5912404489">
        <ele>137.42</ele>
        <time>2020-03-14T10:33:33Z</time>
      </trkpt>
      <trkpt lat="43.2399172615" lon="-8.5914812610">
        <ele>139.86</ele>
        <time>2020-03-14T10:33:43Z</time>
      </trkpt>
      <trkpt lat="43.2402669545" lon="-8.5917251743">
        <ele>141.45</ele>
        <time>2020-03-14T10:33:55Z</time>
      </trkpt>
      <trkpt lat="43.2405116223" lon="-8.5920104943">
        <ele>141.88</ele>
        <time>2020-03-14T10:34:04Z</time>
      </trkpt>
      <trkpt lat="43.2408405282" lon="-8.5923973192">
        <ele>141.83</ele>
        <time>2020-03-14T10:34:15Z</time>
      </trkpt>
      <trkpt lat="43.2408513408" lon="-8.5929283127">
        <ele>141.35</ele>
        <time>2020-03-14T10:34:26Z</time>
      </trkpt>
      <trkpt lat="43.2408004627" lon="-8.5936581250">
        <ele>143.87</ele>
        <time>2020-03-14T10:34:43Z</time>
      </trkpt>
      <trkpt lat="43.2407036517" lon="-8.5938351508">
        <ele>144.23</ele>
        <time>2020-03-14T10:34:47Z</time>
      </trkpt>
      <trkpt lat="43.2406044099" lon="-8.5939887911">
        <ele>144.25</ele>
        <time>2020-03-14T10:34:50Z</time>
      </trkpt>
      <trkpt lat="43.2402504422" lon="-8.5946759395">
        <ele>141.02</ele>
        <time>2020-03-14T10:35:01Z</time>
      </trkpt>
      <trkpt lat="43.2401872426" lon="-8.5947958007">
        <ele>139.54</ele>
        <time>2020-03-14T10:35:03Z</time>
      </trkpt>
      <trkpt lat="43.2401386276" lon="-8.5949074477">
        <ele>138.87</ele>
        <time>2020-03-14T10:35:05Z</time>
      </trkpt>
      <trkpt lat="43.2400659565" lon="-8.5950191785">
        <ele>138.51</ele>
        <time>2020-03-14T10:35:07Z</time>
      </trkpt>
      <trkpt lat="43.2398588397" lon="-8.5951941088">
        <ele>137.97</ele>
        <time>2020-03-14T10:35:12Z</time>
      </trkpt>
      <trkpt lat="43.2394380681" lon="-8.5952734854">
        <ele>137.87</ele>
        <time>2020-03-14T10:35:26Z</time>
      </trkpt>
      <trkpt lat="43.2392823324" lon="-8.5955111124">
        <ele>140.70</ele>
        <time>2020-03-14T10:35:36Z</time>
      </trkpt>
      <trkpt lat="43.2391928136" lon="-8.5956580471">
        <ele>142.23</ele>
        <time>2020-03-14T10:35:40Z</time>
      </trkpt>
      <trkpt lat="43.2391774748" lon="-8.5957111046">
        <ele>142.39</ele>
        <time>2020-03-14T10:35:41Z</time>
      </trkpt>
      <trkpt lat="43.2391702663" lon="-8.5957647488">
        <ele>142.47</ele>
        <time>2020-03-14T10:35:42Z</time>
      </trkpt>
      <trkpt lat="43.2391724456" lon="-8.5958181415">
        <ele>142.51</ele>
        <time>2020-03-14T10:35:43Z</time>
      </trkpt>
      <trkpt lat="43.2391855214" lon="-8.5958630685">
        <ele>142.56</ele>
        <time>2020-03-14T10:35:44Z</time>
      </trkpt>
      <trkpt lat="43.2392011117" lon="-8.5959019605">
        <ele>142.61</ele>
        <time>2020-03-14T10:35:45Z</time>
      </trkpt>
      <trkpt lat="43.2392121758" lon="-8.5959470551">
        <ele>142.73</ele>
        <time>2020-03-14T10:35:46Z</time>
      </trkpt>
      <trkpt lat="43.2392214797" lon="-8.5959894676">
        <ele>142.86</ele>
        <time>2020-03-14T10:35:47Z</time>
      </trkpt>
      <trkpt lat="43.2392286044" lon="-8.5960335564">
        <ele>142.93</ele>
        <time>2020-03-14T10:35:48Z</time>
      </trkpt>
      <trkpt lat="43.2392369024" lon="-8.5962555930">
        <ele>143.27</ele>
        <time>2020-03-14T10:35:53Z</time>
      </trkpt>
      <trkpt lat="43.2392224018" lon="-8.5962788947">
        <ele>143.31</ele>
        <time>2020-03-14T10:35:54Z</time>
      </trkpt>
      <trkpt lat="43.2391942386" lon="-8.5962813254">
        <ele>143.34</ele>
        <time>2020-03-14T10:35:55Z</time>
      </trkpt>
      <trkpt lat="43.2391111739" lon="-8.5962812416">
        <ele>143.26</ele>
        <time>2020-03-14T10:35:57Z</time>
      </trkpt>
      <trkpt lat="43.2390607987" lon="-8.5962898750">
        <ele>143.17</ele>
        <time>2020-03-14T10:35:58Z</time>
      </trkpt>
      <trkpt lat="43.2386612333" lon="-8.5963567626">
        <ele>142.41</ele>
        <time>2020-03-14T10:36:05Z</time>
      </trkpt>
      <trkpt lat="43.2386024762" lon="-8.5963482130">
        <ele>141.65</ele>
        <time>2020-03-14T10:36:06Z</time>
      </trkpt>
      <trkpt lat="43.2385443058" lon="-8.5963089857">
        <ele>140.90</ele>
        <time>2020-03-14T10:36:07Z</time>
      </trkpt>
      <trkpt lat="43.2384945173" lon="-8.5962394997">
        <ele>140.08</ele>
        <time>2020-03-14T10:36:08Z</time>
      </trkpt>
      <trkpt lat="43.2384511828" lon="-8.5961638112">
        <ele>139.18</ele>
        <time>2020-03-14T10:36:09Z</time>
      </trkpt>
      <trkpt lat="43.2384096086" lon="-8.5961010307">
        <ele>138.16</ele>
        <time>2020-03-14T10:36:10Z</time>
      </trkpt>
      <trkpt lat="43.2383690402" lon="-8.5960535891">
        <ele>136.85</ele>
        <time>2020-03-14T10:36:11Z</time>
      </trkpt>
      <trkpt lat="43.2383366860" lon="-8.5960136913">
        <ele>135.60</ele>
        <time>2020-03-14T10:36:12Z</time>
      </trkpt>
      <trkpt lat="43.2383122947" lon="-8.5959681775">
        <ele>134.65</ele>
        <time>2020-03-14T10:36:13Z</time>
      </trkpt>
      <trkpt lat="43.2382967044" lon="-8.5959247593">
        <ele>133.63</ele>
        <time>2020-03-14T10:36:14Z</time>
      </trkpt>
      <trkpt lat="43.2382856403" lon="-8.5958839394">
        <ele>132.85</ele>
        <time>2020-03-14T10:36:15Z</time>
      </trkpt>
      <trkpt lat="43.2382782642" lon="-8.5958428681">
        <ele>132.39</ele>
        <time>2020-03-14T10:36:16Z</time>
      </trkpt>
      <trkpt lat="43.2382748276" lon="-8.5957987793">
        <ele>132.15</ele>
        <time>2020-03-14T10:36:17Z</time>
      </trkpt>
      <trkpt lat="43.2382735703" lon="-8.5957575403">
        <ele>132.03</ele>
        <time>2020-03-14T10:36:18Z</time>
      </trkpt>
      <trkpt lat="43.2382404618" lon="-8.5951138102">
        <ele>133.72</ele>
        <time>2020-03-14T10:36:36Z</time>
      </trkpt>
      <trkpt lat="43.2380944490" lon="-8.5948170070">
        <ele>136.85</ele>
        <time>2020-03-14T10:36:49Z</time>
      </trkpt>
      <trkpt lat="43.2378770225" lon="-8.5946495365">
        <ele>140.03</ele>
        <time>2020-03-14T10:37:01Z</time>
      </trkpt>
      <trkpt lat="43.2376535609" lon="-8.5944971535">
        <ele>143.25</ele>
        <time>2020-03-14T10:37:14Z</time>
      </trkpt>
      <trkpt lat="43.2374979928" lon="-8.5943993367">
        <ele>146.53</ele>
        <time>2020-03-14T10:37:24Z</time>
      </trkpt>
      <trkpt lat="43.2373860944" lon="-8.5943078902">
        <ele>149.66</ele>
        <time>2020-03-14T10:37:34Z</time>
      </trkpt>
      <trkpt lat="43.2373150997" lon="-8.5942809004">
        <ele>151.58</ele>
        <time>2020-03-14T10:37:39Z</time>
      </trkpt>
      <trkpt lat="43.2373007666" lon="-8.5942731053">
        <ele>151.96</ele>
        <time>2020-03-14T10:37:40Z</time>
      </trkpt>
      <trkpt lat="43.2372868527" lon="-8.5942623764">
        <ele>152.34</ele>
        <time>2020-03-14T10:37:41Z</time>
      </trkpt>
      <trkpt lat="43.2372741960" lon="-8.5942503903">
        <ele>152.63</ele>
        <time>2020-03-14T10:37:42Z</time>
      </trkpt>
      <trkpt lat="43.2372608688" lon="-8.5942380689">
        <ele>152.86</ele>
        <time>2020-03-14T10:37:43Z</time>
      </trkpt>
      <trkpt lat="43.2372499723" lon="-8.5942265857">
        <ele>153.18</ele>
        <time>2020-03-14T10:37:44Z</time>
      </trkpt>
      <trkpt lat="43.2371583581" lon="-8.5941048805">
        <ele>156.18</ele>
        <time>2020-03-14T10:37:53Z</time>
      </trkpt>
      <trkpt lat="43.2370425202" lon="-8.5938695166">
        <ele>159.34</ele>
        <time>2020-03-14T10:38:06Z</time>
      </trkpt>
      <trkpt lat="43.2369912229" lon="-8.5936590470">
        <ele>161.89</ele>
        <time>2020-03-14T10:38:15Z</time>
      </trkpt>
      <trkpt lat="43.2369814161" lon="-8.5936144553">
        <ele>163.58</ele>
        <time>2020-03-14T10:38:23Z</time>
      </trkpt>
      <trkpt lat="43.2369935699" lon="-8.5936230049">
        <ele>163.65</ele>
        <time>2020-03-14T10:38:24Z</time>
      </trkpt>
      <trkpt lat="43.2370005269" lon="-8.5936934128">
        <ele>163.96</ele>
        <time>2020-03-14T10:38:27Z</time>
      </trkpt>
      <trkpt lat="43.2371627167" lon="-8.5941063054">
        <ele>163.94</ele>
        <time>2020-03-14T10:38:37Z</time>
      </trkpt>
      <trkpt lat="43.2372804824" lon="-8.5942884441">
        <ele>161.45</ele>
        <time>2020-03-14T10:38:43Z</time>
      </trkpt>
      <trkpt lat="43.2372845896" lon="-8.5943320300">
        <ele>160.85</ele>
        <time>2020-03-14T10:38:44Z</time>
      </trkpt>
      <trkpt lat="43.2372826617" lon="-8.5943731852">
        <ele>160.18</ele>
        <time>2020-03-14T10:38:45Z</time>
      </trkpt>
      <trkpt lat="43.2372584380" lon="-8.5944383964">
        <ele>159.08</ele>
        <time>2020-03-14T10:38:47Z</time>
      </trkpt>
      <trkpt lat="43.2371539995" lon="-8.5946289171">
        <ele>156.11</ele>
        <time>2020-03-14T10:38:53Z</time>
      </trkpt>
      <trkpt lat="43.2369162049" lon="-8.5949859861">
        <ele>156.13</ele>
        <time>2020-03-14T10:39:06Z</time>
      </trkpt>
      <trkpt lat="43.2368201483" lon="-8.5950874910">
        <ele>158.76</ele>
        <time>2020-03-14T10:39:19Z</time>
      </trkpt>
      <trkpt lat="43.2367059868" lon="-8.5951869842">
        <ele>161.80</ele>
        <time>2020-03-14T10:39:33Z</time>
      </trkpt>
      <trkpt lat="43.2365850359" lon="-8.5952824540">
        <ele>164.93</ele>
        <time>2020-03-14T10:39:47Z</time>
      </trkpt>
      <trkpt lat="43.2364885602" lon="-8.5953591485">
        <ele>167.94</ele>
        <time>2020-03-14T10:39:59Z</time>
      </trkpt>
      <trkpt lat="43.2363577187" lon="-8.5954520199">
        <ele>171.03</ele>
        <time>2020-03-14T10:40:14Z</time>
      </trkpt>
      <trkpt lat="43.2362122927" lon="-8.5955711268">
        <ele>174.08</ele>
        <time>2020-03-14T10:40:30Z</time>
      </trkpt>
      <trkpt lat="43.2361034956" lon="-8.5955702048">
        <ele>176.36</ele>
        <time>2020-03-14T10:40:44Z</time>
      </trkpt>
      <trkpt lat="43.2360485941" lon="-8.5955018923">
        <ele>176.81</ele>
        <time>2020-03-14T10:40:48Z</time>
      </trkpt>
      <trkpt lat="43.2360184193" lon="-8.5954581387">
        <ele>176.92</ele>
        <time>2020-03-14T10:40:50Z</time>
      </trkpt>
      <trkpt lat="43.2359434012" lon="-8.5953806061">
        <ele>177.07</ele>
        <time>2020-03-14T10:40:55Z</time>
      </trkpt>
      <trkpt lat="43.2358368672" lon="-8.5953414626">
        <ele>180.46</ele>
        <time>2020-03-14T10:41:08Z</time>
      </trkpt>
      <trkpt lat="43.2357023377" lon="-8.5952328332">
        <ele>183.51</ele>
        <time>2020-03-14T10:41:25Z</time>
      </trkpt>
      <trkpt lat="43.2355391420" lon="-8.5952252056">
        <ele>186.59</ele>
        <time>2020-03-14T10:41:43Z</time>
      </trkpt>
      <trkpt lat="43.2354051154" lon="-8.5952221882">
        <ele>190.01</ele>
        <time>2020-03-14T10:41:59Z</time>
      </trkpt>
      <trkpt lat="43.2352813985" lon="-8.5952153150">
        <ele>193.05</ele>
        <time>2020-03-14T10:42:14Z</time>
      </trkpt>
      <trkpt lat="43.2352295984" lon="-8.5952372756">
        <ele>195.29</ele>
        <time>2020-03-14T10:42:23Z</time>
      </trkpt>
      <trkpt lat="43.2352182828" lon="-8.5954639222">
        <ele>196.23</ele>
        <time>2020-03-14T10:42:29Z</time>
      </trkpt>
      <trkpt lat="43.2351872697" lon="-8.5957603063">
        <ele>196.25</ele>
        <time>2020-03-14T10:42:34Z</time>
      </trkpt>
      <trkpt lat="43.2350887824" lon="-8.5961364862">
        <ele>194.82</ele>
        <time>2020-03-14T10:42:40Z</time>
      </trkpt>
      <trkpt lat="43.2349834219" lon="-8.5964306910">
        <ele>193.18</ele>
        <time>2020-03-14T10:42:45Z</time>
      </trkpt>
      <trkpt lat="43.2347395923" lon="-8.5972682107">
        <ele>192.07</ele>
        <time>2020-03-14T10:43:00Z</time>
      </trkpt>
      <trkpt lat="43.2343942579" lon="-8.5980890505">
        <ele>190.69</ele>
        <time>2020-03-14T10:43:14Z</time>
      </trkpt>
      <trkpt lat="43.2339335047" lon="-8.5989356227">
        <ele>188.39</ele>
        <time>2020-03-14T10:43:27Z</time>
      </trkpt>
      <trkpt lat="43.2337762602" lon="-8.5992108006">
        <ele>187.21</ele>
        <time>2020-03-14T10:43:31Z</time>
      </trkpt>
      <trkpt lat="43.2334041875" lon="-8.5994200967">
        <ele>185.63</ele>
        <time>2020-03-14T10:43:41Z</time>
      </trkpt>
      <trkpt lat="43.2329871878" lon="-8.5996342544">
        <ele>188.84</ele>
        <time>2020-03-14T10:43:54Z</time>
      </trkpt>
      <trkpt lat="43.2327961642" lon="-8.5995843820">
        <ele>190.04</ele>
        <time>2020-03-14T10:44:01Z</time>
      </trkpt>
      <trkpt lat="43.2326641493" lon="-8.5993404686">
        <ele>191.75</ele>
        <time>2020-03-14T10:44:11Z</time>
      </trkpt>
      <trkpt lat="43.2325693499" lon="-8.5990068689">
        <ele>195.43</ele>
        <time>2020-03-14T10:44:23Z</time>
      </trkpt>
      <trkpt lat="43.2325539272" lon="-8.5988802183">
        <ele>196.70</ele>
        <time>2020-03-14T10:44:27Z</time>
      </trkpt>
      <trkpt lat="43.2325128559" lon="-8.5987550765">
        <ele>197.93</ele>
        <time>2020-03-14T10:44:31Z</time>
      </trkpt>
      <trkpt lat="43.2323265262" lon="-8.5982869472">
        <ele>199.57</ele>
        <time>2020-03-14T10:44:43Z</time>
      </trkpt>
      <trkpt lat="43.2320029009" lon="-8.5977560375">
        <ele>199.76</ele>
        <time>2020-03-14T10:44:56Z</time>
      </trkpt>
      <trkpt lat="43.2317437325" lon="-8.5972310789">
        <ele>200.03</ele>
        <time>2020-03-14T10:45:09Z</time>
      </trkpt>
      <trkpt lat="43.2315207738" lon="-8.5968936235">
        <ele>201.19</ele>
        <time>2020-03-14T10:45:21Z</time>
      </trkpt>
      <trkpt lat="43.2312698197" lon="-8.5966802202">
        <ele>203.36</ele>
        <time>2020-03-14T10:45:32Z</time>
      </trkpt>
      <trkpt lat="43.2310713362" lon="-8.5965909529">
        <ele>206.43</ele>
        <time>2020-03-14T10:45:43Z</time>
      </trkpt>
      <trkpt lat="43.2308409177" lon="-8.5965122469">
        <ele>209.53</ele>
        <time>2020-03-14T10:45:53Z</time>
      </trkpt>
      <trkpt lat="43.2306144387" lon="-8.5963882785">
        <ele>211.83</ele>
        <time>2020-03-14T10:46:03Z</time>
      </trkpt>
      <trkpt lat="43.2305188850" lon="-8.5963624623">
        <ele>212.42</ele>
        <time>2020-03-14T10:46:07Z</time>
      </trkpt>
      <trkpt lat="43.2303116005" lon="-8.5962436907">
        <ele>214.20</ele>
        <time>2020-03-14T10:46:17Z</time>
      </trkpt>
      <trkpt lat="43.2300759014" lon="-8.5961042996">
        <ele>216.23</ele>
        <time>2020-03-14T10:46:28Z</time>
      </trkpt>
      <trkpt lat="43.2299152203" lon="-8.5959994420">
        <ele>217.71</ele>
        <time>2020-03-14T10:46:36Z</time>
      </trkpt>
      <trkpt lat="43.2298708800" lon="-8.5960102547">
        <ele>218.51</ele>
        <time>2020-03-14T10:46:39Z</time>
      </trkpt>
      <trkpt lat="43.2298315689" lon="-8.5961559322">
        <ele>219.14</ele>
        <time>2020-03-14T10:46:43Z</time>
      </trkpt>
      <trkpt lat="43.2298139669" lon="-8.5963651445">
        <ele>219.19</ele>
        <time>2020-03-14T10:46:47Z</time>
      </trkpt>
      <trkpt lat="43.2297920063" lon="-8.5970157478">
        <ele>215.66</ele>
        <time>2020-03-14T10:46:56Z</time>
      </trkpt>
      <trkpt lat="43.2297880668" lon="-8.5972272232">
        <ele>212.05</ele>
        <time>2020-03-14T10:46:59Z</time>
      </trkpt>
      <trkpt lat="43.2297826186" lon="-8.5973623395">
        <ele>209.45</ele>
        <time>2020-03-14T10:47:01Z</time>
      </trkpt>
      <trkpt lat="43.2297684532" lon="-8.5976011399">
        <ele>203.39</ele>
        <time>2020-03-14T10:47:05Z</time>
      </trkpt>
      <trkpt lat="43.2297633402" lon="-8.5979661718">
        <ele>197.97</ele>
        <time>2020-03-14T10:47:11Z</time>
      </trkpt>
      <trkpt lat="43.2297311537" lon="-8.5982081573">
        <ele>194.44</ele>
        <time>2020-03-14T10:47:15Z</time>
      </trkpt>
      <trkpt lat="43.2297001407" lon="-8.5984639730">
        <ele>191.23</ele>
        <time>2020-03-14T10:47:19Z</time>
      </trkpt>
      <trkpt lat="43.2296647690" lon="-8.5986677371">
        <ele>187.34</ele>
        <time>2020-03-14T10:47:23Z</time>
      </trkpt>
      <trkpt lat="43.2296495140" lon="-8.5987460241">
        <ele>185.27</ele>
        <time>2020-03-14T10:47:25Z</time>
      </trkpt>
      <trkpt lat="43.2297108695" lon="-8.5988601856">
        <ele>181.27</ele>
        <time>2020-03-14T10:47:28Z</time>
      </trkpt>
      <trkpt lat="43.2297433913" lon="-8.5989005025">
        <ele>180.29</ele>
        <time>2020-03-14T10:47:29Z</time>
      </trkpt>
      <trkpt lat="43.2299520168" lon="-8.5990590882">
        <ele>176.63</ele>
        <time>2020-03-14T10:47:34Z</time>
      </trkpt>
      <trkpt lat="43.2301550265" lon="-8.5991299991">
        <ele>174.09</ele>
        <time>2020-03-14T10:47:40Z</time>
      </trkpt>
      <trkpt lat="43.2301478181" lon="-8.5991564021">
        <ele>173.56</ele>
        <time>2020-03-14T10:47:41Z</time>
      </trkpt>
      <trkpt lat="43.2300601434" lon="-8.5992080346">
        <ele>172.41</ele>
        <time>2020-03-14T10:47:44Z</time>
      </trkpt>
      <trkpt lat="43.2296832930" lon="-8.5993374512">
        <ele>170.76</ele>
        <time>2020-03-14T10:47:52Z</time>
      </trkpt>
      <trkpt lat="43.2295299880" lon="-8.5993651114">
        <ele>169.38</ele>
        <time>2020-03-14T10:47:55Z</time>
      </trkpt>
      <trkpt lat="43.2290875912" lon="-8.5993009061">
        <ele>167.63</ele>
        <time>2020-03-14T10:48:02Z</time>
      </trkpt>
      <trkpt lat="43.2288331166" lon="-8.5992953740">
        <ele>164.89</ele>
        <time>2020-03-14T10:48:09Z</time>
      </trkpt>
      <trkpt lat="43.2284254208" lon="-8.5992882494">
        <ele>165.33</ele>
        <time>2020-03-14T10:48:22Z</time>
      </trkpt>
      <trkpt lat="43.2281907275" lon="-8.5990688950">
        <ele>168.29</ele>
        <time>2020-03-14T10:48:34Z</time>
      </trkpt>
      <trkpt lat="43.2280468103" lon="-8.5986087285">
        <ele>171.17</ele>
        <time>2020-03-14T10:48:48Z</time>
      </trkpt>
      <trkpt lat="43.2278393582" lon="-8.5983322933">
        <ele>172.90</ele>
        <time>2020-03-14T10:49:01Z</time>
      </trkpt>
      <trkpt lat="43.2276707981" lon="-8.5982848518">
        <ele>174.81</ele>
        <time>2020-03-14T10:49:11Z</time>
      </trkpt>
      <trkpt lat="43.2274863962" lon="-8.5981590394">
        <ele>178.25</ele>
        <time>2020-03-14T10:49:22Z</time>
      </trkpt>
      <trkpt lat="43.2272289041" lon="-8.5980916489">
        <ele>180.86</ele>
        <time>2020-03-14T10:49:32Z</time>
      </trkpt>
      <trkpt lat="43.2271414809" lon="-8.5980577860">
        <ele>181.41</ele>
        <time>2020-03-14T10:49:35Z</time>
      </trkpt>
      <trkpt lat="43.2270007487" lon="-8.5979304649">
        <ele>181.69</ele>
        <time>2020-03-14T10:49:40Z</time>
      </trkpt>
      <trkpt lat="43.2266901992" lon="-8.5976184066">
        <ele>181.70</ele>
        <time>2020-03-14T10:49:46Z</time>
      </trkpt>
      <trkpt lat="43.2264599483" lon="-8.5974129662">
        <ele>181.16</ele>
        <time>2020-03-14T10:49:49Z</time>
      </trkpt>
      <trkpt lat="43.2260632329" lon="-8.5971446615">
        <ele>176.55</ele>
        <time>2020-03-14T10:49:54Z</time>
      </trkpt>
      <trkpt lat="43.2259048987" lon="-8.5970197711">
        <ele>171.05</ele>
        <time>2020-03-14T10:49:57Z</time>
      </trkpt>
      <trkpt lat="43.2257852890" lon="-8.5969429929">
        <ele>169.47</ele>
        <time>2020-03-14T10:50:00Z</time>
      </trkpt>
      <trkpt lat="43.2254335005" lon="-8.5967443418">
        <ele>169.57</ele>
        <time>2020-03-14T10:50:11Z</time>
      </trkpt>
      <trkpt lat="43.2251773495" lon="-8.5965709202">
        <ele>172.22</ele>
        <time>2020-03-14T10:50:24Z</time>
      </trkpt>
      <trkpt lat="43.2249401417" lon="-8.5963292699">
        <ele>175.40</ele>
        <time>2020-03-14T10:50:37Z</time>
      </trkpt>
      <trkpt lat="43.2247393113" lon="-8.5961467121">
        <ele>178.64</ele>
        <time>2020-03-14T10:50:49Z</time>
      </trkpt>
      <trkpt lat="43.2246404048" lon="-8.5960278567">
        <ele>180.39</ele>
        <time>2020-03-14T10:50:56Z</time>
      </trkpt>
      <trkpt lat="43.2245938852" lon="-8.5959768947">
        <ele>181.04</ele>
        <time>2020-03-14T10:50:59Z</time>
      </trkpt>
      <trkpt lat="43.2245383132" lon="-8.5959091689">
        <ele>181.78</ele>
        <time>2020-03-14T10:51:03Z</time>
      </trkpt>
      <trkpt lat="43.2244006824" lon="-8.5957419500">
        <ele>184.12</ele>
        <time>2020-03-14T10:51:13Z</time>
      </trkpt>
      <trkpt lat="43.2242392469" lon="-8.5955701210">
        <ele>187.26</ele>
        <time>2020-03-14T10:51:25Z</time>
      </trkpt>
      <trkpt lat="43.2241010293" lon="-8.5954021476">
        <ele>190.35</ele>
        <time>2020-03-14T10:51:35Z</time>
      </trkpt>
      <trkpt lat="43.2240464631" lon="-8.5953303985">
        <ele>190.93</ele>
        <time>2020-03-14T10:51:38Z</time>
      </trkpt>
      <trkpt lat="43.2239721157" lon="-8.5952775925">
        <ele>191.85</ele>
        <time>2020-03-14T10:51:41Z</time>
      </trkpt>
      <trkpt lat="43.2236600574" lon="-8.5949885845">
        <ele>194.10</ele>
        <time>2020-03-14T10:51:55Z</time>
      </trkpt>
      <trkpt lat="43.2234096061" lon="-8.5946859140">
        <ele>195.71</ele>
        <time>2020-03-14T10:52:07Z</time>
      </trkpt>
      <trkpt lat="43.2232214324" lon="-8.5945057869">
        <ele>196.44</ele>
        <time>2020-03-14T10:52:15Z</time>
      </trkpt>
      <trkpt lat="43.2231392059" lon="-8.5943781305">
        <ele>196.86</ele>
        <time>2020-03-14T10:52:19Z</time>
      </trkpt>
      <trkpt lat="43.2229502779" lon="-8.5940193851">
        <ele>196.93</ele>
        <time>2020-03-14T10:52:27Z</time>
      </trkpt>
      <trkpt lat="43.2228660397" lon="-8.5938146990">
        <ele>196.78</ele>
        <time>2020-03-14T10:52:30Z</time>
      </trkpt>
      <trkpt lat="43.2227353659" lon="-8.5933163110">
        <ele>195.14</ele>
        <time>2020-03-14T10:52:36Z</time>
      </trkpt>
      <trkpt lat="43.2227521297" lon="-8.5929706413">
        <ele>190.87</ele>
        <time>2020-03-14T10:52:41Z</time>
      </trkpt>
      <trkpt lat="43.2227643672" lon="-8.5928513668">
        <ele>190.15</ele>
        <time>2020-03-14T10:52:43Z</time>
      </trkpt>
      <trkpt lat="43.2227947097" lon="-8.5923294257">
        <ele>190.52</ele>
        <time>2020-03-14T10:52:54Z</time>
      </trkpt>
      <trkpt lat="43.2227641158" lon="-8.5920711793">
        <ele>192.24</ele>
        <time>2020-03-14T10:53:00Z</time>
      </trkpt>
      <trkpt lat="43.2227494475" lon="-8.5919465404">
        <ele>192.55</ele>
        <time>2020-03-14T10:53:02Z</time>
      </trkpt>
      <trkpt lat="43.2227297500" lon="-8.5918084905">
        <ele>192.64</ele>
        <time>2020-03-14T10:53:04Z</time>
      </trkpt>
      <trkpt lat="43.2226997428" lon="-8.5916658305">
        <ele>192.66</ele>
        <time>2020-03-14T10:53:06Z</time>
      </trkpt>
      <trkpt lat="43.2224777900" lon="-8.5910991300">
        <ele>191.94</ele>
        <time>2020-03-14T10:53:15Z</time>
      </trkpt>
      <trkpt lat="43.2224260736" lon="-8.5909887403">
        <ele>191.18</ele>
        <time>2020-03-14T10:53:17Z</time>
      </trkpt>
      <trkpt lat="43.2223638799" lon="-8.5908900015">
        <ele>190.83</ele>
        <time>2020-03-14T10:53:19Z</time>
      </trkpt>
      <trkpt lat="43.2219752111" lon="-8.5906916019">
        <ele>189.55</ele>
        <time>2020-03-14T10:53:30Z</time>
      </trkpt>
      <trkpt lat="43.2216795813" lon="-8.5908963718">
        <ele>189.55</ele>
        <time>2020-03-14T10:53:40Z</time>
      </trkpt>
      <trkpt lat="43.2215966005" lon="-8.5910018161">
        <ele>189.74</ele>
        <time>2020-03-14T10:53:44Z</time>
      </trkpt>
      <trkpt lat="43.2213367615" lon="-8.5912008863">
        <ele>190.47</ele>
        <time>2020-03-14T10:53:54Z</time>
      </trkpt>
      <trkpt lat="43.2213148847" lon="-8.5911957733">
        <ele>190.48</ele>
        <time>2020-03-14T10:53:55Z</time>
      </trkpt>
      <trkpt lat="43.2212979533" lon="-8.5911895707">
        <ele>190.50</ele>
        <time>2020-03-14T10:53:56Z</time>
      </trkpt>
      <trkpt lat="43.2212759927" lon="-8.5911816917">
        <ele>190.51</ele>
        <time>2020-03-14T10:53:57Z</time>
      </trkpt>
      <trkpt lat="43.2212545350" lon="-8.5911717173">
        <ele>190.53</ele>
        <time>2020-03-14T10:53:58Z</time>
      </trkpt>
      <trkpt lat="43.2212328259" lon="-8.5911636706">
        <ele>190.55</ele>
        <time>2020-03-14T10:53:59Z</time>
      </trkpt>
      <trkpt lat="43.2210892439" lon="-8.5911478288">
        <ele>191.19</ele>
        <time>2020-03-14T10:54:08Z</time>
      </trkpt>
      <trkpt lat="43.2209718134" lon="-8.5911474098">
        <ele>194.27</ele>
        <time>2020-03-14T10:54:18Z</time>
      </trkpt>
      <trkpt lat="43.2208237890" lon="-8.5911790933">
        <ele>197.32</ele>
        <time>2020-03-14T10:54:33Z</time>
      </trkpt>
      <trkpt lat="43.2207036763" lon="-8.5911834519">
        <ele>200.44</ele>
        <time>2020-03-14T10:54:48Z</time>
      </trkpt>
      <trkpt lat="43.2205685601" lon="-8.5911839548">
        <ele>203.61</ele>
        <time>2020-03-14T10:55:05Z</time>
      </trkpt>
      <trkpt lat="43.2204307616" lon="-8.5912177339">
        <ele>206.74</ele>
        <time>2020-03-14T10:55:20Z</time>
      </trkpt>
      <trkpt lat="43.2203025185" lon="-8.5912873037">
        <ele>209.91</ele>
        <time>2020-03-14T10:55:38Z</time>
      </trkpt>
      <trkpt lat="43.2202073839" lon="-8.5913753975">
        <ele>211.50</ele>
        <time>2020-03-14T10:55:49Z</time>
      </trkpt>
      <trkpt lat="43.2200627122" lon="-8.5915215779">
        <ele>212.93</ele>
        <time>2020-03-14T10:56:00Z</time>
      </trkpt>
      <trkpt lat="43.2198524103" lon="-8.5915753897">
        <ele>214.75</ele>
        <time>2020-03-14T10:56:09Z</time>
      </trkpt>
      <trkpt lat="43.2195851114" lon="-8.5915856995">
        <ele>217.40</ele>
        <time>2020-03-14T10:56:21Z</time>
      </trkpt>
      <trkpt lat="43.2193511724" lon="-8.5915605538">
        <ele>218.36</ele>
        <time>2020-03-14T10:56:32Z</time>
      </trkpt>
      <trkpt lat="43.2190732285" lon="-8.5915717855">
        <ele>219.42</ele>
        <time>2020-03-14T10:56:43Z</time>
      </trkpt>
      <trkpt lat="43.2188124675" lon="-8.5916007031">
        <ele>220.52</ele>
        <time>2020-03-14T10:56:54Z</time>
      </trkpt>
      <trkpt lat="43.2187332585" lon="-8.5916127730">
        <ele>220.63</ele>
        <time>2020-03-14T10:56:58Z</time>
      </trkpt>
      <trkpt lat="43.2186066080" lon="-8.5916696023">
        <ele>221.08</ele>
        <time>2020-03-14T10:57:04Z</time>
      </trkpt>
      <trkpt lat="43.2183820568" lon="-8.5918004438">
        <ele>223.35</ele>
        <time>2020-03-14T10:57:16Z</time>
      </trkpt>
      <trkpt lat="43.2182136644" lon="-8.5919394996">
        <ele>225.79</ele>
        <time>2020-03-14T10:57:27Z</time>
      </trkpt>
      <trkpt lat="43.2181207929" lon="-8.5920156073">
        <ele>227.92</ele>
        <time>2020-03-14T10:57:34Z</time>
      </trkpt>
      <trkpt lat="43.2179470360" lon="-8.5921701696">
        <ele>230.39</ele>
        <time>2020-03-14T10:57:45Z</time>
      </trkpt>
      <trkpt lat="43.2177783083" lon="-8.5923283361">
        <ele>232.99</ele>
        <time>2020-03-14T10:57:59Z</time>
      </trkpt>
      <trkpt lat="43.2176235784" lon="-8.5926560685">
        <ele>236.12</ele>
        <time>2020-03-14T10:58:13Z</time>
      </trkpt>
      <trkpt lat="43.2173763122" lon="-8.5929588228">
        <ele>237.29</ele>
        <time>2020-03-14T10:58:27Z</time>
      </trkpt>
      <trkpt lat="43.2173386775" lon="-8.5929863993">
        <ele>237.48</ele>
        <time>2020-03-14T10:58:29Z</time>
      </trkpt>
      <trkpt lat="43.2173034735" lon="-8.5929943621">
        <ele>237.65</ele>
        <time>2020-03-14T10:58:31Z</time>
      </trkpt>
      <trkpt lat="43.2170541119" lon="-8.5931455716">
        <ele>239.86</ele>
        <time>2020-03-14T10:58:43Z</time>
      </trkpt>
      <trkpt lat="43.2168351766" lon="-8.5933247767">
        <ele>242.57</ele>
        <time>2020-03-14T10:58:55Z</time>
      </trkpt>
      <trkpt lat="43.2166521996" lon="-8.5934551992">
        <ele>245.19</ele>
        <time>2020-03-14T10:59:07Z</time>
      </trkpt>
      <trkpt lat="43.2165829651" lon="-8.5935108550">
        <ele>245.87</ele>
        <time>2020-03-14T10:59:11Z</time>
      </trkpt>
      <trkpt lat="43.2164609246" lon="-8.5935750604">
        <ele>247.48</ele>
        <time>2020-03-14T10:59:17Z</time>
      </trkpt>
      <trkpt lat="43.2162206993" lon="-8.5937510803">
        <ele>250.82</ele>
        <time>2020-03-14T10:59:30Z</time>
      </trkpt>
      <trkpt lat="43.2159953099" lon="-8.5940115899">
        <ele>253.61</ele>
        <time>2020-03-14T10:59:43Z</time>
      </trkpt>
      <trkpt lat="43.2157728542" lon="-8.5943085607">
        <ele>255.47</ele>
        <time>2020-03-14T10:59:56Z</time>
      </trkpt>
      <trkpt lat="43.2154628076" lon="-8.5946979001">
        <ele>256.89</ele>
        <time>2020-03-14T11:00:11Z</time>
      </trkpt>
      <trkpt lat="43.2154649869" lon="-8.5951102059">
        <ele>256.83</ele>
        <time>2020-03-14T11:00:19Z</time>
      </trkpt>
      <trkpt lat="43.2154497318" lon="-8.5951729864">
        <ele>256.71</ele>
        <time>2020-03-14T11:00:20Z</time>
      </trkpt>
      <trkpt lat="43.2154188026" lon="-8.5952327494">
        <ele>256.52</ele>
        <time>2020-03-14T11:00:21Z</time>
      </trkpt>
      <trkpt lat="43.2153742947" lon="-8.5952761676">
        <ele>256.25</ele>
        <time>2020-03-14T11:00:22Z</time>
      </trkpt>
      <trkpt lat="43.2153227460" lon="-8.5953071807">
        <ele>255.76</ele>
        <time>2020-03-14T11:00:23Z</time>
      </trkpt>
      <trkpt lat="43.2152704429" lon="-8.5953319911">
        <ele>255.35</ele>
        <time>2020-03-14T11:00:24Z</time>
      </trkpt>
      <trkpt lat="43.2152170502" lon="-8.5953518562">
        <ele>254.86</ele>
        <time>2020-03-14T11:00:25Z</time>
      </trkpt>
      <trkpt lat="43.2150631584" lon="-8.5954192467">
        <ele>253.18</ele>
        <time>2020-03-14T11:00:28Z</time>
      </trkpt>
      <trkpt lat="43.2149805129" lon="-8.5954662692">
        <ele>252.04</ele>
        <time>2020-03-14T11:00:30Z</time>
      </trkpt>
      <trkpt lat="43.2147099450" lon="-8.5958579555">
        <ele>251.22</ele>
        <time>2020-03-14T11:00:42Z</time>
      </trkpt>
      <trkpt lat="43.2145821210" lon="-8.5962218978">
        <ele>254.34</ele>
        <time>2020-03-14T11:00:54Z</time>
      </trkpt>
      <trkpt lat="43.2145781815" lon="-8.5963565111">
        <ele>255.56</ele>
        <time>2020-03-14T11:00:57Z</time>
      </trkpt>
      <trkpt lat="43.2145564724" lon="-8.5968321003">
        <ele>256.39</ele>
        <time>2020-03-14T11:01:08Z</time>
      </trkpt>
      <trkpt lat="43.2145360205" lon="-8.5968444217">
        <ele>256.41</ele>
        <time>2020-03-14T11:01:09Z</time>
      </trkpt>
      <trkpt lat="43.2145153172" lon="-8.5968448408">
        <ele>256.42</ele>
        <time>2020-03-14T11:01:10Z</time>
      </trkpt>
      <trkpt lat="43.2145001460" lon="-8.5968341120">
        <ele>256.43</ele>
        <time>2020-03-14T11:01:11Z</time>
      </trkpt>
      <trkpt lat="43.2144885790" lon="-8.5968144145">
        <ele>256.44</ele>
        <time>2020-03-14T11:01:12Z</time>
      </trkpt>
      <trkpt lat="43.2144757546" lon="-8.5967868380">
        <ele>256.45</ele>
        <time>2020-03-14T11:01:13Z</time>
      </trkpt>
      <trkpt lat="43.2144635171" lon="-8.5967590939">
        <ele>256.47</ele>
        <time>2020-03-14T11:01:14Z</time>
      </trkpt>
      <trkpt lat="43.2144506089" lon="-8.5967320204">
        <ele>256.50</ele>
        <time>2020-03-14T11:01:15Z</time>
      </trkpt>
      <trkpt lat="43.2144419756" lon="-8.5967063718">
        <ele>256.63</ele>
        <time>2020-03-14T11:01:16Z</time>
      </trkpt>
      <trkpt lat="43.2143244613" lon="-8.5964084789">
        <ele>259.03</ele>
        <time>2020-03-14T11:01:30Z</time>
      </trkpt>
      <trkpt lat="43.2142128982" lon="-8.5961940698">
        <ele>262.10</ele>
        <time>2020-03-14T11:01:41Z</time>
      </trkpt>
      <trkpt lat="43.2141996548" lon="-8.5961609613">
        <ele>262.96</ele>
        <time>2020-03-14T11:01:43Z</time>
      </trkpt>
      <trkpt lat="43.2141506206" lon="-8.5959845223">
        <ele>266.36</ele>
        <time>2020-03-14T11:01:55Z</time>
      </trkpt>
      <trkpt lat="43.2141800411" lon="-8.5961292777">
        <ele>267.23</ele>
        <time>2020-03-14T11:02:17Z</time>
      </trkpt>
      <trkpt lat="43.2141901832" lon="-8.5961436946">
        <ele>266.39</ele>
        <time>2020-03-14T11:02:30Z</time>
      </trkpt>
      <trkpt lat="43.2142369542" lon="-8.5962330457">
        <ele>266.30</ele>
        <time>2020-03-14T11:02:34Z</time>
      </trkpt>
      <trkpt lat="43.2143728249" lon="-8.5965390690">
        <ele>263.82</ele>
        <time>2020-03-14T11:02:47Z</time>
      </trkpt>
      <trkpt lat="43.2143802010" lon="-8.5965637956">
        <ele>263.52</ele>
        <time>2020-03-14T11:02:48Z</time>
      </trkpt>
      <trkpt lat="43.2143361121" lon="-8.5966934636">
        <ele>261.94</ele>
        <time>2020-03-14T11:02:54Z</time>
      </trkpt>
      <trkpt lat="43.2142398041" lon="-8.5969460942">
        <ele>261.83</ele>
        <time>2020-03-14T11:03:05Z</time>
      </trkpt>
      <trkpt lat="43.2142013311" lon="-8.5970203578">
        <ele>262.69</ele>
        <time>2020-03-14T11:03:09Z</time>
      </trkpt>
      <trkpt lat="43.2141421549" lon="-8.5970957950">
        <ele>265.97</ele>
        <time>2020-03-14T11:03:20Z</time>
      </trkpt>
      <trkpt lat="43.2139740139" lon="-8.5971221980">
        <ele>269.14</ele>
        <time>2020-03-14T11:03:38Z</time>
      </trkpt>
      <trkpt lat="43.2138382271" lon="-8.5971242934">
        <ele>272.19</ele>
        <time>2020-03-14T11:03:53Z</time>
      </trkpt>
      <trkpt lat="43.2137263287" lon="-8.5971252155">
        <ele>275.33</ele>
        <time>2020-03-14T11:04:06Z</time>
      </trkpt>
      <trkpt lat="43.2136021927" lon="-8.5971201863">
        <ele>278.60</ele>
        <time>2020-03-14T11:04:19Z</time>
      </trkpt>
      <trkpt lat="43.2134803198" lon="-8.5971190128">
        <ele>281.62</ele>
        <time>2020-03-14T11:04:37Z</time>
      </trkpt>
      <trkpt lat="43.2134695910" lon="-8.5971166659">
        <ele>281.74</ele>
        <time>2020-03-14T11:04:38Z</time>
      </trkpt>
      <trkpt lat="43.2133928128" lon="-8.5971131455">
        <ele>282.16</ele>
        <time>2020-03-14T11:04:42Z</time>
      </trkpt>
      <trkpt lat="43.2131012063" lon="-8.5972105432">
        <ele>283.77</ele>
        <time>2020-03-14T11:04:56Z</time>
      </trkpt>
      <trkpt lat="43.2130752224" lon="-8.5972843878">
        <ele>284.63</ele>
        <time>2020-03-14T11:05:15Z</time>
      </trkpt>
      <trkpt lat="43.2130168006" lon="-8.5973678716">
        <ele>284.94</ele>
        <time>2020-03-14T11:05:28Z</time>
      </trkpt>
      <trkpt lat="43.2130029704" lon="-8.5974862240">
        <ele>285.81</ele>
        <time>2020-03-14T11:05:42Z</time>
      </trkpt>
      <trkpt lat="43.2129624858" lon="-8.5975616612">
        <ele>287.61</ele>
        <time>2020-03-14T11:05:59Z</time>
      </trkpt>
      <trkpt lat="43.2128909044" lon="-8.5975581408">
        <ele>287.68</ele>
        <time>2020-03-14T11:06:08Z</time>
      </trkpt>
      <trkpt lat="43.2126523554" lon="-8.5974989645">
        <ele>287.17</ele>
        <time>2020-03-14T11:06:15Z</time>
      </trkpt>
      <trkpt lat="43.2125755772" lon="-8.5974164866">
        <ele>286.76</ele>
        <time>2020-03-14T11:06:17Z</time>
      </trkpt>
      <trkpt lat="43.2122306619" lon="-8.5970167536">
        <ele>282.53</ele>
        <time>2020-03-14T11:06:25Z</time>
      </trkpt>
      <trkpt lat="43.2121920213" lon="-8.5969909374">
        <ele>281.94</ele>
        <time>2020-03-14T11:06:26Z</time>
      </trkpt>
      <trkpt lat="43.2120870799" lon="-8.5969303362">
        <ele>280.60</ele>
        <time>2020-03-14T11:06:29Z</time>
      </trkpt>
      <trkpt lat="43.2120683882" lon="-8.5968901031">
        <ele>280.23</ele>
        <time>2020-03-14T11:06:40Z</time>
      </trkpt>
      <trkpt lat="43.2121050172" lon="-8.5968777817">
        <ele>280.30</ele>
        <time>2020-03-14T11:06:43Z</time>
      </trkpt>
      <trkpt lat="43.2122129761" lon="-8.5969505366">
        <ele>280.38</ele>
        <time>2020-03-14T11:06:49Z</time>
      </trkpt>
      <trkpt lat="43.2122897543" lon="-8.5970346909">
        <ele>280.34</ele>
        <time>2020-03-14T11:06:54Z</time>
      </trkpt>
      <trkpt lat="43.2121452503" lon="-8.5973165743">
        <ele>280.44</ele>
        <time>2020-03-14T11:07:03Z</time>
      </trkpt>
      <trkpt lat="43.2121154107" lon="-8.5974055901">
        <ele>280.47</ele>
        <time>2020-03-14T11:07:05Z</time>
      </trkpt>
      <trkpt lat="43.2118469384" lon="-8.5978999548">
        <ele>279.92</ele>
        <time>2020-03-14T11:07:19Z</time>
      </trkpt>
      <trkpt lat="43.2117763627" lon="-8.5979698598">
        <ele>279.55</ele>
        <time>2020-03-14T11:07:21Z</time>
      </trkpt>
      <trkpt lat="43.2115373109" lon="-8.5981958359">
        <ele>275.95</ele>
        <time>2020-03-14T11:07:29Z</time>
      </trkpt>
      <trkpt lat="43.2113389112" lon="-8.5983016994">
        <ele>272.92</ele>
        <time>2020-03-14T11:07:35Z</time>
      </trkpt>
      <trkpt lat="43.2113145199" lon="-8.5983101651">
        <ele>272.40</ele>
        <time>2020-03-14T11:07:36Z</time>
      </trkpt>
      <trkpt lat="43.2112861052" lon="-8.5982624721">
        <ele>271.30</ele>
        <time>2020-03-14T11:07:38Z</time>
      </trkpt>
      <trkpt lat="43.2112823334" lon="-8.5982193891">
        <ele>270.18</ele>
        <time>2020-03-14T11:07:39Z</time>
      </trkpt>
      <trkpt lat="43.2112778071" lon="-8.5981768928">
        <ele>270.18</ele>
        <time>2020-03-14T11:07:40Z</time>
      </trkpt>
      <trkpt lat="43.2112658210" lon="-8.5981379170">
        <ele>269.10</ele>
        <time>2020-03-14T11:07:41Z</time>
      </trkpt>
      <trkpt lat="43.2112427708" lon="-8.5981112625">
        <ele>268.63</ele>
        <time>2020-03-14T11:07:42Z</time>
      </trkpt>
      <trkpt lat="43.2112123445" lon="-8.5981022101">
        <ele>268.39</ele>
        <time>2020-03-14T11:07:43Z</time>
      </trkpt>
      <trkpt lat="43.2111472171" lon="-8.5981572792">
        <ele>267.29</ele>
        <time>2020-03-14T11:07:45Z</time>
      </trkpt>
      <trkpt lat="43.2107525133" lon="-8.5983449500">
        <ele>263.16</ele>
        <time>2020-03-14T11:07:55Z</time>
      </trkpt>
      <trkpt lat="43.2107323129" lon="-8.5983250011">
        <ele>262.47</ele>
        <time>2020-03-14T11:07:56Z</time>
      </trkpt>
      <trkpt lat="43.2107149623" lon="-8.5982864443">
        <ele>258.52</ele>
        <time>2020-03-14T11:08:03Z</time>
      </trkpt>
      <trkpt lat="43.2106999587" lon="-8.5983287729">
        <ele>256.73</ele>
        <time>2020-03-14T11:08:35Z</time>
      </trkpt>
      <trkpt lat="43.2106691133" lon="-8.5983090755">
        <ele>257.59</ele>
        <time>2020-03-14T11:11:21Z</time>
      </trkpt>
      <trkpt lat="43.2106730528" lon="-8.5983024538">
        <ele>258.02</ele>
        <time>2020-03-14T11:11:27Z</time>
      </trkpt>
      <trkpt lat="43.2105785888" lon="-8.5981451254">
        <ele>258.04</ele>
        <time>2020-03-14T11:11:33Z</time>
      </trkpt>
      <trkpt lat="43.2104862202" lon="-8.5980332270">
        <ele>257.92</ele>
        <time>2020-03-14T11:11:36Z</time>
      </trkpt>
      <trkpt lat="43.2102283929" lon="-8.5978834424">
        <ele>256.23</ele>
        <time>2020-03-14T11:11:43Z</time>
      </trkpt>
      <trkpt lat="43.2098283246" lon="-8.5977137089">
        <ele>252.20</ele>
        <time>2020-03-14T11:11:53Z</time>
      </trkpt>
      <trkpt lat="43.2097913604" lon="-8.5976992082">
        <ele>251.75</ele>
        <time>2020-03-14T11:11:54Z</time>
      </trkpt>
      <trkpt lat="43.2094480377" lon="-8.5976423789">
        <ele>248.28</ele>
        <time>2020-03-14T11:12:01Z</time>
      </trkpt>
      <trkpt lat="43.2091858517" lon="-8.5975894053">
        <ele>245.17</ele>
        <time>2020-03-14T11:12:07Z</time>
      </trkpt>
      <trkpt lat="43.2091057207" lon="-8.5975745693">
        <ele>244.43</ele>
        <time>2020-03-14T11:12:09Z</time>
      </trkpt>
      <trkpt lat="43.2085390203" lon="-8.5975806043">
        <ele>244.06</ele>
        <time>2020-03-14T11:12:25Z</time>
      </trkpt>
      <trkpt lat="43.2083469070" lon="-8.5976573825">
        <ele>244.11</ele>
        <time>2020-03-14T11:12:30Z</time>
      </trkpt>
      <trkpt lat="43.2079496048" lon="-8.5975657683">
        <ele>242.83</ele>
        <time>2020-03-14T11:12:40Z</time>
      </trkpt>
      <trkpt lat="43.2077001594" lon="-8.5975950211">
        <ele>240.26</ele>
        <time>2020-03-14T11:12:49Z</time>
      </trkpt>
      <trkpt lat="43.2072702516" lon="-8.5976859648">
        <ele>237.06</ele>
        <time>2020-03-14T11:12:58Z</time>
      </trkpt>
      <trkpt lat="43.2071232330" lon="-8.5978225898">
        <ele>232.91</ele>
        <time>2020-03-14T11:13:02Z</time>
      </trkpt>
      <trkpt lat="43.2070000190" lon="-8.5979796667">
        <ele>229.18</ele>
        <time>2020-03-14T11:13:06Z</time>
      </trkpt>
      <trkpt lat="43.2068932336" lon="-8.5980401002">
        <ele>225.58</ele>
        <time>2020-03-14T11:13:09Z</time>
      </trkpt>
      <trkpt lat="43.2067191415" lon="-8.5980385914">
        <ele>221.86</ele>
        <time>2020-03-14T11:13:13Z</time>
      </trkpt>
      <trkpt lat="43.2066716161" lon="-8.5980357416">
        <ele>221.09</ele>
        <time>2020-03-14T11:13:14Z</time>
      </trkpt>
      <trkpt lat="43.2065196522" lon="-8.5980587918">
        <ele>219.02</ele>
        <time>2020-03-14T11:13:17Z</time>
      </trkpt>
      <trkpt lat="43.2063405309" lon="-8.5981031321">
        <ele>215.11</ele>
        <time>2020-03-14T11:13:21Z</time>
      </trkpt>
      <trkpt lat="43.2061410416" lon="-8.5981116816">
        <ele>210.36</ele>
        <time>2020-03-14T11:13:25Z</time>
      </trkpt>
      <trkpt lat="43.2060462423" lon="-8.5981172137">
        <ele>208.34</ele>
        <time>2020-03-14T11:13:27Z</time>
      </trkpt>
      <trkpt lat="43.2059052587" lon="-8.5981372464">
        <ele>206.10</ele>
        <time>2020-03-14T11:13:30Z</time>
      </trkpt>
      <trkpt lat="43.2057504449" lon="-8.5981693491">
        <ele>203.14</ele>
        <time>2020-03-14T11:13:33Z</time>
      </trkpt>
      <trkpt lat="43.2055758499" lon="-8.5983538348">
        <ele>198.94</ele>
        <time>2020-03-14T11:13:38Z</time>
      </trkpt>
      <trkpt lat="43.2055706531" lon="-8.5984073952">
        <ele>198.03</ele>
        <time>2020-03-14T11:13:39Z</time>
      </trkpt>
      <trkpt lat="43.2055607624" lon="-8.5984543338">
        <ele>197.14</ele>
        <time>2020-03-14T11:13:40Z</time>
      </trkpt>
      <trkpt lat="43.2054711599" lon="-8.5984731093">
        <ele>194.57</ele>
        <time>2020-03-14T11:13:43Z</time>
      </trkpt>
      <trkpt lat="43.2054378837" lon="-8.5984431021">
        <ele>193.90</ele>
        <time>2020-03-14T11:13:44Z</time>
      </trkpt>
      <trkpt lat="43.2054068707" lon="-8.5984076466">
        <ele>193.49</ele>
        <time>2020-03-14T11:13:45Z</time>
      </trkpt>
      <trkpt lat="43.2053766958" lon="-8.5983721912">
        <ele>193.25</ele>
        <time>2020-03-14T11:13:46Z</time>
      </trkpt>
      <trkpt lat="43.2052533142" lon="-8.5982405115">
        <ele>192.86</ele>
        <time>2020-03-14T11:13:50Z</time>
      </trkpt>
      <trkpt lat="43.2049410045" lon="-8.5977456439">
        <ele>192.78</ele>
        <time>2020-03-14T11:14:02Z</time>
      </trkpt>
      <trkpt lat="43.2047023717" lon="-8.5973723978">
        <ele>193.61</ele>
        <time>2020-03-14T11:14:13Z</time>
      </trkpt>
      <trkpt lat="43.2045229990" lon="-8.5971040931">
        <ele>196.14</ele>
        <time>2020-03-14T11:14:25Z</time>
      </trkpt>
      <trkpt lat="43.2044027187" lon="-8.5969195236">
        <ele>198.37</ele>
        <time>2020-03-14T11:14:34Z</time>
      </trkpt>
      <trkpt lat="43.2043917384" lon="-8.5969015025">
        <ele>198.60</ele>
        <time>2020-03-14T11:14:35Z</time>
      </trkpt>
      <trkpt lat="43.2043797523" lon="-8.5968797095">
        <ele>198.89</ele>
        <time>2020-03-14T11:14:36Z</time>
      </trkpt>
      <trkpt lat="43.2043699455" lon="-8.5968578327">
        <ele>199.19</ele>
        <time>2020-03-14T11:14:37Z</time>
      </trkpt>
      <trkpt lat="43.2043625694" lon="-8.5968412366">
        <ele>199.49</ele>
        <time>2020-03-14T11:14:38Z</time>
      </trkpt>
      <trkpt lat="43.2043515891" lon="-8.5968227964">
        <ele>199.70</ele>
        <time>2020-03-14T11:14:39Z</time>
      </trkpt>
      <trkpt lat="43.2043353282" lon="-8.5967989080">
        <ele>199.93</ele>
        <time>2020-03-14T11:14:40Z</time>
      </trkpt>
      <trkpt lat="43.2043220848" lon="-8.5967813060">
        <ele>200.20</ele>
        <time>2020-03-14T11:14:41Z</time>
      </trkpt>
      <trkpt lat="43.2041876391" lon="-8.5965822358">
        <ele>203.26</ele>
        <time>2020-03-14T11:14:52Z</time>
      </trkpt>
      <trkpt lat="43.2040398661" lon="-8.5962993465">
        <ele>206.44</ele>
        <time>2020-03-14T11:15:05Z</time>
      </trkpt>
      <trkpt lat="43.2039612439" lon="-8.5961298645">
        <ele>209.00</ele>
        <time>2020-03-14T11:15:14Z</time>
      </trkpt>
      <trkpt lat="43.2039484195" lon="-8.5961084068">
        <ele>209.23</ele>
        <time>2020-03-14T11:15:15Z</time>
      </trkpt>
      <trkpt lat="43.2038183324" lon="-8.5959473904">
        <ele>211.62</ele>
        <time>2020-03-14T11:15:24Z</time>
      </trkpt>
      <trkpt lat="43.2038005628" lon="-8.5959427804">
        <ele>211.86</ele>
        <time>2020-03-14T11:15:25Z</time>
      </trkpt>
      <trkpt lat="43.2037831284" lon="-8.5959385894">
        <ele>212.09</ele>
        <time>2020-03-14T11:15:26Z</time>
      </trkpt>
      <trkpt lat="43.2037609164" lon="-8.5959407687">
        <ele>212.32</ele>
        <time>2020-03-14T11:15:27Z</time>
      </trkpt>
      <trkpt lat="43.2037279755" lon="-8.5959408525">
        <ele>212.47</ele>
        <time>2020-03-14T11:15:28Z</time>
      </trkpt>
      <trkpt lat="43.2034631912" lon="-8.5959952511">
        <ele>215.52</ele>
        <time>2020-03-14T11:15:40Z</time>
      </trkpt>
      <trkpt lat="43.2031455170" lon="-8.5960652400">
        <ele>218.59</ele>
        <time>2020-03-14T11:15:56Z</time>
      </trkpt>
      <trkpt lat="43.2028854266" lon="-8.5962007754">
        <ele>221.65</ele>
        <time>2020-03-14T11:16:10Z</time>
      </trkpt>
      <trkpt lat="43.2027677447" lon="-8.5962085705">
        <ele>222.92</ele>
        <time>2020-03-14T11:16:16Z</time>
      </trkpt>
      <trkpt lat="43.2027687505" lon="-8.5960965883">
        <ele>223.70</ele>
        <time>2020-03-14T11:16:20Z</time>
      </trkpt>
      <trkpt lat="43.2029515598" lon="-8.5956054088">
        <ele>225.04</ele>
        <time>2020-03-14T11:16:33Z</time>
      </trkpt>
      <trkpt lat="43.2028977480" lon="-8.5951644368">
        <ele>225.47</ele>
        <time>2020-03-14T11:16:44Z</time>
      </trkpt>
      <trkpt lat="43.2028613705" lon="-8.5948806256">
        <ele>227.41</ele>
        <time>2020-03-14T11:16:54Z</time>
      </trkpt>
      <trkpt lat="43.2027390786" lon="-8.5945549887">
        <ele>230.49</ele>
        <time>2020-03-14T11:17:06Z</time>
      </trkpt>
      <trkpt lat="43.2025607117" lon="-8.5942491330">
        <ele>233.75</ele>
        <time>2020-03-14T11:17:19Z</time>
      </trkpt>
      <trkpt lat="43.2025454566" lon="-8.5942314472">
        <ele>233.96</ele>
        <time>2020-03-14T11:17:20Z</time>
      </trkpt>
      <trkpt lat="43.2023566123" lon="-8.5938907228">
        <ele>237.32</ele>
        <time>2020-03-14T11:17:35Z</time>
      </trkpt>
      <trkpt lat="43.2022197358" lon="-8.5935540218">
        <ele>240.04</ele>
        <time>2020-03-14T11:17:49Z</time>
      </trkpt>
      <trkpt lat="43.2021714561" lon="-8.5935110226">
        <ele>240.46</ele>
        <time>2020-03-14T11:17:52Z</time>
      </trkpt>
      <trkpt lat="43.2019249443" lon="-8.5933430493">
        <ele>243.98</ele>
        <time>2020-03-14T11:18:07Z</time>
      </trkpt>
      <trkpt lat="43.2017279696" lon="-8.5932169016">
        <ele>247.17</ele>
        <time>2020-03-14T11:18:19Z</time>
      </trkpt>
      <trkpt lat="43.2015387062" lon="-8.5931048356">
        <ele>250.26</ele>
        <time>2020-03-14T11:18:30Z</time>
      </trkpt>
      <trkpt lat="43.2015234511" lon="-8.5930916760">
        <ele>250.57</ele>
        <time>2020-03-14T11:18:31Z</time>
      </trkpt>
      <trkpt lat="43.2014345191" lon="-8.5930330027">
        <ele>251.86</ele>
        <time>2020-03-14T11:18:36Z</time>
      </trkpt>
      <trkpt lat="43.2013479341" lon="-8.5929573979">
        <ele>252.84</ele>
        <time>2020-03-14T11:18:41Z</time>
      </trkpt>
      <trkpt lat="43.2011697348" lon="-8.5925880075">
        <ele>254.33</ele>
        <time>2020-03-14T11:18:53Z</time>
      </trkpt>
      <trkpt lat="43.2010289188" lon="-8.5922217183">
        <ele>254.00</ele>
        <time>2020-03-14T11:19:06Z</time>
      </trkpt>
      <trkpt lat="43.2008705009" lon="-8.5920419265">
        <ele>256.61</ele>
        <time>2020-03-14T11:19:17Z</time>
      </trkpt>
      <trkpt lat="43.2008146774" lon="-8.5920487158">
        <ele>257.25</ele>
        <time>2020-03-14T11:19:20Z</time>
      </trkpt>
      <trkpt lat="43.2007522322" lon="-8.5920965765">
        <ele>258.24</ele>
        <time>2020-03-14T11:19:24Z</time>
      </trkpt>
      <trkpt lat="43.2005239930" lon="-8.5923321918">
        <ele>261.83</ele>
        <time>2020-03-14T11:19:38Z</time>
      </trkpt>
      <trkpt lat="43.2002723683" lon="-8.5925146658">
        <ele>265.08</ele>
        <time>2020-03-14T11:19:52Z</time>
      </trkpt>
      <trkpt lat="43.1999220047" lon="-8.5925903544">
        <ele>268.19</ele>
        <time>2020-03-14T11:20:10Z</time>
      </trkpt>
      <trkpt lat="43.1996822823" lon="-8.5925802961">
        <ele>271.31</ele>
        <time>2020-03-14T11:20:22Z</time>
      </trkpt>
      <trkpt lat="43.1994078588" lon="-8.5925632808">
        <ele>274.36</ele>
        <time>2020-03-14T11:20:35Z</time>
      </trkpt>
      <trkpt lat="43.1991450861" lon="-8.5925497022">
        <ele>277.39</ele>
        <time>2020-03-14T11:20:47Z</time>
      </trkpt>
      <trkpt lat="43.1987892743" lon="-8.5924531426">
        <ele>280.53</ele>
        <time>2020-03-14T11:21:03Z</time>
      </trkpt>
      <trkpt lat="43.1983442791" lon="-8.5925636999">
        <ele>283.13</ele>
        <time>2020-03-14T11:21:21Z</time>
      </trkpt>
      <trkpt lat="43.1982012838" lon="-8.5927157477">
        <ele>284.60</ele>
        <time>2020-03-14T11:21:32Z</time>
      </trkpt>
      <trkpt lat="43.1982223224" lon="-8.5927520413">
        <ele>284.53</ele>
        <time>2020-03-14T11:22:00Z</time>
      </trkpt>
      <trkpt lat="43.1982040498" lon="-8.5927450005">
        <ele>284.25</ele>
        <time>2020-03-14T11:22:40Z</time>
      </trkpt>
      <trkpt lat="43.1981931534" lon="-8.5927525442">
        <ele>284.25</ele>
        <time>2020-03-14T11:22:41Z</time>
      </trkpt>
      <trkpt lat="43.1981686782" lon="-8.5927872453">
        <ele>284.25</ele>
        <time>2020-03-14T11:22:43Z</time>
      </trkpt>
      <trkpt lat="43.1979834381" lon="-8.5930535384">
        <ele>284.14</ele>
        <time>2020-03-14T11:22:51Z</time>
      </trkpt>
      <trkpt lat="43.1979407743" lon="-8.5930713918">
        <ele>284.11</ele>
        <time>2020-03-14T11:22:52Z</time>
      </trkpt>
      <trkpt lat="43.1978924107" lon="-8.5930809472">
        <ele>283.98</ele>
        <time>2020-03-14T11:22:53Z</time>
      </trkpt>
      <trkpt lat="43.1975179911" lon="-8.5931338370">
        <ele>283.09</ele>
        <time>2020-03-14T11:23:00Z</time>
      </trkpt>
      <trkpt lat="43.1974802725" lon="-8.5931656044">
        <ele>282.85</ele>
        <time>2020-03-14T11:23:01Z</time>
      </trkpt>
      <trkpt lat="43.1974480860" lon="-8.5932185780">
        <ele>282.43</ele>
        <time>2020-03-14T11:23:02Z</time>
      </trkpt>
      <trkpt lat="43.1974221021" lon="-8.5932910815">
        <ele>281.97</ele>
        <time>2020-03-14T11:23:03Z</time>
      </trkpt>
      <trkpt lat="43.1974040810" lon="-8.5933767445">
        <ele>281.45</ele>
        <time>2020-03-14T11:23:04Z</time>
      </trkpt>
      <trkpt lat="43.1973901670" lon="-8.5934629105">
        <ele>280.82</ele>
        <time>2020-03-14T11:23:05Z</time>
      </trkpt>
      <trkpt lat="43.1973582320" lon="-8.5936007928">
        <ele>279.10</ele>
        <time>2020-03-14T11:23:07Z</time>
      </trkpt>
      <trkpt lat="43.1973267160" lon="-8.5936494917">
        <ele>278.54</ele>
        <time>2020-03-14T11:23:08Z</time>
      </trkpt>
      <trkpt lat="43.1971248798" lon="-8.5939446185">
        <ele>275.51</ele>
        <time>2020-03-14T11:23:13Z</time>
      </trkpt>
      <trkpt lat="43.1967858318" lon="-8.5945605207">
        <ele>272.02</ele>
        <time>2020-03-14T11:23:21Z</time>
      </trkpt>
      <trkpt lat="43.1966720056" lon="-8.5948086251">
        <ele>269.95</ele>
        <time>2020-03-14T11:23:24Z</time>
      </trkpt>
      <trkpt lat="43.1965401582" lon="-8.5952475853">
        <ele>265.43</ele>
        <time>2020-03-14T11:23:29Z</time>
      </trkpt>
      <trkpt lat="43.1964617874" lon="-8.5956289619">
        <ele>261.55</ele>
        <time>2020-03-14T11:23:33Z</time>
      </trkpt>
      <trkpt lat="43.1964122504" lon="-8.5958739650">
        <ele>259.58</ele>
        <time>2020-03-14T11:23:36Z</time>
      </trkpt>
      <trkpt lat="43.1962029543" lon="-8.5961791500">
        <ele>255.16</ele>
        <time>2020-03-14T11:23:43Z</time>
      </trkpt>
      <trkpt lat="43.1959815882" lon="-8.5960320476">
        <ele>252.99</ele>
        <time>2020-03-14T11:23:48Z</time>
      </trkpt>
      <trkpt lat="43.1958371680" lon="-8.5958361626">
        <ele>250.92</ele>
        <time>2020-03-14T11:23:52Z</time>
      </trkpt>
      <trkpt lat="43.1956568733" lon="-8.5956411157">
        <ele>247.41</ele>
        <time>2020-03-14T11:23:56Z</time>
      </trkpt>
      <trkpt lat="43.1955725513" lon="-8.5955451429">
        <ele>246.35</ele>
        <time>2020-03-14T11:23:58Z</time>
      </trkpt>
      <trkpt lat="43.1954157259" lon="-8.5952210147">
        <ele>241.17</ele>
        <time>2020-03-14T11:24:04Z</time>
      </trkpt>
      <trkpt lat="43.1953938492" lon="-8.5949985590">
        <ele>239.06</ele>
        <time>2020-03-14T11:24:07Z</time>
      </trkpt>
      <trkpt lat="43.1953212619" lon="-8.5946448427">
        <ele>235.41</ele>
        <time>2020-03-14T11:24:14Z</time>
      </trkpt>
      <trkpt lat="43.1954013929" lon="-8.5942757037">
        <ele>233.72</ele>
        <time>2020-03-14T11:24:26Z</time>
      </trkpt>
      <trkpt lat="43.1954329927" lon="-8.5941866878">
        <ele>234.41</ele>
        <time>2020-03-14T11:24:30Z</time>
      </trkpt>
      <trkpt lat="43.1954501756" lon="-8.5940145236">
        <ele>237.98</ele>
        <time>2020-03-14T11:24:42Z</time>
      </trkpt>
      <trkpt lat="43.1954564620" lon="-8.5938540101">
        <ele>240.55</ele>
        <time>2020-03-14T11:24:57Z</time>
      </trkpt>
      <trkpt lat="43.1954871397" lon="-8.5936490726">
        <ele>243.68</ele>
        <time>2020-03-14T11:25:13Z</time>
      </trkpt>
      <trkpt lat="43.1955106929" lon="-8.5934836138">
        <ele>246.81</ele>
        <time>2020-03-14T11:25:28Z</time>
      </trkpt>
      <trkpt lat="43.1954891514" lon="-8.5932576377">
        <ele>249.95</ele>
        <time>2020-03-14T11:25:45Z</time>
      </trkpt>
      <trkpt lat="43.1954105292" lon="-8.5930684581">
        <ele>252.32</ele>
        <time>2020-03-14T11:26:01Z</time>
      </trkpt>
      <trkpt lat="43.1952395383" lon="-8.5929195117">
        <ele>255.35</ele>
        <time>2020-03-14T11:26:18Z</time>
      </trkpt>
      <trkpt lat="43.1951008178" lon="-8.5928406380">
        <ele>258.35</ele>
        <time>2020-03-14T11:26:34Z</time>
      </trkpt>
      <trkpt lat="43.1950655300" lon="-8.5927594174">
        <ele>260.92</ele>
        <time>2020-03-14T11:26:56Z</time>
      </trkpt>
      <trkpt lat="43.1950760074" lon="-8.5927324276">
        <ele>260.96</ele>
        <time>2020-03-14T11:27:04Z</time>
      </trkpt>
      <trkpt lat="43.1951197609" lon="-8.5926490277">
        <ele>260.95</ele>
        <time>2020-03-14T11:27:09Z</time>
      </trkpt>
      <trkpt lat="43.1951756682" lon="-8.5925510433">
        <ele>260.97</ele>
        <time>2020-03-14T11:27:15Z</time>
      </trkpt>
      <trkpt lat="43.1952211820" lon="-8.5925425775">
        <ele>261.11</ele>
        <time>2020-03-14T11:27:29Z</time>
      </trkpt>
      <trkpt lat="43.1951359380" lon="-8.5926151648">
        <ele>261.23</ele>
        <time>2020-03-14T11:27:40Z</time>
      </trkpt>
      <trkpt lat="43.1950699724" lon="-8.5927469283">
        <ele>261.27</ele>
        <time>2020-03-14T11:27:46Z</time>
      </trkpt>
      <trkpt lat="43.1951598264" lon="-8.5928732436">
        <ele>260.95</ele>
        <time>2020-03-14T11:27:52Z</time>
      </trkpt>
      <trkpt lat="43.1952111237" lon="-8.5929097049">
        <ele>260.81</ele>
        <time>2020-03-14T11:27:54Z</time>
      </trkpt>
      <trkpt lat="43.1954476610" lon="-8.5927807074">
        <ele>258.46</ele>
        <time>2020-03-14T11:28:04Z</time>
      </trkpt>
      <trkpt lat="43.1954627484" lon="-8.5927589145">
        <ele>255.39</ele>
        <time>2020-03-14T11:28:13Z</time>
      </trkpt>
      <trkpt lat="43.1954436377" lon="-8.5927767679">
        <ele>255.36</ele>
        <time>2020-03-14T11:28:15Z</time>
      </trkpt>
      <trkpt lat="43.1953397859" lon="-8.5928908456">
        <ele>255.39</ele>
        <time>2020-03-14T11:28:24Z</time>
      </trkpt>
      <trkpt lat="43.1950781867" lon="-8.5928268079">
        <ele>258.44</ele>
        <time>2020-03-14T11:28:48Z</time>
      </trkpt>
      <trkpt lat="43.1950430665" lon="-8.5928600840">
        <ele>259.92</ele>
        <time>2020-03-14T11:28:56Z</time>
      </trkpt>
      <trkpt lat="43.1950454134" lon="-8.5929667857">
        <ele>260.62</ele>
        <time>2020-03-14T11:29:00Z</time>
      </trkpt>
      <trkpt lat="43.1949379575" lon="-8.5933772475">
        <ele>261.33</ele>
        <time>2020-03-14T11:29:13Z</time>
      </trkpt>
      <trkpt lat="43.1948439125" lon="-8.5934560373">
        <ele>261.25</ele>
        <time>2020-03-14T11:29:20Z</time>
      </trkpt>
      <trkpt lat="43.1948088761" lon="-8.5936443787">
        <ele>261.01</ele>
        <time>2020-03-14T11:29:28Z</time>
      </trkpt>
      <trkpt lat="43.1946756877" lon="-8.5936561972">
        <ele>259.64</ele>
        <time>2020-03-14T11:29:34Z</time>
      </trkpt>
      <trkpt lat="43.1944570038" lon="-8.5935821850">
        <ele>256.40</ele>
        <time>2020-03-14T11:29:45Z</time>
      </trkpt>
      <trkpt lat="43.1942732725" lon="-8.5934547801">
        <ele>256.37</ele>
        <time>2020-03-14T11:29:55Z</time>
      </trkpt>
      <trkpt lat="43.1940152775" lon="-8.5933403671">
        <ele>256.88</ele>
        <time>2020-03-14T11:30:06Z</time>
      </trkpt>
      <trkpt lat="43.1938348152" lon="-8.5931595694">
        <ele>257.71</ele>
        <time>2020-03-14T11:30:17Z</time>
      </trkpt>
      <trkpt lat="43.1938065682" lon="-8.5930638481">
        <ele>260.84</ele>
        <time>2020-03-14T11:30:25Z</time>
      </trkpt>
      <trkpt lat="43.1937867869" lon="-8.5929234512">
        <ele>263.85</ele>
        <time>2020-03-14T11:30:38Z</time>
      </trkpt>
      <trkpt lat="43.1937778182" lon="-8.5927110538">
        <ele>266.86</ele>
        <time>2020-03-14T11:30:55Z</time>
      </trkpt>
      <trkpt lat="43.1937774830" lon="-8.5925084632">
        <ele>270.01</ele>
        <time>2020-03-14T11:31:10Z</time>
      </trkpt>
      <trkpt lat="43.1937289517" lon="-8.5923131648">
        <ele>273.15</ele>
        <time>2020-03-14T11:31:27Z</time>
      </trkpt>
      <trkpt lat="43.1936760619" lon="-8.5921387374">
        <ele>276.18</ele>
        <time>2020-03-14T11:31:42Z</time>
      </trkpt>
      <trkpt lat="43.1936083362" lon="-8.5919370688">
        <ele>279.39</ele>
        <time>2020-03-14T11:32:01Z</time>
      </trkpt>
      <trkpt lat="43.1935574580" lon="-8.5917671677">
        <ele>282.42</ele>
        <time>2020-03-14T11:32:17Z</time>
      </trkpt>
      <trkpt lat="43.1934840325" lon="-8.5915965959">
        <ele>285.51</ele>
        <time>2020-03-14T11:32:35Z</time>
      </trkpt>
      <trkpt lat="43.1934175640" lon="-8.5914477333">
        <ele>288.54</ele>
        <time>2020-03-14T11:32:51Z</time>
      </trkpt>
      <trkpt lat="43.1933460664" lon="-8.5913355835">
        <ele>291.07</ele>
        <time>2020-03-14T11:33:11Z</time>
      </trkpt>
      <trkpt lat="43.1932763290" lon="-8.5912105255">
        <ele>294.13</ele>
        <time>2020-03-14T11:33:25Z</time>
      </trkpt>
      <trkpt lat="43.1931744888" lon="-8.5910986271">
        <ele>297.49</ele>
        <time>2020-03-14T11:33:41Z</time>
      </trkpt>
      <trkpt lat="43.1930480059" lon="-8.5909869801">
        <ele>300.51</ele>
        <time>2020-03-14T11:33:59Z</time>
      </trkpt>
      <trkpt lat="43.1929364428" lon="-8.5908974614">
        <ele>303.51</ele>
        <time>2020-03-14T11:34:13Z</time>
      </trkpt>
      <trkpt lat="43.1929034181" lon="-8.5908674542">
        <ele>304.21</ele>
        <time>2020-03-14T11:34:17Z</time>
      </trkpt>
      <trkpt lat="43.1928551383" lon="-8.5907962080">
        <ele>305.62</ele>
        <time>2020-03-14T11:34:24Z</time>
      </trkpt>
      <trkpt lat="43.1928470079" lon="-8.5905859899">
        <ele>308.86</ele>
        <time>2020-03-14T11:34:41Z</time>
      </trkpt>
      <trkpt lat="43.1928484328" lon="-8.5902002547">
        <ele>310.75</ele>
        <time>2020-03-14T11:34:56Z</time>
      </trkpt>
      <trkpt lat="43.1928586587" lon="-8.5899364762">
        <ele>313.87</ele>
        <time>2020-03-14T11:35:07Z</time>
      </trkpt>
      <trkpt lat="43.1928642746" lon="-8.5895784851">
        <ele>317.03</ele>
        <time>2020-03-14T11:35:20Z</time>
      </trkpt>
      <trkpt lat="43.1927476823" lon="-8.5890870541">
        <ele>320.05</ele>
        <time>2020-03-14T11:35:36Z</time>
      </trkpt>
      <trkpt lat="43.1928767636" lon="-8.5887799412">
        <ele>320.41</ele>
        <time>2020-03-14T11:35:46Z</time>
      </trkpt>
      <trkpt lat="43.1932809390" lon="-8.5883332696">
        <ele>320.84</ele>
        <time>2020-03-14T11:36:05Z</time>
      </trkpt>
      <trkpt lat="43.1935281213" lon="-8.5880010109">
        <ele>324.01</ele>
        <time>2020-03-14T11:36:20Z</time>
      </trkpt>
      <trkpt lat="43.1935900636" lon="-8.5878548305">
        <ele>325.09</ele>
        <time>2020-03-14T11:36:25Z</time>
      </trkpt>
      <trkpt lat="43.1935262773" lon="-8.5876748711">
        <ele>326.35</ele>
        <time>2020-03-14T11:36:31Z</time>
      </trkpt>
      <trkpt lat="43.1932891533" lon="-8.5877073929">
        <ele>326.63</ele>
        <time>2020-03-14T11:36:40Z</time>
      </trkpt>
      <trkpt lat="43.1931110378" lon="-8.5876244958">
        <ele>326.35</ele>
        <time>2020-03-14T11:36:44Z</time>
      </trkpt>
      <trkpt lat="43.1928670406" lon="-8.5874333885">
        <ele>324.05</ele>
        <time>2020-03-14T11:36:51Z</time>
      </trkpt>
      <trkpt lat="43.1928096246" lon="-8.5873453785">
        <ele>323.20</ele>
        <time>2020-03-14T11:36:53Z</time>
      </trkpt>
      <trkpt lat="43.1927131489" lon="-8.5871686880">
        <ele>322.59</ele>
        <time>2020-03-14T11:36:56Z</time>
      </trkpt>
      <trkpt lat="43.1924981531" lon="-8.5870272014">
        <ele>321.40</ele>
        <time>2020-03-14T11:37:01Z</time>
      </trkpt>
      <trkpt lat="43.1921087299" lon="-8.5869408678">
        <ele>317.95</ele>
        <time>2020-03-14T11:37:12Z</time>
      </trkpt>
      <trkpt lat="43.1920163613" lon="-8.5868257843">
        <ele>317.94</ele>
        <time>2020-03-14T11:37:18Z</time>
      </trkpt>
      <trkpt lat="43.1920415070" lon="-8.5866436455">
        <ele>320.19</ele>
        <time>2020-03-14T11:37:28Z</time>
      </trkpt>
      <trkpt lat="43.1920680776" lon="-8.5865483433">
        <ele>323.34</ele>
        <time>2020-03-14T11:37:42Z</time>
      </trkpt>
      <trkpt lat="43.1921510585" lon="-8.5863938648">
        <ele>326.42</ele>
        <time>2020-03-14T11:37:57Z</time>
      </trkpt>
      <trkpt lat="43.1922530662" lon="-8.5862906836">
        <ele>329.27</ele>
        <time>2020-03-14T11:38:13Z</time>
      </trkpt>
      <trkpt lat="43.1923675630" lon="-8.5861398093">
        <ele>332.32</ele>
        <time>2020-03-14T11:38:28Z</time>
      </trkpt>
      <trkpt lat="43.1923562475" lon="-8.5859632865">
        <ele>335.72</ele>
        <time>2020-03-14T11:38:45Z</time>
      </trkpt>
      <trkpt lat="43.1923147570" lon="-8.5858140886">
        <ele>338.51</ele>
        <time>2020-03-14T11:39:01Z</time>
      </trkpt>
      <trkpt lat="43.1922890246" lon="-8.5855135135">
        <ele>339.87</ele>
        <time>2020-03-14T11:39:11Z</time>
      </trkpt>
      <trkpt lat="43.1922518089" lon="-8.5853813309">
        <ele>340.89</ele>
        <time>2020-03-14T11:39:17Z</time>
      </trkpt>
      <trkpt lat="43.1920883618" lon="-8.5850545205">
        <ele>343.04</ele>
        <time>2020-03-14T11:39:32Z</time>
      </trkpt>
      <trkpt lat="43.1920549180" lon="-8.5847976990">
        <ele>343.95</ele>
        <time>2020-03-14T11:39:39Z</time>
      </trkpt>
      <trkpt lat="43.1916219089" lon="-8.5844283085">
        <ele>344.41</ele>
        <time>2020-03-14T11:39:52Z</time>
      </trkpt>
      <trkpt lat="43.1911922526" lon="-8.5839631967">
        <ele>341.31</ele>
        <time>2020-03-14T11:40:01Z</time>
      </trkpt>
      <trkpt lat="43.1908645201" lon="-8.5834598634">
        <ele>337.99</ele>
        <time>2020-03-14T11:40:10Z</time>
      </trkpt>
      <trkpt lat="43.1907602493" lon="-8.5833110847">
        <ele>336.00</ele>
        <time>2020-03-14T11:40:14Z</time>
      </trkpt>
      <trkpt lat="43.1907513645" lon="-8.5832649842">
        <ele>335.78</ele>
        <time>2020-03-14T11:40:15Z</time>
      </trkpt>
      <trkpt lat="43.1907506939" lon="-8.5832240805">
        <ele>335.56</ele>
        <time>2020-03-14T11:40:16Z</time>
      </trkpt>
      <trkpt lat="43.1907548010" lon="-8.5831902176">
        <ele>335.14</ele>
        <time>2020-03-14T11:40:17Z</time>
      </trkpt>
      <trkpt lat="43.1907613389" lon="-8.5831642337">
        <ele>334.53</ele>
        <time>2020-03-14T11:40:18Z</time>
      </trkpt>
      <trkpt lat="43.1907687988" lon="-8.5831410158">
        <ele>333.98</ele>
        <time>2020-03-14T11:40:19Z</time>
      </trkpt>
      <trkpt lat="43.1907780189" lon="-8.5831187200">
        <ele>333.70</ele>
        <time>2020-03-14T11:40:20Z</time>
      </trkpt>
      <trkpt lat="43.1908667833" lon="-8.5829111841">
        <ele>335.66</ele>
        <time>2020-03-14T11:40:34Z</time>
      </trkpt>
      <trkpt lat="43.1909103692" lon="-8.5828454699">
        <ele>336.75</ele>
        <time>2020-03-14T11:40:38Z</time>
      </trkpt>
      <trkpt lat="43.1909233611" lon="-8.5828284547">
        <ele>337.03</ele>
        <time>2020-03-14T11:40:39Z</time>
      </trkpt>
      <trkpt lat="43.1909382809" lon="-8.5828137863">
        <ele>337.25</ele>
        <time>2020-03-14T11:40:40Z</time>
      </trkpt>
      <trkpt lat="43.1909537874" lon="-8.5828015488">
        <ele>337.37</ele>
        <time>2020-03-14T11:40:41Z</time>
      </trkpt>
      <trkpt lat="43.1909693778" lon="-8.5827893950">
        <ele>337.72</ele>
        <time>2020-03-14T11:40:42Z</time>
      </trkpt>
      <trkpt lat="43.1909863930" lon="-8.5827749781">
        <ele>337.94</ele>
        <time>2020-03-14T11:40:43Z</time>
      </trkpt>
      <trkpt lat="43.1910049170" lon="-8.5827603936">
        <ele>338.36</ele>
        <time>2020-03-14T11:40:44Z</time>
      </trkpt>
      <trkpt lat="43.1910267938" lon="-8.5827489942">
        <ele>338.70</ele>
        <time>2020-03-14T11:40:45Z</time>
      </trkpt>
      <trkpt lat="43.1912280433" lon="-8.5824797675">
        <ele>341.84</ele>
        <time>2020-03-14T11:40:58Z</time>
      </trkpt>
      <trkpt lat="43.1913324818" lon="-8.5821458325">
        <ele>342.57</ele>
        <time>2020-03-14T11:41:08Z</time>
      </trkpt>
      <trkpt lat="43.1913580466" lon="-8.5821226984">
        <ele>342.61</ele>
        <time>2020-03-14T11:41:09Z</time>
      </trkpt>
      <trkpt lat="43.1916105933" lon="-8.5816961434">
        <ele>343.29</ele>
        <time>2020-03-14T11:41:23Z</time>
      </trkpt>
      <trkpt lat="43.1919054687" lon="-8.5815329477">
        <ele>343.90</ele>
        <time>2020-03-14T11:41:33Z</time>
      </trkpt>
      <trkpt lat="43.1923730951" lon="-8.5811518226">
        <ele>345.51</ele>
        <time>2020-03-14T11:41:50Z</time>
      </trkpt>
      <trkpt lat="43.1929344311" lon="-8.5807684343">
        <ele>347.54</ele>
        <time>2020-03-14T11:42:10Z</time>
      </trkpt>
      <trkpt lat="43.1932577211" lon="-8.5803409573">
        <ele>347.91</ele>
        <time>2020-03-14T11:42:23Z</time>
      </trkpt>
      <trkpt lat="43.1936541013" lon="-8.5796455108">
        <ele>348.99</ele>
        <time>2020-03-14T11:42:44Z</time>
      </trkpt>
      <trkpt lat="43.1938525848" lon="-8.5794751905">
        <ele>350.35</ele>
        <time>2020-03-14T11:42:53Z</time>
      </trkpt>
      <trkpt lat="43.1938965060" lon="-8.5794829857">
        <ele>350.51</ele>
        <time>2020-03-14T11:42:54Z</time>
      </trkpt>
      <trkpt lat="43.1942838337" lon="-8.5795689002">
        <ele>351.95</ele>
        <time>2020-03-14T11:43:04Z</time>
      </trkpt>
      <trkpt lat="43.1943100691" lon="-8.5795451794">
        <ele>352.02</ele>
        <time>2020-03-14T11:43:05Z</time>
      </trkpt>
      <trkpt lat="43.1943247374" lon="-8.5795031022">
        <ele>352.06</ele>
        <time>2020-03-14T11:43:06Z</time>
      </trkpt>
      <trkpt lat="43.1943295151" lon="-8.5794583429">
        <ele>352.08</ele>
        <time>2020-03-14T11:43:07Z</time>
      </trkpt>
      <trkpt lat="43.1943288445" lon="-8.5794155113">
        <ele>352.09</ele>
        <time>2020-03-14T11:43:08Z</time>
      </trkpt>
      <trkpt lat="43.1943267491" lon="-8.5793764517">
        <ele>352.09</ele>
        <time>2020-03-14T11:43:09Z</time>
      </trkpt>
      <trkpt lat="43.1943146791" lon="-8.5788544267">
        <ele>353.81</ele>
        <time>2020-03-14T11:43:25Z</time>
      </trkpt>
      <trkpt lat="43.1942787208" lon="-8.5783484951">
        <ele>355.80</ele>
        <time>2020-03-14T11:43:38Z</time>
      </trkpt>
      <trkpt lat="43.1941742823" lon="-8.5780724790">
        <ele>356.07</ele>
        <time>2020-03-14T11:43:46Z</time>
      </trkpt>
      <trkpt lat="43.1941487174" lon="-8.5780649353">
        <ele>356.08</ele>
        <time>2020-03-14T11:43:47Z</time>
      </trkpt>
      <trkpt lat="43.1941245776" lon="-8.5780677851">
        <ele>356.11</ele>
        <time>2020-03-14T11:43:48Z</time>
      </trkpt>
      <trkpt lat="43.1940976717" lon="-8.5780687910">
        <ele>356.47</ele>
        <time>2020-03-14T11:43:49Z</time>
      </trkpt>
      <trkpt lat="43.1940675806" lon="-8.5780650191">
        <ele>356.67</ele>
        <time>2020-03-14T11:43:50Z</time>
      </trkpt>
      <trkpt lat="43.1940361485" lon="-8.5780532006">
        <ele>356.83</ele>
        <time>2020-03-14T11:43:51Z</time>
      </trkpt>
      <trkpt lat="43.1940048840" lon="-8.5780359339">
        <ele>356.94</ele>
        <time>2020-03-14T11:43:52Z</time>
      </trkpt>
      <trkpt lat="43.1939757988" lon="-8.5780130513">
        <ele>357.02</ele>
        <time>2020-03-14T11:43:53Z</time>
      </trkpt>
      <trkpt lat="43.1939500663" lon="-8.5779875703">
        <ele>357.05</ele>
        <time>2020-03-14T11:43:54Z</time>
      </trkpt>
      <trkpt lat="43.1939285249" lon="-8.5779559705">
        <ele>357.16</ele>
        <time>2020-03-14T11:43:55Z</time>
      </trkpt>
      <trkpt lat="43.1939115934" lon="-8.5779226106">
        <ele>357.38</ele>
        <time>2020-03-14T11:43:56Z</time>
      </trkpt>
      <trkpt lat="43.1938991882" lon="-8.5778858978">
        <ele>357.56</ele>
        <time>2020-03-14T11:43:57Z</time>
      </trkpt>
      <trkpt lat="43.1938915607" lon="-8.5778491851">
        <ele>357.73</ele>
        <time>2020-03-14T11:43:58Z</time>
      </trkpt>
      <trkpt lat="43.1938838493" lon="-8.5778146517">
        <ele>357.83</ele>
        <time>2020-03-14T11:43:59Z</time>
      </trkpt>
      <trkpt lat="43.1938750483" lon="-8.5777824651">
        <ele>357.93</ele>
        <time>2020-03-14T11:44:00Z</time>
      </trkpt>
      <trkpt lat="43.1937452126" lon="-8.5773300100">
        <ele>360.24</ele>
        <time>2020-03-14T11:44:14Z</time>
      </trkpt>
      <trkpt lat="43.1936765648" lon="-8.5770320334">
        <ele>362.10</ele>
        <time>2020-03-14T11:44:24Z</time>
      </trkpt>
      <trkpt lat="43.1936069950" lon="-8.5765771475">
        <ele>365.24</ele>
        <time>2020-03-14T11:44:38Z</time>
      </trkpt>
      <trkpt lat="43.1935004611" lon="-8.5760657676">
        <ele>366.71</ele>
        <time>2020-03-14T11:44:53Z</time>
      </trkpt>
      <trkpt lat="43.1932903267" lon="-8.5755369533">
        <ele>367.74</ele>
        <time>2020-03-14T11:45:05Z</time>
      </trkpt>
      <trkpt lat="43.1931389496" lon="-8.5750418343">
        <ele>366.57</ele>
        <time>2020-03-14T11:45:16Z</time>
      </trkpt>
      <trkpt lat="43.1931464095" lon="-8.5750028584">
        <ele>366.55</ele>
        <time>2020-03-14T11:45:17Z</time>
      </trkpt>
      <trkpt lat="43.1932159793" lon="-8.5747549217">
        <ele>366.42</ele>
        <time>2020-03-14T11:45:21Z</time>
      </trkpt>
      <trkpt lat="43.1932474952" lon="-8.5746791493">
        <ele>366.38</ele>
        <time>2020-03-14T11:45:22Z</time>
      </trkpt>
      <trkpt lat="43.1933591422" lon="-8.5744972620">
        <ele>366.09</ele>
        <time>2020-03-14T11:45:25Z</time>
      </trkpt>
      <trkpt lat="43.1934865471" lon="-8.5743150394">
        <ele>364.18</ele>
        <time>2020-03-14T11:45:30Z</time>
      </trkpt>
      <trkpt lat="43.1935384311" lon="-8.5742912348">
        <ele>362.63</ele>
        <time>2020-03-14T11:45:33Z</time>
      </trkpt>
      <trkpt lat="43.1937638205" lon="-8.5743334796">
        <ele>362.10</ele>
        <time>2020-03-14T11:45:45Z</time>
      </trkpt>
      <trkpt lat="43.1940524094" lon="-8.5745361540">
        <ele>361.62</ele>
        <time>2020-03-14T11:45:56Z</time>
      </trkpt>
      <trkpt lat="43.1943472009" lon="-8.5746272653">
        <ele>360.26</ele>
        <time>2020-03-14T11:46:05Z</time>
      </trkpt>
      <trkpt lat="43.1946172658" lon="-8.5745044705">
        <ele>357.57</ele>
        <time>2020-03-14T11:46:16Z</time>
      </trkpt>
      <trkpt lat="43.1947115622" lon="-8.5744377505">
        <ele>354.89</ele>
        <time>2020-03-14T11:46:22Z</time>
      </trkpt>
      <trkpt lat="43.1947960518" lon="-8.5743860342">
        <ele>353.96</ele>
        <time>2020-03-14T11:46:26Z</time>
      </trkpt>
      <trkpt lat="43.1948905159" lon="-8.5743358266">
        <ele>353.50</ele>
        <time>2020-03-14T11:46:30Z</time>
      </trkpt>
      <trkpt lat="43.1951659452" lon="-8.5742368363">
        <ele>351.86</ele>
        <time>2020-03-14T11:46:41Z</time>
      </trkpt>
      <trkpt lat="43.1954696216" lon="-8.5743919015">
        <ele>351.58</ele>
        <time>2020-03-14T11:46:54Z</time>
      </trkpt>
      <trkpt lat="43.1956929993" lon="-8.5745777283">
        <ele>352.73</ele>
        <time>2020-03-14T11:47:05Z</time>
      </trkpt>
      <trkpt lat="43.1957853679" lon="-8.5746229906">
        <ele>353.52</ele>
        <time>2020-03-14T11:47:09Z</time>
      </trkpt>
      <trkpt lat="43.1958835199" lon="-8.5746610444">
        <ele>354.65</ele>
        <time>2020-03-14T11:47:13Z</time>
      </trkpt>
      <trkpt lat="43.1961816642" lon="-8.5747538321">
        <ele>357.11</ele>
        <time>2020-03-14T11:47:25Z</time>
      </trkpt>
      <trkpt lat="43.1963824108" lon="-8.5747715179">
        <ele>357.62</ele>
        <time>2020-03-14T11:47:34Z</time>
      </trkpt>
      <trkpt lat="43.1966215465" lon="-8.5748433508">
        <ele>359.30</ele>
        <time>2020-03-14T11:47:45Z</time>
      </trkpt>
      <trkpt lat="43.1968967244" lon="-8.5749596078">
        <ele>360.40</ele>
        <time>2020-03-14T11:47:55Z</time>
      </trkpt>
      <trkpt lat="43.1971324235" lon="-8.5748843383">
        <ele>361.41</ele>
        <time>2020-03-14T11:48:04Z</time>
      </trkpt>
      <trkpt lat="43.1972488482" lon="-8.5748074763">
        <ele>361.41</ele>
        <time>2020-03-14T11:48:08Z</time>
      </trkpt>
      <trkpt lat="43.1975437235" lon="-8.5746925604">
        <ele>361.01</ele>
        <time>2020-03-14T11:48:14Z</time>
      </trkpt>
      <trkpt lat="43.1977763213" lon="-8.5746029578">
        <ele>359.42</ele>
        <time>2020-03-14T11:48:18Z</time>
      </trkpt>
      <trkpt lat="43.1982005294" lon="-8.5743779875">
        <ele>356.01</ele>
        <time>2020-03-14T11:48:26Z</time>
      </trkpt>
      <trkpt lat="43.1983239111" lon="-8.5742732976">
        <ele>352.89</ele>
        <time>2020-03-14T11:48:30Z</time>
      </trkpt>
      <trkpt lat="43.1984238233" lon="-8.5741563700">
        <ele>351.03</ele>
        <time>2020-03-14T11:48:40Z</time>
      </trkpt>
      <trkpt lat="43.1984327920" lon="-8.5740975291">
        <ele>350.52</ele>
        <time>2020-03-14T11:50:35Z</time>
      </trkpt>
      <trkpt lat="43.1985151023" lon="-8.5740925837">
        <ele>350.45</ele>
        <time>2020-03-14T11:51:31Z</time>
      </trkpt>
      <trkpt lat="43.1986024417" lon="-8.5739575513">
        <ele>350.32</ele>
        <time>2020-03-14T11:51:36Z</time>
      </trkpt>
      <trkpt lat="43.1986300182" lon="-8.5738946870">
        <ele>350.23</ele>
        <time>2020-03-14T11:51:38Z</time>
      </trkpt>
      <trkpt lat="43.1987316068" lon="-8.5737419687">
        <ele>348.78</ele>
        <time>2020-03-14T11:51:43Z</time>
      </trkpt>
      <trkpt lat="43.1986878533" lon="-8.5733444151">
        <ele>344.66</ele>
        <time>2020-03-14T11:51:51Z</time>
      </trkpt>
      <trkpt lat="43.1986555830" lon="-8.5732210334">
        <ele>341.38</ele>
        <time>2020-03-14T11:51:55Z</time>
      </trkpt>
      <trkpt lat="43.1986600254" lon="-8.5731222946">
        <ele>339.89</ele>
        <time>2020-03-14T11:51:58Z</time>
      </trkpt>
      <trkpt lat="43.1987104006" lon="-8.5729269963">
        <ele>339.53</ele>
        <time>2020-03-14T11:52:02Z</time>
      </trkpt>
      <trkpt lat="43.1987352110" lon="-8.5724125151">
        <ele>337.98</ele>
        <time>2020-03-14T11:52:11Z</time>
      </trkpt>
      <trkpt lat="43.1987245660" lon="-8.5722983535">
        <ele>336.16</ele>
        <time>2020-03-14T11:52:15Z</time>
      </trkpt>
      <trkpt lat="43.1987463590" lon="-8.5721967649">
        <ele>336.04</ele>
        <time>2020-03-14T11:52:19Z</time>
      </trkpt>
      <trkpt lat="43.1987509690" lon="-8.5721186455">
        <ele>336.04</ele>
        <time>2020-03-14T11:52:22Z</time>
      </trkpt>
      <trkpt lat="43.1987387314" lon="-8.5720003769">
        <ele>336.69</ele>
        <time>2020-03-14T11:52:26Z</time>
      </trkpt>
      <trkpt lat="43.1986471172" lon="-8.5715849698">
        <ele>338.20</ele>
        <time>2020-03-14T11:52:38Z</time>
      </trkpt>
      <trkpt lat="43.1986604445" lon="-8.5714503564">
        <ele>339.00</ele>
        <time>2020-03-14T11:52:42Z</time>
      </trkpt>
      <trkpt lat="43.1986061297" lon="-8.5711199418">
        <ele>340.02</ele>
        <time>2020-03-14T11:52:50Z</time>
      </trkpt>
      <trkpt lat="43.1986083928" lon="-8.5706872679">
        <ele>340.15</ele>
        <time>2020-03-14T11:52:58Z</time>
      </trkpt>
      <trkpt lat="43.1986066326" lon="-8.5704902094">
        <ele>340.44</ele>
        <time>2020-03-14T11:53:05Z</time>
      </trkpt>
      <trkpt lat="43.1986456085" lon="-8.5701631475">
        <ele>342.35</ele>
        <time>2020-03-14T11:53:15Z</time>
      </trkpt>
      <trkpt lat="43.1987130828" lon="-8.5698900651">
        <ele>343.41</ele>
        <time>2020-03-14T11:53:25Z</time>
      </trkpt>
      <trkpt lat="43.1987259071" lon="-8.5698671825">
        <ele>343.48</ele>
        <time>2020-03-14T11:53:26Z</time>
      </trkpt>
      <trkpt lat="43.1987364683" lon="-8.5698242672">
        <ele>343.89</ele>
        <time>2020-03-14T11:53:28Z</time>
      </trkpt>
      <trkpt lat="43.1987674814" lon="-8.5695977882">
        <ele>345.37</ele>
        <time>2020-03-14T11:53:36Z</time>
      </trkpt>
      <trkpt lat="43.1987850834" lon="-8.5695194174">
        <ele>345.49</ele>
        <time>2020-03-14T11:53:38Z</time>
      </trkpt>
      <trkpt lat="43.1987971533" lon="-8.5693083610">
        <ele>346.17</ele>
        <time>2020-03-14T11:53:44Z</time>
      </trkpt>
      <trkpt lat="43.1987264100" lon="-8.5690325126">
        <ele>346.73</ele>
        <time>2020-03-14T11:53:57Z</time>
      </trkpt>
      <trkpt lat="43.1985627115" lon="-8.5687392298">
        <ele>348.81</ele>
        <time>2020-03-14T11:54:09Z</time>
      </trkpt>
      <trkpt lat="43.1984562613" lon="-8.5685715079">
        <ele>350.89</ele>
        <time>2020-03-14T11:54:26Z</time>
      </trkpt>
      <trkpt lat="43.1984135136" lon="-8.5684406664">
        <ele>354.17</ele>
        <time>2020-03-14T11:54:40Z</time>
      </trkpt>
      <trkpt lat="43.1983275153" lon="-8.5682938993">
        <ele>357.33</ele>
        <time>2020-03-14T11:54:53Z</time>
      </trkpt>
      <trkpt lat="43.1983082369" lon="-8.5681265965">
        <ele>360.73</ele>
        <time>2020-03-14T11:55:09Z</time>
      </trkpt>
      <trkpt lat="43.1983388308" lon="-8.5679802485">
        <ele>363.36</ele>
        <time>2020-03-14T11:55:24Z</time>
      </trkpt>
      <trkpt lat="43.1983578578" lon="-8.5678724572">
        <ele>363.62</ele>
        <time>2020-03-14T11:55:28Z</time>
      </trkpt>
      <trkpt lat="43.1984451134" lon="-8.5676868819">
        <ele>363.70</ele>
        <time>2020-03-14T11:55:33Z</time>
      </trkpt>
      <trkpt lat="43.1985156052" lon="-8.5673164856">
        <ele>363.24</ele>
        <time>2020-03-14T11:55:40Z</time>
      </trkpt>
      <trkpt lat="43.1983483024" lon="-8.5669276491">
        <ele>360.44</ele>
        <time>2020-03-14T11:55:51Z</time>
      </trkpt>
      <trkpt lat="43.1981963385" lon="-8.5667430796">
        <ele>361.83</ele>
        <time>2020-03-14T11:56:00Z</time>
      </trkpt>
      <trkpt lat="43.1981794070" lon="-8.5666878428">
        <ele>362.74</ele>
        <time>2020-03-14T11:56:02Z</time>
      </trkpt>
      <trkpt lat="43.1981818378" lon="-8.5666435026">
        <ele>362.95</ele>
        <time>2020-03-14T11:56:03Z</time>
      </trkpt>
      <trkpt lat="43.1981991045" lon="-8.5665941332">
        <ele>363.26</ele>
        <time>2020-03-14T11:56:04Z</time>
      </trkpt>
      <trkpt lat="43.1982156169" lon="-8.5665334482">
        <ele>363.42</ele>
        <time>2020-03-14T11:56:05Z</time>
      </trkpt>
      <trkpt lat="43.1982365716" lon="-8.5664653871">
        <ele>363.49</ele>
        <time>2020-03-14T11:56:06Z</time>
      </trkpt>
      <trkpt lat="43.1983091589" lon="-8.5662041232">
        <ele>363.57</ele>
        <time>2020-03-14T11:56:10Z</time>
      </trkpt>
      <trkpt lat="43.1983331311" lon="-8.5661564302">
        <ele>363.57</ele>
        <time>2020-03-14T11:56:11Z</time>
      </trkpt>
      <trkpt lat="43.1983564328" lon="-8.5661177058">
        <ele>363.57</ele>
        <time>2020-03-14T11:56:12Z</time>
      </trkpt>
      <trkpt lat="43.1983782258" lon="-8.5660856869">
        <ele>363.57</ele>
        <time>2020-03-14T11:56:13Z</time>
      </trkpt>
      <trkpt lat="43.1983986776" lon="-8.5660697613">
        <ele>363.42</ele>
        <time>2020-03-14T11:56:14Z</time>
      </trkpt>
      <trkpt lat="43.1984222308" lon="-8.5660676658">
        <ele>363.18</ele>
        <time>2020-03-14T11:56:15Z</time>
      </trkpt>
      <trkpt lat="43.1984472089" lon="-8.5660732817">
        <ele>362.97</ele>
        <time>2020-03-14T11:56:16Z</time>
      </trkpt>
      <trkpt lat="43.1984761264" lon="-8.5660769697">
        <ele>362.61</ele>
        <time>2020-03-14T11:56:17Z</time>
      </trkpt>
      <trkpt lat="43.1985057145" lon="-8.5660728626">
        <ele>362.27</ele>
        <time>2020-03-14T11:56:18Z</time>
      </trkpt>
      <trkpt lat="43.1985265017" lon="-8.5660642292">
        <ele>361.88</ele>
        <time>2020-03-14T11:56:19Z</time>
      </trkpt>
      <trkpt lat="43.1985428464" lon="-8.5660350602">
        <ele>361.28</ele>
        <time>2020-03-14T11:56:21Z</time>
      </trkpt>
      <trkpt lat="43.1985430978" lon="-8.5660092440">
        <ele>361.07</ele>
        <time>2020-03-14T11:56:22Z</time>
      </trkpt>
      <trkpt lat="43.1985229813" lon="-8.5659671668">
        <ele>360.91</ele>
        <time>2020-03-14T11:56:23Z</time>
      </trkpt>
      <trkpt lat="43.1985043734" lon="-8.5655801743">
        <ele>360.02</ele>
        <time>2020-03-14T11:56:34Z</time>
      </trkpt>
      <trkpt lat="43.1985572632" lon="-8.5655077547">
        <ele>361.49</ele>
        <time>2020-03-14T11:56:40Z</time>
      </trkpt>
      <trkpt lat="43.1986877695" lon="-8.5654295515">
        <ele>364.55</ele>
        <time>2020-03-14T11:56:48Z</time>
      </trkpt>
      <trkpt lat="43.1987190340" lon="-8.5653560422">
        <ele>366.61</ele>
        <time>2020-03-14T11:56:53Z</time>
      </trkpt>
      <trkpt lat="43.1987414137" lon="-8.5652787611">
        <ele>367.68</ele>
        <time>2020-03-14T11:56:57Z</time>
      </trkpt>
      <trkpt lat="43.1987380609" lon="-8.5652542021">
        <ele>368.08</ele>
        <time>2020-03-14T11:56:58Z</time>
      </trkpt>
      <trkpt lat="43.1987311877" lon="-8.5652117897">
        <ele>368.34</ele>
        <time>2020-03-14T11:56:59Z</time>
      </trkpt>
      <trkpt lat="43.1987275835" lon="-8.5651697963">
        <ele>368.61</ele>
        <time>2020-03-14T11:57:00Z</time>
      </trkpt>
      <trkpt lat="43.1987172738" lon="-8.5651416332">
        <ele>368.92</ele>
        <time>2020-03-14T11:57:01Z</time>
      </trkpt>
      <trkpt lat="43.1986696646" lon="-8.5649287328">
        <ele>371.41</ele>
        <time>2020-03-14T11:57:09Z</time>
      </trkpt>
      <trkpt lat="43.1986627914" lon="-8.5649047606">
        <ele>371.64</ele>
        <time>2020-03-14T11:57:10Z</time>
      </trkpt>
      <trkpt lat="43.1986493804" lon="-8.5648815427">
        <ele>371.89</ele>
        <time>2020-03-14T11:57:11Z</time>
      </trkpt>
      <trkpt lat="43.1986426748" lon="-8.5648610909">
        <ele>372.16</ele>
        <time>2020-03-14T11:57:12Z</time>
      </trkpt>
      <trkpt lat="43.1986367237" lon="-8.5648403037">
        <ele>372.44</ele>
        <time>2020-03-14T11:57:13Z</time>
      </trkpt>
      <trkpt lat="43.1986339577" lon="-8.5648187622">
        <ele>372.64</ele>
        <time>2020-03-14T11:57:14Z</time>
      </trkpt>
      <trkpt lat="43.1986258272" lon="-8.5647964664">
        <ele>372.99</ele>
        <time>2020-03-14T11:57:15Z</time>
      </trkpt>
      <trkpt lat="43.1986250728" lon="-8.5647801217">
        <ele>373.23</ele>
        <time>2020-03-14T11:57:16Z</time>
      </trkpt>
      <trkpt lat="43.1986256596" lon="-8.5646012519">
        <ele>376.17</ele>
        <time>2020-03-14T11:57:25Z</time>
      </trkpt>
      <trkpt lat="43.1986306887" lon="-8.5645823088">
        <ele>376.47</ele>
        <time>2020-03-14T11:57:26Z</time>
      </trkpt>
      <trkpt lat="43.1986301020" lon="-8.5645585880">
        <ele>376.82</ele>
        <time>2020-03-14T11:57:27Z</time>
      </trkpt>
      <trkpt lat="43.1986382324" lon="-8.5643314384">
        <ele>379.83</ele>
        <time>2020-03-14T11:57:38Z</time>
      </trkpt>
      <trkpt lat="43.1985684112" lon="-8.5641244054">
        <ele>382.44</ele>
        <time>2020-03-14T11:57:49Z</time>
      </trkpt>
      <trkpt lat="43.1984736118" lon="-8.5639707651">
        <ele>383.98</ele>
        <time>2020-03-14T11:57:57Z</time>
      </trkpt>
      <trkpt lat="43.1983711012" lon="-8.5637675878">
        <ele>386.43</ele>
        <time>2020-03-14T11:58:06Z</time>
      </trkpt>
      <trkpt lat="43.1983176246" lon="-8.5635049827">
        <ele>389.22</ele>
        <time>2020-03-14T11:58:17Z</time>
      </trkpt>
      <trkpt lat="43.1983086560" lon="-8.5632405337">
        <ele>391.64</ele>
        <time>2020-03-14T11:58:27Z</time>
      </trkpt>
      <trkpt lat="43.1983069796" lon="-8.5632133763">
        <ele>391.90</ele>
        <time>2020-03-14T11:58:28Z</time>
      </trkpt>
      <trkpt lat="43.1982990168" lon="-8.5631836206">
        <ele>392.12</ele>
        <time>2020-03-14T11:58:29Z</time>
      </trkpt>
      <trkpt lat="43.1982866116" lon="-8.5631496739">
        <ele>392.24</ele>
        <time>2020-03-14T11:58:30Z</time>
      </trkpt>
      <trkpt lat="43.1982804928" lon="-8.5631217621">
        <ele>392.43</ele>
        <time>2020-03-14T11:58:31Z</time>
      </trkpt>
      <trkpt lat="43.1982812472" lon="-8.5630945209">
        <ele>392.61</ele>
        <time>2020-03-14T11:58:32Z</time>
      </trkpt>
      <trkpt lat="43.1982854381" lon="-8.5630685370">
        <ele>392.77</ele>
        <time>2020-03-14T11:58:33Z</time>
      </trkpt>
      <trkpt lat="43.1982706860" lon="-8.5627453309">
        <ele>394.79</ele>
        <time>2020-03-14T11:58:45Z</time>
      </trkpt>
      <trkpt lat="43.1983219832" lon="-8.5625065304">
        <ele>396.17</ele>
        <time>2020-03-14T11:58:54Z</time>
      </trkpt>
      <trkpt lat="43.1984151900" lon="-8.5624036845">
        <ele>397.14</ele>
        <time>2020-03-14T11:59:00Z</time>
      </trkpt>
      <trkpt lat="43.1984431017" lon="-8.5624007508">
        <ele>397.35</ele>
        <time>2020-03-14T11:59:01Z</time>
      </trkpt>
      <trkpt lat="43.1984645594" lon="-8.5623998288">
        <ele>397.60</ele>
        <time>2020-03-14T11:59:02Z</time>
      </trkpt>
      <trkpt lat="43.1985367276" lon="-8.5624295846">
        <ele>398.09</ele>
        <time>2020-03-14T11:59:05Z</time>
      </trkpt>
      <trkpt lat="43.1985567603" lon="-8.5624482762">
        <ele>398.17</ele>
        <time>2020-03-14T11:59:06Z</time>
      </trkpt>
      <trkpt lat="43.1985747814" lon="-8.5624632798">
        <ele>398.27</ele>
        <time>2020-03-14T11:59:07Z</time>
      </trkpt>
      <trkpt lat="43.1985814869" lon="-8.5624850728">
        <ele>398.32</ele>
        <time>2020-03-14T11:59:08Z</time>
      </trkpt>
      <trkpt lat="43.1985861808" lon="-8.5625076201">
        <ele>398.41</ele>
        <time>2020-03-14T11:59:09Z</time>
      </trkpt>
      <trkpt lat="43.1985949818" lon="-8.5625275690">
        <ele>398.48</ele>
        <time>2020-03-14T11:59:10Z</time>
      </trkpt>
      <trkpt lat="43.1987742707" lon="-8.5627745837">
        <ele>401.58</ele>
        <time>2020-03-14T11:59:22Z</time>
      </trkpt>
      <trkpt lat="43.1992077827" lon="-8.5628459137">
        <ele>404.33</ele>
        <time>2020-03-14T11:59:41Z</time>
      </trkpt>
      <trkpt lat="43.1993483473" lon="-8.5629246198">
        <ele>406.26</ele>
        <time>2020-03-14T11:59:49Z</time>
      </trkpt>
      <trkpt lat="43.1993636861" lon="-8.5629300680">
        <ele>406.36</ele>
        <time>2020-03-14T11:59:50Z</time>
      </trkpt>
      <trkpt lat="43.1993794441" lon="-8.5629392043">
        <ele>406.46</ele>
        <time>2020-03-14T11:59:51Z</time>
      </trkpt>
      <trkpt lat="43.1994480919" lon="-8.5629991349">
        <ele>407.25</ele>
        <time>2020-03-14T11:59:56Z</time>
      </trkpt>
      <trkpt lat="43.1994636822" lon="-8.5630079359">
        <ele>407.44</ele>
        <time>2020-03-14T11:59:57Z</time>
      </trkpt>
      <trkpt lat="43.1994764227" lon="-8.5630166531">
        <ele>407.58</ele>
        <time>2020-03-14T11:59:58Z</time>
      </trkpt>
      <trkpt lat="43.1994904205" lon="-8.5630241130">
        <ele>407.77</ele>
        <time>2020-03-14T11:59:59Z</time>
      </trkpt>
      <trkpt lat="43.1995050889" lon="-8.5630342551">
        <ele>408.04</ele>
        <time>2020-03-14T12:00:00Z</time>
      </trkpt>
      <trkpt lat="43.1995160691" lon="-8.5630441457">
        <ele>408.42</ele>
        <time>2020-03-14T12:00:01Z</time>
      </trkpt>
      <trkpt lat="43.1996738166" lon="-8.5632368457">
        <ele>411.87</ele>
        <time>2020-03-14T12:00:11Z</time>
      </trkpt>
      <trkpt lat="43.2000681851" lon="-8.5636207368">
        <ele>413.83</ele>
        <time>2020-03-14T12:00:28Z</time>
      </trkpt>
      <trkpt lat="43.2005141862" lon="-8.5640678275">
        <ele>414.73</ele>
        <time>2020-03-14T12:00:48Z</time>
      </trkpt>
      <trkpt lat="43.2007624581" lon="-8.5643258225">
        <ele>416.42</ele>
        <time>2020-03-14T12:01:00Z</time>
      </trkpt>
      <trkpt lat="43.2010548189" lon="-8.5644865036">
        <ele>417.66</ele>
        <time>2020-03-14T12:01:13Z</time>
      </trkpt>
      <trkpt lat="43.2013073657" lon="-8.5642687418">
        <ele>417.97</ele>
        <time>2020-03-14T12:01:22Z</time>
      </trkpt>
      <trkpt lat="43.2013464253" lon="-8.5642674845">
        <ele>417.97</ele>
        <time>2020-03-14T12:01:23Z</time>
      </trkpt>
      <trkpt lat="43.2014620118" lon="-8.5642824881">
        <ele>417.97</ele>
        <time>2020-03-14T12:01:26Z</time>
      </trkpt>
      <trkpt lat="43.2015019096" lon="-8.5642977431">
        <ele>417.97</ele>
        <time>2020-03-14T12:01:27Z</time>
      </trkpt>
      <trkpt lat="43.2015443221" lon="-8.5643200390">
        <ele>417.94</ele>
        <time>2020-03-14T12:01:28Z</time>
      </trkpt>
      <trkpt lat="43.2015855610" lon="-8.5643531475">
        <ele>417.81</ele>
        <time>2020-03-14T12:01:29Z</time>
      </trkpt>
      <trkpt lat="43.2016267162" lon="-8.5643922910">
        <ele>417.72</ele>
        <time>2020-03-14T12:01:30Z</time>
      </trkpt>
      <trkpt lat="43.2021319773" lon="-8.5648139846">
        <ele>415.95</ele>
        <time>2020-03-14T12:01:40Z</time>
      </trkpt>
      <trkpt lat="43.2021795027" lon="-8.5648289882">
        <ele>415.50</ele>
        <time>2020-03-14T12:01:41Z</time>
      </trkpt>
      <trkpt lat="43.2022273634" lon="-8.5648234561">
        <ele>415.17</ele>
        <time>2020-03-14T12:01:42Z</time>
      </trkpt>
      <trkpt lat="43.2023022138" lon="-8.5647643637">
        <ele>414.46</ele>
        <time>2020-03-14T12:01:44Z</time>
      </trkpt>
      <trkpt lat="43.2023238391" lon="-8.5647178441">
        <ele>414.30</ele>
        <time>2020-03-14T12:01:45Z</time>
      </trkpt>
      <trkpt lat="43.2023398485" lon="-8.5646691453">
        <ele>414.21</ele>
        <time>2020-03-14T12:01:46Z</time>
      </trkpt>
      <trkpt lat="43.2023754716" lon="-8.5641036183">
        <ele>415.21</ele>
        <time>2020-03-14T12:01:59Z</time>
      </trkpt>
      <trkpt lat="43.2022661716" lon="-8.5637745447">
        <ele>416.93</ele>
        <time>2020-03-14T12:02:09Z</time>
      </trkpt>
      <trkpt lat="43.2022752240" lon="-8.5637445375">
        <ele>417.14</ele>
        <time>2020-03-14T12:02:10Z</time>
      </trkpt>
      <trkpt lat="43.2022957597" lon="-8.5637281928">
        <ele>417.28</ele>
        <time>2020-03-14T12:02:11Z</time>
      </trkpt>
      <trkpt lat="43.2023219950" lon="-8.5637253430">
        <ele>417.44</ele>
        <time>2020-03-14T12:02:12Z</time>
      </trkpt>
      <trkpt lat="43.2023473084" lon="-8.5637279414">
        <ele>417.65</ele>
        <time>2020-03-14T12:02:13Z</time>
      </trkpt>
      <trkpt lat="43.2023706939" lon="-8.5637338925">
        <ele>417.77</ele>
        <time>2020-03-14T12:02:14Z</time>
      </trkpt>
      <trkpt lat="43.2023898885" lon="-8.5637424421">
        <ele>418.04</ele>
        <time>2020-03-14T12:02:15Z</time>
      </trkpt>
      <trkpt lat="43.2024096698" lon="-8.5637504887">
        <ele>418.13</ele>
        <time>2020-03-14T12:02:16Z</time>
      </trkpt>
      <trkpt lat="43.2024282776" lon="-8.5637568589">
        <ele>418.19</ele>
        <time>2020-03-14T12:02:17Z</time>
      </trkpt>
      <trkpt lat="43.2024418563" lon="-8.5637619719">
        <ele>418.34</ele>
        <time>2020-03-14T12:02:18Z</time>
      </trkpt>
      <trkpt lat="43.2025530841" lon="-8.5638214834">
        <ele>419.87</ele>
        <time>2020-03-14T12:02:24Z</time>
      </trkpt>
      <trkpt lat="43.2027740311" lon="-8.5639420152">
        <ele>423.14</ele>
        <time>2020-03-14T12:02:36Z</time>
      </trkpt>
      <trkpt lat="43.2030026056" lon="-8.5640617926">
        <ele>426.24</ele>
        <time>2020-03-14T12:02:47Z</time>
      </trkpt>
      <trkpt lat="43.2032908592" lon="-8.5641324520">
        <ele>429.24</ele>
        <time>2020-03-14T12:03:01Z</time>
      </trkpt>
      <trkpt lat="43.2035984751" lon="-8.5640827473">
        <ele>431.30</ele>
        <time>2020-03-14T12:03:17Z</time>
      </trkpt>
      <trkpt lat="43.2038888242" lon="-8.5640166979">
        <ele>433.83</ele>
        <time>2020-03-14T12:03:32Z</time>
      </trkpt>
      <trkpt lat="43.2041282952" lon="-8.5639559291">
        <ele>436.46</ele>
        <time>2020-03-14T12:03:43Z</time>
      </trkpt>
      <trkpt lat="43.2043863740" lon="-8.5639106669">
        <ele>439.61</ele>
        <time>2020-03-14T12:03:56Z</time>
      </trkpt>
      <trkpt lat="43.2047198899" lon="-8.5638235789">
        <ele>442.47</ele>
        <time>2020-03-14T12:04:13Z</time>
      </trkpt>
      <trkpt lat="43.2049238216" lon="-8.5636804998">
        <ele>445.55</ele>
        <time>2020-03-14T12:04:25Z</time>
      </trkpt>
      <trkpt lat="43.2050784677" lon="-8.5634598881">
        <ele>448.44</ele>
        <time>2020-03-14T12:04:35Z</time>
      </trkpt>
      <trkpt lat="43.2050959859" lon="-8.5634399392">
        <ele>448.62</ele>
        <time>2020-03-14T12:04:36Z</time>
      </trkpt>
      <trkpt lat="43.2051884383" lon="-8.5632589739">
        <ele>450.53</ele>
        <time>2020-03-14T12:04:45Z</time>
      </trkpt>
      <trkpt lat="43.2052322756" lon="-8.5631650127">
        <ele>451.32</ele>
        <time>2020-03-14T12:04:50Z</time>
      </trkpt>
      <trkpt lat="43.2053363789" lon="-8.5628757533">
        <ele>452.95</ele>
        <time>2020-03-14T12:05:02Z</time>
      </trkpt>
      <trkpt lat="43.2054093853" lon="-8.5626299120">
        <ele>456.11</ele>
        <time>2020-03-14T12:05:13Z</time>
      </trkpt>
      <trkpt lat="43.2054422423" lon="-8.5625269823">
        <ele>456.75</ele>
        <time>2020-03-14T12:05:18Z</time>
      </trkpt>
      <trkpt lat="43.2055395562" lon="-8.5623503756">
        <ele>457.76</ele>
        <time>2020-03-14T12:05:26Z</time>
      </trkpt>
      <trkpt lat="43.2056163345" lon="-8.5620741080">
        <ele>459.30</ele>
        <time>2020-03-14T12:05:35Z</time>
      </trkpt>
      <trkpt lat="43.2056762651" lon="-8.5619544145">
        <ele>460.73</ele>
        <time>2020-03-14T12:05:41Z</time>
      </trkpt>
      <trkpt lat="43.2058069389" lon="-8.5617280193">
        <ele>464.07</ele>
        <time>2020-03-14T12:05:52Z</time>
      </trkpt>
      <trkpt lat="43.2058839686" lon="-8.5614178888">
        <ele>467.27</ele>
        <time>2020-03-14T12:06:04Z</time>
      </trkpt>
      <trkpt lat="43.2059227768" lon="-8.5613200720">
        <ele>468.34</ele>
        <time>2020-03-14T12:06:08Z</time>
      </trkpt>
      <trkpt lat="43.2059420552" lon="-8.5613069963">
        <ele>468.58</ele>
        <time>2020-03-14T12:06:09Z</time>
      </trkpt>
      <trkpt lat="43.2059640158" lon="-8.5612969380">
        <ele>468.81</ele>
        <time>2020-03-14T12:06:10Z</time>
      </trkpt>
      <trkpt lat="43.2064054906" lon="-8.5611262824">
        <ele>470.95</ele>
        <time>2020-03-14T12:06:29Z</time>
      </trkpt>
      <trkpt lat="43.2067556027" lon="-8.5609706305">
        <ele>472.64</ele>
        <time>2020-03-14T12:06:45Z</time>
      </trkpt>
      <trkpt lat="43.2071122527" lon="-8.5608252883">
        <ele>474.53</ele>
        <time>2020-03-14T12:07:00Z</time>
      </trkpt>
      <trkpt lat="43.2075797115" lon="-8.5606109630">
        <ele>476.96</ele>
        <time>2020-03-14T12:07:20Z</time>
      </trkpt>
      <trkpt lat="43.2079605013" lon="-8.5604683869">
        <ele>479.34</ele>
        <time>2020-03-14T12:07:37Z</time>
      </trkpt>
      <trkpt lat="43.2083381899" lon="-8.5603757668">
        <ele>482.49</ele>
        <time>2020-03-14T12:07:53Z</time>
      </trkpt>
      <trkpt lat="43.2087658346" lon="-8.5603795387">
        <ele>484.19</ele>
        <time>2020-03-14T12:08:06Z</time>
      </trkpt>
      <trkpt lat="43.2092994265" lon="-8.5603766050">
        <ele>482.76</ele>
        <time>2020-03-14T12:08:20Z</time>
      </trkpt>
      <trkpt lat="43.2100243773" lon="-8.5603766050">
        <ele>483.09</ele>
        <time>2020-03-14T12:08:38Z</time>
      </trkpt>
      <trkpt lat="43.2100688014" lon="-8.5603810474">
        <ele>483.10</ele>
        <time>2020-03-14T12:08:39Z</time>
      </trkpt>
      <trkpt lat="43.2101143990" lon="-8.5603850707">
        <ele>483.10</ele>
        <time>2020-03-14T12:08:40Z</time>
      </trkpt>
      <trkpt lat="43.2103026565" lon="-8.5603807960">
        <ele>482.98</ele>
        <time>2020-03-14T12:08:44Z</time>
      </trkpt>
      <trkpt lat="43.2103390340" lon="-8.5603593383">
        <ele>482.93</ele>
        <time>2020-03-14T12:08:45Z</time>
      </trkpt>
      <trkpt lat="43.2103685383" lon="-8.5603212006">
        <ele>482.89</ele>
        <time>2020-03-14T12:08:46Z</time>
      </trkpt>
      <trkpt lat="43.2103837095" lon="-8.5602637846">
        <ele>482.84</ele>
        <time>2020-03-14T12:08:47Z</time>
      </trkpt>
      <trkpt lat="43.2103878167" lon="-8.5601973161">
        <ele>482.72</ele>
        <time>2020-03-14T12:08:48Z</time>
      </trkpt>
      <trkpt lat="43.2103846315" lon="-8.5601292551">
        <ele>482.60</ele>
        <time>2020-03-14T12:08:49Z</time>
      </trkpt>
      <trkpt lat="43.2103805244" lon="-8.5600601044">
        <ele>482.16</ele>
        <time>2020-03-14T12:08:50Z</time>
      </trkpt>
      <trkpt lat="43.2103780936" lon="-8.5599894449">
        <ele>481.76</ele>
        <time>2020-03-14T12:08:51Z</time>
      </trkpt>
      <trkpt lat="43.2102818694" lon="-8.5588929243">
        <ele>479.32</ele>
        <time>2020-03-14T12:09:05Z</time>
      </trkpt>
      <trkpt lat="43.2101735752" lon="-8.5580642894">
        <ele>476.28</ele>
        <time>2020-03-14T12:09:13Z</time>
      </trkpt>
      <trkpt lat="43.2101425622" lon="-8.5578358825">
        <ele>475.52</ele>
        <time>2020-03-14T12:09:15Z</time>
      </trkpt>
      <trkpt lat="43.2100675441" lon="-8.5572402645">
        <ele>471.89</ele>
        <time>2020-03-14T12:09:20Z</time>
      </trkpt>
      <trkpt lat="43.2100456674" lon="-8.5570198204">
        <ele>470.71</ele>
        <time>2020-03-14T12:09:22Z</time>
      </trkpt>
      <trkpt lat="43.2100084517" lon="-8.5567306448">
        <ele>467.43</ele>
        <time>2020-03-14T12:09:25Z</time>
      </trkpt>
      <trkpt lat="43.2099164184" lon="-8.5561255552">
        <ele>466.18</ele>
        <time>2020-03-14T12:09:35Z</time>
      </trkpt>
      <trkpt lat="43.2099005766" lon="-8.5558899399">
        <ele>466.97</ele>
        <time>2020-03-14T12:09:39Z</time>
      </trkpt>
      <trkpt lat="43.2099591661" lon="-8.5553568508">
        <ele>468.22</ele>
        <time>2020-03-14T12:09:51Z</time>
      </trkpt>
      <trkpt lat="43.2100496069" lon="-8.5547935031">
        <ele>469.81</ele>
        <time>2020-03-14T12:10:03Z</time>
      </trkpt>
      <trkpt lat="43.2101558894" lon="-8.5541375354">
        <ele>469.54</ele>
        <time>2020-03-14T12:10:15Z</time>
      </trkpt>
      <trkpt lat="43.2102319133" lon="-8.5536061227">
        <ele>469.35</ele>
        <time>2020-03-14T12:10:27Z</time>
      </trkpt>
      <trkpt lat="43.2103008963" lon="-8.5531619657">
        <ele>471.62</ele>
        <time>2020-03-14T12:10:40Z</time>
      </trkpt>
      <trkpt lat="43.2103610784" lon="-8.5527583770">
        <ele>474.82</ele>
        <time>2020-03-14T12:10:51Z</time>
      </trkpt>
      <trkpt lat="43.2104880642" lon="-8.5519732442">
        <ele>476.07</ele>
        <time>2020-03-14T12:11:10Z</time>
      </trkpt>
      <trkpt lat="43.2105733920" lon="-8.5514188651">
        <ele>475.54</ele>
        <time>2020-03-14T12:11:22Z</time>
      </trkpt>
      <trkpt lat="43.2106762379" lon="-8.5506934114">
        <ele>475.79</ele>
        <time>2020-03-14T12:11:39Z</time>
      </trkpt>
      <trkpt lat="43.2107406948" lon="-8.5503246076">
        <ele>478.67</ele>
        <time>2020-03-14T12:11:50Z</time>
      </trkpt>
      <trkpt lat="43.2108013798" lon="-8.5499341786">
        <ele>481.24</ele>
        <time>2020-03-14T12:12:03Z</time>
      </trkpt>
      <trkpt lat="43.2108429540" lon="-8.5495336074">
        <ele>483.69</ele>
        <time>2020-03-14T12:12:17Z</time>
      </trkpt>
      <trkpt lat="43.2109650783" lon="-8.5491703358">
        <ele>484.81</ele>
        <time>2020-03-14T12:12:29Z</time>
      </trkpt>
      <trkpt lat="43.2110222429" lon="-8.5490786377">
        <ele>484.84</ele>
        <time>2020-03-14T12:12:31Z</time>
      </trkpt>
      <trkpt lat="43.2110626437" lon="-8.5490302742">
        <ele>484.84</ele>
        <time>2020-03-14T12:12:32Z</time>
      </trkpt>
      <trkpt lat="43.2116415817" lon="-8.5484601371">
        <ele>481.36</ele>
        <time>2020-03-14T12:12:43Z</time>
      </trkpt>
      <trkpt lat="43.2117228024" lon="-8.5483779106">
        <ele>478.08</ele>
        <time>2020-03-14T12:12:45Z</time>
      </trkpt>
      <trkpt lat="43.2117953897" lon="-8.5483121127">
        <ele>477.36</ele>
        <time>2020-03-14T12:12:47Z</time>
      </trkpt>
      <trkpt lat="43.2122341823" lon="-8.5478731524">
        <ele>477.93</ele>
        <time>2020-03-14T12:13:01Z</time>
      </trkpt>
      <trkpt lat="43.2123469189" lon="-8.5477701388">
        <ele>477.94</ele>
        <time>2020-03-14T12:13:04Z</time>
      </trkpt>
      <trkpt lat="43.2128551975" lon="-8.5472655483">
        <ele>476.25</ele>
        <time>2020-03-14T12:13:15Z</time>
      </trkpt>
      <trkpt lat="43.2131354045" lon="-8.5469856765">
        <ele>472.95</ele>
        <time>2020-03-14T12:13:21Z</time>
      </trkpt>
      <trkpt lat="43.2132670842" lon="-8.5468353890">
        <ele>469.76</ele>
        <time>2020-03-14T12:13:26Z</time>
      </trkpt>
      <trkpt lat="43.2133496460" lon="-8.5464121029">
        <ele>469.07</ele>
        <time>2020-03-14T12:13:37Z</time>
      </trkpt>
      <trkpt lat="43.2133447006" lon="-8.5460757371">
        <ele>470.44</ele>
        <time>2020-03-14T12:13:46Z</time>
      </trkpt>
      <trkpt lat="43.2133101672" lon="-8.5457608290">
        <ele>471.44</ele>
        <time>2020-03-14T12:13:53Z</time>
      </trkpt>
      <trkpt lat="43.2133026235" lon="-8.5457003117">
        <ele>471.47</ele>
        <time>2020-03-14T12:13:54Z</time>
      </trkpt>
      <trkpt lat="43.2132655755" lon="-8.5452473536">
        <ele>471.49</ele>
        <time>2020-03-14T12:14:00Z</time>
      </trkpt>
      <trkpt lat="43.2132572774" lon="-8.5451587569">
        <ele>471.49</ele>
        <time>2020-03-14T12:14:01Z</time>
      </trkpt>
      <trkpt lat="43.2132459618" lon="-8.5446604528">
        <ele>469.21</ele>
        <time>2020-03-14T12:14:06Z</time>
      </trkpt>
      <trkpt lat="43.2132217381" lon="-8.5441371705">
        <ele>465.62</ele>
        <time>2020-03-14T12:14:11Z</time>
      </trkpt>
      <trkpt lat="43.2131638192" lon="-8.5437428858">
        <ele>461.88</ele>
        <time>2020-03-14T12:14:15Z</time>
      </trkpt>
      <trkpt lat="43.2131306268" lon="-8.5435010679">
        <ele>458.65</ele>
        <time>2020-03-14T12:14:18Z</time>
      </trkpt>
      <trkpt lat="43.2131296210" lon="-8.5434253793">
        <ele>457.68</ele>
        <time>2020-03-14T12:14:19Z</time>
      </trkpt>
      <trkpt lat="43.2131426968" lon="-8.5433526244">
        <ele>456.55</ele>
        <time>2020-03-14T12:14:20Z</time>
      </trkpt>
      <trkpt lat="43.2131667528" lon="-8.5432856530">
        <ele>455.67</ele>
        <time>2020-03-14T12:14:21Z</time>
      </trkpt>
      <trkpt lat="43.2131913118" lon="-8.5432201903">
        <ele>454.90</ele>
        <time>2020-03-14T12:14:22Z</time>
      </trkpt>
      <trkpt lat="43.2132486440" lon="-8.5432160832">
        <ele>453.70</ele>
        <time>2020-03-14T12:14:23Z</time>
      </trkpt>
      <trkpt lat="43.2132887095" lon="-8.5432206932">
        <ele>452.61</ele>
        <time>2020-03-14T12:14:24Z</time>
      </trkpt>
      <trkpt lat="43.2133220695" lon="-8.5432325117">
        <ele>451.65</ele>
        <time>2020-03-14T12:14:25Z</time>
      </trkpt>
      <trkpt lat="43.2133658230" lon="-8.5432544723">
        <ele>449.71</ele>
        <time>2020-03-14T12:14:27Z</time>
      </trkpt>
      <trkpt lat="43.2133820001" lon="-8.5432676319">
        <ele>448.90</ele>
        <time>2020-03-14T12:14:28Z</time>
      </trkpt>
      <trkpt lat="43.2133975066" lon="-8.5432759300">
        <ele>448.19</ele>
        <time>2020-03-14T12:14:29Z</time>
      </trkpt>
      <trkpt lat="43.2134306151" lon="-8.5432866588">
        <ele>447.50</ele>
        <time>2020-03-14T12:14:31Z</time>
      </trkpt>
      <trkpt lat="43.2137018535" lon="-8.5433823802">
        <ele>444.85</ele>
        <time>2020-03-14T12:14:42Z</time>
      </trkpt>
      <trkpt lat="43.2141223736" lon="-8.5437036585">
        <ele>442.40</ele>
        <time>2020-03-14T12:14:53Z</time>
      </trkpt>
      <trkpt lat="43.2143946178" lon="-8.5439417046">
        <ele>439.59</ele>
        <time>2020-03-14T12:15:03Z</time>
      </trkpt>
      <trkpt lat="43.2145066001" lon="-8.5440281220">
        <ele>439.41</ele>
        <time>2020-03-14T12:15:06Z</time>
      </trkpt>
      <trkpt lat="43.2145522814" lon="-8.5440516751">
        <ele>439.36</ele>
        <time>2020-03-14T12:15:07Z</time>
      </trkpt>
      <trkpt lat="43.2146428898" lon="-8.5441063251">
        <ele>439.24</ele>
        <time>2020-03-14T12:15:09Z</time>
      </trkpt>
      <trkpt lat="43.2147302292" lon="-8.5441847797">
        <ele>439.11</ele>
        <time>2020-03-14T12:15:11Z</time>
      </trkpt>
      <trkpt lat="43.2147690374" lon="-8.5442116018">
        <ele>439.06</ele>
        <time>2020-03-14T12:15:12Z</time>
      </trkpt>
      <trkpt lat="43.2149536908" lon="-8.5443461314">
        <ele>437.03</ele>
        <time>2020-03-14T12:15:18Z</time>
      </trkpt>
      <trkpt lat="43.2150614820" lon="-8.5444560181">
        <ele>436.29</ele>
        <time>2020-03-14T12:15:21Z</time>
      </trkpt>
      <trkpt lat="43.2151030563" lon="-8.5444871150">
        <ele>436.15</ele>
        <time>2020-03-14T12:15:22Z</time>
      </trkpt>
      <trkpt lat="43.2152318861" lon="-8.5445678327">
        <ele>435.23</ele>
        <time>2020-03-14T12:15:25Z</time>
      </trkpt>
      <trkpt lat="43.2152803335" lon="-8.5446001031">
        <ele>434.75</ele>
        <time>2020-03-14T12:15:26Z</time>
      </trkpt>
      <trkpt lat="43.2155875303" lon="-8.5447738599">
        <ele>431.48</ele>
        <time>2020-03-14T12:15:32Z</time>
      </trkpt>
      <trkpt lat="43.2157556713" lon="-8.5448638815">
        <ele>429.79</ele>
        <time>2020-03-14T12:15:35Z</time>
      </trkpt>
      <trkpt lat="43.2158064656" lon="-8.5448977444">
        <ele>429.47</ele>
        <time>2020-03-14T12:15:36Z</time>
      </trkpt>
      <trkpt lat="43.2159715891" lon="-8.5449886043">
        <ele>428.53</ele>
        <time>2020-03-14T12:15:39Z</time>
      </trkpt>
      <trkpt lat="43.2160686515" lon="-8.5450384766">
        <ele>427.88</ele>
        <time>2020-03-14T12:15:41Z</time>
      </trkpt>
      <trkpt lat="43.2161611039" lon="-8.5450743511">
        <ele>427.02</ele>
        <time>2020-03-14T12:15:43Z</time>
      </trkpt>
      <trkpt lat="43.2163103856" lon="-8.5451667197">
        <ele>425.66</ele>
        <time>2020-03-14T12:15:46Z</time>
      </trkpt>
      <trkpt lat="43.2163569890" lon="-8.5451943800">
        <ele>425.44</ele>
        <time>2020-03-14T12:15:47Z</time>
      </trkpt>
      <trkpt lat="43.2164973021" lon="-8.5452530533">
        <ele>424.64</ele>
        <time>2020-03-14T12:15:50Z</time>
      </trkpt>
      <trkpt lat="43.2165991422" lon="-8.5452717450">
        <ele>423.59</ele>
        <time>2020-03-14T12:15:52Z</time>
      </trkpt>
      <trkpt lat="43.2166398782" lon="-8.5452667996">
        <ele>423.12</ele>
        <time>2020-03-14T12:15:53Z</time>
      </trkpt>
      <trkpt lat="43.2166829612" lon="-8.5452469345">
        <ele>422.53</ele>
        <time>2020-03-14T12:15:54Z</time>
      </trkpt>
      <trkpt lat="43.2167208474" lon="-8.5452202801">
        <ele>421.62</ele>
        <time>2020-03-14T12:15:55Z</time>
      </trkpt>
      <trkpt lat="43.2167531177" lon="-8.5451893508">
        <ele>421.01</ele>
        <time>2020-03-14T12:15:56Z</time>
      </trkpt>
      <trkpt lat="43.2167827897" lon="-8.5451597627">
        <ele>420.52</ele>
        <time>2020-03-14T12:15:57Z</time>
      </trkpt>
      <trkpt lat="43.2168086898" lon="-8.5451333597">
        <ele>420.22</ele>
        <time>2020-03-14T12:15:58Z</time>
      </trkpt>
      <trkpt lat="43.2168303151" lon="-8.5451066215">
        <ele>420.07</ele>
        <time>2020-03-14T12:15:59Z</time>
      </trkpt>
      <trkpt lat="43.2168506831" lon="-8.5450770333">
        <ele>420.00</ele>
        <time>2020-03-14T12:16:00Z</time>
      </trkpt>
      <trkpt lat="43.2168717217" lon="-8.5450495407">
        <ele>419.96</ele>
        <time>2020-03-14T12:16:01Z</time>
      </trkpt>
      <trkpt lat="43.2168810256" lon="-8.5450212099">
        <ele>419.94</ele>
        <time>2020-03-14T12:16:02Z</time>
      </trkpt>
      <trkpt lat="43.2168949395" lon="-8.5449957289">
        <ele>419.93</ele>
        <time>2020-03-14T12:16:03Z</time>
      </trkpt>
      <trkpt lat="43.2169066742" lon="-8.5449694097">
        <ele>419.92</ele>
        <time>2020-03-14T12:16:04Z</time>
      </trkpt>
      <trkpt lat="43.2169180736" lon="-8.5449402407">
        <ele>419.92</ele>
        <time>2020-03-14T12:16:05Z</time>
      </trkpt>
      <trkpt lat="43.2169270422" lon="-8.5449145082">
        <ele>419.92</ele>
        <time>2020-03-14T12:16:06Z</time>
      </trkpt>
      <trkpt lat="43.2169422135" lon="-8.5448850878">
        <ele>419.92</ele>
        <time>2020-03-14T12:16:07Z</time>
      </trkpt>
      <trkpt lat="43.2169505954" lon="-8.5448580142">
        <ele>420.00</ele>
        <time>2020-03-14T12:16:08Z</time>
      </trkpt>
      <trkpt lat="43.2169676945" lon="-8.5447341297">
        <ele>421.81</ele>
        <time>2020-03-14T12:16:13Z</time>
      </trkpt>
      <trkpt lat="43.2169632521" lon="-8.5447082296">
        <ele>422.09</ele>
        <time>2020-03-14T12:16:14Z</time>
      </trkpt>
      <trkpt lat="43.2169607375" lon="-8.5446853470">
        <ele>422.33</ele>
        <time>2020-03-14T12:16:15Z</time>
      </trkpt>
      <trkpt lat="43.2169584744" lon="-8.5446587764">
        <ele>422.57</ele>
        <time>2020-03-14T12:16:16Z</time>
      </trkpt>
      <trkpt lat="43.2169573009" lon="-8.5446307808">
        <ele>422.82</ele>
        <time>2020-03-14T12:16:17Z</time>
      </trkpt>
      <trkpt lat="43.2169619948" lon="-8.5446060542">
        <ele>423.03</ele>
        <time>2020-03-14T12:16:18Z</time>
      </trkpt>
      <trkpt lat="43.2168998010" lon="-8.5443315469">
        <ele>426.17</ele>
        <time>2020-03-14T12:16:30Z</time>
      </trkpt>
      <trkpt lat="43.2168809418" lon="-8.5440172255">
        <ele>428.96</ele>
        <time>2020-03-14T12:16:40Z</time>
      </trkpt>
      <trkpt lat="43.2168901619" lon="-8.5439846199">
        <ele>429.19</ele>
        <time>2020-03-14T12:16:41Z</time>
      </trkpt>
      <trkpt lat="43.2168839592" lon="-8.5435923468">
        <ele>431.66</ele>
        <time>2020-03-14T12:16:54Z</time>
      </trkpt>
      <trkpt lat="43.2168881502" lon="-8.5434554704">
        <ele>432.36</ele>
        <time>2020-03-14T12:17:01Z</time>
      </trkpt>
      <trkpt lat="43.2168841269" lon="-8.5435341764">
        <ele>432.58</ele>
        <time>2020-03-14T12:17:04Z</time>
      </trkpt>
      <trkpt lat="43.2168827020" lon="-8.5435723979">
        <ele>432.69</ele>
        <time>2020-03-14T12:17:05Z</time>
      </trkpt>
      <trkpt lat="43.2168797683" lon="-8.5436133016">
        <ele>432.74</ele>
        <time>2020-03-14T12:17:06Z</time>
      </trkpt>
      <trkpt lat="43.2168842945" lon="-8.5436563846">
        <ele>432.77</ele>
        <time>2020-03-14T12:17:07Z</time>
      </trkpt>
      <trkpt lat="43.2168892398" lon="-8.5437008925">
        <ele>432.79</ele>
        <time>2020-03-14T12:17:08Z</time>
      </trkpt>
      <trkpt lat="43.2168961130" lon="-8.5438655131">
        <ele>432.80</ele>
        <time>2020-03-14T12:17:11Z</time>
      </trkpt>
      <trkpt lat="43.2169001363" lon="-8.5439238511">
        <ele>432.80</ele>
        <time>2020-03-14T12:17:12Z</time>
      </trkpt>
      <trkpt lat="43.2169200014" lon="-8.5440590512">
        <ele>432.79</ele>
        <time>2020-03-14T12:17:15Z</time>
      </trkpt>
      <trkpt lat="43.2169328257" lon="-8.5440719593">
        <ele>432.53</ele>
        <time>2020-03-14T12:17:16Z</time>
      </trkpt>
      <trkpt lat="43.2169868052" lon="-8.5439039860">
        <ele>431.67</ele>
        <time>2020-03-14T12:17:21Z</time>
      </trkpt>
      <trkpt lat="43.2170132082" lon="-8.5437121242">
        <ele>430.79</ele>
        <time>2020-03-14T12:17:25Z</time>
      </trkpt>
      <trkpt lat="43.2170179021" lon="-8.5436566360">
        <ele>430.31</ele>
        <time>2020-03-14T12:17:26Z</time>
      </trkpt>
      <trkpt lat="43.2171062473" lon="-8.5429172684">
        <ele>426.96</ele>
        <time>2020-03-14T12:17:36Z</time>
      </trkpt>
      <trkpt lat="43.2171221729" lon="-8.5428503808">
        <ele>426.39</ele>
        <time>2020-03-14T12:17:37Z</time>
      </trkpt>
      <trkpt lat="43.2171397749" lon="-8.5427926295">
        <ele>425.78</ele>
        <time>2020-03-14T12:17:38Z</time>
      </trkpt>
      <trkpt lat="43.2171875518" lon="-8.5426332057">
        <ele>424.28</ele>
        <time>2020-03-14T12:17:41Z</time>
      </trkpt>
      <trkpt lat="43.2172095124" lon="-8.5425688326">
        <ele>423.71</ele>
        <time>2020-03-14T12:17:42Z</time>
      </trkpt>
      <trkpt lat="43.2173456345" lon="-8.5422040522">
        <ele>422.06</ele>
        <time>2020-03-14T12:17:47Z</time>
      </trkpt>
      <trkpt lat="43.2173697744" lon="-8.5421413556">
        <ele>421.75</ele>
        <time>2020-03-14T12:17:48Z</time>
      </trkpt>
      <trkpt lat="43.2173942495" lon="-8.5420929920">
        <ele>421.55</ele>
        <time>2020-03-14T12:17:49Z</time>
      </trkpt>
      <trkpt lat="43.2174163777" lon="-8.5420462210">
        <ele>421.21</ele>
        <time>2020-03-14T12:17:50Z</time>
      </trkpt>
      <trkpt lat="43.2174365781" lon="-8.5419964325">
        <ele>420.25</ele>
        <time>2020-03-14T12:17:51Z</time>
      </trkpt>
      <trkpt lat="43.2175247557" lon="-8.5418046545">
        <ele>417.58</ele>
        <time>2020-03-14T12:17:55Z</time>
      </trkpt>
      <trkpt lat="43.2175507396" lon="-8.5417614877">
        <ele>417.03</ele>
        <time>2020-03-14T12:17:56Z</time>
      </trkpt>
      <trkpt lat="43.2176088262" lon="-8.5416597314">
        <ele>416.23</ele>
        <time>2020-03-14T12:18:01Z</time>
      </trkpt>
      <trkpt lat="43.2176000252" lon="-8.5416597314">
        <ele>416.23</ele>
        <time>2020-03-14T12:18:09Z</time>
      </trkpt>
      <trkpt lat="43.2175890449" lon="-8.5417156387">
        <ele>416.12</ele>
        <time>2020-03-14T12:18:25Z</time>
      </trkpt>
      <trkpt lat="43.2176590338" lon="-8.5416044109">
        <ele>416.05</ele>
        <time>2020-03-14T12:18:34Z</time>
      </trkpt>
      <trkpt lat="43.2177121751" lon="-8.5415309854">
        <ele>416.06</ele>
        <time>2020-03-14T12:18:38Z</time>
      </trkpt>
      <trkpt lat="43.2179605309" lon="-8.5410243832">
        <ele>416.06</ele>
        <time>2020-03-14T12:18:52Z</time>
      </trkpt>
      <trkpt lat="43.2180455234" lon="-8.5408392269">
        <ele>415.73</ele>
        <time>2020-03-14T12:18:57Z</time>
      </trkpt>
      <trkpt lat="43.2180715073" lon="-8.5406773724">
        <ele>415.22</ele>
        <time>2020-03-14T12:19:01Z</time>
      </trkpt>
      <trkpt lat="43.2180102356" lon="-8.5401866958">
        <ele>413.75</ele>
        <time>2020-03-14T12:19:13Z</time>
      </trkpt>
      <trkpt lat="43.2179777976" lon="-8.5400753841">
        <ele>413.75</ele>
        <time>2020-03-14T12:19:15Z</time>
      </trkpt>
      <trkpt lat="43.2179491315" lon="-8.5398550238">
        <ele>414.01</ele>
        <time>2020-03-14T12:19:19Z</time>
      </trkpt>
      <trkpt lat="43.2178698387" lon="-8.5393643472">
        <ele>414.36</ele>
        <time>2020-03-14T12:19:29Z</time>
      </trkpt>
      <trkpt lat="43.2177571021" lon="-8.5389008280">
        <ele>413.35</ele>
        <time>2020-03-14T12:19:38Z</time>
      </trkpt>
      <trkpt lat="43.2176509034" lon="-8.5385348741">
        <ele>409.50</ele>
        <time>2020-03-14T12:19:46Z</time>
      </trkpt>
      <trkpt lat="43.2175782323" lon="-8.5384035297">
        <ele>407.57</ele>
        <time>2020-03-14T12:19:49Z</time>
      </trkpt>
      <trkpt lat="43.2175433636" lon="-8.5383562557">
        <ele>407.33</ele>
        <time>2020-03-14T12:19:50Z</time>
      </trkpt>
      <trkpt lat="43.2174107619" lon="-8.5381779727">
        <ele>404.76</ele>
        <time>2020-03-14T12:19:55Z</time>
      </trkpt>
      <trkpt lat="43.2173753064" lon="-8.5381480493">
        <ele>404.05</ele>
        <time>2020-03-14T12:19:56Z</time>
      </trkpt>
      <trkpt lat="43.2173400186" lon="-8.5381281842">
        <ele>402.77</ele>
        <time>2020-03-14T12:19:57Z</time>
      </trkpt>
      <trkpt lat="43.2173063233" lon="-8.5381172039">
        <ele>402.05</ele>
        <time>2020-03-14T12:19:58Z</time>
      </trkpt>
      <trkpt lat="43.2172717061" lon="-8.5381039605">
        <ele>401.44</ele>
        <time>2020-03-14T12:19:59Z</time>
      </trkpt>
      <trkpt lat="43.2172345743" lon="-8.5380823351">
        <ele>400.80</ele>
        <time>2020-03-14T12:20:00Z</time>
      </trkpt>
      <trkpt lat="43.2172018010" lon="-8.5380595364">
        <ele>400.49</ele>
        <time>2020-03-14T12:20:01Z</time>
      </trkpt>
      <trkpt lat="43.2171734702" lon="-8.5380409285">
        <ele>400.32</ele>
        <time>2020-03-14T12:20:02Z</time>
      </trkpt>
      <trkpt lat="43.2168929279" lon="-8.5378701892">
        <ele>400.72</ele>
        <time>2020-03-14T12:20:13Z</time>
      </trkpt>
      <trkpt lat="43.2167552132" lon="-8.5377644934">
        <ele>402.10</ele>
        <time>2020-03-14T12:20:18Z</time>
      </trkpt>
      <trkpt lat="43.2165114675" lon="-8.5375398584">
        <ele>403.79</ele>
        <time>2020-03-14T12:20:30Z</time>
      </trkpt>
      <trkpt lat="43.2163699809" lon="-8.5372667760">
        <ele>404.05</ele>
        <time>2020-03-14T12:20:36Z</time>
      </trkpt>
      <trkpt lat="43.2161186915" lon="-8.5367496964">
        <ele>402.86</ele>
        <time>2020-03-14T12:20:44Z</time>
      </trkpt>
      <trkpt lat="43.2160406560" lon="-8.5366480239">
        <ele>399.40</ele>
        <time>2020-03-14T12:20:47Z</time>
      </trkpt>
      <trkpt lat="43.2160227187" lon="-8.5366284102">
        <ele>399.40</ele>
        <time>2020-03-14T12:20:48Z</time>
      </trkpt>
      <trkpt lat="43.2160022669" lon="-8.5366036836">
        <ele>397.59</ele>
        <time>2020-03-14T12:20:50Z</time>
      </trkpt>
      <trkpt lat="43.2158990018" lon="-8.5364060383">
        <ele>397.42</ele>
        <time>2020-03-14T12:21:06Z</time>
      </trkpt>
      <trkpt lat="43.2158062980" lon="-8.5363219678">
        <ele>397.49</ele>
        <time>2020-03-14T12:21:22Z</time>
      </trkpt>
      <trkpt lat="43.2156337984" lon="-8.5360151064">
        <ele>397.45</ele>
        <time>2020-03-14T12:21:32Z</time>
      </trkpt>
      <trkpt lat="43.2156326249" lon="-8.5359581932">
        <ele>397.45</ele>
        <time>2020-03-14T12:21:33Z</time>
      </trkpt>
      <trkpt lat="43.2156638894" lon="-8.5355124436">
        <ele>396.64</ele>
        <time>2020-03-14T12:21:43Z</time>
      </trkpt>
      <trkpt lat="43.2157551683" lon="-8.5350656882">
        <ele>399.83</ele>
        <time>2020-03-14T12:21:59Z</time>
      </trkpt>
      <trkpt lat="43.2157570962" lon="-8.5349686258">
        <ele>401.86</ele>
        <time>2020-03-14T12:22:04Z</time>
      </trkpt>
      <trkpt lat="43.2157565095" lon="-8.5349076893">
        <ele>403.16</ele>
        <time>2020-03-14T12:22:07Z</time>
      </trkpt>
      <trkpt lat="43.2157659810" lon="-8.5347824637">
        <ele>404.98</ele>
        <time>2020-03-14T12:22:13Z</time>
      </trkpt>
      <trkpt lat="43.2157641370" lon="-8.5347589105">
        <ele>405.14</ele>
        <time>2020-03-14T12:22:14Z</time>
      </trkpt>
      <trkpt lat="43.2157057151" lon="-8.5346718226">
        <ele>408.51</ele>
        <time>2020-03-14T12:22:25Z</time>
      </trkpt>
      <trkpt lat="43.2156418450" lon="-8.5344671365">
        <ele>410.22</ele>
        <time>2020-03-14T12:22:42Z</time>
      </trkpt>
      <trkpt lat="43.2156115025" lon="-8.5342656355">
        <ele>413.45</ele>
        <time>2020-03-14T12:22:58Z</time>
      </trkpt>
      <trkpt lat="43.2155857701" lon="-8.5340590216">
        <ele>416.50</ele>
        <time>2020-03-14T12:23:15Z</time>
      </trkpt>
      <trkpt lat="43.2155144401" lon="-8.5338486359">
        <ele>419.55</ele>
        <time>2020-03-14T12:23:33Z</time>
      </trkpt>
      <trkpt lat="43.2154198084" lon="-8.5336861946">
        <ele>422.61</ele>
        <time>2020-03-14T12:23:49Z</time>
      </trkpt>
      <trkpt lat="43.2152586244" lon="-8.5335408524">
        <ele>425.63</ele>
        <time>2020-03-14T12:24:06Z</time>
      </trkpt>
      <trkpt lat="43.2150866278" lon="-8.5334323067">
        <ele>428.28</ele>
        <time>2020-03-14T12:24:24Z</time>
      </trkpt>
      <trkpt lat="43.2150344085" lon="-8.5334151238">
        <ele>428.36</ele>
        <time>2020-03-14T12:24:26Z</time>
      </trkpt>
      <trkpt lat="43.2150141243" lon="-8.5334020481">
        <ele>428.43</ele>
        <time>2020-03-14T12:24:27Z</time>
      </trkpt>
      <trkpt lat="43.2146942709" lon="-8.5331903212">
        <ele>429.16</ele>
        <time>2020-03-14T12:24:39Z</time>
      </trkpt>
      <trkpt lat="43.2144113816" lon="-8.5330707114">
        <ele>430.32</ele>
        <time>2020-03-14T12:24:50Z</time>
      </trkpt>
      <trkpt lat="43.2142039295" lon="-8.5329881497">
        <ele>430.94</ele>
        <time>2020-03-14T12:25:00Z</time>
      </trkpt>
      <trkpt lat="43.2141393889" lon="-8.5329746548">
        <ele>431.27</ele>
        <time>2020-03-14T12:25:03Z</time>
      </trkpt>
      <trkpt lat="43.2138388976" lon="-8.5328710545">
        <ele>432.27</ele>
        <time>2020-03-14T12:25:14Z</time>
      </trkpt>
      <trkpt lat="43.2135648932" lon="-8.5328050051">
        <ele>433.17</ele>
        <time>2020-03-14T12:25:25Z</time>
      </trkpt>
      <trkpt lat="43.2132328860" lon="-8.5329990461">
        <ele>435.99</ele>
        <time>2020-03-14T12:25:37Z</time>
      </trkpt>
      <trkpt lat="43.2130166329" lon="-8.5331347492">
        <ele>438.36</ele>
        <time>2020-03-14T12:25:50Z</time>
      </trkpt>
      <trkpt lat="43.2127956022" lon="-8.5331712104">
        <ele>441.46</ele>
        <time>2020-03-14T12:26:02Z</time>
      </trkpt>
      <trkpt lat="43.2127504237" lon="-8.5331802629">
        <ele>442.18</ele>
        <time>2020-03-14T12:26:05Z</time>
      </trkpt>
      <trkpt lat="43.2126939297" lon="-8.5331743956">
        <ele>443.14</ele>
        <time>2020-03-14T12:26:09Z</time>
      </trkpt>
      <trkpt lat="43.2126606535" lon="-8.5331831127">
        <ele>443.42</ele>
        <time>2020-03-14T12:26:10Z</time>
      </trkpt>
      <trkpt lat="43.2123674545" lon="-8.5332483239">
        <ele>446.10</ele>
        <time>2020-03-14T12:26:23Z</time>
      </trkpt>
      <trkpt lat="43.2123378664" lon="-8.5332493298">
        <ele>446.24</ele>
        <time>2020-03-14T12:26:24Z</time>
      </trkpt>
      <trkpt lat="43.2121901773" lon="-8.5331625771">
        <ele>447.63</ele>
        <time>2020-03-14T12:26:31Z</time>
      </trkpt>
      <trkpt lat="43.2121710666" lon="-8.5331557877">
        <ele>447.71</ele>
        <time>2020-03-14T12:26:32Z</time>
      </trkpt>
      <trkpt lat="43.2121506147" lon="-8.5331393592">
        <ele>447.88</ele>
        <time>2020-03-14T12:26:33Z</time>
      </trkpt>
      <trkpt lat="43.2121289056" lon="-8.5331240203">
        <ele>448.04</ele>
        <time>2020-03-14T12:26:34Z</time>
      </trkpt>
      <trkpt lat="43.2121092919" lon="-8.5331067536">
        <ele>448.18</ele>
        <time>2020-03-14T12:26:35Z</time>
      </trkpt>
      <trkpt lat="43.2119098026" lon="-8.5328779276">
        <ele>449.04</ele>
        <time>2020-03-14T12:26:45Z</time>
      </trkpt>
      <trkpt lat="43.2117529772" lon="-8.5324525461">
        <ele>450.37</ele>
        <time>2020-03-14T12:27:00Z</time>
      </trkpt>
      <trkpt lat="43.2115503866" lon="-8.5321065411">
        <ele>451.68</ele>
        <time>2020-03-14T12:27:13Z</time>
      </trkpt>
      <trkpt lat="43.2112506498" lon="-8.5317403357">
        <ele>453.22</ele>
        <time>2020-03-14T12:27:30Z</time>
      </trkpt>
      <trkpt lat="43.2110596262" lon="-8.5314660799">
        <ele>454.61</ele>
        <time>2020-03-14T12:27:42Z</time>
      </trkpt>
      <trkpt lat="43.2109302096" lon="-8.5311581288">
        <ele>456.42</ele>
        <time>2020-03-14T12:27:55Z</time>
      </trkpt>
      <trkpt lat="43.2108946703" lon="-8.5310581326">
        <ele>457.37</ele>
        <time>2020-03-14T12:27:59Z</time>
      </trkpt>
      <trkpt lat="43.2108594663" lon="-8.5309808515">
        <ele>458.12</ele>
        <time>2020-03-14T12:28:02Z</time>
      </trkpt>
      <trkpt lat="43.2108308841" lon="-8.5309159756">
        <ele>458.91</ele>
        <time>2020-03-14T12:28:05Z</time>
      </trkpt>
      <trkpt lat="43.2108298782" lon="-8.5308920033">
        <ele>459.39</ele>
        <time>2020-03-14T12:28:06Z</time>
      </trkpt>
      <trkpt lat="43.2108316384" lon="-8.5308619961">
        <ele>459.74</ele>
        <time>2020-03-14T12:28:07Z</time>
      </trkpt>
      <trkpt lat="43.2108323090" lon="-8.5308365989">
        <ele>460.10</ele>
        <time>2020-03-14T12:28:08Z</time>
      </trkpt>
      <trkpt lat="43.2108247653" lon="-8.5308110341">
        <ele>460.39</ele>
        <time>2020-03-14T12:28:09Z</time>
      </trkpt>
      <trkpt lat="43.2108123600" lon="-8.5307868943">
        <ele>460.61</ele>
        <time>2020-03-14T12:28:10Z</time>
      </trkpt>
      <trkpt lat="43.2108018827" lon="-8.5307611618">
        <ele>460.82</ele>
        <time>2020-03-14T12:28:11Z</time>
      </trkpt>
      <trkpt lat="43.2107552793" lon="-8.5305086989">
        <ele>462.49</ele>
        <time>2020-03-14T12:28:23Z</time>
      </trkpt>
      <trkpt lat="43.2107075863" lon="-8.5301210359">
        <ele>465.79</ele>
        <time>2020-03-14T12:28:37Z</time>
      </trkpt>
      <trkpt lat="43.2107009646" lon="-8.5301002488">
        <ele>466.09</ele>
        <time>2020-03-14T12:28:38Z</time>
      </trkpt>
      <trkpt lat="43.2106946781" lon="-8.5300799645">
        <ele>466.43</ele>
        <time>2020-03-14T12:28:39Z</time>
      </trkpt>
      <trkpt lat="43.2106900681" lon="-8.5300596803">
        <ele>466.67</ele>
        <time>2020-03-14T12:28:40Z</time>
      </trkpt>
      <trkpt lat="43.2106835302" lon="-8.5300385579">
        <ele>467.01</ele>
        <time>2020-03-14T12:28:41Z</time>
      </trkpt>
      <trkpt lat="43.2106753159" lon="-8.5300190281">
        <ele>467.36</ele>
        <time>2020-03-14T12:28:42Z</time>
      </trkpt>
      <trkpt lat="43.2106479909" lon="-8.5299311858">
        <ele>468.61</ele>
        <time>2020-03-14T12:28:46Z</time>
      </trkpt>
      <trkpt lat="43.2106506731" lon="-8.5299072973">
        <ele>468.94</ele>
        <time>2020-03-14T12:28:47Z</time>
      </trkpt>
      <trkpt lat="43.2106611505" lon="-8.5298869293">
        <ele>469.20</ele>
        <time>2020-03-14T12:28:48Z</time>
      </trkpt>
      <trkpt lat="43.2106743939" lon="-8.5298748594">
        <ele>469.52</ele>
        <time>2020-03-14T12:28:49Z</time>
      </trkpt>
      <trkpt lat="43.2106901519" lon="-8.5298657231">
        <ele>469.75</ele>
        <time>2020-03-14T12:28:50Z</time>
      </trkpt>
      <trkpt lat="43.2107067481" lon="-8.5298573412">
        <ele>470.12</ele>
        <time>2020-03-14T12:28:51Z</time>
      </trkpt>
      <trkpt lat="43.2107229251" lon="-8.5298482049">
        <ele>470.22</ele>
        <time>2020-03-14T12:28:52Z</time>
      </trkpt>
      <trkpt lat="43.2110005338" lon="-8.5297297686">
        <ele>473.43</ele>
        <time>2020-03-14T12:29:09Z</time>
      </trkpt>
      <trkpt lat="43.2111466303" lon="-8.5296725202">
        <ele>476.48</ele>
        <time>2020-03-14T12:29:18Z</time>
      </trkpt>
      <trkpt lat="43.2113112509" lon="-8.5295959096">
        <ele>479.58</ele>
        <time>2020-03-14T12:29:28Z</time>
      </trkpt>
      <trkpt lat="43.2115199603" lon="-8.5294690914">
        <ele>482.73</ele>
        <time>2020-03-14T12:29:39Z</time>
      </trkpt>
      <trkpt lat="43.2118645404" lon="-8.5292458814">
        <ele>485.06</ele>
        <time>2020-03-14T12:29:56Z</time>
      </trkpt>
      <trkpt lat="43.2121641934" lon="-8.5290446319">
        <ele>485.76</ele>
        <time>2020-03-14T12:30:07Z</time>
      </trkpt>
      <trkpt lat="43.2121977210" lon="-8.5290069971">
        <ele>485.76</ele>
        <time>2020-03-14T12:30:08Z</time>
      </trkpt>
      <trkpt lat="43.2123818714" lon="-8.5287735611">
        <ele>485.32</ele>
        <time>2020-03-14T12:30:14Z</time>
      </trkpt>
      <trkpt lat="43.2125588134" lon="-8.5285589844">
        <ele>483.56</ele>
        <time>2020-03-14T12:30:19Z</time>
      </trkpt>
      <trkpt lat="43.2127512619" lon="-8.5283821262">
        <ele>479.89</ele>
        <time>2020-03-14T12:30:27Z</time>
      </trkpt>
      <trkpt lat="43.2128914073" lon="-8.5282546375">
        <ele>476.87</ele>
        <time>2020-03-14T12:30:33Z</time>
      </trkpt>
      <trkpt lat="43.2129303832" lon="-8.5282299947">
        <ele>473.82</ele>
        <time>2020-03-14T12:30:42Z</time>
      </trkpt>
      <trkpt lat="43.2129012980" lon="-8.5281955451">
        <ele>473.17</ele>
        <time>2020-03-14T12:30:57Z</time>
      </trkpt>
      <trkpt lat="43.2127727196" lon="-8.5282164998">
        <ele>473.41</ele>
        <time>2020-03-14T12:31:05Z</time>
      </trkpt>
      <trkpt lat="43.2125499286" lon="-8.5283138137">
        <ele>476.73</ele>
        <time>2020-03-14T12:31:19Z</time>
      </trkpt>
      <trkpt lat="43.2124253735" lon="-8.5283605009">
        <ele>478.92</ele>
        <time>2020-03-14T12:31:25Z</time>
      </trkpt>
      <trkpt lat="43.2122121379" lon="-8.5284539592">
        <ele>482.20</ele>
        <time>2020-03-14T12:31:37Z</time>
      </trkpt>
      <trkpt lat="43.2119834796" lon="-8.5285505187">
        <ele>485.21</ele>
        <time>2020-03-14T12:31:49Z</time>
      </trkpt>
      <trkpt lat="43.2118482795" lon="-8.5286314879">
        <ele>487.64</ele>
        <time>2020-03-14T12:32:03Z</time>
      </trkpt>
      <trkpt lat="43.2118370477" lon="-8.5286328290">
        <ele>488.32</ele>
        <time>2020-03-14T12:32:40Z</time>
      </trkpt>
      <trkpt lat="43.2116629556" lon="-8.5287289694">
        <ele>488.27</ele>
        <time>2020-03-14T12:32:54Z</time>
      </trkpt>
      <trkpt lat="43.2113084849" lon="-8.5288235173">
        <ele>490.01</ele>
        <time>2020-03-14T12:33:09Z</time>
      </trkpt>
      <trkpt lat="43.2112586126" lon="-8.5288176499">
        <ele>490.07</ele>
        <time>2020-03-14T12:33:11Z</time>
      </trkpt>
      <trkpt lat="43.2112382445" lon="-8.5288015567">
        <ele>490.10</ele>
        <time>2020-03-14T12:33:12Z</time>
      </trkpt>
      <trkpt lat="43.2109753881" lon="-8.5285834596">
        <ele>489.92</ele>
        <time>2020-03-14T12:33:25Z</time>
      </trkpt>
      <trkpt lat="43.2106436323" lon="-8.5283887479">
        <ele>489.22</ele>
        <time>2020-03-14T12:33:36Z</time>
      </trkpt>
      <trkpt lat="43.2103100326" lon="-8.5280952975">
        <ele>488.06</ele>
        <time>2020-03-14T12:33:49Z</time>
      </trkpt>
      <trkpt lat="43.2100891694" lon="-8.5278196167">
        <ele>487.90</ele>
        <time>2020-03-14T12:34:00Z</time>
      </trkpt>
      <trkpt lat="43.2100146543" lon="-8.5276204627">
        <ele>487.90</ele>
        <time>2020-03-14T12:34:13Z</time>
      </trkpt>
      <trkpt lat="43.2100083679" lon="-8.5276048724">
        <ele>481.28</ele>
        <time>2020-03-14T12:34:22Z</time>
      </trkpt>
      <trkpt lat="43.2100040931" lon="-8.5276108235">
        <ele>477.60</ele>
        <time>2020-03-14T12:34:27Z</time>
      </trkpt>
      <trkpt lat="43.2100027520" lon="-8.5276111588">
        <ele>477.60</ele>
        <time>2020-03-14T12:34:28Z</time>
      </trkpt>
      <trkpt lat="43.2099885866" lon="-8.5276816506">
        <ele>477.33</ele>
        <time>2020-03-14T12:35:06Z</time>
      </trkpt>
      <trkpt lat="43.2101081125" lon="-8.5278840736">
        <ele>477.28</ele>
        <time>2020-03-14T12:35:15Z</time>
      </trkpt>
      <trkpt lat="43.2100941986" lon="-8.5278377216">
        <ele>477.19</ele>
        <time>2020-03-14T12:35:18Z</time>
      </trkpt>
      <trkpt lat="43.2100351900" lon="-8.5277192015">
        <ele>477.11</ele>
        <time>2020-03-14T12:35:23Z</time>
      </trkpt>
      <trkpt lat="43.2097450923" lon="-8.5272083245">
        <ele>477.09</ele>
        <time>2020-03-14T12:35:36Z</time>
      </trkpt>
      <trkpt lat="43.2094881870" lon="-8.5268802568">
        <ele>475.99</ele>
        <time>2020-03-14T12:35:45Z</time>
      </trkpt>
      <trkpt lat="43.2091254182" lon="-8.5264093615">
        <ele>475.84</ele>
        <time>2020-03-14T12:36:00Z</time>
      </trkpt>
      <trkpt lat="43.2090321276" lon="-8.5261294898">
        <ele>477.28</ele>
        <time>2020-03-14T12:36:10Z</time>
      </trkpt>
      <trkpt lat="43.2089516614" lon="-8.5258858278">
        <ele>480.50</ele>
        <time>2020-03-14T12:36:20Z</time>
      </trkpt>
      <trkpt lat="43.2087958418" lon="-8.5255750269">
        <ele>482.32</ele>
        <time>2020-03-14T12:36:31Z</time>
      </trkpt>
      <trkpt lat="43.2087010425" lon="-8.5253992584">
        <ele>482.99</ele>
        <time>2020-03-14T12:36:38Z</time>
      </trkpt>
      <trkpt lat="43.2085778285" lon="-8.5252935626">
        <ele>483.88</ele>
        <time>2020-03-14T12:36:44Z</time>
      </trkpt>
      <trkpt lat="43.2083794288" lon="-8.5250710230">
        <ele>486.29</ele>
        <time>2020-03-14T12:36:58Z</time>
      </trkpt>
      <trkpt lat="43.2082161494" lon="-8.5249110963">
        <ele>487.86</ele>
        <time>2020-03-14T12:37:21Z</time>
      </trkpt>
      <trkpt lat="43.2080821227" lon="-8.5248074960">
        <ele>488.96</ele>
        <time>2020-03-14T12:37:39Z</time>
      </trkpt>
      <trkpt lat="43.2079129759" lon="-8.5246767383">
        <ele>490.15</ele>
        <time>2020-03-14T12:37:55Z</time>
      </trkpt>
      <trkpt lat="43.2077719923" lon="-8.5243986268">
        <ele>490.88</ele>
        <time>2020-03-14T12:38:07Z</time>
      </trkpt>
      <trkpt lat="43.2076754328" lon="-8.5241313279">
        <ele>493.15</ele>
        <time>2020-03-14T12:38:17Z</time>
      </trkpt>
      <trkpt lat="43.2074968982" lon="-8.5238476843">
        <ele>495.04</ele>
        <time>2020-03-14T12:38:27Z</time>
      </trkpt>
      <trkpt lat="43.2072678208" lon="-8.5236405674">
        <ele>495.19</ele>
        <time>2020-03-14T12:38:36Z</time>
      </trkpt>
      <trkpt lat="43.2071472052" lon="-8.5235657170">
        <ele>495.18</ele>
        <time>2020-03-14T12:38:41Z</time>
      </trkpt>
      <trkpt lat="43.2068436127" lon="-8.5233658925">
        <ele>495.93</ele>
        <time>2020-03-14T12:38:52Z</time>
      </trkpt>
      <trkpt lat="43.2066503260" lon="-8.5232933052">
        <ele>495.97</ele>
        <time>2020-03-14T12:38:56Z</time>
      </trkpt>
      <trkpt lat="43.2065565325" lon="-8.5232778825">
        <ele>495.97</ele>
        <time>2020-03-14T12:38:58Z</time>
      </trkpt>
      <trkpt lat="43.2062289678" lon="-8.5232773796">
        <ele>493.78</ele>
        <time>2020-03-14T12:39:05Z</time>
      </trkpt>
      <trkpt lat="43.2060607430" lon="-8.5232990049">
        <ele>492.40</ele>
        <time>2020-03-14T12:39:08Z</time>
      </trkpt>
      <trkpt lat="43.2059490122" lon="-8.5232983343">
        <ele>491.70</ele>
        <time>2020-03-14T12:39:10Z</time>
      </trkpt>
      <trkpt lat="43.2057509478" lon="-8.5230854340">
        <ele>488.21</ele>
        <time>2020-03-14T12:39:18Z</time>
      </trkpt>
      <trkpt lat="43.2057574857" lon="-8.5229650699">
        <ele>487.37</ele>
        <time>2020-03-14T12:39:20Z</time>
      </trkpt>
      <trkpt lat="43.2057553902" lon="-8.5229023732">
        <ele>487.21</ele>
        <time>2020-03-14T12:39:21Z</time>
      </trkpt>
      <trkpt lat="43.2057472598" lon="-8.5227763094">
        <ele>487.04</ele>
        <time>2020-03-14T12:39:23Z</time>
      </trkpt>
      <trkpt lat="43.2057102956" lon="-8.5223783366">
        <ele>483.56</ele>
        <time>2020-03-14T12:39:30Z</time>
      </trkpt>
      <trkpt lat="43.2057034224" lon="-8.5222581401">
        <ele>482.36</ele>
        <time>2020-03-14T12:39:32Z</time>
      </trkpt>
      <trkpt lat="43.2057160791" lon="-8.5219629295">
        <ele>480.12</ele>
        <time>2020-03-14T12:39:37Z</time>
      </trkpt>
      <trkpt lat="43.2057004049" lon="-8.5215730034">
        <ele>476.07</ele>
        <time>2020-03-14T12:39:42Z</time>
      </trkpt>
      <trkpt lat="43.2056880835" lon="-8.5214060359">
        <ele>474.46</ele>
        <time>2020-03-14T12:39:44Z</time>
      </trkpt>
      <trkpt lat="43.2057071943" lon="-8.5210736096">
        <ele>471.28</ele>
        <time>2020-03-14T12:39:49Z</time>
      </trkpt>
      <trkpt lat="43.2056413963" lon="-8.5210076440">
        <ele>467.85</ele>
        <time>2020-03-14T12:39:53Z</time>
      </trkpt>
      <trkpt lat="43.2055687252" lon="-8.5210032854">
        <ele>466.86</ele>
        <time>2020-03-14T12:39:55Z</time>
      </trkpt>
      <trkpt lat="43.2053385582" lon="-8.5210501403">
        <ele>465.90</ele>
        <time>2020-03-14T12:40:01Z</time>
      </trkpt>
      <trkpt lat="43.2052635401" lon="-8.5210870206">
        <ele>465.45</ele>
        <time>2020-03-14T12:40:03Z</time>
      </trkpt>
      <trkpt lat="43.2051915396" lon="-8.5211574286">
        <ele>465.11</ele>
        <time>2020-03-14T12:40:05Z</time>
      </trkpt>
      <trkpt lat="43.2050754502" lon="-8.5213544033">
        <ele>464.64</ele>
        <time>2020-03-14T12:40:09Z</time>
      </trkpt>
      <trkpt lat="43.2046917267" lon="-8.5213903617">
        <ele>463.48</ele>
        <time>2020-03-14T12:40:17Z</time>
      </trkpt>
      <trkpt lat="43.2045508269" lon="-8.5212166049">
        <ele>463.21</ele>
        <time>2020-03-14T12:40:20Z</time>
      </trkpt>
      <trkpt lat="43.2042878028" lon="-8.5208682530">
        <ele>461.17</ele>
        <time>2020-03-14T12:40:25Z</time>
      </trkpt>
      <trkpt lat="43.2041779999" lon="-8.5207348969">
        <ele>460.28</ele>
        <time>2020-03-14T12:40:27Z</time>
      </trkpt>
      <trkpt lat="43.2040012255" lon="-8.5206502397">
        <ele>458.99</ele>
        <time>2020-03-14T12:40:30Z</time>
      </trkpt>
      <trkpt lat="43.2038957812" lon="-8.5205940809">
        <ele>457.54</ele>
        <time>2020-03-14T12:40:32Z</time>
      </trkpt>
      <trkpt lat="43.2036894187" lon="-8.5204964317">
        <ele>455.23</ele>
        <time>2020-03-14T12:40:37Z</time>
      </trkpt>
      <trkpt lat="43.2035563979" lon="-8.5203830246">
        <ele>454.95</ele>
        <time>2020-03-14T12:40:43Z</time>
      </trkpt>
      <trkpt lat="43.2033758517" lon="-8.5204965156">
        <ele>458.01</ele>
        <time>2020-03-14T12:40:53Z</time>
      </trkpt>
      <trkpt lat="43.2031524740" lon="-8.5205489025">
        <ele>461.49</ele>
        <time>2020-03-14T12:41:04Z</time>
      </trkpt>
      <trkpt lat="43.2029180322" lon="-8.5204728786">
        <ele>464.07</ele>
        <time>2020-03-14T12:41:16Z</time>
      </trkpt>
      <trkpt lat="43.2028109953" lon="-8.5204770695">
        <ele>466.69</ele>
        <time>2020-03-14T12:41:29Z</time>
      </trkpt>
      <trkpt lat="43.2026335504" lon="-8.5204672627">
        <ele>469.72</ele>
        <time>2020-03-14T12:41:47Z</time>
      </trkpt>
      <trkpt lat="43.2025003619" lon="-8.5204341542">
        <ele>472.74</ele>
        <time>2020-03-14T12:42:02Z</time>
      </trkpt>
      <trkpt lat="43.2023819257" lon="-8.5203951783">
        <ele>475.84</ele>
        <time>2020-03-14T12:42:18Z</time>
      </trkpt>
      <trkpt lat="43.2021728810" lon="-8.5203798395">
        <ele>477.15</ele>
        <time>2020-03-14T12:42:32Z</time>
      </trkpt>
      <trkpt lat="43.2018528599" lon="-8.5203100182">
        <ele>480.23</ele>
        <time>2020-03-14T12:42:45Z</time>
      </trkpt>
      <trkpt lat="43.2015277259" lon="-8.5203042347">
        <ele>481.68</ele>
        <time>2020-03-14T12:43:00Z</time>
      </trkpt>
      <trkpt lat="43.2012508716" lon="-8.5205986071">
        <ele>484.67</ele>
        <time>2020-03-14T12:43:14Z</time>
      </trkpt>
      <trkpt lat="43.2008630410" lon="-8.5210536607">
        <ele>486.25</ele>
        <time>2020-03-14T12:43:33Z</time>
      </trkpt>
      <trkpt lat="43.2006757054" lon="-8.5212451033">
        <ele>487.63</ele>
        <time>2020-03-14T12:43:41Z</time>
      </trkpt>
      <trkpt lat="43.2005214784" lon="-8.5209687520">
        <ele>487.77</ele>
        <time>2020-03-14T12:43:51Z</time>
      </trkpt>
      <trkpt lat="43.2004053891" lon="-8.5210150201">
        <ele>487.77</ele>
        <time>2020-03-14T12:43:56Z</time>
      </trkpt>
      <trkpt lat="43.2003139425" lon="-8.5210690834">
        <ele>487.76</ele>
        <time>2020-03-14T12:44:00Z</time>
      </trkpt>
      <trkpt lat="43.2001109328" lon="-8.5213185288">
        <ele>489.48</ele>
        <time>2020-03-14T12:44:13Z</time>
      </trkpt>
      <trkpt lat="43.2000956777" lon="-8.5213466082">
        <ele>489.72</ele>
        <time>2020-03-14T12:44:14Z</time>
      </trkpt>
      <trkpt lat="43.2001281995" lon="-8.5214401502">
        <ele>490.85</ele>
        <time>2020-03-14T12:44:19Z</time>
      </trkpt>
      <trkpt lat="43.2002353203" lon="-8.5215047747">
        <ele>492.23</ele>
        <time>2020-03-14T12:44:33Z</time>
      </trkpt>
      <trkpt lat="43.2002403494" lon="-8.5214979015">
        <ele>492.27</ele>
        <time>2020-03-14T12:44:38Z</time>
      </trkpt>
      <trkpt lat="43.2001524232" lon="-8.5215178505">
        <ele>492.40</ele>
        <time>2020-03-14T12:44:51Z</time>
      </trkpt>
      <trkpt lat="43.1999333203" lon="-8.5218298249">
        <ele>492.10</ele>
        <time>2020-03-14T12:45:03Z</time>
      </trkpt>
      <trkpt lat="43.2000601385" lon="-8.5221849661">
        <ele>490.33</ele>
        <time>2020-03-14T12:45:13Z</time>
      </trkpt>
      <trkpt lat="43.2001700252" lon="-8.5223215912">
        <ele>488.62</ele>
        <time>2020-03-14T12:45:18Z</time>
      </trkpt>
      <trkpt lat="43.2001537643" lon="-8.5224611498">
        <ele>486.17</ele>
        <time>2020-03-14T12:45:24Z</time>
      </trkpt>
      <trkpt lat="43.1998914108" lon="-8.5230255872">
        <ele>485.19</ele>
        <time>2020-03-14T12:45:42Z</time>
      </trkpt>
      <trkpt lat="43.1997329928" lon="-8.5233813152">
        <ele>488.23</ele>
        <time>2020-03-14T12:45:54Z</time>
      </trkpt>
      <trkpt lat="43.1994614191" lon="-8.5239504464">
        <ele>491.20</ele>
        <time>2020-03-14T12:46:14Z</time>
      </trkpt>
      <trkpt lat="43.1992984749" lon="-8.5243009776">
        <ele>494.33</ele>
        <time>2020-03-14T12:46:28Z</time>
      </trkpt>
      <trkpt lat="43.1992652826" lon="-8.5243880656">
        <ele>494.97</ele>
        <time>2020-03-14T12:46:31Z</time>
      </trkpt>
      <trkpt lat="43.1992724072" lon="-8.5244271252">
        <ele>495.22</ele>
        <time>2020-03-14T12:46:32Z</time>
      </trkpt>
      <trkpt lat="43.1994321663" lon="-8.5249001160">
        <ele>495.60</ele>
        <time>2020-03-14T12:46:40Z</time>
      </trkpt>
      <trkpt lat="43.1994433142" lon="-8.5249675065">
        <ele>495.60</ele>
        <time>2020-03-14T12:46:41Z</time>
      </trkpt>
      <trkpt lat="43.1994650234" lon="-8.5250859428">
        <ele>494.93</ele>
        <time>2020-03-14T12:46:43Z</time>
      </trkpt>
      <trkpt lat="43.1994816195" lon="-8.5251394194">
        <ele>494.46</ele>
        <time>2020-03-14T12:46:44Z</time>
      </trkpt>
      <trkpt lat="43.1996674463" lon="-8.5256853327">
        <ele>493.84</ele>
        <time>2020-03-14T12:46:57Z</time>
      </trkpt>
      <trkpt lat="43.1998483278" lon="-8.5263438988">
        <ele>496.85</ele>
        <time>2020-03-14T12:47:12Z</time>
      </trkpt>
      <trkpt lat="43.1998749822" lon="-8.5263893288">
        <ele>496.85</ele>
        <time>2020-03-14T12:47:13Z</time>
      </trkpt>
      <trkpt lat="43.1999078393" lon="-8.5264313221">
        <ele>496.86</ele>
        <time>2020-03-14T12:47:14Z</time>
      </trkpt>
      <trkpt lat="43.2002089173" lon="-8.5268380120">
        <ele>496.65</ele>
        <time>2020-03-14T12:47:22Z</time>
      </trkpt>
      <trkpt lat="43.2002366614" lon="-8.5269059055">
        <ele>496.46</ele>
        <time>2020-03-14T12:47:23Z</time>
      </trkpt>
      <trkpt lat="43.2002571970" lon="-8.5269797500">
        <ele>496.32</ele>
        <time>2020-03-14T12:47:24Z</time>
      </trkpt>
      <trkpt lat="43.2002720330" lon="-8.5270561092">
        <ele>496.19</ele>
        <time>2020-03-14T12:47:25Z</time>
      </trkpt>
      <trkpt lat="43.2002776489" lon="-8.5271372460">
        <ele>496.00</ele>
        <time>2020-03-14T12:47:26Z</time>
      </trkpt>
      <trkpt lat="43.2002780680" lon="-8.5272219870">
        <ele>495.21</ele>
        <time>2020-03-14T12:47:27Z</time>
      </trkpt>
      <trkpt lat="43.2002731226" lon="-8.5276255757">
        <ele>493.60</ele>
        <time>2020-03-14T12:47:32Z</time>
      </trkpt>
      <trkpt lat="43.2002809178" lon="-8.5276957322">
        <ele>493.49</ele>
        <time>2020-03-14T12:47:33Z</time>
      </trkpt>
      <trkpt lat="43.2002990227" lon="-8.5277582612">
        <ele>493.17</ele>
        <time>2020-03-14T12:47:34Z</time>
      </trkpt>
      <trkpt lat="43.2003242522" lon="-8.5278132465">
        <ele>492.98</ele>
        <time>2020-03-14T12:47:35Z</time>
      </trkpt>
      <trkpt lat="43.2003512420" lon="-8.5278665554">
        <ele>492.78</ele>
        <time>2020-03-14T12:47:36Z</time>
      </trkpt>
      <trkpt lat="43.2004033774" lon="-8.5279704072">
        <ele>492.62</ele>
        <time>2020-03-14T12:47:38Z</time>
      </trkpt>
      <trkpt lat="43.2006124221" lon="-8.5284271371">
        <ele>492.86</ele>
        <time>2020-03-14T12:47:48Z</time>
      </trkpt>
      <trkpt lat="43.2006374840" lon="-8.5284709744">
        <ele>493.08</ele>
        <time>2020-03-14T12:47:49Z</time>
      </trkpt>
      <trkpt lat="43.2006656472" lon="-8.5285137221">
        <ele>493.23</ele>
        <time>2020-03-14T12:47:50Z</time>
      </trkpt>
      <trkpt lat="43.2007633802" lon="-8.5286395345">
        <ele>493.36</ele>
        <time>2020-03-14T12:47:53Z</time>
      </trkpt>
      <trkpt lat="43.2013267279" lon="-8.5295097437">
        <ele>492.59</ele>
        <time>2020-03-14T12:48:11Z</time>
      </trkpt>
      <trkpt lat="43.2017930970" lon="-8.5300102271">
        <ele>491.47</ele>
        <time>2020-03-14T12:48:25Z</time>
      </trkpt>
      <trkpt lat="43.2022105157" lon="-8.5304461699">
        <ele>491.63</ele>
        <time>2020-03-14T12:48:38Z</time>
      </trkpt>
      <trkpt lat="43.2025499828" lon="-8.5308605712">
        <ele>491.29</ele>
        <time>2020-03-14T12:48:50Z</time>
      </trkpt>
      <trkpt lat="43.2029700000" lon="-8.5315049719">
        <ele>491.01</ele>
        <time>2020-03-14T12:49:06Z</time>
      </trkpt>
      <trkpt lat="43.2031626999" lon="-8.5318088997">
        <ele>492.16</ele>
        <time>2020-03-14T12:49:15Z</time>
      </trkpt>
      <trkpt lat="43.2032958884" lon="-8.5320072994">
        <ele>492.62</ele>
        <time>2020-03-14T12:49:22Z</time>
      </trkpt>
      <trkpt lat="43.2035220321" lon="-8.5325506143">
        <ele>492.55</ele>
        <time>2020-03-14T12:49:35Z</time>
      </trkpt>
      <trkpt lat="43.2038084418" lon="-8.5334019642">
        <ele>491.54</ele>
        <time>2020-03-14T12:49:49Z</time>
      </trkpt>
      <trkpt lat="43.2039985433" lon="-8.5339848418">
        <ele>488.26</ele>
        <time>2020-03-14T12:49:58Z</time>
      </trkpt>
      <trkpt lat="43.2040153071" lon="-8.5340363067">
        <ele>488.05</ele>
        <time>2020-03-14T12:49:59Z</time>
      </trkpt>
      <trkpt lat="43.2041922491" lon="-8.5346787795">
        <ele>489.38</ele>
        <time>2020-03-14T12:50:14Z</time>
      </trkpt>
      <trkpt lat="43.2043626532" lon="-8.5350879841">
        <ele>491.50</ele>
        <time>2020-03-14T12:50:27Z</time>
      </trkpt>
      <trkpt lat="43.2045033854" lon="-8.5354515910">
        <ele>494.11</ele>
        <time>2020-03-14T12:50:40Z</time>
      </trkpt>
      <trkpt lat="43.2046167087" lon="-8.5357968416">
        <ele>497.30</ele>
        <time>2020-03-14T12:50:51Z</time>
      </trkpt>
      <trkpt lat="43.2047871128" lon="-8.5362281743">
        <ele>500.28</ele>
        <time>2020-03-14T12:51:06Z</time>
      </trkpt>
      <trkpt lat="43.2050127536" lon="-8.5367469303">
        <ele>502.22</ele>
        <time>2020-03-14T12:51:22Z</time>
      </trkpt>
      <trkpt lat="43.2051212993" lon="-8.5367892589">
        <ele>502.74</ele>
        <time>2020-03-14T12:51:27Z</time>
      </trkpt>
      <trkpt lat="43.2054817211" lon="-8.5368843097">
        <ele>503.26</ele>
        <time>2020-03-14T12:51:39Z</time>
      </trkpt>
      <trkpt lat="43.2058698870" lon="-8.5369423963">
        <ele>503.05</ele>
        <time>2020-03-14T12:51:50Z</time>
      </trkpt>
      <trkpt lat="43.2062284648" lon="-8.5370449070">
        <ele>502.29</ele>
        <time>2020-03-14T12:51:59Z</time>
      </trkpt>
      <trkpt lat="43.2062717993" lon="-8.5370902531">
        <ele>502.27</ele>
        <time>2020-03-14T12:52:00Z</time>
      </trkpt>
      <trkpt lat="43.2062956039" lon="-8.5371481720">
        <ele>502.15</ele>
        <time>2020-03-14T12:52:01Z</time>
      </trkpt>
      <trkpt lat="43.2063135412" lon="-8.5372109525">
        <ele>502.08</ele>
        <time>2020-03-14T12:52:02Z</time>
      </trkpt>
      <trkpt lat="43.2063240185" lon="-8.5372755770">
        <ele>501.93</ele>
        <time>2020-03-14T12:52:03Z</time>
      </trkpt>
      <trkpt lat="43.2063301373" lon="-8.5373448953">
        <ele>501.79</ele>
        <time>2020-03-14T12:52:04Z</time>
      </trkpt>
      <trkpt lat="43.2063352503" lon="-8.5374190751">
        <ele>501.57</ele>
        <time>2020-03-14T12:52:05Z</time>
      </trkpt>
      <trkpt lat="43.2063474879" lon="-8.5375790019">
        <ele>501.20</ele>
        <time>2020-03-14T12:52:07Z</time>
      </trkpt>
      <trkpt lat="43.2063566241" lon="-8.5376624018">
        <ele>500.98</ele>
        <time>2020-03-14T12:52:08Z</time>
      </trkpt>
      <trkpt lat="43.2063653413" lon="-8.5377472267">
        <ele>500.00</ele>
        <time>2020-03-14T12:52:09Z</time>
      </trkpt>
      <trkpt lat="43.2063737232" lon="-8.5378337279">
        <ele>499.47</ele>
        <time>2020-03-14T12:52:10Z</time>
      </trkpt>
      <trkpt lat="43.2063789200" lon="-8.5379219893">
        <ele>499.09</ele>
        <time>2020-03-14T12:52:11Z</time>
      </trkpt>
      <trkpt lat="43.2063872181" lon="-8.5380076524">
        <ele>498.87</ele>
        <time>2020-03-14T12:52:12Z</time>
      </trkpt>
      <trkpt lat="43.2064078376" lon="-8.5381745361">
        <ele>498.25</ele>
        <time>2020-03-14T12:52:14Z</time>
      </trkpt>
      <trkpt lat="43.2064816821" lon="-8.5387501214">
        <ele>495.95</ele>
        <time>2020-03-14T12:52:22Z</time>
      </trkpt>
      <trkpt lat="43.2064874656" lon="-8.5388175119">
        <ele>495.83</ele>
        <time>2020-03-14T12:52:23Z</time>
      </trkpt>
      <trkpt lat="43.2066026330" lon="-8.5397923272">
        <ele>494.78</ele>
        <time>2020-03-14T12:52:37Z</time>
      </trkpt>
      <trkpt lat="43.2066268567" lon="-8.5400662478">
        <ele>494.59</ele>
        <time>2020-03-14T12:52:41Z</time>
      </trkpt>
      <trkpt lat="43.2067586202" lon="-8.5409787018">
        <ele>493.68</ele>
        <time>2020-03-14T12:52:55Z</time>
      </trkpt>
      <trkpt lat="43.2067644875" lon="-8.5410407279">
        <ele>493.58</ele>
        <time>2020-03-14T12:52:56Z</time>
      </trkpt>
      <trkpt lat="43.2068369072" lon="-8.5417842027">
        <ele>494.64</ele>
        <time>2020-03-14T12:53:11Z</time>
      </trkpt>
      <trkpt lat="43.2069233246" lon="-8.5424536653">
        <ele>497.38</ele>
        <time>2020-03-14T12:53:27Z</time>
      </trkpt>
      <trkpt lat="43.2070562616" lon="-8.5432604235">
        <ele>500.52</ele>
        <time>2020-03-14T12:53:46Z</time>
      </trkpt>
      <trkpt lat="43.2071741950" lon="-8.5441442952">
        <ele>500.67</ele>
        <time>2020-03-14T12:54:03Z</time>
      </trkpt>
      <trkpt lat="43.2072750293" lon="-8.5449427553">
        <ele>503.10</ele>
        <time>2020-03-14T12:54:21Z</time>
      </trkpt>
      <trkpt lat="43.2073303498" lon="-8.5454878304">
        <ele>505.73</ele>
        <time>2020-03-14T12:54:35Z</time>
      </trkpt>
      <trkpt lat="43.2074241433" lon="-8.5462283716">
        <ele>508.75</ele>
        <time>2020-03-14T12:54:54Z</time>
      </trkpt>
      <trkpt lat="43.2074995805" lon="-8.5466190521">
        <ele>509.98</ele>
        <time>2020-03-14T12:55:02Z</time>
      </trkpt>
      <trkpt lat="43.2075701561" lon="-8.5475541372">
        <ele>509.26</ele>
        <time>2020-03-14T12:55:13Z</time>
      </trkpt>
      <trkpt lat="43.2076095510" lon="-8.5481541138">
        <ele>505.74</ele>
        <time>2020-03-14T12:55:19Z</time>
      </trkpt>
      <trkpt lat="43.2076441683" lon="-8.5492194537">
        <ele>502.71</ele>
        <time>2020-03-14T12:55:28Z</time>
      </trkpt>
      <trkpt lat="43.2076400612" lon="-8.5498754214">
        <ele>499.66</ele>
        <time>2020-03-14T12:55:33Z</time>
      </trkpt>
      <trkpt lat="43.2076610159" lon="-8.5503005516">
        <ele>495.92</ele>
        <time>2020-03-14T12:55:37Z</time>
      </trkpt>
      <trkpt lat="43.2076596748" lon="-8.5511425138">
        <ele>493.50</ele>
        <time>2020-03-14T12:55:46Z</time>
      </trkpt>
      <trkpt lat="43.2076660451" lon="-8.5512234829">
        <ele>493.45</ele>
        <time>2020-03-14T12:55:47Z</time>
      </trkpt>
      <trkpt lat="43.2076776959" lon="-8.5512970760">
        <ele>493.43</ele>
        <time>2020-03-14T12:55:48Z</time>
      </trkpt>
      <trkpt lat="43.2076999918" lon="-8.5514366347">
        <ele>493.46</ele>
        <time>2020-03-14T12:55:50Z</time>
      </trkpt>
      <trkpt lat="43.2077122293" lon="-8.5520637687">
        <ele>494.81</ele>
        <time>2020-03-14T12:56:02Z</time>
      </trkpt>
      <trkpt lat="43.2076838985" lon="-8.5525717959">
        <ele>497.37</ele>
        <time>2020-03-14T12:56:11Z</time>
      </trkpt>
      <trkpt lat="43.2077730820" lon="-8.5533775482">
        <ele>495.76</ele>
        <time>2020-03-14T12:56:21Z</time>
      </trkpt>
      <trkpt lat="43.2077915221" lon="-8.5534518119">
        <ele>495.08</ele>
        <time>2020-03-14T12:56:22Z</time>
      </trkpt>
      <trkpt lat="43.2078497764" lon="-8.5536193661">
        <ele>493.64</ele>
        <time>2020-03-14T12:56:24Z</time>
      </trkpt>
      <trkpt lat="43.2078828011" lon="-8.5537132435">
        <ele>493.13</ele>
        <time>2020-03-14T12:56:25Z</time>
      </trkpt>
      <trkpt lat="43.2078979723" lon="-8.5538206156">
        <ele>492.60</ele>
        <time>2020-03-14T12:56:26Z</time>
      </trkpt>
      <trkpt lat="43.2079025824" lon="-8.5539422370">
        <ele>492.04</ele>
        <time>2020-03-14T12:56:27Z</time>
      </trkpt>
      <trkpt lat="43.2078968827" lon="-8.5540740844">
        <ele>491.45</ele>
        <time>2020-03-14T12:56:28Z</time>
      </trkpt>
      <trkpt lat="43.2078874949" lon="-8.5542136431">
        <ele>490.98</ele>
        <time>2020-03-14T12:56:29Z</time>
      </trkpt>
      <trkpt lat="43.2078886684" lon="-8.5546541121">
        <ele>487.68</ele>
        <time>2020-03-14T12:56:32Z</time>
      </trkpt>
      <trkpt lat="43.2079209387" lon="-8.5551118478">
        <ele>483.96</ele>
        <time>2020-03-14T12:56:35Z</time>
      </trkpt>
      <trkpt lat="43.2079434860" lon="-8.5554076452">
        <ele>480.53</ele>
        <time>2020-03-14T12:56:37Z</time>
      </trkpt>
      <trkpt lat="43.2079724874" lon="-8.5558061209">
        <ele>476.77</ele>
        <time>2020-03-14T12:56:40Z</time>
      </trkpt>
      <trkpt lat="43.2080216054" lon="-8.5562652815">
        <ele>473.59</ele>
        <time>2020-03-14T12:56:44Z</time>
      </trkpt>
      <trkpt lat="43.2080402970" lon="-8.5564717278">
        <ele>472.78</ele>
        <time>2020-03-14T12:56:46Z</time>
      </trkpt>
      <trkpt lat="43.2080700528" lon="-8.5567991249">
        <ele>472.66</ele>
        <time>2020-03-14T12:56:50Z</time>
      </trkpt>
      <trkpt lat="43.2080699690" lon="-8.5568676889">
        <ele>472.66</ele>
        <time>2020-03-14T12:56:51Z</time>
      </trkpt>
      <trkpt lat="43.2080704719" lon="-8.5569330677">
        <ele>472.66</ele>
        <time>2020-03-14T12:56:52Z</time>
      </trkpt>
      <trkpt lat="43.2080899179" lon="-8.5573720280">
        <ele>474.36</ele>
        <time>2020-03-14T12:56:59Z</time>
      </trkpt>
      <trkpt lat="43.2081018202" lon="-8.5574325453">
        <ele>474.72</ele>
        <time>2020-03-14T12:57:00Z</time>
      </trkpt>
      <trkpt lat="43.2081122976" lon="-8.5574961640">
        <ele>475.00</ele>
        <time>2020-03-14T12:57:01Z</time>
      </trkpt>
      <trkpt lat="43.2082090247" lon="-8.5584832169">
        <ele>474.47</ele>
        <time>2020-03-14T12:57:15Z</time>
      </trkpt>
      <trkpt lat="43.2082387805" lon="-8.5587621666">
        <ele>474.09</ele>
        <time>2020-03-14T12:57:19Z</time>
      </trkpt>
      <trkpt lat="43.2082444802" lon="-8.5588303115">
        <ele>474.04</ele>
        <time>2020-03-14T12:57:20Z</time>
      </trkpt>
      <trkpt lat="43.2083046623" lon="-8.5593190603">
        <ele>473.39</ele>
        <time>2020-03-14T12:57:28Z</time>
      </trkpt>
      <trkpt lat="43.2083171513" lon="-8.5593779851">
        <ele>473.38</ele>
        <time>2020-03-14T12:57:29Z</time>
      </trkpt>
      <trkpt lat="43.2083290536" lon="-8.5594359040">
        <ele>473.37</ele>
        <time>2020-03-14T12:57:30Z</time>
      </trkpt>
      <trkpt lat="43.2084121183" lon="-8.5602152534">
        <ele>473.93</ele>
        <time>2020-03-14T12:57:45Z</time>
      </trkpt>
      <trkpt lat="43.2084707078" lon="-8.5606535431">
        <ele>476.18</ele>
        <time>2020-03-14T12:57:55Z</time>
      </trkpt>
      <trkpt lat="43.2085121982" lon="-8.5616107564">
        <ele>474.09</ele>
        <time>2020-03-14T12:58:08Z</time>
      </trkpt>
      <trkpt lat="43.2085075043" lon="-8.5618802346">
        <ele>473.15</ele>
        <time>2020-03-14T12:58:12Z</time>
      </trkpt>
      <trkpt lat="43.2085064147" lon="-8.5620224755">
        <ele>472.94</ele>
        <time>2020-03-14T12:58:14Z</time>
      </trkpt>
      <trkpt lat="43.2085039839" lon="-8.5620972421">
        <ele>472.88</ele>
        <time>2020-03-14T12:58:15Z</time>
      </trkpt>
      <trkpt lat="43.2085285429" lon="-8.5628603306">
        <ele>471.82</ele>
        <time>2020-03-14T12:58:24Z</time>
      </trkpt>
      <trkpt lat="43.2085429598" lon="-8.5631166492">
        <ele>470.40</ele>
        <time>2020-03-14T12:58:27Z</time>
      </trkpt>
      <trkpt lat="43.2085585501" lon="-8.5635808390">
        <ele>468.46</ele>
        <time>2020-03-14T12:58:32Z</time>
      </trkpt>
      <trkpt lat="43.2085527666" lon="-8.5636760574">
        <ele>468.11</ele>
        <time>2020-03-14T12:58:33Z</time>
      </trkpt>
      <trkpt lat="43.2085440494" lon="-8.5637688451">
        <ele>467.89</ele>
        <time>2020-03-14T12:58:34Z</time>
      </trkpt>
      <trkpt lat="43.2085339073" lon="-8.5638625547">
        <ele>467.57</ele>
        <time>2020-03-14T12:58:35Z</time>
      </trkpt>
      <trkpt lat="43.2085279562" lon="-8.5639599524">
        <ele>467.37</ele>
        <time>2020-03-14T12:58:36Z</time>
      </trkpt>
      <trkpt lat="43.2085277047" lon="-8.5640488006">
        <ele>467.09</ele>
        <time>2020-03-14T12:58:37Z</time>
      </trkpt>
      <trkpt lat="43.2085306384" lon="-8.5641324520">
        <ele>466.92</ele>
        <time>2020-03-14T12:58:38Z</time>
      </trkpt>
      <trkpt lat="43.2085272018" lon="-8.5642086435">
        <ele>466.43</ele>
        <time>2020-03-14T12:58:39Z</time>
      </trkpt>
      <trkpt lat="43.2084729709" lon="-8.5652386956">
        <ele>463.81</ele>
        <time>2020-03-14T12:58:52Z</time>
      </trkpt>
      <trkpt lat="43.2084542792" lon="-8.5655635782">
        <ele>462.74</ele>
        <time>2020-03-14T12:58:56Z</time>
      </trkpt>
      <trkpt lat="43.2082372718" lon="-8.5660520755">
        <ele>461.26</ele>
        <time>2020-03-14T12:59:05Z</time>
      </trkpt>
      <trkpt lat="43.2078445796" lon="-8.5665483680">
        <ele>462.71</ele>
        <time>2020-03-14T12:59:21Z</time>
      </trkpt>
      <trkpt lat="43.2077541389" lon="-8.5666790418">
        <ele>463.71</ele>
        <time>2020-03-14T12:59:32Z</time>
      </trkpt>
      <trkpt lat="43.2075808011" lon="-8.5669325944">
        <ele>463.80</ele>
        <time>2020-03-14T12:59:51Z</time>
      </trkpt>
      <trkpt lat="43.2074021827" lon="-8.5672359355">
        <ele>463.40</ele>
        <time>2020-03-14T12:59:59Z</time>
      </trkpt>
      <trkpt lat="43.2074012607" lon="-8.5673914198">
        <ele>462.87</ele>
        <time>2020-03-14T13:00:02Z</time>
      </trkpt>
      <trkpt lat="43.2073849160" lon="-8.5685202945">
        <ele>460.88</ele>
        <time>2020-03-14T13:00:21Z</time>
      </trkpt>
      <trkpt lat="43.2073976565" lon="-8.5689932015">
        <ele>460.24</ele>
        <time>2020-03-14T13:00:29Z</time>
      </trkpt>
      <trkpt lat="43.2073876821" lon="-8.5692630988">
        <ele>459.48</ele>
        <time>2020-03-14T13:00:33Z</time>
      </trkpt>
      <trkpt lat="43.2073942199" lon="-8.5694240313">
        <ele>458.73</ele>
        <time>2020-03-14T13:00:35Z</time>
      </trkpt>
      <trkpt lat="43.2074331958" lon="-8.5699930787">
        <ele>454.46</ele>
        <time>2020-03-14T13:00:41Z</time>
      </trkpt>
      <trkpt lat="43.2074482832" lon="-8.5702632274">
        <ele>450.66</ele>
        <time>2020-03-14T13:00:44Z</time>
      </trkpt>
      <trkpt lat="43.2074573357" lon="-8.5705514811">
        <ele>446.40</ele>
        <time>2020-03-14T13:00:47Z</time>
      </trkpt>
      <trkpt lat="43.2074736804" lon="-8.5709336959">
        <ele>443.19</ele>
        <time>2020-03-14T13:00:51Z</time>
      </trkpt>
      <trkpt lat="43.2074916176" lon="-8.5712698940">
        <ele>438.77</ele>
        <time>2020-03-14T13:00:55Z</time>
      </trkpt>
      <trkpt lat="43.2074933778" lon="-8.5713521205">
        <ele>438.03</ele>
        <time>2020-03-14T13:00:56Z</time>
      </trkpt>
      <trkpt lat="43.2075075433" lon="-8.5716671124">
        <ele>435.55</ele>
        <time>2020-03-14T13:01:00Z</time>
      </trkpt>
      <trkpt lat="43.2073425036" lon="-8.5719919112">
        <ele>431.91</ele>
        <time>2020-03-14T13:01:06Z</time>
      </trkpt>
      <trkpt lat="43.2072839141" lon="-8.5720281210">
        <ele>431.35</ele>
        <time>2020-03-14T13:01:07Z</time>
      </trkpt>
      <trkpt lat="43.2071660645" lon="-8.5721098445">
        <ele>430.61</ele>
        <time>2020-03-14T13:01:09Z</time>
      </trkpt>
      <trkpt lat="43.2068885397" lon="-8.5722992755">
        <ele>429.08</ele>
        <time>2020-03-14T13:01:13Z</time>
      </trkpt>
      <trkpt lat="43.2067100890" lon="-8.5724483058">
        <ele>427.68</ele>
        <time>2020-03-14T13:01:16Z</time>
      </trkpt>
      <trkpt lat="43.2066486496" lon="-8.5725402553">
        <ele>426.72</ele>
        <time>2020-03-14T13:01:18Z</time>
      </trkpt>
      <trkpt lat="43.2066476438" lon="-8.5725935642">
        <ele>426.48</ele>
        <time>2020-03-14T13:01:19Z</time>
      </trkpt>
      <trkpt lat="43.2066648267" lon="-8.5726437718">
        <ele>425.31</ele>
        <time>2020-03-14T13:01:20Z</time>
      </trkpt>
      <trkpt lat="43.2066882960" lon="-8.5726902075">
        <ele>424.49</ele>
        <time>2020-03-14T13:01:21Z</time>
      </trkpt>
      <trkpt lat="43.2067154534" lon="-8.5727374814">
        <ele>423.60</ele>
        <time>2020-03-14T13:01:22Z</time>
      </trkpt>
      <trkpt lat="43.2067404315" lon="-8.5727889463">
        <ele>422.90</ele>
        <time>2020-03-14T13:01:23Z</time>
      </trkpt>
      <trkpt lat="43.2067903038" lon="-8.5728942230">
        <ele>422.26</ele>
        <time>2020-03-14T13:01:25Z</time>
      </trkpt>
      <trkpt lat="43.2068722788" lon="-8.5730609391">
        <ele>421.65</ele>
        <time>2020-03-14T13:01:28Z</time>
      </trkpt>
      <trkpt lat="43.2069042977" lon="-8.5731217917">
        <ele>421.54</ele>
        <time>2020-03-14T13:01:29Z</time>
      </trkpt>
      <trkpt lat="43.2069426868" lon="-8.5731825605">
        <ele>421.43</ele>
        <time>2020-03-14T13:01:30Z</time>
      </trkpt>
      <trkpt lat="43.2070705108" lon="-8.5733794514">
        <ele>420.87</ele>
        <time>2020-03-14T13:01:33Z</time>
      </trkpt>
      <trkpt lat="43.2071110792" lon="-8.5734552238">
        <ele>420.68</ele>
        <time>2020-03-14T13:01:34Z</time>
      </trkpt>
      <trkpt lat="43.2071471214" lon="-8.5735387076">
        <ele>420.36</ele>
        <time>2020-03-14T13:01:35Z</time>
      </trkpt>
      <trkpt lat="43.2071797270" lon="-8.5736254603">
        <ele>420.01</ele>
        <time>2020-03-14T13:01:36Z</time>
      </trkpt>
      <trkpt lat="43.2072088122" lon="-8.5737187508">
        <ele>419.73</ele>
        <time>2020-03-14T13:01:37Z</time>
      </trkpt>
      <trkpt lat="43.2072369754" lon="-8.5738147236">
        <ele>419.31</ele>
        <time>2020-03-14T13:01:38Z</time>
      </trkpt>
      <trkpt lat="43.2072596066" lon="-8.5739145521">
        <ele>418.64</ele>
        <time>2020-03-14T13:01:39Z</time>
      </trkpt>
      <trkpt lat="43.2072819863" lon="-8.5740145482">
        <ele>417.88</ele>
        <time>2020-03-14T13:01:40Z</time>
      </trkpt>
      <trkpt lat="43.2073018514" lon="-8.5741115268">
        <ele>417.21</ele>
        <time>2020-03-14T13:01:41Z</time>
      </trkpt>
      <trkpt lat="43.2073803060" lon="-8.5746851843">
        <ele>413.41</ele>
        <time>2020-03-14T13:01:47Z</time>
      </trkpt>
      <trkpt lat="43.2073690742" lon="-8.5751404893">
        <ele>410.92</ele>
        <time>2020-03-14T13:01:51Z</time>
      </trkpt>
      <trkpt lat="43.2073574234" lon="-8.5752605181">
        <ele>410.66</ele>
        <time>2020-03-14T13:01:52Z</time>
      </trkpt>
      <trkpt lat="43.2072754484" lon="-8.5761026479">
        <ele>407.16</ele>
        <time>2020-03-14T13:01:59Z</time>
      </trkpt>
      <trkpt lat="43.2072477043" lon="-8.5763335694">
        <ele>405.12</ele>
        <time>2020-03-14T13:02:01Z</time>
      </trkpt>
      <trkpt lat="43.2072121650" lon="-8.5767824203">
        <ele>401.87</ele>
        <time>2020-03-14T13:02:05Z</time>
      </trkpt>
      <trkpt lat="43.2071551681" lon="-8.5772293434">
        <ele>399.14</ele>
        <time>2020-03-14T13:02:10Z</time>
      </trkpt>
      <trkpt lat="43.2071398292" lon="-8.5773851629">
        <ele>397.41</ele>
        <time>2020-03-14T13:02:12Z</time>
      </trkpt>
      <trkpt lat="43.2071273401" lon="-8.5776583292">
        <ele>396.05</ele>
        <time>2020-03-14T13:02:16Z</time>
      </trkpt>
      <trkpt lat="43.2071117498" lon="-8.5777182598">
        <ele>395.77</ele>
        <time>2020-03-14T13:02:17Z</time>
      </trkpt>
      <trkpt lat="43.2070855144" lon="-8.5777758434">
        <ele>395.33</ele>
        <time>2020-03-14T13:02:18Z</time>
      </trkpt>
      <trkpt lat="43.2070509810" lon="-8.5778274760">
        <ele>394.79</ele>
        <time>2020-03-14T13:02:19Z</time>
      </trkpt>
      <trkpt lat="43.2070096582" lon="-8.5778843891">
        <ele>394.03</ele>
        <time>2020-03-14T13:02:20Z</time>
      </trkpt>
      <trkpt lat="43.2069730293" lon="-8.5779416375">
        <ele>393.31</ele>
        <time>2020-03-14T13:02:21Z</time>
      </trkpt>
      <trkpt lat="43.2069363166" lon="-8.5780091956">
        <ele>392.91</ele>
        <time>2020-03-14T13:02:22Z</time>
      </trkpt>
      <trkpt lat="43.2068635616" lon="-8.5782253649">
        <ele>391.65</ele>
        <time>2020-03-14T13:02:25Z</time>
      </trkpt>
      <trkpt lat="43.2068187185" lon="-8.5783552844">
        <ele>390.65</ele>
        <time>2020-03-14T13:02:27Z</time>
      </trkpt>
      <trkpt lat="43.2067355700" lon="-8.5786862019">
        <ele>386.64</ele>
        <time>2020-03-14T13:02:32Z</time>
      </trkpt>
      <trkpt lat="43.2067092508" lon="-8.5788211506">
        <ele>384.77</ele>
        <time>2020-03-14T13:02:34Z</time>
      </trkpt>
      <trkpt lat="43.2066827640" lon="-8.5789853521">
        <ele>381.30</ele>
        <time>2020-03-14T13:02:37Z</time>
      </trkpt>
      <trkpt lat="43.2066711131" lon="-8.5790865216">
        <ele>379.50</ele>
        <time>2020-03-14T13:02:39Z</time>
      </trkpt>
      <trkpt lat="43.2066564448" lon="-8.5791384894">
        <ele>378.81</ele>
        <time>2020-03-14T13:02:40Z</time>
      </trkpt>
      <trkpt lat="43.2066382561" lon="-8.5791867692">
        <ele>378.35</ele>
        <time>2020-03-14T13:02:41Z</time>
      </trkpt>
      <trkpt lat="43.2066156249" lon="-8.5792229790">
        <ele>377.69</ele>
        <time>2020-03-14T13:02:42Z</time>
      </trkpt>
      <trkpt lat="43.2065889705" lon="-8.5792556684">
        <ele>376.89</ele>
        <time>2020-03-14T13:02:43Z</time>
      </trkpt>
      <trkpt lat="43.2065655012" lon="-8.5792886931">
        <ele>376.19</ele>
        <time>2020-03-14T13:02:44Z</time>
      </trkpt>
      <trkpt lat="43.2064121962" lon="-8.5795162618">
        <ele>373.39</ele>
        <time>2020-03-14T13:02:50Z</time>
      </trkpt>
      <trkpt lat="43.2061991282" lon="-8.5798321757">
        <ele>372.72</ele>
        <time>2020-03-14T13:03:00Z</time>
      </trkpt>
      <trkpt lat="43.2059909217" lon="-8.5801529512">
        <ele>373.53</ele>
        <time>2020-03-14T13:03:11Z</time>
      </trkpt>
      <trkpt lat="43.2057879120" lon="-8.5804800130">
        <ele>373.36</ele>
        <time>2020-03-14T13:03:21Z</time>
      </trkpt>
      <trkpt lat="43.2056149095" lon="-8.5807411093">
        <ele>369.92</ele>
        <time>2020-03-14T13:03:29Z</time>
      </trkpt>
      <trkpt lat="43.2055310067" lon="-8.5809442867">
        <ele>366.71</ele>
        <time>2020-03-14T13:03:34Z</time>
      </trkpt>
      <trkpt lat="43.2055608463" lon="-8.5811646469">
        <ele>363.42</ele>
        <time>2020-03-14T13:03:39Z</time>
      </trkpt>
      <trkpt lat="43.2055913564" lon="-8.5812236555">
        <ele>362.18</ele>
        <time>2020-03-14T13:03:41Z</time>
      </trkpt>
      <trkpt lat="43.2056142390" lon="-8.5812469572">
        <ele>361.54</ele>
        <time>2020-03-14T13:03:42Z</time>
      </trkpt>
      <trkpt lat="43.2056404743" lon="-8.5812704265">
        <ele>360.89</ele>
        <time>2020-03-14T13:03:43Z</time>
      </trkpt>
      <trkpt lat="43.2057815418" lon="-8.5813966580">
        <ele>357.49</ele>
        <time>2020-03-14T13:03:48Z</time>
      </trkpt>
      <trkpt lat="43.2058035024" lon="-8.5814583488">
        <ele>355.35</ele>
        <time>2020-03-14T13:04:43Z</time>
      </trkpt>
      <trkpt lat="43.2057660352" lon="-8.5814253241">
        <ele>355.34</ele>
        <time>2020-03-14T13:04:50Z</time>
      </trkpt>
      <trkpt lat="43.2056919392" lon="-8.5813645553">
        <ele>355.34</ele>
        <time>2020-03-14T13:04:53Z</time>
      </trkpt>
      <trkpt lat="43.2054170128" lon="-8.5811375733">
        <ele>356.68</ele>
        <time>2020-03-14T13:05:06Z</time>
      </trkpt>
      <trkpt lat="43.2049528230" lon="-8.5808253475">
        <ele>356.07</ele>
        <time>2020-03-14T13:05:18Z</time>
      </trkpt>
      <trkpt lat="43.2048507314" lon="-8.5807828512">
        <ele>355.82</ele>
        <time>2020-03-14T13:05:20Z</time>
      </trkpt>
      <trkpt lat="43.2048010267" lon="-8.5807713680">
        <ele>355.68</ele>
        <time>2020-03-14T13:05:21Z</time>
      </trkpt>
      <trkpt lat="43.2046190556" lon="-8.5807558615">
        <ele>354.65</ele>
        <time>2020-03-14T13:05:25Z</time>
      </trkpt>
      <trkpt lat="43.2045706082" lon="-8.5807343200">
        <ele>354.32</ele>
        <time>2020-03-14T13:05:26Z</time>
      </trkpt>
      <trkpt lat="43.2045304589" lon="-8.5807086714">
        <ele>353.92</ele>
        <time>2020-03-14T13:05:27Z</time>
      </trkpt>
      <trkpt lat="43.2044675946" lon="-8.5806477349">
        <ele>352.57</ele>
        <time>2020-03-14T13:05:30Z</time>
      </trkpt>
      <trkpt lat="43.2044534292" lon="-8.5806257743">
        <ele>351.94</ele>
        <time>2020-03-14T13:05:31Z</time>
      </trkpt>
      <trkpt lat="43.2044338156" lon="-8.5806063283">
        <ele>351.83</ele>
        <time>2020-03-14T13:05:32Z</time>
      </trkpt>
      <trkpt lat="43.2042209152" lon="-8.5803513508">
        <ele>353.29</ele>
        <time>2020-03-14T13:05:46Z</time>
      </trkpt>
      <trkpt lat="43.2040995453" lon="-8.5800880753">
        <ele>356.43</ele>
        <time>2020-03-14T13:05:56Z</time>
      </trkpt>
      <trkpt lat="43.2040810212" lon="-8.5800485965">
        <ele>357.16</ele>
        <time>2020-03-14T13:05:58Z</time>
      </trkpt>
      <trkpt lat="43.2040324062" lon="-8.5799377877">
        <ele>358.22</ele>
        <time>2020-03-14T13:06:02Z</time>
      </trkpt>
      <trkpt lat="43.2040108647" lon="-8.5798848979">
        <ele>358.60</ele>
        <time>2020-03-14T13:06:05Z</time>
      </trkpt>
      <trkpt lat="43.2039249502" lon="-8.5797576606">
        <ele>358.67</ele>
        <time>2020-03-14T13:06:10Z</time>
      </trkpt>
      <trkpt lat="43.2037269697" lon="-8.5793650523">
        <ele>356.26</ele>
        <time>2020-03-14T13:06:21Z</time>
      </trkpt>
      <trkpt lat="43.2036949508" lon="-8.5792727675">
        <ele>354.83</ele>
        <time>2020-03-14T13:06:24Z</time>
      </trkpt>
      <trkpt lat="43.2036535442" lon="-8.5792148486">
        <ele>353.94</ele>
        <time>2020-03-14T13:06:26Z</time>
      </trkpt>
      <trkpt lat="43.2035683002" lon="-8.5796076246">
        <ele>350.81</ele>
        <time>2020-03-14T13:06:39Z</time>
      </trkpt>
      <trkpt lat="43.2035541348" lon="-8.5797358677">
        <ele>350.57</ele>
        <time>2020-03-14T13:06:44Z</time>
      </trkpt>
      <trkpt lat="43.2034869958" lon="-8.5798201896">
        <ele>350.47</ele>
        <time>2020-03-14T13:06:48Z</time>
      </trkpt>
      <trkpt lat="43.2034243830" lon="-8.5801745765">
        <ele>350.37</ele>
        <time>2020-03-14T13:06:57Z</time>
      </trkpt>
      <trkpt lat="43.2035748381" lon="-8.5804910772">
        <ele>347.16</ele>
        <time>2020-03-14T13:07:05Z</time>
      </trkpt>
      <trkpt lat="43.2037950307" lon="-8.5806942545">
        <ele>344.64</ele>
        <time>2020-03-14T13:07:16Z</time>
      </trkpt>
      <trkpt lat="43.2038490102" lon="-8.5807264410">
        <ele>343.91</ele>
        <time>2020-03-14T13:07:19Z</time>
      </trkpt>
      <trkpt lat="43.2038551290" lon="-8.5807484854">
        <ele>343.65</ele>
        <time>2020-03-14T13:07:20Z</time>
      </trkpt>
      <trkpt lat="43.2038384490" lon="-8.5807679314">
        <ele>343.51</ele>
        <time>2020-03-14T13:07:21Z</time>
      </trkpt>
      <trkpt lat="43.2038147282" lon="-8.5807696916">
        <ele>343.38</ele>
        <time>2020-03-14T13:07:22Z</time>
      </trkpt>
      <trkpt lat="43.2037815358" lon="-8.5807749722">
        <ele>343.31</ele>
        <time>2020-03-14T13:07:23Z</time>
      </trkpt>
      <trkpt lat="43.2037491817" lon="-8.5807786603">
        <ele>343.11</ele>
        <time>2020-03-14T13:07:24Z</time>
      </trkpt>
      <trkpt lat="43.2037122175" lon="-8.5807846114">
        <ele>342.82</ele>
        <time>2020-03-14T13:07:25Z</time>
      </trkpt>
      <trkpt lat="43.2036693022" lon="-8.5807808395">
        <ele>342.67</ele>
        <time>2020-03-14T13:07:26Z</time>
      </trkpt>
      <trkpt lat="43.2036156580" lon="-8.5807815939">
        <ele>342.43</ele>
        <time>2020-03-14T13:07:27Z</time>
      </trkpt>
      <trkpt lat="43.2035657018" lon="-8.5807739664">
        <ele>342.18</ele>
        <time>2020-03-14T13:07:28Z</time>
      </trkpt>
      <trkpt lat="43.2032345328" lon="-8.5807868745">
        <ele>339.00</ele>
        <time>2020-03-14T13:07:35Z</time>
      </trkpt>
      <trkpt lat="43.2031284180" lon="-8.5807646625">
        <ele>335.42</ele>
        <time>2020-03-14T13:07:38Z</time>
      </trkpt>
      <trkpt lat="43.2029952295" lon="-8.5807357449">
        <ele>332.52</ele>
        <time>2020-03-14T13:07:43Z</time>
      </trkpt>
      <trkpt lat="43.2028811518" lon="-8.5809141956">
        <ele>329.77</ele>
        <time>2020-03-14T13:07:49Z</time>
      </trkpt>
      <trkpt lat="43.2028582692" lon="-8.5810248367">
        <ele>329.26</ele>
        <time>2020-03-14T13:07:51Z</time>
      </trkpt>
      <trkpt lat="43.2028374821" lon="-8.5816048644">
        <ele>325.65</ele>
        <time>2020-03-14T13:08:00Z</time>
      </trkpt>
      <trkpt lat="43.2028664835" lon="-8.5818966385">
        <ele>321.38</ele>
        <time>2020-03-14T13:08:05Z</time>
      </trkpt>
      <trkpt lat="43.2028852589" lon="-8.5820973013">
        <ele>318.32</ele>
        <time>2020-03-14T13:08:09Z</time>
      </trkpt>
      <trkpt lat="43.2029382326" lon="-8.5823007300">
        <ele>314.83</ele>
        <time>2020-03-14T13:08:13Z</time>
      </trkpt>
      <trkpt lat="43.2029726822" lon="-8.5824541189">
        <ele>312.92</ele>
        <time>2020-03-14T13:08:16Z</time>
      </trkpt>
      <trkpt lat="43.2029352989" lon="-8.5826347489">
        <ele>311.49</ele>
        <time>2020-03-14T13:08:19Z</time>
      </trkpt>
      <trkpt lat="43.2029179484" lon="-8.5828990303">
        <ele>309.38</ele>
        <time>2020-03-14T13:08:23Z</time>
      </trkpt>
      <trkpt lat="43.2028799783" lon="-8.5831602942">
        <ele>307.20</ele>
        <time>2020-03-14T13:08:28Z</time>
      </trkpt>
      <trkpt lat="43.2027943991" lon="-8.5832840949">
        <ele>303.25</ele>
        <time>2020-03-14T13:08:32Z</time>
      </trkpt>
      <trkpt lat="43.2027882803" lon="-8.5833291896">
        <ele>302.44</ele>
        <time>2020-03-14T13:08:33Z</time>
      </trkpt>
      <trkpt lat="43.2027871069" lon="-8.5833784752">
        <ele>301.92</ele>
        <time>2020-03-14T13:08:34Z</time>
      </trkpt>
      <trkpt lat="43.2027928904" lon="-8.5834895354">
        <ele>300.48</ele>
        <time>2020-03-14T13:08:36Z</time>
      </trkpt>
      <trkpt lat="43.2027904596" lon="-8.5836863425">
        <ele>299.20</ele>
        <time>2020-03-14T13:08:39Z</time>
      </trkpt>
      <trkpt lat="43.2027818263" lon="-8.5837621149">
        <ele>298.94</ele>
        <time>2020-03-14T13:08:40Z</time>
      </trkpt>
      <trkpt lat="43.2027647272" lon="-8.5838453472">
        <ele>298.64</ele>
        <time>2020-03-14T13:08:41Z</time>
      </trkpt>
      <trkpt lat="43.2027450297" lon="-8.5839124024">
        <ele>298.32</ele>
        <time>2020-03-14T13:08:42Z</time>
      </trkpt>
      <trkpt lat="43.2027163636" lon="-8.5839669686">
        <ele>297.92</ele>
        <time>2020-03-14T13:08:43Z</time>
      </trkpt>
      <trkpt lat="43.2026809081" lon="-8.5840056930">
        <ele>297.46</ele>
        <time>2020-03-14T13:08:44Z</time>
      </trkpt>
      <trkpt lat="43.2026400045" lon="-8.5840409808">
        <ele>297.08</ele>
        <time>2020-03-14T13:08:45Z</time>
      </trkpt>
      <trkpt lat="43.2021711208" lon="-8.5844819527">
        <ele>293.38</ele>
        <time>2020-03-14T13:08:55Z</time>
      </trkpt>
      <trkpt lat="43.2020863798" lon="-8.5846249480">
        <ele>292.18</ele>
        <time>2020-03-14T13:08:58Z</time>
      </trkpt>
      <trkpt lat="43.2020241860" lon="-8.5848289635">
        <ele>290.38</ele>
        <time>2020-03-14T13:09:02Z</time>
      </trkpt>
      <trkpt lat="43.2019248605" lon="-8.5850980226">
        <ele>290.12</ele>
        <time>2020-03-14T13:09:08Z</time>
      </trkpt>
      <trkpt lat="43.2019251958" lon="-8.5855490528">
        <ele>291.45</ele>
        <time>2020-03-14T13:09:21Z</time>
      </trkpt>
      <trkpt lat="43.2019282971" lon="-8.5861048568">
        <ele>292.03</ele>
        <time>2020-03-14T13:09:31Z</time>
      </trkpt>
      <trkpt lat="43.2019812707" lon="-8.5863835551">
        <ele>290.55</ele>
        <time>2020-03-14T13:09:37Z</time>
      </trkpt>
      <trkpt lat="43.2021194883" lon="-8.5866485909">
        <ele>286.48</ele>
        <time>2020-03-14T13:09:43Z</time>
      </trkpt>
      <trkpt lat="43.2021657564" lon="-8.5867345892">
        <ele>283.20</ele>
        <time>2020-03-14T13:09:45Z</time>
      </trkpt>
      <trkpt lat="43.2022529282" lon="-8.5869697854">
        <ele>279.86</ele>
        <time>2020-03-14T13:09:50Z</time>
      </trkpt>
      <trkpt lat="43.2023845240" lon="-8.5872794129">
        <ele>275.97</ele>
        <time>2020-03-14T13:09:56Z</time>
      </trkpt>
      <trkpt lat="43.2024662476" lon="-8.5875456221">
        <ele>273.15</ele>
        <time>2020-03-14T13:10:00Z</time>
      </trkpt>
      <trkpt lat="43.2026863564" lon="-8.5878294334">
        <ele>269.35</ele>
        <time>2020-03-14T13:10:06Z</time>
      </trkpt>
      <trkpt lat="43.2027934771" lon="-8.5879461095">
        <ele>267.03</ele>
        <time>2020-03-14T13:10:10Z</time>
      </trkpt>
      <trkpt lat="43.2028880250" lon="-8.5879684053">
        <ele>264.02</ele>
        <time>2020-03-14T13:10:13Z</time>
      </trkpt>
      <trkpt lat="43.2031335309" lon="-8.5879523959">
        <ele>261.21</ele>
        <time>2020-03-14T13:10:21Z</time>
      </trkpt>
      <trkpt lat="43.2035471778" lon="-8.5878636315">
        <ele>260.14</ele>
        <time>2020-03-14T13:10:34Z</time>
      </trkpt>
      <trkpt lat="43.2035983913" lon="-8.5878534056">
        <ele>259.81</ele>
        <time>2020-03-14T13:10:36Z</time>
      </trkpt>
      <trkpt lat="43.2036666200" lon="-8.5878855083">
        <ele>259.71</ele>
        <time>2020-03-14T13:10:38Z</time>
      </trkpt>
      <trkpt lat="43.2037024945" lon="-8.5879200418">
        <ele>259.65</ele>
        <time>2020-03-14T13:10:39Z</time>
      </trkpt>
      <trkpt lat="43.2037361059" lon="-8.5879555810">
        <ele>259.61</ele>
        <time>2020-03-14T13:10:40Z</time>
      </trkpt>
      <trkpt lat="43.2037674543" lon="-8.5879875999">
        <ele>259.48</ele>
        <time>2020-03-14T13:10:41Z</time>
      </trkpt>
      <trkpt lat="43.2039707154" lon="-8.5883130692">
        <ele>256.10</ele>
        <time>2020-03-14T13:10:49Z</time>
      </trkpt>
      <trkpt lat="43.2040266227" lon="-8.5884713195">
        <ele>252.48</ele>
        <time>2020-03-14T13:10:53Z</time>
      </trkpt>
      <trkpt lat="43.2040368486" lon="-8.5885044280">
        <ele>251.54</ele>
        <time>2020-03-14T13:10:54Z</time>
      </trkpt>
      <trkpt lat="43.2041557878" lon="-8.5885113850">
        <ele>247.53</ele>
        <time>2020-03-14T13:10:58Z</time>
      </trkpt>
      <trkpt lat="43.2042896468" lon="-8.5885378718">
        <ele>243.29</ele>
        <time>2020-03-14T13:11:02Z</time>
      </trkpt>
      <trkpt lat="43.2044672593" lon="-8.5886396281">
        <ele>240.16</ele>
        <time>2020-03-14T13:11:09Z</time>
      </trkpt>
      <trkpt lat="43.2045275252" lon="-8.5886713117">
        <ele>240.01</ele>
        <time>2020-03-14T13:11:13Z</time>
      </trkpt>
      <trkpt lat="43.2047782280" lon="-8.5887921788">
        <ele>241.58</ele>
        <time>2020-03-14T13:11:25Z</time>
      </trkpt>
      <trkpt lat="43.2050704211" lon="-8.5889629181">
        <ele>243.48</ele>
        <time>2020-03-14T13:11:36Z</time>
      </trkpt>
      <trkpt lat="43.2051179465" lon="-8.5890272912">
        <ele>244.14</ele>
        <time>2020-03-14T13:11:40Z</time>
      </trkpt>
      <trkpt lat="43.2051485404" lon="-8.5890622437">
        <ele>244.52</ele>
        <time>2020-03-14T13:11:42Z</time>
      </trkpt>
      <trkpt lat="43.2054543961" lon="-8.5891867150">
        <ele>246.08</ele>
        <time>2020-03-14T13:11:54Z</time>
      </trkpt>
      <trkpt lat="43.2057773508" lon="-8.5894886311">
        <ele>246.82</ele>
        <time>2020-03-14T13:12:06Z</time>
      </trkpt>
      <trkpt lat="43.2058640197" lon="-8.5897989292">
        <ele>246.77</ele>
        <time>2020-03-14T13:12:13Z</time>
      </trkpt>
      <trkpt lat="43.2059893291" lon="-8.5899376497">
        <ele>246.48</ele>
        <time>2020-03-14T13:12:17Z</time>
      </trkpt>
      <trkpt lat="43.2064039819" lon="-8.5899750330">
        <ele>243.13</ele>
        <time>2020-03-14T13:12:29Z</time>
      </trkpt>
      <trkpt lat="43.2067592070" lon="-8.5898615420">
        <ele>242.25</ele>
        <time>2020-03-14T13:12:39Z</time>
      </trkpt>
      <trkpt lat="43.2072677370" lon="-8.5896706861">
        <ele>239.09</ele>
        <time>2020-03-14T13:12:49Z</time>
      </trkpt>
      <trkpt lat="43.2074682321" lon="-8.5896138567">
        <ele>236.83</ele>
        <time>2020-03-14T13:12:59Z</time>
      </trkpt>
      <trkpt lat="43.2075148355" lon="-8.5895787366">
        <ele>235.89</ele>
        <time>2020-03-14T13:13:21Z</time>
      </trkpt>
      <trkpt lat="43.2074329443" lon="-8.5896416008">
        <ele>235.90</ele>
        <time>2020-03-14T13:13:44Z</time>
      </trkpt>
      <trkpt lat="43.2074334472" lon="-8.5896507371">
        <ele>236.64</ele>
        <time>2020-03-14T13:14:04Z</time>
      </trkpt>
      <trkpt lat="43.2074865885" lon="-8.5896084923">
        <ele>236.37</ele>
        <time>2020-03-14T13:14:23Z</time>
      </trkpt>
      <trkpt lat="43.2076113950" lon="-8.5894955881">
        <ele>236.25</ele>
        <time>2020-03-14T13:14:37Z</time>
      </trkpt>
      <trkpt lat="43.2077899296" lon="-8.5894652456">
        <ele>236.35</ele>
        <time>2020-03-14T13:14:57Z</time>
      </trkpt>
      <trkpt lat="43.2076569926" lon="-8.5894547682">
        <ele>237.62</ele>
        <time>2020-03-14T13:15:26Z</time>
      </trkpt>
      <trkpt lat="43.2075318508" lon="-8.5895832628">
        <ele>236.43</ele>
        <time>2020-03-14T13:15:40Z</time>
      </trkpt>
      <trkpt lat="43.2073811442" lon="-8.5896658245">
        <ele>236.31</ele>
        <time>2020-03-14T13:15:56Z</time>
      </trkpt>
      <trkpt lat="43.2071264181" lon="-8.5897497274">
        <ele>237.95</ele>
        <time>2020-03-14T13:16:16Z</time>
      </trkpt>
      <trkpt lat="43.2071084809" lon="-8.5897808243">
        <ele>238.50</ele>
        <time>2020-03-14T13:16:33Z</time>
      </trkpt>
      <trkpt lat="43.2072763704" lon="-8.5896896292">
        <ele>238.38</ele>
        <time>2020-03-14T13:16:50Z</time>
      </trkpt>
      <trkpt lat="43.2073088922" lon="-8.5896754637">
        <ele>237.99</ele>
        <time>2020-03-14T13:16:56Z</time>
      </trkpt>
      <trkpt lat="43.2074171863" lon="-8.5896483064">
        <ele>236.99</ele>
        <time>2020-03-14T13:17:08Z</time>
      </trkpt>
      <trkpt lat="43.2075341977" lon="-8.5895825084">
        <ele>236.42</ele>
        <time>2020-03-14T13:17:22Z</time>
      </trkpt>
      <trkpt lat="43.2075538952" lon="-8.5895645712">
        <ele>236.33</ele>
        <time>2020-03-14T13:17:24Z</time>
      </trkpt>
      <trkpt lat="43.2076840661" lon="-8.5894122720">
        <ele>236.45</ele>
        <time>2020-03-14T13:17:39Z</time>
      </trkpt>
      <trkpt lat="43.2077638619" lon="-8.5894203186">
        <ele>236.67</ele>
        <time>2020-03-14T13:17:49Z</time>
      </trkpt>
      <trkpt lat="43.2079368643" lon="-8.5895111784">
        <ele>238.54</ele>
        <time>2020-03-14T13:18:07Z</time>
      </trkpt>
      <trkpt lat="43.2080190070" lon="-8.5895861965">
        <ele>240.20</ele>
        <time>2020-03-14T13:18:17Z</time>
      </trkpt>
      <trkpt lat="43.2081885729" lon="-8.5896493122">
        <ele>242.51</ele>
        <time>2020-03-14T13:18:34Z</time>
      </trkpt>
      <trkpt lat="43.2082790136" lon="-8.5897270963">
        <ele>244.37</ele>
        <time>2020-03-14T13:18:47Z</time>
      </trkpt>
      <trkpt lat="43.2083344180" lon="-8.5897822492">
        <ele>246.18</ele>
        <time>2020-03-14T13:19:09Z</time>
      </trkpt>
      <trkpt lat="43.2084086817" lon="-8.5897919722">
        <ele>246.41</ele>
        <time>2020-03-14T13:19:28Z</time>
      </trkpt>
      <trkpt lat="43.2085138746" lon="-8.5898403358">
        <ele>247.75</ele>
        <time>2020-03-14T13:19:45Z</time>
      </trkpt>
      <trkpt lat="43.2086017169" lon="-8.5898766294">
        <ele>248.34</ele>
        <time>2020-03-14T13:19:53Z</time>
      </trkpt>
      <trkpt lat="43.2088304590" lon="-8.5900276713">
        <ele>250.45</ele>
        <time>2020-03-14T13:20:10Z</time>
      </trkpt>
      <trkpt lat="43.2089531701" lon="-8.5901082214">
        <ele>252.02</ele>
        <time>2020-03-14T13:20:21Z</time>
      </trkpt>
      <trkpt lat="43.2090869453" lon="-8.5901744384">
        <ele>254.86</ele>
        <time>2020-03-14T13:20:40Z</time>
      </trkpt>
      <trkpt lat="43.2090869453" lon="-8.5901748575">
        <ele>255.19</ele>
        <time>2020-03-14T13:20:41Z</time>
      </trkpt>
      <trkpt lat="43.2090960816" lon="-8.5897690058">
        <ele>256.65</ele>
        <time>2020-03-14T13:20:54Z</time>
      </trkpt>
      <trkpt lat="43.2091116719" lon="-8.5897392500">
        <ele>256.66</ele>
        <time>2020-03-14T13:20:55Z</time>
      </trkpt>
      <trkpt lat="43.2091321237" lon="-8.5897168703">
        <ele>256.67</ele>
        <time>2020-03-14T13:20:56Z</time>
      </trkpt>
      <trkpt lat="43.2091530785" lon="-8.5897055548">
        <ele>256.67</ele>
        <time>2020-03-14T13:20:57Z</time>
      </trkpt>
      <trkpt lat="43.2091749553" lon="-8.5896998551">
        <ele>256.67</ele>
        <time>2020-03-14T13:20:58Z</time>
      </trkpt>
      <trkpt lat="43.2091976702" lon="-8.5896982625">
        <ele>256.67</ele>
        <time>2020-03-14T13:20:59Z</time>
      </trkpt>
      <trkpt lat="43.2092215586" lon="-8.5896991845">
        <ele>256.67</ele>
        <time>2020-03-14T13:21:00Z</time>
      </trkpt>
      <trkpt lat="43.2096229680" lon="-8.5896695964">
        <ele>259.72</ele>
        <time>2020-03-14T13:21:17Z</time>
      </trkpt>
      <trkpt lat="43.2100211084" lon="-8.5896217357">
        <ele>262.97</ele>
        <time>2020-03-14T13:21:32Z</time>
      </trkpt>
      <trkpt lat="43.2106712926" lon="-8.5895905551">
        <ele>263.83</ele>
        <time>2020-03-14T13:21:47Z</time>
      </trkpt>
      <trkpt lat="43.2113558426" lon="-8.5895387549">
        <ele>260.62</ele>
        <time>2020-03-14T13:21:56Z</time>
      </trkpt>
      <trkpt lat="43.2116514724" lon="-8.5895166267">
        <ele>257.55</ele>
        <time>2020-03-14T13:22:00Z</time>
      </trkpt>
      <trkpt lat="43.2119716611" lon="-8.5894986894">
        <ele>254.47</ele>
        <time>2020-03-14T13:22:05Z</time>
      </trkpt>
      <trkpt lat="43.2129300479" lon="-8.5894435365">
        <ele>253.87</ele>
        <time>2020-03-14T13:22:23Z</time>
      </trkpt>
      <trkpt lat="43.2130160462" lon="-8.5894326400">
        <ele>253.31</ele>
        <time>2020-03-14T13:22:25Z</time>
      </trkpt>
      <trkpt lat="43.2138917875" lon="-8.5893996991">
        <ele>253.29</ele>
        <time>2020-03-14T13:22:45Z</time>
      </trkpt>
      <trkpt lat="43.2143415604" lon="-8.5893955082">
        <ele>253.54</ele>
        <time>2020-03-14T13:22:55Z</time>
      </trkpt>
      <trkpt lat="43.2143814582" lon="-8.5894022137">
        <ele>253.54</ele>
        <time>2020-03-14T13:22:56Z</time>
      </trkpt>
      <trkpt lat="43.2144169137" lon="-8.5894223303">
        <ele>253.59</ele>
        <time>2020-03-14T13:22:57Z</time>
      </trkpt>
      <trkpt lat="43.2144428976" lon="-8.5894577857">
        <ele>253.63</ele>
        <time>2020-03-14T13:22:58Z</time>
      </trkpt>
      <trkpt lat="43.2144551352" lon="-8.5895060655">
        <ele>253.67</ele>
        <time>2020-03-14T13:22:59Z</time>
      </trkpt>
      <trkpt lat="43.2144568954" lon="-8.5895612184">
        <ele>253.72</ele>
        <time>2020-03-14T13:23:00Z</time>
      </trkpt>
      <trkpt lat="43.2144550513" lon="-8.5896180477">
        <ele>253.76</ele>
        <time>2020-03-14T13:23:01Z</time>
      </trkpt>
      <trkpt lat="43.2144485135" lon="-8.5905523784">
        <ele>254.50</ele>
        <time>2020-03-14T13:23:18Z</time>
      </trkpt>
      <trkpt lat="43.2144770958" lon="-8.5905854031">
        <ele>254.52</ele>
        <time>2020-03-14T13:23:19Z</time>
      </trkpt>
      <trkpt lat="43.2145161554" lon="-8.5905928630">
        <ele>254.53</ele>
        <time>2020-03-14T13:23:20Z</time>
      </trkpt>
      <trkpt lat="43.2145534549" lon="-8.5905745905">
        <ele>254.54</ele>
        <time>2020-03-14T13:23:21Z</time>
      </trkpt>
      <trkpt lat="43.2145905867" lon="-8.5905445833">
        <ele>254.54</ele>
        <time>2020-03-14T13:23:22Z</time>
      </trkpt>
      <trkpt lat="43.2146260422" lon="-8.5905094631">
        <ele>254.54</ele>
        <time>2020-03-14T13:23:23Z</time>
      </trkpt>
      <trkpt lat="43.2153270207" lon="-8.5897813272">
        <ele>252.53</ele>
        <time>2020-03-14T13:23:40Z</time>
      </trkpt>
      <trkpt lat="43.2160996646" lon="-8.5891241021">
        <ele>249.76</ele>
        <time>2020-03-14T13:23:54Z</time>
      </trkpt>
      <trkpt lat="43.2162490301" lon="-8.5889788438">
        <ele>248.70</ele>
        <time>2020-03-14T13:23:57Z</time>
      </trkpt>
      <trkpt lat="43.2163254730" lon="-8.5888822004">
        <ele>247.86</ele>
        <time>2020-03-14T13:23:59Z</time>
      </trkpt>
      <trkpt lat="43.2163678855" lon="-8.5888546240">
        <ele>247.30</ele>
        <time>2020-03-14T13:24:00Z</time>
      </trkpt>
      <trkpt lat="43.2164118905" lon="-8.5888449848">
        <ele>246.60</ele>
        <time>2020-03-14T13:24:01Z</time>
      </trkpt>
      <trkpt lat="43.2164532971" lon="-8.5888446495">
        <ele>245.93</ele>
        <time>2020-03-14T13:24:02Z</time>
      </trkpt>
      <trkpt lat="43.2164916024" lon="-8.5888464097">
        <ele>245.52</ele>
        <time>2020-03-14T13:24:03Z</time>
      </trkpt>
      <trkpt lat="43.2165315002" lon="-8.5888428893">
        <ele>245.18</ele>
        <time>2020-03-14T13:24:04Z</time>
      </trkpt>
      <trkpt lat="43.2166194264" lon="-8.5888325796">
        <ele>244.78</ele>
        <time>2020-03-14T13:24:06Z</time>
      </trkpt>
      <trkpt lat="43.2166651078" lon="-8.5888386983">
        <ele>244.66</ele>
        <time>2020-03-14T13:24:07Z</time>
      </trkpt>
      <trkpt lat="43.2170107774" lon="-8.5889299773">
        <ele>243.04</ele>
        <time>2020-03-14T13:24:14Z</time>
      </trkpt>
      <trkpt lat="43.2173263561" lon="-8.5888468288">
        <ele>240.83</ele>
        <time>2020-03-14T13:24:21Z</time>
      </trkpt>
      <trkpt lat="43.2174620591" lon="-8.5887881555">
        <ele>239.61</ele>
        <time>2020-03-14T13:24:24Z</time>
      </trkpt>
      <trkpt lat="43.2177028712" lon="-8.5887062643">
        <ele>238.59</ele>
        <time>2020-03-14T13:24:29Z</time>
      </trkpt>
      <trkpt lat="43.2178410888" lon="-8.5886476748">
        <ele>236.87</ele>
        <time>2020-03-14T13:24:32Z</time>
      </trkpt>
      <trkpt lat="43.2179844193" lon="-8.5885660350">
        <ele>234.88</ele>
        <time>2020-03-14T13:24:35Z</time>
      </trkpt>
      <trkpt lat="43.2182248961" lon="-8.5883435793">
        <ele>231.11</ele>
        <time>2020-03-14T13:24:40Z</time>
      </trkpt>
      <trkpt lat="43.2186155766" lon="-8.5880528111">
        <ele>226.86</ele>
        <time>2020-03-14T13:24:46Z</time>
      </trkpt>
      <trkpt lat="43.2186766807" lon="-8.5880107339">
        <ele>226.27</ele>
        <time>2020-03-14T13:24:47Z</time>
      </trkpt>
      <trkpt lat="43.2187830471" lon="-8.5879153479">
        <ele>224.79</ele>
        <time>2020-03-14T13:24:49Z</time>
      </trkpt>
      <trkpt lat="43.2189957798" lon="-8.5877321195">
        <ele>220.58</ele>
        <time>2020-03-14T13:24:53Z</time>
      </trkpt>
      <trkpt lat="43.2195170503" lon="-8.5873787384">
        <ele>217.25</ele>
        <time>2020-03-14T13:25:02Z</time>
      </trkpt>
      <trkpt lat="43.2197501510" lon="-8.5872316360">
        <ele>215.69</ele>
        <time>2020-03-14T13:25:06Z</time>
      </trkpt>
      <trkpt lat="43.2202014327" lon="-8.5869379342">
        <ele>213.27</ele>
        <time>2020-03-14T13:25:16Z</time>
      </trkpt>
      <trkpt lat="43.2204274926" lon="-8.5867857188">
        <ele>213.00</ele>
        <time>2020-03-14T13:25:22Z</time>
      </trkpt>
      <trkpt lat="43.2206544746" lon="-8.5867119581">
        <ele>212.74</ele>
        <time>2020-03-14T13:25:28Z</time>
      </trkpt>
      <trkpt lat="43.2207387965" lon="-8.5866811126">
        <ele>212.63</ele>
        <time>2020-03-14T13:25:30Z</time>
      </trkpt>
      <trkpt lat="43.2208237052" lon="-8.5866430588">
        <ele>212.48</ele>
        <time>2020-03-14T13:25:32Z</time>
      </trkpt>
      <trkpt lat="43.2211867254" lon="-8.5863958765">
        <ele>210.78</ele>
        <time>2020-03-14T13:25:40Z</time>
      </trkpt>
      <trkpt lat="43.2215333171" lon="-8.5862885043">
        <ele>209.50</ele>
        <time>2020-03-14T13:25:46Z</time>
      </trkpt>
      <trkpt lat="43.2218335569" lon="-8.5862754285">
        <ele>205.80</ele>
        <time>2020-03-14T13:25:54Z</time>
      </trkpt>
      <trkpt lat="43.2220744528" lon="-8.5862202756">
        <ele>204.52</ele>
        <time>2020-03-14T13:26:04Z</time>
      </trkpt>
      <trkpt lat="43.2223562524" lon="-8.5861408990">
        <ele>204.53</ele>
        <time>2020-03-14T13:26:12Z</time>
      </trkpt>
      <trkpt lat="43.2224018499" lon="-8.5861695651">
        <ele>204.53</ele>
        <time>2020-03-14T13:26:14Z</time>
      </trkpt>
      <trkpt lat="43.2224092260" lon="-8.5862012487">
        <ele>204.58</ele>
        <time>2020-03-14T13:26:15Z</time>
      </trkpt>
      <trkpt lat="43.2224074658" lon="-8.5862431582">
        <ele>204.63</ele>
        <time>2020-03-14T13:26:16Z</time>
      </trkpt>
      <trkpt lat="43.2224012632" lon="-8.5862903483">
        <ele>204.66</ele>
        <time>2020-03-14T13:26:17Z</time>
      </trkpt>
      <trkpt lat="43.2223524805" lon="-8.5868091043">
        <ele>205.85</ele>
        <time>2020-03-14T13:26:29Z</time>
      </trkpt>
      <trkpt lat="43.2223151810" lon="-8.5869833641">
        <ele>206.91</ele>
        <time>2020-03-14T13:26:36Z</time>
      </trkpt>
      <trkpt lat="43.2223123312" lon="-8.5870067496">
        <ele>207.13</ele>
        <time>2020-03-14T13:26:37Z</time>
      </trkpt>
      <trkpt lat="43.2223030273" lon="-8.5870360862">
        <ele>207.29</ele>
        <time>2020-03-14T13:26:38Z</time>
      </trkpt>
      <trkpt lat="43.2222939748" lon="-8.5870667640">
        <ele>207.88</ele>
        <time>2020-03-14T13:26:39Z</time>
      </trkpt>
      <trkpt lat="43.2222942263" lon="-8.5870927479">
        <ele>207.88</ele>
        <time>2020-03-14T13:26:40Z</time>
      </trkpt>
      <trkpt lat="43.2223011833" lon="-8.5871217493">
        <ele>208.39</ele>
        <time>2020-03-14T13:26:41Z</time>
      </trkpt>
      <trkpt lat="43.2223126665" lon="-8.5871548578">
        <ele>208.64</ele>
        <time>2020-03-14T13:26:42Z</time>
      </trkpt>
      <trkpt lat="43.2223223895" lon="-8.5871914867">
        <ele>208.82</ele>
        <time>2020-03-14T13:26:43Z</time>
      </trkpt>
      <trkpt lat="43.2223307714" lon="-8.5872260202">
        <ele>209.03</ele>
        <time>2020-03-14T13:26:44Z</time>
      </trkpt>
      <trkpt lat="43.2223414164" lon="-8.5872504115">
        <ele>209.25</ele>
        <time>2020-03-14T13:26:45Z</time>
      </trkpt>
      <trkpt lat="43.2224455196" lon="-8.5874127690">
        <ele>210.96</ele>
        <time>2020-03-14T13:26:53Z</time>
      </trkpt>
      <trkpt lat="43.2226511277" lon="-8.5875910521">
        <ele>214.14</ele>
        <time>2020-03-14T13:27:05Z</time>
      </trkpt>
      <trkpt lat="43.2226942107" lon="-8.5876212269">
        <ele>214.54</ele>
        <time>2020-03-14T13:27:08Z</time>
      </trkpt>
      <trkpt lat="43.2230242901" lon="-8.5874429438">
        <ele>216.34</ele>
        <time>2020-03-14T13:27:21Z</time>
      </trkpt>
      <trkpt lat="43.2232575584" lon="-8.5872685164">
        <ele>217.46</ele>
        <time>2020-03-14T13:27:31Z</time>
      </trkpt>
      <trkpt lat="43.2234787568" lon="-8.5871176422">
        <ele>218.81</ele>
        <time>2020-03-14T13:27:42Z</time>
      </trkpt>
      <trkpt lat="43.2237296272" lon="-8.5869184881">
        <ele>220.69</ele>
        <time>2020-03-14T13:27:54Z</time>
      </trkpt>
      <trkpt lat="43.2239608001" lon="-8.5867282189">
        <ele>223.88</ele>
        <time>2020-03-14T13:28:07Z</time>
      </trkpt>
      <trkpt lat="43.2241716050" lon="-8.5865744110">
        <ele>225.83</ele>
        <time>2020-03-14T13:28:18Z</time>
      </trkpt>
      <trkpt lat="43.2243652269" lon="-8.5864023305">
        <ele>228.48</ele>
        <time>2020-03-14T13:28:30Z</time>
      </trkpt>
      <trkpt lat="43.2245347928" lon="-8.5862118099">
        <ele>231.66</ele>
        <time>2020-03-14T13:28:42Z</time>
      </trkpt>
      <trkpt lat="43.2247056998" lon="-8.5860598460">
        <ele>234.69</ele>
        <time>2020-03-14T13:28:52Z</time>
      </trkpt>
      <trkpt lat="43.2248833124" lon="-8.5859460197">
        <ele>237.07</ele>
        <time>2020-03-14T13:29:02Z</time>
      </trkpt>
      <trkpt lat="43.2250747550" lon="-8.5858504660">
        <ele>239.31</ele>
        <time>2020-03-14T13:29:12Z</time>
      </trkpt>
      <trkpt lat="43.2251321711" lon="-8.5858196206">
        <ele>240.16</ele>
        <time>2020-03-14T13:29:15Z</time>
      </trkpt>
      <trkpt lat="43.2252077758" lon="-8.5857906193">
        <ele>241.31</ele>
        <time>2020-03-14T13:29:19Z</time>
      </trkpt>
      <trkpt lat="43.2254122943" lon="-8.5857147630">
        <ele>244.07</ele>
        <time>2020-03-14T13:29:31Z</time>
      </trkpt>
      <trkpt lat="43.2255302276" lon="-8.5857099853">
        <ele>245.91</ele>
        <time>2020-03-14T13:29:37Z</time>
      </trkpt>
      <trkpt lat="43.2257520966" lon="-8.5857384838">
        <ele>249.55</ele>
        <time>2020-03-14T13:29:49Z</time>
      </trkpt>
      <trkpt lat="43.2259903941" lon="-8.5857177805">
        <ele>252.60</ele>
        <time>2020-03-14T13:30:01Z</time>
      </trkpt>
      <trkpt lat="43.2262266800" lon="-8.5854998510">
        <ele>255.47</ele>
        <time>2020-03-14T13:30:13Z</time>
      </trkpt>
      <trkpt lat="43.2265191246" lon="-8.5850150418">
        <ele>255.47</ele>
        <time>2020-03-14T13:30:26Z</time>
      </trkpt>
      <trkpt lat="43.2268601004" lon="-8.5848163906">
        <ele>255.17</ele>
        <time>2020-03-14T13:30:39Z</time>
      </trkpt>
      <trkpt lat="43.2273422275" lon="-8.5846910812">
        <ele>256.03</ele>
        <time>2020-03-14T13:30:54Z</time>
      </trkpt>
      <trkpt lat="43.2276279666" lon="-8.5848631617">
        <ele>256.66</ele>
        <time>2020-03-14T13:31:07Z</time>
      </trkpt>
      <trkpt lat="43.2277110312" lon="-8.5851909779">
        <ele>259.67</ele>
        <time>2020-03-14T13:31:19Z</time>
      </trkpt>
      <trkpt lat="43.2277786732" lon="-8.5854752082">
        <ele>262.93</ele>
        <time>2020-03-14T13:31:29Z</time>
      </trkpt>
      <trkpt lat="43.2280090917" lon="-8.5856544133">
        <ele>266.03</ele>
        <time>2020-03-14T13:31:40Z</time>
      </trkpt>
      <trkpt lat="43.2281565294" lon="-8.5857662279">
        <ele>267.13</ele>
        <time>2020-03-14T13:31:46Z</time>
      </trkpt>
      <trkpt lat="43.2281622291" lon="-8.5858028568">
        <ele>267.25</ele>
        <time>2020-03-14T13:31:47Z</time>
      </trkpt>
      <trkpt lat="43.2281681802" lon="-8.5858388990">
        <ele>267.38</ele>
        <time>2020-03-14T13:31:48Z</time>
      </trkpt>
      <trkpt lat="43.2281639054" lon="-8.5863354430">
        <ele>269.15</ele>
        <time>2020-03-14T13:32:02Z</time>
      </trkpt>
      <trkpt lat="43.2280883007" lon="-8.5866477527">
        <ele>269.19</ele>
        <time>2020-03-14T13:32:07Z</time>
      </trkpt>
      <trkpt lat="43.2281161286" lon="-8.5872631520">
        <ele>267.12</ele>
        <time>2020-03-14T13:32:16Z</time>
      </trkpt>
      <trkpt lat="43.2281193137" lon="-8.5873273574">
        <ele>266.64</ele>
        <time>2020-03-14T13:32:17Z</time>
      </trkpt>
      <trkpt lat="43.2281182241" lon="-8.5873961728">
        <ele>266.13</ele>
        <time>2020-03-14T13:32:18Z</time>
      </trkpt>
      <trkpt lat="43.2281086687" lon="-8.5876087379">
        <ele>264.31</ele>
        <time>2020-03-14T13:32:21Z</time>
      </trkpt>
      <trkpt lat="43.2281098422" lon="-8.5876817442">
        <ele>263.91</ele>
        <time>2020-03-14T13:32:22Z</time>
      </trkpt>
      <trkpt lat="43.2281196490" lon="-8.5877600312">
        <ele>263.70</ele>
        <time>2020-03-14T13:32:23Z</time>
      </trkpt>
      <trkpt lat="43.2281391788" lon="-8.5878373124">
        <ele>263.53</ele>
        <time>2020-03-14T13:32:24Z</time>
      </trkpt>
      <trkpt lat="43.2282112632" lon="-8.5880899429">
        <ele>263.06</ele>
        <time>2020-03-14T13:32:27Z</time>
      </trkpt>
      <trkpt lat="43.2282422762" lon="-8.5882871691">
        <ele>262.79</ele>
        <time>2020-03-14T13:32:29Z</time>
      </trkpt>
      <trkpt lat="43.2282307092" lon="-8.5888842959">
        <ele>260.59</ele>
        <time>2020-03-14T13:32:34Z</time>
      </trkpt>
      <trkpt lat="43.2282239199" lon="-8.5891885590">
        <ele>257.27</ele>
        <time>2020-03-14T13:32:37Z</time>
      </trkpt>
      <trkpt lat="43.2282229979" lon="-8.5892721266">
        <ele>256.22</ele>
        <time>2020-03-14T13:32:38Z</time>
      </trkpt>
      <trkpt lat="43.2283768896" lon="-8.5895894654">
        <ele>252.18</ele>
        <time>2020-03-14T13:32:43Z</time>
      </trkpt>
      <trkpt lat="43.2284220681" lon="-8.5896243341">
        <ele>251.53</ele>
        <time>2020-03-14T13:32:44Z</time>
      </trkpt>
      <trkpt lat="43.2285008579" lon="-8.5896897130">
        <ele>250.61</ele>
        <time>2020-03-14T13:32:46Z</time>
      </trkpt>
      <trkpt lat="43.2289080508" lon="-8.5900990013">
        <ele>248.44</ele>
        <time>2020-03-14T13:32:58Z</time>
      </trkpt>
      <trkpt lat="43.2289266586" lon="-8.5901927948">
        <ele>248.43</ele>
        <time>2020-03-14T13:33:00Z</time>
      </trkpt>
      <trkpt lat="43.2287924644" lon="-8.5910775047">
        <ele>247.97</ele>
        <time>2020-03-14T13:33:11Z</time>
      </trkpt>
      <trkpt lat="43.2286001835" lon="-8.5919789784">
        <ele>244.69</ele>
        <time>2020-03-14T13:33:20Z</time>
      </trkpt>
      <trkpt lat="43.2283757161" lon="-8.5926244687">
        <ele>240.75</ele>
        <time>2020-03-14T13:33:26Z</time>
      </trkpt>
      <trkpt lat="43.2283398416" lon="-8.5927360319">
        <ele>240.29</ele>
        <time>2020-03-14T13:33:27Z</time>
      </trkpt>
      <trkpt lat="43.2282268535" lon="-8.5934211686">
        <ele>238.31</ele>
        <time>2020-03-14T13:33:33Z</time>
      </trkpt>
      <trkpt lat="43.2282272726" lon="-8.5939552635">
        <ele>233.97</ele>
        <time>2020-03-14T13:33:38Z</time>
      </trkpt>
      <trkpt lat="43.2283223234" lon="-8.5941316187">
        <ele>233.02</ele>
        <time>2020-03-14T13:33:40Z</time>
      </trkpt>
      <trkpt lat="43.2286623772" lon="-8.5944665596">
        <ele>230.19</ele>
        <time>2020-03-14T13:33:45Z</time>
      </trkpt>
      <trkpt lat="43.2288348768" lon="-8.5947803780">
        <ele>228.93</ele>
        <time>2020-03-14T13:33:49Z</time>
      </trkpt>
      <trkpt lat="43.2288907841" lon="-8.5949278995">
        <ele>226.91</ele>
        <time>2020-03-14T13:33:51Z</time>
      </trkpt>
      <trkpt lat="43.2289422490" lon="-8.5950623453">
        <ele>226.47</ele>
        <time>2020-03-14T13:33:53Z</time>
      </trkpt>
      <trkpt lat="43.2291605975" lon="-8.5951581504">
        <ele>226.49</ele>
        <time>2020-03-14T13:34:01Z</time>
      </trkpt>
      <trkpt lat="43.2292132359" lon="-8.5950793605">
        <ele>227.16</ele>
        <time>2020-03-14T13:34:05Z</time>
      </trkpt>
      <trkpt lat="43.2292966358" lon="-8.5949342698">
        <ele>229.91</ele>
        <time>2020-03-14T13:34:12Z</time>
      </trkpt>
      <trkpt lat="43.2294071931" lon="-8.5947307572">
        <ele>233.04</ele>
        <time>2020-03-14T13:34:23Z</time>
      </trkpt>
      <trkpt lat="43.2294807862" lon="-8.5945492890">
        <ele>236.22</ele>
        <time>2020-03-14T13:34:32Z</time>
      </trkpt>
      <trkpt lat="43.2295594923" lon="-8.5943956487">
        <ele>239.28</ele>
        <time>2020-03-14T13:34:41Z</time>
      </trkpt>
      <trkpt lat="43.2297031581" lon="-8.5941348039">
        <ele>242.75</ele>
        <time>2020-03-14T13:34:55Z</time>
      </trkpt>
      <trkpt lat="43.2297526952" lon="-8.5940242466">
        <ele>244.24</ele>
        <time>2020-03-14T13:35:00Z</time>
      </trkpt>
      <trkpt lat="43.2298167329" lon="-8.5939110909">
        <ele>245.59</ele>
        <time>2020-03-14T13:35:05Z</time>
      </trkpt>
      <trkpt lat="43.2298673596" lon="-8.5938338935">
        <ele>246.94</ele>
        <time>2020-03-14T13:35:09Z</time>
      </trkpt>
      <trkpt lat="43.2300027274" lon="-8.5935976077">
        <ele>249.93</ele>
        <time>2020-03-14T13:35:20Z</time>
      </trkpt>
      <trkpt lat="43.2300425414" lon="-8.5935156327">
        <ele>250.59</ele>
        <time>2020-03-14T13:35:24Z</time>
      </trkpt>
      <trkpt lat="43.2301760651" lon="-8.5932562128">
        <ele>254.00</ele>
        <time>2020-03-14T13:35:38Z</time>
      </trkpt>
      <trkpt lat="43.2303136121" lon="-8.5930124670">
        <ele>256.66</ele>
        <time>2020-03-14T13:35:52Z</time>
      </trkpt>
      <trkpt lat="43.2304618042" lon="-8.5926901828">
        <ele>258.68</ele>
        <time>2020-03-14T13:36:07Z</time>
      </trkpt>
      <trkpt lat="43.2306026202" lon="-8.5924402345">
        <ele>260.28</ele>
        <time>2020-03-14T13:36:19Z</time>
      </trkpt>
      <trkpt lat="43.2307402510" lon="-8.5921562556">
        <ele>262.78</ele>
        <time>2020-03-14T13:36:33Z</time>
      </trkpt>
      <trkpt lat="43.2308143470" lon="-8.5920587741">
        <ele>263.50</ele>
        <time>2020-03-14T13:36:38Z</time>
      </trkpt>
      <trkpt lat="43.2308513112" lon="-8.5919806547">
        <ele>264.54</ele>
        <time>2020-03-14T13:36:42Z</time>
      </trkpt>
      <trkpt lat="43.2308881078" lon="-8.5918928124">
        <ele>265.52</ele>
        <time>2020-03-14T13:36:46Z</time>
      </trkpt>
      <trkpt lat="43.2309903670" lon="-8.5916778166">
        <ele>268.50</ele>
        <time>2020-03-14T13:36:57Z</time>
      </trkpt>
      <trkpt lat="43.2310028560" lon="-8.5916309617">
        <ele>269.11</ele>
        <time>2020-03-14T13:36:59Z</time>
      </trkpt>
      <trkpt lat="43.2310376409" lon="-8.5915287863">
        <ele>269.99</ele>
        <time>2020-03-14T13:37:03Z</time>
      </trkpt>
      <trkpt lat="43.2311779540" lon="-8.5912381019">
        <ele>273.47</ele>
        <time>2020-03-14T13:37:16Z</time>
      </trkpt>
      <trkpt lat="43.2313838974" lon="-8.5908931028">
        <ele>276.47</ele>
        <time>2020-03-14T13:37:30Z</time>
      </trkpt>
      <trkpt lat="43.2316310797" lon="-8.5904492810">
        <ele>276.73</ele>
        <time>2020-03-14T13:37:43Z</time>
      </trkpt>
      <trkpt lat="43.2316770963" lon="-8.5903721675">
        <ele>276.12</ele>
        <time>2020-03-14T13:37:46Z</time>
      </trkpt>
      <trkpt lat="43.2316821255" lon="-8.5903286655">
        <ele>275.39</ele>
        <time>2020-03-14T13:37:48Z</time>
      </trkpt>
      <trkpt lat="43.2316475920" lon="-8.5902810562">
        <ele>271.96</ele>
        <time>2020-03-14T13:38:02Z</time>
      </trkpt>
      <trkpt lat="43.2316569798" lon="-8.5902400687">
        <ele>271.89</ele>
        <time>2020-03-14T13:38:06Z</time>
      </trkpt>
      <trkpt lat="43.2317397930" lon="-8.5900404118">
        <ele>270.96</ele>
        <time>2020-03-14T13:38:18Z</time>
      </trkpt>
      <trkpt lat="43.2316005696" lon="-8.5902046133">
        <ele>270.84</ele>
        <time>2020-03-14T13:38:41Z</time>
      </trkpt>
      <trkpt lat="43.2315682992" lon="-8.5902146716">
        <ele>272.20</ele>
        <time>2020-03-14T13:39:08Z</time>
      </trkpt>
      <trkpt lat="43.2316070236" lon="-8.5902580898">
        <ele>272.01</ele>
        <time>2020-03-14T13:39:27Z</time>
      </trkpt>
      <trkpt lat="43.2316506095" lon="-8.5902660526">
        <ele>272.01</ele>
        <time>2020-03-14T13:39:31Z</time>
      </trkpt>
      <trkpt lat="43.2316785213" lon="-8.5902873427">
        <ele>271.94</ele>
        <time>2020-03-14T13:39:48Z</time>
      </trkpt>
      <trkpt lat="43.2316838857" lon="-8.5902798828">
        <ele>272.07</ele>
        <time>2020-03-14T13:40:10Z</time>
      </trkpt>
      <trkpt lat="43.2317012362" lon="-8.5903049447">
        <ele>271.96</ele>
        <time>2020-03-14T13:40:18Z</time>
      </trkpt>
      <trkpt lat="43.2318920083" lon="-8.5900087282">
        <ele>271.65</ele>
        <time>2020-03-14T13:40:29Z</time>
      </trkpt>
      <trkpt lat="43.2321425434" lon="-8.5895767249">
        <ele>269.25</ele>
        <time>2020-03-14T13:40:41Z</time>
      </trkpt>
      <trkpt lat="43.2322149631" lon="-8.5894245096">
        <ele>265.74</ele>
        <time>2020-03-14T13:40:48Z</time>
      </trkpt>
      <trkpt lat="43.2322226744" lon="-8.5894069076">
        <ele>262.47</ele>
        <time>2020-03-14T13:40:53Z</time>
      </trkpt>
      <trkpt lat="43.2322235126" lon="-8.5893996153">
        <ele>261.11</ele>
        <time>2020-03-14T13:40:56Z</time>
      </trkpt>
      <trkpt lat="43.2321926672" lon="-8.5892590508">
        <ele>260.52</ele>
        <time>2020-03-14T13:41:11Z</time>
      </trkpt>
      <trkpt lat="43.2321299706" lon="-8.5891008005">
        <ele>260.28</ele>
        <time>2020-03-14T13:41:18Z</time>
      </trkpt>
      <trkpt lat="43.2320344169" lon="-8.5889459867">
        <ele>260.26</ele>
        <time>2020-03-14T13:41:26Z</time>
      </trkpt>
      <trkpt lat="43.2319746539" lon="-8.5888299812">
        <ele>260.29</ele>
        <time>2020-03-14T13:41:30Z</time>
      </trkpt>
      <trkpt lat="43.2319477480" lon="-8.5887749121">
        <ele>260.47</ele>
        <time>2020-03-14T13:41:32Z</time>
      </trkpt>
      <trkpt lat="43.2318191696" lon="-8.5885735787">
        <ele>260.12</ele>
        <time>2020-03-14T13:41:49Z</time>
      </trkpt>
      <trkpt lat="43.2317062654" lon="-8.5883456748">
        <ele>257.03</ele>
        <time>2020-03-14T13:42:05Z</time>
      </trkpt>
      <trkpt lat="43.2317033317" lon="-8.5881957226">
        <ele>254.00</ele>
        <time>2020-03-14T13:42:17Z</time>
      </trkpt>
      <trkpt lat="43.2317055110" lon="-8.5881809704">
        <ele>253.66</ele>
        <time>2020-03-14T13:42:18Z</time>
      </trkpt>
      <trkpt lat="43.2317295671" lon="-8.5880250670">
        <ele>252.24</ele>
        <time>2020-03-14T13:42:22Z</time>
      </trkpt>
      <trkpt lat="43.2317414694" lon="-8.5877920501">
        <ele>250.65</ele>
        <time>2020-03-14T13:42:29Z</time>
      </trkpt>
      <trkpt lat="43.2317886595" lon="-8.5876357276">
        <ele>246.78</ele>
        <time>2020-03-14T13:42:35Z</time>
      </trkpt>
      <trkpt lat="43.2319979556" lon="-8.5876287706">
        <ele>243.35</ele>
        <time>2020-03-14T13:42:41Z</time>
      </trkpt>
      <trkpt lat="43.2320318185" lon="-8.5876350570">
        <ele>242.90</ele>
        <time>2020-03-14T13:42:42Z</time>
      </trkpt>
      <trkpt lat="43.2323186472" lon="-8.5876648128">
        <ele>238.95</ele>
        <time>2020-03-14T13:42:51Z</time>
      </trkpt>
      <trkpt lat="43.2324576192" lon="-8.5877298564">
        <ele>236.48</ele>
        <time>2020-03-14T13:42:56Z</time>
      </trkpt>
      <trkpt lat="43.2326426078" lon="-8.5877397470">
        <ele>232.92</ele>
        <time>2020-03-14T13:43:02Z</time>
      </trkpt>
      <trkpt lat="43.2328106649" lon="-8.5877834167">
        <ele>229.69</ele>
        <time>2020-03-14T13:43:07Z</time>
      </trkpt>
      <trkpt lat="43.2329662330" lon="-8.5878781322">
        <ele>226.06</ele>
        <time>2020-03-14T13:43:13Z</time>
      </trkpt>
      <trkpt lat="43.2329868525" lon="-8.5878954828">
        <ele>225.57</ele>
        <time>2020-03-14T13:43:14Z</time>
      </trkpt>
      <trkpt lat="43.2330932189" lon="-8.5878329538">
        <ele>221.62</ele>
        <time>2020-03-14T13:43:19Z</time>
      </trkpt>
      <trkpt lat="43.2331829891" lon="-8.5878161900">
        <ele>218.03</ele>
        <time>2020-03-14T13:43:24Z</time>
      </trkpt>
      <trkpt lat="43.2332858350" lon="-8.5879288428">
        <ele>215.74</ele>
        <time>2020-03-14T13:43:28Z</time>
      </trkpt>
      <trkpt lat="43.2334634475" lon="-8.5880182777">
        <ele>212.68</ele>
        <time>2020-03-14T13:43:34Z</time>
      </trkpt>
      <trkpt lat="43.2335947920" lon="-8.5880507156">
        <ele>208.94</ele>
        <time>2020-03-14T13:43:38Z</time>
      </trkpt>
      <trkpt lat="43.2336227037" lon="-8.5880551580">
        <ele>208.32</ele>
        <time>2020-03-14T13:43:39Z</time>
      </trkpt>
      <trkpt lat="43.2337784395" lon="-8.5881251469">
        <ele>205.78</ele>
        <time>2020-03-14T13:43:44Z</time>
      </trkpt>
      <trkpt lat="43.2339643501" lon="-8.5881315172">
        <ele>202.04</ele>
        <time>2020-03-14T13:43:52Z</time>
      </trkpt>
      <trkpt lat="43.2340861391" lon="-8.5881181899">
        <ele>199.97</ele>
        <time>2020-03-14T13:43:57Z</time>
      </trkpt>
      <trkpt lat="43.2342703734" lon="-8.5881551541">
        <ele>197.38</ele>
        <time>2020-03-14T13:44:03Z</time>
      </trkpt>
      <trkpt lat="43.2343057450" lon="-8.5881492030">
        <ele>196.33</ele>
        <time>2020-03-14T13:44:05Z</time>
      </trkpt>
      <trkpt lat="43.2343812659" lon="-8.5881691519">
        <ele>194.22</ele>
        <time>2020-03-14T13:44:09Z</time>
      </trkpt>
      <trkpt lat="43.2346057333" lon="-8.5881189443">
        <ele>192.66</ele>
        <time>2020-03-14T13:44:19Z</time>
      </trkpt>
      <trkpt lat="43.2346286997" lon="-8.5881160107">
        <ele>192.34</ele>
        <time>2020-03-14T13:44:20Z</time>
      </trkpt>
      <trkpt lat="43.2349328790" lon="-8.5882114805">
        <ele>189.19</ele>
        <time>2020-03-14T13:44:31Z</time>
      </trkpt>
      <trkpt lat="43.2351854257" lon="-8.5883274022">
        <ele>185.91</ele>
        <time>2020-03-14T13:44:39Z</time>
      </trkpt>
      <trkpt lat="43.2352197077" lon="-8.5883487761">
        <ele>185.91</ele>
        <time>2020-03-14T13:44:40Z</time>
      </trkpt>
      <trkpt lat="43.2354160119" lon="-8.5884671286">
        <ele>182.32</ele>
        <time>2020-03-14T13:44:46Z</time>
      </trkpt>
      <trkpt lat="43.2356262300" lon="-8.5884921905">
        <ele>179.31</ele>
        <time>2020-03-14T13:44:53Z</time>
      </trkpt>
      <trkpt lat="43.2357916888" lon="-8.5884330980">
        <ele>176.14</ele>
        <time>2020-03-14T13:44:58Z</time>
      </trkpt>
      <trkpt lat="43.2358537149" lon="-8.5883313417">
        <ele>174.58</ele>
        <time>2020-03-14T13:45:01Z</time>
      </trkpt>
      <trkpt lat="43.2358458359" lon="-8.5880730115">
        <ele>171.82</ele>
        <time>2020-03-14T13:45:06Z</time>
      </trkpt>
      <trkpt lat="43.2358341850" lon="-8.5879468638">
        <ele>169.66</ele>
        <time>2020-03-14T13:45:08Z</time>
      </trkpt>
      <trkpt lat="43.2359359413" lon="-8.5877702571">
        <ele>166.53</ele>
        <time>2020-03-14T13:45:13Z</time>
      </trkpt>
      <trkpt lat="43.2361198403" lon="-8.5877358075">
        <ele>163.82</ele>
        <time>2020-03-14T13:45:18Z</time>
      </trkpt>
      <trkpt lat="43.2364746463" lon="-8.5877016094">
        <ele>163.80</ele>
        <time>2020-03-14T13:45:29Z</time>
      </trkpt>
      <trkpt lat="43.2371418457" lon="-8.5878346302">
        <ele>163.93</ele>
        <time>2020-03-14T13:45:41Z</time>
      </trkpt>
      <trkpt lat="43.2372523192" lon="-8.5878388211">
        <ele>162.96</ele>
        <time>2020-03-14T13:45:43Z</time>
      </trkpt>
      <trkpt lat="43.2373000961" lon="-8.5878276732">
        <ele>162.07</ele>
        <time>2020-03-14T13:45:44Z</time>
      </trkpt>
      <trkpt lat="43.2373407483" lon="-8.5878084786">
        <ele>161.60</ele>
        <time>2020-03-14T13:45:45Z</time>
      </trkpt>
      <trkpt lat="43.2373785507" lon="-8.5877863504">
        <ele>161.36</ele>
        <time>2020-03-14T13:45:46Z</time>
      </trkpt>
      <trkpt lat="43.2374128327" lon="-8.5877630487">
        <ele>161.24</ele>
        <time>2020-03-14T13:45:47Z</time>
      </trkpt>
      <trkpt lat="43.2377450075" lon="-8.5872686002">
        <ele>163.52</ele>
        <time>2020-03-14T13:46:02Z</time>
      </trkpt>
      <trkpt lat="43.2381584030" lon="-8.5868985392">
        <ele>166.69</ele>
        <time>2020-03-14T13:46:18Z</time>
      </trkpt>
      <trkpt lat="43.2382689603" lon="-8.5865634307">
        <ele>167.56</ele>
        <time>2020-03-14T13:46:27Z</time>
      </trkpt>
      <trkpt lat="43.2382886577" lon="-8.5865456611">
        <ele>167.67</ele>
        <time>2020-03-14T13:46:28Z</time>
      </trkpt>
      <trkpt lat="43.2383143902" lon="-8.5865394585">
        <ele>167.72</ele>
        <time>2020-03-14T13:46:29Z</time>
      </trkpt>
      <trkpt lat="43.2383460738" lon="-8.5865438171">
        <ele>167.95</ele>
        <time>2020-03-14T13:46:30Z</time>
      </trkpt>
      <trkpt lat="43.2383837085" lon="-8.5865570605">
        <ele>168.07</ele>
        <time>2020-03-14T13:46:31Z</time>
      </trkpt>
      <trkpt lat="43.2384247798" lon="-8.5865747463">
        <ele>168.13</ele>
        <time>2020-03-14T13:46:32Z</time>
      </trkpt>
      <trkpt lat="43.2384723891" lon="-8.5865912586">
        <ele>168.16</ele>
        <time>2020-03-14T13:46:33Z</time>
      </trkpt>
      <trkpt lat="43.2385261171" lon="-8.5866013169">
        <ele>168.18</ele>
        <time>2020-03-14T13:46:34Z</time>
      </trkpt>
      <trkpt lat="43.2385857124" lon="-8.5866034124">
        <ele>168.19</ele>
        <time>2020-03-14T13:46:35Z</time>
      </trkpt>
      <trkpt lat="43.2386479899" lon="-8.5865957849">
        <ele>168.19</ele>
        <time>2020-03-14T13:46:36Z</time>
      </trkpt>
      <trkpt lat="43.2387116086" lon="-8.5865778476">
        <ele>168.19</ele>
        <time>2020-03-14T13:46:37Z</time>
      </trkpt>
      <trkpt lat="43.2387747243" lon="-8.5865485948">
        <ele>168.19</ele>
        <time>2020-03-14T13:46:38Z</time>
      </trkpt>
      <trkpt lat="43.2388370018" lon="-8.5865082778">
        <ele>168.19</ele>
        <time>2020-03-14T13:46:39Z</time>
      </trkpt>
      <trkpt lat="43.2388993632" lon="-8.5864613391">
        <ele>168.19</ele>
        <time>2020-03-14T13:46:40Z</time>
      </trkpt>
      <trkpt lat="43.2392369024" lon="-8.5862040985">
        <ele>164.96</ele>
        <time>2020-03-14T13:46:45Z</time>
      </trkpt>
      <trkpt lat="43.2395144273" lon="-8.5859952215">
        <ele>162.96</ele>
        <time>2020-03-14T13:46:49Z</time>
      </trkpt>
      <trkpt lat="43.2395870145" lon="-8.5859593470">
        <ele>162.23</ele>
        <time>2020-03-14T13:46:50Z</time>
      </trkpt>
      <trkpt lat="43.2398936246" lon="-8.5858742706">
        <ele>158.88</ele>
        <time>2020-03-14T13:46:54Z</time>
      </trkpt>
      <trkpt lat="43.2399755996" lon="-8.5858737677">
        <ele>157.94</ele>
        <time>2020-03-14T13:46:55Z</time>
      </trkpt>
      <trkpt lat="43.2400605083" lon="-8.5858840775">
        <ele>157.24</ele>
        <time>2020-03-14T13:46:56Z</time>
      </trkpt>
      <trkpt lat="43.2401470933" lon="-8.5859020147">
        <ele>156.86</ele>
        <time>2020-03-14T13:46:57Z</time>
      </trkpt>
      <trkpt lat="43.2408650871" lon="-8.5861245543">
        <ele>153.45</ele>
        <time>2020-03-14T13:47:05Z</time>
      </trkpt>
      <trkpt lat="43.2411891315" lon="-8.5863077827">
        <ele>149.84</ele>
        <time>2020-03-14T13:47:09Z</time>
      </trkpt>
      <trkpt lat="43.2412649039" lon="-8.5863764305">
        <ele>149.84</ele>
        <time>2020-03-14T13:47:10Z</time>
      </trkpt>
      <trkpt lat="43.2413317077" lon="-8.5864572320">
        <ele>149.02</ele>
        <time>2020-03-14T13:47:11Z</time>
      </trkpt>
      <trkpt lat="43.2413878664" lon="-8.5865463316">
        <ele>148.68</ele>
        <time>2020-03-14T13:47:12Z</time>
      </trkpt>
      <trkpt lat="43.2414353080" lon="-8.5866437294">
        <ele>148.22</ele>
        <time>2020-03-14T13:47:13Z</time>
      </trkpt>
      <trkpt lat="43.2414734457" lon="-8.5867459048">
        <ele>147.89</ele>
        <time>2020-03-14T13:47:14Z</time>
      </trkpt>
      <trkpt lat="43.2415035367" lon="-8.5868418775">
        <ele>147.58</ele>
        <time>2020-03-14T13:47:15Z</time>
      </trkpt>
      <trkpt lat="43.2416205481" lon="-8.5872734617">
        <ele>144.48</ele>
        <time>2020-03-14T13:47:23Z</time>
      </trkpt>
      <trkpt lat="43.2416064665" lon="-8.5872869566">
        <ele>142.50</ele>
        <time>2020-03-14T13:47:30Z</time>
      </trkpt>
      <trkpt lat="43.2415987551" lon="-8.5872925725">
        <ele>142.75</ele>
        <time>2020-03-14T13:47:35Z</time>
      </trkpt>
      <trkpt lat="43.2416099869" lon="-8.5875467118">
        <ele>143.17</ele>
        <time>2020-03-14T13:48:45Z</time>
      </trkpt>
      <trkpt lat="43.2417762000" lon="-8.5881968960">
        <ele>142.66</ele>
        <time>2020-03-14T13:48:59Z</time>
      </trkpt>
      <trkpt lat="43.2419092208" lon="-8.5886803642">
        <ele>143.22</ele>
        <time>2020-03-14T13:49:11Z</time>
      </trkpt>
      <trkpt lat="43.2422131486" lon="-8.5893153772">
        <ele>144.54</ele>
        <time>2020-03-14T13:49:26Z</time>
      </trkpt>
      <trkpt lat="43.2428168971" lon="-8.5898353066">
        <ele>145.49</ele>
        <time>2020-03-14T13:49:45Z</time>
      </trkpt>
      <trkpt lat="43.2433531713" lon="-8.5896631423">
        <ele>146.83</ele>
        <time>2020-03-14T13:50:00Z</time>
      </trkpt>
      <trkpt lat="43.2438592706" lon="-8.5893570352">
        <ele>149.62</ele>
        <time>2020-03-14T13:50:19Z</time>
      </trkpt>
      <trkpt lat="43.2443140727" lon="-8.5893337335">
        <ele>152.70</ele>
        <time>2020-03-14T13:50:33Z</time>
      </trkpt>
      <trkpt lat="43.2448635902" lon="-8.5892803408">
        <ele>153.09</ele>
        <time>2020-03-14T13:50:48Z</time>
      </trkpt>
      <trkpt lat="43.2448848803" lon="-8.5892308038">
        <ele>153.07</ele>
        <time>2020-03-14T13:50:49Z</time>
      </trkpt>
      <trkpt lat="43.2449023984" lon="-8.5891753156">
        <ele>153.07</ele>
        <time>2020-03-14T13:50:50Z</time>
      </trkpt>
      <trkpt lat="43.2450158894" lon="-8.5887276381">
        <ele>152.73</ele>
        <time>2020-03-14T13:50:57Z</time>
      </trkpt>
      <trkpt lat="43.2450231817" lon="-8.5886568110">
        <ele>152.73</ele>
        <time>2020-03-14T13:50:58Z</time>
      </trkpt>
      <trkpt lat="43.2450724673" lon="-8.5875410121">
        <ele>150.76</ele>
        <time>2020-03-14T13:51:16Z</time>
      </trkpt>
      <trkpt lat="43.2451235130" lon="-8.5862699803">
        <ele>151.55</ele>
        <time>2020-03-14T13:51:36Z</time>
      </trkpt>
      <trkpt lat="43.2451013848" lon="-8.5851059854">
        <ele>152.79</ele>
        <time>2020-03-14T13:51:57Z</time>
      </trkpt>
      <trkpt lat="43.2452349924" lon="-8.5842371173">
        <ele>154.03</ele>
        <time>2020-03-14T13:52:15Z</time>
      </trkpt>
      <trkpt lat="43.2455487270" lon="-8.5843232833">
        <ele>155.13</ele>
        <time>2020-03-14T13:52:26Z</time>
      </trkpt>
      <trkpt lat="43.2458708435" lon="-8.5844541248">
        <ele>158.13</ele>
        <time>2020-03-14T13:52:39Z</time>
      </trkpt>
      <trkpt lat="43.2461041119" lon="-8.5846013110">
        <ele>161.39</ele>
        <time>2020-03-14T13:52:48Z</time>
      </trkpt>
      <trkpt lat="43.2466929406" lon="-8.5848597251">
        <ele>161.91</ele>
        <time>2020-03-14T13:53:05Z</time>
      </trkpt>
      <trkpt lat="43.2474396843" lon="-8.5849648342">
        <ele>162.50</ele>
        <time>2020-03-14T13:53:25Z</time>
      </trkpt>
      <trkpt lat="43.2479181234" lon="-8.5850004572">
        <ele>162.86</ele>
        <time>2020-03-14T13:53:39Z</time>
      </trkpt>
      <trkpt lat="43.2479405869" lon="-8.5849734675">
        <ele>162.89</ele>
        <time>2020-03-14T13:53:40Z</time>
      </trkpt>
      <trkpt lat="43.2479581051" lon="-8.5849375091">
        <ele>162.92</ele>
        <time>2020-03-14T13:53:41Z</time>
      </trkpt>
      <trkpt lat="43.2479697559" lon="-8.5848970246">
        <ele>162.95</ele>
        <time>2020-03-14T13:53:42Z</time>
      </trkpt>
      <trkpt lat="43.2479887828" lon="-8.5848555341">
        <ele>163.03</ele>
        <time>2020-03-14T13:53:43Z</time>
      </trkpt>
      <trkpt lat="43.2482107356" lon="-8.5841027554">
        <ele>164.25</ele>
        <time>2020-03-14T13:53:59Z</time>
      </trkpt>
      <trkpt lat="43.2482812274" lon="-8.5836881027">
        <ele>166.11</ele>
        <time>2020-03-14T13:54:08Z</time>
      </trkpt>
      <trkpt lat="43.2482440118" lon="-8.5829874594">
        <ele>167.69</ele>
        <time>2020-03-14T13:54:23Z</time>
      </trkpt>
      <trkpt lat="43.2482733484" lon="-8.5822595749">
        <ele>170.66</ele>
        <time>2020-03-14T13:54:40Z</time>
      </trkpt>
      <trkpt lat="43.2482824009" lon="-8.5816724226">
        <ele>173.04</ele>
        <time>2020-03-14T13:54:55Z</time>
      </trkpt>
      <trkpt lat="43.2483057864" lon="-8.5814149305">
        <ele>173.80</ele>
        <time>2020-03-14T13:55:04Z</time>
      </trkpt>
      <trkpt lat="43.2483219635" lon="-8.5813930538">
        <ele>173.97</ele>
        <time>2020-03-14T13:55:05Z</time>
      </trkpt>
      <trkpt lat="43.2483573351" lon="-8.5813932214">
        <ele>174.13</ele>
        <time>2020-03-14T13:55:06Z</time>
      </trkpt>
      <trkpt lat="43.2483915333" lon="-8.5814120807">
        <ele>174.34</ele>
        <time>2020-03-14T13:55:07Z</time>
      </trkpt>
      <trkpt lat="43.2484180201" lon="-8.5814430937">
        <ele>174.61</ele>
        <time>2020-03-14T13:55:08Z</time>
      </trkpt>
      <trkpt lat="43.2484424952" lon="-8.5814824048">
        <ele>174.78</ele>
        <time>2020-03-14T13:55:09Z</time>
      </trkpt>
      <trkpt lat="43.2485344447" lon="-8.5818000790">
        <ele>174.91</ele>
        <time>2020-03-14T13:55:19Z</time>
      </trkpt>
      <trkpt lat="43.2485366240" lon="-8.5818114784">
        <ele>174.80</ele>
        <time>2020-03-14T13:55:54Z</time>
      </trkpt>
      <trkpt lat="43.2485338580" lon="-8.5817043576">
        <ele>174.81</ele>
        <time>2020-03-14T13:55:59Z</time>
      </trkpt>
      <trkpt lat="43.2483904436" lon="-8.5814268328">
        <ele>174.75</ele>
        <time>2020-03-14T13:56:07Z</time>
      </trkpt>
      <trkpt lat="43.2484038547" lon="-8.5813936405">
        <ele>174.75</ele>
        <time>2020-03-14T13:56:08Z</time>
      </trkpt>
      <trkpt lat="43.2484349515" lon="-8.5813744459">
        <ele>174.75</ele>
        <time>2020-03-14T13:56:09Z</time>
      </trkpt>
      <trkpt lat="43.2484696526" lon="-8.5813726019">
        <ele>174.75</ele>
        <time>2020-03-14T13:56:10Z</time>
      </trkpt>
      <trkpt lat="43.2485082932" lon="-8.5813914612">
        <ele>174.71</ele>
        <time>2020-03-14T13:56:11Z</time>
      </trkpt>
      <trkpt lat="43.2485469338" lon="-8.5814193729">
        <ele>174.69</ele>
        <time>2020-03-14T13:56:12Z</time>
      </trkpt>
      <trkpt lat="43.2485868316" lon="-8.5814519785">
        <ele>174.53</ele>
        <time>2020-03-14T13:56:13Z</time>
      </trkpt>
      <trkpt lat="43.2492776681" lon="-8.5820353590">
        <ele>172.65</ele>
        <time>2020-03-14T13:56:26Z</time>
      </trkpt>
      <trkpt lat="43.2494086772" lon="-8.5821423959">
        <ele>171.39</ele>
        <time>2020-03-14T13:56:28Z</time>
      </trkpt>
      <trkpt lat="43.2497910596" lon="-8.5824406240">
        <ele>168.02</ele>
        <time>2020-03-14T13:56:34Z</time>
      </trkpt>
      <trkpt lat="43.2500866055" lon="-8.5826727189">
        <ele>165.97</ele>
        <time>2020-03-14T13:56:39Z</time>
      </trkpt>
      <trkpt lat="43.2501381543" lon="-8.5827361699">
        <ele>165.85</ele>
        <time>2020-03-14T13:56:40Z</time>
      </trkpt>
      <trkpt lat="43.2502131723" lon="-8.5828037281">
        <ele>165.61</ele>
        <time>2020-03-14T13:56:41Z</time>
      </trkpt>
      <trkpt lat="43.2502784673" lon="-8.5828541033">
        <ele>165.09</ele>
        <time>2020-03-14T13:56:42Z</time>
      </trkpt>
      <trkpt lat="43.2503295969" lon="-8.5828977730">
        <ele>164.79</ele>
        <time>2020-03-14T13:56:43Z</time>
      </trkpt>
      <trkpt lat="43.2505438384" lon="-8.5831587855">
        <ele>163.10</ele>
        <time>2020-03-14T13:56:50Z</time>
      </trkpt>
      <trkpt lat="43.2505984046" lon="-8.5834945645">
        <ele>163.02</ele>
        <time>2020-03-14T13:56:56Z</time>
      </trkpt>
      <trkpt lat="43.2506224606" lon="-8.5835510585">
        <ele>163.01</ele>
        <time>2020-03-14T13:56:57Z</time>
      </trkpt>
      <trkpt lat="43.2506502885" lon="-8.5836062115">
        <ele>163.01</ele>
        <time>2020-03-14T13:56:58Z</time>
      </trkpt>
      <trkpt lat="43.2506809663" lon="-8.5836606938">
        <ele>163.01</ele>
        <time>2020-03-14T13:56:59Z</time>
      </trkpt>
      <trkpt lat="43.2507130690" lon="-8.5837132484">
        <ele>162.97</ele>
        <time>2020-03-14T13:57:00Z</time>
      </trkpt>
      <trkpt lat="43.2512187492" lon="-8.5845570546">
        <ele>161.78</ele>
        <time>2020-03-14T13:57:16Z</time>
      </trkpt>
      <trkpt lat="43.2512631733" lon="-8.5846719705">
        <ele>161.64</ele>
        <time>2020-03-14T13:57:18Z</time>
      </trkpt>
      <trkpt lat="43.2514820248" lon="-8.5857334547">
        <ele>160.95</ele>
        <time>2020-03-14T13:57:35Z</time>
      </trkpt>
      <trkpt lat="43.2515729684" lon="-8.5861921962">
        <ele>160.94</ele>
        <time>2020-03-14T13:57:43Z</time>
      </trkpt>
      <trkpt lat="43.2516236790" lon="-8.5873459652">
        <ele>161.05</ele>
        <time>2020-03-14T13:58:02Z</time>
      </trkpt>
      <trkpt lat="43.2516796701" lon="-8.5886769276">
        <ele>160.76</ele>
        <time>2020-03-14T13:58:23Z</time>
      </trkpt>
      <trkpt lat="43.2517258544" lon="-8.5889774188">
        <ele>160.74</ele>
        <time>2020-03-14T13:58:28Z</time>
      </trkpt>
      <trkpt lat="43.2517454680" lon="-8.5890335776">
        <ele>160.74</ele>
        <time>2020-03-14T13:58:29Z</time>
      </trkpt>
      <trkpt lat="43.2518496551" lon="-8.5892953444">
        <ele>161.03</ele>
        <time>2020-03-14T13:58:34Z</time>
      </trkpt>
      <trkpt lat="43.2518625632" lon="-8.5893494915">
        <ele>161.23</ele>
        <time>2020-03-14T13:58:35Z</time>
      </trkpt>
      <trkpt lat="43.2518726215" lon="-8.5894053988">
        <ele>161.27</ele>
        <time>2020-03-14T13:58:36Z</time>
      </trkpt>
      <trkpt lat="43.2519954164" lon="-8.5903864168">
        <ele>161.49</ele>
        <time>2020-03-14T13:58:52Z</time>
      </trkpt>
      <trkpt lat="43.2520007808" lon="-8.5904478561">
        <ele>161.47</ele>
        <time>2020-03-14T13:58:53Z</time>
      </trkpt>
      <trkpt lat="43.2520102523" lon="-8.5905080382">
        <ele>161.43</ele>
        <time>2020-03-14T13:58:54Z</time>
      </trkpt>
      <trkpt lat="43.2521380764" lon="-8.5911777522">
        <ele>161.20</ele>
        <time>2020-03-14T13:59:06Z</time>
      </trkpt>
      <trkpt lat="43.2521583606" lon="-8.5912273731">
        <ele>161.17</ele>
        <time>2020-03-14T13:59:07Z</time>
      </trkpt>
      <trkpt lat="43.2521838415" lon="-8.5912730545">
        <ele>161.16</ele>
        <time>2020-03-14T13:59:08Z</time>
      </trkpt>
      <trkpt lat="43.2522134297" lon="-8.5913108569">
        <ele>161.15</ele>
        <time>2020-03-14T13:59:09Z</time>
      </trkpt>
      <trkpt lat="43.2522442751" lon="-8.5913360864">
        <ele>161.15</ele>
        <time>2020-03-14T13:59:10Z</time>
      </trkpt>
      <trkpt lat="43.2522742823" lon="-8.5913393553">
        <ele>161.15</ele>
        <time>2020-03-14T13:59:11Z</time>
      </trkpt>
      <trkpt lat="43.2523234002" lon="-8.5913125332">
        <ele>161.17</ele>
        <time>2020-03-14T13:59:13Z</time>
      </trkpt>
      <trkpt lat="43.2523186225" lon="-8.5913106054">
        <ele>161.21</ele>
        <time>2020-03-14T13:59:20Z</time>
      </trkpt>
      <trkpt lat="43.2523084804" lon="-8.5913760681">
        <ele>161.54</ele>
        <time>2020-03-14T13:59:23Z</time>
      </trkpt>
      <trkpt lat="43.2523321174" lon="-8.5914015491">
        <ele>161.58</ele>
        <time>2020-03-14T13:59:24Z</time>
      </trkpt>
      <trkpt lat="43.2524651382" lon="-8.5915236734">
        <ele>161.67</ele>
        <time>2020-03-14T13:59:29Z</time>
      </trkpt>
      <trkpt lat="43.2528181840" lon="-8.5919017810">
        <ele>160.89</ele>
        <time>2020-03-14T13:59:43Z</time>
      </trkpt>
      <trkpt lat="43.2529752608" lon="-8.5923394840">
        <ele>160.72</ele>
        <time>2020-03-14T13:59:54Z</time>
      </trkpt>
      <trkpt lat="43.2531425636" lon="-8.5927476827">
        <ele>161.07</ele>
        <time>2020-03-14T14:00:05Z</time>
      </trkpt>
      <trkpt lat="43.2533727307" lon="-8.5930283926">
        <ele>162.12</ele>
        <time>2020-03-14T14:00:16Z</time>
      </trkpt>
      <trkpt lat="43.2536481600" lon="-8.5933896527">
        <ele>162.37</ele>
        <time>2020-03-14T14:00:25Z</time>
      </trkpt>
      <trkpt lat="43.2540904731" lon="-8.5939689260">
        <ele>160.92</ele>
        <time>2020-03-14T14:00:39Z</time>
      </trkpt>
      <trkpt lat="43.2543429360" lon="-8.5945896059">
        <ele>160.45</ele>
        <time>2020-03-14T14:00:53Z</time>
      </trkpt>
      <trkpt lat="43.2544388250" lon="-8.5949387122">
        <ele>160.71</ele>
        <time>2020-03-14T14:01:00Z</time>
      </trkpt>
      <trkpt lat="43.2545106579" lon="-8.5949534643">
        <ele>160.75</ele>
        <time>2020-03-14T14:01:02Z</time>
      </trkpt>
      <trkpt lat="43.2545484602" lon="-8.5949454177">
        <ele>160.79</ele>
        <time>2020-03-14T14:01:03Z</time>
      </trkpt>
      <trkpt lat="43.2545881066" lon="-8.5949406400">
        <ele>160.83</ele>
        <time>2020-03-14T14:01:04Z</time>
      </trkpt>
      <trkpt lat="43.2546266634" lon="-8.5949477646">
        <ele>160.87</ele>
        <time>2020-03-14T14:01:05Z</time>
      </trkpt>
      <trkpt lat="43.2546601072" lon="-8.5949688870">
        <ele>160.88</ele>
        <time>2020-03-14T14:01:06Z</time>
      </trkpt>
      <trkpt lat="43.2546892762" lon="-8.5950000677">
        <ele>160.92</ele>
        <time>2020-03-14T14:01:07Z</time>
      </trkpt>
      <trkpt lat="43.2547128294" lon="-8.5950330924">
        <ele>160.98</ele>
        <time>2020-03-14T14:01:08Z</time>
      </trkpt>
      <trkpt lat="43.2547302637" lon="-8.5950669553">
        <ele>161.04</ele>
        <time>2020-03-14T14:01:09Z</time>
      </trkpt>
      <trkpt lat="43.2547446806" lon="-8.5951014888">
        <ele>161.13</ele>
        <time>2020-03-14T14:01:10Z</time>
      </trkpt>
      <trkpt lat="43.2549133245" lon="-8.5954222642">
        <ele>162.10</ele>
        <time>2020-03-14T14:01:18Z</time>
      </trkpt>
      <trkpt lat="43.2549477741" lon="-8.5954612400">
        <ele>162.15</ele>
        <time>2020-03-14T14:01:19Z</time>
      </trkpt>
      <trkpt lat="43.2549864147" lon="-8.5955016408">
        <ele>162.18</ele>
        <time>2020-03-14T14:01:20Z</time>
      </trkpt>
      <trkpt lat="43.2550303359" lon="-8.5955403652">
        <ele>162.19</ele>
        <time>2020-03-14T14:01:21Z</time>
      </trkpt>
      <trkpt lat="43.2550788671" lon="-8.5955739766">
        <ele>162.20</ele>
        <time>2020-03-14T14:01:22Z</time>
      </trkpt>
      <trkpt lat="43.2551321760" lon="-8.5956022236">
        <ele>162.20</ele>
        <time>2020-03-14T14:01:23Z</time>
      </trkpt>
      <trkpt lat="43.2551870774" lon="-8.5956266988">
        <ele>162.20</ele>
        <time>2020-03-14T14:01:24Z</time>
      </trkpt>
      <trkpt lat="43.2552391291" lon="-8.5956478212">
        <ele>162.20</ele>
        <time>2020-03-14T14:01:25Z</time>
      </trkpt>
      <trkpt lat="43.2553408854" lon="-8.5957071651">
        <ele>162.00</ele>
        <time>2020-03-14T14:01:27Z</time>
      </trkpt>
      <trkpt lat="43.2553863153" lon="-8.5957553610">
        <ele>161.76</ele>
        <time>2020-03-14T14:01:28Z</time>
      </trkpt>
      <trkpt lat="43.2554274704" lon="-8.5958204884">
        <ele>161.54</ele>
        <time>2020-03-14T14:01:29Z</time>
      </trkpt>
      <trkpt lat="43.2554649375" lon="-8.5959012061">
        <ele>161.26</ele>
        <time>2020-03-14T14:01:30Z</time>
      </trkpt>
      <trkpt lat="43.2554987166" lon="-8.5959894676">
        <ele>160.95</ele>
        <time>2020-03-14T14:01:31Z</time>
      </trkpt>
      <trkpt lat="43.2555323280" lon="-8.5960830934">
        <ele>160.56</ele>
        <time>2020-03-14T14:01:32Z</time>
      </trkpt>
      <trkpt lat="43.2555900794" lon="-8.5962855164">
        <ele>159.40</ele>
        <time>2020-03-14T14:01:34Z</time>
      </trkpt>
      <trkpt lat="43.2556816936" lon="-8.5967849102">
        <ele>155.89</ele>
        <time>2020-03-14T14:01:39Z</time>
      </trkpt>
      <trkpt lat="43.2556966972" lon="-8.5969723295">
        <ele>154.51</ele>
        <time>2020-03-14T14:01:41Z</time>
      </trkpt>
      <trkpt lat="43.2556864712" lon="-8.5970665421">
        <ele>153.85</ele>
        <time>2020-03-14T14:01:42Z</time>
      </trkpt>
      <trkpt lat="43.2556617446" lon="-8.5971552227">
        <ele>153.19</ele>
        <time>2020-03-14T14:01:43Z</time>
      </trkpt>
      <trkpt lat="43.2556303125" lon="-8.5972347669">
        <ele>152.55</ele>
        <time>2020-03-14T14:01:44Z</time>
      </trkpt>
      <trkpt lat="43.2555986289" lon="-8.5973081924">
        <ele>152.09</ele>
        <time>2020-03-14T14:01:45Z</time>
      </trkpt>
      <trkpt lat="43.2555456553" lon="-8.5974490084">
        <ele>151.10</ele>
        <time>2020-03-14T14:01:47Z</time>
      </trkpt>
      <trkpt lat="43.2555308193" lon="-8.5975220148">
        <ele>150.32</ele>
        <time>2020-03-14T14:01:48Z</time>
      </trkpt>
      <trkpt lat="43.2555205934" lon="-8.5975999665">
        <ele>149.51</ele>
        <time>2020-03-14T14:01:49Z</time>
      </trkpt>
      <trkpt lat="43.2555191685" lon="-8.5976767447">
        <ele>149.09</ele>
        <time>2020-03-14T14:01:50Z</time>
      </trkpt>
      <trkpt lat="43.2555209287" lon="-8.5977500863">
        <ele>148.84</ele>
        <time>2020-03-14T14:01:51Z</time>
      </trkpt>
      <trkpt lat="43.2555276342" lon="-8.5978173092">
        <ele>148.69</ele>
        <time>2020-03-14T14:01:52Z</time>
      </trkpt>
      <trkpt lat="43.2555449847" lon="-8.5978729650">
        <ele>148.57</ele>
        <time>2020-03-14T14:01:53Z</time>
      </trkpt>
      <trkpt lat="43.2555796858" lon="-8.5979142878">
        <ele>148.45</ele>
        <time>2020-03-14T14:01:54Z</time>
      </trkpt>
      <trkpt lat="43.2556230202" lon="-8.5979423672">
        <ele>148.35</ele>
        <time>2020-03-14T14:01:55Z</time>
      </trkpt>
      <trkpt lat="43.2556765806" lon="-8.5979577899">
        <ele>148.19</ele>
        <time>2020-03-14T14:01:56Z</time>
      </trkpt>
      <trkpt lat="43.2557329070" lon="-8.5979712848">
        <ele>147.83</ele>
        <time>2020-03-14T14:01:57Z</time>
      </trkpt>
      <trkpt lat="43.2561592106" lon="-8.5981112625">
        <ele>145.81</ele>
        <time>2020-03-14T14:02:04Z</time>
      </trkpt>
      <trkpt lat="43.2562259305" lon="-8.5981117655">
        <ele>145.37</ele>
        <time>2020-03-14T14:02:05Z</time>
      </trkpt>
      <trkpt lat="43.2564293593" lon="-8.5981080774">
        <ele>143.67</ele>
        <time>2020-03-14T14:02:08Z</time>
      </trkpt>
      <trkpt lat="43.2564875297" lon="-8.5981188901">
        <ele>143.11</ele>
        <time>2020-03-14T14:02:09Z</time>
      </trkpt>
      <trkpt lat="43.2565395813" lon="-8.5981415212">
        <ele>142.52</ele>
        <time>2020-03-14T14:02:10Z</time>
      </trkpt>
      <trkpt lat="43.2565846760" lon="-8.5981732048">
        <ele>142.04</ele>
        <time>2020-03-14T14:02:11Z</time>
      </trkpt>
      <trkpt lat="43.2566211373" lon="-8.5982137732">
        <ele>141.68</ele>
        <time>2020-03-14T14:02:12Z</time>
      </trkpt>
      <trkpt lat="43.2566508930" lon="-8.5982606281">
        <ele>141.46</ele>
        <time>2020-03-14T14:02:13Z</time>
      </trkpt>
      <trkpt lat="43.2566727698" lon="-8.5983074829">
        <ele>141.29</ele>
        <time>2020-03-14T14:02:14Z</time>
      </trkpt>
      <trkpt lat="43.2566886116" lon="-8.5983541701">
        <ele>141.20</ele>
        <time>2020-03-14T14:02:15Z</time>
      </trkpt>
      <trkpt lat="43.2566931378" lon="-8.5984034557">
        <ele>141.15</ele>
        <time>2020-03-14T14:02:16Z</time>
      </trkpt>
      <trkpt lat="43.2566974964" lon="-8.5984357260">
        <ele>141.13</ele>
        <time>2020-03-14T14:02:17Z</time>
      </trkpt>
      <trkpt lat="43.2567229774" lon="-8.5984431021">
        <ele>141.12</ele>
        <time>2020-03-14T14:02:18Z</time>
      </trkpt>
      <trkpt lat="43.2567455247" lon="-8.5984296072">
        <ele>141.11</ele>
        <time>2020-03-14T14:02:19Z</time>
      </trkpt>
      <trkpt lat="43.2568140049" lon="-8.5984139331">
        <ele>141.11</ele>
        <time>2020-03-14T14:02:22Z</time>
      </trkpt>
      <trkpt lat="43.2568480354" lon="-8.5984260030">
        <ele>141.11</ele>
        <time>2020-03-14T14:02:23Z</time>
      </trkpt>
      <trkpt lat="43.2571870834" lon="-8.5984107479">
        <ele>143.40</ele>
        <time>2020-03-14T14:02:33Z</time>
      </trkpt>
      <trkpt lat="43.2576897461" lon="-8.5982281063">
        <ele>145.10</ele>
        <time>2020-03-14T14:02:49Z</time>
      </trkpt>
      <trkpt lat="43.2582520880" lon="-8.5980014596">
        <ele>146.19</ele>
        <time>2020-03-14T14:03:06Z</time>
      </trkpt>
      <trkpt lat="43.2587684132" lon="-8.5976672731">
        <ele>147.01</ele>
        <time>2020-03-14T14:03:24Z</time>
      </trkpt>
      <trkpt lat="43.2592522167" lon="-8.5973183345">
        <ele>147.27</ele>
        <time>2020-03-14T14:03:40Z</time>
      </trkpt>
      <trkpt lat="43.2594672125" lon="-8.5968460981">
        <ele>147.85</ele>
        <time>2020-03-14T14:03:53Z</time>
      </trkpt>
      <trkpt lat="43.2596553024" lon="-8.5964850895">
        <ele>148.21</ele>
        <time>2020-03-14T14:04:04Z</time>
      </trkpt>
      <trkpt lat="43.2596216071" lon="-8.5960700177">
        <ele>149.70</ele>
        <time>2020-03-14T14:04:15Z</time>
      </trkpt>
      <trkpt lat="43.2598639280" lon="-8.5954631679">
        <ele>150.22</ele>
        <time>2020-03-14T14:04:29Z</time>
      </trkpt>
      <trkpt lat="43.2600436360" lon="-8.5949876625">
        <ele>150.24</ele>
        <time>2020-03-14T14:04:40Z</time>
      </trkpt>
      <trkpt lat="43.2600759901" lon="-8.5949946195">
        <ele>150.24</ele>
        <time>2020-03-14T14:04:41Z</time>
      </trkpt>
      <trkpt lat="43.2601018064" lon="-8.5950279795">
        <ele>150.26</ele>
        <time>2020-03-14T14:04:42Z</time>
      </trkpt>
      <trkpt lat="43.2601240184" lon="-8.5950708948">
        <ele>150.28</ele>
        <time>2020-03-14T14:04:43Z</time>
      </trkpt>
      <trkpt lat="43.2601496670" lon="-8.5951174982">
        <ele>150.33</ele>
        <time>2020-03-14T14:04:44Z</time>
      </trkpt>
      <trkpt lat="43.2601810154" lon="-8.5951653589">
        <ele>150.36</ele>
        <time>2020-03-14T14:04:45Z</time>
      </trkpt>
      <trkpt lat="43.2607858535" lon="-8.5957274493">
        <ele>148.48</ele>
        <time>2020-03-14T14:04:58Z</time>
      </trkpt>
      <trkpt lat="43.2611354627" lon="-8.5960561037">
        <ele>149.34</ele>
        <time>2020-03-14T14:05:11Z</time>
      </trkpt>
      <trkpt lat="43.2614031807" lon="-8.5962995142">
        <ele>152.38</ele>
        <time>2020-03-14T14:05:21Z</time>
      </trkpt>
      <trkpt lat="43.2615574077" lon="-8.5964326188">
        <ele>152.93</ele>
        <time>2020-03-14T14:05:26Z</time>
      </trkpt>
      <trkpt lat="43.2616999000" lon="-8.5965850018">
        <ele>153.01</ele>
        <time>2020-03-14T14:05:30Z</time>
      </trkpt>
      <trkpt lat="43.2617366966" lon="-8.5966416635">
        <ele>153.01</ele>
        <time>2020-03-14T14:05:31Z</time>
      </trkpt>
      <trkpt lat="43.2617699727" lon="-8.5967074614">
        <ele>153.01</ele>
        <time>2020-03-14T14:05:32Z</time>
      </trkpt>
      <trkpt lat="43.2617972139" lon="-8.5967827309">
        <ele>153.01</ele>
        <time>2020-03-14T14:05:33Z</time>
      </trkpt>
      <trkpt lat="43.2618132234" lon="-8.5968682263">
        <ele>153.01</ele>
        <time>2020-03-14T14:05:34Z</time>
      </trkpt>
      <trkpt lat="43.2618137263" lon="-8.5969631094">
        <ele>153.01</ele>
        <time>2020-03-14T14:05:35Z</time>
      </trkpt>
      <trkpt lat="43.2617997285" lon="-8.5970588308">
        <ele>153.01</ele>
        <time>2020-03-14T14:05:36Z</time>
      </trkpt>
      <trkpt lat="43.2617753372" lon="-8.5971552227">
        <ele>152.89</ele>
        <time>2020-03-14T14:05:37Z</time>
      </trkpt>
      <trkpt lat="43.2617435697" lon="-8.5972532071">
        <ele>152.79</ele>
        <time>2020-03-14T14:05:38Z</time>
      </trkpt>
      <trkpt lat="43.2617074437" lon="-8.5973531194">
        <ele>152.47</ele>
        <time>2020-03-14T14:05:39Z</time>
      </trkpt>
      <trkpt lat="43.2615730818" lon="-8.5979653336">
        <ele>149.46</ele>
        <time>2020-03-14T14:05:44Z</time>
      </trkpt>
      <trkpt lat="43.2615693100" lon="-8.5980934091">
        <ele>147.93</ele>
        <time>2020-03-14T14:05:45Z</time>
      </trkpt>
      <trkpt lat="43.2615771051" lon="-8.5982189700">
        <ele>147.93</ele>
        <time>2020-03-14T14:05:46Z</time>
      </trkpt>
      <trkpt lat="43.2616115548" lon="-8.5985549167">
        <ele>144.72</ele>
        <time>2020-03-14T14:05:49Z</time>
      </trkpt>
      <trkpt lat="43.2616993971" lon="-8.5992986429">
        <ele>142.41</ele>
        <time>2020-03-14T14:05:59Z</time>
      </trkpt>
      <trkpt lat="43.2617626805" lon="-8.5996960290">
        <ele>145.54</ele>
        <time>2020-03-14T14:06:08Z</time>
      </trkpt>
      <trkpt lat="43.2621031534" lon="-8.6001504119">
        <ele>148.02</ele>
        <time>2020-03-14T14:06:22Z</time>
      </trkpt>
      <trkpt lat="43.2624658383" lon="-8.6001559440">
        <ele>148.45</ele>
        <time>2020-03-14T14:06:33Z</time>
      </trkpt>
      <trkpt lat="43.2628908847" lon="-8.5999472346">
        <ele>148.74</ele>
        <time>2020-03-14T14:06:45Z</time>
      </trkpt>
      <trkpt lat="43.2630401663" lon="-8.5998509265">
        <ele>148.50</ele>
        <time>2020-03-14T14:06:51Z</time>
      </trkpt>
      <trkpt lat="43.2630787231" lon="-8.5997168999">
        <ele>147.86</ele>
        <time>2020-03-14T14:06:56Z</time>
      </trkpt>
      <trkpt lat="43.2632376440" lon="-8.5992568173">
        <ele>147.29</ele>
        <time>2020-03-14T14:07:10Z</time>
      </trkpt>
      <trkpt lat="43.2634397317" lon="-8.5989428312">
        <ele>146.68</ele>
        <time>2020-03-14T14:07:20Z</time>
      </trkpt>
      <trkpt lat="43.2634993270" lon="-8.5988617782">
        <ele>146.16</ele>
        <time>2020-03-14T14:07:34Z</time>
      </trkpt>
      <trkpt lat="43.2635547314" lon="-8.5987592675">
        <ele>146.12</ele>
        <time>2020-03-14T14:07:44Z</time>
      </trkpt>
      <trkpt lat="43.2636026759" lon="-8.5985119175">
        <ele>146.01</ele>
        <time>2020-03-14T14:08:01Z</time>
      </trkpt>
      <trkpt lat="43.2636092976" lon="-8.5983372387">
        <ele>146.09</ele>
        <time>2020-03-14T14:08:16Z</time>
      </trkpt>
      <trkpt lat="43.2636030950" lon="-8.5980704427">
        <ele>146.06</ele>
        <time>2020-03-14T14:08:44Z</time>
      </trkpt>
      <trkpt lat="43.2635818888" lon="-8.5979610588">
        <ele>146.33</ele>
        <time>2020-03-14T14:09:04Z</time>
      </trkpt>
      <trkpt lat="43.2635927852" lon="-8.5979381762">
        <ele>146.32</ele>
        <time>2020-03-14T14:10:00Z</time>
      </trkpt>
      <trkpt lat="43.2636242174" lon="-8.5978795029">
        <ele>146.44</ele>
        <time>2020-03-14T14:10:04Z</time>
      </trkpt>
      <trkpt lat="43.2636738382" lon="-8.5977790039">
        <ele>146.54</ele>
        <time>2020-03-14T14:10:08Z</time>
      </trkpt>
      <trkpt lat="43.2637436595" lon="-8.5976400319">
        <ele>146.70</ele>
        <time>2020-03-14T14:10:13Z</time>
      </trkpt>
      <trkpt lat="43.2638449967" lon="-8.5973467492">
        <ele>148.33</ele>
        <time>2020-03-14T14:10:25Z</time>
      </trkpt>
      <trkpt lat="43.2639605831" lon="-8.5969740897">
        <ele>149.24</ele>
        <time>2020-03-14T14:10:37Z</time>
      </trkpt>
      <trkpt lat="43.2640435640" lon="-8.5967788752">
        <ele>149.76</ele>
        <time>2020-03-14T14:10:44Z</time>
      </trkpt>
      <trkpt lat="43.2640729845" lon="-8.5966582596">
        <ele>150.24</ele>
        <time>2020-03-14T14:10:48Z</time>
      </trkpt>
      <trkpt lat="43.2644088473" lon="-8.5960538406">
        <ele>152.11</ele>
        <time>2020-03-14T14:11:07Z</time>
      </trkpt>
      <trkpt lat="43.2646502461" lon="-8.5955637507">
        <ele>153.01</ele>
        <time>2020-03-14T14:11:22Z</time>
      </trkpt>
      <trkpt lat="43.2649305370" lon="-8.5954480805">
        <ele>154.75</ele>
        <time>2020-03-14T14:11:35Z</time>
      </trkpt>
      <trkpt lat="43.2653950620" lon="-8.5956044868">
        <ele>157.83</ele>
        <time>2020-03-14T14:11:53Z</time>
      </trkpt>
      <trkpt lat="43.2658724952" lon="-8.5958587937">
        <ele>160.97</ele>
        <time>2020-03-14T14:12:12Z</time>
      </trkpt>
      <trkpt lat="43.2661386207" lon="-8.5965789668">
        <ele>161.99</ele>
        <time>2020-03-14T14:12:30Z</time>
      </trkpt>
      <trkpt lat="43.2661602460" lon="-8.5966078006">
        <ele>162.01</ele>
        <time>2020-03-14T14:12:31Z</time>
      </trkpt>
      <trkpt lat="43.2664045785" lon="-8.5965807270">
        <ele>162.13</ele>
        <time>2020-03-14T14:12:40Z</time>
      </trkpt>
      <trkpt lat="43.2664516009" lon="-8.5965887737">
        <ele>162.15</ele>
        <time>2020-03-14T14:12:42Z</time>
      </trkpt>
      <trkpt lat="43.2667893916" lon="-8.5965882707">
        <ele>162.82</ele>
        <time>2020-03-14T14:12:55Z</time>
      </trkpt>
      <trkpt lat="43.2669076603" lon="-8.5965855047">
        <ele>163.38</ele>
        <time>2020-03-14T14:13:00Z</time>
      </trkpt>
      <trkpt lat="43.2671710197" lon="-8.5965766199">
        <ele>165.25</ele>
        <time>2020-03-14T14:13:11Z</time>
      </trkpt>
      <trkpt lat="43.2674083952" lon="-8.5965824872">
        <ele>166.33</ele>
        <time>2020-03-14T14:13:21Z</time>
      </trkpt>
      <trkpt lat="43.2676669769" lon="-8.5965796374">
        <ele>167.24</ele>
        <time>2020-03-14T14:13:32Z</time>
      </trkpt>
      <trkpt lat="43.2678484451" lon="-8.5965674836">
        <ele>168.34</ele>
        <time>2020-03-14T14:13:43Z</time>
      </trkpt>
      <trkpt lat="43.2680002414" lon="-8.5965510551">
        <ele>170.01</ele>
        <time>2020-03-14T14:14:02Z</time>
      </trkpt>
      <trkpt lat="43.2681410573" lon="-8.5965147614">
        <ele>170.19</ele>
        <time>2020-03-14T14:14:16Z</time>
      </trkpt>
      <trkpt lat="43.2682821248" lon="-8.5964876879">
        <ele>170.68</ele>
        <time>2020-03-14T14:14:32Z</time>
      </trkpt>
      <trkpt lat="43.2684035785" lon="-8.5964665655">
        <ele>171.24</ele>
        <time>2020-03-14T14:14:50Z</time>
      </trkpt>
      <trkpt lat="43.2685252000" lon="-8.5964192916">
        <ele>171.44</ele>
        <time>2020-03-14T14:15:07Z</time>
      </trkpt>
      <trkpt lat="43.2687563729" lon="-8.5963420104">
        <ele>171.60</ele>
        <time>2020-03-14T14:15:26Z</time>
      </trkpt>
      <trkpt lat="43.2690364122" lon="-8.5962343868">
        <ele>172.08</ele>
        <time>2020-03-14T14:15:38Z</time>
      </trkpt>
      <trkpt lat="43.2692782301" lon="-8.5961379949">
        <ele>173.45</ele>
        <time>2020-03-14T14:15:50Z</time>
      </trkpt>
      <trkpt lat="43.2695718482" lon="-8.5960319638">
        <ele>174.25</ele>
        <time>2020-03-14T14:16:03Z</time>
      </trkpt>
      <trkpt lat="43.2698582578" lon="-8.5959254298">
        <ele>174.89</ele>
        <time>2020-03-14T14:16:15Z</time>
      </trkpt>
      <trkpt lat="43.2701538876" lon="-8.5958256014">
        <ele>176.13</ele>
        <time>2020-03-14T14:16:28Z</time>
      </trkpt>
      <trkpt lat="43.2704191748" lon="-8.5957446322">
        <ele>177.78</ele>
        <time>2020-03-14T14:16:42Z</time>
      </trkpt>
      <trkpt lat="43.2706784271" lon="-8.5956321470">
        <ele>180.09</ele>
        <time>2020-03-14T14:17:06Z</time>
      </trkpt>
      <trkpt lat="43.2710605580" lon="-8.5952675343">
        <ele>181.54</ele>
        <time>2020-03-14T14:17:22Z</time>
      </trkpt>
      <trkpt lat="43.2710858714" lon="-8.5952586494">
        <ele>181.64</ele>
        <time>2020-03-14T14:17:23Z</time>
      </trkpt>
      <trkpt lat="43.2711083349" lon="-8.5952736530">
        <ele>181.69</ele>
        <time>2020-03-14T14:17:24Z</time>
      </trkpt>
      <trkpt lat="43.2711232547" lon="-8.5953073483">
        <ele>181.76</ele>
        <time>2020-03-14T14:17:25Z</time>
      </trkpt>
      <trkpt lat="43.2711323909" lon="-8.5953481682">
        <ele>181.80</ele>
        <time>2020-03-14T14:17:26Z</time>
      </trkpt>
      <trkpt lat="43.2711352408" lon="-8.5953936819">
        <ele>181.83</ele>
        <time>2020-03-14T14:17:27Z</time>
      </trkpt>
      <trkpt lat="43.2711348217" lon="-8.5954427160">
        <ele>181.85</ele>
        <time>2020-03-14T14:17:28Z</time>
      </trkpt>
      <trkpt lat="43.2711331453" lon="-8.5954940133">
        <ele>181.88</ele>
        <time>2020-03-14T14:17:29Z</time>
      </trkpt>
      <trkpt lat="43.2711437903" lon="-8.5958634038">
        <ele>181.88</ele>
        <time>2020-03-14T14:17:35Z</time>
      </trkpt>
      <trkpt lat="43.2711537648" lon="-8.5959341470">
        <ele>181.88</ele>
        <time>2020-03-14T14:17:36Z</time>
      </trkpt>
      <trkpt lat="43.2712025475" lon="-8.5961643979">
        <ele>181.53</ele>
        <time>2020-03-14T14:17:39Z</time>
      </trkpt>
      <trkpt lat="43.2712292019" lon="-8.5962407570">
        <ele>181.23</ele>
        <time>2020-03-14T14:17:40Z</time>
      </trkpt>
      <trkpt lat="43.2712623943" lon="-8.5963153560">
        <ele>180.95</ele>
        <time>2020-03-14T14:17:41Z</time>
      </trkpt>
      <trkpt lat="43.2715576049" lon="-8.5968339443">
        <ele>178.16</ele>
        <time>2020-03-14T14:17:49Z</time>
      </trkpt>
      <trkpt lat="43.2715993468" lon="-8.5968412366">
        <ele>177.89</ele>
        <time>2020-03-14T14:17:50Z</time>
      </trkpt>
      <trkpt lat="43.2716379035" lon="-8.5968204495">
        <ele>177.68</ele>
        <time>2020-03-14T14:17:51Z</time>
      </trkpt>
      <trkpt lat="43.2716714311" lon="-8.5967910290">
        <ele>177.32</ele>
        <time>2020-03-14T14:17:52Z</time>
      </trkpt>
      <trkpt lat="43.2717019413" lon="-8.5967624467">
        <ele>176.96</ele>
        <time>2020-03-14T14:17:53Z</time>
      </trkpt>
      <trkpt lat="43.2719400711" lon="-8.5965300165">
        <ele>176.48</ele>
        <time>2020-03-14T14:18:04Z</time>
      </trkpt>
      <trkpt lat="43.2722237147" lon="-8.5962930601">
        <ele>178.29</ele>
        <time>2020-03-14T14:18:17Z</time>
      </trkpt>
      <trkpt lat="43.2726765890" lon="-8.5961798206">
        <ele>180.54</ele>
        <time>2020-03-14T14:18:34Z</time>
      </trkpt>
      <trkpt lat="43.2730445545" lon="-8.5960400105">
        <ele>182.48</ele>
        <time>2020-03-14T14:18:49Z</time>
      </trkpt>
      <trkpt lat="43.2732503302" lon="-8.5956159700">
        <ele>185.13</ele>
        <time>2020-03-14T14:19:05Z</time>
      </trkpt>
      <trkpt lat="43.2734918129" lon="-8.5953315720">
        <ele>188.07</ele>
        <time>2020-03-14T14:19:19Z</time>
      </trkpt>
      <trkpt lat="43.2735037990" lon="-8.5952826217">
        <ele>188.40</ele>
        <time>2020-03-14T14:19:21Z</time>
      </trkpt>
      <trkpt lat="43.2734877896" lon="-8.5952513572">
        <ele>188.53</ele>
        <time>2020-03-14T14:19:22Z</time>
      </trkpt>
      <trkpt lat="43.2734651584" lon="-8.5952224396">
        <ele>188.71</ele>
        <time>2020-03-14T14:19:23Z</time>
      </trkpt>
      <trkpt lat="43.2734411024" lon="-8.5951914266">
        <ele>188.99</ele>
        <time>2020-03-14T14:19:24Z</time>
      </trkpt>
      <trkpt lat="43.2734170463" lon="-8.5951563064">
        <ele>189.39</ele>
        <time>2020-03-14T14:19:25Z</time>
      </trkpt>
      <trkpt lat="43.2732897252" lon="-8.5949411429">
        <ele>190.86</ele>
        <time>2020-03-14T14:19:37Z</time>
      </trkpt>
      <trkpt lat="43.2732543536" lon="-8.5948685557">
        <ele>191.00</ele>
        <time>2020-03-14T14:20:34Z</time>
      </trkpt>
      <trkpt lat="43.2731218357" lon="-8.5943879373">
        <ele>190.70</ele>
        <time>2020-03-14T14:20:44Z</time>
      </trkpt>
      <trkpt lat="43.2730845362" lon="-8.5941585246">
        <ele>190.44</ele>
        <time>2020-03-14T14:20:48Z</time>
      </trkpt>
      <trkpt lat="43.2730863802" lon="-8.5940937325">
        <ele>190.41</ele>
        <time>2020-03-14T14:20:49Z</time>
      </trkpt>
      <trkpt lat="43.2730933372" lon="-8.5940307844">
        <ele>190.37</ele>
        <time>2020-03-14T14:20:50Z</time>
      </trkpt>
      <trkpt lat="43.2731086761" lon="-8.5938326363">
        <ele>190.01</ele>
        <time>2020-03-14T14:20:53Z</time>
      </trkpt>
      <trkpt lat="43.2731196564" lon="-8.5937679280">
        <ele>189.87</ele>
        <time>2020-03-14T14:20:54Z</time>
      </trkpt>
      <trkpt lat="43.2733285334" lon="-8.5924280807">
        <ele>187.85</ele>
        <time>2020-03-14T14:21:14Z</time>
      </trkpt>
      <trkpt lat="43.2735104207" lon="-8.5916613042">
        <ele>188.13</ele>
        <time>2020-03-14T14:21:29Z</time>
      </trkpt>
      <trkpt lat="43.2733252645" lon="-8.5912945960">
        <ele>188.23</ele>
        <time>2020-03-14T14:21:37Z</time>
      </trkpt>
      <trkpt lat="43.2732400205" lon="-8.5911209229">
        <ele>187.74</ele>
        <time>2020-03-14T14:21:41Z</time>
      </trkpt>
      <trkpt lat="43.2733743824" lon="-8.5907502752">
        <ele>186.42</ele>
        <time>2020-03-14T14:21:49Z</time>
      </trkpt>
      <trkpt lat="43.2735417690" lon="-8.5905479360">
        <ele>185.77</ele>
        <time>2020-03-14T14:21:54Z</time>
      </trkpt>
      <trkpt lat="43.2741047814" lon="-8.5900057107">
        <ele>183.93</ele>
        <time>2020-03-14T14:22:09Z</time>
      </trkpt>
      <trkpt lat="43.2742688153" lon="-8.5898663197">
        <ele>183.66</ele>
        <time>2020-03-14T14:22:13Z</time>
      </trkpt>
      <trkpt lat="43.2748635113" lon="-8.5892997030">
        <ele>182.48</ele>
        <time>2020-03-14T14:22:26Z</time>
      </trkpt>
      <trkpt lat="43.2751342468" lon="-8.5890354216">
        <ele>180.16</ele>
        <time>2020-03-14T14:22:32Z</time>
      </trkpt>
      <trkpt lat="43.2753501646" lon="-8.5885972995">
        <ele>178.60</ele>
        <time>2020-03-14T14:22:43Z</time>
      </trkpt>
      <trkpt lat="43.2754504122" lon="-8.5882402305">
        <ele>178.79</ele>
        <time>2020-03-14T14:22:53Z</time>
      </trkpt>
      <trkpt lat="43.2756255940" lon="-8.5878597759">
        <ele>179.27</ele>
        <time>2020-03-14T14:23:03Z</time>
      </trkpt>
      <trkpt lat="43.2759117521" lon="-8.5874346457">
        <ele>179.47</ele>
        <time>2020-03-14T14:23:16Z</time>
      </trkpt>
      <trkpt lat="43.2763424981" lon="-8.5871002078">
        <ele>179.23</ele>
        <time>2020-03-14T14:23:27Z</time>
      </trkpt>
      <trkpt lat="43.2764497865" lon="-8.5870370083">
        <ele>178.95</ele>
        <time>2020-03-14T14:23:29Z</time>
      </trkpt>
      <trkpt lat="43.2768701389" lon="-8.5867736489">
        <ele>176.17</ele>
        <time>2020-03-14T14:23:36Z</time>
      </trkpt>
      <trkpt lat="43.2770703826" lon="-8.5866275523">
        <ele>172.86</ele>
        <time>2020-03-14T14:23:40Z</time>
      </trkpt>
      <trkpt lat="43.2773347478" lon="-8.5864234529">
        <ele>168.95</ele>
        <time>2020-03-14T14:23:46Z</time>
      </trkpt>
      <trkpt lat="43.2775483187" lon="-8.5860993247">
        <ele>168.14</ele>
        <time>2020-03-14T14:23:55Z</time>
      </trkpt>
      <trkpt lat="43.2777078263" lon="-8.5858038627">
        <ele>167.83</ele>
        <time>2020-03-14T14:24:05Z</time>
      </trkpt>
      <trkpt lat="43.2778879534" lon="-8.5856135935">
        <ele>167.98</ele>
        <time>2020-03-14T14:24:15Z</time>
      </trkpt>
      <trkpt lat="43.2780911308" lon="-8.5854327958">
        <ele>169.90</ele>
        <time>2020-03-14T14:24:26Z</time>
      </trkpt>
      <trkpt lat="43.2782745268" lon="-8.5852982663">
        <ele>172.96</ele>
        <time>2020-03-14T14:24:36Z</time>
      </trkpt>
      <trkpt lat="43.2784974016" lon="-8.5851610545">
        <ele>176.17</ele>
        <time>2020-03-14T14:24:48Z</time>
      </trkpt>
      <trkpt lat="43.2785639539" lon="-8.5851338971">
        <ele>177.01</ele>
        <time>2020-03-14T14:24:52Z</time>
      </trkpt>
      <trkpt lat="43.2788575720" lon="-8.5849682707">
        <ele>179.64</ele>
        <time>2020-03-14T14:25:08Z</time>
      </trkpt>
      <trkpt lat="43.2791867293" lon="-8.5848070867">
        <ele>182.42</ele>
        <time>2020-03-14T14:25:25Z</time>
      </trkpt>
      <trkpt lat="43.2794274576" lon="-8.5846577212">
        <ele>184.34</ele>
        <time>2020-03-14T14:25:37Z</time>
      </trkpt>
      <trkpt lat="43.2797156274" lon="-8.5845319927">
        <ele>186.77</ele>
        <time>2020-03-14T14:25:50Z</time>
      </trkpt>
      <trkpt lat="43.2800267637" lon="-8.5845832899">
        <ele>189.84</ele>
        <time>2020-03-14T14:26:03Z</time>
      </trkpt>
      <trkpt lat="43.2804641314" lon="-8.5847043246">
        <ele>191.82</ele>
        <time>2020-03-14T14:26:21Z</time>
      </trkpt>
      <trkpt lat="43.2808539737" lon="-8.5849269480">
        <ele>193.27</ele>
        <time>2020-03-14T14:26:39Z</time>
      </trkpt>
      <trkpt lat="43.2812304888" lon="-8.5850711167">
        <ele>195.33</ele>
        <time>2020-03-14T14:26:57Z</time>
      </trkpt>
      <trkpt lat="43.2814469934" lon="-8.5851438716">
        <ele>197.05</ele>
        <time>2020-03-14T14:27:08Z</time>
      </trkpt>
      <trkpt lat="43.2816471532" lon="-8.5851363279">
        <ele>200.25</ele>
        <time>2020-03-14T14:27:19Z</time>
      </trkpt>
      <trkpt lat="43.2818742190" lon="-8.5851718672">
        <ele>203.06</ele>
        <time>2020-03-14T14:27:31Z</time>
      </trkpt>
      <trkpt lat="43.2819274440" lon="-8.5851962585">
        <ele>204.30</ele>
        <time>2020-03-14T14:27:34Z</time>
      </trkpt>
      <trkpt lat="43.2821076550" lon="-8.5853355657">
        <ele>207.41</ele>
        <time>2020-03-14T14:27:46Z</time>
      </trkpt>
      <trkpt lat="43.2822239958" lon="-8.5854819976">
        <ele>209.02</ele>
        <time>2020-03-14T14:27:54Z</time>
      </trkpt>
      <trkpt lat="43.2822591998" lon="-8.5854753759">
        <ele>209.42</ele>
        <time>2020-03-14T14:27:56Z</time>
      </trkpt>
      <trkpt lat="43.2822720241" lon="-8.5854468774">
        <ele>209.67</ele>
        <time>2020-03-14T14:27:57Z</time>
      </trkpt>
      <trkpt lat="43.2822657377" lon="-8.5853732005">
        <ele>210.24</ele>
        <time>2020-03-14T14:27:59Z</time>
      </trkpt>
      <trkpt lat="43.2822094113" lon="-8.5850950051">
        <ele>211.72</ele>
        <time>2020-03-14T14:28:06Z</time>
      </trkpt>
      <trkpt lat="43.2822204754" lon="-8.5844620038">
        <ele>211.04</ele>
        <time>2020-03-14T14:28:19Z</time>
      </trkpt>
      <trkpt lat="43.2823204715" lon="-8.5841733310">
        <ele>210.71</ele>
        <time>2020-03-14T14:28:26Z</time>
      </trkpt>
      <trkpt lat="43.2823606208" lon="-8.5840572417">
        <ele>210.57</ele>
        <time>2020-03-14T14:28:28Z</time>
      </trkpt>
      <trkpt lat="43.2824596111" lon="-8.5836624540">
        <ele>209.06</ele>
        <time>2020-03-14T14:28:35Z</time>
      </trkpt>
      <trkpt lat="43.2825810649" lon="-8.5834873561">
        <ele>205.65</ele>
        <time>2020-03-14T14:28:40Z</time>
      </trkpt>
      <trkpt lat="43.2827114034" lon="-8.5834371485">
        <ele>204.09</ele>
        <time>2020-03-14T14:28:43Z</time>
      </trkpt>
      <trkpt lat="43.2830167562" lon="-8.5833694227">
        <ele>200.20</ele>
        <time>2020-03-14T14:28:49Z</time>
      </trkpt>
      <trkpt lat="43.2830604259" lon="-8.5833596997">
        <ele>199.50</ele>
        <time>2020-03-14T14:28:50Z</time>
      </trkpt>
      <trkpt lat="43.2831542194" lon="-8.5833428521">
        <ele>197.59</ele>
        <time>2020-03-14T14:28:52Z</time>
      </trkpt>
      <trkpt lat="43.2833467517" lon="-8.5833029542">
        <ele>192.82</ele>
        <time>2020-03-14T14:28:56Z</time>
      </trkpt>
      <trkpt lat="43.2835335843" lon="-8.5831789020">
        <ele>188.46</ele>
        <time>2020-03-14T14:29:01Z</time>
      </trkpt>
      <trkpt lat="43.2836046629" lon="-8.5830219090">
        <ele>185.36</ele>
        <time>2020-03-14T14:29:04Z</time>
      </trkpt>
      <trkpt lat="43.2836720534" lon="-8.5827183165">
        <ele>180.09</ele>
        <time>2020-03-14T14:29:09Z</time>
      </trkpt>
      <trkpt lat="43.2836889848" lon="-8.5825759917">
        <ele>177.06</ele>
        <time>2020-03-14T14:29:12Z</time>
      </trkpt>
      <trkpt lat="43.2836962771" lon="-8.5824029054">
        <ele>173.56</ele>
        <time>2020-03-14T14:29:16Z</time>
      </trkpt>
      <trkpt lat="43.2837197464" lon="-8.5822256282">
        <ele>170.17</ele>
        <time>2020-03-14T14:29:20Z</time>
      </trkpt>
      <trkpt lat="43.2837017253" lon="-8.5820953734">
        <ele>167.22</ele>
        <time>2020-03-14T14:29:23Z</time>
      </trkpt>
      <trkpt lat="43.2836316526" lon="-8.5818232130">
        <ele>162.30</ele>
        <time>2020-03-14T14:29:28Z</time>
      </trkpt>
      <trkpt lat="43.2836045790" lon="-8.5817538947">
        <ele>159.02</ele>
        <time>2020-03-14T14:29:31Z</time>
      </trkpt>
      <trkpt lat="43.2835849654" lon="-8.5816663038">
        <ele>156.13</ele>
        <time>2020-03-14T14:29:35Z</time>
      </trkpt>
      <trkpt lat="43.2835979573" lon="-8.5816522222">
        <ele>156.14</ele>
        <time>2020-03-14T14:30:27Z</time>
      </trkpt>
      <trkpt lat="43.2836717181" lon="-8.5816441756">
        <ele>156.35</ele>
        <time>2020-03-14T14:32:45Z</time>
      </trkpt>
      <trkpt lat="43.2837047428" lon="-8.5816576704">
        <ele>156.43</ele>
        <time>2020-03-14T14:33:26Z</time>
      </trkpt>
      <trkpt lat="43.2836539485" lon="-8.5816015955">
        <ele>156.11</ele>
        <time>2020-03-14T14:33:35Z</time>
      </trkpt>
      <trkpt lat="43.2836297248" lon="-8.5812154412">
        <ele>155.96</ele>
        <time>2020-03-14T14:33:43Z</time>
      </trkpt>
      <trkpt lat="43.2836516015" lon="-8.5810976755">
        <ele>155.70</ele>
        <time>2020-03-14T14:33:45Z</time>
      </trkpt>
      <trkpt lat="43.2836729754" lon="-8.5809763893">
        <ele>155.32</ele>
        <time>2020-03-14T14:33:47Z</time>
      </trkpt>
      <trkpt lat="43.2837041561" lon="-8.5804842040">
        <ele>151.45</ele>
        <time>2020-03-14T14:33:54Z</time>
      </trkpt>
      <trkpt lat="43.2837055810" lon="-8.5804067552">
        <ele>150.37</ele>
        <time>2020-03-14T14:33:55Z</time>
      </trkpt>
      <trkpt lat="43.2836948521" lon="-8.5802444816">
        <ele>147.91</ele>
        <time>2020-03-14T14:33:57Z</time>
      </trkpt>
      <trkpt lat="43.2836205047" lon="-8.5798988957">
        <ele>142.43</ele>
        <time>2020-03-14T14:34:01Z</time>
      </trkpt>
      <trkpt lat="43.2835724764" lon="-8.5797453392">
        <ele>141.25</ele>
        <time>2020-03-14T14:34:03Z</time>
      </trkpt>
      <trkpt lat="43.2834869809" lon="-8.5795504600">
        <ele>138.48</ele>
        <time>2020-03-14T14:34:06Z</time>
      </trkpt>
      <trkpt lat="43.2833652757" lon="-8.5792938061">
        <ele>135.28</ele>
        <time>2020-03-14T14:34:10Z</time>
      </trkpt>
      <trkpt lat="43.2831974700" lon="-8.5788896307">
        <ele>132.99</ele>
        <time>2020-03-14T14:34:15Z</time>
      </trkpt>
      <trkpt lat="43.2830213662" lon="-8.5785449669">
        <ele>130.88</ele>
        <time>2020-03-14T14:34:19Z</time>
      </trkpt>
      <trkpt lat="43.2828619424" lon="-8.5782803502">
        <ele>127.05</ele>
        <time>2020-03-14T14:34:23Z</time>
      </trkpt>
      <trkpt lat="43.2828271575" lon="-8.5782130435">
        <ele>126.12</ele>
        <time>2020-03-14T14:34:24Z</time>
      </trkpt>
      <trkpt lat="43.2826891076" lon="-8.5779747460">
        <ele>123.80</ele>
        <time>2020-03-14T14:34:28Z</time>
      </trkpt>
      <trkpt lat="43.2825974934" lon="-8.5778124724">
        <ele>123.51</ele>
        <time>2020-03-14T14:34:31Z</time>
      </trkpt>
      <trkpt lat="43.2823938131" lon="-8.5776298307">
        <ele>120.86</ele>
        <time>2020-03-14T14:34:39Z</time>
      </trkpt>
      <trkpt lat="43.2823381573" lon="-8.5775730852">
        <ele>119.69</ele>
        <time>2020-03-14T14:34:41Z</time>
      </trkpt>
      <trkpt lat="43.2822802383" lon="-8.5775189381">
        <ele>119.06</ele>
        <time>2020-03-14T14:34:43Z</time>
      </trkpt>
      <trkpt lat="43.2820793241" lon="-8.5773345362">
        <ele>114.99</ele>
        <time>2020-03-14T14:34:51Z</time>
      </trkpt>
      <trkpt lat="43.2820511609" lon="-8.5773125757">
        <ele>114.99</ele>
        <time>2020-03-14T14:34:52Z</time>
      </trkpt>
      <trkpt lat="43.2818282023" lon="-8.5771153495">
        <ele>111.84</ele>
        <time>2020-03-14T14:35:00Z</time>
      </trkpt>
      <trkpt lat="43.2818026375" lon="-8.5770828277">
        <ele>110.81</ele>
        <time>2020-03-14T14:35:02Z</time>
      </trkpt>
      <trkpt lat="43.2815733925" lon="-8.5768375732">
        <ele>108.51</ele>
        <time>2020-03-14T14:35:11Z</time>
      </trkpt>
      <trkpt lat="43.2814640086" lon="-8.5766929854">
        <ele>106.96</ele>
        <time>2020-03-14T14:35:16Z</time>
      </trkpt>
      <trkpt lat="43.2814630028" lon="-8.5766670015">
        <ele>106.02</ele>
        <time>2020-03-14T14:35:17Z</time>
      </trkpt>
      <trkpt lat="43.2815143839" lon="-8.5766355693">
        <ele>104.38</ele>
        <time>2020-03-14T14:35:20Z</time>
      </trkpt>
      <trkpt lat="43.2815399487" lon="-8.5766357370">
        <ele>103.73</ele>
        <time>2020-03-14T14:35:21Z</time>
      </trkpt>
      <trkpt lat="43.2815693691" lon="-8.5766307916">
        <ele>103.24</ele>
        <time>2020-03-14T14:35:22Z</time>
      </trkpt>
      <trkpt lat="43.2816072553" lon="-8.5766337253">
        <ele>102.92</ele>
        <time>2020-03-14T14:35:23Z</time>
      </trkpt>
      <trkpt lat="43.2816454768" lon="-8.5766385868">
        <ele>102.46</ele>
        <time>2020-03-14T14:35:24Z</time>
      </trkpt>
      <trkpt lat="43.2822047174" lon="-8.5767061450">
        <ele>99.69</ele>
        <time>2020-03-14T14:35:33Z</time>
      </trkpt>
      <trkpt lat="43.2824948151" lon="-8.5767585319">
        <ele>97.65</ele>
        <time>2020-03-14T14:35:37Z</time>
      </trkpt>
      <trkpt lat="43.2827338669" lon="-8.5768479668">
        <ele>94.77</ele>
        <time>2020-03-14T14:35:41Z</time>
      </trkpt>
      <trkpt lat="43.2828296721" lon="-8.5769089032">
        <ele>92.61</ele>
        <time>2020-03-14T14:35:43Z</time>
      </trkpt>
      <trkpt lat="43.2828723360" lon="-8.5769371502">
        <ele>90.48</ele>
        <time>2020-03-14T14:35:44Z</time>
      </trkpt>
      <trkpt lat="43.2829168439" lon="-8.5769608710">
        <ele>89.75</ele>
        <time>2020-03-14T14:35:45Z</time>
      </trkpt>
      <trkpt lat="43.2829625253" lon="-8.5769822448">
        <ele>89.25</ele>
        <time>2020-03-14T14:35:46Z</time>
      </trkpt>
      <trkpt lat="43.2830129843" lon="-8.5770010203">
        <ele>88.73</ele>
        <time>2020-03-14T14:35:47Z</time>
      </trkpt>
      <trkpt lat="43.2830610126" lon="-8.5770098213">
        <ele>88.18</ele>
        <time>2020-03-14T14:35:48Z</time>
      </trkpt>
      <trkpt lat="43.2831079513" lon="-8.5770199634">
        <ele>87.75</ele>
        <time>2020-03-14T14:35:49Z</time>
      </trkpt>
      <trkpt lat="43.2831517886" lon="-8.5770285968">
        <ele>87.37</ele>
        <time>2020-03-14T14:35:50Z</time>
      </trkpt>
      <trkpt lat="43.2833603304" lon="-8.5769778863">
        <ele>84.10</ele>
        <time>2020-03-14T14:35:56Z</time>
      </trkpt>
      <trkpt lat="43.2834359352" lon="-8.5768992640">
        <ele>83.43</ele>
        <time>2020-03-14T14:35:58Z</time>
      </trkpt>
      <trkpt lat="43.2839952596" lon="-8.5761876404">
        <ele>81.55</ele>
        <time>2020-03-14T14:36:11Z</time>
      </trkpt>
      <trkpt lat="43.2845846750" lon="-8.5759850498">
        <ele>78.55</ele>
        <time>2020-03-14T14:36:23Z</time>
      </trkpt>
      <trkpt lat="43.2851823885" lon="-8.5759673640">
        <ele>81.48</ele>
        <time>2020-03-14T14:36:41Z</time>
      </trkpt>
      <trkpt lat="43.2857755758" lon="-8.5757826269">
        <ele>82.45</ele>
        <time>2020-03-14T14:36:56Z</time>
      </trkpt>
      <trkpt lat="43.2861747220" lon="-8.5754781961">
        <ele>81.67</ele>
        <time>2020-03-14T14:37:03Z</time>
      </trkpt>
      <trkpt lat="43.2862291206" lon="-8.5753853247">
        <ele>80.78</ele>
        <time>2020-03-14T14:37:04Z</time>
      </trkpt>
      <trkpt lat="43.2862771489" lon="-8.5752793774">
        <ele>79.59</ele>
        <time>2020-03-14T14:37:05Z</time>
      </trkpt>
      <trkpt lat="43.2863223273" lon="-8.5751740169">
        <ele>78.27</ele>
        <time>2020-03-14T14:37:06Z</time>
      </trkpt>
      <trkpt lat="43.2863702718" lon="-8.5750718415">
        <ele>76.87</ele>
        <time>2020-03-14T14:37:07Z</time>
      </trkpt>
      <trkpt lat="43.2864710223" lon="-8.5749018565">
        <ele>73.98</ele>
        <time>2020-03-14T14:37:09Z</time>
      </trkpt>
      <trkpt lat="43.2865187153" lon="-8.5748388246">
        <ele>72.53</ele>
        <time>2020-03-14T14:37:10Z</time>
      </trkpt>
      <trkpt lat="43.2865674142" lon="-8.5747823305">
        <ele>71.31</ele>
        <time>2020-03-14T14:37:11Z</time>
      </trkpt>
      <trkpt lat="43.2867160253" lon="-8.5746079031">
        <ele>67.14</ele>
        <time>2020-03-14T14:37:14Z</time>
      </trkpt>
      <trkpt lat="43.2867527381" lon="-8.5745319631">
        <ele>65.97</ele>
        <time>2020-03-14T14:37:15Z</time>
      </trkpt>
      <trkpt lat="43.2867854275" lon="-8.5744482279">
        <ele>65.16</ele>
        <time>2020-03-14T14:37:16Z</time>
      </trkpt>
      <trkpt lat="43.2868202962" lon="-8.5743631516">
        <ele>64.54</ele>
        <time>2020-03-14T14:37:17Z</time>
      </trkpt>
      <trkpt lat="43.2868565898" lon="-8.5742822662">
        <ele>64.05</ele>
        <time>2020-03-14T14:37:18Z</time>
      </trkpt>
      <trkpt lat="43.2868940569" lon="-8.5742079187">
        <ele>63.78</ele>
        <time>2020-03-14T14:37:19Z</time>
      </trkpt>
      <trkpt lat="43.2872355357" lon="-8.5736416373">
        <ele>60.41</ele>
        <time>2020-03-14T14:37:28Z</time>
      </trkpt>
      <trkpt lat="43.2872934546" lon="-8.5735771805">
        <ele>59.30</ele>
        <time>2020-03-14T14:37:29Z</time>
      </trkpt>
      <trkpt lat="43.2874851488" lon="-8.5733014159">
        <ele>57.17</ele>
        <time>2020-03-14T14:37:33Z</time>
      </trkpt>
      <trkpt lat="43.2875216939" lon="-8.5732194409">
        <ele>56.54</ele>
        <time>2020-03-14T14:37:34Z</time>
      </trkpt>
      <trkpt lat="43.2875607535" lon="-8.5731518827">
        <ele>55.75</ele>
        <time>2020-03-14T14:37:35Z</time>
      </trkpt>
      <trkpt lat="43.2877170760" lon="-8.5729377251">
        <ele>52.52</ele>
        <time>2020-03-14T14:37:39Z</time>
      </trkpt>
      <trkpt lat="43.2877558842" lon="-8.5728978273">
        <ele>52.11</ele>
        <time>2020-03-14T14:37:40Z</time>
      </trkpt>
      <trkpt lat="43.2877800241" lon="-8.5728461109">
        <ele>51.77</ele>
        <time>2020-03-14T14:37:41Z</time>
      </trkpt>
      <trkpt lat="43.2878179103" lon="-8.5727789719">
        <ele>51.18</ele>
        <time>2020-03-14T14:37:42Z</time>
      </trkpt>
      <trkpt lat="43.2878560480" lon="-8.5726989247">
        <ele>50.55</ele>
        <time>2020-03-14T14:37:43Z</time>
      </trkpt>
      <trkpt lat="43.2878996339" lon="-8.5726216435">
        <ele>49.93</ele>
        <time>2020-03-14T14:37:44Z</time>
      </trkpt>
      <trkpt lat="43.2879498415" lon="-8.5725471284">
        <ele>49.38</ele>
        <time>2020-03-14T14:37:45Z</time>
      </trkpt>
      <trkpt lat="43.2880094368" lon="-8.5724795703">
        <ele>49.08</ele>
        <time>2020-03-14T14:37:46Z</time>
      </trkpt>
      <trkpt lat="43.2880647574" lon="-8.5724089947">
        <ele>48.83</ele>
        <time>2020-03-14T14:37:47Z</time>
      </trkpt>
      <trkpt lat="43.2881242689" lon="-8.5723398440">
        <ele>48.40</ele>
        <time>2020-03-14T14:37:48Z</time>
      </trkpt>
      <trkpt lat="43.2881904021" lon="-8.5722786561">
        <ele>47.87</ele>
        <time>2020-03-14T14:37:49Z</time>
      </trkpt>
      <trkpt lat="43.2882618997" lon="-8.5722277779">
        <ele>47.34</ele>
        <time>2020-03-14T14:37:50Z</time>
      </trkpt>
      <trkpt lat="43.2883345708" lon="-8.5721866228">
        <ele>46.20</ele>
        <time>2020-03-14T14:37:51Z</time>
      </trkpt>
      <trkpt lat="43.2884039730" lon="-8.5721534304">
        <ele>45.49</ele>
        <time>2020-03-14T14:37:52Z</time>
      </trkpt>
      <trkpt lat="43.2884652447" lon="-8.5721163824">
        <ele>44.62</ele>
        <time>2020-03-14T14:37:53Z</time>
      </trkpt>
      <trkpt lat="43.2885209005" lon="-8.5720651690">
        <ele>44.03</ele>
        <time>2020-03-14T14:37:54Z</time>
      </trkpt>
      <trkpt lat="43.2885623071" lon="-8.5720070824">
        <ele>43.63</ele>
        <time>2020-03-14T14:37:55Z</time>
      </trkpt>
      <trkpt lat="43.2885907218" lon="-8.5719539411">
        <ele>43.22</ele>
        <time>2020-03-14T14:37:56Z</time>
      </trkpt>
      <trkpt lat="43.2886145264" lon="-8.5719088465">
        <ele>42.95</ele>
        <time>2020-03-14T14:37:57Z</time>
      </trkpt>
      <trkpt lat="43.2888844237" lon="-8.5717823636">
        <ele>42.68</ele>
        <time>2020-03-14T14:38:06Z</time>
      </trkpt>
      <trkpt lat="43.2891634572" lon="-8.5716937669">
        <ele>44.75</ele>
        <time>2020-03-14T14:38:16Z</time>
      </trkpt>
      <trkpt lat="43.2893112302" lon="-8.5716010630">
        <ele>45.56</ele>
        <time>2020-03-14T14:38:24Z</time>
      </trkpt>
      <trkpt lat="43.2893145829" lon="-8.5715785995">
        <ele>45.65</ele>
        <time>2020-03-14T14:38:25Z</time>
      </trkpt>
      <trkpt lat="43.2893078774" lon="-8.5715529509">
        <ele>45.76</ele>
        <time>2020-03-14T14:38:26Z</time>
      </trkpt>
      <trkpt lat="43.2892346196" lon="-8.5714579839">
        <ele>46.19</ele>
        <time>2020-03-14T14:38:30Z</time>
      </trkpt>
      <trkpt lat="43.2892158441" lon="-8.5714356042">
        <ele>46.23</ele>
        <time>2020-03-14T14:38:31Z</time>
      </trkpt>
      <trkpt lat="43.2891901117" lon="-8.5714135598">
        <ele>46.25</ele>
        <time>2020-03-14T14:38:32Z</time>
      </trkpt>
      <trkpt lat="43.2891645469" lon="-8.5713985562">
        <ele>46.26</ele>
        <time>2020-03-14T14:38:33Z</time>
      </trkpt>
      <trkpt lat="43.2891360484" lon="-8.5713814571">
        <ele>46.27</ele>
        <time>2020-03-14T14:38:34Z</time>
      </trkpt>
      <trkpt lat="43.2889681589" lon="-8.5712878313">
        <ele>45.38</ele>
        <time>2020-03-14T14:38:44Z</time>
      </trkpt>
      <trkpt lat="43.2888929732" lon="-8.5712156631">
        <ele>45.27</ele>
        <time>2020-03-14T14:38:48Z</time>
      </trkpt>
      <trkpt lat="43.2888658158" lon="-8.5711798724">
        <ele>45.21</ele>
        <time>2020-03-14T14:38:50Z</time>
      </trkpt>
      <trkpt lat="43.2886245847" lon="-8.5710007511">
        <ele>44.61</ele>
        <time>2020-03-14T14:39:01Z</time>
      </trkpt>
      <trkpt lat="43.2885452919" lon="-8.5706468672">
        <ele>44.31</ele>
        <time>2020-03-14T14:39:12Z</time>
      </trkpt>
      <trkpt lat="43.2885969244" lon="-8.5703095794">
        <ele>45.04</ele>
        <time>2020-03-14T14:39:21Z</time>
      </trkpt>
      <trkpt lat="43.2886784803" lon="-8.5701256804">
        <ele>45.61</ele>
        <time>2020-03-14T14:39:26Z</time>
      </trkpt>
      <trkpt lat="43.2887658197" lon="-8.5698351637">
        <ele>45.89</ele>
        <time>2020-03-14T14:39:32Z</time>
      </trkpt>
      <trkpt lat="43.2889119163" lon="-8.5695147235">
        <ele>45.34</ele>
        <time>2020-03-14T14:39:40Z</time>
      </trkpt>
      <trkpt lat="43.2892038580" lon="-8.5692511965">
        <ele>46.40</ele>
        <time>2020-03-14T14:39:52Z</time>
      </trkpt>
      <trkpt lat="43.2892696559" lon="-8.5689362045">
        <ele>48.46</ele>
        <time>2020-03-14T14:40:00Z</time>
      </trkpt>
      <trkpt lat="43.2893102244" lon="-8.5688710772">
        <ele>48.75</ele>
        <time>2020-03-14T14:40:02Z</time>
      </trkpt>
      <trkpt lat="43.2893310115" lon="-8.5688057821">
        <ele>48.92</ele>
        <time>2020-03-14T14:40:04Z</time>
      </trkpt>
      <trkpt lat="43.2893353701" lon="-8.5687672254">
        <ele>48.96</ele>
        <time>2020-03-14T14:40:05Z</time>
      </trkpt>
      <trkpt lat="43.2893866673" lon="-8.5683743656">
        <ele>48.93</ele>
        <time>2020-03-14T14:40:15Z</time>
      </trkpt>
      <trkpt lat="43.2893943787" lon="-8.5683154408">
        <ele>48.89</ele>
        <time>2020-03-14T14:40:16Z</time>
      </trkpt>
      <trkpt lat="43.2894032635" lon="-8.5682556778">
        <ele>48.85</ele>
        <time>2020-03-14T14:40:17Z</time>
      </trkpt>
      <trkpt lat="43.2894241344" lon="-8.5681390855">
        <ele>48.71</ele>
        <time>2020-03-14T14:40:19Z</time>
      </trkpt>
      <trkpt lat="43.2894542255" lon="-8.5680328030">
        <ele>48.56</ele>
        <time>2020-03-14T14:40:21Z</time>
      </trkpt>
      <trkpt lat="43.2895928621" lon="-8.5677883867">
        <ele>45.38</ele>
        <time>2020-03-14T14:40:28Z</time>
      </trkpt>
      <trkpt lat="43.2895759307" lon="-8.5677467287">
        <ele>43.45</ele>
        <time>2020-03-14T14:40:31Z</time>
      </trkpt>
      <trkpt lat="43.2894970570" lon="-8.5677287914">
        <ele>42.12</ele>
        <time>2020-03-14T14:40:33Z</time>
      </trkpt>
      <trkpt lat="43.2892011758" lon="-8.5677039810">
        <ele>39.73</ele>
        <time>2020-03-14T14:40:40Z</time>
      </trkpt>
      <trkpt lat="43.2890456077" lon="-8.5674404539">
        <ele>35.81</ele>
        <time>2020-03-14T14:40:47Z</time>
      </trkpt>
      <trkpt lat="43.2890873495" lon="-8.5671481770">
        <ele>33.38</ele>
        <time>2020-03-14T14:40:52Z</time>
      </trkpt>
      <trkpt lat="43.2890827395" lon="-8.5670499410">
        <ele>31.65</ele>
        <time>2020-03-14T14:40:55Z</time>
      </trkpt>
      <trkpt lat="43.2890106551" lon="-8.5667973105">
        <ele>29.75</ele>
        <time>2020-03-14T14:41:04Z</time>
      </trkpt>
      <trkpt lat="43.2889517304" lon="-8.5665339511">
        <ele>28.55</ele>
        <time>2020-03-14T14:41:11Z</time>
      </trkpt>
      <trkpt lat="43.2889461983" lon="-8.5662077274">
        <ele>27.60</ele>
        <time>2020-03-14T14:41:17Z</time>
      </trkpt>
      <trkpt lat="43.2889234833" lon="-8.5658118501">
        <ele>26.81</ele>
        <time>2020-03-14T14:41:26Z</time>
      </trkpt>
      <trkpt lat="43.2889140118" lon="-8.5656203236">
        <ele>25.44</ele>
        <time>2020-03-14T14:41:31Z</time>
      </trkpt>
      <trkpt lat="43.2889221422" lon="-8.5654279590">
        <ele>24.78</ele>
        <time>2020-03-14T14:41:35Z</time>
      </trkpt>
      <trkpt lat="43.2888911292" lon="-8.5652640928">
        <ele>24.24</ele>
        <time>2020-03-14T14:41:38Z</time>
      </trkpt>
      <trkpt lat="43.2888550032" lon="-8.5647315066">
        <ele>22.06</ele>
        <time>2020-03-14T14:41:46Z</time>
      </trkpt>
      <trkpt lat="43.2888707612" lon="-8.5646742582">
        <ele>21.89</ele>
        <time>2020-03-14T14:41:47Z</time>
      </trkpt>
      <trkpt lat="43.2888964936" lon="-8.5646265652">
        <ele>21.56</ele>
        <time>2020-03-14T14:41:48Z</time>
      </trkpt>
      <trkpt lat="43.2889234833" lon="-8.5645828117">
        <ele>21.34</ele>
        <time>2020-03-14T14:41:49Z</time>
      </trkpt>
      <trkpt lat="43.2889548317" lon="-8.5645448416">
        <ele>21.07</ele>
        <time>2020-03-14T14:41:50Z</time>
      </trkpt>
      <trkpt lat="43.2889899518" lon="-8.5645115655">
        <ele>20.82</ele>
        <time>2020-03-14T14:41:51Z</time>
      </trkpt>
      <trkpt lat="43.2893364597" lon="-8.5641852580">
        <ele>20.15</ele>
        <time>2020-03-14T14:42:04Z</time>
      </trkpt>
      <trkpt lat="43.2893680595" lon="-8.5639933124">
        <ele>20.18</ele>
        <time>2020-03-14T14:42:08Z</time>
      </trkpt>
      <trkpt lat="43.2893789560" lon="-8.5639455356">
        <ele>20.18</ele>
        <time>2020-03-14T14:42:09Z</time>
      </trkpt>
      <trkpt lat="43.2893917803" lon="-8.5639121756">
        <ele>20.18</ele>
        <time>2020-03-14T14:42:10Z</time>
      </trkpt>
      <trkpt lat="43.2894040179" lon="-8.5638858564">
        <ele>20.18</ele>
        <time>2020-03-14T14:42:11Z</time>
      </trkpt>
      <trkpt lat="43.2894159202" lon="-8.5638618004">
        <ele>20.18</ele>
        <time>2020-03-14T14:42:12Z</time>
      </trkpt>
      <trkpt lat="43.2894277386" lon="-8.5638374928">
        <ele>20.18</ele>
        <time>2020-03-14T14:42:13Z</time>
      </trkpt>
      <trkpt lat="43.2894232124" lon="-8.5638065636">
        <ele>20.18</ele>
        <time>2020-03-14T14:42:14Z</time>
      </trkpt>
      <trkpt lat="43.2894581649" lon="-8.5637188051">
        <ele>19.87</ele>
        <time>2020-03-14T14:42:17Z</time>
      </trkpt>
      <trkpt lat="43.2894752640" lon="-8.5636882950">
        <ele>19.71</ele>
        <time>2020-03-14T14:42:18Z</time>
      </trkpt>
      <trkpt lat="43.2894934528" lon="-8.5636548512">
        <ele>19.62</ele>
        <time>2020-03-14T14:42:19Z</time>
      </trkpt>
      <trkpt lat="43.2895917725" lon="-8.5634353291">
        <ele>19.42</ele>
        <time>2020-03-14T14:42:29Z</time>
      </trkpt>
      <trkpt lat="43.2896311674" lon="-8.5632593092">
        <ele>19.35</ele>
        <time>2020-03-14T14:42:37Z</time>
      </trkpt>
      <trkpt lat="43.2896478474" lon="-8.5629754141">
        <ele>19.22</ele>
        <time>2020-03-14T14:42:42Z</time>
      </trkpt>
      <trkpt lat="43.2895274833" lon="-8.5626819637">
        <ele>17.88</ele>
        <time>2020-03-14T14:42:48Z</time>
      </trkpt>
      <trkpt lat="43.2895835582" lon="-8.5624260642">
        <ele>16.34</ele>
        <time>2020-03-14T14:42:53Z</time>
      </trkpt>
      <trkpt lat="43.2896432374" lon="-8.5623367969">
        <ele>15.97</ele>
        <time>2020-03-14T14:42:55Z</time>
      </trkpt>
      <trkpt lat="43.2897510286" lon="-8.5621544067">
        <ele>15.56</ele>
        <time>2020-03-14T14:42:59Z</time>
      </trkpt>
      <trkpt lat="43.2898130547" lon="-8.5620633792">
        <ele>15.37</ele>
        <time>2020-03-14T14:43:01Z</time>
      </trkpt>
      <trkpt lat="43.2900937647" lon="-8.5617385805">
        <ele>14.71</ele>
        <time>2020-03-14T14:43:11Z</time>
      </trkpt>
      <trkpt lat="43.2904110197" lon="-8.5616038833">
        <ele>14.49</ele>
        <time>2020-03-14T14:43:19Z</time>
      </trkpt>
      <trkpt lat="43.2905563619" lon="-8.5615810845">
        <ele>14.44</ele>
        <time>2020-03-14T14:43:22Z</time>
      </trkpt>
      <trkpt lat="43.2905950863" lon="-8.5615641531">
        <ele>14.39</ele>
        <time>2020-03-14T14:43:23Z</time>
      </trkpt>
      <trkpt lat="43.2906297036" lon="-8.5615384206">
        <ele>14.33</ele>
        <time>2020-03-14T14:43:24Z</time>
      </trkpt>
      <trkpt lat="43.2906637341" lon="-8.5615105089">
        <ele>14.30</ele>
        <time>2020-03-14T14:43:25Z</time>
      </trkpt>
      <trkpt lat="43.2906980161" lon="-8.5614761431">
        <ele>14.28</ele>
        <time>2020-03-14T14:43:26Z</time>
      </trkpt>
      <trkpt lat="43.2907304540" lon="-8.5614451300">
        <ele>14.28</ele>
        <time>2020-03-14T14:43:27Z</time>
      </trkpt>
      <trkpt lat="43.2907701842" lon="-8.5614110157">
        <ele>14.31</ele>
        <time>2020-03-14T14:43:28Z</time>
      </trkpt>
      <trkpt lat="43.2909574360" lon="-8.5612702835">
        <ele>14.41</ele>
        <time>2020-03-14T14:43:33Z</time>
      </trkpt>
      <trkpt lat="43.2911596075" lon="-8.5610451456">
        <ele>14.25</ele>
        <time>2020-03-14T14:43:39Z</time>
      </trkpt>
      <trkpt lat="43.2911960687" lon="-8.5610171501">
        <ele>14.20</ele>
        <time>2020-03-14T14:43:40Z</time>
      </trkpt>
      <trkpt lat="43.2913830690" lon="-8.5608911701">
        <ele>14.10</ele>
        <time>2020-03-14T14:43:45Z</time>
      </trkpt>
      <trkpt lat="43.2915180176" lon="-8.5607516114">
        <ele>13.98</ele>
        <time>2020-03-14T14:43:49Z</time>
      </trkpt>
      <trkpt lat="43.2915943768" lon="-8.5606972128">
        <ele>13.93</ele>
        <time>2020-03-14T14:43:51Z</time>
      </trkpt>
      <trkpt lat="43.2918289863" lon="-8.5605429858">
        <ele>13.84</ele>
        <time>2020-03-14T14:43:57Z</time>
      </trkpt>
      <trkpt lat="43.2918610051" lon="-8.5605135653">
        <ele>13.81</ele>
        <time>2020-03-14T14:43:58Z</time>
      </trkpt>
      <trkpt lat="43.2918931078" lon="-8.5604800377">
        <ele>13.80</ele>
        <time>2020-03-14T14:43:59Z</time>
      </trkpt>
      <trkpt lat="43.2920865621" lon="-8.5599452723">
        <ele>13.82</ele>
        <time>2020-03-14T14:44:11Z</time>
      </trkpt>
      <trkpt lat="43.2921164855" lon="-8.5597348865">
        <ele>14.18</ele>
        <time>2020-03-14T14:44:15Z</time>
      </trkpt>
      <trkpt lat="43.2924479060" lon="-8.5587707162">
        <ele>14.80</ele>
        <time>2020-03-14T14:44:35Z</time>
      </trkpt>
      <trkpt lat="43.2925147098" lon="-8.5586685408">
        <ele>14.91</ele>
        <time>2020-03-14T14:44:38Z</time>
      </trkpt>
      <trkpt lat="43.2925499976" lon="-8.5586603265">
        <ele>14.92</ele>
        <time>2020-03-14T14:44:39Z</time>
      </trkpt>
      <trkpt lat="43.2925879676" lon="-8.5586647689">
        <ele>14.92</ele>
        <time>2020-03-14T14:44:40Z</time>
      </trkpt>
      <trkpt lat="43.2933909539" lon="-8.5589526873">
        <ele>15.08</ele>
        <time>2020-03-14T14:45:01Z</time>
      </trkpt>
      <trkpt lat="43.2938683033" lon="-8.5590409487">
        <ele>16.66</ele>
        <time>2020-03-14T14:45:17Z</time>
      </trkpt>
      <trkpt lat="43.2942770887" lon="-8.5588081833">
        <ele>19.90</ele>
        <time>2020-03-14T14:45:33Z</time>
      </trkpt>
      <trkpt lat="43.2946738880" lon="-8.5584360268">
        <ele>22.57</ele>
        <time>2020-03-14T14:45:50Z</time>
      </trkpt>
      <trkpt lat="43.2950361539" lon="-8.5583405569">
        <ele>25.72</ele>
        <time>2020-03-14T14:46:05Z</time>
      </trkpt>
      <trkpt lat="43.2954914588" lon="-8.5581140779">
        <ele>28.58</ele>
        <time>2020-03-14T14:46:24Z</time>
      </trkpt>
      <trkpt lat="43.2958758529" lon="-8.5580578353">
        <ele>31.73</ele>
        <time>2020-03-14T14:46:40Z</time>
      </trkpt>
      <trkpt lat="43.2961957064" lon="-8.5580329411">
        <ele>34.77</ele>
        <time>2020-03-14T14:46:54Z</time>
      </trkpt>
      <trkpt lat="43.2964295615" lon="-8.5580414068">
        <ele>38.04</ele>
        <time>2020-03-14T14:47:05Z</time>
      </trkpt>
      <trkpt lat="43.2964832895" lon="-8.5580486152">
        <ele>41.04</ele>
        <time>2020-03-14T14:47:18Z</time>
      </trkpt>
      <trkpt lat="43.2964725606" lon="-8.5580155067">
        <ele>42.13</ele>
        <time>2020-03-14T14:48:17Z</time>
      </trkpt>
      <trkpt lat="43.2964718901" lon="-8.5579924565">
        <ele>42.13</ele>
        <time>2020-03-14T14:48:18Z</time>
      </trkpt>
      <trkpt lat="43.2964723092" lon="-8.5579665564">
        <ele>42.12</ele>
        <time>2020-03-14T14:48:19Z</time>
      </trkpt>
      <trkpt lat="43.2964780089" lon="-8.5579347890">
        <ele>42.10</ele>
        <time>2020-03-14T14:48:20Z</time>
      </trkpt>
      <trkpt lat="43.2964811940" lon="-8.5578999203">
        <ele>42.06</ele>
        <time>2020-03-14T14:48:21Z</time>
      </trkpt>
      <trkpt lat="43.2964837924" lon="-8.5578625370">
        <ele>42.04</ele>
        <time>2020-03-14T14:48:22Z</time>
      </trkpt>
      <trkpt lat="43.2964899950" lon="-8.5578230582">
        <ele>42.02</ele>
        <time>2020-03-14T14:48:23Z</time>
      </trkpt>
      <trkpt lat="43.2964951918" lon="-8.5577729344">
        <ele>42.01</ele>
        <time>2020-03-14T14:48:24Z</time>
      </trkpt>
      <trkpt lat="43.2965394482" lon="-8.5575900413">
        <ele>41.94</ele>
        <time>2020-03-14T14:48:27Z</time>
      </trkpt>
      <trkpt lat="43.2966051623" lon="-8.5569103528">
        <ele>41.16</ele>
        <time>2020-03-14T14:48:34Z</time>
      </trkpt>
      <trkpt lat="43.2966551185" lon="-8.5563718155">
        <ele>37.37</ele>
        <time>2020-03-14T14:48:39Z</time>
      </trkpt>
      <trkpt lat="43.2966837846" lon="-8.5560024250">
        <ele>33.86</ele>
        <time>2020-03-14T14:48:43Z</time>
      </trkpt>
      <trkpt lat="43.2965845428" lon="-8.5556188691">
        <ele>30.00</ele>
        <time>2020-03-14T14:48:50Z</time>
      </trkpt>
      <trkpt lat="43.2965638395" lon="-8.5549373366">
        <ele>28.74</ele>
        <time>2020-03-14T14:48:58Z</time>
      </trkpt>
      <trkpt lat="43.2965588942" lon="-8.5542287305">
        <ele>25.32</ele>
        <time>2020-03-14T14:49:04Z</time>
      </trkpt>
      <trkpt lat="43.2965398673" lon="-8.5539363697">
        <ele>21.82</ele>
        <time>2020-03-14T14:49:07Z</time>
      </trkpt>
      <trkpt lat="43.2965384424" lon="-8.5537600145">
        <ele>18.45</ele>
        <time>2020-03-14T14:49:10Z</time>
      </trkpt>
      <trkpt lat="43.2965742331" lon="-8.5536715854">
        <ele>16.73</ele>
        <time>2020-03-14T14:49:12Z</time>
      </trkpt>
      <trkpt lat="43.2967980299" lon="-8.5533723515">
        <ele>14.38</ele>
        <time>2020-03-14T14:49:21Z</time>
      </trkpt>
      <trkpt lat="43.2966024801" lon="-8.5531147756">
        <ele>11.12</ele>
        <time>2020-03-14T14:49:27Z</time>
      </trkpt>
      <trkpt lat="43.2964831218" lon="-8.5528029688">
        <ele>6.23</ele>
        <time>2020-03-14T14:49:34Z</time>
      </trkpt>
      <trkpt lat="43.2966906577" lon="-8.5522231087">
        <ele>3.63</ele>
        <time>2020-03-14T14:49:46Z</time>
      </trkpt>
      <trkpt lat="43.2968079206" lon="-8.5520078614">
        <ele>3.88</ele>
        <time>2020-03-14T14:49:54Z</time>
      </trkpt>
      <trkpt lat="43.2970811706" lon="-8.5520316660">
        <ele>4.07</ele>
        <time>2020-03-14T14:50:01Z</time>
      </trkpt>
      <trkpt lat="43.2972356491" lon="-8.5520149022">
        <ele>3.69</ele>
        <time>2020-03-14T14:50:12Z</time>
      </trkpt>
      <trkpt lat="43.2974665705" lon="-8.5519325919">
        <ele>2.52</ele>
        <time>2020-03-14T14:50:28Z</time>
      </trkpt>
      <trkpt lat="43.2976603601" lon="-8.5517438315">
        <ele>1.23</ele>
        <time>2020-03-14T14:50:38Z</time>
      </trkpt>
      <trkpt lat="43.2980491966" lon="-8.5517334379">
        <ele>1.49</ele>
        <time>2020-03-14T14:50:50Z</time>
      </trkpt>
      <trkpt lat="43.2983001508" lon="-8.5515126586">
        <ele>1.40</ele>
        <time>2020-03-14T14:50:58Z</time>
      </trkpt>
      <trkpt lat="43.2986065093" lon="-8.5512280930">
        <ele>0.71</ele>
        <time>2020-03-14T14:51:07Z</time>
      </trkpt>
      <trkpt lat="43.2988102734" lon="-8.5511178710">
        <ele>0.49</ele>
        <time>2020-03-14T14:51:12Z</time>
      </trkpt>
      <trkpt lat="43.2989738882" lon="-8.5510550905">
        <ele>0.35</ele>
        <time>2020-03-14T14:51:21Z</time>
      </trkpt>
      <trkpt lat="43.2989492454" lon="-8.5510307830">
        <ele>-0.65</ele>
        <time>2020-03-14T14:51:37Z</time>
      </trkpt>
      <trkpt lat="43.2989457250" lon="-8.5510296095">
        <ele>0.82</ele>
        <time>2020-03-14T14:51:41Z</time>
      </trkpt>
      <trkpt lat="43.2989462279" lon="-8.5510218143">
        <ele>0.72</ele>
        <time>2020-03-14T14:52:17Z</time>
      </trkpt>
      <trkpt lat="43.2989812642" lon="-8.5510592815">
        <ele>0.97</ele>
        <time>2020-03-14T14:54:07Z</time>
      </trkpt>
      <trkpt lat="43.2990098465" lon="-8.5510678310">
        <ele>1.02</ele>
        <time>2020-03-14T14:54:14Z</time>
      </trkpt>
      <trkpt lat="43.2991586253" lon="-8.5510298610">
        <ele>1.02</ele>
        <time>2020-03-14T14:54:20Z</time>
      </trkpt>
      <trkpt lat="43.2991686836" lon="-8.5509990994">
        <ele>1.02</ele>
        <time>2020-03-14T14:54:21Z</time>
      </trkpt>
      <trkpt lat="43.2991629001" lon="-8.5509562679">
        <ele>1.02</ele>
        <time>2020-03-14T14:54:22Z</time>
      </trkpt>
      <trkpt lat="43.2991513330" lon="-8.5509176273">
        <ele>1.03</ele>
        <time>2020-03-14T14:54:23Z</time>
      </trkpt>
      <trkpt lat="43.2991394307" lon="-8.5508777294">
        <ele>1.03</ele>
        <time>2020-03-14T14:54:24Z</time>
      </trkpt>
      <trkpt lat="43.2989475690" lon="-8.5505259410">
        <ele>1.25</ele>
        <time>2020-03-14T14:54:37Z</time>
      </trkpt>
      <trkpt lat="43.2986242790" lon="-8.5503432993">
        <ele>3.65</ele>
        <time>2020-03-14T14:54:50Z</time>
      </trkpt>
      <trkpt lat="43.2985812798" lon="-8.5502628330">
        <ele>4.10</ele>
        <time>2020-03-14T14:54:52Z</time>
      </trkpt>
      <trkpt lat="43.2985794358" lon="-8.5502166487">
        <ele>4.25</ele>
        <time>2020-03-14T14:54:53Z</time>
      </trkpt>
      <trkpt lat="43.2985856384" lon="-8.5501762480">
        <ele>4.36</ele>
        <time>2020-03-14T14:54:54Z</time>
      </trkpt>
      <trkpt lat="43.2985941041" lon="-8.5501397029">
        <ele>4.46</ele>
        <time>2020-03-14T14:54:55Z</time>
      </trkpt>
      <trkpt lat="43.2986003067" lon="-8.5501041636">
        <ele>4.52</ele>
        <time>2020-03-14T14:54:56Z</time>
      </trkpt>
      <trkpt lat="43.2986048330" lon="-8.5500695463">
        <ele>4.66</ele>
        <time>2020-03-14T14:54:57Z</time>
      </trkpt>
      <trkpt lat="43.2987604011" lon="-8.5497698095">
        <ele>5.97</ele>
        <time>2020-03-14T14:55:07Z</time>
      </trkpt>
      <trkpt lat="43.2992424443" lon="-8.5495057795">
        <ele>6.28</ele>
        <time>2020-03-14T14:55:21Z</time>
      </trkpt>
      <trkpt lat="43.2994196378" lon="-8.5493445955">
        <ele>6.34</ele>
        <time>2020-03-14T14:55:26Z</time>
      </trkpt>
      <trkpt lat="43.2994448673" lon="-8.5492989141">
        <ele>6.30</ele>
        <time>2020-03-14T14:55:27Z</time>
      </trkpt>
      <trkpt lat="43.2994603738" lon="-8.5492461920">
        <ele>6.27</ele>
        <time>2020-03-14T14:55:28Z</time>
      </trkpt>
      <trkpt lat="43.2994600385" lon="-8.5491896980">
        <ele>6.25</ele>
        <time>2020-03-14T14:55:29Z</time>
      </trkpt>
      <trkpt lat="43.2994443644" lon="-8.5491368081">
        <ele>6.23</ele>
        <time>2020-03-14T14:55:30Z</time>
      </trkpt>
      <trkpt lat="43.2994224876" lon="-8.5490891151">
        <ele>6.22</ele>
        <time>2020-03-14T14:55:31Z</time>
      </trkpt>
      <trkpt lat="43.2993834279" lon="-8.5488936491">
        <ele>6.34</ele>
        <time>2020-03-14T14:55:35Z</time>
      </trkpt>
      <trkpt lat="43.2994078193" lon="-8.5488568526">
        <ele>6.35</ele>
        <time>2020-03-14T14:55:36Z</time>
      </trkpt>
      <trkpt lat="43.2994412631" lon="-8.5488364846">
        <ele>6.35</ele>
        <time>2020-03-14T14:55:37Z</time>
      </trkpt>
      <trkpt lat="43.2994776405" lon="-8.5488269292">
        <ele>6.31</ele>
        <time>2020-03-14T14:55:38Z</time>
      </trkpt>
      <trkpt lat="43.2995142695" lon="-8.5488183796">
        <ele>6.26</ele>
        <time>2020-03-14T14:55:39Z</time>
      </trkpt>
      <trkpt lat="43.2995508984" lon="-8.5488066450">
        <ele>6.20</ele>
        <time>2020-03-14T14:55:40Z</time>
      </trkpt>
      <trkpt lat="43.2999621145" lon="-8.5485811718">
        <ele>6.81</ele>
        <time>2020-03-14T14:55:53Z</time>
      </trkpt>
      <trkpt lat="43.3002093807" lon="-8.5482742265">
        <ele>9.10</ele>
        <time>2020-03-14T14:56:06Z</time>
      </trkpt>
      <trkpt lat="43.3004916832" lon="-8.5479643475">
        <ele>11.57</ele>
        <time>2020-03-14T14:56:22Z</time>
      </trkpt>
      <trkpt lat="43.3006065991" lon="-8.5474718269">
        <ele>14.77</ele>
        <time>2020-03-14T14:56:38Z</time>
      </trkpt>
      <trkpt lat="43.3006615844" lon="-8.5470017698">
        <ele>17.97</ele>
        <time>2020-03-14T14:56:53Z</time>
      </trkpt>
      <trkpt lat="43.3009038214" lon="-8.5465002805">
        <ele>19.43</ele>
        <time>2020-03-14T14:57:10Z</time>
      </trkpt>
      <trkpt lat="43.3011717908" lon="-8.5459578875">
        <ele>22.40</ele>
        <time>2020-03-14T14:57:30Z</time>
      </trkpt>
      <trkpt lat="43.3014841005" lon="-8.5454783589">
        <ele>25.11</ele>
        <time>2020-03-14T14:57:49Z</time>
      </trkpt>
      <trkpt lat="43.3018137608" lon="-8.5452275723">
        <ele>28.11</ele>
        <time>2020-03-14T14:58:05Z</time>
      </trkpt>
      <trkpt lat="43.3018618729" lon="-8.5451312643">
        <ele>29.40</ele>
        <time>2020-03-14T14:58:09Z</time>
      </trkpt>
      <trkpt lat="43.3018453605" lon="-8.5450973175">
        <ele>29.83</ele>
        <time>2020-03-14T14:58:11Z</time>
      </trkpt>
      <trkpt lat="43.3018247411" lon="-8.5450766981">
        <ele>30.09</ele>
        <time>2020-03-14T14:58:12Z</time>
      </trkpt>
      <trkpt lat="43.3018009365" lon="-8.5450554918">
        <ele>30.43</ele>
        <time>2020-03-14T14:58:13Z</time>
      </trkpt>
      <trkpt lat="43.3017786406" lon="-8.5450324416">
        <ele>30.75</ele>
        <time>2020-03-14T14:58:14Z</time>
      </trkpt>
      <trkpt lat="43.3017598651" lon="-8.5450063739">
        <ele>31.02</ele>
        <time>2020-03-14T14:58:15Z</time>
      </trkpt>
      <trkpt lat="43.3017408382" lon="-8.5449769534">
        <ele>31.24</ele>
        <time>2020-03-14T14:58:16Z</time>
      </trkpt>
      <trkpt lat="43.3015597053" lon="-8.5445281863">
        <ele>33.51</ele>
        <time>2020-03-14T14:58:31Z</time>
      </trkpt>
      <trkpt lat="43.3015727811" lon="-8.5444963351">
        <ele>33.64</ele>
        <time>2020-03-14T14:58:32Z</time>
      </trkpt>
      <trkpt lat="43.3015928138" lon="-8.5444674175">
        <ele>33.92</ele>
        <time>2020-03-14T14:58:33Z</time>
      </trkpt>
      <trkpt lat="43.3016804047" lon="-8.5442442074">
        <ele>34.77</ele>
        <time>2020-03-14T14:58:41Z</time>
      </trkpt>
      <trkpt lat="43.3016766328" lon="-8.5439547803">
        <ele>36.38</ele>
        <time>2020-03-14T14:58:50Z</time>
      </trkpt>
      <trkpt lat="43.3016958274" lon="-8.5439409502">
        <ele>36.55</ele>
        <time>2020-03-14T14:58:51Z</time>
      </trkpt>
      <trkpt lat="43.3019056264" lon="-8.5438619088">
        <ele>39.74</ele>
        <time>2020-03-14T14:59:02Z</time>
      </trkpt>
      <trkpt lat="43.3020926267" lon="-8.5437158961">
        <ele>43.01</ele>
        <time>2020-03-14T14:59:13Z</time>
      </trkpt>
      <trkpt lat="43.3022120688" lon="-8.5434612539">
        <ele>46.62</ele>
        <time>2020-03-14T14:59:25Z</time>
      </trkpt>
      <trkpt lat="43.3022264019" lon="-8.5433884989">
        <ele>47.69</ele>
        <time>2020-03-14T14:59:28Z</time>
      </trkpt>
      <trkpt lat="43.3022275753" lon="-8.5433638562">
        <ele>47.99</ele>
        <time>2020-03-14T14:59:29Z</time>
      </trkpt>
      <trkpt lat="43.3023810480" lon="-8.5432428215">
        <ele>50.80</ele>
        <time>2020-03-14T14:59:40Z</time>
      </trkpt>
      <trkpt lat="43.3025622647" lon="-8.5432378761">
        <ele>53.85</ele>
        <time>2020-03-14T14:59:50Z</time>
      </trkpt>
      <trkpt lat="43.3027734049" lon="-8.5432307515">
        <ele>56.96</ele>
        <time>2020-03-14T15:00:01Z</time>
      </trkpt>
      <trkpt lat="43.3029946871" lon="-8.5431832261">
        <ele>60.08</ele>
        <time>2020-03-14T15:00:14Z</time>
      </trkpt>
      <trkpt lat="43.3031591401" lon="-8.5430992395">
        <ele>63.11</ele>
        <time>2020-03-14T15:00:24Z</time>
      </trkpt>
      <trkpt lat="43.3033381775" lon="-8.5429328587">
        <ele>66.18</ele>
        <time>2020-03-14T15:00:35Z</time>
      </trkpt>
      <trkpt lat="43.3034308814" lon="-8.5427256580">
        <ele>69.14</ele>
        <time>2020-03-14T15:00:46Z</time>
      </trkpt>
      <trkpt lat="43.3034259360" lon="-8.5426543280">
        <ele>70.38</ele>
        <time>2020-03-14T15:00:49Z</time>
      </trkpt>
      <trkpt lat="43.3034295402" lon="-8.5426327027">
        <ele>70.76</ele>
        <time>2020-03-14T15:00:50Z</time>
      </trkpt>
      <trkpt lat="43.3034364972" lon="-8.5426105745">
        <ele>71.02</ele>
        <time>2020-03-14T15:00:51Z</time>
      </trkpt>
      <trkpt lat="43.3034422807" lon="-8.5425855964">
        <ele>71.31</ele>
        <time>2020-03-14T15:00:52Z</time>
      </trkpt>
      <trkpt lat="43.3034489863" lon="-8.5425607022">
        <ele>71.55</ele>
        <time>2020-03-14T15:00:53Z</time>
      </trkpt>
      <trkpt lat="43.3034565300" lon="-8.5425389931">
        <ele>71.91</ele>
        <time>2020-03-14T15:00:54Z</time>
      </trkpt>
      <trkpt lat="43.3034676779" lon="-8.5425178707">
        <ele>72.19</ele>
        <time>2020-03-14T15:00:55Z</time>
      </trkpt>
      <trkpt lat="43.3034827653" lon="-8.5424978379">
        <ele>72.57</ele>
        <time>2020-03-14T15:00:56Z</time>
      </trkpt>
      <trkpt lat="43.3034980204" lon="-8.5424783081">
        <ele>72.96</ele>
        <time>2020-03-14T15:00:57Z</time>
      </trkpt>
      <trkpt lat="43.3035122696" lon="-8.5424598679">
        <ele>73.30</ele>
        <time>2020-03-14T15:00:58Z</time>
      </trkpt>
      <trkpt lat="43.3035259321" lon="-8.5424421821">
        <ele>73.57</ele>
        <time>2020-03-14T15:00:59Z</time>
      </trkpt>
      <trkpt lat="43.3035434503" lon="-8.5424293578">
        <ele>73.77</ele>
        <time>2020-03-14T15:01:00Z</time>
      </trkpt>
      <trkpt lat="43.3036971744" lon="-8.5423543397">
        <ele>76.82</ele>
        <time>2020-03-14T15:01:10Z</time>
      </trkpt>
      <trkpt lat="43.3039168641" lon="-8.5422480572">
        <ele>79.64</ele>
        <time>2020-03-14T15:01:21Z</time>
      </trkpt>
      <trkpt lat="43.3041803073" lon="-8.5422116797">
        <ele>82.11</ele>
        <time>2020-03-14T15:01:35Z</time>
      </trkpt>
      <trkpt lat="43.3045644499" lon="-8.5421568621">
        <ele>85.13</ele>
        <time>2020-03-14T15:01:54Z</time>
      </trkpt>
      <trkpt lat="43.3047993947" lon="-8.5421021283">
        <ele>88.26</ele>
        <time>2020-03-14T15:02:06Z</time>
      </trkpt>
      <trkpt lat="43.3051196672" lon="-8.5420880467">
        <ele>91.59</ele>
        <time>2020-03-14T15:02:21Z</time>
      </trkpt>
      <trkpt lat="43.3052145503" lon="-8.5420711990">
        <ele>92.49</ele>
        <time>2020-03-14T15:02:26Z</time>
      </trkpt>
      <trkpt lat="43.3054401074" lon="-8.5419460572">
        <ele>94.34</ele>
        <time>2020-03-14T15:02:39Z</time>
      </trkpt>
      <trkpt lat="43.3054485731" lon="-8.5419365019">
        <ele>96.97</ele>
        <time>2020-03-14T15:04:29Z</time>
      </trkpt>
      <trkpt lat="43.3054743893" lon="-8.5418889765">
        <ele>97.91</ele>
        <time>2020-03-14T15:05:31Z</time>
      </trkpt>
      <trkpt lat="43.3055541851" lon="-8.5418391041">
        <ele>98.23</ele>
        <time>2020-03-14T15:05:41Z</time>
      </trkpt>
      <trkpt lat="43.3056390937" lon="-8.5417928360">
        <ele>100.11</ele>
        <time>2020-03-14T15:05:56Z</time>
      </trkpt>
      <trkpt lat="43.3058406785" lon="-8.5416586418">
        <ele>101.26</ele>
        <time>2020-03-14T15:06:09Z</time>
      </trkpt>
      <trkpt lat="43.3061077259" lon="-8.5415178258">
        <ele>104.46</ele>
        <time>2020-03-14T15:06:23Z</time>
      </trkpt>
      <trkpt lat="43.3061793074" lon="-8.5414722282">
        <ele>105.46</ele>
        <time>2020-03-14T15:06:27Z</time>
      </trkpt>
      <trkpt lat="43.3062432613" lon="-8.5414273012">
        <ele>106.16</ele>
        <time>2020-03-14T15:06:31Z</time>
      </trkpt>
      <trkpt lat="43.3064400684" lon="-8.5412965436">
        <ele>108.77</ele>
        <time>2020-03-14T15:06:43Z</time>
      </trkpt>
      <trkpt lat="43.3064730093" lon="-8.5412696376">
        <ele>109.19</ele>
        <time>2020-03-14T15:06:45Z</time>
      </trkpt>
      <trkpt lat="43.3066272363" lon="-8.5411663726">
        <ele>110.97</ele>
        <time>2020-03-14T15:06:53Z</time>
      </trkpt>
      <trkpt lat="43.3067912702" lon="-8.5410496965">
        <ele>113.01</ele>
        <time>2020-03-14T15:07:04Z</time>
      </trkpt>
      <trkpt lat="43.3069939446" lon="-8.5408727545">
        <ele>114.53</ele>
        <time>2020-03-14T15:07:17Z</time>
      </trkpt>
      <trkpt lat="43.3071772568" lon="-8.5407206230">
        <ele>117.59</ele>
        <time>2020-03-14T15:07:27Z</time>
      </trkpt>
      <trkpt lat="43.3073779196" lon="-8.5406224709">
        <ele>120.47</ele>
        <time>2020-03-14T15:07:41Z</time>
      </trkpt>
      <trkpt lat="43.3073931746" lon="-8.5406177770">
        <ele>120.71</ele>
        <time>2020-03-14T15:07:42Z</time>
      </trkpt>
      <trkpt lat="43.3075059950" lon="-8.5406011809">
        <ele>122.22</ele>
        <time>2020-03-14T15:07:47Z</time>
      </trkpt>
      <trkpt lat="43.3075399417" lon="-8.5405811481">
        <ele>122.59</ele>
        <time>2020-03-14T15:07:49Z</time>
      </trkpt>
      <trkpt lat="43.3076765668" lon="-8.5404597782">
        <ele>124.71</ele>
        <time>2020-03-14T15:07:59Z</time>
      </trkpt>
      <trkpt lat="43.3078058995" lon="-8.5404130071">
        <ele>126.34</ele>
        <time>2020-03-14T15:08:13Z</time>
      </trkpt>
      <trkpt lat="43.3078752179" lon="-8.5403533280">
        <ele>127.24</ele>
        <time>2020-03-14T15:08:22Z</time>
      </trkpt>
      <trkpt lat="43.3079940733" lon="-8.5402432736">
        <ele>128.71</ele>
        <time>2020-03-14T15:08:34Z</time>
      </trkpt>
      <trkpt lat="43.3081151079" lon="-8.5401782300">
        <ele>131.11</ele>
        <time>2020-03-14T15:08:48Z</time>
      </trkpt>
      <trkpt lat="43.3082473744" lon="-8.5401035473">
        <ele>132.66</ele>
        <time>2020-03-14T15:09:01Z</time>
      </trkpt>
      <trkpt lat="43.3083891124" lon="-8.5400373302">
        <ele>134.93</ele>
        <time>2020-03-14T15:09:16Z</time>
      </trkpt>
      <trkpt lat="43.3084898628" lon="-8.5399613902">
        <ele>136.44</ele>
        <time>2020-03-14T15:09:30Z</time>
      </trkpt>
      <trkpt lat="43.3085373882" lon="-8.5399413574">
        <ele>137.38</ele>
        <time>2020-03-14T15:09:38Z</time>
      </trkpt>
      <trkpt lat="43.3087694831" lon="-8.5398515873">
        <ele>138.06</ele>
        <time>2020-03-14T15:09:50Z</time>
      </trkpt>
      <trkpt lat="43.3089499455" lon="-8.5398166347">
        <ele>139.49</ele>
        <time>2020-03-14T15:09:59Z</time>
      </trkpt>
      <trkpt lat="43.3092076052" lon="-8.5397644993">
        <ele>140.76</ele>
        <time>2020-03-14T15:10:10Z</time>
      </trkpt>
      <trkpt lat="43.3095137961" lon="-8.5396231804">
        <ele>142.02</ele>
        <time>2020-03-14T15:10:24Z</time>
      </trkpt>
      <trkpt lat="43.3096346632" lon="-8.5394563805">
        <ele>143.74</ele>
        <time>2020-03-14T15:10:33Z</time>
      </trkpt>
      <trkpt lat="43.3096147981" lon="-8.5393849667">
        <ele>144.25</ele>
        <time>2020-03-14T15:10:36Z</time>
      </trkpt>
      <trkpt lat="43.3095514309" lon="-8.5392029118">
        <ele>146.55</ele>
        <time>2020-03-14T15:10:47Z</time>
      </trkpt>
      <trkpt lat="43.3094718866" lon="-8.5389869940">
        <ele>149.16</ele>
        <time>2020-03-14T15:11:04Z</time>
      </trkpt>
      <trkpt lat="43.3093449846" lon="-8.5386919510">
        <ele>152.17</ele>
        <time>2020-03-14T15:11:27Z</time>
      </trkpt>
      <trkpt lat="43.3092554659" lon="-8.5384275857">
        <ele>154.79</ele>
        <time>2020-03-14T15:11:46Z</time>
      </trkpt>
      <trkpt lat="43.3091408014" lon="-8.5381565988">
        <ele>157.89</ele>
        <time>2020-03-14T15:12:07Z</time>
      </trkpt>
      <trkpt lat="43.3090463374" lon="-8.5379040521">
        <ele>160.96</ele>
        <time>2020-03-14T15:12:26Z</time>
      </trkpt>
      <trkpt lat="43.3090263885" lon="-8.5378492344">
        <ele>161.80</ele>
        <time>2020-03-14T15:12:30Z</time>
      </trkpt>
      <trkpt lat="43.3090197667" lon="-8.5377390124">
        <ele>163.99</ele>
        <time>2020-03-14T15:12:43Z</time>
      </trkpt>
      <trkpt lat="43.3090279810" lon="-8.5373597313">
        <ele>164.90</ele>
        <time>2020-03-14T15:12:57Z</time>
      </trkpt>
      <trkpt lat="43.3090457506" lon="-8.5372716375">
        <ele>165.19</ele>
        <time>2020-03-14T15:13:00Z</time>
      </trkpt>
      <trkpt lat="43.3090408053" lon="-8.5371403769">
        <ele>166.07</ele>
        <time>2020-03-14T15:13:04Z</time>
      </trkpt>
      <trkpt lat="43.3090664539" lon="-8.5369293205">
        <ele>167.71</ele>
        <time>2020-03-14T15:13:12Z</time>
      </trkpt>
      <trkpt lat="43.3090133965" lon="-8.5367128160">
        <ele>169.04</ele>
        <time>2020-03-14T15:13:21Z</time>
      </trkpt>
      <trkpt lat="43.3091448247" lon="-8.5364041943">
        <ele>170.24</ele>
        <time>2020-03-14T15:13:31Z</time>
      </trkpt>
      <trkpt lat="43.3091506921" lon="-8.5359884519">
        <ele>172.82</ele>
        <time>2020-03-14T15:13:45Z</time>
      </trkpt>
      <trkpt lat="43.3091108780" lon="-8.5357753839">
        <ele>175.52</ele>
        <time>2020-03-14T15:13:53Z</time>
      </trkpt>
      <trkpt lat="43.3091246244" lon="-8.5354619846">
        <ele>178.96</ele>
        <time>2020-03-14T15:14:05Z</time>
      </trkpt>
      <trkpt lat="43.3091226965" lon="-8.5354037303">
        <ele>179.46</ele>
        <time>2020-03-14T15:14:07Z</time>
      </trkpt>
      <trkpt lat="43.3091062680" lon="-8.5350599885">
        <ele>182.20</ele>
        <time>2020-03-14T15:14:19Z</time>
      </trkpt>
      <trkpt lat="43.3090309147" lon="-8.5345807951">
        <ele>185.20</ele>
        <time>2020-03-14T15:14:35Z</time>
      </trkpt>
      <trkpt lat="43.3088752627" lon="-8.5340177827">
        <ele>186.27</ele>
        <time>2020-03-14T15:14:51Z</time>
      </trkpt>
      <trkpt lat="43.3087101392" lon="-8.5334051494">
        <ele>185.15</ele>
        <time>2020-03-14T15:15:05Z</time>
      </trkpt>
      <trkpt lat="43.3086680621" lon="-8.5328999721">
        <ele>182.73</ele>
        <time>2020-03-14T15:15:16Z</time>
      </trkpt>
      <trkpt lat="43.3086540643" lon="-8.5326008219">
        <ele>179.22</ele>
        <time>2020-03-14T15:15:23Z</time>
      </trkpt>
      <trkpt lat="43.3086432517" lon="-8.5324174259">
        <ele>176.88</ele>
        <time>2020-03-14T15:15:28Z</time>
      </trkpt>
      <trkpt lat="43.3086148370" lon="-8.5322912782">
        <ele>173.77</ele>
        <time>2020-03-14T15:15:32Z</time>
      </trkpt>
      <trkpt lat="43.3085725084" lon="-8.5321094748">
        <ele>170.24</ele>
        <time>2020-03-14T15:15:38Z</time>
      </trkpt>
      <trkpt lat="43.3084725961" lon="-8.5320014320">
        <ele>167.49</ele>
        <time>2020-03-14T15:15:43Z</time>
      </trkpt>
      <trkpt lat="43.3084730152" lon="-8.5318298545">
        <ele>164.91</ele>
        <time>2020-03-14T15:15:48Z</time>
      </trkpt>
      <trkpt lat="43.3085933793" lon="-8.5314628109">
        <ele>161.29</ele>
        <time>2020-03-14T15:15:58Z</time>
      </trkpt>
      <trkpt lat="43.3085254859" lon="-8.5311443824">
        <ele>158.08</ele>
        <time>2020-03-14T15:16:05Z</time>
      </trkpt>
      <trkpt lat="43.3084758651" lon="-8.5309959389">
        <ele>156.78</ele>
        <time>2020-03-14T15:16:08Z</time>
      </trkpt>
      <trkpt lat="43.3083575126" lon="-8.5305574816">
        <ele>152.98</ele>
        <time>2020-03-14T15:16:18Z</time>
      </trkpt>
      <trkpt lat="43.3083714265" lon="-8.5304597486">
        <ele>151.31</ele>
        <time>2020-03-14T15:16:22Z</time>
      </trkpt>
      <trkpt lat="43.3084130846" lon="-8.5302937869">
        <ele>150.42</ele>
        <time>2020-03-14T15:16:26Z</time>
      </trkpt>
      <trkpt lat="43.3083157707" lon="-8.5299377237">
        <ele>149.64</ele>
        <time>2020-03-14T15:16:32Z</time>
      </trkpt>
      <trkpt lat="43.3082854282" lon="-8.5298754461">
        <ele>149.47</ele>
        <time>2020-03-14T15:16:33Z</time>
      </trkpt>
      <trkpt lat="43.3082473744" lon="-8.5298145935">
        <ele>149.24</ele>
        <time>2020-03-14T15:16:34Z</time>
      </trkpt>
      <trkpt lat="43.3079920616" lon="-8.5294265114">
        <ele>147.46</ele>
        <time>2020-03-14T15:16:41Z</time>
      </trkpt>
      <trkpt lat="43.3079696819" lon="-8.5293649882">
        <ele>147.08</ele>
        <time>2020-03-14T15:16:42Z</time>
      </trkpt>
      <trkpt lat="43.3079525828" lon="-8.5292998608">
        <ele>146.68</ele>
        <time>2020-03-14T15:16:43Z</time>
      </trkpt>
      <trkpt lat="43.3078988548" lon="-8.5290308855">
        <ele>145.67</ele>
        <time>2020-03-14T15:16:47Z</time>
      </trkpt>
      <trkpt lat="43.3078963403" lon="-8.5289619025">
        <ele>145.47</ele>
        <time>2020-03-14T15:16:48Z</time>
      </trkpt>
      <trkpt lat="43.3079010341" lon="-8.5288875550">
        <ele>145.23</ele>
        <time>2020-03-14T15:16:49Z</time>
      </trkpt>
      <trkpt lat="43.3079194743" lon="-8.5287405364">
        <ele>144.61</ele>
        <time>2020-03-14T15:16:51Z</time>
      </trkpt>
      <trkpt lat="43.3079313766" lon="-8.5286761634">
        <ele>144.37</ele>
        <time>2020-03-14T15:16:52Z</time>
      </trkpt>
      <trkpt lat="43.3079506550" lon="-8.5284793563">
        <ele>143.54</ele>
        <time>2020-03-14T15:16:55Z</time>
      </trkpt>
      <trkpt lat="43.3079514094" lon="-8.5284083616">
        <ele>143.32</ele>
        <time>2020-03-14T15:16:56Z</time>
      </trkpt>
      <trkpt lat="43.3079576958" lon="-8.5283353552">
        <ele>143.03</ele>
        <time>2020-03-14T15:16:57Z</time>
      </trkpt>
      <trkpt lat="43.3079660777" lon="-8.5282708984">
        <ele>142.57</ele>
        <time>2020-03-14T15:16:58Z</time>
      </trkpt>
      <trkpt lat="43.3079715259" lon="-8.5282026697">
        <ele>142.05</ele>
        <time>2020-03-14T15:16:59Z</time>
      </trkpt>
      <trkpt lat="43.3079636469" lon="-8.5280382168">
        <ele>140.76</ele>
        <time>2020-03-14T15:17:01Z</time>
      </trkpt>
      <trkpt lat="43.3079320472" lon="-8.5279594269">
        <ele>140.21</ele>
        <time>2020-03-14T15:17:02Z</time>
      </trkpt>
      <trkpt lat="43.3078931551" lon="-8.5278853308">
        <ele>139.58</ele>
        <time>2020-03-14T15:17:03Z</time>
      </trkpt>
      <trkpt lat="43.3078494854" lon="-8.5278139170">
        <ele>138.98</ele>
        <time>2020-03-14T15:17:04Z</time>
      </trkpt>
      <trkpt lat="43.3078021277" lon="-8.5277428385">
        <ele>138.44</ele>
        <time>2020-03-14T15:17:05Z</time>
      </trkpt>
      <trkpt lat="43.3076171391" lon="-8.5273887031">
        <ele>135.92</ele>
        <time>2020-03-14T15:17:10Z</time>
      </trkpt>
      <trkpt lat="43.3075641654" lon="-8.5272483900">
        <ele>133.99</ele>
        <time>2020-03-14T15:17:12Z</time>
      </trkpt>
      <trkpt lat="43.3075402770" lon="-8.5271836817">
        <ele>133.71</ele>
        <time>2020-03-14T15:17:13Z</time>
      </trkpt>
      <trkpt lat="43.3072997164" lon="-8.5261601675">
        <ele>132.41</ele>
        <time>2020-03-14T15:17:25Z</time>
      </trkpt>
      <trkpt lat="43.3072390314" lon="-8.5253257491">
        <ele>129.18</ele>
        <time>2020-03-14T15:17:34Z</time>
      </trkpt>
      <trkpt lat="43.3072455693" lon="-8.5252222326">
        <ele>128.96</ele>
        <time>2020-03-14T15:17:35Z</time>
      </trkpt>
      <trkpt lat="43.3072745707" lon="-8.5249511618">
        <ele>126.65</ele>
        <time>2020-03-14T15:17:38Z</time>
      </trkpt>
      <trkpt lat="43.3073238563" lon="-8.5247354116">
        <ele>122.94</ele>
        <time>2020-03-14T15:17:41Z</time>
      </trkpt>
      <trkpt lat="43.3073433023" lon="-8.5246735532">
        <ele>121.79</ele>
        <time>2020-03-14T15:17:42Z</time>
      </trkpt>
      <trkpt lat="43.3073636703" lon="-8.5246101022">
        <ele>120.71</ele>
        <time>2020-03-14T15:17:43Z</time>
      </trkpt>
      <trkpt lat="43.3074065857" lon="-8.5244688671">
        <ele>118.70</ele>
        <time>2020-03-14T15:17:45Z</time>
      </trkpt>
      <trkpt lat="43.3074423764" lon="-8.5244024824">
        <ele>117.94</ele>
        <time>2020-03-14T15:17:46Z</time>
      </trkpt>
      <trkpt lat="43.3075137064" lon="-8.5242630914">
        <ele>116.39</ele>
        <time>2020-03-14T15:17:48Z</time>
      </trkpt>
      <trkpt lat="43.3075402770" lon="-8.5241811164">
        <ele>115.39</ele>
        <time>2020-03-14T15:17:49Z</time>
      </trkpt>
      <trkpt lat="43.3075564541" lon="-8.5240889993">
        <ele>114.49</ele>
        <time>2020-03-14T15:17:50Z</time>
      </trkpt>
      <trkpt lat="43.3075623214" lon="-8.5236755200">
        <ele>111.10</ele>
        <time>2020-03-14T15:17:54Z</time>
      </trkpt>
      <trkpt lat="43.3074960206" lon="-8.5232166946">
        <ele>107.31</ele>
        <time>2020-03-14T15:17:58Z</time>
      </trkpt>
      <trkpt lat="43.3074604813" lon="-8.5226361640">
        <ele>103.61</ele>
        <time>2020-03-14T15:18:03Z</time>
      </trkpt>
      <trkpt lat="43.3074740600" lon="-8.5225235950">
        <ele>102.32</ele>
        <time>2020-03-14T15:18:04Z</time>
      </trkpt>
      <trkpt lat="43.3075023070" lon="-8.5224131215">
        <ele>100.86</ele>
        <time>2020-03-14T15:18:05Z</time>
      </trkpt>
      <trkpt lat="43.3075422887" lon="-8.5223080963">
        <ele>99.47</ele>
        <time>2020-03-14T15:18:06Z</time>
      </trkpt>
      <trkpt lat="43.3075935021" lon="-8.5222168174">
        <ele>98.18</ele>
        <time>2020-03-14T15:18:07Z</time>
      </trkpt>
      <trkpt lat="43.3076526783" lon="-8.5221357644">
        <ele>97.25</ele>
        <time>2020-03-14T15:18:08Z</time>
      </trkpt>
      <trkpt lat="43.3077111002" lon="-8.5220615845">
        <ele>96.17</ele>
        <time>2020-03-14T15:18:09Z</time>
      </trkpt>
      <trkpt lat="43.3079606295" lon="-8.5216678865">
        <ele>92.64</ele>
        <time>2020-03-14T15:18:14Z</time>
      </trkpt>
      <trkpt lat="43.3080576919" lon="-8.5213914514">
        <ele>91.35</ele>
        <time>2020-03-14T15:18:17Z</time>
      </trkpt>
      <trkpt lat="43.3080770541" lon="-8.5212969873">
        <ele>91.06</ele>
        <time>2020-03-14T15:18:18Z</time>
      </trkpt>
      <trkpt lat="43.3080986794" lon="-8.5212064628">
        <ele>90.89</ele>
        <time>2020-03-14T15:18:19Z</time>
      </trkpt>
      <trkpt lat="43.3081333805" lon="-8.5211223084">
        <ele>90.57</ele>
        <time>2020-03-14T15:18:20Z</time>
      </trkpt>
      <trkpt lat="43.3081797324" lon="-8.5210460331">
        <ele>90.10</ele>
        <time>2020-03-14T15:18:21Z</time>
      </trkpt>
      <trkpt lat="43.3082332090" lon="-8.5209778883">
        <ele>89.71</ele>
        <time>2020-03-14T15:18:22Z</time>
      </trkpt>
      <trkpt lat="43.3082897030" lon="-8.5209108330">
        <ele>89.37</ele>
        <time>2020-03-14T15:18:23Z</time>
      </trkpt>
      <trkpt lat="43.3087537251" lon="-8.5203458928">
        <ele>87.88</ele>
        <time>2020-03-14T15:18:31Z</time>
      </trkpt>
      <trkpt lat="43.3087928686" lon="-8.5203122813">
        <ele>87.43</ele>
        <time>2020-03-14T15:18:32Z</time>
      </trkpt>
      <trkpt lat="43.3088957146" lon="-8.5202415381">
        <ele>84.20</ele>
        <time>2020-03-14T15:18:37Z</time>
      </trkpt>
      <trkpt lat="43.3089965489" lon="-8.5199156497">
        <ele>83.19</ele>
        <time>2020-03-14T15:18:46Z</time>
      </trkpt>
      <trkpt lat="43.3090221975" lon="-8.5198696330">
        <ele>83.16</ele>
        <time>2020-03-14T15:18:47Z</time>
      </trkpt>
      <trkpt lat="43.3090615924" lon="-8.5198371951">
        <ele>83.08</ele>
        <time>2020-03-14T15:18:48Z</time>
      </trkpt>
      <trkpt lat="43.3091053460" lon="-8.5198208503">
        <ele>82.90</ele>
        <time>2020-03-14T15:18:49Z</time>
      </trkpt>
      <trkpt lat="43.3091489319" lon="-8.5198164079">
        <ele>82.58</ele>
        <time>2020-03-14T15:18:50Z</time>
      </trkpt>
      <trkpt lat="43.3091926016" lon="-8.5198192578">
        <ele>81.85</ele>
        <time>2020-03-14T15:18:51Z</time>
      </trkpt>
      <trkpt lat="43.3092367742" lon="-8.5198231973">
        <ele>81.85</ele>
        <time>2020-03-14T15:18:52Z</time>
      </trkpt>
      <trkpt lat="43.3096193243" lon="-8.5197516996">
        <ele>80.08</ele>
        <time>2020-03-14T15:19:01Z</time>
      </trkpt>
      <trkpt lat="43.3096622396" lon="-8.5197519511">
        <ele>80.07</ele>
        <time>2020-03-14T15:19:02Z</time>
      </trkpt>
      <trkpt lat="43.3099695202" lon="-8.5197993927">
        <ele>80.20</ele>
        <time>2020-03-14T15:19:09Z</time>
      </trkpt>
      <trkpt lat="43.3100030478" lon="-8.5198208503">
        <ele>80.22</ele>
        <time>2020-03-14T15:19:10Z</time>
      </trkpt>
      <trkpt lat="43.3100373298" lon="-8.5198453255">
        <ele>80.25</ele>
        <time>2020-03-14T15:19:11Z</time>
      </trkpt>
      <trkpt lat="43.3102607913" lon="-8.5201286338">
        <ele>80.79</ele>
        <time>2020-03-14T15:19:21Z</time>
      </trkpt>
      <trkpt lat="43.3103907108" lon="-8.5207131878">
        <ele>82.82</ele>
        <time>2020-03-14T15:19:32Z</time>
      </trkpt>
      <trkpt lat="43.3107932936" lon="-8.5214687325">
        <ele>81.07</ele>
        <time>2020-03-14T15:19:43Z</time>
      </trkpt>
      <trkpt lat="43.3109798748" lon="-8.5219340958">
        <ele>78.76</ele>
        <time>2020-03-14T15:19:48Z</time>
      </trkpt>
      <trkpt lat="43.3110336866" lon="-8.5220302362">
        <ele>78.48</ele>
        <time>2020-03-14T15:19:49Z</time>
      </trkpt>
      <trkpt lat="43.3112954535" lon="-8.5224218387">
        <ele>77.60</ele>
        <time>2020-03-14T15:19:54Z</time>
      </trkpt>
      <trkpt lat="43.3113553841" lon="-8.5224773269">
        <ele>76.92</ele>
        <time>2020-03-14T15:19:55Z</time>
      </trkpt>
      <trkpt lat="43.3114148956" lon="-8.5225190688">
        <ele>75.81</ele>
        <time>2020-03-14T15:19:56Z</time>
      </trkpt>
      <trkpt lat="43.3115234412" lon="-8.5225883871">
        <ele>73.28</ele>
        <time>2020-03-14T15:19:58Z</time>
      </trkpt>
      <trkpt lat="43.3115805220" lon="-8.5226264410">
        <ele>72.68</ele>
        <time>2020-03-14T15:19:59Z</time>
      </trkpt>
      <trkpt lat="43.3117188234" lon="-8.5227251798">
        <ele>72.02</ele>
        <time>2020-03-14T15:20:01Z</time>
      </trkpt>
      <trkpt lat="43.3117888961" lon="-8.5227896366">
        <ele>71.75</ele>
        <time>2020-03-14T15:20:02Z</time>
      </trkpt>
      <trkpt lat="43.3118539397" lon="-8.5228640679">
        <ele>71.53</ele>
        <time>2020-03-14T15:20:03Z</time>
      </trkpt>
      <trkpt lat="43.3120745514" lon="-8.5231594462">
        <ele>70.17</ele>
        <time>2020-03-14T15:20:07Z</time>
      </trkpt>
      <trkpt lat="43.3122774772" lon="-8.5233513918">
        <ele>66.83</ele>
        <time>2020-03-14T15:20:11Z</time>
      </trkpt>
      <trkpt lat="43.3124112524" lon="-8.5234852508">
        <ele>66.16</ele>
        <time>2020-03-14T15:20:14Z</time>
      </trkpt>
      <trkpt lat="43.3124964964" lon="-8.5235564131">
        <ele>66.07</ele>
        <time>2020-03-14T15:20:16Z</time>
      </trkpt>
      <trkpt lat="43.3125436027" lon="-8.5235871747">
        <ele>66.05</ele>
        <time>2020-03-14T15:20:17Z</time>
      </trkpt>
      <trkpt lat="43.3126262482" lon="-8.5236269888">
        <ele>66.04</ele>
        <time>2020-03-14T15:20:19Z</time>
      </trkpt>
      <trkpt lat="43.3129644580" lon="-8.5236596782">
        <ele>66.76</ele>
        <time>2020-03-14T15:20:29Z</time>
      </trkpt>
      <trkpt lat="43.3133169170" lon="-8.5236656293">
        <ele>69.93</ele>
        <time>2020-03-14T15:20:39Z</time>
      </trkpt>
      <trkpt lat="43.3136416320" lon="-8.5237761028">
        <ele>70.29</ele>
        <time>2020-03-14T15:20:48Z</time>
      </trkpt>
      <trkpt lat="43.3137728088" lon="-8.5238722432">
        <ele>70.21</ele>
        <time>2020-03-14T15:20:51Z</time>
      </trkpt>
      <trkpt lat="43.3138191607" lon="-8.5238931980">
        <ele>70.18</ele>
        <time>2020-03-14T15:20:52Z</time>
      </trkpt>
      <trkpt lat="43.3138615731" lon="-8.5239386279">
        <ele>70.17</ele>
        <time>2020-03-14T15:20:53Z</time>
      </trkpt>
      <trkpt lat="43.3139475714" lon="-8.5240102094">
        <ele>70.14</ele>
        <time>2020-03-14T15:20:55Z</time>
      </trkpt>
      <trkpt lat="43.3145135175" lon="-8.5243971180">
        <ele>70.16</ele>
        <time>2020-03-14T15:21:11Z</time>
      </trkpt>
      <trkpt lat="43.3145462908" lon="-8.5244288016">
        <ele>70.47</ele>
        <time>2020-03-14T15:21:12Z</time>
      </trkpt>
      <trkpt lat="43.3147834986" lon="-8.5246443842">
        <ele>71.52</ele>
        <time>2020-03-14T15:21:17Z</time>
      </trkpt>
      <trkpt lat="43.3148425911" lon="-8.5246755648">
        <ele>71.54</ele>
        <time>2020-03-14T15:21:18Z</time>
      </trkpt>
      <trkpt lat="43.3149051201" lon="-8.5247111041">
        <ele>71.55</ele>
        <time>2020-03-14T15:21:19Z</time>
      </trkpt>
      <trkpt lat="43.3150957245" lon="-8.5248136986">
        <ele>71.56</ele>
        <time>2020-03-14T15:21:22Z</time>
      </trkpt>
      <trkpt lat="43.3152228780" lon="-8.5248691030">
        <ele>71.09</ele>
        <time>2020-03-14T15:21:24Z</time>
      </trkpt>
      <trkpt lat="43.3154765982" lon="-8.5250281915">
        <ele>68.53</ele>
        <time>2020-03-14T15:21:28Z</time>
      </trkpt>
      <trkpt lat="43.3158371877" lon="-8.5253586899">
        <ele>65.84</ele>
        <time>2020-03-14T15:21:36Z</time>
      </trkpt>
      <trkpt lat="43.3158771694" lon="-8.5253636353">
        <ele>65.45</ele>
        <time>2020-03-14T15:21:37Z</time>
      </trkpt>
      <trkpt lat="43.3158946037" lon="-8.5253511462">
        <ele>65.22</ele>
        <time>2020-03-14T15:21:38Z</time>
      </trkpt>
      <trkpt lat="43.3159217611" lon="-8.5253325384">
        <ele>65.10</ele>
        <time>2020-03-14T15:21:39Z</time>
      </trkpt>
      <trkpt lat="43.3159501757" lon="-8.5253044590">
        <ele>65.05</ele>
        <time>2020-03-14T15:21:40Z</time>
      </trkpt>
      <trkpt lat="43.3159769140" lon="-8.5252782237">
        <ele>65.02</ele>
        <time>2020-03-14T15:21:41Z</time>
      </trkpt>
      <trkpt lat="43.3159990422" lon="-8.5252567660">
        <ele>65.00</ele>
        <time>2020-03-14T15:21:42Z</time>
      </trkpt>
      <trkpt lat="43.3161593881" lon="-8.5251109209">
        <ele>68.08</ele>
        <time>2020-03-14T15:21:54Z</time>
      </trkpt>
      <trkpt lat="43.3162968513" lon="-8.5250088293">
        <ele>70.90</ele>
        <time>2020-03-14T15:22:10Z</time>
      </trkpt>
      <trkpt lat="43.3164204005" lon="-8.5248867050">
        <ele>73.93</ele>
        <time>2020-03-14T15:22:26Z</time>
      </trkpt>
      <trkpt lat="43.3165520802" lon="-8.5247533489">
        <ele>77.23</ele>
        <time>2020-03-14T15:22:43Z</time>
      </trkpt>
      <trkpt lat="43.3166819159" lon="-8.5246372595">
        <ele>80.42</ele>
        <time>2020-03-14T15:23:00Z</time>
      </trkpt>
      <trkpt lat="43.3167986758" lon="-8.5245202482">
        <ele>83.52</ele>
        <time>2020-03-14T15:23:16Z</time>
      </trkpt>
      <trkpt lat="43.3169299364" lon="-8.5244307294">
        <ele>86.69</ele>
        <time>2020-03-14T15:23:31Z</time>
      </trkpt>
      <trkpt lat="43.3170670643" lon="-8.5243531130">
        <ele>89.62</ele>
        <time>2020-03-14T15:23:54Z</time>
      </trkpt>
      <trkpt lat="43.3172471076" lon="-8.5241960362">
        <ele>92.40</ele>
        <time>2020-03-14T15:24:17Z</time>
      </trkpt>
      <trkpt lat="43.3174497820" lon="-8.5238387156">
        <ele>93.11</ele>
        <time>2020-03-14T15:24:31Z</time>
      </trkpt>
      <trkpt lat="43.3173281606" lon="-8.5235135816">
        <ele>94.16</ele>
        <time>2020-03-14T15:24:43Z</time>
      </trkpt>
      <trkpt lat="43.3172252309" lon="-8.5232000984">
        <ele>97.31</ele>
        <time>2020-03-14T15:24:56Z</time>
      </trkpt>
      <trkpt lat="43.3171647973" lon="-8.5229545087">
        <ele>100.36</ele>
        <time>2020-03-14T15:25:06Z</time>
      </trkpt>
      <trkpt lat="43.3171045315" lon="-8.5227058176">
        <ele>103.38</ele>
        <time>2020-03-14T15:25:16Z</time>
      </trkpt>
      <trkpt lat="43.3170446847" lon="-8.5224500019">
        <ele>106.50</ele>
        <time>2020-03-14T15:25:26Z</time>
      </trkpt>
      <trkpt lat="43.3170222212" lon="-8.5223441385">
        <ele>108.93</ele>
        <time>2020-03-14T15:25:38Z</time>
      </trkpt>
      <trkpt lat="43.3170242328" lon="-8.5223479103">
        <ele>108.87</ele>
        <time>2020-03-14T15:27:34Z</time>
      </trkpt>
      <trkpt lat="43.3170204610" lon="-8.5223215912">
        <ele>108.84</ele>
        <time>2020-03-14T15:28:15Z</time>
      </trkpt>
      <trkpt lat="43.3169647213" lon="-8.5220877361">
        <ele>108.98</ele>
        <time>2020-03-14T15:28:28Z</time>
      </trkpt>
      <trkpt lat="43.3169122506" lon="-8.5218546353">
        <ele>109.78</ele>
        <time>2020-03-14T15:28:39Z</time>
      </trkpt>
      <trkpt lat="43.3168370649" lon="-8.5214126576">
        <ele>110.54</ele>
        <time>2020-03-14T15:28:52Z</time>
      </trkpt>
      <trkpt lat="43.3167428523" lon="-8.5210185405">
        <ele>111.51</ele>
        <time>2020-03-14T15:29:05Z</time>
      </trkpt>
      <trkpt lat="43.3166099992" lon="-8.5205485672">
        <ele>111.69</ele>
        <time>2020-03-14T15:29:18Z</time>
      </trkpt>
      <trkpt lat="43.3166057244" lon="-8.5202588048">
        <ele>111.64</ele>
        <time>2020-03-14T15:29:23Z</time>
      </trkpt>
      <trkpt lat="43.3166006114" lon="-8.5201816075">
        <ele>111.59</ele>
        <time>2020-03-14T15:29:24Z</time>
      </trkpt>
      <trkpt lat="43.3165165409" lon="-8.5197862331">
        <ele>110.88</ele>
        <time>2020-03-14T15:29:29Z</time>
      </trkpt>
      <trkpt lat="43.3163252659" lon="-8.5192785412">
        <ele>107.34</ele>
        <time>2020-03-14T15:29:35Z</time>
      </trkpt>
      <trkpt lat="43.3162697777" lon="-8.5191034433">
        <ele>105.85</ele>
        <time>2020-03-14T15:29:37Z</time>
      </trkpt>
      <trkpt lat="43.3161540236" lon="-8.5188697558">
        <ele>103.25</ele>
        <time>2020-03-14T15:29:40Z</time>
      </trkpt>
      <trkpt lat="43.3161266148" lon="-8.5187988449">
        <ele>102.46</ele>
        <time>2020-03-14T15:29:41Z</time>
      </trkpt>
      <trkpt lat="43.3160787541" lon="-8.5186633933">
        <ele>101.38</ele>
        <time>2020-03-14T15:29:43Z</time>
      </trkpt>
      <trkpt lat="43.3160537761" lon="-8.5186023731">
        <ele>100.81</ele>
        <time>2020-03-14T15:29:44Z</time>
      </trkpt>
      <trkpt lat="43.3160251100" lon="-8.5185437836">
        <ele>100.03</ele>
        <time>2020-03-14T15:29:45Z</time>
      </trkpt>
      <trkpt lat="43.3159567136" lon="-8.5184050631">
        <ele>98.89</ele>
        <time>2020-03-14T15:29:47Z</time>
      </trkpt>
      <trkpt lat="43.3156801108" lon="-8.5179704614">
        <ele>95.55</ele>
        <time>2020-03-14T15:29:53Z</time>
      </trkpt>
      <trkpt lat="43.3156215213" lon="-8.5179067589">
        <ele>94.79</ele>
        <time>2020-03-14T15:29:54Z</time>
      </trkpt>
      <trkpt lat="43.3155638538" lon="-8.5178580601">
        <ele>93.21</ele>
        <time>2020-03-14T15:29:55Z</time>
      </trkpt>
      <trkpt lat="43.3154524583" lon="-8.5177801084">
        <ele>91.02</ele>
        <time>2020-03-14T15:29:57Z</time>
      </trkpt>
      <trkpt lat="43.3153384645" lon="-8.5177134722">
        <ele>88.33</ele>
        <time>2020-03-14T15:29:59Z</time>
      </trkpt>
      <trkpt lat="43.3151673060" lon="-8.5175985564">
        <ele>86.23</ele>
        <time>2020-03-14T15:30:02Z</time>
      </trkpt>
      <trkpt lat="43.3151028492" lon="-8.5175656993">
        <ele>85.53</ele>
        <time>2020-03-14T15:30:03Z</time>
      </trkpt>
      <trkpt lat="43.3148948941" lon="-8.5174328461">
        <ele>82.92</ele>
        <time>2020-03-14T15:30:07Z</time>
      </trkpt>
      <trkpt lat="43.3148556668" lon="-8.5174053535">
        <ele>82.41</ele>
        <time>2020-03-14T15:30:08Z</time>
      </trkpt>
      <trkpt lat="43.3148280904" lon="-8.5173771065">
        <ele>81.93</ele>
        <time>2020-03-14T15:30:09Z</time>
      </trkpt>
      <trkpt lat="43.3148170263" lon="-8.5173530504">
        <ele>81.27</ele>
        <time>2020-03-14T15:30:10Z</time>
      </trkpt>
      <trkpt lat="43.3148166072" lon="-8.5173233785">
        <ele>80.52</ele>
        <time>2020-03-14T15:30:11Z</time>
      </trkpt>
      <trkpt lat="43.3148285095" lon="-8.5172893479">
        <ele>79.94</ele>
        <time>2020-03-14T15:30:12Z</time>
      </trkpt>
      <trkpt lat="43.3148650546" lon="-8.5172621906">
        <ele>78.81</ele>
        <time>2020-03-14T15:30:13Z</time>
      </trkpt>
      <trkpt lat="43.3149109036" lon="-8.5172497854">
        <ele>77.91</ele>
        <time>2020-03-14T15:30:14Z</time>
      </trkpt>
      <trkpt lat="43.3152558189" lon="-8.5172126535">
        <ele>75.00</ele>
        <time>2020-03-14T15:30:20Z</time>
      </trkpt>
      <trkpt lat="43.3155206870" lon="-8.5172327701">
        <ele>72.97</ele>
        <time>2020-03-14T15:30:24Z</time>
      </trkpt>
      <trkpt lat="43.3155848924" lon="-8.5172533896">
        <ele>72.41</ele>
        <time>2020-03-14T15:30:25Z</time>
      </trkpt>
      <trkpt lat="43.3158723917" lon="-8.5173793696">
        <ele>69.40</ele>
        <time>2020-03-14T15:30:30Z</time>
      </trkpt>
      <trkpt lat="43.3159743994" lon="-8.5174340196">
        <ele>68.74</ele>
        <time>2020-03-14T15:30:32Z</time>
      </trkpt>
      <trkpt lat="43.3160303906" lon="-8.5174489394">
        <ele>68.63</ele>
        <time>2020-03-14T15:30:33Z</time>
      </trkpt>
      <trkpt lat="43.3160837833" lon="-8.5174593329">
        <ele>68.58</ele>
        <time>2020-03-14T15:30:34Z</time>
      </trkpt>
      <trkpt lat="43.3161408640" lon="-8.5174619313">
        <ele>68.55</ele>
        <time>2020-03-14T15:30:35Z</time>
      </trkpt>
      <trkpt lat="43.3161977772" lon="-8.5174612608">
        <ele>68.50</ele>
        <time>2020-03-14T15:30:36Z</time>
      </trkpt>
      <trkpt lat="43.3166789822" lon="-8.5174070299">
        <ele>68.41</ele>
        <time>2020-03-14T15:30:45Z</time>
      </trkpt>
      <trkpt lat="43.3167380746" lon="-8.5174209438">
        <ele>68.27</ele>
        <time>2020-03-14T15:30:46Z</time>
      </trkpt>
      <trkpt lat="43.3167925570" lon="-8.5174421500">
        <ele>68.04</ele>
        <time>2020-03-14T15:30:47Z</time>
      </trkpt>
      <trkpt lat="43.3168469556" lon="-8.5174771026">
        <ele>67.77</ele>
        <time>2020-03-14T15:30:48Z</time>
      </trkpt>
      <trkpt lat="43.3168991748" lon="-8.5175249632">
        <ele>67.61</ele>
        <time>2020-03-14T15:30:49Z</time>
      </trkpt>
      <trkpt lat="43.3169507235" lon="-8.5175808705">
        <ele>67.48</ele>
        <time>2020-03-14T15:30:50Z</time>
      </trkpt>
      <trkpt lat="43.3170043677" lon="-8.5176366940">
        <ele>67.32</ele>
        <time>2020-03-14T15:30:51Z</time>
      </trkpt>
      <trkpt lat="43.3170490433" lon="-8.5176812019">
        <ele>67.12</ele>
        <time>2020-03-14T15:30:52Z</time>
      </trkpt>
      <trkpt lat="43.3171186969" lon="-8.5177129693">
        <ele>65.96</ele>
        <time>2020-03-14T15:30:57Z</time>
      </trkpt>
      <trkpt lat="43.3171130810" lon="-8.5176763404">
        <ele>65.73</ele>
        <time>2020-03-14T15:30:58Z</time>
      </trkpt>
      <trkpt lat="43.3170287590" lon="-8.5174429882">
        <ele>65.07</ele>
        <time>2020-03-14T15:31:02Z</time>
      </trkpt>
      <trkpt lat="43.3169745281" lon="-8.5172669683">
        <ele>64.80</ele>
        <time>2020-03-14T15:31:04Z</time>
      </trkpt>
      <trkpt lat="43.3167422656" lon="-8.5168467835">
        <ele>61.42</ele>
        <time>2020-03-14T15:31:09Z</time>
      </trkpt>
      <trkpt lat="43.3166965842" lon="-8.5167912114">
        <ele>61.42</ele>
        <time>2020-03-14T15:31:10Z</time>
      </trkpt>
      <trkpt lat="43.3166535851" lon="-8.5167525709">
        <ele>59.91</ele>
        <time>2020-03-14T15:31:11Z</time>
      </trkpt>
      <trkpt lat="43.3166084066" lon="-8.5167348012">
        <ele>58.92</ele>
        <time>2020-03-14T15:31:12Z</time>
      </trkpt>
      <trkpt lat="43.3165505715" lon="-8.5167175345">
        <ele>57.83</ele>
        <time>2020-03-14T15:31:13Z</time>
      </trkpt>
      <trkpt lat="43.3164883777" lon="-8.5167225637">
        <ele>56.73</ele>
        <time>2020-03-14T15:31:14Z</time>
      </trkpt>
      <trkpt lat="43.3164191432" lon="-8.5167308617">
        <ele>55.83</ele>
        <time>2020-03-14T15:31:15Z</time>
      </trkpt>
      <trkpt lat="43.3163476456" lon="-8.5167302750">
        <ele>54.92</ele>
        <time>2020-03-14T15:31:16Z</time>
      </trkpt>
      <trkpt lat="43.3162794169" lon="-8.5167204682">
        <ele>54.21</ele>
        <time>2020-03-14T15:31:17Z</time>
      </trkpt>
      <trkpt lat="43.3162121940" lon="-8.5166943166">
        <ele>53.59</ele>
        <time>2020-03-14T15:31:18Z</time>
      </trkpt>
      <trkpt lat="43.3161437977" lon="-8.5166536644">
        <ele>53.26</ele>
        <time>2020-03-14T15:31:19Z</time>
      </trkpt>
      <trkpt lat="43.3160766587" lon="-8.5166110843">
        <ele>53.06</ele>
        <time>2020-03-14T15:31:20Z</time>
      </trkpt>
      <trkpt lat="43.3157246187" lon="-8.5164102539">
        <ele>49.77</ele>
        <time>2020-03-14T15:31:25Z</time>
      </trkpt>
      <trkpt lat="43.3151224628" lon="-8.5159810167">
        <ele>46.54</ele>
        <time>2020-03-14T15:31:32Z</time>
      </trkpt>
      <trkpt lat="43.3150316868" lon="-8.5159181524">
        <ele>46.22</ele>
        <time>2020-03-14T15:31:33Z</time>
      </trkpt>
      <trkpt lat="43.3149352111" lon="-8.5158700403">
        <ele>45.69</ele>
        <time>2020-03-14T15:31:34Z</time>
      </trkpt>
      <trkpt lat="43.3146209735" lon="-8.5157420486">
        <ele>41.92</ele>
        <time>2020-03-14T15:31:37Z</time>
      </trkpt>
      <trkpt lat="43.3144211490" lon="-8.5156304855">
        <ele>39.43</ele>
        <time>2020-03-14T15:31:39Z</time>
      </trkpt>
      <trkpt lat="43.3143275231" lon="-8.5155519471">
        <ele>38.26</ele>
        <time>2020-03-14T15:31:40Z</time>
      </trkpt>
      <trkpt lat="43.3142423630" lon="-8.5154687148">
        <ele>37.25</ele>
        <time>2020-03-14T15:31:41Z</time>
      </trkpt>
      <trkpt lat="43.3141657524" lon="-8.5153784417">
        <ele>36.38</ele>
        <time>2020-03-14T15:31:42Z</time>
      </trkpt>
      <trkpt lat="43.3140966855" lon="-8.5152818821">
        <ele>35.50</ele>
        <time>2020-03-14T15:31:43Z</time>
      </trkpt>
      <trkpt lat="43.3140309714" lon="-8.5151849873">
        <ele>34.31</ele>
        <time>2020-03-14T15:31:44Z</time>
      </trkpt>
      <trkpt lat="43.3138328232" lon="-8.5148906149">
        <ele>30.91</ele>
        <time>2020-03-14T15:31:47Z</time>
      </trkpt>
      <trkpt lat="43.3137242775" lon="-8.5146829113">
        <ele>29.93</ele>
        <time>2020-03-14T15:31:49Z</time>
      </trkpt>
      <trkpt lat="43.3136939351" lon="-8.5145888664">
        <ele>29.69</ele>
        <time>2020-03-14T15:31:50Z</time>
      </trkpt>
      <trkpt lat="43.3136807755" lon="-8.5145086516">
        <ele>29.55</ele>
        <time>2020-03-14T15:31:51Z</time>
      </trkpt>
      <trkpt lat="43.3136811946" lon="-8.5144353099">
        <ele>29.47</ele>
        <time>2020-03-14T15:31:52Z</time>
      </trkpt>
      <trkpt lat="43.3136992995" lon="-8.5143676680">
        <ele>29.13</ele>
        <time>2020-03-14T15:31:53Z</time>
      </trkpt>
      <trkpt lat="43.3137323242" lon="-8.5143217351">
        <ele>28.92</ele>
        <time>2020-03-14T15:31:54Z</time>
      </trkpt>
      <trkpt lat="43.3137677796" lon="-8.5142934043">
        <ele>28.79</ele>
        <time>2020-03-14T15:31:55Z</time>
      </trkpt>
      <trkpt lat="43.3138174005" lon="-8.5142864473">
        <ele>28.71</ele>
        <time>2020-03-14T15:31:56Z</time>
      </trkpt>
      <trkpt lat="43.3138781693" lon="-8.5142928176">
        <ele>28.57</ele>
        <time>2020-03-14T15:31:57Z</time>
      </trkpt>
      <trkpt lat="43.3144022897" lon="-8.5142389219">
        <ele>26.62</ele>
        <time>2020-03-14T15:32:05Z</time>
      </trkpt>
      <trkpt lat="43.3144633099" lon="-8.5142096691">
        <ele>25.65</ele>
        <time>2020-03-14T15:32:06Z</time>
      </trkpt>
      <trkpt lat="43.3148554154" lon="-8.5140266083">
        <ele>22.56</ele>
        <time>2020-03-14T15:32:12Z</time>
      </trkpt>
      <trkpt lat="43.3151307609" lon="-8.5139476508">
        <ele>21.60</ele>
        <time>2020-03-14T15:32:16Z</time>
      </trkpt>
      <trkpt lat="43.3151959721" lon="-8.5139103513">
        <ele>21.24</ele>
        <time>2020-03-14T15:32:17Z</time>
      </trkpt>
      <trkpt lat="43.3152551483" lon="-8.5138608143">
        <ele>20.70</ele>
        <time>2020-03-14T15:32:18Z</time>
      </trkpt>
      <trkpt lat="43.3153063618" lon="-8.5137982015">
        <ele>20.06</ele>
        <time>2020-03-14T15:32:19Z</time>
      </trkpt>
      <trkpt lat="43.3153407276" lon="-8.5137192439">
        <ele>19.43</ele>
        <time>2020-03-14T15:32:20Z</time>
      </trkpt>
      <trkpt lat="43.3153577428" lon="-8.5136356764">
        <ele>18.88</ele>
        <time>2020-03-14T15:32:21Z</time>
      </trkpt>
      <trkpt lat="43.3153627720" lon="-8.5135541204">
        <ele>18.45</ele>
        <time>2020-03-14T15:32:22Z</time>
      </trkpt>
      <trkpt lat="43.3153621014" lon="-8.5133240372">
        <ele>17.76</ele>
        <time>2020-03-14T15:32:25Z</time>
      </trkpt>
      <trkpt lat="43.3153589163" lon="-8.5129859112">
        <ele>17.00</ele>
        <time>2020-03-14T15:32:30Z</time>
      </trkpt>
      <trkpt lat="43.3153790329" lon="-8.5129338596">
        <ele>16.94</ele>
        <time>2020-03-14T15:32:31Z</time>
      </trkpt>
      <trkpt lat="43.3153984789" lon="-8.5128831491">
        <ele>16.89</ele>
        <time>2020-03-14T15:32:32Z</time>
      </trkpt>
      <trkpt lat="43.3154788613" lon="-8.5126371402">
        <ele>16.72</ele>
        <time>2020-03-14T15:32:37Z</time>
      </trkpt>
      <trkpt lat="43.3154983912" lon="-8.5125845019">
        <ele>16.72</ele>
        <time>2020-03-14T15:32:38Z</time>
      </trkpt>
      <trkpt lat="43.3155158255" lon="-8.5125290137">
        <ele>16.72</ele>
        <time>2020-03-14T15:32:39Z</time>
      </trkpt>
      <trkpt lat="43.3155285660" lon="-8.5124679096">
        <ele>16.63</ele>
        <time>2020-03-14T15:32:40Z</time>
      </trkpt>
      <trkpt lat="43.3155468386" lon="-8.5124021117">
        <ele>16.56</ele>
        <time>2020-03-14T15:32:41Z</time>
      </trkpt>
      <trkpt lat="43.3155842219" lon="-8.5122671630">
        <ele>16.45</ele>
        <time>2020-03-14T15:32:43Z</time>
      </trkpt>
      <trkpt lat="43.3156220242" lon="-8.5122075677">
        <ele>16.38</ele>
        <time>2020-03-14T15:32:44Z</time>
      </trkpt>
      <trkpt lat="43.3156648558" lon="-8.5121589527">
        <ele>16.33</ele>
        <time>2020-03-14T15:32:45Z</time>
      </trkpt>
      <trkpt lat="43.3157113753" lon="-8.5121158697">
        <ele>16.28</ele>
        <time>2020-03-14T15:32:46Z</time>
      </trkpt>
      <trkpt lat="43.3157583140" lon="-8.5120757204">
        <ele>16.22</ele>
        <time>2020-03-14T15:32:47Z</time>
      </trkpt>
      <trkpt lat="43.3159622457" lon="-8.5119007062">
        <ele>14.91</ele>
        <time>2020-03-14T15:32:51Z</time>
      </trkpt>
      <trkpt lat="43.3160513453" lon="-8.5117966030">
        <ele>14.54</ele>
        <time>2020-03-14T15:32:53Z</time>
      </trkpt>
      <trkpt lat="43.3160801791" lon="-8.5117495805">
        <ele>14.33</ele>
        <time>2020-03-14T15:32:54Z</time>
      </trkpt>
      <trkpt lat="43.3160982840" lon="-8.5117033962">
        <ele>14.08</ele>
        <time>2020-03-14T15:32:55Z</time>
      </trkpt>
      <trkpt lat="43.3161151316" lon="-8.5116535239">
        <ele>13.80</ele>
        <time>2020-03-14T15:32:56Z</time>
      </trkpt>
      <trkpt lat="43.3161289617" lon="-8.5116028134">
        <ele>13.49</ele>
        <time>2020-03-14T15:32:57Z</time>
      </trkpt>
      <trkpt lat="43.3161566220" lon="-8.5114650987">
        <ele>11.55</ele>
        <time>2020-03-14T15:33:05Z</time>
      </trkpt>
      <trkpt lat="43.3161682729" lon="-8.5114366841">
        <ele>10.92</ele>
        <time>2020-03-14T15:33:07Z</time>
      </trkpt>
      <trkpt lat="43.3161847014" lon="-8.5114084370">
        <ele>10.53</ele>
        <time>2020-03-14T15:33:08Z</time>
      </trkpt>
      <trkpt lat="43.3162123617" lon="-8.5113785136">
        <ele>10.31</ele>
        <time>2020-03-14T15:33:09Z</time>
      </trkpt>
      <trkpt lat="43.3162447996" lon="-8.5113485903">
        <ele>10.17</ele>
        <time>2020-03-14T15:33:10Z</time>
      </trkpt>
      <trkpt lat="43.3162805904" lon="-8.5113235284">
        <ele>10.09</ele>
        <time>2020-03-14T15:33:11Z</time>
      </trkpt>
      <trkpt lat="43.3163223322" lon="-8.5113065969">
        <ele>10.04</ele>
        <time>2020-03-14T15:33:12Z</time>
      </trkpt>
      <trkpt lat="43.3163668402" lon="-8.5112949461">
        <ele>10.01</ele>
        <time>2020-03-14T15:33:13Z</time>
      </trkpt>
      <trkpt lat="43.3169358037" lon="-8.5109606758">
        <ele>8.02</ele>
        <time>2020-03-14T15:33:26Z</time>
      </trkpt>
      <trkpt lat="43.3174524643" lon="-8.5103736911">
        <ele>6.36</ele>
        <time>2020-03-14T15:33:39Z</time>
      </trkpt>
      <trkpt lat="43.3176032547" lon="-8.5100353975">
        <ele>5.39</ele>
        <time>2020-03-14T15:33:45Z</time>
      </trkpt>
      <trkpt lat="43.3176180068" lon="-8.5099923983">
        <ele>5.30</ele>
        <time>2020-03-14T15:33:46Z</time>
      </trkpt>
      <trkpt lat="43.3176097926" lon="-8.5099503212">
        <ele>5.26</ele>
        <time>2020-03-14T15:33:47Z</time>
      </trkpt>
      <trkpt lat="43.3175888378" lon="-8.5099106748">
        <ele>5.24</ele>
        <time>2020-03-14T15:33:48Z</time>
      </trkpt>
      <trkpt lat="43.3175262250" lon="-8.5098352376">
        <ele>5.22</ele>
        <time>2020-03-14T15:33:50Z</time>
      </trkpt>
      <trkpt lat="43.3172791265" lon="-8.5095728841">
        <ele>5.37</ele>
        <time>2020-03-14T15:33:57Z</time>
      </trkpt>
      <trkpt lat="43.3170161862" lon="-8.5094500054">
        <ele>5.39</ele>
        <time>2020-03-14T15:34:03Z</time>
      </trkpt>
      <trkpt lat="43.3167350572" lon="-8.5094615724">
        <ele>5.43</ele>
        <time>2020-03-14T15:34:09Z</time>
      </trkpt>
      <trkpt lat="43.3162085898" lon="-8.5094826110">
        <ele>5.88</ele>
        <time>2020-03-14T15:34:21Z</time>
      </trkpt>
      <trkpt lat="43.3156683762" lon="-8.5095378477">
        <ele>6.29</ele>
        <time>2020-03-14T15:34:32Z</time>
      </trkpt>
      <trkpt lat="43.3150642086" lon="-8.5094360076">
        <ele>6.58</ele>
        <time>2020-03-14T15:34:45Z</time>
      </trkpt>
      <trkpt lat="43.3149415813" lon="-8.5095322318">
        <ele>6.73</ele>
        <time>2020-03-14T15:34:49Z</time>
      </trkpt>
      <trkpt lat="43.3148840815" lon="-8.5096199904">
        <ele>6.81</ele>
        <time>2020-03-14T15:34:51Z</time>
      </trkpt>
      <trkpt lat="43.3146809880" lon="-8.5098055657">
        <ele>7.05</ele>
        <time>2020-03-14T15:34:56Z</time>
      </trkpt>
      <trkpt lat="43.3145122603" lon="-8.5098245088">
        <ele>7.18</ele>
        <time>2020-03-14T15:35:00Z</time>
      </trkpt>
      <trkpt lat="43.3143004496" lon="-8.5098018777">
        <ele>7.35</ele>
        <time>2020-03-14T15:35:05Z</time>
      </trkpt>
      <trkpt lat="43.3141307160" lon="-8.5098106787">
        <ele>7.41</ele>
        <time>2020-03-14T15:35:09Z</time>
      </trkpt>
      <trkpt lat="43.3136112895" lon="-8.5095007159">
        <ele>7.72</ele>
        <time>2020-03-14T15:35:25Z</time>
      </trkpt>
      <trkpt lat="43.3135603275" lon="-8.5095228441">
        <ele>7.78</ele>
        <time>2020-03-14T15:35:27Z</time>
      </trkpt>
      <trkpt lat="43.3135505207" lon="-8.5095547792">
        <ele>7.80</ele>
        <time>2020-03-14T15:35:28Z</time>
      </trkpt>
      <trkpt lat="43.3135417197" lon="-8.5095857922">
        <ele>7.82</ele>
        <time>2020-03-14T15:35:29Z</time>
      </trkpt>
      <trkpt lat="43.3135196753" lon="-8.5096056573">
        <ele>7.84</ele>
        <time>2020-03-14T15:35:30Z</time>
      </trkpt>
      <trkpt lat="43.3134927694" lon="-8.5096046515">
        <ele>7.87</ele>
        <time>2020-03-14T15:35:31Z</time>
      </trkpt>
      <trkpt lat="43.3134691324" lon="-8.5095983651">
        <ele>7.90</ele>
        <time>2020-03-14T15:35:32Z</time>
      </trkpt>
      <trkpt lat="43.3132750075" lon="-8.5093773343">
        <ele>8.19</ele>
        <time>2020-03-14T15:35:41Z</time>
      </trkpt>
      <trkpt lat="43.3127569221" lon="-8.5090848058">
        <ele>8.88</ele>
        <time>2020-03-14T15:35:54Z</time>
      </trkpt>
      <trkpt lat="43.3125450276" lon="-8.5089609213">
        <ele>8.89</ele>
        <time>2020-03-14T15:35:59Z</time>
      </trkpt>
      <trkpt lat="43.3123772219" lon="-8.5086999089">
        <ele>8.88</ele>
        <time>2020-03-14T15:36:05Z</time>
      </trkpt>
      <trkpt lat="43.3123522438" lon="-8.5084078833">
        <ele>8.88</ele>
        <time>2020-03-14T15:36:10Z</time>
      </trkpt>
      <trkpt lat="43.3122221567" lon="-8.5081929713">
        <ele>9.04</ele>
        <time>2020-03-14T15:36:16Z</time>
      </trkpt>
      <trkpt lat="43.3120337315" lon="-8.5081476253">
        <ele>9.31</ele>
        <time>2020-03-14T15:36:21Z</time>
      </trkpt>
      <trkpt lat="43.3118815999" lon="-8.5080575198">
        <ele>9.44</ele>
        <time>2020-03-14T15:36:25Z</time>
      </trkpt>
      <trkpt lat="43.3115105331" lon="-8.5077020433">
        <ele>9.71</ele>
        <time>2020-03-14T15:36:36Z</time>
      </trkpt>
      <trkpt lat="43.3108348679" lon="-8.5076821782">
        <ele>9.97</ele>
        <time>2020-03-14T15:36:52Z</time>
      </trkpt>
      <trkpt lat="43.3107128274" lon="-8.5076647438">
        <ele>10.02</ele>
        <time>2020-03-14T15:36:55Z</time>
      </trkpt>
      <trkpt lat="43.3104305249" lon="-8.5075067449">
        <ele>10.23</ele>
        <time>2020-03-14T15:37:02Z</time>
      </trkpt>
      <trkpt lat="43.3102682512" lon="-8.5074745584">
        <ele>10.28</ele>
        <time>2020-03-14T15:37:06Z</time>
      </trkpt>
      <trkpt lat="43.3094115369" lon="-8.5077721160">
        <ele>10.26</ele>
        <time>2020-03-14T15:37:25Z</time>
      </trkpt>
      <trkpt lat="43.3087118156" lon="-8.5076036397">
        <ele>10.68</ele>
        <time>2020-03-14T15:37:41Z</time>
      </trkpt>
      <trkpt lat="43.3083524834" lon="-8.5075075831">
        <ele>10.77</ele>
        <time>2020-03-14T15:37:49Z</time>
      </trkpt>
      <trkpt lat="43.3081201371" lon="-8.5075313877">
        <ele>10.87</ele>
        <time>2020-03-14T15:37:54Z</time>
      </trkpt>
      <trkpt lat="43.3078587055" lon="-8.5074410308">
        <ele>10.93</ele>
        <time>2020-03-14T15:38:00Z</time>
      </trkpt>
      <trkpt lat="43.3076886367" lon="-8.5072388593">
        <ele>11.07</ele>
        <time>2020-03-14T15:38:05Z</time>
      </trkpt>
      <trkpt lat="43.3072094433" lon="-8.5071897414">
        <ele>11.50</ele>
        <time>2020-03-14T15:38:16Z</time>
      </trkpt>
      <trkpt lat="43.3069457486" lon="-8.5070918407">
        <ele>11.69</ele>
        <time>2020-03-14T15:38:22Z</time>
      </trkpt>
      <trkpt lat="43.3064586762" lon="-8.5066776071">
        <ele>11.47</ele>
        <time>2020-03-14T15:38:34Z</time>
      </trkpt>
      <trkpt lat="43.3064204548" lon="-8.5066522937">
        <ele>11.46</ele>
        <time>2020-03-14T15:38:35Z</time>
      </trkpt>
      <trkpt lat="43.3063838258" lon="-8.5066495277">
        <ele>11.46</ele>
        <time>2020-03-14T15:38:36Z</time>
      </trkpt>
      <trkpt lat="43.3062712569" lon="-8.5063880123">
        <ele>11.69</ele>
        <time>2020-03-14T15:38:43Z</time>
      </trkpt>
      <trkpt lat="43.3062466141" lon="-8.5063661356">
        <ele>11.87</ele>
        <time>2020-03-14T15:38:44Z</time>
      </trkpt>
      <trkpt lat="43.3062167745" lon="-8.5063412413">
        <ele>12.02</ele>
        <time>2020-03-14T15:38:45Z</time>
      </trkpt>
      <trkpt lat="43.3061846718" lon="-8.5063212086">
        <ele>12.12</ele>
        <time>2020-03-14T15:38:46Z</time>
      </trkpt>
      <trkpt lat="43.3061482944" lon="-8.5063059535">
        <ele>12.16</ele>
        <time>2020-03-14T15:38:47Z</time>
      </trkpt>
      <trkpt lat="43.3061110787" lon="-8.5062893573">
        <ele>12.18</ele>
        <time>2020-03-14T15:38:48Z</time>
      </trkpt>
      <trkpt lat="43.3060306963" lon="-8.5062598530">
        <ele>12.20</ele>
        <time>2020-03-14T15:38:50Z</time>
      </trkpt>
      <trkpt lat="43.3059414290" lon="-8.5062446818">
        <ele>12.20</ele>
        <time>2020-03-14T15:38:52Z</time>
      </trkpt>
      <trkpt lat="43.3058944065" lon="-8.5062430054">
        <ele>12.22</ele>
        <time>2020-03-14T15:38:53Z</time>
      </trkpt>
      <trkpt lat="43.3057257626" lon="-8.5062523093">
        <ele>12.20</ele>
        <time>2020-03-14T15:38:57Z</time>
      </trkpt>
      <trkpt lat="43.3056820091" lon="-8.5062419996">
        <ele>12.19</ele>
        <time>2020-03-14T15:38:58Z</time>
      </trkpt>
      <trkpt lat="43.3056399319" lon="-8.5062352940">
        <ele>12.17</ele>
        <time>2020-03-14T15:38:59Z</time>
      </trkpt>
      <trkpt lat="43.3056248445" lon="-8.5061997548">
        <ele>12.17</ele>
        <time>2020-03-14T15:39:01Z</time>
      </trkpt>
      <trkpt lat="43.3056260180" lon="-8.5062181950">
        <ele>12.30</ele>
        <time>2020-03-14T15:39:12Z</time>
      </trkpt>
      <trkpt lat="43.3055888023" lon="-8.5062108189">
        <ele>12.35</ele>
        <time>2020-03-14T15:39:14Z</time>
      </trkpt>
      <trkpt lat="43.3055587113" lon="-8.5062120762">
        <ele>12.36</ele>
        <time>2020-03-14T15:39:15Z</time>
      </trkpt>
      <trkpt lat="43.3055307157" lon="-8.5062057897">
        <ele>12.36</ele>
        <time>2020-03-14T15:39:16Z</time>
      </trkpt>
      <trkpt lat="43.3055091742" lon="-8.5061995871">
        <ele>12.36</ele>
        <time>2020-03-14T15:39:17Z</time>
      </trkpt>
      <trkpt lat="43.3054921590" lon="-8.5061995033">
        <ele>12.36</ele>
        <time>2020-03-14T15:39:18Z</time>
      </trkpt>
      <trkpt lat="43.3054655883" lon="-8.5062028561">
        <ele>12.36</ele>
        <time>2020-03-14T15:39:19Z</time>
      </trkpt>
      <trkpt lat="43.3054322284" lon="-8.5062146746">
        <ele>12.35</ele>
        <time>2020-03-14T15:39:20Z</time>
      </trkpt>
      <trkpt lat="43.3053981978" lon="-8.5062273312">
        <ele>12.35</ele>
        <time>2020-03-14T15:39:21Z</time>
      </trkpt>
      <trkpt lat="43.3051567990" lon="-8.5063678958">
        <ele>12.26</ele>
        <time>2020-03-14T15:39:28Z</time>
      </trkpt>
      <trkpt lat="43.3051209245" lon="-8.5063992441">
        <ele>12.27</ele>
        <time>2020-03-14T15:39:29Z</time>
      </trkpt>
      <trkpt lat="43.3050820325" lon="-8.5064401478">
        <ele>12.28</ele>
        <time>2020-03-14T15:39:30Z</time>
      </trkpt>
      <trkpt lat="43.3050556295" lon="-8.5064725857">
        <ele>12.28</ele>
        <time>2020-03-14T15:39:31Z</time>
      </trkpt>
      <trkpt lat="43.3050147258" lon="-8.5064911097">
        <ele>12.28</ele>
        <time>2020-03-14T15:39:32Z</time>
      </trkpt>
      <trkpt lat="43.3049714752" lon="-8.5064939596">
        <ele>12.28</ele>
        <time>2020-03-14T15:39:33Z</time>
      </trkpt>
      <trkpt lat="43.3049203455" lon="-8.5064941272">
        <ele>12.28</ele>
        <time>2020-03-14T15:39:34Z</time>
      </trkpt>
      <trkpt lat="43.3042418305" lon="-8.5065967217">
        <ele>12.96</ele>
        <time>2020-03-14T15:39:49Z</time>
      </trkpt>
      <trkpt lat="43.3038376551" lon="-8.5068116337">
        <ele>14.01</ele>
        <time>2020-03-14T15:40:02Z</time>
      </trkpt>
      <trkpt lat="43.3038111683" lon="-8.5068394616">
        <ele>14.16</ele>
        <time>2020-03-14T15:40:04Z</time>
      </trkpt>
      <trkpt lat="43.3036310412" lon="-8.5069181677">
        <ele>14.68</ele>
        <time>2020-03-14T15:40:10Z</time>
      </trkpt>
      <trkpt lat="43.3034573682" lon="-8.5068869032">
        <ele>14.70</ele>
        <time>2020-03-14T15:40:14Z</time>
      </trkpt>
      <trkpt lat="43.3031022269" lon="-8.5067650303">
        <ele>14.35</ele>
        <time>2020-03-14T15:40:26Z</time>
      </trkpt>
      <trkpt lat="43.3031220082" lon="-8.5068270564">
        <ele>14.75</ele>
        <time>2020-03-14T15:41:27Z</time>
      </trkpt>
      <trkpt lat="43.3031253610" lon="-8.5068208538">
        <ele>14.76</ele>
        <time>2020-03-14T15:41:30Z</time>
      </trkpt>
      <trkpt lat="43.3030836191" lon="-8.5067673773">
        <ele>14.77</ele>
        <time>2020-03-14T15:41:33Z</time>
      </trkpt>
      <trkpt lat="43.3029837906" lon="-8.5066823009">
        <ele>14.82</ele>
        <time>2020-03-14T15:41:39Z</time>
      </trkpt>
      <trkpt lat="43.3024649508" lon="-8.5065122321">
        <ele>14.75</ele>
        <time>2020-03-14T15:41:53Z</time>
      </trkpt>
      <trkpt lat="43.3021190297" lon="-8.5062633734">
        <ele>14.71</ele>
        <time>2020-03-14T15:42:03Z</time>
      </trkpt>
      <trkpt lat="43.3019699156" lon="-8.5062692408">
        <ele>14.72</ele>
        <time>2020-03-14T15:42:07Z</time>
      </trkpt>
      <trkpt lat="43.3018037025" lon="-8.5062583443">
        <ele>14.86</ele>
        <time>2020-03-14T15:42:11Z</time>
      </trkpt>
      <trkpt lat="43.3017200511" lon="-8.5061235633">
        <ele>15.07</ele>
        <time>2020-03-14T15:42:15Z</time>
      </trkpt>
      <trkpt lat="43.3014456276" lon="-8.5054685175">
        <ele>16.09</ele>
        <time>2020-03-14T15:42:30Z</time>
      </trkpt>
      <trkpt lat="43.3012151252" lon="-8.5051114485">
        <ele>16.74</ele>
        <time>2020-03-14T15:42:42Z</time>
      </trkpt>
      <trkpt lat="43.3011356648" lon="-8.5049524438">
        <ele>16.80</ele>
        <time>2020-03-14T15:42:46Z</time>
      </trkpt>
      <trkpt lat="43.3009894844" lon="-8.5047045909">
        <ele>16.95</ele>
        <time>2020-03-14T15:42:52Z</time>
      </trkpt>
      <trkpt lat="43.3007329144" lon="-8.5042037722">
        <ele>16.64</ele>
        <time>2020-03-14T15:43:02Z</time>
      </trkpt>
      <trkpt lat="43.3002387173" lon="-8.5037465394">
        <ele>16.42</ele>
        <time>2020-03-14T15:43:15Z</time>
      </trkpt>
      <trkpt lat="43.3001305908" lon="-8.5035126004">
        <ele>16.50</ele>
        <time>2020-03-14T15:43:20Z</time>
      </trkpt>
      <trkpt lat="43.3001140784" lon="-8.5032161325">
        <ele>16.57</ele>
        <time>2020-03-14T15:43:25Z</time>
      </trkpt>
      <trkpt lat="43.3001445886" lon="-8.5028811079">
        <ele>16.83</ele>
        <time>2020-03-14T15:43:31Z</time>
      </trkpt>
      <trkpt lat="43.3000437543" lon="-8.5026497673">
        <ele>16.90</ele>
        <time>2020-03-14T15:43:36Z</time>
      </trkpt>
      <trkpt lat="43.2999168523" lon="-8.5025852267">
        <ele>17.08</ele>
        <time>2020-03-14T15:43:39Z</time>
      </trkpt>
      <trkpt lat="43.2997581828" lon="-8.5023897607">
        <ele>17.25</ele>
        <time>2020-03-14T15:43:44Z</time>
      </trkpt>
      <trkpt lat="43.2995106652" lon="-8.5019020177">
        <ele>17.51</ele>
        <time>2020-03-14T15:43:54Z</time>
      </trkpt>
      <trkpt lat="43.2993793208" lon="-8.5011558607">
        <ele>18.17</ele>
        <time>2020-03-14T15:44:07Z</time>
      </trkpt>
      <trkpt lat="43.2991533447" lon="-8.5009539407">
        <ele>18.20</ele>
        <time>2020-03-14T15:44:14Z</time>
      </trkpt>
      <trkpt lat="43.2989118621" lon="-8.5009263642">
        <ele>18.20</ele>
        <time>2020-03-14T15:44:20Z</time>
      </trkpt>
      <trkpt lat="43.2988647558" lon="-8.5008595604">
        <ele>18.21</ele>
        <time>2020-03-14T15:44:22Z</time>
      </trkpt>
      <trkpt lat="43.2988679409" lon="-8.5008103587">
        <ele>18.22</ele>
        <time>2020-03-14T15:44:23Z</time>
      </trkpt>
      <trkpt lat="43.2988842856" lon="-8.5007679462">
        <ele>18.25</ele>
        <time>2020-03-14T15:44:24Z</time>
      </trkpt>
      <trkpt lat="43.2989034802" lon="-8.5007269587">
        <ele>18.26</ele>
        <time>2020-03-14T15:44:25Z</time>
      </trkpt>
      <trkpt lat="43.2989266142" lon="-8.5006872285">
        <ele>18.29</ele>
        <time>2020-03-14T15:44:26Z</time>
      </trkpt>
      <trkpt lat="43.2989763189" lon="-8.5005382821">
        <ele>18.46</ele>
        <time>2020-03-14T15:44:29Z</time>
      </trkpt>
      <trkpt lat="43.2989837788" lon="-8.5004803631">
        <ele>18.58</ele>
        <time>2020-03-14T15:44:30Z</time>
      </trkpt>
      <trkpt lat="43.2989926636" lon="-8.5003608372">
        <ele>18.92</ele>
        <time>2020-03-14T15:44:32Z</time>
      </trkpt>
      <trkpt lat="43.2989898138" lon="-8.5003010742">
        <ele>18.96</ele>
        <time>2020-03-14T15:44:33Z</time>
      </trkpt>
      <trkpt lat="43.2989775762" lon="-8.5002470110">
        <ele>19.05</ele>
        <time>2020-03-14T15:44:34Z</time>
      </trkpt>
      <trkpt lat="43.2989507541" lon="-8.5002003238">
        <ele>19.09</ele>
        <time>2020-03-14T15:44:35Z</time>
      </trkpt>
      <trkpt lat="43.2989209145" lon="-8.5001595039">
        <ele>19.12</ele>
        <time>2020-03-14T15:44:36Z</time>
      </trkpt>
      <trkpt lat="43.2988886442" lon="-8.5001227912">
        <ele>19.18</ele>
        <time>2020-03-14T15:44:37Z</time>
      </trkpt>
      <trkpt lat="43.2988567092" lon="-8.5000880901">
        <ele>19.23</ele>
        <time>2020-03-14T15:44:38Z</time>
      </trkpt>
      <trkpt lat="43.2988266181" lon="-8.5000553168">
        <ele>19.27</ele>
        <time>2020-03-14T15:44:39Z</time>
      </trkpt>
      <trkpt lat="43.2985902485" lon="-8.4997365531">
        <ele>20.48</ele>
        <time>2020-03-14T15:44:51Z</time>
      </trkpt>
      <trkpt lat="43.2985146437" lon="-8.4994633868">
        <ele>23.13</ele>
        <time>2020-03-14T15:44:58Z</time>
      </trkpt>
      <trkpt lat="43.2984211016" lon="-8.4992128517">
        <ele>23.90</ele>
        <time>2020-03-14T15:45:03Z</time>
      </trkpt>
      <trkpt lat="43.2981539704" lon="-8.4987144638">
        <ele>23.62</ele>
        <time>2020-03-14T15:45:13Z</time>
      </trkpt>
      <trkpt lat="43.2978315186" lon="-8.4982175007">
        <ele>23.55</ele>
        <time>2020-03-14T15:45:26Z</time>
      </trkpt>
      <trkpt lat="43.2976066321" lon="-8.4978741780">
        <ele>25.60</ele>
        <time>2020-03-14T15:45:36Z</time>
      </trkpt>
      <trkpt lat="43.2975502219" lon="-8.4977868386">
        <ele>25.78</ele>
        <time>2020-03-14T15:45:38Z</time>
      </trkpt>
      <trkpt lat="43.2974379882" lon="-8.4976914525">
        <ele>25.83</ele>
        <time>2020-03-14T15:45:41Z</time>
      </trkpt>
      <trkpt lat="43.2973392494" lon="-8.4976445138">
        <ele>25.83</ele>
        <time>2020-03-14T15:45:43Z</time>
      </trkpt>
      <trkpt lat="43.2971128542" lon="-8.4976104833">
        <ele>25.37</ele>
        <time>2020-03-14T15:45:48Z</time>
      </trkpt>
      <trkpt lat="43.2970814221" lon="-8.4975904506">
        <ele>25.28</ele>
        <time>2020-03-14T15:45:49Z</time>
      </trkpt>
      <trkpt lat="43.2970539294" lon="-8.4975609463">
        <ele>25.19</ele>
        <time>2020-03-14T15:45:50Z</time>
      </trkpt>
      <trkpt lat="43.2970328070" lon="-8.4975212999">
        <ele>24.79</ele>
        <time>2020-03-14T15:45:51Z</time>
      </trkpt>
      <trkpt lat="43.2970152050" lon="-8.4974769596">
        <ele>24.18</ele>
        <time>2020-03-14T15:45:52Z</time>
      </trkpt>
      <trkpt lat="43.2970008720" lon="-8.4974311944">
        <ele>23.73</ele>
        <time>2020-03-14T15:45:53Z</time>
      </trkpt>
      <trkpt lat="43.2969886344" lon="-8.4973857645">
        <ele>23.41</ele>
        <time>2020-03-14T15:45:54Z</time>
      </trkpt>
      <trkpt lat="43.2968538534" lon="-8.4966448881">
        <ele>25.11</ele>
        <time>2020-03-14T15:46:13Z</time>
      </trkpt>
      <trkpt lat="43.2968297135" lon="-8.4960662015">
        <ele>28.12</ele>
        <time>2020-03-14T15:46:26Z</time>
      </trkpt>
      <trkpt lat="43.2965485007" lon="-8.4953979123">
        <ele>28.83</ele>
        <time>2020-03-14T15:46:41Z</time>
      </trkpt>
      <trkpt lat="43.2961919345" lon="-8.4947989415">
        <ele>30.66</ele>
        <time>2020-03-14T15:46:59Z</time>
      </trkpt>
      <trkpt lat="43.2959781960" lon="-8.4942776710">
        <ele>33.81</ele>
        <time>2020-03-14T15:47:14Z</time>
      </trkpt>
      <trkpt lat="43.2958209515" lon="-8.4937046003">
        <ele>36.96</ele>
        <time>2020-03-14T15:47:29Z</time>
      </trkpt>
      <trkpt lat="43.2955897786" lon="-8.4929483850">
        <ele>38.61</ele>
        <time>2020-03-14T15:47:45Z</time>
      </trkpt>
      <trkpt lat="43.2955383137" lon="-8.4927833453">
        <ele>38.74</ele>
        <time>2020-03-14T15:47:48Z</time>
      </trkpt>
      <trkpt lat="43.2951270975" lon="-8.4915375430">
        <ele>38.28</ele>
        <time>2020-03-14T15:48:11Z</time>
      </trkpt>
      <trkpt lat="43.2947489060" lon="-8.4905721154">
        <ele>40.18</ele>
        <time>2020-03-14T15:48:33Z</time>
      </trkpt>
      <trkpt lat="43.2942821179" lon="-8.4896701388">
        <ele>42.03</ele>
        <time>2020-03-14T15:48:54Z</time>
      </trkpt>
      <trkpt lat="43.2939699758" lon="-8.4891026001">
        <ele>44.19</ele>
        <time>2020-03-14T15:49:11Z</time>
      </trkpt>
      <trkpt lat="43.2937453408" lon="-8.4888327867">
        <ele>46.69</ele>
        <time>2020-03-14T15:49:21Z</time>
      </trkpt>
      <trkpt lat="43.2936009206" lon="-8.4886631370">
        <ele>47.66</ele>
        <time>2020-03-14T15:49:27Z</time>
      </trkpt>
      <trkpt lat="43.2935999986" lon="-8.4886255860">
        <ele>47.80</ele>
        <time>2020-03-14T15:49:28Z</time>
      </trkpt>
      <trkpt lat="43.2936072908" lon="-8.4885835927">
        <ele>47.87</ele>
        <time>2020-03-14T15:49:29Z</time>
      </trkpt>
      <trkpt lat="43.2936201990" lon="-8.4885440301">
        <ele>47.93</ele>
        <time>2020-03-14T15:49:30Z</time>
      </trkpt>
      <trkpt lat="43.2936350349" lon="-8.4885128494">
        <ele>48.04</ele>
        <time>2020-03-14T15:49:31Z</time>
      </trkpt>
      <trkpt lat="43.2936497871" lon="-8.4884908050">
        <ele>48.25</ele>
        <time>2020-03-14T15:49:32Z</time>
      </trkpt>
      <trkpt lat="43.2936652936" lon="-8.4884689283">
        <ele>48.47</ele>
        <time>2020-03-14T15:49:33Z</time>
      </trkpt>
      <trkpt lat="43.2936595939" lon="-8.4880693629">
        <ele>50.32</ele>
        <time>2020-03-14T15:49:45Z</time>
      </trkpt>
      <trkpt lat="43.2936219592" lon="-8.4876801912">
        <ele>53.33</ele>
        <time>2020-03-14T15:49:57Z</time>
      </trkpt>
      <trkpt lat="43.2938564010" lon="-8.4870220441">
        <ele>54.95</ele>
        <time>2020-03-14T15:50:13Z</time>
      </trkpt>
      <trkpt lat="43.2940824609" lon="-8.4863340575">
        <ele>56.81</ele>
        <time>2020-03-14T15:50:33Z</time>
      </trkpt>
      <trkpt lat="43.2941360213" lon="-8.4859677684">
        <ele>60.13</ele>
        <time>2020-03-14T15:50:46Z</time>
      </trkpt>
      <trkpt lat="43.2941895816" lon="-8.4856629185">
        <ele>63.30</ele>
        <time>2020-03-14T15:50:57Z</time>
      </trkpt>
      <trkpt lat="43.2941910904" lon="-8.4856316540">
        <ele>63.52</ele>
        <time>2020-03-14T15:50:58Z</time>
      </trkpt>
      <trkpt lat="43.2941582333" lon="-8.4853848070">
        <ele>65.20</ele>
        <time>2020-03-14T15:51:06Z</time>
      </trkpt>
      <trkpt lat="43.2941386197" lon="-8.4853666183">
        <ele>65.38</ele>
        <time>2020-03-14T15:51:07Z</time>
      </trkpt>
      <trkpt lat="43.2941137254" lon="-8.4853479266">
        <ele>65.60</ele>
        <time>2020-03-14T15:51:08Z</time>
      </trkpt>
      <trkpt lat="43.2940926030" lon="-8.4853263851">
        <ele>65.78</ele>
        <time>2020-03-14T15:51:09Z</time>
      </trkpt>
      <trkpt lat="43.2940687146" lon="-8.4853030834">
        <ele>66.01</ele>
        <time>2020-03-14T15:51:10Z</time>
      </trkpt>
      <trkpt lat="43.2938289084" lon="-8.4851616807">
        <ele>67.91</ele>
        <time>2020-03-14T15:51:21Z</time>
      </trkpt>
      <trkpt lat="43.2938213646" lon="-8.4851890057">
        <ele>68.07</ele>
        <time>2020-03-14T15:51:22Z</time>
      </trkpt>
      <trkpt lat="43.2938197721" lon="-8.4852150735">
        <ele>68.18</ele>
        <time>2020-03-14T15:51:23Z</time>
      </trkpt>
      <trkpt lat="43.2938116416" lon="-8.4852387942">
        <ele>68.32</ele>
        <time>2020-03-14T15:51:24Z</time>
      </trkpt>
      <trkpt lat="43.2937994879" lon="-8.4852543008">
        <ele>68.60</ele>
        <time>2020-03-14T15:51:25Z</time>
      </trkpt>
      <trkpt lat="43.2937719952" lon="-8.4852642752">
        <ele>68.79</ele>
        <time>2020-03-14T15:51:26Z</time>
      </trkpt>
      <trkpt lat="43.2937001623" lon="-8.4852532949">
        <ele>68.96</ele>
        <time>2020-03-14T15:51:27Z</time>
      </trkpt>
      <trkpt lat="43.2936538942" lon="-8.4852197673">
        <ele>69.05</ele>
        <time>2020-03-14T15:51:28Z</time>
      </trkpt>
      <trkpt lat="43.2936071232" lon="-8.4851626027">
        <ele>69.12</ele>
        <time>2020-03-14T15:51:29Z</time>
      </trkpt>
      <trkpt lat="43.2936049439" lon="-8.4850735031">
        <ele>69.16</ele>
        <time>2020-03-14T15:51:30Z</time>
      </trkpt>
      <trkpt lat="43.2935842406" lon="-8.4850005805">
        <ele>69.23</ele>
        <time>2020-03-14T15:51:31Z</time>
      </trkpt>
      <trkpt lat="43.2935592625" lon="-8.4849478584">
        <ele>69.27</ele>
        <time>2020-03-14T15:51:32Z</time>
      </trkpt>
      <trkpt lat="43.2935352065" lon="-8.4848854132">
        <ele>69.30</ele>
        <time>2020-03-14T15:51:33Z</time>
      </trkpt>
      <trkpt lat="43.2935130782" lon="-8.4848112334">
        <ele>69.33</ele>
        <time>2020-03-14T15:51:34Z</time>
      </trkpt>
      <trkpt lat="43.2934947219" lon="-8.4847481176">
        <ele>69.37</ele>
        <time>2020-03-14T15:51:35Z</time>
      </trkpt>
      <trkpt lat="43.2934824843" lon="-8.4846991673">
        <ele>69.41</ele>
        <time>2020-03-14T15:51:36Z</time>
      </trkpt>
      <trkpt lat="43.2934713364" lon="-8.4846462775">
        <ele>69.42</ele>
        <time>2020-03-14T15:51:37Z</time>
      </trkpt>
      <trkpt lat="43.2934567519" lon="-8.4846016858">
        <ele>69.54</ele>
        <time>2020-03-14T15:51:38Z</time>
      </trkpt>
      <trkpt lat="43.2934417482" lon="-8.4845625423">
        <ele>69.66</ele>
        <time>2020-03-14T15:51:39Z</time>
      </trkpt>
      <trkpt lat="43.2934035268" lon="-8.4840588737">
        <ele>71.12</ele>
        <time>2020-03-14T15:51:51Z</time>
      </trkpt>
      <trkpt lat="43.2933795545" lon="-8.4840322193">
        <ele>71.28</ele>
        <time>2020-03-14T15:51:52Z</time>
      </trkpt>
      <trkpt lat="43.2930995151" lon="-8.4838333167">
        <ele>72.75</ele>
        <time>2020-03-14T15:52:03Z</time>
      </trkpt>
      <trkpt lat="43.2927582879" lon="-8.4836751502">
        <ele>74.98</ele>
        <time>2020-03-14T15:52:14Z</time>
      </trkpt>
      <trkpt lat="43.2924203295" lon="-8.4835304786">
        <ele>75.86</ele>
        <time>2020-03-14T15:52:25Z</time>
      </trkpt>
      <trkpt lat="43.2921688724" lon="-8.4831532091">
        <ele>77.17</ele>
        <time>2020-03-14T15:52:37Z</time>
      </trkpt>
      <trkpt lat="43.2920061797" lon="-8.4827291686">
        <ele>79.26</ele>
        <time>2020-03-14T15:52:49Z</time>
      </trkpt>
      <trkpt lat="43.2918093726" lon="-8.4823115822">
        <ele>81.63</ele>
        <time>2020-03-14T15:53:01Z</time>
      </trkpt>
      <trkpt lat="43.2916145772" lon="-8.4818785731">
        <ele>82.40</ele>
        <time>2020-03-14T15:53:12Z</time>
      </trkpt>
      <trkpt lat="43.2915225439" lon="-8.4817124438">
        <ele>82.55</ele>
        <time>2020-03-14T15:53:17Z</time>
      </trkpt>
      <trkpt lat="43.2915079594" lon="-8.4816779103">
        <ele>82.64</ele>
        <time>2020-03-14T15:53:18Z</time>
      </trkpt>
      <trkpt lat="43.2914948836" lon="-8.4816479869">
        <ele>82.73</ele>
        <time>2020-03-14T15:53:19Z</time>
      </trkpt>
      <trkpt lat="43.2914859988" lon="-8.4816194884">
        <ele>82.79</ele>
        <time>2020-03-14T15:53:20Z</time>
      </trkpt>
      <trkpt lat="43.2914735097" lon="-8.4815887269">
        <ele>82.94</ele>
        <time>2020-03-14T15:53:21Z</time>
      </trkpt>
      <trkpt lat="43.2914611883" lon="-8.4815588873">
        <ele>83.02</ele>
        <time>2020-03-14T15:53:22Z</time>
      </trkpt>
      <trkpt lat="43.2914488669" lon="-8.4815300535">
        <ele>83.44</ele>
        <time>2020-03-14T15:53:23Z</time>
      </trkpt>
      <trkpt lat="43.2912876830" lon="-8.4812403750">
        <ele>86.01</ele>
        <time>2020-03-14T15:53:32Z</time>
      </trkpt>
      <trkpt lat="43.2909792289" lon="-8.4808837250">
        <ele>86.66</ele>
        <time>2020-03-14T15:53:43Z</time>
      </trkpt>
      <trkpt lat="43.2905129436" lon="-8.4806075413">
        <ele>87.06</ele>
        <time>2020-03-14T15:53:57Z</time>
      </trkpt>
      <trkpt lat="43.2900021505" lon="-8.4804349579">
        <ele>89.29</ele>
        <time>2020-03-14T15:54:13Z</time>
      </trkpt>
      <trkpt lat="43.2897517830" lon="-8.4801620431">
        <ele>90.27</ele>
        <time>2020-03-14T15:54:23Z</time>
      </trkpt>
      <trkpt lat="43.2895726617" lon="-8.4797129408">
        <ele>90.66</ele>
        <time>2020-03-14T15:54:33Z</time>
      </trkpt>
      <trkpt lat="43.2895532157" lon="-8.4796578716">
        <ele>90.66</ele>
        <time>2020-03-14T15:54:34Z</time>
      </trkpt>
      <trkpt lat="43.2892275788" lon="-8.4789631795">
        <ele>89.72</ele>
        <time>2020-03-14T15:54:47Z</time>
      </trkpt>
      <trkpt lat="43.2891860045" lon="-8.4789151512">
        <ele>89.71</ele>
        <time>2020-03-14T15:54:48Z</time>
      </trkpt>
      <trkpt lat="43.2891074661" lon="-8.4787876625">
        <ele>89.67</ele>
        <time>2020-03-14T15:54:51Z</time>
      </trkpt>
      <trkpt lat="43.2891054545" lon="-8.4787372034">
        <ele>89.63</ele>
        <time>2020-03-14T15:54:52Z</time>
      </trkpt>
      <trkpt lat="43.2891086396" lon="-8.4786848165">
        <ele>89.60</ele>
        <time>2020-03-14T15:54:53Z</time>
      </trkpt>
      <trkpt lat="43.2891216315" lon="-8.4786487743">
        <ele>89.52</ele>
        <time>2020-03-14T15:54:54Z</time>
      </trkpt>
      <trkpt lat="43.2891406585" lon="-8.4786254726">
        <ele>89.45</ele>
        <time>2020-03-14T15:54:55Z</time>
      </trkpt>
      <trkpt lat="43.2891602721" lon="-8.4786158334">
        <ele>89.41</ele>
        <time>2020-03-14T15:54:56Z</time>
      </trkpt>
      <trkpt lat="43.2891767845" lon="-8.4786123130">
        <ele>89.39</ele>
        <time>2020-03-14T15:54:57Z</time>
      </trkpt>
      <trkpt lat="43.2891935483" lon="-8.4786156658">
        <ele>89.38</ele>
        <time>2020-03-14T15:54:58Z</time>
      </trkpt>
      <trkpt lat="43.2892094739" lon="-8.4786256403">
        <ele>89.37</ele>
        <time>2020-03-14T15:54:59Z</time>
      </trkpt>
      <trkpt lat="43.2892238069" lon="-8.4786306694">
        <ele>89.37</ele>
        <time>2020-03-14T15:55:00Z</time>
      </trkpt>
      <trkpt lat="43.2894759346" lon="-8.4786975570">
        <ele>92.46</ele>
        <time>2020-03-14T15:55:14Z</time>
      </trkpt>
      <trkpt lat="43.2897952013" lon="-8.4787839744">
        <ele>95.50</ele>
        <time>2020-03-14T15:55:26Z</time>
      </trkpt>
      <trkpt lat="43.2900423836" lon="-8.4787760116">
        <ele>98.00</ele>
        <time>2020-03-14T15:55:36Z</time>
      </trkpt>
      <trkpt lat="43.2904582098" lon="-8.4788817912">
        <ele>98.33</ele>
        <time>2020-03-14T15:55:47Z</time>
      </trkpt>
      <trkpt lat="43.2905946672" lon="-8.4789289813">
        <ele>98.26</ele>
        <time>2020-03-14T15:55:50Z</time>
      </trkpt>
      <trkpt lat="43.2910250779" lon="-8.4791656025">
        <ele>97.51</ele>
        <time>2020-03-14T15:56:02Z</time>
      </trkpt>
      <trkpt lat="43.2913281675" lon="-8.4793414548">
        <ele>98.32</ele>
        <time>2020-03-14T15:56:12Z</time>
      </trkpt>
      <trkpt lat="43.2913440093" lon="-8.4795223363">
        <ele>98.77</ele>
        <time>2020-03-14T15:56:16Z</time>
      </trkpt>
      <trkpt lat="43.2915626094" lon="-8.4798960015">
        <ele>99.39</ele>
        <time>2020-03-14T15:56:27Z</time>
      </trkpt>
      <trkpt lat="43.2917807065" lon="-8.4800296929">
        <ele>100.44</ele>
        <time>2020-03-14T15:56:36Z</time>
      </trkpt>
      <trkpt lat="43.2920317445" lon="-8.4801558405">
        <ele>101.25</ele>
        <time>2020-03-14T15:56:46Z</time>
      </trkpt>
      <trkpt lat="43.2923315652" lon="-8.4802614525">
        <ele>101.31</ele>
        <time>2020-03-14T15:56:56Z</time>
      </trkpt>
      <trkpt lat="43.2923779171" lon="-8.4802602790">
        <ele>101.32</ele>
        <time>2020-03-14T15:56:57Z</time>
      </trkpt>
      <trkpt lat="43.2924135402" lon="-8.4802504722">
        <ele>101.32</ele>
        <time>2020-03-14T15:56:58Z</time>
      </trkpt>
      <trkpt lat="43.2924497500" lon="-8.4802394919">
        <ele>101.36</ele>
        <time>2020-03-14T15:56:59Z</time>
      </trkpt>
      <trkpt lat="43.2924908213" lon="-8.4802305233">
        <ele>101.39</ele>
        <time>2020-03-14T15:57:00Z</time>
      </trkpt>
      <trkpt lat="43.2929345593" lon="-8.4800156113">
        <ele>100.93</ele>
        <time>2020-03-14T15:57:13Z</time>
      </trkpt>
      <trkpt lat="43.2930011116" lon="-8.4799840953">
        <ele>100.68</ele>
        <time>2020-03-14T15:57:16Z</time>
      </trkpt>
      <trkpt lat="43.2930225693" lon="-8.4799672477">
        <ele>100.52</ele>
        <time>2020-03-14T15:57:17Z</time>
      </trkpt>
      <trkpt lat="43.2930474635" lon="-8.4799550939">
        <ele>100.37</ele>
        <time>2020-03-14T15:57:18Z</time>
      </trkpt>
      <trkpt lat="43.2932889462" lon="-8.4798264317">
        <ele>98.22</ele>
        <time>2020-03-14T15:57:27Z</time>
      </trkpt>
      <trkpt lat="43.2935409062" lon="-8.4796695225">
        <ele>95.03</ele>
        <time>2020-03-14T15:57:36Z</time>
      </trkpt>
      <trkpt lat="43.2935913652" lon="-8.4796333965">
        <ele>94.45</ele>
        <time>2020-03-14T15:57:38Z</time>
      </trkpt>
      <trkpt lat="43.2935940474" lon="-8.4796040598">
        <ele>93.82</ele>
        <time>2020-03-14T15:57:39Z</time>
      </trkpt>
      <trkpt lat="43.2935752720" lon="-8.4795779083">
        <ele>93.40</ele>
        <time>2020-03-14T15:57:40Z</time>
      </trkpt>
      <trkpt lat="43.2935400680" lon="-8.4795655869">
        <ele>93.13</ele>
        <time>2020-03-14T15:57:41Z</time>
      </trkpt>
      <trkpt lat="43.2935001701" lon="-8.4795660060">
        <ele>92.93</ele>
        <time>2020-03-14T15:57:42Z</time>
      </trkpt>
      <trkpt lat="43.2934581768" lon="-8.4795700293">
        <ele>92.78</ele>
        <time>2020-03-14T15:57:43Z</time>
      </trkpt>
      <trkpt lat="43.2934170216" lon="-8.4795670118">
        <ele>92.49</ele>
        <time>2020-03-14T15:57:44Z</time>
      </trkpt>
      <trkpt lat="43.2933760341" lon="-8.4795502480">
        <ele>92.24</ele>
        <time>2020-03-14T15:57:45Z</time>
      </trkpt>
      <trkpt lat="43.2933389861" lon="-8.4795202408">
        <ele>92.07</ele>
        <time>2020-03-14T15:57:46Z</time>
      </trkpt>
      <trkpt lat="43.2933117449" lon="-8.4794826899">
        <ele>91.74</ele>
        <time>2020-03-14T15:57:47Z</time>
      </trkpt>
      <trkpt lat="43.2932930533" lon="-8.4794313088">
        <ele>91.35</ele>
        <time>2020-03-14T15:57:48Z</time>
      </trkpt>
      <trkpt lat="43.2932834979" lon="-8.4793689474">
        <ele>90.97</ele>
        <time>2020-03-14T15:57:49Z</time>
      </trkpt>
      <trkpt lat="43.2932788879" lon="-8.4793002997">
        <ele>90.77</ele>
        <time>2020-03-14T15:57:50Z</time>
      </trkpt>
      <trkpt lat="43.2932782173" lon="-8.4792298079">
        <ele>90.66</ele>
        <time>2020-03-14T15:57:51Z</time>
      </trkpt>
      <trkpt lat="43.2932835817" lon="-8.4791551251">
        <ele>90.51</ele>
        <time>2020-03-14T15:57:52Z</time>
      </trkpt>
      <trkpt lat="43.2932957355" lon="-8.4790779278">
        <ele>90.36</ele>
        <time>2020-03-14T15:57:53Z</time>
      </trkpt>
      <trkpt lat="43.2935572509" lon="-8.4783073794">
        <ele>86.95</ele>
        <time>2020-03-14T15:58:03Z</time>
      </trkpt>
      <trkpt lat="43.2935777027" lon="-8.4782265779">
        <ele>86.95</ele>
        <time>2020-03-14T15:58:04Z</time>
      </trkpt>
      <trkpt lat="43.2937506214" lon="-8.4773786645">
        <ele>84.89</ele>
        <time>2020-03-14T15:58:15Z</time>
      </trkpt>
      <trkpt lat="43.2937498670" lon="-8.4773066640">
        <ele>84.84</ele>
        <time>2020-03-14T15:58:16Z</time>
      </trkpt>
      <trkpt lat="43.2937544771" lon="-8.4771090187">
        <ele>84.81</ele>
        <time>2020-03-14T15:58:19Z</time>
      </trkpt>
      <trkpt lat="43.2937704027" lon="-8.4770549554">
        <ele>84.88</ele>
        <time>2020-03-14T15:58:20Z</time>
      </trkpt>
      <trkpt lat="43.2937976439" lon="-8.4770116210">
        <ele>84.94</ele>
        <time>2020-03-14T15:58:21Z</time>
      </trkpt>
      <trkpt lat="43.2938276511" lon="-8.4769769199">
        <ele>84.98</ele>
        <time>2020-03-14T15:58:22Z</time>
      </trkpt>
      <trkpt lat="43.2938754279" lon="-8.4769388661">
        <ele>84.96</ele>
        <time>2020-03-14T15:58:23Z</time>
      </trkpt>
      <trkpt lat="43.2939335983" lon="-8.4769022372">
        <ele>84.89</ele>
        <time>2020-03-14T15:58:24Z</time>
      </trkpt>
      <trkpt lat="43.2944247779" lon="-8.4767349344">
        <ele>84.56</ele>
        <time>2020-03-14T15:58:30Z</time>
      </trkpt>
      <trkpt lat="43.2945821062" lon="-8.4765976388">
        <ele>81.03</ele>
        <time>2020-03-14T15:58:34Z</time>
      </trkpt>
      <trkpt lat="43.2946008816" lon="-8.4764625225">
        <ele>77.69</ele>
        <time>2020-03-14T15:58:36Z</time>
      </trkpt>
      <trkpt lat="43.2946554478" lon="-8.4762026835">
        <ele>74.90</ele>
        <time>2020-03-14T15:58:40Z</time>
      </trkpt>
      <trkpt lat="43.2950315438" lon="-8.4758484643">
        <ele>74.19</ele>
        <time>2020-03-14T15:58:49Z</time>
      </trkpt>
      <trkpt lat="43.2951500639" lon="-8.4758846741">
        <ele>73.88</ele>
        <time>2020-03-14T15:58:51Z</time>
      </trkpt>
      <trkpt lat="43.2952728588" lon="-8.4759351332">
        <ele>73.66</ele>
        <time>2020-03-14T15:58:53Z</time>
      </trkpt>
      <trkpt lat="43.2955628727" lon="-8.4758562595">
        <ele>72.77</ele>
        <time>2020-03-14T15:58:58Z</time>
      </trkpt>
      <trkpt lat="43.2956589293" lon="-8.4757646453">
        <ele>71.93</ele>
        <time>2020-03-14T15:59:00Z</time>
      </trkpt>
      <trkpt lat="43.2959940378" lon="-8.4752639104">
        <ele>69.26</ele>
        <time>2020-03-14T15:59:08Z</time>
      </trkpt>
      <trkpt lat="43.2961988077" lon="-8.4749284666">
        <ele>67.97</ele>
        <time>2020-03-14T15:59:13Z</time>
      </trkpt>
      <trkpt lat="43.2962818723" lon="-8.4747056756">
        <ele>67.06</ele>
        <time>2020-03-14T15:59:16Z</time>
      </trkpt>
      <trkpt lat="43.2963183336" lon="-8.4745746665">
        <ele>66.71</ele>
        <time>2020-03-14T15:59:18Z</time>
      </trkpt>
      <trkpt lat="43.2963429764" lon="-8.4745188430">
        <ele>66.38</ele>
        <time>2020-03-14T15:59:19Z</time>
      </trkpt>
      <trkpt lat="43.2963746600" lon="-8.4744777717">
        <ele>65.92</ele>
        <time>2020-03-14T15:59:20Z</time>
      </trkpt>
      <trkpt lat="43.2964225207" lon="-8.4744589962">
        <ele>65.42</ele>
        <time>2020-03-14T15:59:21Z</time>
      </trkpt>
      <trkpt lat="43.2964802720" lon="-8.4744644444">
        <ele>65.29</ele>
        <time>2020-03-14T15:59:22Z</time>
      </trkpt>
      <trkpt lat="43.2965395320" lon="-8.4744812921">
        <ele>65.22</ele>
        <time>2020-03-14T15:59:23Z</time>
      </trkpt>
      <trkpt lat="43.2966044080" lon="-8.4744987264">
        <ele>65.06</ele>
        <time>2020-03-14T15:59:24Z</time>
      </trkpt>
      <trkpt lat="43.2966658473" lon="-8.4745055996">
        <ele>64.88</ele>
        <time>2020-03-14T15:59:25Z</time>
      </trkpt>
      <trkpt lat="43.2967193238" lon="-8.4744803701">
        <ele>64.73</ele>
        <time>2020-03-14T15:59:26Z</time>
      </trkpt>
      <trkpt lat="43.2967645861" lon="-8.4744382091">
        <ele>64.57</ele>
        <time>2020-03-14T15:59:27Z</time>
      </trkpt>
      <trkpt lat="43.2967982814" lon="-8.4743882529">
        <ele>64.26</ele>
        <time>2020-03-14T15:59:28Z</time>
      </trkpt>
      <trkpt lat="43.2968224213" lon="-8.4743282385">
        <ele>64.08</ele>
        <time>2020-03-14T15:59:29Z</time>
      </trkpt>
      <trkpt lat="43.2968428731" lon="-8.4742657933">
        <ele>63.93</ele>
        <time>2020-03-14T15:59:30Z</time>
      </trkpt>
      <trkpt lat="43.2968593854" lon="-8.4742026776">
        <ele>63.67</ele>
        <time>2020-03-14T15:59:31Z</time>
      </trkpt>
      <trkpt lat="43.2968826033" lon="-8.4741423279">
        <ele>63.53</ele>
        <time>2020-03-14T15:59:32Z</time>
      </trkpt>
      <trkpt lat="43.2969100960" lon="-8.4740863368">
        <ele>63.46</ele>
        <time>2020-03-14T15:59:33Z</time>
      </trkpt>
      <trkpt lat="43.2969698589" lon="-8.4739747737">
        <ele>63.40</ele>
        <time>2020-03-14T15:59:35Z</time>
      </trkpt>
      <trkpt lat="43.2973090746" lon="-8.4734870307">
        <ele>62.66</ele>
        <time>2020-03-14T15:59:44Z</time>
      </trkpt>
      <trkpt lat="43.2973654009" lon="-8.4734341409">
        <ele>62.57</ele>
        <time>2020-03-14T15:59:45Z</time>
      </trkpt>
      <trkpt lat="43.2974287681" lon="-8.4733965900">
        <ele>62.57</ele>
        <time>2020-03-14T15:59:46Z</time>
      </trkpt>
      <trkpt lat="43.2975022774" lon="-8.4733721148">
        <ele>62.22</ele>
        <time>2020-03-14T15:59:47Z</time>
      </trkpt>
      <trkpt lat="43.2975788042" lon="-8.4733555187">
        <ele>61.99</ele>
        <time>2020-03-14T15:59:48Z</time>
      </trkpt>
      <trkpt lat="43.2976575941" lon="-8.4733358212">
        <ele>61.70</ele>
        <time>2020-03-14T15:59:49Z</time>
      </trkpt>
      <trkpt lat="43.2977317739" lon="-8.4733157046">
        <ele>61.37</ele>
        <time>2020-03-14T15:59:50Z</time>
      </trkpt>
      <trkpt lat="43.2978720032" lon="-8.4732885472">
        <ele>60.31</ele>
        <time>2020-03-14T15:59:52Z</time>
      </trkpt>
      <trkpt lat="43.2979426626" lon="-8.4733010363">
        <ele>59.76</ele>
        <time>2020-03-14T15:59:53Z</time>
      </trkpt>
      <trkpt lat="43.2980679721" lon="-8.4733386710">
        <ele>58.69</ele>
        <time>2020-03-14T15:59:55Z</time>
      </trkpt>
      <trkpt lat="43.2981285732" lon="-8.4733649064">
        <ele>58.27</ele>
        <time>2020-03-14T15:59:56Z</time>
      </trkpt>
      <trkpt lat="43.2981891744" lon="-8.4734120965">
        <ele>57.79</ele>
        <time>2020-03-14T15:59:57Z</time>
      </trkpt>
      <trkpt lat="43.2984412182" lon="-8.4735970013">
        <ele>55.69</ele>
        <time>2020-03-14T16:00:01Z</time>
      </trkpt>
      <trkpt lat="43.2987358421" lon="-8.4737462830">
        <ele>55.29</ele>
        <time>2020-03-14T16:00:06Z</time>
      </trkpt>
      <trkpt lat="43.2987852115" lon="-8.4737490490">
        <ele>55.23</ele>
        <time>2020-03-14T16:00:07Z</time>
      </trkpt>
      <trkpt lat="43.2988326531" lon="-8.4737389069">
        <ele>55.04</ele>
        <time>2020-03-14T16:00:08Z</time>
      </trkpt>
      <trkpt lat="43.2988820225" lon="-8.4737153538">
        <ele>54.72</ele>
        <time>2020-03-14T16:00:09Z</time>
      </trkpt>
      <trkpt lat="43.2989282906" lon="-8.4736828320">
        <ele>54.41</ele>
        <time>2020-03-14T16:00:10Z</time>
      </trkpt>
      <trkpt lat="43.2990545221" lon="-8.4735690895">
        <ele>53.81</ele>
        <time>2020-03-14T16:00:15Z</time>
      </trkpt>
      <trkpt lat="43.2990610600" lon="-8.4735344723">
        <ele>53.81</ele>
        <time>2020-03-14T16:00:16Z</time>
      </trkpt>
      <trkpt lat="43.2990626525" lon="-8.4734954126">
        <ele>53.81</ele>
        <time>2020-03-14T16:00:17Z</time>
      </trkpt>
      <trkpt lat="43.2990598865" lon="-8.4734556824">
        <ele>53.81</ele>
        <time>2020-03-14T16:00:18Z</time>
      </trkpt>
      <trkpt lat="43.2990555279" lon="-8.4734145273">
        <ele>53.81</ele>
        <time>2020-03-14T16:00:19Z</time>
      </trkpt>
      <trkpt lat="43.2990057394" lon="-8.4726996347">
        <ele>56.24</ele>
        <time>2020-03-14T16:00:37Z</time>
      </trkpt>
      <trkpt lat="43.2988410350" lon="-8.4720056131">
        <ele>59.27</ele>
        <time>2020-03-14T16:00:55Z</time>
      </trkpt>
      <trkpt lat="43.2987255324" lon="-8.4714153595">
        <ele>61.79</ele>
        <time>2020-03-14T16:01:12Z</time>
      </trkpt>
      <trkpt lat="43.2986110356" lon="-8.4710975178">
        <ele>64.43</ele>
        <time>2020-03-14T16:01:25Z</time>
      </trkpt>
      <trkpt lat="43.2985910866" lon="-8.4709407762">
        <ele>66.19</ele>
        <time>2020-03-14T16:01:32Z</time>
      </trkpt>
      <trkpt lat="43.2986070961" lon="-8.4708808456">
        <ele>66.98</ele>
        <time>2020-03-14T16:01:35Z</time>
      </trkpt>
      <trkpt lat="43.2988374308" lon="-8.4707305580">
        <ele>69.11</ele>
        <time>2020-03-14T16:01:45Z</time>
      </trkpt>
      <trkpt lat="43.2992402650" lon="-8.4707107767">
        <ele>69.35</ele>
        <time>2020-03-14T16:01:56Z</time>
      </trkpt>
      <trkpt lat="43.2993343938" lon="-8.4707219247">
        <ele>69.35</ele>
        <time>2020-03-14T16:01:58Z</time>
      </trkpt>
      <trkpt lat="43.2995225675" lon="-8.4707493335">
        <ele>68.83</ele>
        <time>2020-03-14T16:02:02Z</time>
      </trkpt>
      <trkpt lat="43.2998228911" lon="-8.4708753973">
        <ele>67.33</ele>
        <time>2020-03-14T16:02:08Z</time>
      </trkpt>
      <trkpt lat="43.2999430876" lon="-8.4709557798">
        <ele>66.70</ele>
        <time>2020-03-14T16:02:11Z</time>
      </trkpt>
      <trkpt lat="43.3001286630" lon="-8.4711163770">
        <ele>65.78</ele>
        <time>2020-03-14T16:02:16Z</time>
      </trkpt>
      <trkpt lat="43.3002203610" lon="-8.4712634794">
        <ele>65.57</ele>
        <time>2020-03-14T16:02:20Z</time>
      </trkpt>
      <trkpt lat="43.3005464170" lon="-8.4714669921">
        <ele>63.92</ele>
        <time>2020-03-14T16:02:30Z</time>
      </trkpt>
      <trkpt lat="43.3010327350" lon="-8.4714588616">
        <ele>62.29</ele>
        <time>2020-03-14T16:02:41Z</time>
      </trkpt>
      <trkpt lat="43.3013649937" lon="-8.4713722765">
        <ele>59.90</ele>
        <time>2020-03-14T16:02:50Z</time>
      </trkpt>
      <trkpt lat="43.3016300295" lon="-8.4712342266">
        <ele>58.99</ele>
        <time>2020-03-14T16:02:57Z</time>
      </trkpt>
      <trkpt lat="43.3019925468" lon="-8.4708659258">
        <ele>56.17</ele>
        <time>2020-03-14T16:03:08Z</time>
      </trkpt>
      <trkpt lat="43.3020596020" lon="-8.4707869682">
        <ele>55.86</ele>
        <time>2020-03-14T16:03:10Z</time>
      </trkpt>
      <trkpt lat="43.3025833033" lon="-8.4700689744">
        <ele>53.64</ele>
        <time>2020-03-14T16:03:26Z</time>
      </trkpt>
      <trkpt lat="43.3026434854" lon="-8.4699894302">
        <ele>53.53</ele>
        <time>2020-03-14T16:03:28Z</time>
      </trkpt>
      <trkpt lat="43.3030636702" lon="-8.4695374779">
        <ele>52.53</ele>
        <time>2020-03-14T16:03:41Z</time>
      </trkpt>
      <trkpt lat="43.3030817751" lon="-8.4695036989">
        <ele>52.52</ele>
        <time>2020-03-14T16:03:42Z</time>
      </trkpt>
      <trkpt lat="43.3029811084" lon="-8.4692778066">
        <ele>52.55</ele>
        <time>2020-03-14T16:03:50Z</time>
      </trkpt>
      <trkpt lat="43.3028120454" lon="-8.4689742140">
        <ele>55.28</ele>
        <time>2020-03-14T16:04:03Z</time>
      </trkpt>
      <trkpt lat="43.3025541343" lon="-8.4686271194">
        <ele>56.95</ele>
        <time>2020-03-14T16:04:15Z</time>
      </trkpt>
      <trkpt lat="43.3022886794" lon="-8.4681596607">
        <ele>58.72</ele>
        <time>2020-03-14T16:04:29Z</time>
      </trkpt>
      <trkpt lat="43.3022714127" lon="-8.4681157395">
        <ele>58.75</ele>
        <time>2020-03-14T16:04:30Z</time>
      </trkpt>
      <trkpt lat="43.3021253999" lon="-8.4679472633">
        <ele>58.77</ele>
        <time>2020-03-14T16:04:35Z</time>
      </trkpt>
      <trkpt lat="43.3021068759" lon="-8.4679219499">
        <ele>58.77</ele>
        <time>2020-03-14T16:04:36Z</time>
      </trkpt>
      <trkpt lat="43.3022308443" lon="-8.4677771106">
        <ele>56.92</ele>
        <time>2020-03-14T16:04:41Z</time>
      </trkpt>
      <trkpt lat="43.3022786211" lon="-8.4677517973">
        <ele>56.48</ele>
        <time>2020-03-14T16:04:42Z</time>
      </trkpt>
      <trkpt lat="43.3023241349" lon="-8.4677200299">
        <ele>56.15</ele>
        <time>2020-03-14T16:04:43Z</time>
      </trkpt>
      <trkpt lat="43.3027461637" lon="-8.4674487915">
        <ele>52.93</ele>
        <time>2020-03-14T16:04:51Z</time>
      </trkpt>
      <trkpt lat="43.3030006383" lon="-8.4673393238">
        <ele>50.47</ele>
        <time>2020-03-14T16:04:56Z</time>
      </trkpt>
      <trkpt lat="43.3032429591" lon="-8.4672146849">
        <ele>48.09</ele>
        <time>2020-03-14T16:05:01Z</time>
      </trkpt>
      <trkpt lat="43.3033806738" lon="-8.4671793133">
        <ele>46.66</ele>
        <time>2020-03-14T16:05:05Z</time>
      </trkpt>
      <trkpt lat="43.3033855353" lon="-8.4671424329">
        <ele>46.23</ele>
        <time>2020-03-14T16:05:06Z</time>
      </trkpt>
      <trkpt lat="43.3033840265" lon="-8.4671005234">
        <ele>45.88</ele>
        <time>2020-03-14T16:05:07Z</time>
      </trkpt>
      <trkpt lat="43.3033836912" lon="-8.4670551773">
        <ele>45.69</ele>
        <time>2020-03-14T16:05:08Z</time>
      </trkpt>
      <trkpt lat="43.3034695219" lon="-8.4666820988">
        <ele>45.14</ele>
        <time>2020-03-14T16:05:16Z</time>
      </trkpt>
      <trkpt lat="43.3035055641" lon="-8.4666735493">
        <ele>45.13</ele>
        <time>2020-03-14T16:05:17Z</time>
      </trkpt>
      <trkpt lat="43.3035431989" lon="-8.4666859545">
        <ele>45.13</ele>
        <time>2020-03-14T16:05:18Z</time>
      </trkpt>
      <trkpt lat="43.3037329651" lon="-8.4667904768">
        <ele>45.13</ele>
        <time>2020-03-14T16:05:23Z</time>
      </trkpt>
      <trkpt lat="43.3041810617" lon="-8.4669127688">
        <ele>45.85</ele>
        <time>2020-03-14T16:05:38Z</time>
      </trkpt>
      <trkpt lat="43.3044782002" lon="-8.4668071568">
        <ele>48.29</ele>
        <time>2020-03-14T16:05:50Z</time>
      </trkpt>
      <trkpt lat="43.3047488518" lon="-8.4666131996">
        <ele>51.51</ele>
        <time>2020-03-14T16:06:02Z</time>
      </trkpt>
      <trkpt lat="43.3051152248" lon="-8.4662435576">
        <ele>53.60</ele>
        <time>2020-03-14T16:06:18Z</time>
      </trkpt>
      <trkpt lat="43.3055892214" lon="-8.4656959679">
        <ele>52.85</ele>
        <time>2020-03-14T16:06:34Z</time>
      </trkpt>
      <trkpt lat="43.3059282694" lon="-8.4655678924">
        <ele>53.86</ele>
        <time>2020-03-14T16:06:47Z</time>
      </trkpt>
      <trkpt lat="43.3061260823" lon="-8.4658890031">
        <ele>54.57</ele>
        <time>2020-03-14T16:06:55Z</time>
      </trkpt>
      <trkpt lat="43.3061436843" lon="-8.4659442399">
        <ele>54.60</ele>
        <time>2020-03-14T16:06:56Z</time>
      </trkpt>
      <trkpt lat="43.3062415849" lon="-8.4662386961">
        <ele>54.60</ele>
        <time>2020-03-14T16:07:01Z</time>
      </trkpt>
      <trkpt lat="43.3063092269" lon="-8.4663616586">
        <ele>54.51</ele>
        <time>2020-03-14T16:07:03Z</time>
      </trkpt>
      <trkpt lat="43.3063509688" lon="-8.4664215054">
        <ele>54.23</ele>
        <time>2020-03-14T16:07:04Z</time>
      </trkpt>
      <trkpt lat="43.3065030165" lon="-8.4665840305">
        <ele>53.07</ele>
        <time>2020-03-14T16:07:07Z</time>
      </trkpt>
      <trkpt lat="43.3067582455" lon="-8.4667930752">
        <ele>51.50</ele>
        <time>2020-03-14T16:07:11Z</time>
      </trkpt>
      <trkpt lat="43.3070589043" lon="-8.4671919700">
        <ele>48.67</ele>
        <time>2020-03-14T16:07:17Z</time>
      </trkpt>
      <trkpt lat="43.3070822060" lon="-8.4672668204">
        <ele>48.09</ele>
        <time>2020-03-14T16:07:18Z</time>
      </trkpt>
      <trkpt lat="43.3070984669" lon="-8.4673486277">
        <ele>47.66</ele>
        <time>2020-03-14T16:07:19Z</time>
      </trkpt>
      <trkpt lat="43.3071045857" lon="-8.4674294293">
        <ele>47.43</ele>
        <time>2020-03-14T16:07:20Z</time>
      </trkpt>
      <trkpt lat="43.3071024902" lon="-8.4675103985">
        <ele>47.07</ele>
        <time>2020-03-14T16:07:21Z</time>
      </trkpt>
      <trkpt lat="43.3070970420" lon="-8.4675865062">
        <ele>47.00</ele>
        <time>2020-03-14T16:07:22Z</time>
      </trkpt>
      <trkpt lat="43.3070889954" lon="-8.4677879233">
        <ele>46.94</ele>
        <time>2020-03-14T16:07:25Z</time>
      </trkpt>
      <trkpt lat="43.3071325812" lon="-8.4683866426">
        <ele>49.30</ele>
        <time>2020-03-14T16:07:38Z</time>
      </trkpt>
      <trkpt lat="43.3072034083" lon="-8.4691866953">
        <ele>51.05</ele>
        <time>2020-03-14T16:07:53Z</time>
      </trkpt>
      <trkpt lat="43.3072972018" lon="-8.4698066209">
        <ele>51.57</ele>
        <time>2020-03-14T16:08:07Z</time>
      </trkpt>
      <trkpt lat="43.3073627483" lon="-8.4700544737">
        <ele>51.99</ele>
        <time>2020-03-14T16:08:14Z</time>
      </trkpt>
      <trkpt lat="43.3073847927" lon="-8.4700673819">
        <ele>52.16</ele>
        <time>2020-03-14T16:08:15Z</time>
      </trkpt>
      <trkpt lat="43.3076507505" lon="-8.4701033402">
        <ele>55.18</ele>
        <time>2020-03-14T16:08:28Z</time>
      </trkpt>
      <trkpt lat="43.3079149481" lon="-8.4700074513">
        <ele>58.19</ele>
        <time>2020-03-14T16:08:40Z</time>
      </trkpt>
      <trkpt lat="43.3080783952" lon="-8.4698855784">
        <ele>60.08</ele>
        <time>2020-03-14T16:08:50Z</time>
      </trkpt>
      <trkpt lat="43.3080955781" lon="-8.4698695689">
        <ele>60.28</ele>
        <time>2020-03-14T16:08:51Z</time>
      </trkpt>
      <trkpt lat="43.3083367255" lon="-8.4696898609">
        <ele>63.38</ele>
        <time>2020-03-14T16:09:05Z</time>
      </trkpt>
      <trkpt lat="43.3085075486" lon="-8.4695369750">
        <ele>66.63</ele>
        <time>2020-03-14T16:09:17Z</time>
      </trkpt>
      <trkpt lat="43.3086771984" lon="-8.4693472087">
        <ele>69.90</ele>
        <time>2020-03-14T16:09:29Z</time>
      </trkpt>
      <trkpt lat="43.3088507876" lon="-8.4691504855">
        <ele>72.56</ele>
        <time>2020-03-14T16:09:41Z</time>
      </trkpt>
      <trkpt lat="43.3088584989" lon="-8.4691324644">
        <ele>72.84</ele>
        <time>2020-03-14T16:09:42Z</time>
      </trkpt>
      <trkpt lat="43.3088687249" lon="-8.4691137727">
        <ele>73.00</ele>
        <time>2020-03-14T16:09:43Z</time>
      </trkpt>
      <trkpt lat="43.3089836407" lon="-8.4688551072">
        <ele>76.30</ele>
        <time>2020-03-14T16:09:56Z</time>
      </trkpt>
      <trkpt lat="43.3090252988" lon="-8.4687671810">
        <ele>77.41</ele>
        <time>2020-03-14T16:10:00Z</time>
      </trkpt>
      <trkpt lat="43.3090299927" lon="-8.4687450528">
        <ele>77.57</ele>
        <time>2020-03-14T16:10:01Z</time>
      </trkpt>
      <trkpt lat="43.3090355247" lon="-8.4687235951">
        <ele>77.76</ele>
        <time>2020-03-14T16:10:02Z</time>
      </trkpt>
      <trkpt lat="43.3090413082" lon="-8.4686982818">
        <ele>78.01</ele>
        <time>2020-03-14T16:10:03Z</time>
      </trkpt>
      <trkpt lat="43.3090505283" lon="-8.4686777461">
        <ele>78.23</ele>
        <time>2020-03-14T16:10:04Z</time>
      </trkpt>
      <trkpt lat="43.3090738300" lon="-8.4686549474">
        <ele>78.37</ele>
        <time>2020-03-14T16:10:05Z</time>
      </trkpt>
      <trkpt lat="43.3090859000" lon="-8.4686284605">
        <ele>78.59</ele>
        <time>2020-03-14T16:10:06Z</time>
      </trkpt>
      <trkpt lat="43.3090909291" lon="-8.4685989562">
        <ele>78.80</ele>
        <time>2020-03-14T16:10:07Z</time>
      </trkpt>
      <trkpt lat="43.3091113809" lon="-8.4685816895">
        <ele>78.98</ele>
        <time>2020-03-14T16:10:08Z</time>
      </trkpt>
      <trkpt lat="43.3091863990" lon="-8.4682739060">
        <ele>82.11</ele>
        <time>2020-03-14T16:10:20Z</time>
      </trkpt>
      <trkpt lat="43.3093105350" lon="-8.4678673837">
        <ele>84.65</ele>
        <time>2020-03-14T16:10:33Z</time>
      </trkpt>
      <trkpt lat="43.3095907420" lon="-8.4674482886">
        <ele>85.40</ele>
        <time>2020-03-14T16:10:48Z</time>
      </trkpt>
      <trkpt lat="43.3098165505" lon="-8.4671956580">
        <ele>87.08</ele>
        <time>2020-03-14T16:11:01Z</time>
      </trkpt>
      <trkpt lat="43.3100878727" lon="-8.4669132717">
        <ele>90.24</ele>
        <time>2020-03-14T16:11:14Z</time>
      </trkpt>
      <trkpt lat="43.3103632182" lon="-8.4667361621">
        <ele>91.45</ele>
        <time>2020-03-14T16:11:24Z</time>
      </trkpt>
      <trkpt lat="43.3107318543" lon="-8.4664137941">
        <ele>92.14</ele>
        <time>2020-03-14T16:11:38Z</time>
      </trkpt>
      <trkpt lat="43.3108448423" lon="-8.4662342537">
        <ele>92.15</ele>
        <time>2020-03-14T16:11:42Z</time>
      </trkpt>
      <trkpt lat="43.3111913502" lon="-8.4656579141">
        <ele>91.17</ele>
        <time>2020-03-14T16:11:55Z</time>
      </trkpt>
      <trkpt lat="43.3112455811" lon="-8.4652201273">
        <ele>91.22</ele>
        <time>2020-03-14T16:12:05Z</time>
      </trkpt>
      <trkpt lat="43.3112537116" lon="-8.4651828278">
        <ele>91.25</ele>
        <time>2020-03-14T16:12:06Z</time>
      </trkpt>
      <trkpt lat="43.3113414701" lon="-8.4647247568">
        <ele>92.17</ele>
        <time>2020-03-14T16:12:17Z</time>
      </trkpt>
      <trkpt lat="43.3114241157" lon="-8.4642827790">
        <ele>93.26</ele>
        <time>2020-03-14T16:12:29Z</time>
      </trkpt>
      <trkpt lat="43.3115406241" lon="-8.4637603350">
        <ele>95.13</ele>
        <time>2020-03-14T16:12:42Z</time>
      </trkpt>
      <trkpt lat="43.3115635067" lon="-8.4635875002">
        <ele>95.20</ele>
        <time>2020-03-14T16:12:45Z</time>
      </trkpt>
      <trkpt lat="43.3115775883" lon="-8.4635196067">
        <ele>95.21</ele>
        <time>2020-03-14T16:12:46Z</time>
      </trkpt>
      <trkpt lat="43.3116312325" lon="-8.4633224644">
        <ele>95.21</ele>
        <time>2020-03-14T16:12:49Z</time>
      </trkpt>
      <trkpt lat="43.3116541989" lon="-8.4632612765">
        <ele>95.21</ele>
        <time>2020-03-14T16:12:50Z</time>
      </trkpt>
      <trkpt lat="43.3116720524" lon="-8.4632004239">
        <ele>95.21</ele>
        <time>2020-03-14T16:12:51Z</time>
      </trkpt>
      <trkpt lat="43.3116961922" lon="-8.4630796406">
        <ele>94.59</ele>
        <time>2020-03-14T16:12:53Z</time>
      </trkpt>
      <trkpt lat="43.3117817715" lon="-8.4627996013">
        <ele>93.86</ele>
        <time>2020-03-14T16:12:59Z</time>
      </trkpt>
      <trkpt lat="43.3117991220" lon="-8.4627886210">
        <ele>93.85</ele>
        <time>2020-03-14T16:13:00Z</time>
      </trkpt>
      <trkpt lat="43.3118183166" lon="-8.4627799038">
        <ele>93.85</ele>
        <time>2020-03-14T16:13:01Z</time>
      </trkpt>
      <trkpt lat="43.3118340746" lon="-8.4627695940">
        <ele>93.85</ele>
        <time>2020-03-14T16:13:02Z</time>
      </trkpt>
      <trkpt lat="43.3118512575" lon="-8.4627629723">
        <ele>93.85</ele>
        <time>2020-03-14T16:13:03Z</time>
      </trkpt>
      <trkpt lat="43.3118694462" lon="-8.4627559315">
        <ele>93.85</ele>
        <time>2020-03-14T16:13:04Z</time>
      </trkpt>
      <trkpt lat="43.3121183887" lon="-8.4625962563">
        <ele>95.04</ele>
        <time>2020-03-14T16:13:14Z</time>
      </trkpt>
      <trkpt lat="43.3123117592" lon="-8.4622308053">
        <ele>97.45</ele>
        <time>2020-03-14T16:13:25Z</time>
      </trkpt>
      <trkpt lat="43.3123189677" lon="-8.4621964395">
        <ele>97.61</ele>
        <time>2020-03-14T16:13:26Z</time>
      </trkpt>
      <trkpt lat="43.3123233262" lon="-8.4621665161">
        <ele>97.72</ele>
        <time>2020-03-14T16:13:27Z</time>
      </trkpt>
      <trkpt lat="43.3123326302" lon="-8.4621329047">
        <ele>97.80</ele>
        <time>2020-03-14T16:13:28Z</time>
      </trkpt>
      <trkpt lat="43.3123488072" lon="-8.4620987065">
        <ele>97.93</ele>
        <time>2020-03-14T16:13:29Z</time>
      </trkpt>
      <trkpt lat="43.3123652358" lon="-8.4620681964">
        <ele>98.01</ele>
        <time>2020-03-14T16:13:30Z</time>
      </trkpt>
      <trkpt lat="43.3123824187" lon="-8.4620338306">
        <ele>98.19</ele>
        <time>2020-03-14T16:13:31Z</time>
      </trkpt>
      <trkpt lat="43.3123966679" lon="-8.4619964473">
        <ele>98.30</ele>
        <time>2020-03-14T16:13:32Z</time>
      </trkpt>
      <trkpt lat="43.3124103304" lon="-8.4619604889">
        <ele>98.39</ele>
        <time>2020-03-14T16:13:33Z</time>
      </trkpt>
      <trkpt lat="43.3124258369" lon="-8.4619286377">
        <ele>98.48</ele>
        <time>2020-03-14T16:13:34Z</time>
      </trkpt>
      <trkpt lat="43.3126529865" lon="-8.4616104607">
        <ele>99.66</ele>
        <time>2020-03-14T16:13:46Z</time>
      </trkpt>
      <trkpt lat="43.3127253223" lon="-8.4614866599">
        <ele>100.26</ele>
        <time>2020-03-14T16:13:50Z</time>
      </trkpt>
      <trkpt lat="43.3127471153" lon="-8.4614574071">
        <ele>100.38</ele>
        <time>2020-03-14T16:13:51Z</time>
      </trkpt>
      <trkpt lat="43.3127660584" lon="-8.4614258073">
        <ele>100.47</ele>
        <time>2020-03-14T16:13:52Z</time>
      </trkpt>
      <trkpt lat="43.3127851691" lon="-8.4613960516">
        <ele>100.51</ele>
        <time>2020-03-14T16:13:53Z</time>
      </trkpt>
      <trkpt lat="43.3128049504" lon="-8.4613710735">
        <ele>100.56</ele>
        <time>2020-03-14T16:13:54Z</time>
      </trkpt>
      <trkpt lat="43.3128216304" lon="-8.4613437485">
        <ele>100.60</ele>
        <time>2020-03-14T16:13:55Z</time>
      </trkpt>
      <trkpt lat="43.3128395677" lon="-8.4613139927">
        <ele>100.68</ele>
        <time>2020-03-14T16:13:56Z</time>
      </trkpt>
      <trkpt lat="43.3128523920" lon="-8.4612805489">
        <ele>100.75</ele>
        <time>2020-03-14T16:13:57Z</time>
      </trkpt>
      <trkpt lat="43.3128666412" lon="-8.4612526372">
        <ele>100.84</ele>
        <time>2020-03-14T16:13:58Z</time>
      </trkpt>
      <trkpt lat="43.3128838241" lon="-8.4612261504">
        <ele>101.09</ele>
        <time>2020-03-14T16:13:59Z</time>
      </trkpt>
      <trkpt lat="43.3129009232" lon="-8.4611997474">
        <ele>101.31</ele>
        <time>2020-03-14T16:14:00Z</time>
      </trkpt>
      <trkpt lat="43.3129155077" lon="-8.4611695725">
        <ele>101.42</ele>
        <time>2020-03-14T16:14:01Z</time>
      </trkpt>
      <trkpt lat="43.3129350375" lon="-8.4611414094">
        <ele>101.50</ele>
        <time>2020-03-14T16:14:02Z</time>
      </trkpt>
      <trkpt lat="43.3129508793" lon="-8.4611165989">
        <ele>101.66</ele>
        <time>2020-03-14T16:14:03Z</time>
      </trkpt>
      <trkpt lat="43.3131600916" lon="-8.4608560894">
        <ele>103.44</ele>
        <time>2020-03-14T16:14:15Z</time>
      </trkpt>
      <trkpt lat="43.3133470919" lon="-8.4605503175">
        <ele>106.42</ele>
        <time>2020-03-14T16:14:26Z</time>
      </trkpt>
      <trkpt lat="43.3135397919" lon="-8.4601785801">
        <ele>107.52</ele>
        <time>2020-03-14T16:14:37Z</time>
      </trkpt>
      <trkpt lat="43.3136903308" lon="-8.4599862993">
        <ele>108.55</ele>
        <time>2020-03-14T16:14:47Z</time>
      </trkpt>
      <trkpt lat="43.3138773311" lon="-8.4598777536">
        <ele>111.82</ele>
        <time>2020-03-14T16:14:57Z</time>
      </trkpt>
      <trkpt lat="43.3140936680" lon="-8.4595096204">
        <ele>114.75</ele>
        <time>2020-03-14T16:15:10Z</time>
      </trkpt>
      <trkpt lat="43.3141613938" lon="-8.4590254817">
        <ele>117.64</ele>
        <time>2020-03-14T16:15:23Z</time>
      </trkpt>
      <trkpt lat="43.3142131101" lon="-8.4585317876">
        <ele>118.74</ele>
        <time>2020-03-14T16:15:37Z</time>
      </trkpt>
      <trkpt lat="43.3142395131" lon="-8.4582010377">
        <ele>119.01</ele>
        <time>2020-03-14T16:15:45Z</time>
      </trkpt>
      <trkpt lat="43.3142747171" lon="-8.4580447990">
        <ele>119.01</ele>
        <time>2020-03-14T16:15:47Z</time>
      </trkpt>
      <trkpt lat="43.3143092506" lon="-8.4579674341">
        <ele>119.01</ele>
        <time>2020-03-14T16:15:48Z</time>
      </trkpt>
      <trkpt lat="43.3145647310" lon="-8.4575714730">
        <ele>117.99</ele>
        <time>2020-03-14T16:15:57Z</time>
      </trkpt>
      <trkpt lat="43.3147831634" lon="-8.4572296590">
        <ele>118.33</ele>
        <time>2020-03-14T16:16:08Z</time>
      </trkpt>
      <trkpt lat="43.3148634620" lon="-8.4571851511">
        <ele>121.39</ele>
        <time>2020-03-14T16:16:19Z</time>
      </trkpt>
      <trkpt lat="43.3150062896" lon="-8.4570362885">
        <ele>124.21</ele>
        <time>2020-03-14T16:16:38Z</time>
      </trkpt>
      <trkpt lat="43.3151110634" lon="-8.4569383878">
        <ele>127.22</ele>
        <time>2020-03-14T16:16:57Z</time>
      </trkpt>
      <trkpt lat="43.3152511250" lon="-8.4568295069">
        <ele>130.28</ele>
        <time>2020-03-14T16:17:13Z</time>
      </trkpt>
      <trkpt lat="43.3153978921" lon="-8.4567295108">
        <ele>133.36</ele>
        <time>2020-03-14T16:17:29Z</time>
      </trkpt>
      <trkpt lat="43.3155472577" lon="-8.4566463623">
        <ele>136.40</ele>
        <time>2020-03-14T16:17:47Z</time>
      </trkpt>
      <trkpt lat="43.3156542107" lon="-8.4566248208">
        <ele>139.48</ele>
        <time>2020-03-14T16:18:03Z</time>
      </trkpt>
      <trkpt lat="43.3157752454" lon="-8.4566124994">
        <ele>142.77</ele>
        <time>2020-03-14T16:18:17Z</time>
      </trkpt>
      <trkpt lat="43.3158634230" lon="-8.4564872738">
        <ele>145.00</ele>
        <time>2020-03-14T16:18:31Z</time>
      </trkpt>
      <trkpt lat="43.3159816917" lon="-8.4562098328">
        <ele>146.36</ele>
        <time>2020-03-14T16:18:45Z</time>
      </trkpt>
      <trkpt lat="43.3160218410" lon="-8.4559108503">
        <ele>147.47</ele>
        <time>2020-03-14T16:18:56Z</time>
      </trkpt>
      <trkpt lat="43.3160867169" lon="-8.4555394482">
        <ele>148.92</ele>
        <time>2020-03-14T16:19:08Z</time>
      </trkpt>
      <trkpt lat="43.3161207475" lon="-8.4553535376">
        <ele>149.20</ele>
        <time>2020-03-14T16:19:14Z</time>
      </trkpt>
      <trkpt lat="43.3161307219" lon="-8.4553275537">
        <ele>149.27</ele>
        <time>2020-03-14T16:19:15Z</time>
      </trkpt>
      <trkpt lat="43.3161457255" lon="-8.4552083630">
        <ele>149.44</ele>
        <time>2020-03-14T16:19:19Z</time>
      </trkpt>
      <trkpt lat="43.3161494136" lon="-8.4551814571">
        <ele>149.44</ele>
        <time>2020-03-14T16:19:20Z</time>
      </trkpt>
      <trkpt lat="43.3161505032" lon="-8.4551229514">
        <ele>149.64</ele>
        <time>2020-03-14T16:19:22Z</time>
      </trkpt>
      <trkpt lat="43.3161411155" lon="-8.4550936986">
        <ele>149.74</ele>
        <time>2020-03-14T16:19:23Z</time>
      </trkpt>
      <trkpt lat="43.3161000442" lon="-8.4549559839">
        <ele>150.47</ele>
        <time>2020-03-14T16:19:28Z</time>
      </trkpt>
      <trkpt lat="43.3160847053" lon="-8.4549259767">
        <ele>150.56</ele>
        <time>2020-03-14T16:19:29Z</time>
      </trkpt>
      <trkpt lat="43.3159972820" lon="-8.4547721688">
        <ele>151.29</ele>
        <time>2020-03-14T16:19:34Z</time>
      </trkpt>
      <trkpt lat="43.3159825299" lon="-8.4547525551">
        <ele>151.43</ele>
        <time>2020-03-14T16:19:35Z</time>
      </trkpt>
      <trkpt lat="43.3159691188" lon="-8.4547412395">
        <ele>151.67</ele>
        <time>2020-03-14T16:19:36Z</time>
      </trkpt>
      <trkpt lat="43.3158219326" lon="-8.4545606095">
        <ele>154.89</ele>
        <time>2020-03-14T16:19:46Z</time>
      </trkpt>
      <trkpt lat="43.3157647680" lon="-8.4542100783">
        <ele>157.11</ele>
        <time>2020-03-14T16:19:58Z</time>
      </trkpt>
      <trkpt lat="43.3157434780" lon="-8.4538083337">
        <ele>159.13</ele>
        <time>2020-03-14T16:20:12Z</time>
      </trkpt>
      <trkpt lat="43.3157663606" lon="-8.4537659213">
        <ele>159.50</ele>
        <time>2020-03-14T16:20:14Z</time>
      </trkpt>
      <trkpt lat="43.3157835435" lon="-8.4537579585">
        <ele>159.60</ele>
        <time>2020-03-14T16:20:15Z</time>
      </trkpt>
      <trkpt lat="43.3158008941" lon="-8.4537612274">
        <ele>159.67</ele>
        <time>2020-03-14T16:20:16Z</time>
      </trkpt>
      <trkpt lat="43.3158162329" lon="-8.4537754767">
        <ele>159.72</ele>
        <time>2020-03-14T16:20:17Z</time>
      </trkpt>
      <trkpt lat="43.3158297278" lon="-8.4537999518">
        <ele>159.89</ele>
        <time>2020-03-14T16:20:18Z</time>
      </trkpt>
      <trkpt lat="43.3158402890" lon="-8.4538278636">
        <ele>160.05</ele>
        <time>2020-03-14T16:20:19Z</time>
      </trkpt>
      <trkpt lat="43.3158485871" lon="-8.4538540151">
        <ele>160.20</ele>
        <time>2020-03-14T16:20:20Z</time>
      </trkpt>
      <trkpt lat="43.3158745710" lon="-8.4538966790">
        <ele>160.65</ele>
        <time>2020-03-14T16:20:22Z</time>
      </trkpt>
      <trkpt lat="43.3158913348" lon="-8.4539110959">
        <ele>160.87</ele>
        <time>2020-03-14T16:20:23Z</time>
      </trkpt>
      <trkpt lat="43.3159066737" lon="-8.4539297037">
        <ele>161.18</ele>
        <time>2020-03-14T16:20:24Z</time>
      </trkpt>
      <trkpt lat="43.3159251977" lon="-8.4539462999">
        <ele>161.39</ele>
        <time>2020-03-14T16:20:25Z</time>
      </trkpt>
      <trkpt lat="43.3159424644" lon="-8.4539502393">
        <ele>161.56</ele>
        <time>2020-03-14T16:20:26Z</time>
      </trkpt>
      <trkpt lat="43.3159583062" lon="-8.4539403487">
        <ele>161.68</ele>
        <time>2020-03-14T16:20:27Z</time>
      </trkpt>
      <trkpt lat="43.3159718849" lon="-8.4539230820">
        <ele>161.78</ele>
        <time>2020-03-14T16:20:28Z</time>
      </trkpt>
      <trkpt lat="43.3159804344" lon="-8.4539049771">
        <ele>161.87</ele>
        <time>2020-03-14T16:20:29Z</time>
      </trkpt>
      <trkpt lat="43.3159945998" lon="-8.4538887162">
        <ele>162.10</ele>
        <time>2020-03-14T16:20:30Z</time>
      </trkpt>
      <trkpt lat="43.3160075080" lon="-8.4538731258">
        <ele>162.34</ele>
        <time>2020-03-14T16:20:31Z</time>
      </trkpt>
      <trkpt lat="43.3160299715" lon="-8.4537752252">
        <ele>164.10</ele>
        <time>2020-03-14T16:20:42Z</time>
      </trkpt>
      <trkpt lat="43.3160632476" lon="-8.4536391869">
        <ele>165.73</ele>
        <time>2020-03-14T16:20:54Z</time>
      </trkpt>
      <trkpt lat="43.3160962723" lon="-8.4535294678">
        <ele>166.86</ele>
        <time>2020-03-14T16:21:02Z</time>
      </trkpt>
      <trkpt lat="43.3161296323" lon="-8.4534833673">
        <ele>167.58</ele>
        <time>2020-03-14T16:21:06Z</time>
      </trkpt>
      <trkpt lat="43.3161363378" lon="-8.4534712974">
        <ele>167.66</ele>
        <time>2020-03-14T16:21:07Z</time>
      </trkpt>
      <trkpt lat="43.3161478210" lon="-8.4534433857">
        <ele>167.81</ele>
        <time>2020-03-14T16:21:09Z</time>
      </trkpt>
      <trkpt lat="43.3161506709" lon="-8.4534217604">
        <ele>167.92</ele>
        <time>2020-03-14T16:21:10Z</time>
      </trkpt>
      <trkpt lat="43.3161825221" lon="-8.4532573074">
        <ele>169.28</ele>
        <time>2020-03-14T16:21:21Z</time>
      </trkpt>
      <trkpt lat="43.3161850367" lon="-8.4532412980">
        <ele>169.39</ele>
        <time>2020-03-14T16:21:22Z</time>
      </trkpt>
      <trkpt lat="43.3161990345" lon="-8.4531008173">
        <ele>171.19</ele>
        <time>2020-03-14T16:21:35Z</time>
      </trkpt>
      <trkpt lat="43.3162003756" lon="-8.4530739952">
        <ele>171.51</ele>
        <time>2020-03-14T16:21:37Z</time>
      </trkpt>
      <trkpt lat="43.3162327297" lon="-8.4528956283">
        <ele>173.75</ele>
        <time>2020-03-14T16:21:50Z</time>
      </trkpt>
      <trkpt lat="43.3162526786" lon="-8.4528582450">
        <ele>173.96</ele>
        <time>2020-03-14T16:21:53Z</time>
      </trkpt>
      <trkpt lat="43.3162576240" lon="-8.4528476000">
        <ele>174.12</ele>
        <time>2020-03-14T16:21:54Z</time>
      </trkpt>
      <trkpt lat="43.3162642457" lon="-8.4527934529">
        <ele>174.70</ele>
        <time>2020-03-14T16:21:58Z</time>
      </trkpt>
      <trkpt lat="43.3163197339" lon="-8.4525937121">
        <ele>176.90</ele>
        <time>2020-03-14T16:22:13Z</time>
      </trkpt>
      <trkpt lat="43.3163255174" lon="-8.4525799658">
        <ele>177.11</ele>
        <time>2020-03-14T16:22:14Z</time>
      </trkpt>
      <trkpt lat="43.3163312171" lon="-8.4525642078">
        <ele>177.25</ele>
        <time>2020-03-14T16:22:15Z</time>
      </trkpt>
      <trkpt lat="43.3163520042" lon="-8.4524310194">
        <ele>178.85</ele>
        <time>2020-03-14T16:22:26Z</time>
      </trkpt>
      <trkpt lat="43.3163789101" lon="-8.4523642994">
        <ele>179.84</ele>
        <time>2020-03-14T16:22:32Z</time>
      </trkpt>
      <trkpt lat="43.3164019603" lon="-8.4523489606">
        <ele>180.19</ele>
        <time>2020-03-14T16:22:35Z</time>
      </trkpt>
      <trkpt lat="43.3164530899" lon="-8.4523637127">
        <ele>181.40</ele>
        <time>2020-03-14T16:22:42Z</time>
      </trkpt>
      <trkpt lat="43.3166603744" lon="-8.4525256511">
        <ele>181.65</ele>
        <time>2020-03-14T16:22:51Z</time>
      </trkpt>
      <trkpt lat="43.3167645615" lon="-8.4525924549">
        <ele>181.63</ele>
        <time>2020-03-14T16:22:53Z</time>
      </trkpt>
      <trkpt lat="43.3169540763" lon="-8.4527190216">
        <ele>181.00</ele>
        <time>2020-03-14T16:22:57Z</time>
      </trkpt>
      <trkpt lat="43.3172374684" lon="-8.4528860729">
        <ele>178.64</ele>
        <time>2020-03-14T16:23:08Z</time>
      </trkpt>
      <trkpt lat="43.3173356205" lon="-8.4529775195">
        <ele>181.71</ele>
        <time>2020-03-14T16:23:22Z</time>
      </trkpt>
      <trkpt lat="43.3175080363" lon="-8.4530548844">
        <ele>184.74</ele>
        <time>2020-03-14T16:23:42Z</time>
      </trkpt>
      <trkpt lat="43.3176544681" lon="-8.4531386197">
        <ele>187.79</ele>
        <time>2020-03-14T16:23:59Z</time>
      </trkpt>
      <trkpt lat="43.3178205136" lon="-8.4532666951">
        <ele>190.87</ele>
        <time>2020-03-14T16:24:18Z</time>
      </trkpt>
      <trkpt lat="43.3180123754" lon="-8.4533971176">
        <ele>193.92</ele>
        <time>2020-03-14T16:24:40Z</time>
      </trkpt>
      <trkpt lat="43.3181417082" lon="-8.4534820262">
        <ele>197.39</ele>
        <time>2020-03-14T16:24:57Z</time>
      </trkpt>
      <trkpt lat="43.3182617370" lon="-8.4535384364">
        <ele>200.48</ele>
        <time>2020-03-14T16:25:13Z</time>
      </trkpt>
      <trkpt lat="43.3183610626" lon="-8.4536097664">
        <ele>203.56</ele>
        <time>2020-03-14T16:25:27Z</time>
      </trkpt>
      <trkpt lat="43.3184955921" lon="-8.4536924958">
        <ele>206.60</ele>
        <time>2020-03-14T16:25:44Z</time>
      </trkpt>
      <trkpt lat="43.3186771441" lon="-8.4538310487">
        <ele>207.33</ele>
        <time>2020-03-14T16:25:55Z</time>
      </trkpt>
      <trkpt lat="43.3189945668" lon="-8.4541289415">
        <ele>207.21</ele>
        <time>2020-03-14T16:26:09Z</time>
      </trkpt>
      <trkpt lat="43.3190254960" lon="-8.4542019479">
        <ele>207.35</ele>
        <time>2020-03-14T16:26:12Z</time>
      </trkpt>
      <trkpt lat="43.3191466983" lon="-8.4544190392">
        <ele>209.50</ele>
        <time>2020-03-14T16:26:20Z</time>
      </trkpt>
      <trkpt lat="43.3194025140" lon="-8.4545893595">
        <ele>210.80</ele>
        <time>2020-03-14T16:26:31Z</time>
      </trkpt>
      <trkpt lat="43.3194471058" lon="-8.4546280839">
        <ele>210.80</ele>
        <time>2020-03-14T16:26:32Z</time>
      </trkpt>
      <trkpt lat="43.3195313439" lon="-8.4546903614">
        <ele>210.73</ele>
        <time>2020-03-14T16:26:34Z</time>
      </trkpt>
      <trkpt lat="43.3198107127" lon="-8.4548314288">
        <ele>208.97</ele>
        <time>2020-03-14T16:26:39Z</time>
      </trkpt>
      <trkpt lat="43.3200721443" lon="-8.4550103825">
        <ele>206.34</ele>
        <time>2020-03-14T16:26:43Z</time>
      </trkpt>
      <trkpt lat="43.3203293849" lon="-8.4552082792">
        <ele>203.24</ele>
        <time>2020-03-14T16:26:47Z</time>
      </trkpt>
      <trkpt lat="43.3205966838" lon="-8.4553780966">
        <ele>199.12</ele>
        <time>2020-03-14T16:26:52Z</time>
      </trkpt>
      <trkpt lat="43.3208608814" lon="-8.4555160627">
        <ele>198.65</ele>
        <time>2020-03-14T16:27:00Z</time>
      </trkpt>
      <trkpt lat="43.3210266754" lon="-8.4558480699">
        <ele>201.19</ele>
        <time>2020-03-14T16:27:11Z</time>
      </trkpt>
      <trkpt lat="43.3212018572" lon="-8.4561064839">
        <ele>201.84</ele>
        <time>2020-03-14T16:27:19Z</time>
      </trkpt>
      <trkpt lat="43.3215296734" lon="-8.4565534908">
        <ele>200.33</ele>
        <time>2020-03-14T16:27:31Z</time>
      </trkpt>
      <trkpt lat="43.3218382951" lon="-8.4569637850">
        <ele>196.69</ele>
        <time>2020-03-14T16:27:43Z</time>
      </trkpt>
      <trkpt lat="43.3219497744" lon="-8.4570773598">
        <ele>193.68</ele>
        <time>2020-03-14T16:27:48Z</time>
      </trkpt>
      <trkpt lat="43.3219678793" lon="-8.4571310040">
        <ele>192.32</ele>
        <time>2020-03-14T16:27:50Z</time>
      </trkpt>
      <trkpt lat="43.3219672088" lon="-8.4571598377">
        <ele>191.85</ele>
        <time>2020-03-14T16:27:51Z</time>
      </trkpt>
      <trkpt lat="43.3219369501" lon="-8.4572658688">
        <ele>189.32</ele>
        <time>2020-03-14T16:27:54Z</time>
      </trkpt>
      <trkpt lat="43.3219497744" lon="-8.4572965465">
        <ele>187.95</ele>
        <time>2020-03-14T16:27:55Z</time>
      </trkpt>
      <trkpt lat="43.3219786081" lon="-8.4573153220">
        <ele>187.54</ele>
        <time>2020-03-14T16:27:56Z</time>
      </trkpt>
      <trkpt lat="43.3220208529" lon="-8.4573258832">
        <ele>187.04</ele>
        <time>2020-03-14T16:27:57Z</time>
      </trkpt>
      <trkpt lat="43.3220682107" lon="-8.4573374502">
        <ele>186.55</ele>
        <time>2020-03-14T16:27:58Z</time>
      </trkpt>
      <trkpt lat="43.3221173286" lon="-8.4573611710">
        <ele>186.19</ele>
        <time>2020-03-14T16:27:59Z</time>
      </trkpt>
      <trkpt lat="43.3221723139" lon="-8.4573931899">
        <ele>185.91</ele>
        <time>2020-03-14T16:28:00Z</time>
      </trkpt>
      <trkpt lat="43.3224225137" lon="-8.4575185832">
        <ele>184.77</ele>
        <time>2020-03-14T16:28:04Z</time>
      </trkpt>
      <trkpt lat="43.3225058299" lon="-8.4575310722">
        <ele>184.25</ele>
        <time>2020-03-14T16:28:05Z</time>
      </trkpt>
      <trkpt lat="43.3227590472" lon="-8.4575840458">
        <ele>180.81</ele>
        <time>2020-03-14T16:28:09Z</time>
      </trkpt>
      <trkpt lat="43.3228696045" lon="-8.4575911704">
        <ele>178.16</ele>
        <time>2020-03-14T16:28:12Z</time>
      </trkpt>
      <trkpt lat="43.3229149505" lon="-8.4574259631">
        <ele>176.01</ele>
        <time>2020-03-14T16:28:16Z</time>
      </trkpt>
      <trkpt lat="43.3229511604" lon="-8.4573118016">
        <ele>175.77</ele>
        <time>2020-03-14T16:28:18Z</time>
      </trkpt>
      <trkpt lat="43.3230010327" lon="-8.4572000708">
        <ele>175.61</ele>
        <time>2020-03-14T16:28:20Z</time>
      </trkpt>
      <trkpt lat="43.3234241512" lon="-8.4568580892">
        <ele>173.86</ele>
        <time>2020-03-14T16:28:29Z</time>
      </trkpt>
      <trkpt lat="43.3235225547" lon="-8.4567455202">
        <ele>173.49</ele>
        <time>2020-03-14T16:28:31Z</time>
      </trkpt>
      <trkpt lat="43.3235553280" lon="-8.4566866793">
        <ele>173.25</ele>
        <time>2020-03-14T16:28:32Z</time>
      </trkpt>
      <trkpt lat="43.3235859219" lon="-8.4566358011">
        <ele>172.97</ele>
        <time>2020-03-14T16:28:33Z</time>
      </trkpt>
      <trkpt lat="43.3236173540" lon="-8.4565970767">
        <ele>172.62</ele>
        <time>2020-03-14T16:28:34Z</time>
      </trkpt>
      <trkpt lat="43.3236475289" lon="-8.4565659799">
        <ele>172.35</ele>
        <time>2020-03-14T16:28:35Z</time>
      </trkpt>
      <trkpt lat="43.3236774523" lon="-8.4565413371">
        <ele>172.21</ele>
        <time>2020-03-14T16:28:36Z</time>
      </trkpt>
      <trkpt lat="43.3237804659" lon="-8.4564638883">
        <ele>172.08</ele>
        <time>2020-03-14T16:28:40Z</time>
      </trkpt>
      <trkpt lat="43.3237913623" lon="-8.4564383235">
        <ele>172.08</ele>
        <time>2020-03-14T16:28:41Z</time>
      </trkpt>
      <trkpt lat="43.3238113113" lon="-8.4563850146">
        <ele>172.08</ele>
        <time>2020-03-14T16:28:43Z</time>
      </trkpt>
      <trkpt lat="43.3238123171" lon="-8.4563509002">
        <ele>172.08</ele>
        <time>2020-03-14T16:28:44Z</time>
      </trkpt>
      <trkpt lat="43.3238151670" lon="-8.4563205577">
        <ele>172.30</ele>
        <time>2020-03-14T16:28:45Z</time>
      </trkpt>
      <trkpt lat="43.3238294162" lon="-8.4560325556">
        <ele>175.45</ele>
        <time>2020-03-14T16:28:54Z</time>
      </trkpt>
      <trkpt lat="43.3237780351" lon="-8.4556826111">
        <ele>176.59</ele>
        <time>2020-03-14T16:29:02Z</time>
      </trkpt>
      <trkpt lat="43.3237432502" lon="-8.4556289669">
        <ele>176.60</ele>
        <time>2020-03-14T16:29:03Z</time>
      </trkpt>
      <trkpt lat="43.3236326929" lon="-8.4554635920">
        <ele>176.60</ele>
        <time>2020-03-14T16:29:06Z</time>
      </trkpt>
      <trkpt lat="43.3236028533" lon="-8.4553959500">
        <ele>176.60</ele>
        <time>2020-03-14T16:29:07Z</time>
      </trkpt>
      <trkpt lat="43.3235779591" lon="-8.4553281404">
        <ele>176.60</ele>
        <time>2020-03-14T16:29:08Z</time>
      </trkpt>
      <trkpt lat="43.3235611953" lon="-8.4552643541">
        <ele>176.34</ele>
        <time>2020-03-14T16:29:09Z</time>
      </trkpt>
      <trkpt lat="43.3235523105" lon="-8.4552000649">
        <ele>176.34</ele>
        <time>2020-03-14T16:29:10Z</time>
      </trkpt>
      <trkpt lat="43.3235475328" lon="-8.4551364463">
        <ele>175.53</ele>
        <time>2020-03-14T16:29:11Z</time>
      </trkpt>
      <trkpt lat="43.3235472813" lon="-8.4550760128">
        <ele>174.81</ele>
        <time>2020-03-14T16:29:12Z</time>
      </trkpt>
      <trkpt lat="43.3235472813" lon="-8.4550150763">
        <ele>174.10</ele>
        <time>2020-03-14T16:29:13Z</time>
      </trkpt>
      <trkpt lat="43.3235411625" lon="-8.4549605101">
        <ele>173.31</ele>
        <time>2020-03-14T16:29:14Z</time>
      </trkpt>
      <trkpt lat="43.3235305175" lon="-8.4549016692">
        <ele>172.63</ele>
        <time>2020-03-14T16:29:15Z</time>
      </trkpt>
      <trkpt lat="43.3235193696" lon="-8.4548447561">
        <ele>172.16</ele>
        <time>2020-03-14T16:29:16Z</time>
      </trkpt>
      <trkpt lat="43.3233910426" lon="-8.4543898702">
        <ele>168.68</ele>
        <time>2020-03-14T16:29:23Z</time>
      </trkpt>
      <trkpt lat="43.3233640529" lon="-8.4543230664">
        <ele>168.17</ele>
        <time>2020-03-14T16:29:24Z</time>
      </trkpt>
      <trkpt lat="43.3232828323" lon="-8.4541377425">
        <ele>166.03</ele>
        <time>2020-03-14T16:29:27Z</time>
      </trkpt>
      <trkpt lat="43.3231729455" lon="-8.4537766501">
        <ele>162.73</ele>
        <time>2020-03-14T16:29:31Z</time>
      </trkpt>
      <trkpt lat="43.3230563533" lon="-8.4533445630">
        <ele>159.61</ele>
        <time>2020-03-14T16:29:35Z</time>
      </trkpt>
      <trkpt lat="43.3230301179" lon="-8.4532383643">
        <ele>159.32</ele>
        <time>2020-03-14T16:29:36Z</time>
      </trkpt>
      <trkpt lat="43.3229517471" lon="-8.4529470094">
        <ele>155.60</ele>
        <time>2020-03-14T16:29:39Z</time>
      </trkpt>
      <trkpt lat="43.3229326364" lon="-8.4528476838">
        <ele>154.47</ele>
        <time>2020-03-14T16:29:40Z</time>
      </trkpt>
      <trkpt lat="43.3228846919" lon="-8.4526665509">
        <ele>152.80</ele>
        <time>2020-03-14T16:29:42Z</time>
      </trkpt>
      <trkpt lat="43.3228561934" lon="-8.4525906108">
        <ele>152.16</ele>
        <time>2020-03-14T16:29:43Z</time>
      </trkpt>
      <trkpt lat="43.3228021301" lon="-8.4524629544">
        <ele>151.25</ele>
        <time>2020-03-14T16:29:45Z</time>
      </trkpt>
      <trkpt lat="43.3227777388" lon="-8.4524090588">
        <ele>150.73</ele>
        <time>2020-03-14T16:29:46Z</time>
      </trkpt>
      <trkpt lat="43.3227518387" lon="-8.4523422550">
        <ele>150.39</ele>
        <time>2020-03-14T16:29:47Z</time>
      </trkpt>
      <trkpt lat="43.3227362484" lon="-8.4522694163">
        <ele>149.95</ele>
        <time>2020-03-14T16:29:48Z</time>
      </trkpt>
      <trkpt lat="43.3227256034" lon="-8.4521969128">
        <ele>149.33</ele>
        <time>2020-03-14T16:29:49Z</time>
      </trkpt>
      <trkpt lat="43.3226851188" lon="-8.4520296101">
        <ele>148.60</ele>
        <time>2020-03-14T16:29:51Z</time>
      </trkpt>
      <trkpt lat="43.3225775789" lon="-8.4516851977">
        <ele>146.72</ele>
        <time>2020-03-14T16:29:57Z</time>
      </trkpt>
      <trkpt lat="43.3225854579" lon="-8.4516762290">
        <ele>146.40</ele>
        <time>2020-03-14T16:29:58Z</time>
      </trkpt>
      <trkpt lat="43.3226186503" lon="-8.4516773187">
        <ele>145.07</ele>
        <time>2020-03-14T16:30:00Z</time>
      </trkpt>
      <trkpt lat="43.3226871304" lon="-8.4516681824">
        <ele>141.80</ele>
        <time>2020-03-14T16:30:03Z</time>
      </trkpt>
      <trkpt lat="43.3227080014" lon="-8.4516520053">
        <ele>141.59</ele>
        <time>2020-03-14T16:30:04Z</time>
      </trkpt>
      <trkpt lat="43.3230965026" lon="-8.4515111055">
        <ele>142.04</ele>
        <time>2020-03-14T16:30:18Z</time>
      </trkpt>
      <trkpt lat="43.3235826530" lon="-8.4513894003">
        <ele>142.30</ele>
        <time>2020-03-14T16:30:30Z</time>
      </trkpt>
      <trkpt lat="43.3239631075" lon="-8.4513386898">
        <ele>142.90</ele>
        <time>2020-03-14T16:30:41Z</time>
      </trkpt>
      <trkpt lat="43.3242614195" lon="-8.4509245399">
        <ele>144.22</ele>
        <time>2020-03-14T16:30:52Z</time>
      </trkpt>
      <trkpt lat="43.3242823742" lon="-8.4508739132">
        <ele>144.22</ele>
        <time>2020-03-14T16:30:53Z</time>
      </trkpt>
      <trkpt lat="43.3243226912" lon="-8.4507703129">
        <ele>144.16</ele>
        <time>2020-03-14T16:30:55Z</time>
      </trkpt>
      <trkpt lat="43.3243468311" lon="-8.4507155791">
        <ele>144.14</ele>
        <time>2020-03-14T16:30:56Z</time>
      </trkpt>
      <trkpt lat="43.3243778441" lon="-8.4506640304">
        <ele>144.12</ele>
        <time>2020-03-14T16:30:57Z</time>
      </trkpt>
      <trkpt lat="43.3244182449" lon="-8.4506173432">
        <ele>144.05</ele>
        <time>2020-03-14T16:30:58Z</time>
      </trkpt>
      <trkpt lat="43.3244675305" lon="-8.4505750984">
        <ele>144.00</ele>
        <time>2020-03-14T16:30:59Z</time>
      </trkpt>
      <trkpt lat="43.3245173190" lon="-8.4505322669">
        <ele>143.90</ele>
        <time>2020-03-14T16:31:00Z</time>
      </trkpt>
      <trkpt lat="43.3246658463" lon="-8.4504080471">
        <ele>143.31</ele>
        <time>2020-03-14T16:31:03Z</time>
      </trkpt>
      <trkpt lat="43.3247123659" lon="-8.4503763635">
        <ele>143.12</ele>
        <time>2020-03-14T16:31:04Z</time>
      </trkpt>
      <trkpt lat="43.3247546107" lon="-8.4503466077">
        <ele>142.87</ele>
        <time>2020-03-14T16:31:05Z</time>
      </trkpt>
      <trkpt lat="43.3247899823" lon="-8.4503102303">
        <ele>142.54</ele>
        <time>2020-03-14T16:31:06Z</time>
      </trkpt>
      <trkpt lat="43.3248033933" lon="-8.4502591006">
        <ele>141.80</ele>
        <time>2020-03-14T16:31:07Z</time>
      </trkpt>
      <trkpt lat="43.3248023037" lon="-8.4502028581">
        <ele>141.08</ele>
        <time>2020-03-14T16:31:08Z</time>
      </trkpt>
      <trkpt lat="43.3247929160" lon="-8.4501481242">
        <ele>140.21</ele>
        <time>2020-03-14T16:31:09Z</time>
      </trkpt>
      <trkpt lat="43.3247815166" lon="-8.4500886127">
        <ele>139.46</ele>
        <time>2020-03-14T16:31:10Z</time>
      </trkpt>
      <trkpt lat="43.3247687761" lon="-8.4500325378">
        <ele>138.76</ele>
        <time>2020-03-14T16:31:11Z</time>
      </trkpt>
      <trkpt lat="43.3247567900" lon="-8.4499753732">
        <ele>138.17</ele>
        <time>2020-03-14T16:31:12Z</time>
      </trkpt>
      <trkpt lat="43.3247411158" lon="-8.4499229025">
        <ele>137.57</ele>
        <time>2020-03-14T16:31:13Z</time>
      </trkpt>
      <trkpt lat="43.3247322310" lon="-8.4498691745">
        <ele>137.03</ele>
        <time>2020-03-14T16:31:14Z</time>
      </trkpt>
      <trkpt lat="43.3247294649" lon="-8.4498125967">
        <ele>136.75</ele>
        <time>2020-03-14T16:31:15Z</time>
      </trkpt>
      <trkpt lat="43.3247381821" lon="-8.4497519117">
        <ele>136.60</ele>
        <time>2020-03-14T16:31:16Z</time>
      </trkpt>
      <trkpt lat="43.3247597236" lon="-8.4497038834">
        <ele>136.52</ele>
        <time>2020-03-14T16:31:17Z</time>
      </trkpt>
      <trkpt lat="43.3247908205" lon="-8.4496584535">
        <ele>136.48</ele>
        <time>2020-03-14T16:31:18Z</time>
      </trkpt>
      <trkpt lat="43.3248229232" lon="-8.4496115986">
        <ele>136.44</ele>
        <time>2020-03-14T16:31:19Z</time>
      </trkpt>
      <trkpt lat="43.3248516731" lon="-8.4495650791">
        <ele>136.41</ele>
        <time>2020-03-14T16:31:20Z</time>
      </trkpt>
      <trkpt lat="43.3249104302" lon="-8.4494800027">
        <ele>136.28</ele>
        <time>2020-03-14T16:31:22Z</time>
      </trkpt>
      <trkpt lat="43.3249237575" lon="-8.4494274482">
        <ele>136.17</ele>
        <time>2020-03-14T16:31:23Z</time>
      </trkpt>
      <trkpt lat="43.3249427006" lon="-8.4493717086">
        <ele>135.98</ele>
        <time>2020-03-14T16:31:24Z</time>
      </trkpt>
      <trkpt lat="43.3249683492" lon="-8.4493219201">
        <ele>135.78</ele>
        <time>2020-03-14T16:31:25Z</time>
      </trkpt>
      <trkpt lat="43.3250064868" lon="-8.4492700361">
        <ele>135.34</ele>
        <time>2020-03-14T16:31:26Z</time>
      </trkpt>
      <trkpt lat="43.3250601310" lon="-8.4492282942">
        <ele>134.97</ele>
        <time>2020-03-14T16:31:27Z</time>
      </trkpt>
      <trkpt lat="43.3251219057" lon="-8.4492106922">
        <ele>134.60</ele>
        <time>2020-03-14T16:31:28Z</time>
      </trkpt>
      <trkpt lat="43.3251891285" lon="-8.4492137097">
        <ele>134.13</ele>
        <time>2020-03-14T16:31:29Z</time>
      </trkpt>
      <trkpt lat="43.3254634682" lon="-8.4494396858">
        <ele>130.80</ele>
        <time>2020-03-14T16:31:34Z</time>
      </trkpt>
      <trkpt lat="43.3256323636" lon="-8.4497036319">
        <ele>127.42</ele>
        <time>2020-03-14T16:31:38Z</time>
      </trkpt>
      <trkpt lat="43.3258906938" lon="-8.4500668198">
        <ele>123.56</ele>
        <time>2020-03-14T16:31:44Z</time>
      </trkpt>
      <trkpt lat="43.3260588348" lon="-8.4503131639">
        <ele>121.59</ele>
        <time>2020-03-14T16:31:48Z</time>
      </trkpt>
      <trkpt lat="43.3265434764" lon="-8.4510780964">
        <ele>118.38</ele>
        <time>2020-03-14T16:31:59Z</time>
      </trkpt>
      <trkpt lat="43.3266547043" lon="-8.4511998016">
        <ele>117.24</ele>
        <time>2020-03-14T16:32:01Z</time>
      </trkpt>
      <trkpt lat="43.3267166466" lon="-8.4512494225">
        <ele>117.00</ele>
        <time>2020-03-14T16:32:02Z</time>
      </trkpt>
      <trkpt lat="43.3268935885" lon="-8.4513902385">
        <ele>115.95</ele>
        <time>2020-03-14T16:32:05Z</time>
      </trkpt>
      <trkpt lat="43.3270343207" lon="-8.4515321441">
        <ele>114.68</ele>
        <time>2020-03-14T16:32:08Z</time>
      </trkpt>
      <trkpt lat="43.3270809241" lon="-8.4515650012">
        <ele>114.48</ele>
        <time>2020-03-14T16:32:09Z</time>
      </trkpt>
      <trkpt lat="43.3271276951" lon="-8.4515892249">
        <ele>114.45</ele>
        <time>2020-03-14T16:32:10Z</time>
      </trkpt>
      <trkpt lat="43.3278197050" lon="-8.4518633969">
        <ele>116.18</ele>
        <time>2020-03-14T16:32:28Z</time>
      </trkpt>
      <trkpt lat="43.3284704760" lon="-8.4519771393">
        <ele>118.99</ele>
        <time>2020-03-14T16:32:48Z</time>
      </trkpt>
      <trkpt lat="43.3288106136" lon="-8.4514282923">
        <ele>121.60</ele>
        <time>2020-03-14T16:33:04Z</time>
      </trkpt>
      <trkpt lat="43.3292824309" lon="-8.4504153393">
        <ele>124.55</ele>
        <time>2020-03-14T16:33:29Z</time>
      </trkpt>
      <trkpt lat="43.3296866901" lon="-8.4496099222">
        <ele>126.51</ele>
        <time>2020-03-14T16:33:49Z</time>
      </trkpt>
      <trkpt lat="43.3300786279" lon="-8.4488123003">
        <ele>128.34</ele>
        <time>2020-03-14T16:34:09Z</time>
      </trkpt>
      <trkpt lat="43.3304862399" lon="-8.4479843359">
        <ele>130.35</ele>
        <time>2020-03-14T16:34:30Z</time>
      </trkpt>
      <trkpt lat="43.3309135493" lon="-8.4471145459">
        <ele>133.43</ele>
        <time>2020-03-14T16:34:51Z</time>
      </trkpt>
      <trkpt lat="43.3311456442" lon="-8.4466541279">
        <ele>133.70</ele>
        <time>2020-03-14T16:35:00Z</time>
      </trkpt>
      <trkpt lat="43.3311610669" lon="-8.4465786908">
        <ele>133.70</ele>
        <time>2020-03-14T16:35:01Z</time>
      </trkpt>
      <trkpt lat="43.3311568759" lon="-8.4464936983">
        <ele>133.69</ele>
        <time>2020-03-14T16:35:02Z</time>
      </trkpt>
      <trkpt lat="43.3311393578" lon="-8.4464023355">
        <ele>133.65</ele>
        <time>2020-03-14T16:35:03Z</time>
      </trkpt>
      <trkpt lat="43.3311183192" lon="-8.4463041835">
        <ele>133.50</ele>
        <time>2020-03-14T16:35:04Z</time>
      </trkpt>
      <trkpt lat="43.3309447300" lon="-8.4454591200">
        <ele>130.40</ele>
        <time>2020-03-14T16:35:11Z</time>
      </trkpt>
      <trkpt lat="43.3308350109" lon="-8.4449272044">
        <ele>126.17</ele>
        <time>2020-03-14T16:35:15Z</time>
      </trkpt>
      <trkpt lat="43.3307656925" lon="-8.4446247015">
        <ele>123.02</ele>
        <time>2020-03-14T16:35:18Z</time>
      </trkpt>
      <trkpt lat="43.3307190891" lon="-8.4445515275">
        <ele>122.50</ele>
        <time>2020-03-14T16:35:19Z</time>
      </trkpt>
      <trkpt lat="43.3306595776" lon="-8.4444925189">
        <ele>121.49</ele>
        <time>2020-03-14T16:35:20Z</time>
      </trkpt>
      <trkpt lat="43.3306007367" lon="-8.4444248769">
        <ele>120.33</ele>
        <time>2020-03-14T16:35:21Z</time>
      </trkpt>
      <trkpt lat="43.3305589948" lon="-8.4443337657">
        <ele>118.75</ele>
        <time>2020-03-14T16:35:22Z</time>
      </trkpt>
      <trkpt lat="43.3305472601" lon="-8.4442363679">
        <ele>117.40</ele>
        <time>2020-03-14T16:35:23Z</time>
      </trkpt>
      <trkpt lat="43.3305642754" lon="-8.4441501182">
        <ele>116.48</ele>
        <time>2020-03-14T16:35:24Z</time>
      </trkpt>
      <trkpt lat="43.3306013234" lon="-8.4440794587">
        <ele>115.89</ele>
        <time>2020-03-14T16:35:25Z</time>
      </trkpt>
      <trkpt lat="43.3306451607" lon="-8.4440212045">
        <ele>115.34</ele>
        <time>2020-03-14T16:35:26Z</time>
      </trkpt>
      <trkpt lat="43.3306774311" lon="-8.4439601004">
        <ele>114.66</ele>
        <time>2020-03-14T16:35:27Z</time>
      </trkpt>
      <trkpt lat="43.3306980506" lon="-8.4438913688">
        <ele>113.96</ele>
        <time>2020-03-14T16:35:28Z</time>
      </trkpt>
      <trkpt lat="43.3307133894" lon="-8.4438157640">
        <ele>113.29</ele>
        <time>2020-03-14T16:35:29Z</time>
      </trkpt>
      <trkpt lat="43.3307703026" lon="-8.4434565995">
        <ele>111.18</ele>
        <time>2020-03-14T16:35:33Z</time>
      </trkpt>
      <trkpt lat="43.3309730608" lon="-8.4421786945">
        <ele>107.35</ele>
        <time>2020-03-14T16:35:43Z</time>
      </trkpt>
      <trkpt lat="43.3310448099" lon="-8.4417306818">
        <ele>103.58</ele>
        <time>2020-03-14T16:35:46Z</time>
      </trkpt>
      <trkpt lat="43.3311014716" lon="-8.4413721878">
        <ele>100.50</ele>
        <time>2020-03-14T16:35:49Z</time>
      </trkpt>
      <trkpt lat="43.3311146311" lon="-8.4412343893">
        <ele>97.31</ele>
        <time>2020-03-14T16:35:51Z</time>
      </trkpt>
      <trkpt lat="43.3311200794" lon="-8.4411007818">
        <ele>93.78</ele>
        <time>2020-03-14T16:35:54Z</time>
      </trkpt>
      <trkpt lat="43.3311654255" lon="-8.4408230893">
        <ele>90.91</ele>
        <time>2020-03-14T16:35:58Z</time>
      </trkpt>
      <trkpt lat="43.3312571235" lon="-8.4402499348">
        <ele>87.94</ele>
        <time>2020-03-14T16:36:07Z</time>
      </trkpt>
      <trkpt lat="43.3312637452" lon="-8.4401820414">
        <ele>87.26</ele>
        <time>2020-03-14T16:36:08Z</time>
      </trkpt>
      <trkpt lat="43.3312565368" lon="-8.4401235357">
        <ele>86.70</ele>
        <time>2020-03-14T16:36:09Z</time>
      </trkpt>
      <trkpt lat="43.3312405273" lon="-8.4400720708">
        <ele>86.36</ele>
        <time>2020-03-14T16:36:10Z</time>
      </trkpt>
      <trkpt lat="43.3312240988" lon="-8.4400220308">
        <ele>86.13</ele>
        <time>2020-03-14T16:36:11Z</time>
      </trkpt>
      <trkpt lat="43.3312134538" lon="-8.4399667941">
        <ele>85.78</ele>
        <time>2020-03-14T16:36:12Z</time>
      </trkpt>
      <trkpt lat="43.3312130347" lon="-8.4399098810">
        <ele>85.28</ele>
        <time>2020-03-14T16:36:13Z</time>
      </trkpt>
      <trkpt lat="43.3312234282" lon="-8.4398517944">
        <ele>84.65</ele>
        <time>2020-03-14T16:36:14Z</time>
      </trkpt>
      <trkpt lat="43.3312450536" lon="-8.4397971444">
        <ele>83.99</ele>
        <time>2020-03-14T16:36:15Z</time>
      </trkpt>
      <trkpt lat="43.3312775753" lon="-8.4397498704">
        <ele>83.39</ele>
        <time>2020-03-14T16:36:16Z</time>
      </trkpt>
      <trkpt lat="43.3313198201" lon="-8.4397137444">
        <ele>83.04</ele>
        <time>2020-03-14T16:36:17Z</time>
      </trkpt>
      <trkpt lat="43.3313586283" lon="-8.4396947175">
        <ele>82.84</ele>
        <time>2020-03-14T16:36:18Z</time>
      </trkpt>
      <trkpt lat="43.3313984424" lon="-8.4396973159">
        <ele>82.68</ele>
        <time>2020-03-14T16:36:19Z</time>
      </trkpt>
      <trkpt lat="43.3314302936" lon="-8.4396932926">
        <ele>82.56</ele>
        <time>2020-03-14T16:36:20Z</time>
      </trkpt>
      <trkpt lat="43.3314564452" lon="-8.4396629501">
        <ele>82.40</ele>
        <time>2020-03-14T16:36:21Z</time>
      </trkpt>
      <trkpt lat="43.3314720355" lon="-8.4396165982">
        <ele>82.40</ele>
        <time>2020-03-14T16:36:22Z</time>
      </trkpt>
      <trkpt lat="43.3314809203" lon="-8.4395725932">
        <ele>82.22</ele>
        <time>2020-03-14T16:36:23Z</time>
      </trkpt>
      <trkpt lat="43.3314842731" lon="-8.4395305160">
        <ele>82.18</ele>
        <time>2020-03-14T16:36:24Z</time>
      </trkpt>
      <trkpt lat="43.3314862847" lon="-8.4394886903">
        <ele>82.12</ele>
        <time>2020-03-14T16:36:25Z</time>
      </trkpt>
      <trkpt lat="43.3314679284" lon="-8.4392212238">
        <ele>81.77</ele>
        <time>2020-03-14T16:36:31Z</time>
      </trkpt>
      <trkpt lat="43.3315033838" lon="-8.4388564434">
        <ele>79.93</ele>
        <time>2020-03-14T16:36:36Z</time>
      </trkpt>
      <trkpt lat="43.3316207305" lon="-8.4384671040">
        <ele>75.58</ele>
        <time>2020-03-14T16:36:42Z</time>
      </trkpt>
      <trkpt lat="43.3321365528" lon="-8.4368633945">
        <ele>71.42</ele>
        <time>2020-03-14T16:37:07Z</time>
      </trkpt>
      <trkpt lat="43.3323255647" lon="-8.4359809477">
        <ele>71.51</ele>
        <time>2020-03-14T16:37:23Z</time>
      </trkpt>
      <trkpt lat="43.3324684761" lon="-8.4348450322">
        <ele>71.98</ele>
        <time>2020-03-14T16:37:42Z</time>
      </trkpt>
      <trkpt lat="43.3326148242" lon="-8.4336785227">
        <ele>68.90</ele>
        <time>2020-03-14T16:37:58Z</time>
      </trkpt>
      <trkpt lat="43.3327847254" lon="-8.4325260110">
        <ele>66.16</ele>
        <time>2020-03-14T16:38:14Z</time>
      </trkpt>
      <trkpt lat="43.3330928441" lon="-8.4311851580">
        <ele>64.83</ele>
        <time>2020-03-14T16:38:35Z</time>
      </trkpt>
      <trkpt lat="43.3333437983" lon="-8.4303908050">
        <ele>64.20</ele>
        <time>2020-03-14T16:38:47Z</time>
      </trkpt>
      <trkpt lat="43.3336014580" lon="-8.4298728872">
        <ele>63.64</ele>
        <time>2020-03-14T16:38:59Z</time>
      </trkpt>
      <trkpt lat="43.3338919748" lon="-8.4292852320">
        <ele>66.68</ele>
        <time>2020-03-14T16:39:15Z</time>
      </trkpt>
      <trkpt lat="43.3341280930" lon="-8.4289408196">
        <ele>67.72</ele>
        <time>2020-03-14T16:39:27Z</time>
      </trkpt>
      <trkpt lat="43.3341337088" lon="-8.4289001673">
        <ele>67.73</ele>
        <time>2020-03-14T16:39:28Z</time>
      </trkpt>
      <trkpt lat="43.3341419231" lon="-8.4288535640">
        <ele>67.73</ele>
        <time>2020-03-14T16:39:29Z</time>
      </trkpt>
      <trkpt lat="43.3341581840" lon="-8.4288088884">
        <ele>67.73</ele>
        <time>2020-03-14T16:39:30Z</time>
      </trkpt>
      <trkpt lat="43.3341788873" lon="-8.4287698288">
        <ele>67.73</ele>
        <time>2020-03-14T16:39:31Z</time>
      </trkpt>
      <trkpt lat="43.3342010994" lon="-8.4287312720">
        <ele>67.73</ele>
        <time>2020-03-14T16:39:32Z</time>
      </trkpt>
      <trkpt lat="43.3346652053" lon="-8.4280392621">
        <ele>66.89</ele>
        <time>2020-03-14T16:39:49Z</time>
      </trkpt>
      <trkpt lat="43.3351423033" lon="-8.4273493476">
        <ele>66.60</ele>
        <time>2020-03-14T16:40:02Z</time>
      </trkpt>
      <trkpt lat="43.3354881406" lon="-8.4268679749">
        <ele>62.58</ele>
        <time>2020-03-14T16:40:09Z</time>
      </trkpt>
      <trkpt lat="43.3355337381" lon="-8.4267992433">
        <ele>62.58</ele>
        <time>2020-03-14T16:40:10Z</time>
      </trkpt>
      <trkpt lat="43.3357150387" lon="-8.4265193716">
        <ele>59.44</ele>
        <time>2020-03-14T16:40:14Z</time>
      </trkpt>
      <trkpt lat="43.3357637376" lon="-8.4264502209">
        <ele>59.14</ele>
        <time>2020-03-14T16:40:15Z</time>
      </trkpt>
      <trkpt lat="43.3364331163" lon="-8.4254769981">
        <ele>55.86</ele>
        <time>2020-03-14T16:40:28Z</time>
      </trkpt>
      <trkpt lat="43.3369092923" lon="-8.4248072840">
        <ele>54.01</ele>
        <time>2020-03-14T16:40:40Z</time>
      </trkpt>
      <trkpt lat="43.3371988870" lon="-8.4244451020">
        <ele>57.21</ele>
        <time>2020-03-14T16:40:53Z</time>
      </trkpt>
      <trkpt lat="43.3375463169" lon="-8.4239076544">
        <ele>59.75</ele>
        <time>2020-03-14T16:41:07Z</time>
      </trkpt>
      <trkpt lat="43.3378493227" lon="-8.4234769922">
        <ele>59.55</ele>
        <time>2020-03-14T16:41:16Z</time>
      </trkpt>
      <trkpt lat="43.3378775697" lon="-8.4234369267">
        <ele>59.49</ele>
        <time>2020-03-14T16:41:17Z</time>
      </trkpt>
      <trkpt lat="43.3380357362" lon="-8.4232210927">
        <ele>57.26</ele>
        <time>2020-03-14T16:41:22Z</time>
      </trkpt>
      <trkpt lat="43.3383360598" lon="-8.4229698032">
        <ele>56.31</ele>
        <time>2020-03-14T16:41:27Z</time>
      </trkpt>
      <trkpt lat="43.3383931406" lon="-8.4229371138">
        <ele>56.05</ele>
        <time>2020-03-14T16:41:28Z</time>
      </trkpt>
      <trkpt lat="43.3384397440" lon="-8.4229065198">
        <ele>55.56</ele>
        <time>2020-03-14T16:41:29Z</time>
      </trkpt>
      <trkpt lat="43.3386998344" lon="-8.4225166775">
        <ele>54.43</ele>
        <time>2020-03-14T16:41:40Z</time>
      </trkpt>
      <trkpt lat="43.3387326915" lon="-8.4224677272">
        <ele>54.99</ele>
        <time>2020-03-14T16:41:41Z</time>
      </trkpt>
      <trkpt lat="43.3392631821" lon="-8.4220410045">
        <ele>55.65</ele>
        <time>2020-03-14T16:41:55Z</time>
      </trkpt>
      <trkpt lat="43.3393066842" lon="-8.4220254142">
        <ele>55.62</ele>
        <time>2020-03-14T16:41:56Z</time>
      </trkpt>
      <trkpt lat="43.3393526170" lon="-8.4220197983">
        <ele>55.60</ele>
        <time>2020-03-14T16:41:57Z</time>
      </trkpt>
      <trkpt lat="43.3393955324" lon="-8.4220216423">
        <ele>55.54</ele>
        <time>2020-03-14T16:41:58Z</time>
      </trkpt>
      <trkpt lat="43.3394407947" lon="-8.4220324550">
        <ele>55.49</ele>
        <time>2020-03-14T16:41:59Z</time>
      </trkpt>
      <trkpt lat="43.3394861408" lon="-8.4220483806">
        <ele>55.45</ele>
        <time>2020-03-14T16:42:00Z</time>
      </trkpt>
      <trkpt lat="43.3395301457" lon="-8.4220626298">
        <ele>55.37</ele>
        <time>2020-03-14T16:42:01Z</time>
      </trkpt>
      <trkpt lat="43.3395741507" lon="-8.4220718499">
        <ele>55.25</ele>
        <time>2020-03-14T16:42:02Z</time>
      </trkpt>
      <trkpt lat="43.3396174852" lon="-8.4220696706">
        <ele>55.17</ele>
        <time>2020-03-14T16:42:03Z</time>
      </trkpt>
      <trkpt lat="43.3396570478" lon="-8.4220505599">
        <ele>55.03</ele>
        <time>2020-03-14T16:42:04Z</time>
      </trkpt>
      <trkpt lat="43.3396890666" lon="-8.4220172837">
        <ele>54.91</ele>
        <time>2020-03-14T16:42:05Z</time>
      </trkpt>
      <trkpt lat="43.3397094347" lon="-8.4219700936">
        <ele>54.68</ele>
        <time>2020-03-14T16:42:06Z</time>
      </trkpt>
      <trkpt lat="43.3397117816" lon="-8.4219167009">
        <ele>54.56</ele>
        <time>2020-03-14T16:42:07Z</time>
      </trkpt>
      <trkpt lat="43.3397006337" lon="-8.4218675829">
        <ele>54.50</ele>
        <time>2020-03-14T16:42:08Z</time>
      </trkpt>
      <trkpt lat="43.3396824449" lon="-8.4218255058">
        <ele>54.47</ele>
        <time>2020-03-14T16:42:09Z</time>
      </trkpt>
      <trkpt lat="43.3396654297" lon="-8.4217862785">
        <ele>54.45</ele>
        <time>2020-03-14T16:42:10Z</time>
      </trkpt>
      <trkpt lat="43.3395548724" lon="-8.4213686083">
        <ele>55.63</ele>
        <time>2020-03-14T16:42:19Z</time>
      </trkpt>
      <trkpt lat="43.3395252004" lon="-8.4213225916">
        <ele>55.84</ele>
        <time>2020-03-14T16:42:20Z</time>
      </trkpt>
      <trkpt lat="43.3394841291" lon="-8.4212861303">
        <ele>55.94</ele>
        <time>2020-03-14T16:42:21Z</time>
      </trkpt>
      <trkpt lat="43.3394299820" lon="-8.4212645888">
        <ele>55.99</ele>
        <time>2020-03-14T16:42:22Z</time>
      </trkpt>
      <trkpt lat="43.3393651061" lon="-8.4212681092">
        <ele>56.02</ele>
        <time>2020-03-14T16:42:23Z</time>
      </trkpt>
      <trkpt lat="43.3393019903" lon="-8.4213058278">
        <ele>56.03</ele>
        <time>2020-03-14T16:42:24Z</time>
      </trkpt>
      <trkpt lat="43.3392455801" lon="-8.4213741403">
        <ele>56.04</ele>
        <time>2020-03-14T16:42:25Z</time>
      </trkpt>
      <trkpt lat="43.3391887508" lon="-8.4214598872">
        <ele>56.04</ele>
        <time>2020-03-14T16:42:26Z</time>
      </trkpt>
      <trkpt lat="43.3390462585" lon="-8.4216338955">
        <ele>56.04</ele>
        <time>2020-03-14T16:42:28Z</time>
      </trkpt>
      <trkpt lat="43.3389564883" lon="-8.4216987714">
        <ele>55.93</ele>
        <time>2020-03-14T16:42:29Z</time>
      </trkpt>
      <trkpt lat="43.3388607670" lon="-8.4217502363">
        <ele>55.54</ele>
        <time>2020-03-14T16:42:30Z</time>
      </trkpt>
      <trkpt lat="43.3387694042" lon="-8.4217854403">
        <ele>54.76</ele>
        <time>2020-03-14T16:42:31Z</time>
      </trkpt>
      <trkpt lat="43.3386835735" lon="-8.4218131006">
        <ele>53.92</ele>
        <time>2020-03-14T16:42:32Z</time>
      </trkpt>
      <trkpt lat="43.3384691644" lon="-8.4218786471">
        <ele>50.56</ele>
        <time>2020-03-14T16:42:35Z</time>
      </trkpt>
      <trkpt lat="43.3383183740" lon="-8.4219042957">
        <ele>46.94</ele>
        <time>2020-03-14T16:42:38Z</time>
      </trkpt>
      <trkpt lat="43.3382602874" lon="-8.4218795691">
        <ele>45.52</ele>
        <time>2020-03-14T16:42:41Z</time>
      </trkpt>
      <trkpt lat="43.3382213116" lon="-8.4218458738">
        <ele>44.31</ele>
        <time>2020-03-14T16:42:48Z</time>
      </trkpt>
      <trkpt lat="43.3382125106" lon="-8.4218110051">
        <ele>44.18</ele>
        <time>2020-03-14T16:42:49Z</time>
      </trkpt>
      <trkpt lat="43.3382199705" lon="-8.4217571095">
        <ele>44.10</ele>
        <time>2020-03-14T16:42:50Z</time>
      </trkpt>
      <trkpt lat="43.3382509835" lon="-8.4217077401">
        <ele>44.05</ele>
        <time>2020-03-14T16:42:51Z</time>
      </trkpt>
      <trkpt lat="43.3382987604" lon="-8.4216724522">
        <ele>44.01</ele>
        <time>2020-03-14T16:42:52Z</time>
      </trkpt>
      <trkpt lat="43.3383528236" lon="-8.4216409363">
        <ele>43.93</ele>
        <time>2020-03-14T16:42:53Z</time>
      </trkpt>
      <trkpt lat="43.3384048752" lon="-8.4216000326">
        <ele>43.88</ele>
        <time>2020-03-14T16:42:54Z</time>
      </trkpt>
      <trkpt lat="43.3384518977" lon="-8.4215463884">
        <ele>43.81</ele>
        <time>2020-03-14T16:42:55Z</time>
      </trkpt>
      <trkpt lat="43.3384977467" lon="-8.4214852005">
        <ele>43.70</ele>
        <time>2020-03-14T16:42:56Z</time>
      </trkpt>
      <trkpt lat="43.3387636207" lon="-8.4210211784">
        <ele>40.27</ele>
        <time>2020-03-14T16:43:03Z</time>
      </trkpt>
      <trkpt lat="43.3390926104" lon="-8.4203387238">
        <ele>37.99</ele>
        <time>2020-03-14T16:43:15Z</time>
      </trkpt>
      <trkpt lat="43.3390849829" lon="-8.4202945512">
        <ele>37.99</ele>
        <time>2020-03-14T16:43:16Z</time>
      </trkpt>
      <trkpt lat="43.3390622679" lon="-8.4202575870">
        <ele>37.99</ele>
        <time>2020-03-14T16:43:17Z</time>
      </trkpt>
      <trkpt lat="43.3390336856" lon="-8.4202199522">
        <ele>37.99</ele>
        <time>2020-03-14T16:43:18Z</time>
      </trkpt>
      <trkpt lat="43.3390056901" lon="-8.4201754443">
        <ele>37.99</ele>
        <time>2020-03-14T16:43:19Z</time>
      </trkpt>
      <trkpt lat="43.3389793709" lon="-8.4201278351">
        <ele>37.99</ele>
        <time>2020-03-14T16:43:20Z</time>
      </trkpt>
      <trkpt lat="43.3387861680" lon="-8.4200207144">
        <ele>36.98</ele>
        <time>2020-03-14T16:43:28Z</time>
      </trkpt>
      <trkpt lat="43.3387636207" lon="-8.4200327005">
        <ele>36.62</ele>
        <time>2020-03-14T16:43:29Z</time>
      </trkpt>
      <trkpt lat="43.3387181070" lon="-8.4199827444">
        <ele>35.45</ele>
        <time>2020-03-14T16:43:33Z</time>
      </trkpt>
      <trkpt lat="43.3387243934" lon="-8.4198266733">
        <ele>32.33</ele>
        <time>2020-03-14T16:43:40Z</time>
      </trkpt>
      <trkpt lat="43.3387745172" lon="-8.4196090791">
        <ele>30.11</ele>
        <time>2020-03-14T16:43:45Z</time>
      </trkpt>
      <trkpt lat="43.3388574980" lon="-8.4192959312">
        <ele>29.53</ele>
        <time>2020-03-14T16:43:51Z</time>
      </trkpt>
      <trkpt lat="43.3388945460" lon="-8.4191666823">
        <ele>29.15</ele>
        <time>2020-03-14T16:43:53Z</time>
      </trkpt>
      <trkpt lat="43.3389030956" lon="-8.4190991241">
        <ele>28.97</ele>
        <time>2020-03-14T16:43:54Z</time>
      </trkpt>
      <trkpt lat="43.3389026765" lon="-8.4190290514">
        <ele>28.83</ele>
        <time>2020-03-14T16:43:55Z</time>
      </trkpt>
      <trkpt lat="43.3388977312" lon="-8.4189606551">
        <ele>28.75</ele>
        <time>2020-03-14T16:43:56Z</time>
      </trkpt>
      <trkpt lat="43.3388721664" lon="-8.4187678713">
        <ele>28.23</ele>
        <time>2020-03-14T16:43:59Z</time>
      </trkpt>
      <trkpt lat="43.3389139082" lon="-8.4183815494">
        <ele>25.92</ele>
        <time>2020-03-14T16:44:05Z</time>
      </trkpt>
      <trkpt lat="43.3391271438" lon="-8.4179091454">
        <ele>24.66</ele>
        <time>2020-03-14T16:44:15Z</time>
      </trkpt>
      <trkpt lat="43.3391370345" lon="-8.4178545792">
        <ele>24.62</ele>
        <time>2020-03-14T16:44:16Z</time>
      </trkpt>
      <trkpt lat="43.3391367830" lon="-8.4177987557">
        <ele>24.60</ele>
        <time>2020-03-14T16:44:17Z</time>
      </trkpt>
      <trkpt lat="43.3391257189" lon="-8.4176892880">
        <ele>24.54</ele>
        <time>2020-03-14T16:44:19Z</time>
      </trkpt>
      <trkpt lat="43.3388682269" lon="-8.4166943561">
        <ele>23.17</ele>
        <time>2020-03-14T16:44:37Z</time>
      </trkpt>
      <trkpt lat="43.3386241458" lon="-8.4161224589">
        <ele>22.08</ele>
        <time>2020-03-14T16:44:52Z</time>
      </trkpt>
      <trkpt lat="43.3385445178" lon="-8.4158269968">
        <ele>21.67</ele>
        <time>2020-03-14T16:44:58Z</time>
      </trkpt>
      <trkpt lat="43.3385376446" lon="-8.4157710895">
        <ele>21.64</ele>
        <time>2020-03-14T16:44:59Z</time>
      </trkpt>
      <trkpt lat="43.3385346271" lon="-8.4157125838">
        <ele>21.62</ele>
        <time>2020-03-14T16:45:00Z</time>
      </trkpt>
      <trkpt lat="43.3385465294" lon="-8.4153548442">
        <ele>21.45</ele>
        <time>2020-03-14T16:45:06Z</time>
      </trkpt>
      <trkpt lat="43.3385580126" lon="-8.4153001104">
        <ele>21.38</ele>
        <time>2020-03-14T16:45:07Z</time>
      </trkpt>
      <trkpt lat="43.3385688253" lon="-8.4152498189">
        <ele>21.35</ele>
        <time>2020-03-14T16:45:08Z</time>
      </trkpt>
      <trkpt lat="43.3385915402" lon="-8.4151649941">
        <ele>21.05</ele>
        <time>2020-03-14T16:45:10Z</time>
      </trkpt>
      <trkpt lat="43.3387787081" lon="-8.4146925900">
        <ele>20.56</ele>
        <time>2020-03-14T16:45:21Z</time>
      </trkpt>
      <trkpt lat="43.3390014991" lon="-8.4140962176">
        <ele>20.40</ele>
        <time>2020-03-14T16:45:33Z</time>
      </trkpt>
      <trkpt lat="43.3392833825" lon="-8.4135640506">
        <ele>19.87</ele>
        <time>2020-03-14T16:45:46Z</time>
      </trkpt>
      <trkpt lat="43.3395846281" lon="-8.4133194666">
        <ele>20.04</ele>
        <time>2020-03-14T16:45:56Z</time>
      </trkpt>
      <trkpt lat="43.3400131948" lon="-8.4130960889">
        <ele>22.60</ele>
        <time>2020-03-14T16:46:13Z</time>
      </trkpt>
      <trkpt lat="43.3401614707" lon="-8.4130492341">
        <ele>23.56</ele>
        <time>2020-03-14T16:46:18Z</time>
      </trkpt>
      <trkpt lat="43.3401792403" lon="-8.4130157065">
        <ele>23.68</ele>
        <time>2020-03-14T16:46:19Z</time>
      </trkpt>
      <trkpt lat="43.3401951659" lon="-8.4129782394">
        <ele>23.74</ele>
        <time>2020-03-14T16:46:20Z</time>
      </trkpt>
      <trkpt lat="43.3402166236" lon="-8.4129441250">
        <ele>23.85</ele>
        <time>2020-03-14T16:46:21Z</time>
      </trkpt>
      <trkpt lat="43.3402429428" lon="-8.4129147884">
        <ele>23.93</ele>
        <time>2020-03-14T16:46:22Z</time>
      </trkpt>
      <trkpt lat="43.3402711060" lon="-8.4128903132">
        <ele>23.99</ele>
        <time>2020-03-14T16:46:23Z</time>
      </trkpt>
      <trkpt lat="43.3403027896" lon="-8.4128730465">
        <ele>24.09</ele>
        <time>2020-03-14T16:46:24Z</time>
      </trkpt>
      <trkpt lat="43.3403355628" lon="-8.4128642455">
        <ele>24.31</ele>
        <time>2020-03-14T16:46:25Z</time>
      </trkpt>
      <trkpt lat="43.3403695934" lon="-8.4128627367">
        <ele>24.61</ele>
        <time>2020-03-14T16:46:26Z</time>
      </trkpt>
      <trkpt lat="43.3404026181" lon="-8.4128658380">
        <ele>24.81</ele>
        <time>2020-03-14T16:46:27Z</time>
      </trkpt>
      <trkpt lat="43.3404294401" lon="-8.4128564503">
        <ele>24.95</ele>
        <time>2020-03-14T16:46:28Z</time>
      </trkpt>
      <trkpt lat="43.3404520713" lon="-8.4128410276">
        <ele>25.05</ele>
        <time>2020-03-14T16:46:29Z</time>
      </trkpt>
      <trkpt lat="43.3404720202" lon="-8.4128094278">
        <ele>25.11</ele>
        <time>2020-03-14T16:46:30Z</time>
      </trkpt>
      <trkpt lat="43.3404892869" lon="-8.4127654228">
        <ele>25.14</ele>
        <time>2020-03-14T16:46:31Z</time>
      </trkpt>
      <trkpt lat="43.3405231498" lon="-8.4127200767">
        <ele>25.17</ele>
        <time>2020-03-14T16:46:32Z</time>
      </trkpt>
      <trkpt lat="43.3405530732" lon="-8.4126682766">
        <ele>25.17</ele>
        <time>2020-03-14T16:46:33Z</time>
      </trkpt>
      <trkpt lat="43.3405889478" lon="-8.4126160573">
        <ele>25.17</ele>
        <time>2020-03-14T16:46:34Z</time>
      </trkpt>
      <trkpt lat="43.3406251576" lon="-8.4125639219">
        <ele>25.17</ele>
        <time>2020-03-14T16:46:35Z</time>
      </trkpt>
      <trkpt lat="43.3410816360" lon="-8.4118374623">
        <ele>21.88</ele>
        <time>2020-03-14T16:46:47Z</time>
      </trkpt>
      <trkpt lat="43.3411156666" lon="-8.4117767774">
        <ele>21.59</ele>
        <time>2020-03-14T16:46:48Z</time>
      </trkpt>
      <trkpt lat="43.3412104659" lon="-8.4116195329">
        <ele>20.51</ele>
        <time>2020-03-14T16:46:51Z</time>
      </trkpt>
      <trkpt lat="43.3413584065" lon="-8.4113985021">
        <ele>20.00</ele>
        <time>2020-03-14T16:46:56Z</time>
      </trkpt>
      <trkpt lat="43.3413868211" lon="-8.4113591071">
        <ele>19.99</ele>
        <time>2020-03-14T16:46:57Z</time>
      </trkpt>
      <trkpt lat="43.3414051775" lon="-8.4113165271">
        <ele>19.99</ele>
        <time>2020-03-14T16:46:58Z</time>
      </trkpt>
      <trkpt lat="43.3414206002" lon="-8.4112695046">
        <ele>19.99</ele>
        <time>2020-03-14T16:46:59Z</time>
      </trkpt>
      <trkpt lat="43.3414224442" lon="-8.4112172853">
        <ele>20.03</ele>
        <time>2020-03-14T16:47:00Z</time>
      </trkpt>
      <trkpt lat="43.3414084464" lon="-8.4111685026">
        <ele>20.09</ele>
        <time>2020-03-14T16:47:01Z</time>
      </trkpt>
      <trkpt lat="43.3413770981" lon="-8.4111314546">
        <ele>20.14</ele>
        <time>2020-03-14T16:47:02Z</time>
      </trkpt>
      <trkpt lat="43.3413460851" lon="-8.4110903833">
        <ele>20.17</ele>
        <time>2020-03-14T16:47:03Z</time>
      </trkpt>
      <trkpt lat="43.3413045108" lon="-8.4110545088">
        <ele>20.20</ele>
        <time>2020-03-14T16:47:04Z</time>
      </trkpt>
      <trkpt lat="43.3412654512" lon="-8.4110208135">
        <ele>20.21</ele>
        <time>2020-03-14T16:47:05Z</time>
      </trkpt>
      <trkpt lat="43.3410696499" lon="-8.4108388424">
        <ele>20.22</ele>
        <time>2020-03-14T16:47:09Z</time>
      </trkpt>
      <trkpt lat="43.3410378825" lon="-8.4107648302">
        <ele>20.22</ele>
        <time>2020-03-14T16:47:10Z</time>
      </trkpt>
      <trkpt lat="43.3410381339" lon="-8.4106868785">
        <ele>20.22</ele>
        <time>2020-03-14T16:47:11Z</time>
      </trkpt>
      <trkpt lat="43.3410570771" lon="-8.4106056578">
        <ele>20.21</ele>
        <time>2020-03-14T16:47:12Z</time>
      </trkpt>
      <trkpt lat="43.3410998248" lon="-8.4105360880">
        <ele>20.21</ele>
        <time>2020-03-14T16:47:13Z</time>
      </trkpt>
      <trkpt lat="43.3411427401" lon="-8.4104786720">
        <ele>20.21</ele>
        <time>2020-03-14T16:47:14Z</time>
      </trkpt>
      <trkpt lat="43.3411858231" lon="-8.4104301408">
        <ele>19.97</ele>
        <time>2020-03-14T16:47:15Z</time>
      </trkpt>
      <trkpt lat="43.3412256371" lon="-8.4103853814">
        <ele>19.49</ele>
        <time>2020-03-14T16:47:16Z</time>
      </trkpt>
      <trkpt lat="43.3412826341" lon="-8.4102889057">
        <ele>18.72</ele>
        <time>2020-03-14T16:47:18Z</time>
      </trkpt>
      <trkpt lat="43.3412987273" lon="-8.4102333337">
        <ele>18.59</ele>
        <time>2020-03-14T16:47:19Z</time>
      </trkpt>
      <trkpt lat="43.3412901778" lon="-8.4101744089">
        <ele>18.53</ele>
        <time>2020-03-14T16:47:20Z</time>
      </trkpt>
      <trkpt lat="43.3412709832" lon="-8.4101287276">
        <ele>18.45</ele>
        <time>2020-03-14T16:47:21Z</time>
      </trkpt>
      <trkpt lat="43.3412438259" lon="-8.4100955352">
        <ele>18.45</ele>
        <time>2020-03-14T16:47:22Z</time>
      </trkpt>
      <trkpt lat="43.3412093762" lon="-8.4100640193">
        <ele>18.40</ele>
        <time>2020-03-14T16:47:23Z</time>
      </trkpt>
      <trkpt lat="43.3411761839" lon="-8.4100322518">
        <ele>18.39</ele>
        <time>2020-03-14T16:47:24Z</time>
      </trkpt>
      <trkpt lat="43.3411434107" lon="-8.4099981375">
        <ele>18.39</ele>
        <time>2020-03-14T16:47:25Z</time>
      </trkpt>
      <trkpt lat="43.3410742600" lon="-8.4099295735">
        <ele>18.41</ele>
        <time>2020-03-14T16:47:27Z</time>
      </trkpt>
      <trkpt lat="43.3410372958" lon="-8.4099004883">
        <ele>18.43</ele>
        <time>2020-03-14T16:47:28Z</time>
      </trkpt>
      <trkpt lat="43.3404006902" lon="-8.4095461015">
        <ele>19.02</ele>
        <time>2020-03-14T16:47:45Z</time>
      </trkpt>
      <trkpt lat="43.3400484826" lon="-8.4092433471">
        <ele>19.59</ele>
        <time>2020-03-14T16:47:57Z</time>
      </trkpt>
      <trkpt lat="43.3400447108" lon="-8.4091924690">
        <ele>19.82</ele>
        <time>2020-03-14T16:47:58Z</time>
      </trkpt>
      <trkpt lat="43.3400618099" lon="-8.4091462009">
        <ele>20.24</ele>
        <time>2020-03-14T16:47:59Z</time>
      </trkpt>
      <trkpt lat="43.3400913142" lon="-8.4091136791">
        <ele>20.69</ele>
        <time>2020-03-14T16:48:00Z</time>
      </trkpt>
      <trkpt lat="43.3401245903" lon="-8.4090903774">
        <ele>20.91</ele>
        <time>2020-03-14T16:48:01Z</time>
      </trkpt>
      <trkpt lat="43.3401601296" lon="-8.4090685844">
        <ele>21.03</ele>
        <time>2020-03-14T16:48:02Z</time>
      </trkpt>
      <trkpt lat="43.3401936572" lon="-8.4090467077">
        <ele>21.08</ele>
        <time>2020-03-14T16:48:03Z</time>
      </trkpt>
      <trkpt lat="43.3403251693" lon="-8.4090110846">
        <ele>21.14</ele>
        <time>2020-03-14T16:48:07Z</time>
      </trkpt>
      <trkpt lat="43.3403859381" lon="-8.4090343025">
        <ele>21.14</ele>
        <time>2020-03-14T16:48:09Z</time>
      </trkpt>
      <trkpt lat="43.3404222317" lon="-8.4090183768">
        <ele>21.10</ele>
        <time>2020-03-14T16:48:10Z</time>
      </trkpt>
      <trkpt lat="43.3404612076" lon="-8.4089876153">
        <ele>21.05</ele>
        <time>2020-03-14T16:48:11Z</time>
      </trkpt>
      <trkpt lat="43.3404895384" lon="-8.4089461248">
        <ele>20.97</ele>
        <time>2020-03-14T16:48:12Z</time>
      </trkpt>
      <trkpt lat="43.3405206352" lon="-8.4089013655">
        <ele>20.87</ele>
        <time>2020-03-14T16:48:13Z</time>
      </trkpt>
      <trkpt lat="43.3405875228" lon="-8.4088083263">
        <ele>20.66</ele>
        <time>2020-03-14T16:48:15Z</time>
      </trkpt>
      <trkpt lat="43.3408727590" lon="-8.4083160572">
        <ele>18.93</ele>
        <time>2020-03-14T16:48:25Z</time>
      </trkpt>
      <trkpt lat="43.3409652114" lon="-8.4081196692">
        <ele>18.40</ele>
        <time>2020-03-14T16:48:29Z</time>
      </trkpt>
      <trkpt lat="43.3409740124" lon="-8.4080664441">
        <ele>18.38</ele>
        <time>2020-03-14T16:48:30Z</time>
      </trkpt>
      <trkpt lat="43.3409709111" lon="-8.4080113750">
        <ele>18.37</ele>
        <time>2020-03-14T16:48:31Z</time>
      </trkpt>
      <trkpt lat="43.3409586735" lon="-8.4079596587">
        <ele>18.37</ele>
        <time>2020-03-14T16:48:32Z</time>
      </trkpt>
      <trkpt lat="43.3409473579" lon="-8.4079116303">
        <ele>18.37</ele>
        <time>2020-03-14T16:48:33Z</time>
      </trkpt>
      <trkpt lat="43.3409387246" lon="-8.4078674577">
        <ele>18.37</ele>
        <time>2020-03-14T16:48:34Z</time>
      </trkpt>
      <trkpt lat="43.3407371398" lon="-8.4075709060">
        <ele>20.80</ele>
        <time>2020-03-14T16:48:46Z</time>
      </trkpt>
      <trkpt lat="43.3406000957" lon="-8.4074394777">
        <ele>22.57</ele>
        <time>2020-03-14T16:48:54Z</time>
      </trkpt>
      <trkpt lat="43.3406081423" lon="-8.4074020945">
        <ele>22.67</ele>
        <time>2020-03-14T16:48:55Z</time>
      </trkpt>
      <trkpt lat="43.3406535722" lon="-8.4073705785">
        <ele>23.11</ele>
        <time>2020-03-14T16:48:57Z</time>
      </trkpt>
      <trkpt lat="43.3406740241" lon="-8.4073711652">
        <ele>23.48</ele>
        <time>2020-03-14T16:48:58Z</time>
      </trkpt>
      <trkpt lat="43.3406957332" lon="-8.4073789604">
        <ele>23.80</ele>
        <time>2020-03-14T16:48:59Z</time>
      </trkpt>
      <trkpt lat="43.3407179452" lon="-8.4073932935">
        <ele>23.99</ele>
        <time>2020-03-14T16:49:00Z</time>
      </trkpt>
      <trkpt lat="43.3407346252" lon="-8.4074136615">
        <ele>24.10</ele>
        <time>2020-03-14T16:49:01Z</time>
      </trkpt>
      <trkpt lat="43.3407457732" lon="-8.4074363764">
        <ele>24.17</ele>
        <time>2020-03-14T16:49:02Z</time>
      </trkpt>
      <trkpt lat="43.3407440968" lon="-8.4074670542">
        <ele>24.24</ele>
        <time>2020-03-14T16:49:03Z</time>
      </trkpt>
      <trkpt lat="43.3407366369" lon="-8.4074974805">
        <ele>24.26</ele>
        <time>2020-03-14T16:49:04Z</time>
      </trkpt>
      <trkpt lat="43.3407252375" lon="-8.4075259790">
        <ele>24.34</ele>
        <time>2020-03-14T16:49:05Z</time>
      </trkpt>
      <trkpt lat="43.3407078031" lon="-8.4075487778">
        <ele>24.42</ele>
        <time>2020-03-14T16:49:06Z</time>
      </trkpt>
      <trkpt lat="43.3406863455" lon="-8.4075607639">
        <ele>24.48</ele>
        <time>2020-03-14T16:49:07Z</time>
      </trkpt>
      <trkpt lat="43.3406642172" lon="-8.4075585846">
        <ele>24.53</ele>
        <time>2020-03-14T16:49:08Z</time>
      </trkpt>
      <trkpt lat="43.3406444360" lon="-8.4075424075">
        <ele>24.61</ele>
        <time>2020-03-14T16:49:09Z</time>
      </trkpt>
      <trkpt lat="43.3406311926" lon="-8.4075178485">
        <ele>24.81</ele>
        <time>2020-03-14T16:49:10Z</time>
      </trkpt>
      <trkpt lat="43.3406267501" lon="-8.4074845724">
        <ele>25.09</ele>
        <time>2020-03-14T16:49:11Z</time>
      </trkpt>
      <trkpt lat="43.3406381495" lon="-8.4074491169">
        <ele>25.33</ele>
        <time>2020-03-14T16:49:12Z</time>
      </trkpt>
      <trkpt lat="43.3406490460" lon="-8.4074077103">
        <ele>25.61</ele>
        <time>2020-03-14T16:49:13Z</time>
      </trkpt>
      <trkpt lat="43.3407178614" lon="-8.4072601050">
        <ele>27.61</ele>
        <time>2020-03-14T16:49:18Z</time>
      </trkpt>
      <trkpt lat="43.3408924565" lon="-8.4068166185">
        <ele>29.55</ele>
        <time>2020-03-14T16:49:31Z</time>
      </trkpt>
      <trkpt lat="43.3409097232" lon="-8.4067504015">
        <ele>29.55</ele>
        <time>2020-03-14T16:49:34Z</time>
      </trkpt>
      <trkpt lat="43.3408162650" lon="-8.4067929816">
        <ele>28.82</ele>
        <time>2020-03-14T16:49:42Z</time>
      </trkpt>
      <trkpt lat="43.3408362977" lon="-8.4068175405">
        <ele>28.61</ele>
        <time>2020-03-14T16:49:43Z</time>
      </trkpt>
      <trkpt lat="43.3408618625" lon="-8.4068315383">
        <ele>28.32</ele>
        <time>2020-03-14T16:49:44Z</time>
      </trkpt>
      <trkpt lat="43.3408884332" lon="-8.4068325441">
        <ele>28.01</ele>
        <time>2020-03-14T16:49:45Z</time>
      </trkpt>
      <trkpt lat="43.3409237210" lon="-8.4068160318">
        <ele>27.67</ele>
        <time>2020-03-14T16:49:46Z</time>
      </trkpt>
      <trkpt lat="43.3409556560" lon="-8.4067943227">
        <ele>27.41</ele>
        <time>2020-03-14T16:49:47Z</time>
      </trkpt>
      <trkpt lat="43.3409890160" lon="-8.4067720268">
        <ele>27.15</ele>
        <time>2020-03-14T16:49:48Z</time>
      </trkpt>
      <trkpt lat="43.3410692308" lon="-8.4067866113">
        <ele>26.30</ele>
        <time>2020-03-14T16:49:51Z</time>
      </trkpt>
      <trkpt lat="43.3410870843" lon="-8.4068018664">
        <ele>25.91</ele>
        <time>2020-03-14T16:49:52Z</time>
      </trkpt>
      <trkpt lat="43.3411477692" lon="-8.4068393335">
        <ele>22.43</ele>
        <time>2020-03-14T16:49:58Z</time>
      </trkpt>
      <trkpt lat="43.3411500324" lon="-8.4068376571">
        <ele>23.51</ele>
        <time>2020-03-14T16:50:00Z</time>
      </trkpt>
    </trkseg>
  </trk>
</gpx>
